<?xml version="1.0" encoding="UTF-8"?><gpx version="1.1" creator="Exported from Strava via extension e-ivanov.ru"  xsi:schemaLocation="http://www.topografix.com/GPX/1/1 http://www.topografix.com/GPX/1/1/gpx.xsd http://www.garmin.com/xmlschemas/GpxExtensions/v3 http://www.garmin.com/xmlschemas/GpxExtensionsv3.xsd http://www.garmin.com/xmlschemas/TrackPointExtension/v1 http://www.garmin.com/xmlschemas/TrackPointExtensionv1.xsd"  xmlns="http://www.topografix.com/GPX/1/1"  xmlns:gpxtpx="http://www.garmin.com/xmlschemas/TrackPointExtension/v1"  xmlns:gpxx="http://www.garmin.com/xmlschemas/GpxExtensions/v3" xmlns:xsi="http://www.w3.org/2001/XMLSchema-instance"><metadata><link href="http://e-ivanov.ru/projects/strava-export-gpx/"><text>Strava gpx export</text></link><time>2022-05-15T10:42:20.542Z</time></metadata><trk><name>RR 22/11 - Wiemesmeer | Fietsrit | Strava</name><trkseg><trkpt lon="5.743753" lat="51.144211"><ele>34.8</ele><time>2022-05-15T06:00:00.000Z</time></trkpt><trkpt lon="5.743769" lat="51.144183"><ele>34.8</ele><time>2022-05-15T06:00:01.000Z</time></trkpt><trkpt lon="5.743773" lat="51.144151"><ele>34.8</ele><time>2022-05-15T06:00:02.000Z</time></trkpt><trkpt lon="5.74377" lat="51.144131"><ele>34.8</ele><time>2022-05-15T06:00:03.000Z</time></trkpt><trkpt lon="5.743765" lat="51.144112"><ele>34.8</ele><time>2022-05-15T06:00:04.000Z</time></trkpt><trkpt lon="5.74376" lat="51.144101"><ele>34.8</ele><time>2022-05-15T06:00:05.000Z</time></trkpt><trkpt lon="5.743755" lat="51.144082"><ele>34.8</ele><time>2022-05-15T06:00:06.000Z</time></trkpt><trkpt lon="5.74376" lat="51.144059"><ele>34.8</ele><time>2022-05-15T06:00:07.000Z</time></trkpt><trkpt lon="5.743776" lat="51.144029"><ele>34.8</ele><time>2022-05-15T06:00:08.000Z</time></trkpt><trkpt lon="5.743804" lat="51.144006"><ele>34.6</ele><time>2022-05-15T06:00:09.000Z</time></trkpt><trkpt lon="5.743842" lat="51.143983"><ele>34.6</ele><time>2022-05-15T06:00:10.000Z</time></trkpt><trkpt lon="5.743888" lat="51.143964"><ele>34.6</ele><time>2022-05-15T06:00:11.000Z</time></trkpt><trkpt lon="5.743942" lat="51.143952"><ele>34.6</ele><time>2022-05-15T06:00:12.000Z</time></trkpt><trkpt lon="5.744005" lat="51.143944"><ele>34.6</ele><time>2022-05-15T06:00:13.000Z</time></trkpt><trkpt lon="5.744072" lat="51.143936"><ele>34.6</ele><time>2022-05-15T06:00:14.000Z</time></trkpt><trkpt lon="5.744148" lat="51.143929"><ele>34.6</ele><time>2022-05-15T06:00:15.000Z</time></trkpt><trkpt lon="5.744216" lat="51.143915"><ele>34.4</ele><time>2022-05-15T06:00:16.000Z</time></trkpt><trkpt lon="5.744296" lat="51.143891"><ele>34.4</ele><time>2022-05-15T06:00:17.000Z</time></trkpt><trkpt lon="5.744363" lat="51.143861"><ele>34.4</ele><time>2022-05-15T06:00:18.000Z</time></trkpt><trkpt lon="5.744425" lat="51.143823"><ele>34.6</ele><time>2022-05-15T06:00:19.000Z</time></trkpt><trkpt lon="5.744488" lat="51.143785"><ele>34.6</ele><time>2022-05-15T06:00:20.000Z</time></trkpt><trkpt lon="5.744551" lat="51.143744"><ele>34.6</ele><time>2022-05-15T06:00:21.000Z</time></trkpt><trkpt lon="5.744617" lat="51.143701"><ele>34.6</ele><time>2022-05-15T06:00:22.000Z</time></trkpt><trkpt lon="5.744681" lat="51.143655"><ele>34.4</ele><time>2022-05-15T06:00:23.000Z</time></trkpt><trkpt lon="5.744742" lat="51.143614"><ele>34.4</ele><time>2022-05-15T06:00:24.000Z</time></trkpt><trkpt lon="5.744815" lat="51.143567"><ele>34.4</ele><time>2022-05-15T06:00:25.000Z</time></trkpt><trkpt lon="5.744883" lat="51.143522"><ele>34.4</ele><time>2022-05-15T06:00:26.000Z</time></trkpt><trkpt lon="5.744951" lat="51.14348"><ele>34.4</ele><time>2022-05-15T06:00:27.000Z</time></trkpt><trkpt lon="5.745016" lat="51.14343"><ele>34.4</ele><time>2022-05-15T06:00:28.000Z</time></trkpt><trkpt lon="5.745081" lat="51.143389"><ele>34.4</ele><time>2022-05-15T06:00:29.000Z</time></trkpt><trkpt lon="5.745143" lat="51.143346"><ele>34.4</ele><time>2022-05-15T06:00:30.000Z</time></trkpt><trkpt lon="5.745213" lat="51.143297"><ele>34.4</ele><time>2022-05-15T06:00:31.000Z</time></trkpt><trkpt lon="5.745277" lat="51.143252"><ele>34.4</ele><time>2022-05-15T06:00:32.000Z</time></trkpt><trkpt lon="5.745345" lat="51.143205"><ele>34.4</ele><time>2022-05-15T06:00:33.000Z</time></trkpt><trkpt lon="5.745411" lat="51.143163"><ele>34.4</ele><time>2022-05-15T06:00:34.000Z</time></trkpt><trkpt lon="5.745476" lat="51.143118"><ele>34.4</ele><time>2022-05-15T06:00:35.000Z</time></trkpt><trkpt lon="5.745542" lat="51.143076"><ele>34.4</ele><time>2022-05-15T06:00:36.000Z</time></trkpt><trkpt lon="5.745609" lat="51.143034"><ele>34.4</ele><time>2022-05-15T06:00:37.000Z</time></trkpt><trkpt lon="5.745677" lat="51.142991"><ele>34.4</ele><time>2022-05-15T06:00:38.000Z</time></trkpt><trkpt lon="5.745743" lat="51.142942"><ele>34.4</ele><time>2022-05-15T06:00:39.000Z</time></trkpt><trkpt lon="5.745808" lat="51.142901"><ele>34.4</ele><time>2022-05-15T06:00:40.000Z</time></trkpt><trkpt lon="5.745875" lat="51.142854"><ele>34.4</ele><time>2022-05-15T06:00:41.000Z</time></trkpt><trkpt lon="5.745941" lat="51.142812"><ele>34.4</ele><time>2022-05-15T06:00:42.000Z</time></trkpt><trkpt lon="5.746008" lat="51.14277"><ele>34.4</ele><time>2022-05-15T06:00:43.000Z</time></trkpt><trkpt lon="5.746074" lat="51.142725"><ele>34.4</ele><time>2022-05-15T06:00:44.000Z</time></trkpt><trkpt lon="5.746143" lat="51.142682"><ele>34.2</ele><time>2022-05-15T06:00:45.000Z</time></trkpt><trkpt lon="5.74621" lat="51.142641"><ele>34.4</ele><time>2022-05-15T06:00:46.000Z</time></trkpt><trkpt lon="5.74628" lat="51.142595"><ele>34.4</ele><time>2022-05-15T06:00:47.000Z</time></trkpt><trkpt lon="5.746349" lat="51.142552"><ele>34.4</ele><time>2022-05-15T06:00:48.000Z</time></trkpt><trkpt lon="5.746415" lat="51.142511"><ele>34.4</ele><time>2022-05-15T06:00:49.000Z</time></trkpt><trkpt lon="5.746481" lat="51.142465"><ele>34.4</ele><time>2022-05-15T06:00:50.000Z</time></trkpt><trkpt lon="5.746546" lat="51.142419"><ele>34.4</ele><time>2022-05-15T06:00:51.000Z</time></trkpt><trkpt lon="5.746609" lat="51.142374"><ele>34.4</ele><time>2022-05-15T06:00:52.000Z</time></trkpt><trkpt lon="5.746673" lat="51.142328"><ele>34.4</ele><time>2022-05-15T06:00:53.000Z</time></trkpt><trkpt lon="5.746733" lat="51.142276"><ele>34.2</ele><time>2022-05-15T06:00:54.000Z</time></trkpt><trkpt lon="5.746798" lat="51.142225"><ele>34.2</ele><time>2022-05-15T06:00:55.000Z</time></trkpt><trkpt lon="5.746862" lat="51.142176"><ele>34.2</ele><time>2022-05-15T06:00:56.000Z</time></trkpt><trkpt lon="5.746931" lat="51.142126"><ele>34.2</ele><time>2022-05-15T06:00:57.000Z</time></trkpt><trkpt lon="5.747003" lat="51.14208"><ele>34.2</ele><time>2022-05-15T06:00:58.000Z</time></trkpt><trkpt lon="5.747071" lat="51.142034"><ele>34.2</ele><time>2022-05-15T06:00:59.000Z</time></trkpt><trkpt lon="5.74714" lat="51.141985"><ele>34.2</ele><time>2022-05-15T06:01:00.000Z</time></trkpt><trkpt lon="5.747208" lat="51.141939"><ele>34.2</ele><time>2022-05-15T06:01:01.000Z</time></trkpt><trkpt lon="5.747275" lat="51.141895"><ele>34.2</ele><time>2022-05-15T06:01:02.000Z</time></trkpt><trkpt lon="5.747351" lat="51.141847"><ele>34.2</ele><time>2022-05-15T06:01:03.000Z</time></trkpt><trkpt lon="5.747422" lat="51.141797"><ele>34.2</ele><time>2022-05-15T06:01:04.000Z</time></trkpt><trkpt lon="5.747491" lat="51.141752"><ele>34.2</ele><time>2022-05-15T06:01:05.000Z</time></trkpt><trkpt lon="5.747561" lat="51.141706"><ele>34.2</ele><time>2022-05-15T06:01:06.000Z</time></trkpt><trkpt lon="5.747633" lat="51.141656"><ele>34.2</ele><time>2022-05-15T06:01:07.000Z</time></trkpt><trkpt lon="5.747702" lat="51.141611"><ele>34</ele><time>2022-05-15T06:01:08.000Z</time></trkpt><trkpt lon="5.74777" lat="51.141565"><ele>34</ele><time>2022-05-15T06:01:09.000Z</time></trkpt><trkpt lon="5.747836" lat="51.141517"><ele>34</ele><time>2022-05-15T06:01:10.000Z</time></trkpt><trkpt lon="5.747905" lat="51.141466"><ele>34</ele><time>2022-05-15T06:01:11.000Z</time></trkpt><trkpt lon="5.747968" lat="51.141416"><ele>34</ele><time>2022-05-15T06:01:12.000Z</time></trkpt><trkpt lon="5.748038" lat="51.14137"><ele>34</ele><time>2022-05-15T06:01:13.000Z</time></trkpt><trkpt lon="5.748109" lat="51.141325"><ele>34</ele><time>2022-05-15T06:01:14.000Z</time></trkpt><trkpt lon="5.748181" lat="51.141275"><ele>34</ele><time>2022-05-15T06:01:15.000Z</time></trkpt><trkpt lon="5.748246" lat="51.141231"><ele>34</ele><time>2022-05-15T06:01:16.000Z</time></trkpt><trkpt lon="5.748316" lat="51.141183"><ele>34</ele><time>2022-05-15T06:01:17.000Z</time></trkpt><trkpt lon="5.748384" lat="51.141138"><ele>34</ele><time>2022-05-15T06:01:18.000Z</time></trkpt><trkpt lon="5.748433" lat="51.141105"><ele>34</ele><time>2022-05-15T06:01:19.000Z</time></trkpt><trkpt lon="5.748521" lat="51.14105"><ele>33.8</ele><time>2022-05-15T06:01:20.000Z</time></trkpt><trkpt lon="5.74859" lat="51.141004"><ele>34</ele><time>2022-05-15T06:01:21.000Z</time></trkpt><trkpt lon="5.748662" lat="51.140961"><ele>34</ele><time>2022-05-15T06:01:22.000Z</time></trkpt><trkpt lon="5.748734" lat="51.140924"><ele>34</ele><time>2022-05-15T06:01:23.000Z</time></trkpt><trkpt lon="5.748805" lat="51.140883"><ele>33.8</ele><time>2022-05-15T06:01:24.000Z</time></trkpt><trkpt lon="5.748876" lat="51.14084"><ele>33.8</ele><time>2022-05-15T06:01:25.000Z</time></trkpt><trkpt lon="5.74895" lat="51.140794"><ele>33.8</ele><time>2022-05-15T06:01:26.000Z</time></trkpt><trkpt lon="5.749019" lat="51.140745"><ele>34</ele><time>2022-05-15T06:01:27.000Z</time></trkpt><trkpt lon="5.749089" lat="51.140699"><ele>34</ele><time>2022-05-15T06:01:28.000Z</time></trkpt><trkpt lon="5.749159" lat="51.140653"><ele>34</ele><time>2022-05-15T06:01:29.000Z</time></trkpt><trkpt lon="5.749228" lat="51.140607"><ele>34</ele><time>2022-05-15T06:01:30.000Z</time></trkpt><trkpt lon="5.749291" lat="51.140554"><ele>34</ele><time>2022-05-15T06:01:31.000Z</time></trkpt><trkpt lon="5.74935" lat="51.140504"><ele>34</ele><time>2022-05-15T06:01:32.000Z</time></trkpt><trkpt lon="5.749412" lat="51.140455"><ele>34</ele><time>2022-05-15T06:01:33.000Z</time></trkpt><trkpt lon="5.74948" lat="51.140409"><ele>33.8</ele><time>2022-05-15T06:01:34.000Z</time></trkpt><trkpt lon="5.749551" lat="51.140359"><ele>33.8</ele><time>2022-05-15T06:01:35.000Z</time></trkpt><trkpt lon="5.749623" lat="51.140311"><ele>33.8</ele><time>2022-05-15T06:01:36.000Z</time></trkpt><trkpt lon="5.749696" lat="51.14026"><ele>33.8</ele><time>2022-05-15T06:01:37.000Z</time></trkpt><trkpt lon="5.749766" lat="51.140214"><ele>33.8</ele><time>2022-05-15T06:01:38.000Z</time></trkpt><trkpt lon="5.749835" lat="51.140166"><ele>33.8</ele><time>2022-05-15T06:01:39.000Z</time></trkpt><trkpt lon="5.749903" lat="51.14012"><ele>33.8</ele><time>2022-05-15T06:01:40.000Z</time></trkpt><trkpt lon="5.749978" lat="51.140073"><ele>33.8</ele><time>2022-05-15T06:01:41.000Z</time></trkpt><trkpt lon="5.750049" lat="51.140024"><ele>33.8</ele><time>2022-05-15T06:01:42.000Z</time></trkpt><trkpt lon="5.750122" lat="51.139978"><ele>33.8</ele><time>2022-05-15T06:01:43.000Z</time></trkpt><trkpt lon="5.750187" lat="51.139936"><ele>33.8</ele><time>2022-05-15T06:01:44.000Z</time></trkpt><trkpt lon="5.750264" lat="51.139886"><ele>33.8</ele><time>2022-05-15T06:01:45.000Z</time></trkpt><trkpt lon="5.750336" lat="51.139837"><ele>33.8</ele><time>2022-05-15T06:01:46.000Z</time></trkpt><trkpt lon="5.750405" lat="51.139791"><ele>33.8</ele><time>2022-05-15T06:01:47.000Z</time></trkpt><trkpt lon="5.750474" lat="51.139743"><ele>33.8</ele><time>2022-05-15T06:01:48.000Z</time></trkpt><trkpt lon="5.750547" lat="51.139696"><ele>33.8</ele><time>2022-05-15T06:01:49.000Z</time></trkpt><trkpt lon="5.750618" lat="51.13965"><ele>33.8</ele><time>2022-05-15T06:01:50.000Z</time></trkpt><trkpt lon="5.750689" lat="51.1396"><ele>33.8</ele><time>2022-05-15T06:01:51.000Z</time></trkpt><trkpt lon="5.750759" lat="51.139555"><ele>33.8</ele><time>2022-05-15T06:01:52.000Z</time></trkpt><trkpt lon="5.750828" lat="51.139506"><ele>33.8</ele><time>2022-05-15T06:01:53.000Z</time></trkpt><trkpt lon="5.750899" lat="51.139459"><ele>33.8</ele><time>2022-05-15T06:01:54.000Z</time></trkpt><trkpt lon="5.750968" lat="51.13941"><ele>33.8</ele><time>2022-05-15T06:01:55.000Z</time></trkpt><trkpt lon="5.751035" lat="51.139361"><ele>33.8</ele><time>2022-05-15T06:01:56.000Z</time></trkpt><trkpt lon="5.751105" lat="51.139314"><ele>33.8</ele><time>2022-05-15T06:01:57.000Z</time></trkpt><trkpt lon="5.751173" lat="51.139265"><ele>34</ele><time>2022-05-15T06:01:58.000Z</time></trkpt><trkpt lon="5.751243" lat="51.139222"><ele>34</ele><time>2022-05-15T06:01:59.000Z</time></trkpt><trkpt lon="5.75131" lat="51.139178"><ele>33.8</ele><time>2022-05-15T06:02:00.000Z</time></trkpt><trkpt lon="5.751379" lat="51.139131"><ele>34</ele><time>2022-05-15T06:02:01.000Z</time></trkpt><trkpt lon="5.751444" lat="51.139088"><ele>34</ele><time>2022-05-15T06:02:02.000Z</time></trkpt><trkpt lon="5.751513" lat="51.13904"><ele>34</ele><time>2022-05-15T06:02:03.000Z</time></trkpt><trkpt lon="5.751583" lat="51.138993"><ele>34</ele><time>2022-05-15T06:02:04.000Z</time></trkpt><trkpt lon="5.751651" lat="51.138948"><ele>34</ele><time>2022-05-15T06:02:05.000Z</time></trkpt><trkpt lon="5.751721" lat="51.138902"><ele>34</ele><time>2022-05-15T06:02:06.000Z</time></trkpt><trkpt lon="5.751788" lat="51.138854"><ele>34</ele><time>2022-05-15T06:02:07.000Z</time></trkpt><trkpt lon="5.751859" lat="51.138804"><ele>34</ele><time>2022-05-15T06:02:08.000Z</time></trkpt><trkpt lon="5.751927" lat="51.138758"><ele>34</ele><time>2022-05-15T06:02:09.000Z</time></trkpt><trkpt lon="5.751997" lat="51.138712"><ele>34.2</ele><time>2022-05-15T06:02:10.000Z</time></trkpt><trkpt lon="5.752069" lat="51.138661"><ele>34.2</ele><time>2022-05-15T06:02:11.000Z</time></trkpt><trkpt lon="5.752139" lat="51.138616"><ele>34.2</ele><time>2022-05-15T06:02:12.000Z</time></trkpt><trkpt lon="5.752211" lat="51.138567"><ele>34.2</ele><time>2022-05-15T06:02:13.000Z</time></trkpt><trkpt lon="5.752279" lat="51.138524"><ele>34.2</ele><time>2022-05-15T06:02:14.000Z</time></trkpt><trkpt lon="5.752356" lat="51.138472"><ele>34.2</ele><time>2022-05-15T06:02:15.000Z</time></trkpt><trkpt lon="5.752422" lat="51.138426"><ele>34.2</ele><time>2022-05-15T06:02:16.000Z</time></trkpt><trkpt lon="5.752496" lat="51.138377"><ele>34</ele><time>2022-05-15T06:02:17.000Z</time></trkpt><trkpt lon="5.752567" lat="51.13833"><ele>34</ele><time>2022-05-15T06:02:18.000Z</time></trkpt><trkpt lon="5.752635" lat="51.138281"><ele>34</ele><time>2022-05-15T06:02:19.000Z</time></trkpt><trkpt lon="5.752703" lat="51.138237"><ele>34</ele><time>2022-05-15T06:02:20.000Z</time></trkpt><trkpt lon="5.75278" lat="51.138185"><ele>34</ele><time>2022-05-15T06:02:21.000Z</time></trkpt><trkpt lon="5.752853" lat="51.13814"><ele>34</ele><time>2022-05-15T06:02:22.000Z</time></trkpt><trkpt lon="5.752925" lat="51.13809"><ele>34</ele><time>2022-05-15T06:02:23.000Z</time></trkpt><trkpt lon="5.752998" lat="51.138045"><ele>34</ele><time>2022-05-15T06:02:24.000Z</time></trkpt><trkpt lon="5.75307" lat="51.137999"><ele>34</ele><time>2022-05-15T06:02:25.000Z</time></trkpt><trkpt lon="5.753141" lat="51.137949"><ele>34</ele><time>2022-05-15T06:02:26.000Z</time></trkpt><trkpt lon="5.753211" lat="51.137903"><ele>34</ele><time>2022-05-15T06:02:27.000Z</time></trkpt><trkpt lon="5.75328" lat="51.137858"><ele>34</ele><time>2022-05-15T06:02:28.000Z</time></trkpt><trkpt lon="5.753347" lat="51.137814"><ele>34</ele><time>2022-05-15T06:02:29.000Z</time></trkpt><trkpt lon="5.753419" lat="51.137767"><ele>34</ele><time>2022-05-15T06:02:30.000Z</time></trkpt><trkpt lon="5.753489" lat="51.137721"><ele>34.2</ele><time>2022-05-15T06:02:31.000Z</time></trkpt><trkpt lon="5.753563" lat="51.137682"><ele>34.2</ele><time>2022-05-15T06:02:32.000Z</time></trkpt><trkpt lon="5.753637" lat="51.137642"><ele>34.2</ele><time>2022-05-15T06:02:33.000Z</time></trkpt><trkpt lon="5.753717" lat="51.137601"><ele>34.2</ele><time>2022-05-15T06:02:34.000Z</time></trkpt><trkpt lon="5.75379" lat="51.137556"><ele>34.2</ele><time>2022-05-15T06:02:35.000Z</time></trkpt><trkpt lon="5.753859" lat="51.137511"><ele>34.2</ele><time>2022-05-15T06:02:36.000Z</time></trkpt><trkpt lon="5.753928" lat="51.137464"><ele>34.2</ele><time>2022-05-15T06:02:37.000Z</time></trkpt><trkpt lon="5.753997" lat="51.137419"><ele>34.2</ele><time>2022-05-15T06:02:38.000Z</time></trkpt><trkpt lon="5.754067" lat="51.137369"><ele>34.2</ele><time>2022-05-15T06:02:39.000Z</time></trkpt><trkpt lon="5.754136" lat="51.137324"><ele>34.2</ele><time>2022-05-15T06:02:40.000Z</time></trkpt><trkpt lon="5.754206" lat="51.137275"><ele>34.2</ele><time>2022-05-15T06:02:41.000Z</time></trkpt><trkpt lon="5.754277" lat="51.137228"><ele>34.2</ele><time>2022-05-15T06:02:42.000Z</time></trkpt><trkpt lon="5.754347" lat="51.137183"><ele>34.2</ele><time>2022-05-15T06:02:43.000Z</time></trkpt><trkpt lon="5.754417" lat="51.137138"><ele>34.2</ele><time>2022-05-15T06:02:44.000Z</time></trkpt><trkpt lon="5.754487" lat="51.137092"><ele>34.2</ele><time>2022-05-15T06:02:45.000Z</time></trkpt><trkpt lon="5.754559" lat="51.137046"><ele>34.2</ele><time>2022-05-15T06:02:46.000Z</time></trkpt><trkpt lon="5.754612" lat="51.137008"><ele>34.2</ele><time>2022-05-15T06:02:47.000Z</time></trkpt><trkpt lon="5.754685" lat="51.13696"><ele>34.2</ele><time>2022-05-15T06:02:48.000Z</time></trkpt><trkpt lon="5.754773" lat="51.136903"><ele>34.4</ele><time>2022-05-15T06:02:49.000Z</time></trkpt><trkpt lon="5.754843" lat="51.136854"><ele>34.4</ele><time>2022-05-15T06:02:50.000Z</time></trkpt><trkpt lon="5.754912" lat="51.136809"><ele>34.4</ele><time>2022-05-15T06:02:51.000Z</time></trkpt><trkpt lon="5.754982" lat="51.136761"><ele>34.4</ele><time>2022-05-15T06:02:52.000Z</time></trkpt><trkpt lon="5.755053" lat="51.136712"><ele>34.4</ele><time>2022-05-15T06:02:53.000Z</time></trkpt><trkpt lon="5.755122" lat="51.136664"><ele>34.4</ele><time>2022-05-15T06:02:54.000Z</time></trkpt><trkpt lon="5.755193" lat="51.136618"><ele>34.4</ele><time>2022-05-15T06:02:55.000Z</time></trkpt><trkpt lon="5.755264" lat="51.136572"><ele>34.4</ele><time>2022-05-15T06:02:56.000Z</time></trkpt><trkpt lon="5.755334" lat="51.136522"><ele>34.4</ele><time>2022-05-15T06:02:57.000Z</time></trkpt><trkpt lon="5.755405" lat="51.136476"><ele>34.4</ele><time>2022-05-15T06:02:58.000Z</time></trkpt><trkpt lon="5.755475" lat="51.136426"><ele>34.4</ele><time>2022-05-15T06:02:59.000Z</time></trkpt><trkpt lon="5.755546" lat="51.136381"><ele>34.4</ele><time>2022-05-15T06:03:00.000Z</time></trkpt><trkpt lon="5.755615" lat="51.136335"><ele>34.4</ele><time>2022-05-15T06:03:01.000Z</time></trkpt><trkpt lon="5.755684" lat="51.136289"><ele>34.4</ele><time>2022-05-15T06:03:02.000Z</time></trkpt><trkpt lon="5.755753" lat="51.136243"><ele>34.4</ele><time>2022-05-15T06:03:03.000Z</time></trkpt><trkpt lon="5.755822" lat="51.136202"><ele>34.4</ele><time>2022-05-15T06:03:04.000Z</time></trkpt><trkpt lon="5.755893" lat="51.136152"><ele>34.4</ele><time>2022-05-15T06:03:05.000Z</time></trkpt><trkpt lon="5.755965" lat="51.136104"><ele>34.4</ele><time>2022-05-15T06:03:06.000Z</time></trkpt><trkpt lon="5.756037" lat="51.136056"><ele>34.4</ele><time>2022-05-15T06:03:07.000Z</time></trkpt><trkpt lon="5.756107" lat="51.13601"><ele>34.4</ele><time>2022-05-15T06:03:08.000Z</time></trkpt><trkpt lon="5.756178" lat="51.135965"><ele>34.4</ele><time>2022-05-15T06:03:09.000Z</time></trkpt><trkpt lon="5.75625" lat="51.135919"><ele>34.4</ele><time>2022-05-15T06:03:10.000Z</time></trkpt><trkpt lon="5.756321" lat="51.135873"><ele>34.4</ele><time>2022-05-15T06:03:11.000Z</time></trkpt><trkpt lon="5.756393" lat="51.135824"><ele>34.4</ele><time>2022-05-15T06:03:12.000Z</time></trkpt><trkpt lon="5.756465" lat="51.135778"><ele>34.4</ele><time>2022-05-15T06:03:13.000Z</time></trkpt><trkpt lon="5.756536" lat="51.135728"><ele>34.4</ele><time>2022-05-15T06:03:14.000Z</time></trkpt><trkpt lon="5.756608" lat="51.135683"><ele>34.4</ele><time>2022-05-15T06:03:15.000Z</time></trkpt><trkpt lon="5.756683" lat="51.135635"><ele>34.2</ele><time>2022-05-15T06:03:16.000Z</time></trkpt><trkpt lon="5.756758" lat="51.135587"><ele>34.2</ele><time>2022-05-15T06:03:17.000Z</time></trkpt><trkpt lon="5.756833" lat="51.135541"><ele>34.2</ele><time>2022-05-15T06:03:18.000Z</time></trkpt><trkpt lon="5.756906" lat="51.135496"><ele>34.2</ele><time>2022-05-15T06:03:19.000Z</time></trkpt><trkpt lon="5.756978" lat="51.13545"><ele>34.2</ele><time>2022-05-15T06:03:20.000Z</time></trkpt><trkpt lon="5.757048" lat="51.1354"><ele>34.2</ele><time>2022-05-15T06:03:21.000Z</time></trkpt><trkpt lon="5.757122" lat="51.135354"><ele>34.2</ele><time>2022-05-15T06:03:22.000Z</time></trkpt><trkpt lon="5.757195" lat="51.135305"><ele>34.2</ele><time>2022-05-15T06:03:23.000Z</time></trkpt><trkpt lon="5.757264" lat="51.135259"><ele>34.4</ele><time>2022-05-15T06:03:24.000Z</time></trkpt><trkpt lon="5.757334" lat="51.13521"><ele>34.4</ele><time>2022-05-15T06:03:25.000Z</time></trkpt><trkpt lon="5.757403" lat="51.135161"><ele>34.4</ele><time>2022-05-15T06:03:26.000Z</time></trkpt><trkpt lon="5.757472" lat="51.135114"><ele>34.4</ele><time>2022-05-15T06:03:27.000Z</time></trkpt><trkpt lon="5.757536" lat="51.135068"><ele>34.4</ele><time>2022-05-15T06:03:28.000Z</time></trkpt><trkpt lon="5.7576" lat="51.135019"><ele>34.4</ele><time>2022-05-15T06:03:29.000Z</time></trkpt><trkpt lon="5.757663" lat="51.134973"><ele>34.4</ele><time>2022-05-15T06:03:30.000Z</time></trkpt><trkpt lon="5.757721" lat="51.134924"><ele>34.4</ele><time>2022-05-15T06:03:31.000Z</time></trkpt><trkpt lon="5.757778" lat="51.134871"><ele>34.4</ele><time>2022-05-15T06:03:32.000Z</time></trkpt><trkpt lon="5.757829" lat="51.13482"><ele>34.4</ele><time>2022-05-15T06:03:33.000Z</time></trkpt><trkpt lon="5.757884" lat="51.134763"><ele>34.4</ele><time>2022-05-15T06:03:34.000Z</time></trkpt><trkpt lon="5.757935" lat="51.13471"><ele>34.4</ele><time>2022-05-15T06:03:35.000Z</time></trkpt><trkpt lon="5.757984" lat="51.134649"><ele>34.4</ele><time>2022-05-15T06:03:36.000Z</time></trkpt><trkpt lon="5.758029" lat="51.134591"><ele>34.4</ele><time>2022-05-15T06:03:37.000Z</time></trkpt><trkpt lon="5.758074" lat="51.134535"><ele>34.4</ele><time>2022-05-15T06:03:38.000Z</time></trkpt><trkpt lon="5.758116" lat="51.134477"><ele>34.4</ele><time>2022-05-15T06:03:39.000Z</time></trkpt><trkpt lon="5.758155" lat="51.134422"><ele>34.4</ele><time>2022-05-15T06:03:40.000Z</time></trkpt><trkpt lon="5.758192" lat="51.134367"><ele>34.4</ele><time>2022-05-15T06:03:41.000Z</time></trkpt><trkpt lon="5.75823" lat="51.13431"><ele>34.4</ele><time>2022-05-15T06:03:42.000Z</time></trkpt><trkpt lon="5.758265" lat="51.134256"><ele>34.4</ele><time>2022-05-15T06:03:43.000Z</time></trkpt><trkpt lon="5.758301" lat="51.134206"><ele>34.4</ele><time>2022-05-15T06:03:44.000Z</time></trkpt><trkpt lon="5.758336" lat="51.134157"><ele>34.4</ele><time>2022-05-15T06:03:45.000Z</time></trkpt><trkpt lon="5.758369" lat="51.134107"><ele>34.4</ele><time>2022-05-15T06:03:46.000Z</time></trkpt><trkpt lon="5.758402" lat="51.134061"><ele>34.4</ele><time>2022-05-15T06:03:47.000Z</time></trkpt><trkpt lon="5.758434" lat="51.134019"><ele>34.4</ele><time>2022-05-15T06:03:48.000Z</time></trkpt><trkpt lon="5.758462" lat="51.133975"><ele>34.4</ele><time>2022-05-15T06:03:49.000Z</time></trkpt><trkpt lon="5.758478" lat="51.133935"><ele>34.4</ele><time>2022-05-15T06:03:50.000Z</time></trkpt><trkpt lon="5.758468" lat="51.133904"><ele>34.4</ele><time>2022-05-15T06:03:51.000Z</time></trkpt><trkpt lon="5.758439" lat="51.13387"><ele>34.2</ele><time>2022-05-15T06:03:52.000Z</time></trkpt><trkpt lon="5.758389" lat="51.133833"><ele>34.2</ele><time>2022-05-15T06:03:53.000Z</time></trkpt><trkpt lon="5.758322" lat="51.133783"><ele>34.2</ele><time>2022-05-15T06:03:54.000Z</time></trkpt><trkpt lon="5.758257" lat="51.133737"><ele>34.2</ele><time>2022-05-15T06:03:55.000Z</time></trkpt><trkpt lon="5.758192" lat="51.133684"><ele>34.2</ele><time>2022-05-15T06:03:56.000Z</time></trkpt><trkpt lon="5.758127" lat="51.133628"><ele>34.2</ele><time>2022-05-15T06:03:57.000Z</time></trkpt><trkpt lon="5.758057" lat="51.133573"><ele>34.2</ele><time>2022-05-15T06:03:58.000Z</time></trkpt><trkpt lon="5.757989" lat="51.133516"><ele>34.2</ele><time>2022-05-15T06:03:59.000Z</time></trkpt><trkpt lon="5.75792" lat="51.133459"><ele>34.2</ele><time>2022-05-15T06:04:00.000Z</time></trkpt><trkpt lon="5.757852" lat="51.133402"><ele>34.2</ele><time>2022-05-15T06:04:01.000Z</time></trkpt><trkpt lon="5.757789" lat="51.133347"><ele>34.4</ele><time>2022-05-15T06:04:02.000Z</time></trkpt><trkpt lon="5.757726" lat="51.133293"><ele>34.4</ele><time>2022-05-15T06:04:03.000Z</time></trkpt><trkpt lon="5.757654" lat="51.133233"><ele>34.2</ele><time>2022-05-15T06:04:04.000Z</time></trkpt><trkpt lon="5.75758" lat="51.133173"><ele>34.2</ele><time>2022-05-15T06:04:05.000Z</time></trkpt><trkpt lon="5.757514" lat="51.133117"><ele>34.2</ele><time>2022-05-15T06:04:06.000Z</time></trkpt><trkpt lon="5.757446" lat="51.133062"><ele>34.2</ele><time>2022-05-15T06:04:07.000Z</time></trkpt><trkpt lon="5.75738" lat="51.133006"><ele>34.2</ele><time>2022-05-15T06:04:08.000Z</time></trkpt><trkpt lon="5.757314" lat="51.132952"><ele>34.2</ele><time>2022-05-15T06:04:09.000Z</time></trkpt><trkpt lon="5.757248" lat="51.132895"><ele>34.2</ele><time>2022-05-15T06:04:10.000Z</time></trkpt><trkpt lon="5.757183" lat="51.132841"><ele>34.2</ele><time>2022-05-15T06:04:11.000Z</time></trkpt><trkpt lon="5.75712" lat="51.132785"><ele>34.2</ele><time>2022-05-15T06:04:12.000Z</time></trkpt><trkpt lon="5.757054" lat="51.132727"><ele>34.2</ele><time>2022-05-15T06:04:13.000Z</time></trkpt><trkpt lon="5.756991" lat="51.132677"><ele>34.2</ele><time>2022-05-15T06:04:14.000Z</time></trkpt><trkpt lon="5.756931" lat="51.132624"><ele>34.2</ele><time>2022-05-15T06:04:15.000Z</time></trkpt><trkpt lon="5.756876" lat="51.13257"><ele>34</ele><time>2022-05-15T06:04:16.000Z</time></trkpt><trkpt lon="5.756822" lat="51.132516"><ele>34</ele><time>2022-05-15T06:04:17.000Z</time></trkpt><trkpt lon="5.756773" lat="51.13246"><ele>34</ele><time>2022-05-15T06:04:18.000Z</time></trkpt><trkpt lon="5.756732" lat="51.1324"><ele>34</ele><time>2022-05-15T06:04:19.000Z</time></trkpt><trkpt lon="5.756692" lat="51.132338"><ele>34</ele><time>2022-05-15T06:04:20.000Z</time></trkpt><trkpt lon="5.756653" lat="51.132277"><ele>33.8</ele><time>2022-05-15T06:04:21.000Z</time></trkpt><trkpt lon="5.756618" lat="51.132209"><ele>33.8</ele><time>2022-05-15T06:04:22.000Z</time></trkpt><trkpt lon="5.756587" lat="51.132143"><ele>33.8</ele><time>2022-05-15T06:04:23.000Z</time></trkpt><trkpt lon="5.756559" lat="51.132074"><ele>33.8</ele><time>2022-05-15T06:04:24.000Z</time></trkpt><trkpt lon="5.756534" lat="51.132009"><ele>34</ele><time>2022-05-15T06:04:25.000Z</time></trkpt><trkpt lon="5.756511" lat="51.131942"><ele>34</ele><time>2022-05-15T06:04:26.000Z</time></trkpt><trkpt lon="5.756494" lat="51.131877"><ele>34</ele><time>2022-05-15T06:04:27.000Z</time></trkpt><trkpt lon="5.756478" lat="51.131804"><ele>34</ele><time>2022-05-15T06:04:28.000Z</time></trkpt><trkpt lon="5.756458" lat="51.131736"><ele>33.8</ele><time>2022-05-15T06:04:29.000Z</time></trkpt><trkpt lon="5.756438" lat="51.131669"><ele>33.8</ele><time>2022-05-15T06:04:30.000Z</time></trkpt><trkpt lon="5.756418" lat="51.131598"><ele>33.8</ele><time>2022-05-15T06:04:31.000Z</time></trkpt><trkpt lon="5.756397" lat="51.131529"><ele>33.8</ele><time>2022-05-15T06:04:32.000Z</time></trkpt><trkpt lon="5.756379" lat="51.131461"><ele>33.8</ele><time>2022-05-15T06:04:33.000Z</time></trkpt><trkpt lon="5.756362" lat="51.131395"><ele>34</ele><time>2022-05-15T06:04:34.000Z</time></trkpt><trkpt lon="5.756344" lat="51.131335"><ele>34</ele><time>2022-05-15T06:04:35.000Z</time></trkpt><trkpt lon="5.756325" lat="51.13127"><ele>34</ele><time>2022-05-15T06:04:36.000Z</time></trkpt><trkpt lon="5.756307" lat="51.131205"><ele>34</ele><time>2022-05-15T06:04:37.000Z</time></trkpt><trkpt lon="5.756291" lat="51.131142"><ele>34</ele><time>2022-05-15T06:04:38.000Z</time></trkpt><trkpt lon="5.756273" lat="51.131076"><ele>34</ele><time>2022-05-15T06:04:39.000Z</time></trkpt><trkpt lon="5.756253" lat="51.131012"><ele>34</ele><time>2022-05-15T06:04:40.000Z</time></trkpt><trkpt lon="5.756232" lat="51.130948"><ele>34</ele><time>2022-05-15T06:04:41.000Z</time></trkpt><trkpt lon="5.756212" lat="51.130884"><ele>34</ele><time>2022-05-15T06:04:42.000Z</time></trkpt><trkpt lon="5.756192" lat="51.13082"><ele>34</ele><time>2022-05-15T06:04:43.000Z</time></trkpt><trkpt lon="5.756176" lat="51.130755"><ele>33.8</ele><time>2022-05-15T06:04:44.000Z</time></trkpt><trkpt lon="5.756157" lat="51.130686"><ele>34</ele><time>2022-05-15T06:04:45.000Z</time></trkpt><trkpt lon="5.756136" lat="51.130622"><ele>34</ele><time>2022-05-15T06:04:46.000Z</time></trkpt><trkpt lon="5.756116" lat="51.130558"><ele>34</ele><time>2022-05-15T06:04:47.000Z</time></trkpt><trkpt lon="5.756098" lat="51.130489"><ele>34</ele><time>2022-05-15T06:04:48.000Z</time></trkpt><trkpt lon="5.756079" lat="51.130424"><ele>33.8</ele><time>2022-05-15T06:04:49.000Z</time></trkpt><trkpt lon="5.756059" lat="51.130355"><ele>33.8</ele><time>2022-05-15T06:04:50.000Z</time></trkpt><trkpt lon="5.756041" lat="51.130289"><ele>33.8</ele><time>2022-05-15T06:04:51.000Z</time></trkpt><trkpt lon="5.756022" lat="51.130222"><ele>33.8</ele><time>2022-05-15T06:04:52.000Z</time></trkpt><trkpt lon="5.756002" lat="51.130156"><ele>33.8</ele><time>2022-05-15T06:04:53.000Z</time></trkpt><trkpt lon="5.755984" lat="51.130086"><ele>33.8</ele><time>2022-05-15T06:04:54.000Z</time></trkpt><trkpt lon="5.755964" lat="51.130023"><ele>33.8</ele><time>2022-05-15T06:04:55.000Z</time></trkpt><trkpt lon="5.755943" lat="51.129958"><ele>33.8</ele><time>2022-05-15T06:04:56.000Z</time></trkpt><trkpt lon="5.75592" lat="51.129893"><ele>33.8</ele><time>2022-05-15T06:04:57.000Z</time></trkpt><trkpt lon="5.755897" lat="51.12983"><ele>33.8</ele><time>2022-05-15T06:04:58.000Z</time></trkpt><trkpt lon="5.75587" lat="51.129768"><ele>33.8</ele><time>2022-05-15T06:04:59.000Z</time></trkpt><trkpt lon="5.755842" lat="51.129704"><ele>33.8</ele><time>2022-05-15T06:05:00.000Z</time></trkpt><trkpt lon="5.755814" lat="51.129636"><ele>34</ele><time>2022-05-15T06:05:01.000Z</time></trkpt><trkpt lon="5.755788" lat="51.129572"><ele>34</ele><time>2022-05-15T06:05:02.000Z</time></trkpt><trkpt lon="5.75576" lat="51.12951"><ele>34</ele><time>2022-05-15T06:05:03.000Z</time></trkpt><trkpt lon="5.755731" lat="51.129447"><ele>34</ele><time>2022-05-15T06:05:04.000Z</time></trkpt><trkpt lon="5.755708" lat="51.129387"><ele>34</ele><time>2022-05-15T06:05:05.000Z</time></trkpt><trkpt lon="5.755679" lat="51.12932"><ele>34</ele><time>2022-05-15T06:05:06.000Z</time></trkpt><trkpt lon="5.755645" lat="51.129256"><ele>34</ele><time>2022-05-15T06:05:07.000Z</time></trkpt><trkpt lon="5.755613" lat="51.129191"><ele>33.8</ele><time>2022-05-15T06:05:08.000Z</time></trkpt><trkpt lon="5.755581" lat="51.129127"><ele>33.8</ele><time>2022-05-15T06:05:09.000Z</time></trkpt><trkpt lon="5.755552" lat="51.129062"><ele>33.8</ele><time>2022-05-15T06:05:10.000Z</time></trkpt><trkpt lon="5.755521" lat="51.128996"><ele>33.8</ele><time>2022-05-15T06:05:11.000Z</time></trkpt><trkpt lon="5.755491" lat="51.128931"><ele>33.8</ele><time>2022-05-15T06:05:12.000Z</time></trkpt><trkpt lon="5.755461" lat="51.128867"><ele>33.6</ele><time>2022-05-15T06:05:13.000Z</time></trkpt><trkpt lon="5.75543" lat="51.128802"><ele>33.6</ele><time>2022-05-15T06:05:14.000Z</time></trkpt><trkpt lon="5.7554" lat="51.128737"><ele>33.6</ele><time>2022-05-15T06:05:15.000Z</time></trkpt><trkpt lon="5.75537" lat="51.128672"><ele>33.6</ele><time>2022-05-15T06:05:16.000Z</time></trkpt><trkpt lon="5.755341" lat="51.128606"><ele>33.6</ele><time>2022-05-15T06:05:17.000Z</time></trkpt><trkpt lon="5.755313" lat="51.128543"><ele>33.6</ele><time>2022-05-15T06:05:18.000Z</time></trkpt><trkpt lon="5.755286" lat="51.128481"><ele>33.6</ele><time>2022-05-15T06:05:19.000Z</time></trkpt><trkpt lon="5.755258" lat="51.128421"><ele>33.6</ele><time>2022-05-15T06:05:20.000Z</time></trkpt><trkpt lon="5.755227" lat="51.128354"><ele>33.6</ele><time>2022-05-15T06:05:21.000Z</time></trkpt><trkpt lon="5.755199" lat="51.128294"><ele>33.6</ele><time>2022-05-15T06:05:22.000Z</time></trkpt><trkpt lon="5.75517" lat="51.128231"><ele>33.6</ele><time>2022-05-15T06:05:23.000Z</time></trkpt><trkpt lon="5.75514" lat="51.128166"><ele>33.6</ele><time>2022-05-15T06:05:24.000Z</time></trkpt><trkpt lon="5.755115" lat="51.128109"><ele>33.6</ele><time>2022-05-15T06:05:25.000Z</time></trkpt><trkpt lon="5.755086" lat="51.128042"><ele>33.6</ele><time>2022-05-15T06:05:26.000Z</time></trkpt><trkpt lon="5.755052" lat="51.127967"><ele>33.6</ele><time>2022-05-15T06:05:27.000Z</time></trkpt><trkpt lon="5.755019" lat="51.127898"><ele>33.6</ele><time>2022-05-15T06:05:28.000Z</time></trkpt><trkpt lon="5.754986" lat="51.127837"><ele>33.6</ele><time>2022-05-15T06:05:29.000Z</time></trkpt><trkpt lon="5.754952" lat="51.127771"><ele>33.6</ele><time>2022-05-15T06:05:30.000Z</time></trkpt><trkpt lon="5.754922" lat="51.127704"><ele>33.6</ele><time>2022-05-15T06:05:31.000Z</time></trkpt><trkpt lon="5.754888" lat="51.127639"><ele>33.6</ele><time>2022-05-15T06:05:32.000Z</time></trkpt><trkpt lon="5.754855" lat="51.127575"><ele>33.6</ele><time>2022-05-15T06:05:33.000Z</time></trkpt><trkpt lon="5.754821" lat="51.127508"><ele>33.6</ele><time>2022-05-15T06:05:34.000Z</time></trkpt><trkpt lon="5.754784" lat="51.127443"><ele>33.6</ele><time>2022-05-15T06:05:35.000Z</time></trkpt><trkpt lon="5.754748" lat="51.127379"><ele>33.8</ele><time>2022-05-15T06:05:36.000Z</time></trkpt><trkpt lon="5.754715" lat="51.127314"><ele>33.8</ele><time>2022-05-15T06:05:37.000Z</time></trkpt><trkpt lon="5.754683" lat="51.127247"><ele>33.8</ele><time>2022-05-15T06:05:38.000Z</time></trkpt><trkpt lon="5.75465" lat="51.127182"><ele>33.8</ele><time>2022-05-15T06:05:39.000Z</time></trkpt><trkpt lon="5.754616" lat="51.127115"><ele>33.8</ele><time>2022-05-15T06:05:40.000Z</time></trkpt><trkpt lon="5.754582" lat="51.127057"><ele>33.8</ele><time>2022-05-15T06:05:41.000Z</time></trkpt><trkpt lon="5.754548" lat="51.126997"><ele>33.6</ele><time>2022-05-15T06:05:42.000Z</time></trkpt><trkpt lon="5.754513" lat="51.126932"><ele>33.6</ele><time>2022-05-15T06:05:43.000Z</time></trkpt><trkpt lon="5.754478" lat="51.126868"><ele>33.8</ele><time>2022-05-15T06:05:44.000Z</time></trkpt><trkpt lon="5.754441" lat="51.126802"><ele>33.8</ele><time>2022-05-15T06:05:45.000Z</time></trkpt><trkpt lon="5.754404" lat="51.126738"><ele>33.8</ele><time>2022-05-15T06:05:46.000Z</time></trkpt><trkpt lon="5.754369" lat="51.126675"><ele>33.8</ele><time>2022-05-15T06:05:47.000Z</time></trkpt><trkpt lon="5.754332" lat="51.126609"><ele>34</ele><time>2022-05-15T06:05:48.000Z</time></trkpt><trkpt lon="5.754296" lat="51.126544"><ele>34</ele><time>2022-05-15T06:05:49.000Z</time></trkpt><trkpt lon="5.754263" lat="51.126481"><ele>34</ele><time>2022-05-15T06:05:50.000Z</time></trkpt><trkpt lon="5.75423" lat="51.126417"><ele>34</ele><time>2022-05-15T06:05:51.000Z</time></trkpt><trkpt lon="5.754194" lat="51.126351"><ele>34</ele><time>2022-05-15T06:05:52.000Z</time></trkpt><trkpt lon="5.754157" lat="51.12629"><ele>34</ele><time>2022-05-15T06:05:53.000Z</time></trkpt><trkpt lon="5.754113" lat="51.126219"><ele>34</ele><time>2022-05-15T06:05:54.000Z</time></trkpt><trkpt lon="5.754072" lat="51.126155"><ele>34</ele><time>2022-05-15T06:05:55.000Z</time></trkpt><trkpt lon="5.754026" lat="51.126093"><ele>34</ele><time>2022-05-15T06:05:56.000Z</time></trkpt><trkpt lon="5.753983" lat="51.126032"><ele>33.8</ele><time>2022-05-15T06:05:57.000Z</time></trkpt><trkpt lon="5.753938" lat="51.125969"><ele>33.8</ele><time>2022-05-15T06:05:58.000Z</time></trkpt><trkpt lon="5.75389" lat="51.125906"><ele>33.8</ele><time>2022-05-15T06:05:59.000Z</time></trkpt><trkpt lon="5.753843" lat="51.125845"><ele>33.8</ele><time>2022-05-15T06:06:00.000Z</time></trkpt><trkpt lon="5.753798" lat="51.125784"><ele>33.6</ele><time>2022-05-15T06:06:01.000Z</time></trkpt><trkpt lon="5.753756" lat="51.125724"><ele>33.6</ele><time>2022-05-15T06:06:02.000Z</time></trkpt><trkpt lon="5.753711" lat="51.125662"><ele>33.6</ele><time>2022-05-15T06:06:03.000Z</time></trkpt><trkpt lon="5.753669" lat="51.125598"><ele>33.6</ele><time>2022-05-15T06:06:04.000Z</time></trkpt><trkpt lon="5.753621" lat="51.125536"><ele>33.6</ele><time>2022-05-15T06:06:05.000Z</time></trkpt><trkpt lon="5.753577" lat="51.125487"><ele>33.6</ele><time>2022-05-15T06:06:06.000Z</time></trkpt><trkpt lon="5.753513" lat="51.125423"><ele>33.6</ele><time>2022-05-15T06:06:07.000Z</time></trkpt><trkpt lon="5.753453" lat="51.125368"><ele>33.6</ele><time>2022-05-15T06:06:08.000Z</time></trkpt><trkpt lon="5.753397" lat="51.125318"><ele>33.6</ele><time>2022-05-15T06:06:09.000Z</time></trkpt><trkpt lon="5.753332" lat="51.125265"><ele>33.6</ele><time>2022-05-15T06:06:10.000Z</time></trkpt><trkpt lon="5.753268" lat="51.125215"><ele>33.6</ele><time>2022-05-15T06:06:11.000Z</time></trkpt><trkpt lon="5.753206" lat="51.125162"><ele>33.8</ele><time>2022-05-15T06:06:12.000Z</time></trkpt><trkpt lon="5.753142" lat="51.125108"><ele>33.8</ele><time>2022-05-15T06:06:13.000Z</time></trkpt><trkpt lon="5.75308" lat="51.125051"><ele>33.8</ele><time>2022-05-15T06:06:14.000Z</time></trkpt><trkpt lon="5.753015" lat="51.124994"><ele>33.8</ele><time>2022-05-15T06:06:15.000Z</time></trkpt><trkpt lon="5.75296" lat="51.124944"><ele>33.8</ele><time>2022-05-15T06:06:16.000Z</time></trkpt><trkpt lon="5.752888" lat="51.124882"><ele>33.8</ele><time>2022-05-15T06:06:17.000Z</time></trkpt><trkpt lon="5.752822" lat="51.124829"><ele>33.8</ele><time>2022-05-15T06:06:18.000Z</time></trkpt><trkpt lon="5.752753" lat="51.124775"><ele>33.8</ele><time>2022-05-15T06:06:19.000Z</time></trkpt><trkpt lon="5.752682" lat="51.124719"><ele>33.8</ele><time>2022-05-15T06:06:20.000Z</time></trkpt><trkpt lon="5.752613" lat="51.124666"><ele>33.8</ele><time>2022-05-15T06:06:21.000Z</time></trkpt><trkpt lon="5.752541" lat="51.124617"><ele>33.8</ele><time>2022-05-15T06:06:22.000Z</time></trkpt><trkpt lon="5.75247" lat="51.124566"><ele>33.8</ele><time>2022-05-15T06:06:23.000Z</time></trkpt><trkpt lon="5.752401" lat="51.124513"><ele>34</ele><time>2022-05-15T06:06:24.000Z</time></trkpt><trkpt lon="5.752329" lat="51.124461"><ele>34</ele><time>2022-05-15T06:06:25.000Z</time></trkpt><trkpt lon="5.752257" lat="51.124411"><ele>34</ele><time>2022-05-15T06:06:26.000Z</time></trkpt><trkpt lon="5.752184" lat="51.124362"><ele>34</ele><time>2022-05-15T06:06:27.000Z</time></trkpt><trkpt lon="5.752109" lat="51.124311"><ele>34</ele><time>2022-05-15T06:06:28.000Z</time></trkpt><trkpt lon="5.752036" lat="51.124262"><ele>34</ele><time>2022-05-15T06:06:29.000Z</time></trkpt><trkpt lon="5.751964" lat="51.124209"><ele>34</ele><time>2022-05-15T06:06:30.000Z</time></trkpt><trkpt lon="5.751894" lat="51.124155"><ele>34.2</ele><time>2022-05-15T06:06:31.000Z</time></trkpt><trkpt lon="5.751827" lat="51.124106"><ele>34.2</ele><time>2022-05-15T06:06:32.000Z</time></trkpt><trkpt lon="5.751756" lat="51.124053"><ele>34.2</ele><time>2022-05-15T06:06:33.000Z</time></trkpt><trkpt lon="5.751686" lat="51.123999"><ele>34.2</ele><time>2022-05-15T06:06:34.000Z</time></trkpt><trkpt lon="5.751618" lat="51.123949"><ele>34.2</ele><time>2022-05-15T06:06:35.000Z</time></trkpt><trkpt lon="5.751549" lat="51.123895"><ele>34.4</ele><time>2022-05-15T06:06:36.000Z</time></trkpt><trkpt lon="5.751489" lat="51.123845"><ele>34.4</ele><time>2022-05-15T06:06:37.000Z</time></trkpt><trkpt lon="5.751425" lat="51.123788"><ele>34.4</ele><time>2022-05-15T06:06:38.000Z</time></trkpt><trkpt lon="5.751364" lat="51.123731"><ele>34.4</ele><time>2022-05-15T06:06:39.000Z</time></trkpt><trkpt lon="5.751305" lat="51.123674"><ele>34.4</ele><time>2022-05-15T06:06:40.000Z</time></trkpt><trkpt lon="5.751252" lat="51.123617"><ele>34.4</ele><time>2022-05-15T06:06:41.000Z</time></trkpt><trkpt lon="5.751198" lat="51.12356"><ele>34.4</ele><time>2022-05-15T06:06:42.000Z</time></trkpt><trkpt lon="5.751147" lat="51.123499"><ele>34.4</ele><time>2022-05-15T06:06:43.000Z</time></trkpt><trkpt lon="5.751095" lat="51.123438"><ele>34.4</ele><time>2022-05-15T06:06:44.000Z</time></trkpt><trkpt lon="5.75105" lat="51.123376"><ele>34.4</ele><time>2022-05-15T06:06:45.000Z</time></trkpt><trkpt lon="5.751008" lat="51.123314"><ele>34.4</ele><time>2022-05-15T06:06:46.000Z</time></trkpt><trkpt lon="5.750972" lat="51.12325"><ele>34.4</ele><time>2022-05-15T06:06:47.000Z</time></trkpt><trkpt lon="5.750935" lat="51.123183"><ele>34.6</ele><time>2022-05-15T06:06:48.000Z</time></trkpt><trkpt lon="5.7509" lat="51.123122"><ele>34.6</ele><time>2022-05-15T06:06:49.000Z</time></trkpt><trkpt lon="5.750866" lat="51.123057"><ele>34.6</ele><time>2022-05-15T06:06:50.000Z</time></trkpt><trkpt lon="5.75083" lat="51.122992"><ele>34.6</ele><time>2022-05-15T06:06:51.000Z</time></trkpt><trkpt lon="5.750792" lat="51.122927"><ele>34.6</ele><time>2022-05-15T06:06:52.000Z</time></trkpt><trkpt lon="5.750756" lat="51.122865"><ele>34.6</ele><time>2022-05-15T06:06:53.000Z</time></trkpt><trkpt lon="5.750717" lat="51.122802"><ele>34.6</ele><time>2022-05-15T06:06:54.000Z</time></trkpt><trkpt lon="5.750678" lat="51.12274"><ele>34.6</ele><time>2022-05-15T06:06:55.000Z</time></trkpt><trkpt lon="5.750642" lat="51.12268"><ele>34.6</ele><time>2022-05-15T06:06:56.000Z</time></trkpt><trkpt lon="5.750602" lat="51.12262"><ele>34.6</ele><time>2022-05-15T06:06:57.000Z</time></trkpt><trkpt lon="5.75056" lat="51.122556"><ele>34.6</ele><time>2022-05-15T06:06:58.000Z</time></trkpt><trkpt lon="5.750515" lat="51.122496"><ele>34.6</ele><time>2022-05-15T06:06:59.000Z</time></trkpt><trkpt lon="5.750468" lat="51.122435"><ele>34.6</ele><time>2022-05-15T06:07:00.000Z</time></trkpt><trkpt lon="5.750421" lat="51.122373"><ele>34.6</ele><time>2022-05-15T06:07:01.000Z</time></trkpt><trkpt lon="5.750373" lat="51.122313"><ele>34.6</ele><time>2022-05-15T06:07:02.000Z</time></trkpt><trkpt lon="5.750331" lat="51.122264"><ele>34.6</ele><time>2022-05-15T06:07:03.000Z</time></trkpt><trkpt lon="5.750276" lat="51.122192"><ele>34.8</ele><time>2022-05-15T06:07:04.000Z</time></trkpt><trkpt lon="5.750226" lat="51.122135"><ele>34.8</ele><time>2022-05-15T06:07:05.000Z</time></trkpt><trkpt lon="5.750174" lat="51.122073"><ele>34.8</ele><time>2022-05-15T06:07:06.000Z</time></trkpt><trkpt lon="5.75012" lat="51.122015"><ele>34.8</ele><time>2022-05-15T06:07:07.000Z</time></trkpt><trkpt lon="5.750065" lat="51.121954"><ele>34.8</ele><time>2022-05-15T06:07:08.000Z</time></trkpt><trkpt lon="5.750012" lat="51.121896"><ele>34.8</ele><time>2022-05-15T06:07:09.000Z</time></trkpt><trkpt lon="5.749957" lat="51.121845"><ele>34.6</ele><time>2022-05-15T06:07:10.000Z</time></trkpt><trkpt lon="5.749902" lat="51.12179"><ele>34.6</ele><time>2022-05-15T06:07:11.000Z</time></trkpt><trkpt lon="5.749849" lat="51.121732"><ele>34.6</ele><time>2022-05-15T06:07:12.000Z</time></trkpt><trkpt lon="5.749796" lat="51.121668"><ele>34.6</ele><time>2022-05-15T06:07:13.000Z</time></trkpt><trkpt lon="5.749752" lat="51.121615"><ele>34.6</ele><time>2022-05-15T06:07:14.000Z</time></trkpt><trkpt lon="5.749696" lat="51.121542"><ele>34.4</ele><time>2022-05-15T06:07:15.000Z</time></trkpt><trkpt lon="5.749655" lat="51.121485"><ele>34.4</ele><time>2022-05-15T06:07:16.000Z</time></trkpt><trkpt lon="5.749608" lat="51.121422"><ele>34.4</ele><time>2022-05-15T06:07:17.000Z</time></trkpt><trkpt lon="5.749562" lat="51.121356"><ele>34.4</ele><time>2022-05-15T06:07:18.000Z</time></trkpt><trkpt lon="5.749518" lat="51.121291"><ele>34.4</ele><time>2022-05-15T06:07:19.000Z</time></trkpt><trkpt lon="5.749478" lat="51.121226"><ele>34.4</ele><time>2022-05-15T06:07:20.000Z</time></trkpt><trkpt lon="5.74944" lat="51.121166"><ele>34.2</ele><time>2022-05-15T06:07:21.000Z</time></trkpt><trkpt lon="5.749403" lat="51.121103"><ele>34.4</ele><time>2022-05-15T06:07:22.000Z</time></trkpt><trkpt lon="5.749368" lat="51.121042"><ele>34.4</ele><time>2022-05-15T06:07:23.000Z</time></trkpt><trkpt lon="5.749333" lat="51.120985"><ele>34.4</ele><time>2022-05-15T06:07:24.000Z</time></trkpt><trkpt lon="5.749294" lat="51.12092"><ele>34.4</ele><time>2022-05-15T06:07:25.000Z</time></trkpt><trkpt lon="5.74926" lat="51.120855"><ele>34.4</ele><time>2022-05-15T06:07:26.000Z</time></trkpt><trkpt lon="5.749227" lat="51.120786"><ele>34.4</ele><time>2022-05-15T06:07:27.000Z</time></trkpt><trkpt lon="5.749193" lat="51.120726"><ele>34.4</ele><time>2022-05-15T06:07:28.000Z</time></trkpt><trkpt lon="5.749158" lat="51.120661"><ele>34.4</ele><time>2022-05-15T06:07:29.000Z</time></trkpt><trkpt lon="5.749122" lat="51.120597"><ele>34.4</ele><time>2022-05-15T06:07:30.000Z</time></trkpt><trkpt lon="5.74908" lat="51.120537"><ele>34.4</ele><time>2022-05-15T06:07:31.000Z</time></trkpt><trkpt lon="5.749032" lat="51.120474"><ele>34.4</ele><time>2022-05-15T06:07:32.000Z</time></trkpt><trkpt lon="5.748983" lat="51.120418"><ele>34.4</ele><time>2022-05-15T06:07:33.000Z</time></trkpt><trkpt lon="5.748925" lat="51.120356"><ele>34.4</ele><time>2022-05-15T06:07:34.000Z</time></trkpt><trkpt lon="5.748867" lat="51.120304"><ele>34.4</ele><time>2022-05-15T06:07:35.000Z</time></trkpt><trkpt lon="5.748799" lat="51.120249"><ele>34.4</ele><time>2022-05-15T06:07:36.000Z</time></trkpt><trkpt lon="5.748728" lat="51.1202"><ele>34.4</ele><time>2022-05-15T06:07:37.000Z</time></trkpt><trkpt lon="5.748651" lat="51.120153"><ele>34.4</ele><time>2022-05-15T06:07:38.000Z</time></trkpt><trkpt lon="5.748575" lat="51.120117"><ele>34.4</ele><time>2022-05-15T06:07:39.000Z</time></trkpt><trkpt lon="5.748494" lat="51.120078"><ele>34.2</ele><time>2022-05-15T06:07:40.000Z</time></trkpt><trkpt lon="5.748416" lat="51.120042"><ele>34.2</ele><time>2022-05-15T06:07:41.000Z</time></trkpt><trkpt lon="5.748355" lat="51.119996"><ele>34.2</ele><time>2022-05-15T06:07:42.000Z</time></trkpt><trkpt lon="5.748319" lat="51.119944"><ele>34.2</ele><time>2022-05-15T06:07:43.000Z</time></trkpt><trkpt lon="5.74831" lat="51.11989"><ele>34.2</ele><time>2022-05-15T06:07:44.000Z</time></trkpt><trkpt lon="5.748321" lat="51.119826"><ele>34.2</ele><time>2022-05-15T06:07:45.000Z</time></trkpt><trkpt lon="5.748337" lat="51.119762"><ele>34.2</ele><time>2022-05-15T06:07:46.000Z</time></trkpt><trkpt lon="5.748354" lat="51.119696"><ele>34.2</ele><time>2022-05-15T06:07:47.000Z</time></trkpt><trkpt lon="5.748374" lat="51.119628"><ele>34.2</ele><time>2022-05-15T06:07:48.000Z</time></trkpt><trkpt lon="5.748393" lat="51.119559"><ele>34.2</ele><time>2022-05-15T06:07:49.000Z</time></trkpt><trkpt lon="5.748411" lat="51.119494"><ele>34.2</ele><time>2022-05-15T06:07:50.000Z</time></trkpt><trkpt lon="5.748426" lat="51.119432"><ele>34.2</ele><time>2022-05-15T06:07:51.000Z</time></trkpt><trkpt lon="5.748443" lat="51.119372"><ele>34.2</ele><time>2022-05-15T06:07:52.000Z</time></trkpt><trkpt lon="5.748455" lat="51.119311"><ele>34.2</ele><time>2022-05-15T06:07:53.000Z</time></trkpt><trkpt lon="5.748452" lat="51.119257"><ele>34.2</ele><time>2022-05-15T06:07:54.000Z</time></trkpt><trkpt lon="5.748425" lat="51.119205"><ele>34.2</ele><time>2022-05-15T06:07:55.000Z</time></trkpt><trkpt lon="5.748372" lat="51.119154"><ele>34.2</ele><time>2022-05-15T06:07:56.000Z</time></trkpt><trkpt lon="5.748302" lat="51.119109"><ele>34.2</ele><time>2022-05-15T06:07:57.000Z</time></trkpt><trkpt lon="5.748218" lat="51.119066"><ele>34.2</ele><time>2022-05-15T06:07:58.000Z</time></trkpt><trkpt lon="5.748128" lat="51.119031"><ele>34.2</ele><time>2022-05-15T06:07:59.000Z</time></trkpt><trkpt lon="5.748038" lat="51.118997"><ele>34</ele><time>2022-05-15T06:08:00.000Z</time></trkpt><trkpt lon="5.74795" lat="51.118967"><ele>34</ele><time>2022-05-15T06:08:01.000Z</time></trkpt><trkpt lon="5.74786" lat="51.11894"><ele>34</ele><time>2022-05-15T06:08:02.000Z</time></trkpt><trkpt lon="5.747769" lat="51.118909"><ele>34</ele><time>2022-05-15T06:08:03.000Z</time></trkpt><trkpt lon="5.747686" lat="51.118879"><ele>34</ele><time>2022-05-15T06:08:04.000Z</time></trkpt><trkpt lon="5.747601" lat="51.118852"><ele>34</ele><time>2022-05-15T06:08:05.000Z</time></trkpt><trkpt lon="5.747524" lat="51.118826"><ele>34</ele><time>2022-05-15T06:08:06.000Z</time></trkpt><trkpt lon="5.74745" lat="51.1188"><ele>34</ele><time>2022-05-15T06:08:07.000Z</time></trkpt><trkpt lon="5.747367" lat="51.118779"><ele>33.8</ele><time>2022-05-15T06:08:08.000Z</time></trkpt><trkpt lon="5.747288" lat="51.118775"><ele>33.8</ele><time>2022-05-15T06:08:09.000Z</time></trkpt><trkpt lon="5.747211" lat="51.118785"><ele>33.8</ele><time>2022-05-15T06:08:10.000Z</time></trkpt><trkpt lon="5.747135" lat="51.118815"><ele>33.8</ele><time>2022-05-15T06:08:11.000Z</time></trkpt><trkpt lon="5.747055" lat="51.118853"><ele>33.6</ele><time>2022-05-15T06:08:12.000Z</time></trkpt><trkpt lon="5.746965" lat="51.118895"><ele>33.6</ele><time>2022-05-15T06:08:13.000Z</time></trkpt><trkpt lon="5.746868" lat="51.118929"><ele>33.6</ele><time>2022-05-15T06:08:14.000Z</time></trkpt><trkpt lon="5.746757" lat="51.118956"><ele>33.4</ele><time>2022-05-15T06:08:15.000Z</time></trkpt><trkpt lon="5.746644" lat="51.118968"><ele>33.6</ele><time>2022-05-15T06:08:16.000Z</time></trkpt><trkpt lon="5.746528" lat="51.118969"><ele>33.6</ele><time>2022-05-15T06:08:17.000Z</time></trkpt><trkpt lon="5.746418" lat="51.118965"><ele>33.6</ele><time>2022-05-15T06:08:18.000Z</time></trkpt><trkpt lon="5.746308" lat="51.118965"><ele>33.6</ele><time>2022-05-15T06:08:19.000Z</time></trkpt><trkpt lon="5.746206" lat="51.118962"><ele>33.6</ele><time>2022-05-15T06:08:20.000Z</time></trkpt><trkpt lon="5.746107" lat="51.118954"><ele>33.6</ele><time>2022-05-15T06:08:21.000Z</time></trkpt><trkpt lon="5.746015" lat="51.11895"><ele>33.6</ele><time>2022-05-15T06:08:22.000Z</time></trkpt><trkpt lon="5.745926" lat="51.118943"><ele>33.6</ele><time>2022-05-15T06:08:23.000Z</time></trkpt><trkpt lon="5.745832" lat="51.118935"><ele>33.6</ele><time>2022-05-15T06:08:24.000Z</time></trkpt><trkpt lon="5.745737" lat="51.118931"><ele>33.6</ele><time>2022-05-15T06:08:25.000Z</time></trkpt><trkpt lon="5.74564" lat="51.118927"><ele>33.6</ele><time>2022-05-15T06:08:26.000Z</time></trkpt><trkpt lon="5.745541" lat="51.118923"><ele>33.6</ele><time>2022-05-15T06:08:27.000Z</time></trkpt><trkpt lon="5.745433" lat="51.118923"><ele>33.6</ele><time>2022-05-15T06:08:28.000Z</time></trkpt><trkpt lon="5.745321" lat="51.118919"><ele>33.6</ele><time>2022-05-15T06:08:29.000Z</time></trkpt><trkpt lon="5.745218" lat="51.118916"><ele>33.6</ele><time>2022-05-15T06:08:30.000Z</time></trkpt><trkpt lon="5.745119" lat="51.118912"><ele>33.6</ele><time>2022-05-15T06:08:31.000Z</time></trkpt><trkpt lon="5.745004" lat="51.118904"><ele>33.6</ele><time>2022-05-15T06:08:32.000Z</time></trkpt><trkpt lon="5.744893" lat="51.118897"><ele>33.6</ele><time>2022-05-15T06:08:33.000Z</time></trkpt><trkpt lon="5.744783" lat="51.118897"><ele>33.6</ele><time>2022-05-15T06:08:34.000Z</time></trkpt><trkpt lon="5.744672" lat="51.118893"><ele>33.6</ele><time>2022-05-15T06:08:35.000Z</time></trkpt><trkpt lon="5.744555" lat="51.118889"><ele>33.6</ele><time>2022-05-15T06:08:36.000Z</time></trkpt><trkpt lon="5.744442" lat="51.118885"><ele>33.6</ele><time>2022-05-15T06:08:37.000Z</time></trkpt><trkpt lon="5.744328" lat="51.118878"><ele>33.6</ele><time>2022-05-15T06:08:38.000Z</time></trkpt><trkpt lon="5.744212" lat="51.118874"><ele>33.6</ele><time>2022-05-15T06:08:39.000Z</time></trkpt><trkpt lon="5.744095" lat="51.11887"><ele>33.8</ele><time>2022-05-15T06:08:40.000Z</time></trkpt><trkpt lon="5.744004" lat="51.118867"><ele>33.8</ele><time>2022-05-15T06:08:41.000Z</time></trkpt><trkpt lon="5.743875" lat="51.118866"><ele>33.8</ele><time>2022-05-15T06:08:42.000Z</time></trkpt><trkpt lon="5.743764" lat="51.118862"><ele>33.8</ele><time>2022-05-15T06:08:43.000Z</time></trkpt><trkpt lon="5.743653" lat="51.118862"><ele>33.8</ele><time>2022-05-15T06:08:44.000Z</time></trkpt><trkpt lon="5.743554" lat="51.118858"><ele>33.8</ele><time>2022-05-15T06:08:45.000Z</time></trkpt><trkpt lon="5.74346" lat="51.118858"><ele>33.8</ele><time>2022-05-15T06:08:46.000Z</time></trkpt><trkpt lon="5.743356" lat="51.118855"><ele>33.8</ele><time>2022-05-15T06:08:47.000Z</time></trkpt><trkpt lon="5.743257" lat="51.118847"><ele>33.8</ele><time>2022-05-15T06:08:48.000Z</time></trkpt><trkpt lon="5.743152" lat="51.118847"><ele>33.8</ele><time>2022-05-15T06:08:49.000Z</time></trkpt><trkpt lon="5.743054" lat="51.118843"><ele>33.8</ele><time>2022-05-15T06:08:50.000Z</time></trkpt><trkpt lon="5.742955" lat="51.11884"><ele>33.8</ele><time>2022-05-15T06:08:51.000Z</time></trkpt><trkpt lon="5.742847" lat="51.118836"><ele>33.8</ele><time>2022-05-15T06:08:52.000Z</time></trkpt><trkpt lon="5.742742" lat="51.118832"><ele>33.8</ele><time>2022-05-15T06:08:53.000Z</time></trkpt><trkpt lon="5.742643" lat="51.118832"><ele>33.8</ele><time>2022-05-15T06:08:54.000Z</time></trkpt><trkpt lon="5.742546" lat="51.118828"><ele>33.8</ele><time>2022-05-15T06:08:55.000Z</time></trkpt><trkpt lon="5.742433" lat="51.118824"><ele>33.8</ele><time>2022-05-15T06:08:56.000Z</time></trkpt><trkpt lon="5.742316" lat="51.11882"><ele>34</ele><time>2022-05-15T06:08:57.000Z</time></trkpt><trkpt lon="5.742212" lat="51.118816"><ele>34</ele><time>2022-05-15T06:08:58.000Z</time></trkpt><trkpt lon="5.742117" lat="51.118809"><ele>34.2</ele><time>2022-05-15T06:08:59.000Z</time></trkpt><trkpt lon="5.742038" lat="51.118805"><ele>34.4</ele><time>2022-05-15T06:09:00.000Z</time></trkpt><trkpt lon="5.741956" lat="51.118801"><ele>34.4</ele><time>2022-05-15T06:09:01.000Z</time></trkpt><trkpt lon="5.741881" lat="51.118801"><ele>34.6</ele><time>2022-05-15T06:09:02.000Z</time></trkpt><trkpt lon="5.741807" lat="51.118798"><ele>34.8</ele><time>2022-05-15T06:09:03.000Z</time></trkpt><trkpt lon="5.741694" lat="51.118797"><ele>34.8</ele><time>2022-05-15T06:09:04.000Z</time></trkpt><trkpt lon="5.741593" lat="51.118797"><ele>35</ele><time>2022-05-15T06:09:05.000Z</time></trkpt><trkpt lon="5.741492" lat="51.118794"><ele>35</ele><time>2022-05-15T06:09:06.000Z</time></trkpt><trkpt lon="5.741395" lat="51.11879"><ele>35</ele><time>2022-05-15T06:09:07.000Z</time></trkpt><trkpt lon="5.741308" lat="51.118786"><ele>35</ele><time>2022-05-15T06:09:08.000Z</time></trkpt><trkpt lon="5.741206" lat="51.118778"><ele>35</ele><time>2022-05-15T06:09:09.000Z</time></trkpt><trkpt lon="5.741117" lat="51.118775"><ele>35</ele><time>2022-05-15T06:09:10.000Z</time></trkpt><trkpt lon="5.741026" lat="51.118767"><ele>35</ele><time>2022-05-15T06:09:11.000Z</time></trkpt><trkpt lon="5.740933" lat="51.118759"><ele>35</ele><time>2022-05-15T06:09:12.000Z</time></trkpt><trkpt lon="5.740839" lat="51.118752"><ele>34.8</ele><time>2022-05-15T06:09:13.000Z</time></trkpt><trkpt lon="5.740752" lat="51.118748"><ele>34.8</ele><time>2022-05-15T06:09:14.000Z</time></trkpt><trkpt lon="5.740662" lat="51.11874"><ele>34.8</ele><time>2022-05-15T06:09:15.000Z</time></trkpt><trkpt lon="5.740584" lat="51.118734"><ele>34.8</ele><time>2022-05-15T06:09:16.000Z</time></trkpt><trkpt lon="5.740478" lat="51.118725"><ele>34.8</ele><time>2022-05-15T06:09:17.000Z</time></trkpt><trkpt lon="5.740386" lat="51.118721"><ele>34.6</ele><time>2022-05-15T06:09:18.000Z</time></trkpt><trkpt lon="5.740293" lat="51.118717"><ele>34.6</ele><time>2022-05-15T06:09:19.000Z</time></trkpt><trkpt lon="5.740208" lat="51.118714"><ele>34.6</ele><time>2022-05-15T06:09:20.000Z</time></trkpt><trkpt lon="5.740114" lat="51.11871"><ele>34.6</ele><time>2022-05-15T06:09:21.000Z</time></trkpt><trkpt lon="5.740021" lat="51.118706"><ele>34.4</ele><time>2022-05-15T06:09:22.000Z</time></trkpt><trkpt lon="5.739933" lat="51.118706"><ele>34.4</ele><time>2022-05-15T06:09:23.000Z</time></trkpt><trkpt lon="5.739848" lat="51.118702"><ele>34.4</ele><time>2022-05-15T06:09:24.000Z</time></trkpt><trkpt lon="5.73976" lat="51.118706"><ele>34.4</ele><time>2022-05-15T06:09:25.000Z</time></trkpt><trkpt lon="5.739682" lat="51.1187"><ele>34.4</ele><time>2022-05-15T06:09:26.000Z</time></trkpt><trkpt lon="5.739495" lat="51.118684"><ele>34.4</ele><time>2022-05-15T06:09:27.000Z</time></trkpt><trkpt lon="5.739392" lat="51.118679"><ele>34.2</ele><time>2022-05-15T06:09:28.000Z</time></trkpt><trkpt lon="5.739278" lat="51.118672"><ele>34.2</ele><time>2022-05-15T06:09:29.000Z</time></trkpt><trkpt lon="5.73917" lat="51.118668"><ele>34.2</ele><time>2022-05-15T06:09:30.000Z</time></trkpt><trkpt lon="5.739045" lat="51.118671"><ele>34.2</ele><time>2022-05-15T06:09:31.000Z</time></trkpt><trkpt lon="5.738928" lat="51.118668"><ele>34</ele><time>2022-05-15T06:09:32.000Z</time></trkpt><trkpt lon="5.738839" lat="51.118665"><ele>34</ele><time>2022-05-15T06:09:33.000Z</time></trkpt><trkpt lon="5.738728" lat="51.118664"><ele>33.8</ele><time>2022-05-15T06:09:34.000Z</time></trkpt><trkpt lon="5.738609" lat="51.118664"><ele>34</ele><time>2022-05-15T06:09:35.000Z</time></trkpt><trkpt lon="5.738486" lat="51.118675"><ele>34</ele><time>2022-05-15T06:09:36.000Z</time></trkpt><trkpt lon="5.738384" lat="51.118679"><ele>33.8</ele><time>2022-05-15T06:09:37.000Z</time></trkpt><trkpt lon="5.73827" lat="51.118679"><ele>33.8</ele><time>2022-05-15T06:09:38.000Z</time></trkpt><trkpt lon="5.738161" lat="51.118686"><ele>33.8</ele><time>2022-05-15T06:09:39.000Z</time></trkpt><trkpt lon="5.738048" lat="51.118683"><ele>33.8</ele><time>2022-05-15T06:09:40.000Z</time></trkpt><trkpt lon="5.737922" lat="51.118679"><ele>34</ele><time>2022-05-15T06:09:41.000Z</time></trkpt><trkpt lon="5.737813" lat="51.118679"><ele>34</ele><time>2022-05-15T06:09:42.000Z</time></trkpt><trkpt lon="5.737712" lat="51.118672"><ele>33.8</ele><time>2022-05-15T06:09:43.000Z</time></trkpt><trkpt lon="5.737593" lat="51.118671"><ele>33.8</ele><time>2022-05-15T06:09:44.000Z</time></trkpt><trkpt lon="5.73748" lat="51.118664"><ele>33.8</ele><time>2022-05-15T06:09:45.000Z</time></trkpt><trkpt lon="5.737369" lat="51.118656"><ele>33.8</ele><time>2022-05-15T06:09:46.000Z</time></trkpt><trkpt lon="5.737212" lat="51.118649"><ele>33.8</ele><time>2022-05-15T06:09:47.000Z</time></trkpt><trkpt lon="5.737095" lat="51.118641"><ele>33.8</ele><time>2022-05-15T06:09:48.000Z</time></trkpt><trkpt lon="5.73698" lat="51.118634"><ele>33.8</ele><time>2022-05-15T06:09:49.000Z</time></trkpt><trkpt lon="5.736827" lat="51.118623"><ele>33.8</ele><time>2022-05-15T06:09:50.000Z</time></trkpt><trkpt lon="5.736697" lat="51.118622"><ele>33.8</ele><time>2022-05-15T06:09:51.000Z</time></trkpt><trkpt lon="5.736596" lat="51.118618"><ele>34</ele><time>2022-05-15T06:09:52.000Z</time></trkpt><trkpt lon="5.736494" lat="51.118608"><ele>33.8</ele><time>2022-05-15T06:09:53.000Z</time></trkpt><trkpt lon="5.736394" lat="51.118596"><ele>33.8</ele><time>2022-05-15T06:09:54.000Z</time></trkpt><trkpt lon="5.736293" lat="51.118588"><ele>33.8</ele><time>2022-05-15T06:09:55.000Z</time></trkpt><trkpt lon="5.736188" lat="51.11858"><ele>33.8</ele><time>2022-05-15T06:09:56.000Z</time></trkpt><trkpt lon="5.73609" lat="51.118573"><ele>33.8</ele><time>2022-05-15T06:09:57.000Z</time></trkpt><trkpt lon="5.735987" lat="51.118576"><ele>33.8</ele><time>2022-05-15T06:09:58.000Z</time></trkpt><trkpt lon="5.735888" lat="51.118572"><ele>34</ele><time>2022-05-15T06:09:59.000Z</time></trkpt><trkpt lon="5.735795" lat="51.118572"><ele>34</ele><time>2022-05-15T06:10:00.000Z</time></trkpt><trkpt lon="5.735697" lat="51.118576"><ele>34</ele><time>2022-05-15T06:10:01.000Z</time></trkpt><trkpt lon="5.735614" lat="51.11858"><ele>34.2</ele><time>2022-05-15T06:10:02.000Z</time></trkpt><trkpt lon="5.735529" lat="51.11858"><ele>34.2</ele><time>2022-05-15T06:10:03.000Z</time></trkpt><trkpt lon="5.735454" lat="51.11858"><ele>34.2</ele><time>2022-05-15T06:10:04.000Z</time></trkpt><trkpt lon="5.735354" lat="51.118565"><ele>34.2</ele><time>2022-05-15T06:10:05.000Z</time></trkpt><trkpt lon="5.735265" lat="51.118561"><ele>34.2</ele><time>2022-05-15T06:10:06.000Z</time></trkpt><trkpt lon="5.735183" lat="51.118564"><ele>34.2</ele><time>2022-05-15T06:10:07.000Z</time></trkpt><trkpt lon="5.735089" lat="51.118554"><ele>34.2</ele><time>2022-05-15T06:10:08.000Z</time></trkpt><trkpt lon="5.73499" lat="51.118568"><ele>34.2</ele><time>2022-05-15T06:10:09.000Z</time></trkpt><trkpt lon="5.734905" lat="51.118561"><ele>34.2</ele><time>2022-05-15T06:10:10.000Z</time></trkpt><trkpt lon="5.734808" lat="51.118553"><ele>34.2</ele><time>2022-05-15T06:10:11.000Z</time></trkpt><trkpt lon="5.7347" lat="51.118553"><ele>34.2</ele><time>2022-05-15T06:10:12.000Z</time></trkpt><trkpt lon="5.734603" lat="51.118557"><ele>34.2</ele><time>2022-05-15T06:10:13.000Z</time></trkpt><trkpt lon="5.734509" lat="51.118557"><ele>34.2</ele><time>2022-05-15T06:10:14.000Z</time></trkpt><trkpt lon="5.734426" lat="51.118564"><ele>34.2</ele><time>2022-05-15T06:10:15.000Z</time></trkpt><trkpt lon="5.734344" lat="51.118565"><ele>34.2</ele><time>2022-05-15T06:10:16.000Z</time></trkpt><trkpt lon="5.734246" lat="51.118557"><ele>34.2</ele><time>2022-05-15T06:10:17.000Z</time></trkpt><trkpt lon="5.734147" lat="51.118557"><ele>34.2</ele><time>2022-05-15T06:10:18.000Z</time></trkpt><trkpt lon="5.734044" lat="51.118542"><ele>34.2</ele><time>2022-05-15T06:10:19.000Z</time></trkpt><trkpt lon="5.733931" lat="51.11857"><ele>34.2</ele><time>2022-05-15T06:10:20.000Z</time></trkpt><trkpt lon="5.733787" lat="51.118598"><ele>34.2</ele><time>2022-05-15T06:10:21.000Z</time></trkpt><trkpt lon="5.733668" lat="51.118613"><ele>34.4</ele><time>2022-05-15T06:10:22.000Z</time></trkpt><trkpt lon="5.73355" lat="51.118622"><ele>34.4</ele><time>2022-05-15T06:10:23.000Z</time></trkpt><trkpt lon="5.733424" lat="51.118618"><ele>34.6</ele><time>2022-05-15T06:10:24.000Z</time></trkpt><trkpt lon="5.733311" lat="51.118625"><ele>34.6</ele><time>2022-05-15T06:10:25.000Z</time></trkpt><trkpt lon="5.733196" lat="51.118626"><ele>34.8</ele><time>2022-05-15T06:10:26.000Z</time></trkpt><trkpt lon="5.733084" lat="51.118626"><ele>34.8</ele><time>2022-05-15T06:10:27.000Z</time></trkpt><trkpt lon="5.732952" lat="51.118626"><ele>34.8</ele><time>2022-05-15T06:10:28.000Z</time></trkpt><trkpt lon="5.73282" lat="51.118619"><ele>34.8</ele><time>2022-05-15T06:10:29.000Z</time></trkpt><trkpt lon="5.732696" lat="51.118618"><ele>34.8</ele><time>2022-05-15T06:10:30.000Z</time></trkpt><trkpt lon="5.73258" lat="51.118618"><ele>34.8</ele><time>2022-05-15T06:10:31.000Z</time></trkpt><trkpt lon="5.732459" lat="51.118622"><ele>34.8</ele><time>2022-05-15T06:10:32.000Z</time></trkpt><trkpt lon="5.732273" lat="51.118611"><ele>35</ele><time>2022-05-15T06:10:33.000Z</time></trkpt><trkpt lon="5.732137" lat="51.118603"><ele>35</ele><time>2022-05-15T06:10:34.000Z</time></trkpt><trkpt lon="5.73198" lat="51.118592"><ele>35</ele><time>2022-05-15T06:10:35.000Z</time></trkpt><trkpt lon="5.731833" lat="51.11858"><ele>35</ele><time>2022-05-15T06:10:36.000Z</time></trkpt><trkpt lon="5.731686" lat="51.118569"><ele>35</ele><time>2022-05-15T06:10:37.000Z</time></trkpt><trkpt lon="5.731537" lat="51.118554"><ele>35</ele><time>2022-05-15T06:10:38.000Z</time></trkpt><trkpt lon="5.731393" lat="51.118546"><ele>35</ele><time>2022-05-15T06:10:39.000Z</time></trkpt><trkpt lon="5.731253" lat="51.118538"><ele>35</ele><time>2022-05-15T06:10:40.000Z</time></trkpt><trkpt lon="5.73112" lat="51.118527"><ele>35</ele><time>2022-05-15T06:10:41.000Z</time></trkpt><trkpt lon="5.730998" lat="51.118519"><ele>35</ele><time>2022-05-15T06:10:42.000Z</time></trkpt><trkpt lon="5.730873" lat="51.118511"><ele>35</ele><time>2022-05-15T06:10:43.000Z</time></trkpt><trkpt lon="5.730756" lat="51.118508"><ele>35</ele><time>2022-05-15T06:10:44.000Z</time></trkpt><trkpt lon="5.730637" lat="51.118504"><ele>35</ele><time>2022-05-15T06:10:45.000Z</time></trkpt><trkpt lon="5.730522" lat="51.1185"><ele>35.2</ele><time>2022-05-15T06:10:46.000Z</time></trkpt><trkpt lon="5.7304" lat="51.118496"><ele>35.2</ele><time>2022-05-15T06:10:47.000Z</time></trkpt><trkpt lon="5.730285" lat="51.118492"><ele>35.2</ele><time>2022-05-15T06:10:48.000Z</time></trkpt><trkpt lon="5.73018" lat="51.118489"><ele>35.4</ele><time>2022-05-15T06:10:49.000Z</time></trkpt><trkpt lon="5.730055" lat="51.118485"><ele>35.4</ele><time>2022-05-15T06:10:50.000Z</time></trkpt><trkpt lon="5.729948" lat="51.118484"><ele>35.4</ele><time>2022-05-15T06:10:51.000Z</time></trkpt><trkpt lon="5.729841" lat="51.118484"><ele>35.6</ele><time>2022-05-15T06:10:52.000Z</time></trkpt><trkpt lon="5.729735" lat="51.118481"><ele>35.4</ele><time>2022-05-15T06:10:53.000Z</time></trkpt><trkpt lon="5.729628" lat="51.118481"><ele>35.6</ele><time>2022-05-15T06:10:54.000Z</time></trkpt><trkpt lon="5.729521" lat="51.118477"><ele>35.6</ele><time>2022-05-15T06:10:55.000Z</time></trkpt><trkpt lon="5.729411" lat="51.118473"><ele>35.6</ele><time>2022-05-15T06:10:56.000Z</time></trkpt><trkpt lon="5.7293" lat="51.118469"><ele>35.4</ele><time>2022-05-15T06:10:57.000Z</time></trkpt><trkpt lon="5.729186" lat="51.118466"><ele>35.2</ele><time>2022-05-15T06:10:58.000Z</time></trkpt><trkpt lon="5.729074" lat="51.118462"><ele>35.2</ele><time>2022-05-15T06:10:59.000Z</time></trkpt><trkpt lon="5.728966" lat="51.118462"><ele>35</ele><time>2022-05-15T06:11:00.000Z</time></trkpt><trkpt lon="5.728854" lat="51.118458"><ele>35</ele><time>2022-05-15T06:11:01.000Z</time></trkpt><trkpt lon="5.728744" lat="51.118458"><ele>35</ele><time>2022-05-15T06:11:02.000Z</time></trkpt><trkpt lon="5.728632" lat="51.118454"><ele>35</ele><time>2022-05-15T06:11:03.000Z</time></trkpt><trkpt lon="5.728519" lat="51.118454"><ele>35</ele><time>2022-05-15T06:11:04.000Z</time></trkpt><trkpt lon="5.728411" lat="51.11845"><ele>35</ele><time>2022-05-15T06:11:05.000Z</time></trkpt><trkpt lon="5.728303" lat="51.11845"><ele>35</ele><time>2022-05-15T06:11:06.000Z</time></trkpt><trkpt lon="5.728191" lat="51.118446"><ele>35.2</ele><time>2022-05-15T06:11:07.000Z</time></trkpt><trkpt lon="5.728084" lat="51.118443"><ele>35</ele><time>2022-05-15T06:11:08.000Z</time></trkpt><trkpt lon="5.727979" lat="51.118439"><ele>35</ele><time>2022-05-15T06:11:09.000Z</time></trkpt><trkpt lon="5.727868" lat="51.118435"><ele>35</ele><time>2022-05-15T06:11:10.000Z</time></trkpt><trkpt lon="5.727751" lat="51.118435"><ele>34.8</ele><time>2022-05-15T06:11:11.000Z</time></trkpt><trkpt lon="5.727636" lat="51.118435"><ele>34.8</ele><time>2022-05-15T06:11:12.000Z</time></trkpt><trkpt lon="5.727523" lat="51.118431"><ele>34.8</ele><time>2022-05-15T06:11:13.000Z</time></trkpt><trkpt lon="5.727409" lat="51.118428"><ele>34.8</ele><time>2022-05-15T06:11:14.000Z</time></trkpt><trkpt lon="5.727285" lat="51.118424"><ele>34.6</ele><time>2022-05-15T06:11:15.000Z</time></trkpt><trkpt lon="5.727187" lat="51.118417"><ele>34.6</ele><time>2022-05-15T06:11:16.000Z</time></trkpt><trkpt lon="5.727068" lat="51.118409"><ele>34.6</ele><time>2022-05-15T06:11:17.000Z</time></trkpt><trkpt lon="5.726967" lat="51.118408"><ele>34.4</ele><time>2022-05-15T06:11:18.000Z</time></trkpt><trkpt lon="5.726861" lat="51.118405"><ele>34.4</ele><time>2022-05-15T06:11:19.000Z</time></trkpt><trkpt lon="5.726743" lat="51.118397"><ele>34.4</ele><time>2022-05-15T06:11:20.000Z</time></trkpt><trkpt lon="5.72662" lat="51.118389"><ele>34.4</ele><time>2022-05-15T06:11:21.000Z</time></trkpt><trkpt lon="5.726503" lat="51.118385"><ele>34.4</ele><time>2022-05-15T06:11:22.000Z</time></trkpt><trkpt lon="5.726384" lat="51.118382"><ele>34.4</ele><time>2022-05-15T06:11:23.000Z</time></trkpt><trkpt lon="5.726272" lat="51.118378"><ele>34.4</ele><time>2022-05-15T06:11:24.000Z</time></trkpt><trkpt lon="5.726167" lat="51.118374"><ele>34.4</ele><time>2022-05-15T06:11:25.000Z</time></trkpt><trkpt lon="5.726059" lat="51.11837"><ele>34.4</ele><time>2022-05-15T06:11:26.000Z</time></trkpt><trkpt lon="5.725953" lat="51.11837"><ele>34.4</ele><time>2022-05-15T06:11:27.000Z</time></trkpt><trkpt lon="5.725852" lat="51.11837"><ele>34.4</ele><time>2022-05-15T06:11:28.000Z</time></trkpt><trkpt lon="5.725745" lat="51.118374"><ele>34.4</ele><time>2022-05-15T06:11:29.000Z</time></trkpt><trkpt lon="5.725643" lat="51.11837"><ele>34.4</ele><time>2022-05-15T06:11:30.000Z</time></trkpt><trkpt lon="5.725536" lat="51.118363"><ele>34.4</ele><time>2022-05-15T06:11:31.000Z</time></trkpt><trkpt lon="5.725426" lat="51.118359"><ele>34.2</ele><time>2022-05-15T06:11:32.000Z</time></trkpt><trkpt lon="5.725311" lat="51.118355"><ele>34.2</ele><time>2022-05-15T06:11:33.000Z</time></trkpt><trkpt lon="5.725201" lat="51.118348"><ele>34.4</ele><time>2022-05-15T06:11:34.000Z</time></trkpt><trkpt lon="5.72509" lat="51.118343"><ele>34.2</ele><time>2022-05-15T06:11:35.000Z</time></trkpt><trkpt lon="5.724982" lat="51.11834"><ele>34.2</ele><time>2022-05-15T06:11:36.000Z</time></trkpt><trkpt lon="5.724871" lat="51.118336"><ele>34.4</ele><time>2022-05-15T06:11:37.000Z</time></trkpt><trkpt lon="5.724774" lat="51.118329"><ele>34.4</ele><time>2022-05-15T06:11:38.000Z</time></trkpt><trkpt lon="5.724651" lat="51.118321"><ele>34.4</ele><time>2022-05-15T06:11:39.000Z</time></trkpt><trkpt lon="5.724543" lat="51.118313"><ele>34.6</ele><time>2022-05-15T06:11:40.000Z</time></trkpt><trkpt lon="5.724431" lat="51.118309"><ele>34.6</ele><time>2022-05-15T06:11:41.000Z</time></trkpt><trkpt lon="5.72432" lat="51.118302"><ele>34.8</ele><time>2022-05-15T06:11:42.000Z</time></trkpt><trkpt lon="5.724211" lat="51.118298"><ele>34.8</ele><time>2022-05-15T06:11:43.000Z</time></trkpt><trkpt lon="5.724115" lat="51.118298"><ele>34.6</ele><time>2022-05-15T06:11:44.000Z</time></trkpt><trkpt lon="5.724018" lat="51.118298"><ele>34.6</ele><time>2022-05-15T06:11:45.000Z</time></trkpt><trkpt lon="5.723893" lat="51.11829"><ele>34.6</ele><time>2022-05-15T06:11:46.000Z</time></trkpt><trkpt lon="5.72379" lat="51.11829"><ele>34.6</ele><time>2022-05-15T06:11:47.000Z</time></trkpt><trkpt lon="5.723692" lat="51.11829"><ele>34.6</ele><time>2022-05-15T06:11:48.000Z</time></trkpt><trkpt lon="5.723595" lat="51.11829"><ele>34.8</ele><time>2022-05-15T06:11:49.000Z</time></trkpt><trkpt lon="5.723494" lat="51.11829"><ele>34.8</ele><time>2022-05-15T06:11:50.000Z</time></trkpt><trkpt lon="5.723398" lat="51.11829"><ele>34.8</ele><time>2022-05-15T06:11:51.000Z</time></trkpt><trkpt lon="5.723289" lat="51.118286"><ele>34.8</ele><time>2022-05-15T06:11:52.000Z</time></trkpt><trkpt lon="5.723188" lat="51.118282"><ele>34.8</ele><time>2022-05-15T06:11:53.000Z</time></trkpt><trkpt lon="5.723094" lat="51.118282"><ele>34.8</ele><time>2022-05-15T06:11:54.000Z</time></trkpt><trkpt lon="5.72299" lat="51.118279"><ele>34.8</ele><time>2022-05-15T06:11:55.000Z</time></trkpt><trkpt lon="5.722884" lat="51.118271"><ele>34.8</ele><time>2022-05-15T06:11:56.000Z</time></trkpt><trkpt lon="5.722779" lat="51.118267"><ele>34.8</ele><time>2022-05-15T06:11:57.000Z</time></trkpt><trkpt lon="5.722666" lat="51.118263"><ele>34.6</ele><time>2022-05-15T06:11:58.000Z</time></trkpt><trkpt lon="5.722559" lat="51.118256"><ele>34.6</ele><time>2022-05-15T06:11:59.000Z</time></trkpt><trkpt lon="5.722454" lat="51.118248"><ele>34.4</ele><time>2022-05-15T06:12:00.000Z</time></trkpt><trkpt lon="5.722347" lat="51.118244"><ele>34.4</ele><time>2022-05-15T06:12:01.000Z</time></trkpt><trkpt lon="5.722243" lat="51.118237"><ele>34.4</ele><time>2022-05-15T06:12:02.000Z</time></trkpt><trkpt lon="5.722128" lat="51.118233"><ele>34.4</ele><time>2022-05-15T06:12:03.000Z</time></trkpt><trkpt lon="5.722014" lat="51.118229"><ele>34.4</ele><time>2022-05-15T06:12:04.000Z</time></trkpt><trkpt lon="5.721899" lat="51.118225"><ele>34.4</ele><time>2022-05-15T06:12:05.000Z</time></trkpt><trkpt lon="5.7218" lat="51.118222"><ele>34.6</ele><time>2022-05-15T06:12:06.000Z</time></trkpt><trkpt lon="5.721689" lat="51.118218"><ele>34.6</ele><time>2022-05-15T06:12:07.000Z</time></trkpt><trkpt lon="5.721581" lat="51.11821"><ele>34.6</ele><time>2022-05-15T06:12:08.000Z</time></trkpt><trkpt lon="5.721481" lat="51.118206"><ele>34.8</ele><time>2022-05-15T06:12:09.000Z</time></trkpt><trkpt lon="5.72138" lat="51.118196"><ele>34.8</ele><time>2022-05-15T06:12:10.000Z</time></trkpt><trkpt lon="5.721276" lat="51.118188"><ele>34.8</ele><time>2022-05-15T06:12:11.000Z</time></trkpt><trkpt lon="5.721175" lat="51.118184"><ele>34.8</ele><time>2022-05-15T06:12:12.000Z</time></trkpt><trkpt lon="5.72105" lat="51.118176"><ele>34.8</ele><time>2022-05-15T06:12:13.000Z</time></trkpt><trkpt lon="5.720934" lat="51.118172"><ele>34.8</ele><time>2022-05-15T06:12:14.000Z</time></trkpt><trkpt lon="5.720821" lat="51.118161"><ele>35</ele><time>2022-05-15T06:12:15.000Z</time></trkpt><trkpt lon="5.720716" lat="51.118157"><ele>35</ele><time>2022-05-15T06:12:16.000Z</time></trkpt><trkpt lon="5.720609" lat="51.118153"><ele>35</ele><time>2022-05-15T06:12:17.000Z</time></trkpt><trkpt lon="5.720505" lat="51.118149"><ele>35.2</ele><time>2022-05-15T06:12:18.000Z</time></trkpt><trkpt lon="5.720409" lat="51.118145"><ele>35.2</ele><time>2022-05-15T06:12:19.000Z</time></trkpt><trkpt lon="5.720316" lat="51.118141"><ele>35.2</ele><time>2022-05-15T06:12:20.000Z</time></trkpt><trkpt lon="5.720221" lat="51.118138"><ele>35.4</ele><time>2022-05-15T06:12:21.000Z</time></trkpt><trkpt lon="5.720137" lat="51.11813"><ele>35.4</ele><time>2022-05-15T06:12:22.000Z</time></trkpt><trkpt lon="5.720064" lat="51.118112"><ele>35.4</ele><time>2022-05-15T06:12:23.000Z</time></trkpt><trkpt lon="5.719992" lat="51.118085"><ele>35.4</ele><time>2022-05-15T06:12:24.000Z</time></trkpt><trkpt lon="5.719938" lat="51.11805"><ele>35.6</ele><time>2022-05-15T06:12:25.000Z</time></trkpt><trkpt lon="5.719901" lat="51.118005"><ele>35.6</ele><time>2022-05-15T06:12:26.000Z</time></trkpt><trkpt lon="5.719881" lat="51.117945"><ele>35.6</ele><time>2022-05-15T06:12:27.000Z</time></trkpt><trkpt lon="5.719862" lat="51.117876"><ele>35.6</ele><time>2022-05-15T06:12:28.000Z</time></trkpt><trkpt lon="5.719845" lat="51.117812"><ele>35.6</ele><time>2022-05-15T06:12:29.000Z</time></trkpt><trkpt lon="5.719832" lat="51.117743"><ele>35.6</ele><time>2022-05-15T06:12:30.000Z</time></trkpt><trkpt lon="5.719822" lat="51.117672"><ele>35.4</ele><time>2022-05-15T06:12:31.000Z</time></trkpt><trkpt lon="5.719814" lat="51.117605"><ele>35.4</ele><time>2022-05-15T06:12:32.000Z</time></trkpt><trkpt lon="5.719804" lat="51.117545"><ele>35.4</ele><time>2022-05-15T06:12:33.000Z</time></trkpt><trkpt lon="5.719794" lat="51.117479"><ele>35.4</ele><time>2022-05-15T06:12:34.000Z</time></trkpt><trkpt lon="5.719787" lat="51.117407"><ele>35.4</ele><time>2022-05-15T06:12:35.000Z</time></trkpt><trkpt lon="5.71978" lat="51.117348"><ele>35.4</ele><time>2022-05-15T06:12:36.000Z</time></trkpt><trkpt lon="5.719772" lat="51.11727"><ele>35.4</ele><time>2022-05-15T06:12:37.000Z</time></trkpt><trkpt lon="5.719769" lat="51.117201"><ele>35.4</ele><time>2022-05-15T06:12:38.000Z</time></trkpt><trkpt lon="5.719757" lat="51.117137"><ele>35.4</ele><time>2022-05-15T06:12:39.000Z</time></trkpt><trkpt lon="5.719746" lat="51.117071"><ele>35.4</ele><time>2022-05-15T06:12:40.000Z</time></trkpt><trkpt lon="5.719735" lat="51.117002"><ele>35.4</ele><time>2022-05-15T06:12:41.000Z</time></trkpt><trkpt lon="5.719723" lat="51.116941"><ele>35.4</ele><time>2022-05-15T06:12:42.000Z</time></trkpt><trkpt lon="5.719712" lat="51.116877"><ele>35.2</ele><time>2022-05-15T06:12:43.000Z</time></trkpt><trkpt lon="5.719705" lat="51.116812"><ele>35.2</ele><time>2022-05-15T06:12:44.000Z</time></trkpt><trkpt lon="5.719699" lat="51.116748"><ele>35.2</ele><time>2022-05-15T06:12:45.000Z</time></trkpt><trkpt lon="5.71969" lat="51.116682"><ele>35.2</ele><time>2022-05-15T06:12:46.000Z</time></trkpt><trkpt lon="5.71968" lat="51.116615"><ele>35</ele><time>2022-05-15T06:12:47.000Z</time></trkpt><trkpt lon="5.719671" lat="51.116541"><ele>35</ele><time>2022-05-15T06:12:48.000Z</time></trkpt><trkpt lon="5.71966" lat="51.116465"><ele>35.2</ele><time>2022-05-15T06:12:49.000Z</time></trkpt><trkpt lon="5.719649" lat="51.116393"><ele>35.2</ele><time>2022-05-15T06:12:50.000Z</time></trkpt><trkpt lon="5.719639" lat="51.116324"><ele>35.2</ele><time>2022-05-15T06:12:51.000Z</time></trkpt><trkpt lon="5.71963" lat="51.116252"><ele>35.2</ele><time>2022-05-15T06:12:52.000Z</time></trkpt><trkpt lon="5.719623" lat="51.116198"><ele>35.2</ele><time>2022-05-15T06:12:53.000Z</time></trkpt><trkpt lon="5.719611" lat="51.116111"><ele>35.2</ele><time>2022-05-15T06:12:54.000Z</time></trkpt><trkpt lon="5.719602" lat="51.116037"><ele>35.2</ele><time>2022-05-15T06:12:55.000Z</time></trkpt><trkpt lon="5.719592" lat="51.115966"><ele>35.2</ele><time>2022-05-15T06:12:56.000Z</time></trkpt><trkpt lon="5.719584" lat="51.115897"><ele>35.2</ele><time>2022-05-15T06:12:57.000Z</time></trkpt><trkpt lon="5.719572" lat="51.115825"><ele>35.2</ele><time>2022-05-15T06:12:58.000Z</time></trkpt><trkpt lon="5.719562" lat="51.115752"><ele>35.2</ele><time>2022-05-15T06:12:59.000Z</time></trkpt><trkpt lon="5.719551" lat="51.115685"><ele>35.2</ele><time>2022-05-15T06:13:00.000Z</time></trkpt><trkpt lon="5.719539" lat="51.115615"><ele>35.2</ele><time>2022-05-15T06:13:01.000Z</time></trkpt><trkpt lon="5.71953" lat="51.115546"><ele>35</ele><time>2022-05-15T06:13:02.000Z</time></trkpt><trkpt lon="5.719521" lat="51.115481"><ele>35</ele><time>2022-05-15T06:13:03.000Z</time></trkpt><trkpt lon="5.719512" lat="51.115409"><ele>35</ele><time>2022-05-15T06:13:04.000Z</time></trkpt><trkpt lon="5.719502" lat="51.11534"><ele>34.8</ele><time>2022-05-15T06:13:05.000Z</time></trkpt><trkpt lon="5.71949" lat="51.115267"><ele>34.8</ele><time>2022-05-15T06:13:06.000Z</time></trkpt><trkpt lon="5.719479" lat="51.115192"><ele>34.8</ele><time>2022-05-15T06:13:07.000Z</time></trkpt><trkpt lon="5.719471" lat="51.115124"><ele>34.8</ele><time>2022-05-15T06:13:08.000Z</time></trkpt><trkpt lon="5.719462" lat="51.115057"><ele>35</ele><time>2022-05-15T06:13:09.000Z</time></trkpt><trkpt lon="5.71945" lat="51.114989"><ele>34.8</ele><time>2022-05-15T06:13:10.000Z</time></trkpt><trkpt lon="5.719437" lat="51.114923"><ele>34.8</ele><time>2022-05-15T06:13:11.000Z</time></trkpt><trkpt lon="5.719429" lat="51.114866"><ele>34.8</ele><time>2022-05-15T06:13:12.000Z</time></trkpt><trkpt lon="5.719423" lat="51.114802"><ele>34.8</ele><time>2022-05-15T06:13:13.000Z</time></trkpt><trkpt lon="5.719417" lat="51.114726"><ele>35</ele><time>2022-05-15T06:13:14.000Z</time></trkpt><trkpt lon="5.719409" lat="51.11465"><ele>35</ele><time>2022-05-15T06:13:15.000Z</time></trkpt><trkpt lon="5.719403" lat="51.11459"><ele>35</ele><time>2022-05-15T06:13:16.000Z</time></trkpt><trkpt lon="5.719394" lat="51.114505"><ele>35</ele><time>2022-05-15T06:13:17.000Z</time></trkpt><trkpt lon="5.719382" lat="51.114443"><ele>35</ele><time>2022-05-15T06:13:18.000Z</time></trkpt><trkpt lon="5.71937" lat="51.114368"><ele>35.2</ele><time>2022-05-15T06:13:19.000Z</time></trkpt><trkpt lon="5.719362" lat="51.114298"><ele>35.2</ele><time>2022-05-15T06:13:20.000Z</time></trkpt><trkpt lon="5.719352" lat="51.114225"><ele>35.2</ele><time>2022-05-15T06:13:21.000Z</time></trkpt><trkpt lon="5.719343" lat="51.114157"><ele>35.2</ele><time>2022-05-15T06:13:22.000Z</time></trkpt><trkpt lon="5.719335" lat="51.114089"><ele>35.2</ele><time>2022-05-15T06:13:23.000Z</time></trkpt><trkpt lon="5.719327" lat="51.114013"><ele>35</ele><time>2022-05-15T06:13:24.000Z</time></trkpt><trkpt lon="5.719317" lat="51.113941"><ele>35</ele><time>2022-05-15T06:13:25.000Z</time></trkpt><trkpt lon="5.719305" lat="51.11386"><ele>35</ele><time>2022-05-15T06:13:26.000Z</time></trkpt><trkpt lon="5.719293" lat="51.113793"><ele>35</ele><time>2022-05-15T06:13:27.000Z</time></trkpt><trkpt lon="5.719279" lat="51.113716"><ele>35</ele><time>2022-05-15T06:13:28.000Z</time></trkpt><trkpt lon="5.719269" lat="51.113643"><ele>35</ele><time>2022-05-15T06:13:29.000Z</time></trkpt><trkpt lon="5.71926" lat="51.113565"><ele>35</ele><time>2022-05-15T06:13:30.000Z</time></trkpt><trkpt lon="5.719251" lat="51.113494"><ele>35.2</ele><time>2022-05-15T06:13:31.000Z</time></trkpt><trkpt lon="5.719242" lat="51.113422"><ele>35.2</ele><time>2022-05-15T06:13:32.000Z</time></trkpt><trkpt lon="5.719235" lat="51.113363"><ele>35.2</ele><time>2022-05-15T06:13:33.000Z</time></trkpt><trkpt lon="5.719225" lat="51.113276"><ele>35.2</ele><time>2022-05-15T06:13:34.000Z</time></trkpt><trkpt lon="5.719214" lat="51.113203"><ele>35.2</ele><time>2022-05-15T06:13:35.000Z</time></trkpt><trkpt lon="5.719202" lat="51.113131"><ele>35.2</ele><time>2022-05-15T06:13:36.000Z</time></trkpt><trkpt lon="5.719192" lat="51.113063"><ele>35.2</ele><time>2022-05-15T06:13:37.000Z</time></trkpt><trkpt lon="5.719182" lat="51.11299"><ele>35.2</ele><time>2022-05-15T06:13:38.000Z</time></trkpt><trkpt lon="5.719172" lat="51.112925"><ele>35.4</ele><time>2022-05-15T06:13:39.000Z</time></trkpt><trkpt lon="5.719162" lat="51.112858"><ele>35.4</ele><time>2022-05-15T06:13:40.000Z</time></trkpt><trkpt lon="5.719152" lat="51.112791"><ele>35.2</ele><time>2022-05-15T06:13:41.000Z</time></trkpt><trkpt lon="5.719142" lat="51.11273"><ele>35.4</ele><time>2022-05-15T06:13:42.000Z</time></trkpt><trkpt lon="5.719134" lat="51.112682"><ele>35.6</ele><time>2022-05-15T06:13:43.000Z</time></trkpt><trkpt lon="5.719122" lat="51.112605"><ele>35.8</ele><time>2022-05-15T06:13:44.000Z</time></trkpt><trkpt lon="5.719114" lat="51.112535"><ele>35.6</ele><time>2022-05-15T06:13:45.000Z</time></trkpt><trkpt lon="5.719105" lat="51.112463"><ele>35.6</ele><time>2022-05-15T06:13:46.000Z</time></trkpt><trkpt lon="5.719095" lat="51.112391"><ele>35.6</ele><time>2022-05-15T06:13:47.000Z</time></trkpt><trkpt lon="5.719087" lat="51.112319"><ele>35.6</ele><time>2022-05-15T06:13:48.000Z</time></trkpt><trkpt lon="5.71908" lat="51.112248"><ele>35.4</ele><time>2022-05-15T06:13:49.000Z</time></trkpt><trkpt lon="5.719072" lat="51.112177"><ele>35.4</ele><time>2022-05-15T06:13:50.000Z</time></trkpt><trkpt lon="5.71906" lat="51.112112"><ele>35.4</ele><time>2022-05-15T06:13:51.000Z</time></trkpt><trkpt lon="5.719052" lat="51.112043"><ele>35.2</ele><time>2022-05-15T06:13:52.000Z</time></trkpt><trkpt lon="5.719045" lat="51.111979"><ele>35.2</ele><time>2022-05-15T06:13:53.000Z</time></trkpt><trkpt lon="5.719035" lat="51.111914"><ele>35.2</ele><time>2022-05-15T06:13:54.000Z</time></trkpt><trkpt lon="5.719027" lat="51.111849"><ele>35</ele><time>2022-05-15T06:13:55.000Z</time></trkpt><trkpt lon="5.719015" lat="51.111791"><ele>35</ele><time>2022-05-15T06:13:56.000Z</time></trkpt><trkpt lon="5.719004" lat="51.111723"><ele>35</ele><time>2022-05-15T06:13:57.000Z</time></trkpt><trkpt lon="5.718997" lat="51.111654"><ele>35.2</ele><time>2022-05-15T06:13:58.000Z</time></trkpt><trkpt lon="5.718989" lat="51.111586"><ele>35.2</ele><time>2022-05-15T06:13:59.000Z</time></trkpt><trkpt lon="5.718982" lat="51.111521"><ele>35.4</ele><time>2022-05-15T06:14:00.000Z</time></trkpt><trkpt lon="5.718973" lat="51.111456"><ele>35.4</ele><time>2022-05-15T06:14:01.000Z</time></trkpt><trkpt lon="5.718963" lat="51.111399"><ele>35.4</ele><time>2022-05-15T06:14:02.000Z</time></trkpt><trkpt lon="5.718954" lat="51.111342"><ele>35.4</ele><time>2022-05-15T06:14:03.000Z</time></trkpt><trkpt lon="5.71894" lat="51.111269"><ele>35.4</ele><time>2022-05-15T06:14:04.000Z</time></trkpt><trkpt lon="5.71893" lat="51.111204"><ele>35.4</ele><time>2022-05-15T06:14:05.000Z</time></trkpt><trkpt lon="5.718924" lat="51.111132"><ele>35.4</ele><time>2022-05-15T06:14:06.000Z</time></trkpt><trkpt lon="5.718915" lat="51.11106"><ele>35.4</ele><time>2022-05-15T06:14:07.000Z</time></trkpt><trkpt lon="5.71891" lat="51.111"><ele>35.4</ele><time>2022-05-15T06:14:08.000Z</time></trkpt><trkpt lon="5.718902" lat="51.110922"><ele>35.4</ele><time>2022-05-15T06:14:09.000Z</time></trkpt><trkpt lon="5.718892" lat="51.110853"><ele>35.6</ele><time>2022-05-15T06:14:10.000Z</time></trkpt><trkpt lon="5.718881" lat="51.110788"><ele>35.4</ele><time>2022-05-15T06:14:11.000Z</time></trkpt><trkpt lon="5.71887" lat="51.110724"><ele>35.4</ele><time>2022-05-15T06:14:12.000Z</time></trkpt><trkpt lon="5.718864" lat="51.110662"><ele>35.6</ele><time>2022-05-15T06:14:13.000Z</time></trkpt><trkpt lon="5.718858" lat="51.110601"><ele>35.8</ele><time>2022-05-15T06:14:14.000Z</time></trkpt><trkpt lon="5.718852" lat="51.110528"><ele>35.8</ele><time>2022-05-15T06:14:15.000Z</time></trkpt><trkpt lon="5.718847" lat="51.11045"><ele>36</ele><time>2022-05-15T06:14:16.000Z</time></trkpt><trkpt lon="5.718837" lat="51.110374"><ele>36</ele><time>2022-05-15T06:14:17.000Z</time></trkpt><trkpt lon="5.718829" lat="51.110301"><ele>35.8</ele><time>2022-05-15T06:14:18.000Z</time></trkpt><trkpt lon="5.718824" lat="51.110228"><ele>36</ele><time>2022-05-15T06:14:19.000Z</time></trkpt><trkpt lon="5.718822" lat="51.110152"><ele>36</ele><time>2022-05-15T06:14:20.000Z</time></trkpt><trkpt lon="5.718818" lat="51.110084"><ele>35.8</ele><time>2022-05-15T06:14:21.000Z</time></trkpt><trkpt lon="5.71881" lat="51.110017"><ele>36</ele><time>2022-05-15T06:14:22.000Z</time></trkpt><trkpt lon="5.7188" lat="51.109957"><ele>36</ele><time>2022-05-15T06:14:23.000Z</time></trkpt><trkpt lon="5.718792" lat="51.109888"><ele>36</ele><time>2022-05-15T06:14:24.000Z</time></trkpt><trkpt lon="5.718785" lat="51.109823"><ele>36</ele><time>2022-05-15T06:14:25.000Z</time></trkpt><trkpt lon="5.718777" lat="51.109751"><ele>36</ele><time>2022-05-15T06:14:26.000Z</time></trkpt><trkpt lon="5.71877" lat="51.109679"><ele>36</ele><time>2022-05-15T06:14:27.000Z</time></trkpt><trkpt lon="5.718768" lat="51.109614"><ele>36</ele><time>2022-05-15T06:14:28.000Z</time></trkpt><trkpt lon="5.718757" lat="51.10956"><ele>36</ele><time>2022-05-15T06:14:29.000Z</time></trkpt><trkpt lon="5.718734" lat="51.10951"><ele>36</ele><time>2022-05-15T06:14:30.000Z</time></trkpt><trkpt lon="5.718687" lat="51.109468"><ele>36</ele><time>2022-05-15T06:14:31.000Z</time></trkpt><trkpt lon="5.718624" lat="51.109445"><ele>36.2</ele><time>2022-05-15T06:14:32.000Z</time></trkpt><trkpt lon="5.718546" lat="51.109437"><ele>36.2</ele><time>2022-05-15T06:14:33.000Z</time></trkpt><trkpt lon="5.718454" lat="51.109432"><ele>36</ele><time>2022-05-15T06:14:34.000Z</time></trkpt><trkpt lon="5.71836" lat="51.109429"><ele>36</ele><time>2022-05-15T06:14:35.000Z</time></trkpt><trkpt lon="5.71826" lat="51.109428"><ele>36</ele><time>2022-05-15T06:14:36.000Z</time></trkpt><trkpt lon="5.718158" lat="51.109428"><ele>36</ele><time>2022-05-15T06:14:37.000Z</time></trkpt><trkpt lon="5.718055" lat="51.109425"><ele>36</ele><time>2022-05-15T06:14:38.000Z</time></trkpt><trkpt lon="5.717949" lat="51.109417"><ele>36</ele><time>2022-05-15T06:14:39.000Z</time></trkpt><trkpt lon="5.717845" lat="51.109413"><ele>36</ele><time>2022-05-15T06:14:40.000Z</time></trkpt><trkpt lon="5.717738" lat="51.109409"><ele>35.8</ele><time>2022-05-15T06:14:41.000Z</time></trkpt><trkpt lon="5.717629" lat="51.109406"><ele>35.8</ele><time>2022-05-15T06:14:42.000Z</time></trkpt><trkpt lon="5.717521" lat="51.109402"><ele>35.8</ele><time>2022-05-15T06:14:43.000Z</time></trkpt><trkpt lon="5.71741" lat="51.109398"><ele>35.8</ele><time>2022-05-15T06:14:44.000Z</time></trkpt><trkpt lon="5.717304" lat="51.109394"><ele>36</ele><time>2022-05-15T06:14:45.000Z</time></trkpt><trkpt lon="5.7172" lat="51.10939"><ele>36</ele><time>2022-05-15T06:14:46.000Z</time></trkpt><trkpt lon="5.717098" lat="51.109387"><ele>36</ele><time>2022-05-15T06:14:47.000Z</time></trkpt><trkpt lon="5.716992" lat="51.109379"><ele>36.2</ele><time>2022-05-15T06:14:48.000Z</time></trkpt><trkpt lon="5.716886" lat="51.109375"><ele>36.2</ele><time>2022-05-15T06:14:49.000Z</time></trkpt><trkpt lon="5.716775" lat="51.109371"><ele>36.2</ele><time>2022-05-15T06:14:50.000Z</time></trkpt><trkpt lon="5.71666" lat="51.109367"><ele>36.2</ele><time>2022-05-15T06:14:51.000Z</time></trkpt><trkpt lon="5.716545" lat="51.109364"><ele>36.2</ele><time>2022-05-15T06:14:52.000Z</time></trkpt><trkpt lon="5.716432" lat="51.109364"><ele>36</ele><time>2022-05-15T06:14:53.000Z</time></trkpt><trkpt lon="5.716318" lat="51.10936"><ele>36</ele><time>2022-05-15T06:14:54.000Z</time></trkpt><trkpt lon="5.716207" lat="51.10936"><ele>36</ele><time>2022-05-15T06:14:55.000Z</time></trkpt><trkpt lon="5.716096" lat="51.109356"><ele>36</ele><time>2022-05-15T06:14:56.000Z</time></trkpt><trkpt lon="5.715984" lat="51.109352"><ele>36</ele><time>2022-05-15T06:14:57.000Z</time></trkpt><trkpt lon="5.715879" lat="51.109349"><ele>36</ele><time>2022-05-15T06:14:58.000Z</time></trkpt><trkpt lon="5.715768" lat="51.109345"><ele>36.2</ele><time>2022-05-15T06:14:59.000Z</time></trkpt><trkpt lon="5.715662" lat="51.109341"><ele>36.2</ele><time>2022-05-15T06:15:00.000Z</time></trkpt><trkpt lon="5.715551" lat="51.109337"><ele>36.2</ele><time>2022-05-15T06:15:01.000Z</time></trkpt><trkpt lon="5.715443" lat="51.109337"><ele>36.2</ele><time>2022-05-15T06:15:02.000Z</time></trkpt><trkpt lon="5.715343" lat="51.109333"><ele>36.2</ele><time>2022-05-15T06:15:03.000Z</time></trkpt><trkpt lon="5.715222" lat="51.109329"><ele>36.2</ele><time>2022-05-15T06:15:04.000Z</time></trkpt><trkpt lon="5.715109" lat="51.109325"><ele>36.2</ele><time>2022-05-15T06:15:05.000Z</time></trkpt><trkpt lon="5.715004" lat="51.109322"><ele>36.4</ele><time>2022-05-15T06:15:06.000Z</time></trkpt><trkpt lon="5.714901" lat="51.109318"><ele>36.4</ele><time>2022-05-15T06:15:07.000Z</time></trkpt><trkpt lon="5.714777" lat="51.109314"><ele>36.4</ele><time>2022-05-15T06:15:08.000Z</time></trkpt><trkpt lon="5.714665" lat="51.10931"><ele>36.4</ele><time>2022-05-15T06:15:09.000Z</time></trkpt><trkpt lon="5.714555" lat="51.109303"><ele>36.2</ele><time>2022-05-15T06:15:10.000Z</time></trkpt><trkpt lon="5.714446" lat="51.109299"><ele>36.2</ele><time>2022-05-15T06:15:11.000Z</time></trkpt><trkpt lon="5.714334" lat="51.109295"><ele>36</ele><time>2022-05-15T06:15:12.000Z</time></trkpt><trkpt lon="5.714229" lat="51.109291"><ele>36</ele><time>2022-05-15T06:15:13.000Z</time></trkpt><trkpt lon="5.714118" lat="51.109287"><ele>36</ele><time>2022-05-15T06:15:14.000Z</time></trkpt><trkpt lon="5.714004" lat="51.109284"><ele>35.8</ele><time>2022-05-15T06:15:15.000Z</time></trkpt><trkpt lon="5.713893" lat="51.109283"><ele>35.8</ele><time>2022-05-15T06:15:16.000Z</time></trkpt><trkpt lon="5.713776" lat="51.10928"><ele>35.6</ele><time>2022-05-15T06:15:17.000Z</time></trkpt><trkpt lon="5.713662" lat="51.109276"><ele>35.6</ele><time>2022-05-15T06:15:18.000Z</time></trkpt><trkpt lon="5.713548" lat="51.109272"><ele>35.6</ele><time>2022-05-15T06:15:19.000Z</time></trkpt><trkpt lon="5.713437" lat="51.109268"><ele>35.6</ele><time>2022-05-15T06:15:20.000Z</time></trkpt><trkpt lon="5.713326" lat="51.109268"><ele>35.6</ele><time>2022-05-15T06:15:21.000Z</time></trkpt><trkpt lon="5.713215" lat="51.109264"><ele>35.6</ele><time>2022-05-15T06:15:22.000Z</time></trkpt><trkpt lon="5.713105" lat="51.109261"><ele>35.6</ele><time>2022-05-15T06:15:23.000Z</time></trkpt><trkpt lon="5.712995" lat="51.109261"><ele>35.6</ele><time>2022-05-15T06:15:24.000Z</time></trkpt><trkpt lon="5.712884" lat="51.109257"><ele>35.4</ele><time>2022-05-15T06:15:25.000Z</time></trkpt><trkpt lon="5.712772" lat="51.109253"><ele>35.4</ele><time>2022-05-15T06:15:26.000Z</time></trkpt><trkpt lon="5.712663" lat="51.109253"><ele>35.6</ele><time>2022-05-15T06:15:27.000Z</time></trkpt><trkpt lon="5.712557" lat="51.109253"><ele>35.6</ele><time>2022-05-15T06:15:28.000Z</time></trkpt><trkpt lon="5.712451" lat="51.109249"><ele>35.4</ele><time>2022-05-15T06:15:29.000Z</time></trkpt><trkpt lon="5.712349" lat="51.109249"><ele>35.4</ele><time>2022-05-15T06:15:30.000Z</time></trkpt><trkpt lon="5.712244" lat="51.109245"><ele>35.4</ele><time>2022-05-15T06:15:31.000Z</time></trkpt><trkpt lon="5.712138" lat="51.109242"><ele>35.4</ele><time>2022-05-15T06:15:32.000Z</time></trkpt><trkpt lon="5.712041" lat="51.109241"><ele>35.4</ele><time>2022-05-15T06:15:33.000Z</time></trkpt><trkpt lon="5.711925" lat="51.109238"><ele>35.4</ele><time>2022-05-15T06:15:34.000Z</time></trkpt><trkpt lon="5.711823" lat="51.109238"><ele>35.4</ele><time>2022-05-15T06:15:35.000Z</time></trkpt><trkpt lon="5.711718" lat="51.109234"><ele>35.2</ele><time>2022-05-15T06:15:36.000Z</time></trkpt><trkpt lon="5.711617" lat="51.10923"><ele>35.2</ele><time>2022-05-15T06:15:37.000Z</time></trkpt><trkpt lon="5.711514" lat="51.10923"><ele>35.2</ele><time>2022-05-15T06:15:38.000Z</time></trkpt><trkpt lon="5.711414" lat="51.10923"><ele>35.2</ele><time>2022-05-15T06:15:39.000Z</time></trkpt><trkpt lon="5.711313" lat="51.109226"><ele>35.4</ele><time>2022-05-15T06:15:40.000Z</time></trkpt><trkpt lon="5.711211" lat="51.109226"><ele>35.4</ele><time>2022-05-15T06:15:41.000Z</time></trkpt><trkpt lon="5.711111" lat="51.109222"><ele>35.4</ele><time>2022-05-15T06:15:42.000Z</time></trkpt><trkpt lon="5.711012" lat="51.109215"><ele>35.4</ele><time>2022-05-15T06:15:43.000Z</time></trkpt><trkpt lon="5.71091" lat="51.109211"><ele>35.6</ele><time>2022-05-15T06:15:44.000Z</time></trkpt><trkpt lon="5.71081" lat="51.109207"><ele>35.6</ele><time>2022-05-15T06:15:45.000Z</time></trkpt><trkpt lon="5.710713" lat="51.109203"><ele>35.8</ele><time>2022-05-15T06:15:46.000Z</time></trkpt><trkpt lon="5.710616" lat="51.1092"><ele>35.8</ele><time>2022-05-15T06:15:47.000Z</time></trkpt><trkpt lon="5.71052" lat="51.109192"><ele>35.8</ele><time>2022-05-15T06:15:48.000Z</time></trkpt><trkpt lon="5.710425" lat="51.109188"><ele>35.8</ele><time>2022-05-15T06:15:49.000Z</time></trkpt><trkpt lon="5.710325" lat="51.109177"><ele>35.8</ele><time>2022-05-15T06:15:50.000Z</time></trkpt><trkpt lon="5.710223" lat="51.109173"><ele>35.6</ele><time>2022-05-15T06:15:51.000Z</time></trkpt><trkpt lon="5.710117" lat="51.109173"><ele>35.6</ele><time>2022-05-15T06:15:52.000Z</time></trkpt><trkpt lon="5.710013" lat="51.10918"><ele>35.6</ele><time>2022-05-15T06:15:53.000Z</time></trkpt><trkpt lon="5.709916" lat="51.109191"><ele>35.6</ele><time>2022-05-15T06:15:54.000Z</time></trkpt><trkpt lon="5.709803" lat="51.109207"><ele>35.6</ele><time>2022-05-15T06:15:55.000Z</time></trkpt><trkpt lon="5.70969" lat="51.109215"><ele>35.4</ele><time>2022-05-15T06:15:56.000Z</time></trkpt><trkpt lon="5.709578" lat="51.109226"><ele>35.4</ele><time>2022-05-15T06:15:57.000Z</time></trkpt><trkpt lon="5.709468" lat="51.109234"><ele>35.4</ele><time>2022-05-15T06:15:58.000Z</time></trkpt><trkpt lon="5.709358" lat="51.109241"><ele>35.4</ele><time>2022-05-15T06:15:59.000Z</time></trkpt><trkpt lon="5.709246" lat="51.109253"><ele>35.4</ele><time>2022-05-15T06:16:00.000Z</time></trkpt><trkpt lon="5.709129" lat="51.10926"><ele>35.4</ele><time>2022-05-15T06:16:01.000Z</time></trkpt><trkpt lon="5.709017" lat="51.109268"><ele>35.4</ele><time>2022-05-15T06:16:02.000Z</time></trkpt><trkpt lon="5.708917" lat="51.109275"><ele>35.4</ele><time>2022-05-15T06:16:03.000Z</time></trkpt><trkpt lon="5.708783" lat="51.109283"><ele>35.4</ele><time>2022-05-15T06:16:04.000Z</time></trkpt><trkpt lon="5.708668" lat="51.109295"><ele>35.4</ele><time>2022-05-15T06:16:05.000Z</time></trkpt><trkpt lon="5.708552" lat="51.109314"><ele>35.4</ele><time>2022-05-15T06:16:06.000Z</time></trkpt><trkpt lon="5.708439" lat="51.109332"><ele>35.2</ele><time>2022-05-15T06:16:07.000Z</time></trkpt><trkpt lon="5.708327" lat="51.109348"><ele>35.2</ele><time>2022-05-15T06:16:08.000Z</time></trkpt><trkpt lon="5.708216" lat="51.109371"><ele>35.2</ele><time>2022-05-15T06:16:09.000Z</time></trkpt><trkpt lon="5.70811" lat="51.109392"><ele>35.2</ele><time>2022-05-15T06:16:10.000Z</time></trkpt><trkpt lon="5.707998" lat="51.109416"><ele>35.2</ele><time>2022-05-15T06:16:11.000Z</time></trkpt><trkpt lon="5.707894" lat="51.109442"><ele>35.4</ele><time>2022-05-15T06:16:12.000Z</time></trkpt><trkpt lon="5.707787" lat="51.109466"><ele>35.6</ele><time>2022-05-15T06:16:13.000Z</time></trkpt><trkpt lon="5.707681" lat="51.109493"><ele>35.8</ele><time>2022-05-15T06:16:14.000Z</time></trkpt><trkpt lon="5.707578" lat="51.109515"><ele>36</ele><time>2022-05-15T06:16:15.000Z</time></trkpt><trkpt lon="5.707482" lat="51.109538"><ele>36.2</ele><time>2022-05-15T06:16:16.000Z</time></trkpt><trkpt lon="5.707386" lat="51.10956"><ele>36.4</ele><time>2022-05-15T06:16:17.000Z</time></trkpt><trkpt lon="5.707281" lat="51.109588"><ele>36.6</ele><time>2022-05-15T06:16:18.000Z</time></trkpt><trkpt lon="5.70718" lat="51.109615"><ele>36.4</ele><time>2022-05-15T06:16:19.000Z</time></trkpt><trkpt lon="5.707084" lat="51.109645"><ele>36.2</ele><time>2022-05-15T06:16:20.000Z</time></trkpt><trkpt lon="5.706988" lat="51.109671"><ele>36</ele><time>2022-05-15T06:16:21.000Z</time></trkpt><trkpt lon="5.706886" lat="51.109699"><ele>36</ele><time>2022-05-15T06:16:22.000Z</time></trkpt><trkpt lon="5.706782" lat="51.109725"><ele>35.8</ele><time>2022-05-15T06:16:23.000Z</time></trkpt><trkpt lon="5.706682" lat="51.109748"><ele>35.8</ele><time>2022-05-15T06:16:24.000Z</time></trkpt><trkpt lon="5.706578" lat="51.109771"><ele>35.8</ele><time>2022-05-15T06:16:25.000Z</time></trkpt><trkpt lon="5.706475" lat="51.109798"><ele>35.8</ele><time>2022-05-15T06:16:26.000Z</time></trkpt><trkpt lon="5.70637" lat="51.109817"><ele>35.8</ele><time>2022-05-15T06:16:27.000Z</time></trkpt><trkpt lon="5.706268" lat="51.109836"><ele>35.6</ele><time>2022-05-15T06:16:28.000Z</time></trkpt><trkpt lon="5.706165" lat="51.109859"><ele>35.6</ele><time>2022-05-15T06:16:29.000Z</time></trkpt><trkpt lon="5.706075" lat="51.109882"><ele>35.6</ele><time>2022-05-15T06:16:30.000Z</time></trkpt><trkpt lon="5.705963" lat="51.109907"><ele>35.6</ele><time>2022-05-15T06:16:31.000Z</time></trkpt><trkpt lon="5.705855" lat="51.109935"><ele>35.6</ele><time>2022-05-15T06:16:32.000Z</time></trkpt><trkpt lon="5.70575" lat="51.109958"><ele>35.6</ele><time>2022-05-15T06:16:33.000Z</time></trkpt><trkpt lon="5.705646" lat="51.10998"><ele>35.6</ele><time>2022-05-15T06:16:34.000Z</time></trkpt><trkpt lon="5.70554" lat="51.110007"><ele>35.6</ele><time>2022-05-15T06:16:35.000Z</time></trkpt><trkpt lon="5.705433" lat="51.110034"><ele>35.6</ele><time>2022-05-15T06:16:36.000Z</time></trkpt><trkpt lon="5.705328" lat="51.11006"><ele>35.6</ele><time>2022-05-15T06:16:37.000Z</time></trkpt><trkpt lon="5.705218" lat="51.110085"><ele>35.6</ele><time>2022-05-15T06:16:38.000Z</time></trkpt><trkpt lon="5.705109" lat="51.11011"><ele>35.6</ele><time>2022-05-15T06:16:39.000Z</time></trkpt><trkpt lon="5.705002" lat="51.110137"><ele>35.6</ele><time>2022-05-15T06:16:40.000Z</time></trkpt><trkpt lon="5.704894" lat="51.11016"><ele>35.6</ele><time>2022-05-15T06:16:41.000Z</time></trkpt><trkpt lon="5.704792" lat="51.110187"><ele>35.6</ele><time>2022-05-15T06:16:42.000Z</time></trkpt><trkpt lon="5.704686" lat="51.110213"><ele>35.6</ele><time>2022-05-15T06:16:43.000Z</time></trkpt><trkpt lon="5.70458" lat="51.11024"><ele>35.6</ele><time>2022-05-15T06:16:44.000Z</time></trkpt><trkpt lon="5.704475" lat="51.110267"><ele>35.6</ele><time>2022-05-15T06:16:45.000Z</time></trkpt><trkpt lon="5.70437" lat="51.11029"><ele>35.6</ele><time>2022-05-15T06:16:46.000Z</time></trkpt><trkpt lon="5.704272" lat="51.110313"><ele>35.6</ele><time>2022-05-15T06:16:47.000Z</time></trkpt><trkpt lon="5.704175" lat="51.110339"><ele>35.6</ele><time>2022-05-15T06:16:48.000Z</time></trkpt><trkpt lon="5.704077" lat="51.110362"><ele>35.4</ele><time>2022-05-15T06:16:49.000Z</time></trkpt><trkpt lon="5.70398" lat="51.110385"><ele>35.4</ele><time>2022-05-15T06:16:50.000Z</time></trkpt><trkpt lon="5.70388" lat="51.110408"><ele>35.4</ele><time>2022-05-15T06:16:51.000Z</time></trkpt><trkpt lon="5.703779" lat="51.110435"><ele>35.4</ele><time>2022-05-15T06:16:52.000Z</time></trkpt><trkpt lon="5.703679" lat="51.110459"><ele>35.4</ele><time>2022-05-15T06:16:53.000Z</time></trkpt><trkpt lon="5.703579" lat="51.110484"><ele>35.4</ele><time>2022-05-15T06:16:54.000Z</time></trkpt><trkpt lon="5.703479" lat="51.110511"><ele>35.6</ele><time>2022-05-15T06:16:55.000Z</time></trkpt><trkpt lon="5.703382" lat="51.110534"><ele>35.6</ele><time>2022-05-15T06:16:56.000Z</time></trkpt><trkpt lon="5.703281" lat="51.110557"><ele>35.8</ele><time>2022-05-15T06:16:57.000Z</time></trkpt><trkpt lon="5.703185" lat="51.110579"><ele>35.8</ele><time>2022-05-15T06:16:58.000Z</time></trkpt><trkpt lon="5.703083" lat="51.110603"><ele>36</ele><time>2022-05-15T06:16:59.000Z</time></trkpt><trkpt lon="5.702987" lat="51.110626"><ele>36</ele><time>2022-05-15T06:17:00.000Z</time></trkpt><trkpt lon="5.702896" lat="51.110648"><ele>36.2</ele><time>2022-05-15T06:17:01.000Z</time></trkpt><trkpt lon="5.702808" lat="51.110668"><ele>36.4</ele><time>2022-05-15T06:17:02.000Z</time></trkpt><trkpt lon="5.702729" lat="51.110689"><ele>36.4</ele><time>2022-05-15T06:17:03.000Z</time></trkpt><trkpt lon="5.702647" lat="51.11071"><ele>36.6</ele><time>2022-05-15T06:17:04.000Z</time></trkpt><trkpt lon="5.702578" lat="51.110725"><ele>36.6</ele><time>2022-05-15T06:17:05.000Z</time></trkpt><trkpt lon="5.70252" lat="51.11074"><ele>36.8</ele><time>2022-05-15T06:17:06.000Z</time></trkpt><trkpt lon="5.702473" lat="51.110752"><ele>37</ele><time>2022-05-15T06:17:07.000Z</time></trkpt><trkpt lon="5.702439" lat="51.11076"><ele>37.2</ele><time>2022-05-15T06:17:08.000Z</time></trkpt><trkpt lon="5.702418" lat="51.110763"><ele>37.2</ele><time>2022-05-15T06:17:09.000Z</time></trkpt><trkpt lon="5.702396" lat="51.110767"><ele>37.4</ele><time>2022-05-15T06:17:10.000Z</time></trkpt><trkpt lon="5.702363" lat="51.110771"><ele>37.4</ele><time>2022-05-15T06:17:11.000Z</time></trkpt><trkpt lon="5.702323" lat="51.110775"><ele>37.6</ele><time>2022-05-15T06:17:12.000Z</time></trkpt><trkpt lon="5.702272" lat="51.110779"><ele>37.4</ele><time>2022-05-15T06:17:13.000Z</time></trkpt><trkpt lon="5.702206" lat="51.110783"><ele>37.4</ele><time>2022-05-15T06:17:14.000Z</time></trkpt><trkpt lon="5.702129" lat="51.110786"><ele>37.2</ele><time>2022-05-15T06:17:15.000Z</time></trkpt><trkpt lon="5.702052" lat="51.110786"><ele>37.2</ele><time>2022-05-15T06:17:16.000Z</time></trkpt><trkpt lon="5.701951" lat="51.110779"><ele>37</ele><time>2022-05-15T06:17:17.000Z</time></trkpt><trkpt lon="5.701863" lat="51.110772"><ele>37</ele><time>2022-05-15T06:17:18.000Z</time></trkpt><trkpt lon="5.701761" lat="51.110764"><ele>37</ele><time>2022-05-15T06:17:19.000Z</time></trkpt><trkpt lon="5.701663" lat="51.110756"><ele>36.8</ele><time>2022-05-15T06:17:20.000Z</time></trkpt><trkpt lon="5.701566" lat="51.110749"><ele>36.8</ele><time>2022-05-15T06:17:21.000Z</time></trkpt><trkpt lon="5.701469" lat="51.110743"><ele>36.8</ele><time>2022-05-15T06:17:22.000Z</time></trkpt><trkpt lon="5.701371" lat="51.110737"><ele>36.8</ele><time>2022-05-15T06:17:23.000Z</time></trkpt><trkpt lon="5.701278" lat="51.11073"><ele>36.8</ele><time>2022-05-15T06:17:24.000Z</time></trkpt><trkpt lon="5.701173" lat="51.110722"><ele>36.8</ele><time>2022-05-15T06:17:25.000Z</time></trkpt><trkpt lon="5.701075" lat="51.110718"><ele>36.8</ele><time>2022-05-15T06:17:26.000Z</time></trkpt><trkpt lon="5.700971" lat="51.110718"><ele>36.8</ele><time>2022-05-15T06:17:27.000Z</time></trkpt><trkpt lon="5.700871" lat="51.110714"><ele>36.8</ele><time>2022-05-15T06:17:28.000Z</time></trkpt><trkpt lon="5.700766" lat="51.11071"><ele>36.6</ele><time>2022-05-15T06:17:29.000Z</time></trkpt><trkpt lon="5.700663" lat="51.110706"><ele>36.6</ele><time>2022-05-15T06:17:30.000Z</time></trkpt><trkpt lon="5.700558" lat="51.110703"><ele>36.6</ele><time>2022-05-15T06:17:31.000Z</time></trkpt><trkpt lon="5.700452" lat="51.110695"><ele>36.6</ele><time>2022-05-15T06:17:32.000Z</time></trkpt><trkpt lon="5.700341" lat="51.110687"><ele>36.6</ele><time>2022-05-15T06:17:33.000Z</time></trkpt><trkpt lon="5.700231" lat="51.110684"><ele>36.6</ele><time>2022-05-15T06:17:34.000Z</time></trkpt><trkpt lon="5.700126" lat="51.110673"><ele>36.6</ele><time>2022-05-15T06:17:35.000Z</time></trkpt><trkpt lon="5.700004" lat="51.110661"><ele>36.6</ele><time>2022-05-15T06:17:36.000Z</time></trkpt><trkpt lon="5.69989" lat="51.110653"><ele>36.6</ele><time>2022-05-15T06:17:37.000Z</time></trkpt><trkpt lon="5.699776" lat="51.110646"><ele>36.6</ele><time>2022-05-15T06:17:38.000Z</time></trkpt><trkpt lon="5.699656" lat="51.110638"><ele>36.6</ele><time>2022-05-15T06:17:39.000Z</time></trkpt><trkpt lon="5.699542" lat="51.11063"><ele>36.8</ele><time>2022-05-15T06:17:40.000Z</time></trkpt><trkpt lon="5.699427" lat="51.110615"><ele>36.8</ele><time>2022-05-15T06:17:41.000Z</time></trkpt><trkpt lon="5.699313" lat="51.110604"><ele>36.8</ele><time>2022-05-15T06:17:42.000Z</time></trkpt><trkpt lon="5.699198" lat="51.1106"><ele>36.8</ele><time>2022-05-15T06:17:43.000Z</time></trkpt><trkpt lon="5.699082" lat="51.110592"><ele>36.8</ele><time>2022-05-15T06:17:44.000Z</time></trkpt><trkpt lon="5.69897" lat="51.110577"><ele>36.8</ele><time>2022-05-15T06:17:45.000Z</time></trkpt><trkpt lon="5.698859" lat="51.110566"><ele>36.6</ele><time>2022-05-15T06:17:46.000Z</time></trkpt><trkpt lon="5.698744" lat="51.11055"><ele>36.6</ele><time>2022-05-15T06:17:47.000Z</time></trkpt><trkpt lon="5.698628" lat="51.110546"><ele>36.6</ele><time>2022-05-15T06:17:48.000Z</time></trkpt><trkpt lon="5.69851" lat="51.110539"><ele>36.6</ele><time>2022-05-15T06:17:49.000Z</time></trkpt><trkpt lon="5.698397" lat="51.110531"><ele>36.6</ele><time>2022-05-15T06:17:50.000Z</time></trkpt><trkpt lon="5.698278" lat="51.110523"><ele>36.8</ele><time>2022-05-15T06:17:51.000Z</time></trkpt><trkpt lon="5.698162" lat="51.110516"><ele>37</ele><time>2022-05-15T06:17:52.000Z</time></trkpt><trkpt lon="5.698043" lat="51.110512"><ele>37</ele><time>2022-05-15T06:17:53.000Z</time></trkpt><trkpt lon="5.697923" lat="51.110515"><ele>37</ele><time>2022-05-15T06:17:54.000Z</time></trkpt><trkpt lon="5.697801" lat="51.110516"><ele>36.8</ele><time>2022-05-15T06:17:55.000Z</time></trkpt><trkpt lon="5.697685" lat="51.110508"><ele>37</ele><time>2022-05-15T06:17:56.000Z</time></trkpt><trkpt lon="5.697567" lat="51.110501"><ele>37</ele><time>2022-05-15T06:17:57.000Z</time></trkpt><trkpt lon="5.697447" lat="51.110493"><ele>37</ele><time>2022-05-15T06:17:58.000Z</time></trkpt><trkpt lon="5.697332" lat="51.110485"><ele>37.2</ele><time>2022-05-15T06:17:59.000Z</time></trkpt><trkpt lon="5.697215" lat="51.110478"><ele>37.2</ele><time>2022-05-15T06:18:00.000Z</time></trkpt><trkpt lon="5.697102" lat="51.11047"><ele>37.2</ele><time>2022-05-15T06:18:01.000Z</time></trkpt><trkpt lon="5.696991" lat="51.110462"><ele>37.2</ele><time>2022-05-15T06:18:02.000Z</time></trkpt><trkpt lon="5.696885" lat="51.110458"><ele>37.2</ele><time>2022-05-15T06:18:03.000Z</time></trkpt><trkpt lon="5.696779" lat="51.110451"><ele>37.4</ele><time>2022-05-15T06:18:04.000Z</time></trkpt><trkpt lon="5.696673" lat="51.110443"><ele>37.2</ele><time>2022-05-15T06:18:05.000Z</time></trkpt><trkpt lon="5.696568" lat="51.110432"><ele>37.2</ele><time>2022-05-15T06:18:06.000Z</time></trkpt><trkpt lon="5.696461" lat="51.110428"><ele>37.2</ele><time>2022-05-15T06:18:07.000Z</time></trkpt><trkpt lon="5.696358" lat="51.110421"><ele>37.2</ele><time>2022-05-15T06:18:08.000Z</time></trkpt><trkpt lon="5.696253" lat="51.110413"><ele>37.2</ele><time>2022-05-15T06:18:09.000Z</time></trkpt><trkpt lon="5.696146" lat="51.110405"><ele>37.2</ele><time>2022-05-15T06:18:10.000Z</time></trkpt><trkpt lon="5.696041" lat="51.110394"><ele>37.2</ele><time>2022-05-15T06:18:11.000Z</time></trkpt><trkpt lon="5.695934" lat="51.110386"><ele>37.2</ele><time>2022-05-15T06:18:12.000Z</time></trkpt><trkpt lon="5.695826" lat="51.110371"><ele>37.2</ele><time>2022-05-15T06:18:13.000Z</time></trkpt><trkpt lon="5.695719" lat="51.110356"><ele>37.2</ele><time>2022-05-15T06:18:14.000Z</time></trkpt><trkpt lon="5.695613" lat="51.110341"><ele>37.4</ele><time>2022-05-15T06:18:15.000Z</time></trkpt><trkpt lon="5.695516" lat="51.110327"><ele>37.4</ele><time>2022-05-15T06:18:16.000Z</time></trkpt><trkpt lon="5.695404" lat="51.110306"><ele>37.2</ele><time>2022-05-15T06:18:17.000Z</time></trkpt><trkpt lon="5.6953" lat="51.110284"><ele>37.4</ele><time>2022-05-15T06:18:18.000Z</time></trkpt><trkpt lon="5.695193" lat="51.110261"><ele>37.2</ele><time>2022-05-15T06:18:19.000Z</time></trkpt><trkpt lon="5.695092" lat="51.110238"><ele>37.2</ele><time>2022-05-15T06:18:20.000Z</time></trkpt><trkpt lon="5.69499" lat="51.110211"><ele>37.2</ele><time>2022-05-15T06:18:21.000Z</time></trkpt><trkpt lon="5.694891" lat="51.110185"><ele>37.4</ele><time>2022-05-15T06:18:22.000Z</time></trkpt><trkpt lon="5.694787" lat="51.110154"><ele>37.4</ele><time>2022-05-15T06:18:23.000Z</time></trkpt><trkpt lon="5.694688" lat="51.110124"><ele>37.2</ele><time>2022-05-15T06:18:24.000Z</time></trkpt><trkpt lon="5.69459" lat="51.110097"><ele>37.2</ele><time>2022-05-15T06:18:25.000Z</time></trkpt><trkpt lon="5.694495" lat="51.110066"><ele>37.2</ele><time>2022-05-15T06:18:26.000Z</time></trkpt><trkpt lon="5.694401" lat="51.110036"><ele>37.4</ele><time>2022-05-15T06:18:27.000Z</time></trkpt><trkpt lon="5.694311" lat="51.110005"><ele>37.4</ele><time>2022-05-15T06:18:28.000Z</time></trkpt><trkpt lon="5.694221" lat="51.109975"><ele>37.4</ele><time>2022-05-15T06:18:29.000Z</time></trkpt><trkpt lon="5.694128" lat="51.109944"><ele>37.2</ele><time>2022-05-15T06:18:30.000Z</time></trkpt><trkpt lon="5.694035" lat="51.109918"><ele>37.2</ele><time>2022-05-15T06:18:31.000Z</time></trkpt><trkpt lon="5.693942" lat="51.109895"><ele>37.2</ele><time>2022-05-15T06:18:32.000Z</time></trkpt><trkpt lon="5.693845" lat="51.109883"><ele>37.2</ele><time>2022-05-15T06:18:33.000Z</time></trkpt><trkpt lon="5.693749" lat="51.109893"><ele>37.2</ele><time>2022-05-15T06:18:34.000Z</time></trkpt><trkpt lon="5.693654" lat="51.109916"><ele>37</ele><time>2022-05-15T06:18:35.000Z</time></trkpt><trkpt lon="5.693558" lat="51.109942"><ele>37</ele><time>2022-05-15T06:18:36.000Z</time></trkpt><trkpt lon="5.693455" lat="51.109966"><ele>37</ele><time>2022-05-15T06:18:37.000Z</time></trkpt><trkpt lon="5.693351" lat="51.109988"><ele>37</ele><time>2022-05-15T06:18:38.000Z</time></trkpt><trkpt lon="5.693244" lat="51.110008"><ele>37</ele><time>2022-05-15T06:18:39.000Z</time></trkpt><trkpt lon="5.693134" lat="51.110019"><ele>37.2</ele><time>2022-05-15T06:18:40.000Z</time></trkpt><trkpt lon="5.693024" lat="51.110031"><ele>37.2</ele><time>2022-05-15T06:18:41.000Z</time></trkpt><trkpt lon="5.692915" lat="51.110038"><ele>37.2</ele><time>2022-05-15T06:18:42.000Z</time></trkpt><trkpt lon="5.692803" lat="51.110046"><ele>37.4</ele><time>2022-05-15T06:18:43.000Z</time></trkpt><trkpt lon="5.69269" lat="51.110046"><ele>37.4</ele><time>2022-05-15T06:18:44.000Z</time></trkpt><trkpt lon="5.692576" lat="51.110043"><ele>37.4</ele><time>2022-05-15T06:18:45.000Z</time></trkpt><trkpt lon="5.692466" lat="51.110039"><ele>37.6</ele><time>2022-05-15T06:18:46.000Z</time></trkpt><trkpt lon="5.692355" lat="51.110028"><ele>37.6</ele><time>2022-05-15T06:18:47.000Z</time></trkpt><trkpt lon="5.692247" lat="51.110016"><ele>37.6</ele><time>2022-05-15T06:18:48.000Z</time></trkpt><trkpt lon="5.692142" lat="51.110001"><ele>37.6</ele><time>2022-05-15T06:18:49.000Z</time></trkpt><trkpt lon="5.692035" lat="51.109982"><ele>37.6</ele><time>2022-05-15T06:18:50.000Z</time></trkpt><trkpt lon="5.691928" lat="51.109967"><ele>37.6</ele><time>2022-05-15T06:18:51.000Z</time></trkpt><trkpt lon="5.691818" lat="51.109948"><ele>37.6</ele><time>2022-05-15T06:18:52.000Z</time></trkpt><trkpt lon="5.691712" lat="51.109932"><ele>37.8</ele><time>2022-05-15T06:18:53.000Z</time></trkpt><trkpt lon="5.691603" lat="51.109913"><ele>37.6</ele><time>2022-05-15T06:18:54.000Z</time></trkpt><trkpt lon="5.691494" lat="51.109894"><ele>37.6</ele><time>2022-05-15T06:18:55.000Z</time></trkpt><trkpt lon="5.691387" lat="51.109875"><ele>37.6</ele><time>2022-05-15T06:18:56.000Z</time></trkpt><trkpt lon="5.691282" lat="51.10986"><ele>37.8</ele><time>2022-05-15T06:18:57.000Z</time></trkpt><trkpt lon="5.691175" lat="51.109841"><ele>37.8</ele><time>2022-05-15T06:18:58.000Z</time></trkpt><trkpt lon="5.69107" lat="51.109822"><ele>37.8</ele><time>2022-05-15T06:18:59.000Z</time></trkpt><trkpt lon="5.690967" lat="51.109803"><ele>38</ele><time>2022-05-15T06:19:00.000Z</time></trkpt><trkpt lon="5.690867" lat="51.109784"><ele>38</ele><time>2022-05-15T06:19:01.000Z</time></trkpt><trkpt lon="5.690765" lat="51.109765"><ele>38</ele><time>2022-05-15T06:19:02.000Z</time></trkpt><trkpt lon="5.690668" lat="51.109746"><ele>38</ele><time>2022-05-15T06:19:03.000Z</time></trkpt><trkpt lon="5.690568" lat="51.109719"><ele>38.2</ele><time>2022-05-15T06:19:04.000Z</time></trkpt><trkpt lon="5.690468" lat="51.109693"><ele>38</ele><time>2022-05-15T06:19:05.000Z</time></trkpt><trkpt lon="5.690366" lat="51.109669"><ele>38</ele><time>2022-05-15T06:19:06.000Z</time></trkpt><trkpt lon="5.690267" lat="51.109643"><ele>38</ele><time>2022-05-15T06:19:07.000Z</time></trkpt><trkpt lon="5.690162" lat="51.109624"><ele>37.8</ele><time>2022-05-15T06:19:08.000Z</time></trkpt><trkpt lon="5.690055" lat="51.109601"><ele>37.8</ele><time>2022-05-15T06:19:09.000Z</time></trkpt><trkpt lon="5.689949" lat="51.109593"><ele>37.8</ele><time>2022-05-15T06:19:10.000Z</time></trkpt><trkpt lon="5.689857" lat="51.109589"><ele>38</ele><time>2022-05-15T06:19:11.000Z</time></trkpt><trkpt lon="5.68974" lat="51.109596"><ele>38</ele><time>2022-05-15T06:19:12.000Z</time></trkpt><trkpt lon="5.689634" lat="51.1096"><ele>38</ele><time>2022-05-15T06:19:13.000Z</time></trkpt><trkpt lon="5.689519" lat="51.109611"><ele>37.8</ele><time>2022-05-15T06:19:14.000Z</time></trkpt><trkpt lon="5.689409" lat="51.109626"><ele>37.8</ele><time>2022-05-15T06:19:15.000Z</time></trkpt><trkpt lon="5.689316" lat="51.109633"><ele>37.8</ele><time>2022-05-15T06:19:16.000Z</time></trkpt><trkpt lon="5.68919" lat="51.109642"><ele>38</ele><time>2022-05-15T06:19:17.000Z</time></trkpt><trkpt lon="5.689079" lat="51.109653"><ele>38</ele><time>2022-05-15T06:19:18.000Z</time></trkpt><trkpt lon="5.688968" lat="51.109661"><ele>38</ele><time>2022-05-15T06:19:19.000Z</time></trkpt><trkpt lon="5.688859" lat="51.109672"><ele>38.2</ele><time>2022-05-15T06:19:20.000Z</time></trkpt><trkpt lon="5.688753" lat="51.10968"><ele>38.2</ele><time>2022-05-15T06:19:21.000Z</time></trkpt><trkpt lon="5.688643" lat="51.109691"><ele>38.4</ele><time>2022-05-15T06:19:22.000Z</time></trkpt><trkpt lon="5.688534" lat="51.109699"><ele>38.4</ele><time>2022-05-15T06:19:23.000Z</time></trkpt><trkpt lon="5.688423" lat="51.109707"><ele>38.4</ele><time>2022-05-15T06:19:24.000Z</time></trkpt><trkpt lon="5.688311" lat="51.109718"><ele>38.4</ele><time>2022-05-15T06:19:25.000Z</time></trkpt><trkpt lon="5.688202" lat="51.109729"><ele>38.4</ele><time>2022-05-15T06:19:26.000Z</time></trkpt><trkpt lon="5.688092" lat="51.109737"><ele>38.4</ele><time>2022-05-15T06:19:27.000Z</time></trkpt><trkpt lon="5.687977" lat="51.109745"><ele>38.4</ele><time>2022-05-15T06:19:28.000Z</time></trkpt><trkpt lon="5.687867" lat="51.109756"><ele>38.6</ele><time>2022-05-15T06:19:29.000Z</time></trkpt><trkpt lon="5.687755" lat="51.109764"><ele>38.4</ele><time>2022-05-15T06:19:30.000Z</time></trkpt><trkpt lon="5.687645" lat="51.109771"><ele>38.4</ele><time>2022-05-15T06:19:31.000Z</time></trkpt><trkpt lon="5.687534" lat="51.109783"><ele>38.4</ele><time>2022-05-15T06:19:32.000Z</time></trkpt><trkpt lon="5.687423" lat="51.109794"><ele>38.4</ele><time>2022-05-15T06:19:33.000Z</time></trkpt><trkpt lon="5.687317" lat="51.109802"><ele>38.4</ele><time>2022-05-15T06:19:34.000Z</time></trkpt><trkpt lon="5.687205" lat="51.109809"><ele>38.4</ele><time>2022-05-15T06:19:35.000Z</time></trkpt><trkpt lon="5.687093" lat="51.109814"><ele>38.6</ele><time>2022-05-15T06:19:36.000Z</time></trkpt><trkpt lon="5.686983" lat="51.109817"><ele>38.6</ele><time>2022-05-15T06:19:37.000Z</time></trkpt><trkpt lon="5.686885" lat="51.109824"><ele>38.6</ele><time>2022-05-15T06:19:38.000Z</time></trkpt><trkpt lon="5.686765" lat="51.109825"><ele>38.6</ele><time>2022-05-15T06:19:39.000Z</time></trkpt><trkpt lon="5.686666" lat="51.109828"><ele>38.6</ele><time>2022-05-15T06:19:40.000Z</time></trkpt><trkpt lon="5.686544" lat="51.109836"><ele>38.6</ele><time>2022-05-15T06:19:41.000Z</time></trkpt><trkpt lon="5.686438" lat="51.109837"><ele>38.6</ele><time>2022-05-15T06:19:42.000Z</time></trkpt><trkpt lon="5.686331" lat="51.10984"><ele>38.6</ele><time>2022-05-15T06:19:43.000Z</time></trkpt><trkpt lon="5.686218" lat="51.109844"><ele>38.8</ele><time>2022-05-15T06:19:44.000Z</time></trkpt><trkpt lon="5.686108" lat="51.109848"><ele>38.8</ele><time>2022-05-15T06:19:45.000Z</time></trkpt><trkpt lon="5.686" lat="51.109852"><ele>39</ele><time>2022-05-15T06:19:46.000Z</time></trkpt><trkpt lon="5.685892" lat="51.109852"><ele>39</ele><time>2022-05-15T06:19:47.000Z</time></trkpt><trkpt lon="5.685781" lat="51.109855"><ele>39</ele><time>2022-05-15T06:19:48.000Z</time></trkpt><trkpt lon="5.685672" lat="51.109856"><ele>39.2</ele><time>2022-05-15T06:19:49.000Z</time></trkpt><trkpt lon="5.685563" lat="51.109859"><ele>39.2</ele><time>2022-05-15T06:19:50.000Z</time></trkpt><trkpt lon="5.685454" lat="51.109863"><ele>39</ele><time>2022-05-15T06:19:51.000Z</time></trkpt><trkpt lon="5.685345" lat="51.109863"><ele>39</ele><time>2022-05-15T06:19:52.000Z</time></trkpt><trkpt lon="5.685237" lat="51.109867"><ele>39.2</ele><time>2022-05-15T06:19:53.000Z</time></trkpt><trkpt lon="5.685131" lat="51.109867"><ele>39.2</ele><time>2022-05-15T06:19:54.000Z</time></trkpt><trkpt lon="5.685019" lat="51.109871"><ele>39.4</ele><time>2022-05-15T06:19:55.000Z</time></trkpt><trkpt lon="5.684908" lat="51.109871"><ele>39.4</ele><time>2022-05-15T06:19:56.000Z</time></trkpt><trkpt lon="5.684797" lat="51.109867"><ele>39.4</ele><time>2022-05-15T06:19:57.000Z</time></trkpt><trkpt lon="5.684693" lat="51.10986"><ele>39.6</ele><time>2022-05-15T06:19:58.000Z</time></trkpt><trkpt lon="5.684583" lat="51.109848"><ele>39.6</ele><time>2022-05-15T06:19:59.000Z</time></trkpt><trkpt lon="5.684474" lat="51.10983"><ele>39.6</ele><time>2022-05-15T06:20:00.000Z</time></trkpt><trkpt lon="5.684368" lat="51.109811"><ele>39.6</ele><time>2022-05-15T06:20:01.000Z</time></trkpt><trkpt lon="5.684262" lat="51.109788"><ele>39.6</ele><time>2022-05-15T06:20:02.000Z</time></trkpt><trkpt lon="5.684159" lat="51.109765"><ele>39.6</ele><time>2022-05-15T06:20:03.000Z</time></trkpt><trkpt lon="5.684058" lat="51.109742"><ele>39.6</ele><time>2022-05-15T06:20:04.000Z</time></trkpt><trkpt lon="5.683957" lat="51.109712"><ele>39.6</ele><time>2022-05-15T06:20:05.000Z</time></trkpt><trkpt lon="5.683858" lat="51.109681"><ele>39.6</ele><time>2022-05-15T06:20:06.000Z</time></trkpt><trkpt lon="5.683761" lat="51.109651"><ele>39.8</ele><time>2022-05-15T06:20:07.000Z</time></trkpt><trkpt lon="5.683666" lat="51.109617"><ele>39.8</ele><time>2022-05-15T06:20:08.000Z</time></trkpt><trkpt lon="5.68357" lat="51.109582"><ele>39.8</ele><time>2022-05-15T06:20:09.000Z</time></trkpt><trkpt lon="5.683478" lat="51.109548"><ele>40</ele><time>2022-05-15T06:20:10.000Z</time></trkpt><trkpt lon="5.683389" lat="51.10951"><ele>40.2</ele><time>2022-05-15T06:20:11.000Z</time></trkpt><trkpt lon="5.6833" lat="51.109472"><ele>40.2</ele><time>2022-05-15T06:20:12.000Z</time></trkpt><trkpt lon="5.683216" lat="51.10943"><ele>40.2</ele><time>2022-05-15T06:20:13.000Z</time></trkpt><trkpt lon="5.683136" lat="51.109388"><ele>40.4</ele><time>2022-05-15T06:20:14.000Z</time></trkpt><trkpt lon="5.683063" lat="51.10935"><ele>40.6</ele><time>2022-05-15T06:20:15.000Z</time></trkpt><trkpt lon="5.682999" lat="51.109306"><ele>40.8</ele><time>2022-05-15T06:20:16.000Z</time></trkpt><trkpt lon="5.682931" lat="51.109254"><ele>41</ele><time>2022-05-15T06:20:17.000Z</time></trkpt><trkpt lon="5.682871" lat="51.109205"><ele>41.4</ele><time>2022-05-15T06:20:18.000Z</time></trkpt><trkpt lon="5.682814" lat="51.109152"><ele>41.6</ele><time>2022-05-15T06:20:19.000Z</time></trkpt><trkpt lon="5.68276" lat="51.109102"><ele>41.8</ele><time>2022-05-15T06:20:20.000Z</time></trkpt><trkpt lon="5.682706" lat="51.109052"><ele>42.2</ele><time>2022-05-15T06:20:21.000Z</time></trkpt><trkpt lon="5.682655" lat="51.109003"><ele>42.4</ele><time>2022-05-15T06:20:22.000Z</time></trkpt><trkpt lon="5.682607" lat="51.108958"><ele>42.6</ele><time>2022-05-15T06:20:23.000Z</time></trkpt><trkpt lon="5.682562" lat="51.108916"><ele>43</ele><time>2022-05-15T06:20:24.000Z</time></trkpt><trkpt lon="5.682516" lat="51.108877"><ele>43.2</ele><time>2022-05-15T06:20:25.000Z</time></trkpt><trkpt lon="5.68246" lat="51.108853"><ele>43.6</ele><time>2022-05-15T06:20:26.000Z</time></trkpt><trkpt lon="5.682402" lat="51.108838"><ele>43.8</ele><time>2022-05-15T06:20:27.000Z</time></trkpt><trkpt lon="5.682341" lat="51.108837"><ele>44</ele><time>2022-05-15T06:20:28.000Z</time></trkpt><trkpt lon="5.682281" lat="51.108855"><ele>44.2</ele><time>2022-05-15T06:20:29.000Z</time></trkpt><trkpt lon="5.68222" lat="51.108886"><ele>44.2</ele><time>2022-05-15T06:20:30.000Z</time></trkpt><trkpt lon="5.682159" lat="51.108912"><ele>44.2</ele><time>2022-05-15T06:20:31.000Z</time></trkpt><trkpt lon="5.682093" lat="51.10895"><ele>44.2</ele><time>2022-05-15T06:20:32.000Z</time></trkpt><trkpt lon="5.682031" lat="51.108986"><ele>44</ele><time>2022-05-15T06:20:33.000Z</time></trkpt><trkpt lon="5.681946" lat="51.10903"><ele>44</ele><time>2022-05-15T06:20:34.000Z</time></trkpt><trkpt lon="5.681873" lat="51.109071"><ele>44</ele><time>2022-05-15T06:20:35.000Z</time></trkpt><trkpt lon="5.681796" lat="51.109118"><ele>44</ele><time>2022-05-15T06:20:36.000Z</time></trkpt><trkpt lon="5.681721" lat="51.109164"><ele>44</ele><time>2022-05-15T06:20:37.000Z</time></trkpt><trkpt lon="5.681646" lat="51.109202"><ele>44</ele><time>2022-05-15T06:20:38.000Z</time></trkpt><trkpt lon="5.68157" lat="51.109244"><ele>44</ele><time>2022-05-15T06:20:39.000Z</time></trkpt><trkpt lon="5.681492" lat="51.109285"><ele>44</ele><time>2022-05-15T06:20:40.000Z</time></trkpt><trkpt lon="5.681414" lat="51.109332"><ele>43.8</ele><time>2022-05-15T06:20:41.000Z</time></trkpt><trkpt lon="5.681336" lat="51.109373"><ele>43.8</ele><time>2022-05-15T06:20:42.000Z</time></trkpt><trkpt lon="5.681255" lat="51.109423"><ele>43.8</ele><time>2022-05-15T06:20:43.000Z</time></trkpt><trkpt lon="5.681182" lat="51.109467"><ele>43.8</ele><time>2022-05-15T06:20:44.000Z</time></trkpt><trkpt lon="5.681102" lat="51.109518"><ele>43.6</ele><time>2022-05-15T06:20:45.000Z</time></trkpt><trkpt lon="5.681029" lat="51.109571"><ele>43.6</ele><time>2022-05-15T06:20:46.000Z</time></trkpt><trkpt lon="5.680956" lat="51.109621"><ele>43.6</ele><time>2022-05-15T06:20:47.000Z</time></trkpt><trkpt lon="5.680881" lat="51.10967"><ele>43.6</ele><time>2022-05-15T06:20:48.000Z</time></trkpt><trkpt lon="5.680806" lat="51.109716"><ele>43.6</ele><time>2022-05-15T06:20:49.000Z</time></trkpt><trkpt lon="5.680728" lat="51.109766"><ele>43.6</ele><time>2022-05-15T06:20:50.000Z</time></trkpt><trkpt lon="5.680649" lat="51.109809"><ele>43.6</ele><time>2022-05-15T06:20:51.000Z</time></trkpt><trkpt lon="5.680572" lat="51.109854"><ele>43.6</ele><time>2022-05-15T06:20:52.000Z</time></trkpt><trkpt lon="5.680496" lat="51.1099"><ele>43.8</ele><time>2022-05-15T06:20:53.000Z</time></trkpt><trkpt lon="5.680422" lat="51.109942"><ele>44</ele><time>2022-05-15T06:20:54.000Z</time></trkpt><trkpt lon="5.680344" lat="51.109992"><ele>44</ele><time>2022-05-15T06:20:55.000Z</time></trkpt><trkpt lon="5.680268" lat="51.110033"><ele>44.2</ele><time>2022-05-15T06:20:56.000Z</time></trkpt><trkpt lon="5.68019" lat="51.110076"><ele>44.4</ele><time>2022-05-15T06:20:57.000Z</time></trkpt><trkpt lon="5.680119" lat="51.110121"><ele>44.6</ele><time>2022-05-15T06:20:58.000Z</time></trkpt><trkpt lon="5.68005" lat="51.110162"><ele>44.8</ele><time>2022-05-15T06:20:59.000Z</time></trkpt><trkpt lon="5.679987" lat="51.110199"><ele>45</ele><time>2022-05-15T06:21:00.000Z</time></trkpt><trkpt lon="5.679909" lat="51.110243"><ele>45.2</ele><time>2022-05-15T06:21:01.000Z</time></trkpt><trkpt lon="5.679837" lat="51.110282"><ele>45.4</ele><time>2022-05-15T06:21:02.000Z</time></trkpt><trkpt lon="5.679764" lat="51.110323"><ele>45.4</ele><time>2022-05-15T06:21:03.000Z</time></trkpt><trkpt lon="5.679689" lat="51.110365"><ele>45.6</ele><time>2022-05-15T06:21:04.000Z</time></trkpt><trkpt lon="5.679617" lat="51.110403"><ele>45.8</ele><time>2022-05-15T06:21:05.000Z</time></trkpt><trkpt lon="5.679547" lat="51.110438"><ele>46</ele><time>2022-05-15T06:21:06.000Z</time></trkpt><trkpt lon="5.679472" lat="51.110484"><ele>46.2</ele><time>2022-05-15T06:21:07.000Z</time></trkpt><trkpt lon="5.679395" lat="51.11053"><ele>46.4</ele><time>2022-05-15T06:21:08.000Z</time></trkpt><trkpt lon="5.679319" lat="51.110574"><ele>46.6</ele><time>2022-05-15T06:21:09.000Z</time></trkpt><trkpt lon="5.679238" lat="51.110617"><ele>46.8</ele><time>2022-05-15T06:21:10.000Z</time></trkpt><trkpt lon="5.679163" lat="51.110658"><ele>47</ele><time>2022-05-15T06:21:11.000Z</time></trkpt><trkpt lon="5.679087" lat="51.110701"><ele>47.2</ele><time>2022-05-15T06:21:12.000Z</time></trkpt><trkpt lon="5.679017" lat="51.11074"><ele>47.6</ele><time>2022-05-15T06:21:13.000Z</time></trkpt><trkpt lon="5.678948" lat="51.110778"><ele>48</ele><time>2022-05-15T06:21:14.000Z</time></trkpt><trkpt lon="5.678882" lat="51.110816"><ele>48.4</ele><time>2022-05-15T06:21:15.000Z</time></trkpt><trkpt lon="5.678833" lat="51.110846"><ele>48.8</ele><time>2022-05-15T06:21:16.000Z</time></trkpt><trkpt lon="5.67876" lat="51.110885"><ele>49.2</ele><time>2022-05-15T06:21:17.000Z</time></trkpt><trkpt lon="5.678703" lat="51.110915"><ele>49.8</ele><time>2022-05-15T06:21:18.000Z</time></trkpt><trkpt lon="5.678639" lat="51.110934"><ele>50.2</ele><time>2022-05-15T06:21:19.000Z</time></trkpt><trkpt lon="5.678567" lat="51.110943"><ele>50.6</ele><time>2022-05-15T06:21:20.000Z</time></trkpt><trkpt lon="5.6785" lat="51.110924"><ele>51</ele><time>2022-05-15T06:21:21.000Z</time></trkpt><trkpt lon="5.678439" lat="51.110894"><ele>51.4</ele><time>2022-05-15T06:21:22.000Z</time></trkpt><trkpt lon="5.67838" lat="51.110864"><ele>51.6</ele><time>2022-05-15T06:21:23.000Z</time></trkpt><trkpt lon="5.678322" lat="51.110826"><ele>52</ele><time>2022-05-15T06:21:24.000Z</time></trkpt><trkpt lon="5.67827" lat="51.110789"><ele>52</ele><time>2022-05-15T06:21:25.000Z</time></trkpt><trkpt lon="5.678211" lat="51.110746"><ele>52.2</ele><time>2022-05-15T06:21:26.000Z</time></trkpt><trkpt lon="5.678152" lat="51.110708"><ele>52.4</ele><time>2022-05-15T06:21:27.000Z</time></trkpt><trkpt lon="5.678094" lat="51.110669"><ele>52.6</ele><time>2022-05-15T06:21:28.000Z</time></trkpt><trkpt lon="5.678031" lat="51.110624"><ele>52.6</ele><time>2022-05-15T06:21:29.000Z</time></trkpt><trkpt lon="5.677972" lat="51.110582"><ele>52.6</ele><time>2022-05-15T06:21:30.000Z</time></trkpt><trkpt lon="5.677915" lat="51.110541"><ele>52.6</ele><time>2022-05-15T06:21:31.000Z</time></trkpt><trkpt lon="5.677855" lat="51.110499"><ele>52.2</ele><time>2022-05-15T06:21:32.000Z</time></trkpt><trkpt lon="5.677802" lat="51.110453"><ele>52.2</ele><time>2022-05-15T06:21:33.000Z</time></trkpt><trkpt lon="5.677765" lat="51.110406"><ele>52</ele><time>2022-05-15T06:21:34.000Z</time></trkpt><trkpt lon="5.67775" lat="51.110353"><ele>51.8</ele><time>2022-05-15T06:21:35.000Z</time></trkpt><trkpt lon="5.677763" lat="51.110304"><ele>51.6</ele><time>2022-05-15T06:21:36.000Z</time></trkpt><trkpt lon="5.677797" lat="51.110258"><ele>51.4</ele><time>2022-05-15T06:21:37.000Z</time></trkpt><trkpt lon="5.677852" lat="51.110213"><ele>51.2</ele><time>2022-05-15T06:21:38.000Z</time></trkpt><trkpt lon="5.677925" lat="51.110171"><ele>51</ele><time>2022-05-15T06:21:39.000Z</time></trkpt><trkpt lon="5.678008" lat="51.110132"><ele>50.6</ele><time>2022-05-15T06:21:40.000Z</time></trkpt><trkpt lon="5.678088" lat="51.110094"><ele>50.4</ele><time>2022-05-15T06:21:41.000Z</time></trkpt><trkpt lon="5.678168" lat="51.110051"><ele>50</ele><time>2022-05-15T06:21:42.000Z</time></trkpt><trkpt lon="5.678249" lat="51.11001"><ele>49.6</ele><time>2022-05-15T06:21:43.000Z</time></trkpt><trkpt lon="5.678338" lat="51.109972"><ele>49.4</ele><time>2022-05-15T06:21:44.000Z</time></trkpt><trkpt lon="5.678425" lat="51.109928"><ele>49</ele><time>2022-05-15T06:21:45.000Z</time></trkpt><trkpt lon="5.678517" lat="51.10988"><ele>48.6</ele><time>2022-05-15T06:21:46.000Z</time></trkpt><trkpt lon="5.67861" lat="51.109838"><ele>48.2</ele><time>2022-05-15T06:21:47.000Z</time></trkpt><trkpt lon="5.678702" lat="51.109793"><ele>47.8</ele><time>2022-05-15T06:21:48.000Z</time></trkpt><trkpt lon="5.678793" lat="51.109747"><ele>47.6</ele><time>2022-05-15T06:21:49.000Z</time></trkpt><trkpt lon="5.678884" lat="51.109704"><ele>47.2</ele><time>2022-05-15T06:21:50.000Z</time></trkpt><trkpt lon="5.678974" lat="51.109659"><ele>46.8</ele><time>2022-05-15T06:21:51.000Z</time></trkpt><trkpt lon="5.679069" lat="51.109613"><ele>46.8</ele><time>2022-05-15T06:21:52.000Z</time></trkpt><trkpt lon="5.679162" lat="51.109567"><ele>46.6</ele><time>2022-05-15T06:21:53.000Z</time></trkpt><trkpt lon="5.679239" lat="51.109523"><ele>46.2</ele><time>2022-05-15T06:21:54.000Z</time></trkpt><trkpt lon="5.679329" lat="51.109483"><ele>46</ele><time>2022-05-15T06:21:55.000Z</time></trkpt><trkpt lon="5.679416" lat="51.109443"><ele>45.8</ele><time>2022-05-15T06:21:56.000Z</time></trkpt><trkpt lon="5.679511" lat="51.109403"><ele>45.6</ele><time>2022-05-15T06:21:57.000Z</time></trkpt><trkpt lon="5.679594" lat="51.109366"><ele>45.6</ele><time>2022-05-15T06:21:58.000Z</time></trkpt><trkpt lon="5.679679" lat="51.109334"><ele>45.6</ele><time>2022-05-15T06:21:59.000Z</time></trkpt><trkpt lon="5.679754" lat="51.109311"><ele>45.4</ele><time>2022-05-15T06:22:00.000Z</time></trkpt><trkpt lon="5.679831" lat="51.109295"><ele>45.4</ele><time>2022-05-15T06:22:01.000Z</time></trkpt><trkpt lon="5.679902" lat="51.109288"><ele>45.2</ele><time>2022-05-15T06:22:02.000Z</time></trkpt><trkpt lon="5.679974" lat="51.109284"><ele>45.2</ele><time>2022-05-15T06:22:03.000Z</time></trkpt><trkpt lon="5.680048" lat="51.109265"><ele>45.2</ele><time>2022-05-15T06:22:04.000Z</time></trkpt><trkpt lon="5.680115" lat="51.109227"><ele>45</ele><time>2022-05-15T06:22:05.000Z</time></trkpt><trkpt lon="5.68018" lat="51.109185"><ele>45</ele><time>2022-05-15T06:22:06.000Z</time></trkpt><trkpt lon="5.68025" lat="51.109141"><ele>44.8</ele><time>2022-05-15T06:22:07.000Z</time></trkpt><trkpt lon="5.680327" lat="51.109098"><ele>44.8</ele><time>2022-05-15T06:22:08.000Z</time></trkpt><trkpt lon="5.680407" lat="51.109056"><ele>44.6</ele><time>2022-05-15T06:22:09.000Z</time></trkpt><trkpt lon="5.680483" lat="51.109014"><ele>44.6</ele><time>2022-05-15T06:22:10.000Z</time></trkpt><trkpt lon="5.680556" lat="51.108974"><ele>44.6</ele><time>2022-05-15T06:22:11.000Z</time></trkpt><trkpt lon="5.680636" lat="51.10893"><ele>44.8</ele><time>2022-05-15T06:22:12.000Z</time></trkpt><trkpt lon="5.680712" lat="51.108888"><ele>44.8</ele><time>2022-05-15T06:22:13.000Z</time></trkpt><trkpt lon="5.680789" lat="51.10885"><ele>44.8</ele><time>2022-05-15T06:22:14.000Z</time></trkpt><trkpt lon="5.680866" lat="51.108809"><ele>44.8</ele><time>2022-05-15T06:22:15.000Z</time></trkpt><trkpt lon="5.680934" lat="51.108772"><ele>44.6</ele><time>2022-05-15T06:22:16.000Z</time></trkpt><trkpt lon="5.681022" lat="51.108725"><ele>44.6</ele><time>2022-05-15T06:22:17.000Z</time></trkpt><trkpt lon="5.681093" lat="51.108683"><ele>44.6</ele><time>2022-05-15T06:22:18.000Z</time></trkpt><trkpt lon="5.681171" lat="51.108642"><ele>44.8</ele><time>2022-05-15T06:22:19.000Z</time></trkpt><trkpt lon="5.681261" lat="51.1086"><ele>44.8</ele><time>2022-05-15T06:22:20.000Z</time></trkpt><trkpt lon="5.681344" lat="51.108553"><ele>44.6</ele><time>2022-05-15T06:22:21.000Z</time></trkpt><trkpt lon="5.681421" lat="51.108511"><ele>44.6</ele><time>2022-05-15T06:22:22.000Z</time></trkpt><trkpt lon="5.681499" lat="51.108469"><ele>44.6</ele><time>2022-05-15T06:22:23.000Z</time></trkpt><trkpt lon="5.681576" lat="51.108427"><ele>44.6</ele><time>2022-05-15T06:22:24.000Z</time></trkpt><trkpt lon="5.681653" lat="51.108385"><ele>44.6</ele><time>2022-05-15T06:22:25.000Z</time></trkpt><trkpt lon="5.681729" lat="51.108347"><ele>44.6</ele><time>2022-05-15T06:22:26.000Z</time></trkpt><trkpt lon="5.681807" lat="51.108305"><ele>44.6</ele><time>2022-05-15T06:22:27.000Z</time></trkpt><trkpt lon="5.681884" lat="51.108263"><ele>44.6</ele><time>2022-05-15T06:22:28.000Z</time></trkpt><trkpt lon="5.681961" lat="51.108221"><ele>44.6</ele><time>2022-05-15T06:22:29.000Z</time></trkpt><trkpt lon="5.682035" lat="51.10818"><ele>44.6</ele><time>2022-05-15T06:22:30.000Z</time></trkpt><trkpt lon="5.682116" lat="51.10814"><ele>44.6</ele><time>2022-05-15T06:22:31.000Z</time></trkpt><trkpt lon="5.682189" lat="51.108099"><ele>44.6</ele><time>2022-05-15T06:22:32.000Z</time></trkpt><trkpt lon="5.682261" lat="51.108056"><ele>44.6</ele><time>2022-05-15T06:22:33.000Z</time></trkpt><trkpt lon="5.682328" lat="51.108012"><ele>44.4</ele><time>2022-05-15T06:22:34.000Z</time></trkpt><trkpt lon="5.682404" lat="51.107966"><ele>44.4</ele><time>2022-05-15T06:22:35.000Z</time></trkpt><trkpt lon="5.682477" lat="51.107912"><ele>44.4</ele><time>2022-05-15T06:22:36.000Z</time></trkpt><trkpt lon="5.682553" lat="51.107866"><ele>44.4</ele><time>2022-05-15T06:22:37.000Z</time></trkpt><trkpt lon="5.682622" lat="51.107818"><ele>44.4</ele><time>2022-05-15T06:22:38.000Z</time></trkpt><trkpt lon="5.682694" lat="51.107772"><ele>44.6</ele><time>2022-05-15T06:22:39.000Z</time></trkpt><trkpt lon="5.682765" lat="51.107722"><ele>44.8</ele><time>2022-05-15T06:22:40.000Z</time></trkpt><trkpt lon="5.682837" lat="51.107672"><ele>45</ele><time>2022-05-15T06:22:41.000Z</time></trkpt><trkpt lon="5.682908" lat="51.107622"><ele>45</ele><time>2022-05-15T06:22:42.000Z</time></trkpt><trkpt lon="5.682979" lat="51.107569"><ele>45.2</ele><time>2022-05-15T06:22:43.000Z</time></trkpt><trkpt lon="5.683046" lat="51.107517"><ele>45.2</ele><time>2022-05-15T06:22:44.000Z</time></trkpt><trkpt lon="5.683115" lat="51.107459"><ele>45.2</ele><time>2022-05-15T06:22:45.000Z</time></trkpt><trkpt lon="5.68318" lat="51.107404"><ele>45.2</ele><time>2022-05-15T06:22:46.000Z</time></trkpt><trkpt lon="5.683246" lat="51.107345"><ele>45.4</ele><time>2022-05-15T06:22:47.000Z</time></trkpt><trkpt lon="5.683308" lat="51.107288"><ele>45.4</ele><time>2022-05-15T06:22:48.000Z</time></trkpt><trkpt lon="5.68337" lat="51.107225"><ele>45.4</ele><time>2022-05-15T06:22:49.000Z</time></trkpt><trkpt lon="5.683428" lat="51.10717"><ele>45.4</ele><time>2022-05-15T06:22:50.000Z</time></trkpt><trkpt lon="5.68349" lat="51.107111"><ele>45.4</ele><time>2022-05-15T06:22:51.000Z</time></trkpt><trkpt lon="5.683546" lat="51.10705"><ele>45.4</ele><time>2022-05-15T06:22:52.000Z</time></trkpt><trkpt lon="5.683599" lat="51.10699"><ele>45.4</ele><time>2022-05-15T06:22:53.000Z</time></trkpt><trkpt lon="5.683651" lat="51.106929"><ele>45.4</ele><time>2022-05-15T06:22:54.000Z</time></trkpt><trkpt lon="5.6837" lat="51.106869"><ele>45.4</ele><time>2022-05-15T06:22:55.000Z</time></trkpt><trkpt lon="5.683751" lat="51.106807"><ele>45.4</ele><time>2022-05-15T06:22:56.000Z</time></trkpt><trkpt lon="5.683802" lat="51.106745"><ele>45.4</ele><time>2022-05-15T06:22:57.000Z</time></trkpt><trkpt lon="5.683846" lat="51.106685"><ele>45.4</ele><time>2022-05-15T06:22:58.000Z</time></trkpt><trkpt lon="5.683889" lat="51.106621"><ele>45.4</ele><time>2022-05-15T06:22:59.000Z</time></trkpt><trkpt lon="5.683931" lat="51.10656"><ele>45.4</ele><time>2022-05-15T06:23:00.000Z</time></trkpt><trkpt lon="5.683969" lat="51.106496"><ele>45.4</ele><time>2022-05-15T06:23:01.000Z</time></trkpt><trkpt lon="5.684007" lat="51.106429"><ele>45.4</ele><time>2022-05-15T06:23:02.000Z</time></trkpt><trkpt lon="5.684044" lat="51.10636"><ele>45.2</ele><time>2022-05-15T06:23:03.000Z</time></trkpt><trkpt lon="5.68408" lat="51.106295"><ele>45.2</ele><time>2022-05-15T06:23:04.000Z</time></trkpt><trkpt lon="5.684112" lat="51.10623"><ele>45.2</ele><time>2022-05-15T06:23:05.000Z</time></trkpt><trkpt lon="5.684142" lat="51.106162"><ele>45.2</ele><time>2022-05-15T06:23:06.000Z</time></trkpt><trkpt lon="5.68417" lat="51.106098"><ele>45.2</ele><time>2022-05-15T06:23:07.000Z</time></trkpt><trkpt lon="5.684199" lat="51.106032"><ele>45.2</ele><time>2022-05-15T06:23:08.000Z</time></trkpt><trkpt lon="5.684227" lat="51.105969"><ele>45.2</ele><time>2022-05-15T06:23:09.000Z</time></trkpt><trkpt lon="5.684256" lat="51.105905"><ele>45.4</ele><time>2022-05-15T06:23:10.000Z</time></trkpt><trkpt lon="5.684287" lat="51.105833"><ele>45.4</ele><time>2022-05-15T06:23:11.000Z</time></trkpt><trkpt lon="5.684315" lat="51.10577"><ele>45.4</ele><time>2022-05-15T06:23:12.000Z</time></trkpt><trkpt lon="5.684341" lat="51.105708"><ele>45.2</ele><time>2022-05-15T06:23:13.000Z</time></trkpt><trkpt lon="5.684368" lat="51.105644"><ele>45.4</ele><time>2022-05-15T06:23:14.000Z</time></trkpt><trkpt lon="5.684402" lat="51.105568"><ele>45.4</ele><time>2022-05-15T06:23:15.000Z</time></trkpt><trkpt lon="5.68443" lat="51.105502"><ele>45.4</ele><time>2022-05-15T06:23:16.000Z</time></trkpt><trkpt lon="5.684458" lat="51.105438"><ele>45.4</ele><time>2022-05-15T06:23:17.000Z</time></trkpt><trkpt lon="5.684487" lat="51.105372"><ele>45.4</ele><time>2022-05-15T06:23:18.000Z</time></trkpt><trkpt lon="5.684515" lat="51.105309"><ele>45.4</ele><time>2022-05-15T06:23:19.000Z</time></trkpt><trkpt lon="5.684542" lat="51.105243"><ele>45.6</ele><time>2022-05-15T06:23:20.000Z</time></trkpt><trkpt lon="5.68457" lat="51.105183"><ele>45.6</ele><time>2022-05-15T06:23:21.000Z</time></trkpt><trkpt lon="5.684597" lat="51.10512"><ele>45.6</ele><time>2022-05-15T06:23:22.000Z</time></trkpt><trkpt lon="5.684627" lat="51.105053"><ele>45.6</ele><time>2022-05-15T06:23:23.000Z</time></trkpt><trkpt lon="5.684654" lat="51.104991"><ele>45.6</ele><time>2022-05-15T06:23:24.000Z</time></trkpt><trkpt lon="5.684681" lat="51.104925"><ele>45.8</ele><time>2022-05-15T06:23:25.000Z</time></trkpt><trkpt lon="5.684709" lat="51.104861"><ele>45.8</ele><time>2022-05-15T06:23:26.000Z</time></trkpt><trkpt lon="5.684736" lat="51.104798"><ele>46</ele><time>2022-05-15T06:23:27.000Z</time></trkpt><trkpt lon="5.684767" lat="51.104732"><ele>46</ele><time>2022-05-15T06:23:28.000Z</time></trkpt><trkpt lon="5.684795" lat="51.104672"><ele>46</ele><time>2022-05-15T06:23:29.000Z</time></trkpt><trkpt lon="5.684822" lat="51.104606"><ele>46</ele><time>2022-05-15T06:23:30.000Z</time></trkpt><trkpt lon="5.68485" lat="51.104542"><ele>46.2</ele><time>2022-05-15T06:23:31.000Z</time></trkpt><trkpt lon="5.684879" lat="51.104475"><ele>46.2</ele><time>2022-05-15T06:23:32.000Z</time></trkpt><trkpt lon="5.684908" lat="51.10441"><ele>46.2</ele><time>2022-05-15T06:23:33.000Z</time></trkpt><trkpt lon="5.684935" lat="51.10435"><ele>46.4</ele><time>2022-05-15T06:23:34.000Z</time></trkpt><trkpt lon="5.684966" lat="51.104285"><ele>46.4</ele><time>2022-05-15T06:23:35.000Z</time></trkpt><trkpt lon="5.684994" lat="51.104221"><ele>46.4</ele><time>2022-05-15T06:23:36.000Z</time></trkpt><trkpt lon="5.68502" lat="51.104162"><ele>46.6</ele><time>2022-05-15T06:23:37.000Z</time></trkpt><trkpt lon="5.685047" lat="51.104099"><ele>46.6</ele><time>2022-05-15T06:23:38.000Z</time></trkpt><trkpt lon="5.685077" lat="51.104029"><ele>46.6</ele><time>2022-05-15T06:23:39.000Z</time></trkpt><trkpt lon="5.685102" lat="51.103972"><ele>46.6</ele><time>2022-05-15T06:23:40.000Z</time></trkpt><trkpt lon="5.68513" lat="51.103908"><ele>46.6</ele><time>2022-05-15T06:23:41.000Z</time></trkpt><trkpt lon="5.68516" lat="51.103842"><ele>46.6</ele><time>2022-05-15T06:23:42.000Z</time></trkpt><trkpt lon="5.685189" lat="51.103781"><ele>46.6</ele><time>2022-05-15T06:23:43.000Z</time></trkpt><trkpt lon="5.685223" lat="51.103727"><ele>46.8</ele><time>2022-05-15T06:23:44.000Z</time></trkpt><trkpt lon="5.68526" lat="51.103673"><ele>46.8</ele><time>2022-05-15T06:23:45.000Z</time></trkpt><trkpt lon="5.685295" lat="51.103616"><ele>47</ele><time>2022-05-15T06:23:46.000Z</time></trkpt><trkpt lon="5.685324" lat="51.103556"><ele>47</ele><time>2022-05-15T06:23:47.000Z</time></trkpt><trkpt lon="5.685344" lat="51.103501"><ele>47.2</ele><time>2022-05-15T06:23:48.000Z</time></trkpt><trkpt lon="5.68535" lat="51.103447"><ele>47.2</ele><time>2022-05-15T06:23:49.000Z</time></trkpt><trkpt lon="5.68534" lat="51.103384"><ele>47.4</ele><time>2022-05-15T06:23:50.000Z</time></trkpt><trkpt lon="5.685327" lat="51.103318"><ele>47.4</ele><time>2022-05-15T06:23:51.000Z</time></trkpt><trkpt lon="5.68533" lat="51.103251"><ele>47.4</ele><time>2022-05-15T06:23:52.000Z</time></trkpt><trkpt lon="5.685347" lat="51.103185"><ele>47.6</ele><time>2022-05-15T06:23:53.000Z</time></trkpt><trkpt lon="5.685375" lat="51.103116"><ele>47.6</ele><time>2022-05-15T06:23:54.000Z</time></trkpt><trkpt lon="5.685406" lat="51.10305"><ele>47.6</ele><time>2022-05-15T06:23:55.000Z</time></trkpt><trkpt lon="5.685438" lat="51.102986"><ele>47.6</ele><time>2022-05-15T06:23:56.000Z</time></trkpt><trkpt lon="5.685473" lat="51.102921"><ele>47.6</ele><time>2022-05-15T06:23:57.000Z</time></trkpt><trkpt lon="5.685503" lat="51.10286"><ele>47.6</ele><time>2022-05-15T06:23:58.000Z</time></trkpt><trkpt lon="5.685532" lat="51.1028"><ele>47.6</ele><time>2022-05-15T06:23:59.000Z</time></trkpt><trkpt lon="5.685562" lat="51.102738"><ele>47.8</ele><time>2022-05-15T06:24:00.000Z</time></trkpt><trkpt lon="5.685588" lat="51.10268"><ele>47.8</ele><time>2022-05-15T06:24:01.000Z</time></trkpt><trkpt lon="5.685605" lat="51.102624"><ele>47.8</ele><time>2022-05-15T06:24:02.000Z</time></trkpt><trkpt lon="5.685606" lat="51.102568"><ele>47.8</ele><time>2022-05-15T06:24:03.000Z</time></trkpt><trkpt lon="5.685584" lat="51.102519"><ele>47.8</ele><time>2022-05-15T06:24:04.000Z</time></trkpt><trkpt lon="5.685537" lat="51.102465"><ele>47.8</ele><time>2022-05-15T06:24:05.000Z</time></trkpt><trkpt lon="5.68547" lat="51.102413"><ele>48</ele><time>2022-05-15T06:24:06.000Z</time></trkpt><trkpt lon="5.685405" lat="51.102371"><ele>48</ele><time>2022-05-15T06:24:07.000Z</time></trkpt><trkpt lon="5.685309" lat="51.102316"><ele>48.2</ele><time>2022-05-15T06:24:08.000Z</time></trkpt><trkpt lon="5.685226" lat="51.10227"><ele>48.2</ele><time>2022-05-15T06:24:09.000Z</time></trkpt><trkpt lon="5.685146" lat="51.102229"><ele>48.2</ele><time>2022-05-15T06:24:10.000Z</time></trkpt><trkpt lon="5.685063" lat="51.102184"><ele>48.2</ele><time>2022-05-15T06:24:11.000Z</time></trkpt><trkpt lon="5.684981" lat="51.102142"><ele>48.4</ele><time>2022-05-15T06:24:12.000Z</time></trkpt><trkpt lon="5.684904" lat="51.102098"><ele>48.4</ele><time>2022-05-15T06:24:13.000Z</time></trkpt><trkpt lon="5.68482" lat="51.102053"><ele>48.4</ele><time>2022-05-15T06:24:14.000Z</time></trkpt><trkpt lon="5.684743" lat="51.102008"><ele>48.4</ele><time>2022-05-15T06:24:15.000Z</time></trkpt><trkpt lon="5.684666" lat="51.101967"><ele>48.6</ele><time>2022-05-15T06:24:16.000Z</time></trkpt><trkpt lon="5.684585" lat="51.101921"><ele>48.6</ele><time>2022-05-15T06:24:17.000Z</time></trkpt><trkpt lon="5.6845" lat="51.101876"><ele>48.6</ele><time>2022-05-15T06:24:18.000Z</time></trkpt><trkpt lon="5.684422" lat="51.101832"><ele>48.8</ele><time>2022-05-15T06:24:19.000Z</time></trkpt><trkpt lon="5.684343" lat="51.101791"><ele>48.8</ele><time>2022-05-15T06:24:20.000Z</time></trkpt><trkpt lon="5.684258" lat="51.101744"><ele>48.8</ele><time>2022-05-15T06:24:21.000Z</time></trkpt><trkpt lon="5.684178" lat="51.101702"><ele>49</ele><time>2022-05-15T06:24:22.000Z</time></trkpt><trkpt lon="5.684099" lat="51.101664"><ele>49</ele><time>2022-05-15T06:24:23.000Z</time></trkpt><trkpt lon="5.68402" lat="51.101619"><ele>49</ele><time>2022-05-15T06:24:24.000Z</time></trkpt><trkpt lon="5.683936" lat="51.10158"><ele>49</ele><time>2022-05-15T06:24:25.000Z</time></trkpt><trkpt lon="5.68385" lat="51.101542"><ele>49.2</ele><time>2022-05-15T06:24:26.000Z</time></trkpt><trkpt lon="5.683764" lat="51.101504"><ele>49.2</ele><time>2022-05-15T06:24:27.000Z</time></trkpt><trkpt lon="5.68368" lat="51.101467"><ele>49.4</ele><time>2022-05-15T06:24:28.000Z</time></trkpt><trkpt lon="5.683592" lat="51.101428"><ele>49.4</ele><time>2022-05-15T06:24:29.000Z</time></trkpt><trkpt lon="5.683504" lat="51.101386"><ele>49.6</ele><time>2022-05-15T06:24:30.000Z</time></trkpt><trkpt lon="5.683414" lat="51.10135"><ele>49.6</ele><time>2022-05-15T06:24:31.000Z</time></trkpt><trkpt lon="5.683328" lat="51.101314"><ele>49.6</ele><time>2022-05-15T06:24:32.000Z</time></trkpt><trkpt lon="5.683233" lat="51.101278"><ele>49.8</ele><time>2022-05-15T06:24:33.000Z</time></trkpt><trkpt lon="5.68315" lat="51.101247"><ele>49.8</ele><time>2022-05-15T06:24:34.000Z</time></trkpt><trkpt lon="5.68305" lat="51.101213"><ele>50</ele><time>2022-05-15T06:24:35.000Z</time></trkpt><trkpt lon="5.682958" lat="51.101179"><ele>50</ele><time>2022-05-15T06:24:36.000Z</time></trkpt><trkpt lon="5.682867" lat="51.101148"><ele>50.2</ele><time>2022-05-15T06:24:37.000Z</time></trkpt><trkpt lon="5.682777" lat="51.101115"><ele>50.2</ele><time>2022-05-15T06:24:38.000Z</time></trkpt><trkpt lon="5.682686" lat="51.10108"><ele>50.2</ele><time>2022-05-15T06:24:39.000Z</time></trkpt><trkpt lon="5.682594" lat="51.101042"><ele>50.4</ele><time>2022-05-15T06:24:40.000Z</time></trkpt><trkpt lon="5.682505" lat="51.101008"><ele>50.4</ele><time>2022-05-15T06:24:41.000Z</time></trkpt><trkpt lon="5.682414" lat="51.100974"><ele>50.4</ele><time>2022-05-15T06:24:42.000Z</time></trkpt><trkpt lon="5.682321" lat="51.100939"><ele>50.6</ele><time>2022-05-15T06:24:43.000Z</time></trkpt><trkpt lon="5.682235" lat="51.100898"><ele>50.6</ele><time>2022-05-15T06:24:44.000Z</time></trkpt><trkpt lon="5.682148" lat="51.10086"><ele>50.6</ele><time>2022-05-15T06:24:45.000Z</time></trkpt><trkpt lon="5.682057" lat="51.10082"><ele>50.8</ele><time>2022-05-15T06:24:46.000Z</time></trkpt><trkpt lon="5.681972" lat="51.100784"><ele>50.8</ele><time>2022-05-15T06:24:47.000Z</time></trkpt><trkpt lon="5.681882" lat="51.100744"><ele>50.8</ele><time>2022-05-15T06:24:48.000Z</time></trkpt><trkpt lon="5.681798" lat="51.100707"><ele>51</ele><time>2022-05-15T06:24:49.000Z</time></trkpt><trkpt lon="5.681711" lat="51.100669"><ele>51</ele><time>2022-05-15T06:24:50.000Z</time></trkpt><trkpt lon="5.681627" lat="51.100631"><ele>51.2</ele><time>2022-05-15T06:24:51.000Z</time></trkpt><trkpt lon="5.681545" lat="51.100594"><ele>51.2</ele><time>2022-05-15T06:24:52.000Z</time></trkpt><trkpt lon="5.681457" lat="51.100555"><ele>51.4</ele><time>2022-05-15T06:24:53.000Z</time></trkpt><trkpt lon="5.68137" lat="51.100517"><ele>51.4</ele><time>2022-05-15T06:24:54.000Z</time></trkpt><trkpt lon="5.681286" lat="51.100479"><ele>51.6</ele><time>2022-05-15T06:24:55.000Z</time></trkpt><trkpt lon="5.681196" lat="51.100435"><ele>51.6</ele><time>2022-05-15T06:24:56.000Z</time></trkpt><trkpt lon="5.68112" lat="51.100398"><ele>51.6</ele><time>2022-05-15T06:24:57.000Z</time></trkpt><trkpt lon="5.681044" lat="51.100351"><ele>51.8</ele><time>2022-05-15T06:24:58.000Z</time></trkpt><trkpt lon="5.680987" lat="51.100308"><ele>51.8</ele><time>2022-05-15T06:24:59.000Z</time></trkpt><trkpt lon="5.680922" lat="51.10025"><ele>52</ele><time>2022-05-15T06:25:00.000Z</time></trkpt><trkpt lon="5.68087" lat="51.100193"><ele>52</ele><time>2022-05-15T06:25:01.000Z</time></trkpt><trkpt lon="5.680823" lat="51.100134"><ele>52.2</ele><time>2022-05-15T06:25:02.000Z</time></trkpt><trkpt lon="5.680777" lat="51.100076"><ele>52.2</ele><time>2022-05-15T06:25:03.000Z</time></trkpt><trkpt lon="5.680734" lat="51.100013"><ele>52.2</ele><time>2022-05-15T06:25:04.000Z</time></trkpt><trkpt lon="5.68069" lat="51.099951"><ele>52.4</ele><time>2022-05-15T06:25:05.000Z</time></trkpt><trkpt lon="5.680649" lat="51.099895"><ele>52.4</ele><time>2022-05-15T06:25:06.000Z</time></trkpt><trkpt lon="5.680606" lat="51.099834"><ele>52.4</ele><time>2022-05-15T06:25:07.000Z</time></trkpt><trkpt lon="5.680561" lat="51.099778"><ele>52.6</ele><time>2022-05-15T06:25:08.000Z</time></trkpt><trkpt lon="5.680508" lat="51.099724"><ele>52.6</ele><time>2022-05-15T06:25:09.000Z</time></trkpt><trkpt lon="5.680444" lat="51.099673"><ele>52.6</ele><time>2022-05-15T06:25:10.000Z</time></trkpt><trkpt lon="5.680372" lat="51.099627"><ele>52.8</ele><time>2022-05-15T06:25:11.000Z</time></trkpt><trkpt lon="5.680297" lat="51.099591"><ele>52.8</ele><time>2022-05-15T06:25:12.000Z</time></trkpt><trkpt lon="5.68021" lat="51.099555"><ele>53</ele><time>2022-05-15T06:25:13.000Z</time></trkpt><trkpt lon="5.680114" lat="51.099527"><ele>53.2</ele><time>2022-05-15T06:25:14.000Z</time></trkpt><trkpt lon="5.680022" lat="51.099504"><ele>53.2</ele><time>2022-05-15T06:25:15.000Z</time></trkpt><trkpt lon="5.679941" lat="51.099488"><ele>53.2</ele><time>2022-05-15T06:25:16.000Z</time></trkpt><trkpt lon="5.679833" lat="51.099467"><ele>53.4</ele><time>2022-05-15T06:25:17.000Z</time></trkpt><trkpt lon="5.679725" lat="51.099447"><ele>53.4</ele><time>2022-05-15T06:25:18.000Z</time></trkpt><trkpt lon="5.679622" lat="51.099427"><ele>53.6</ele><time>2022-05-15T06:25:19.000Z</time></trkpt><trkpt lon="5.679525" lat="51.099409"><ele>53.6</ele><time>2022-05-15T06:25:20.000Z</time></trkpt><trkpt lon="5.679422" lat="51.09939"><ele>53.8</ele><time>2022-05-15T06:25:21.000Z</time></trkpt><trkpt lon="5.67932" lat="51.099374"><ele>53.8</ele><time>2022-05-15T06:25:22.000Z</time></trkpt><trkpt lon="5.67922" lat="51.099355"><ele>54</ele><time>2022-05-15T06:25:23.000Z</time></trkpt><trkpt lon="5.679123" lat="51.099336"><ele>54</ele><time>2022-05-15T06:25:24.000Z</time></trkpt><trkpt lon="5.679022" lat="51.099317"><ele>54.2</ele><time>2022-05-15T06:25:25.000Z</time></trkpt><trkpt lon="5.678922" lat="51.099297"><ele>54.4</ele><time>2022-05-15T06:25:26.000Z</time></trkpt><trkpt lon="5.678829" lat="51.099283"><ele>54.4</ele><time>2022-05-15T06:25:27.000Z</time></trkpt><trkpt lon="5.678728" lat="51.099263"><ele>54.6</ele><time>2022-05-15T06:25:28.000Z</time></trkpt><trkpt lon="5.678635" lat="51.099248"><ele>54.6</ele><time>2022-05-15T06:25:29.000Z</time></trkpt><trkpt lon="5.678538" lat="51.099229"><ele>54.8</ele><time>2022-05-15T06:25:30.000Z</time></trkpt><trkpt lon="5.678446" lat="51.099211"><ele>54.8</ele><time>2022-05-15T06:25:31.000Z</time></trkpt><trkpt lon="5.678343" lat="51.099194"><ele>55</ele><time>2022-05-15T06:25:32.000Z</time></trkpt><trkpt lon="5.678247" lat="51.099176"><ele>55.2</ele><time>2022-05-15T06:25:33.000Z</time></trkpt><trkpt lon="5.678152" lat="51.09916"><ele>55.2</ele><time>2022-05-15T06:25:34.000Z</time></trkpt><trkpt lon="5.678054" lat="51.099141"><ele>55.4</ele><time>2022-05-15T06:25:35.000Z</time></trkpt><trkpt lon="5.677958" lat="51.099122"><ele>55.6</ele><time>2022-05-15T06:25:36.000Z</time></trkpt><trkpt lon="5.677859" lat="51.099103"><ele>55.6</ele><time>2022-05-15T06:25:37.000Z</time></trkpt><trkpt lon="5.677767" lat="51.099085"><ele>55.8</ele><time>2022-05-15T06:25:38.000Z</time></trkpt><trkpt lon="5.677672" lat="51.099063"><ele>56</ele><time>2022-05-15T06:25:39.000Z</time></trkpt><trkpt lon="5.677569" lat="51.099042"><ele>56</ele><time>2022-05-15T06:25:40.000Z</time></trkpt><trkpt lon="5.677475" lat="51.09902"><ele>56.2</ele><time>2022-05-15T06:25:41.000Z</time></trkpt><trkpt lon="5.677376" lat="51.098996"><ele>56.2</ele><time>2022-05-15T06:25:42.000Z</time></trkpt><trkpt lon="5.677284" lat="51.098974"><ele>56.4</ele><time>2022-05-15T06:25:43.000Z</time></trkpt><trkpt lon="5.677193" lat="51.098948"><ele>56.4</ele><time>2022-05-15T06:25:44.000Z</time></trkpt><trkpt lon="5.677097" lat="51.098924"><ele>56.6</ele><time>2022-05-15T06:25:45.000Z</time></trkpt><trkpt lon="5.677008" lat="51.098902"><ele>56.6</ele><time>2022-05-15T06:25:46.000Z</time></trkpt><trkpt lon="5.676913" lat="51.098879"><ele>56.6</ele><time>2022-05-15T06:25:47.000Z</time></trkpt><trkpt lon="5.676817" lat="51.098852"><ele>56.8</ele><time>2022-05-15T06:25:48.000Z</time></trkpt><trkpt lon="5.676725" lat="51.098829"><ele>56.8</ele><time>2022-05-15T06:25:49.000Z</time></trkpt><trkpt lon="5.676627" lat="51.098806"><ele>57</ele><time>2022-05-15T06:25:50.000Z</time></trkpt><trkpt lon="5.676532" lat="51.098784"><ele>57</ele><time>2022-05-15T06:25:51.000Z</time></trkpt><trkpt lon="5.676437" lat="51.098758"><ele>57</ele><time>2022-05-15T06:25:52.000Z</time></trkpt><trkpt lon="5.676334" lat="51.098733"><ele>57.2</ele><time>2022-05-15T06:25:53.000Z</time></trkpt><trkpt lon="5.676248" lat="51.098714"><ele>57.2</ele><time>2022-05-15T06:25:54.000Z</time></trkpt><trkpt lon="5.676139" lat="51.098692"><ele>57</ele><time>2022-05-15T06:25:55.000Z</time></trkpt><trkpt lon="5.676033" lat="51.098676"><ele>57</ele><time>2022-05-15T06:25:56.000Z</time></trkpt><trkpt lon="5.675928" lat="51.098661"><ele>57</ele><time>2022-05-15T06:25:57.000Z</time></trkpt><trkpt lon="5.675818" lat="51.098641"><ele>57</ele><time>2022-05-15T06:25:58.000Z</time></trkpt><trkpt lon="5.675714" lat="51.09863"><ele>57</ele><time>2022-05-15T06:25:59.000Z</time></trkpt><trkpt lon="5.675601" lat="51.098615"><ele>56.8</ele><time>2022-05-15T06:26:00.000Z</time></trkpt><trkpt lon="5.675489" lat="51.098603"><ele>56.8</ele><time>2022-05-15T06:26:01.000Z</time></trkpt><trkpt lon="5.675376" lat="51.098595"><ele>56.6</ele><time>2022-05-15T06:26:02.000Z</time></trkpt><trkpt lon="5.675269" lat="51.098584"><ele>56.6</ele><time>2022-05-15T06:26:03.000Z</time></trkpt><trkpt lon="5.675166" lat="51.098574"><ele>56.4</ele><time>2022-05-15T06:26:04.000Z</time></trkpt><trkpt lon="5.675045" lat="51.098565"><ele>56.2</ele><time>2022-05-15T06:26:05.000Z</time></trkpt><trkpt lon="5.674919" lat="51.098557"><ele>56.2</ele><time>2022-05-15T06:26:06.000Z</time></trkpt><trkpt lon="5.674802" lat="51.098546"><ele>56</ele><time>2022-05-15T06:26:07.000Z</time></trkpt><trkpt lon="5.674694" lat="51.098532"><ele>56</ele><time>2022-05-15T06:26:08.000Z</time></trkpt><trkpt lon="5.674577" lat="51.09852"><ele>55.8</ele><time>2022-05-15T06:26:09.000Z</time></trkpt><trkpt lon="5.674465" lat="51.098505"><ele>55.6</ele><time>2022-05-15T06:26:10.000Z</time></trkpt><trkpt lon="5.674346" lat="51.098489"><ele>55.6</ele><time>2022-05-15T06:26:11.000Z</time></trkpt><trkpt lon="5.67423" lat="51.098473"><ele>55.4</ele><time>2022-05-15T06:26:12.000Z</time></trkpt><trkpt lon="5.674115" lat="51.098454"><ele>55.2</ele><time>2022-05-15T06:26:13.000Z</time></trkpt><trkpt lon="5.674008" lat="51.098433"><ele>55.2</ele><time>2022-05-15T06:26:14.000Z</time></trkpt><trkpt lon="5.673897" lat="51.098414"><ele>55</ele><time>2022-05-15T06:26:15.000Z</time></trkpt><trkpt lon="5.673784" lat="51.098391"><ele>54.8</ele><time>2022-05-15T06:26:16.000Z</time></trkpt><trkpt lon="5.673676" lat="51.098372"><ele>54.8</ele><time>2022-05-15T06:26:17.000Z</time></trkpt><trkpt lon="5.67356" lat="51.098352"><ele>54.6</ele><time>2022-05-15T06:26:18.000Z</time></trkpt><trkpt lon="5.673446" lat="51.098333"><ele>54.6</ele><time>2022-05-15T06:26:19.000Z</time></trkpt><trkpt lon="5.673352" lat="51.098313"><ele>54.4</ele><time>2022-05-15T06:26:20.000Z</time></trkpt><trkpt lon="5.673244" lat="51.098297"><ele>54.4</ele><time>2022-05-15T06:26:21.000Z</time></trkpt><trkpt lon="5.673121" lat="51.098273"><ele>54.4</ele><time>2022-05-15T06:26:22.000Z</time></trkpt><trkpt lon="5.673006" lat="51.098253"><ele>54.4</ele><time>2022-05-15T06:26:23.000Z</time></trkpt><trkpt lon="5.672903" lat="51.098234"><ele>54.2</ele><time>2022-05-15T06:26:24.000Z</time></trkpt><trkpt lon="5.672796" lat="51.098215"><ele>54.2</ele><time>2022-05-15T06:26:25.000Z</time></trkpt><trkpt lon="5.672688" lat="51.098196"><ele>54.2</ele><time>2022-05-15T06:26:26.000Z</time></trkpt><trkpt lon="5.67258" lat="51.098177"><ele>54</ele><time>2022-05-15T06:26:27.000Z</time></trkpt><trkpt lon="5.672468" lat="51.098161"><ele>54</ele><time>2022-05-15T06:26:28.000Z</time></trkpt><trkpt lon="5.672357" lat="51.098138"><ele>54</ele><time>2022-05-15T06:26:29.000Z</time></trkpt><trkpt lon="5.672253" lat="51.09812"><ele>54</ele><time>2022-05-15T06:26:30.000Z</time></trkpt><trkpt lon="5.672148" lat="51.098097"><ele>54</ele><time>2022-05-15T06:26:31.000Z</time></trkpt><trkpt lon="5.672039" lat="51.098073"><ele>54</ele><time>2022-05-15T06:26:32.000Z</time></trkpt><trkpt lon="5.671936" lat="51.098047"><ele>54</ele><time>2022-05-15T06:26:33.000Z</time></trkpt><trkpt lon="5.671862" lat="51.098027"><ele>54.2</ele><time>2022-05-15T06:26:34.000Z</time></trkpt><trkpt lon="5.671762" lat="51.097997"><ele>54</ele><time>2022-05-15T06:26:35.000Z</time></trkpt><trkpt lon="5.671642" lat="51.097959"><ele>54</ele><time>2022-05-15T06:26:36.000Z</time></trkpt><trkpt lon="5.671552" lat="51.097922"><ele>54</ele><time>2022-05-15T06:26:37.000Z</time></trkpt><trkpt lon="5.671475" lat="51.097883"><ele>54</ele><time>2022-05-15T06:26:38.000Z</time></trkpt><trkpt lon="5.6714" lat="51.097831"><ele>54</ele><time>2022-05-15T06:26:39.000Z</time></trkpt><trkpt lon="5.671339" lat="51.09777"><ele>54</ele><time>2022-05-15T06:26:40.000Z</time></trkpt><trkpt lon="5.671291" lat="51.097701"><ele>54</ele><time>2022-05-15T06:26:41.000Z</time></trkpt><trkpt lon="5.671245" lat="51.097635"><ele>54</ele><time>2022-05-15T06:26:42.000Z</time></trkpt><trkpt lon="5.671204" lat="51.097572"><ele>54</ele><time>2022-05-15T06:26:43.000Z</time></trkpt><trkpt lon="5.671162" lat="51.097506"><ele>54</ele><time>2022-05-15T06:26:44.000Z</time></trkpt><trkpt lon="5.671126" lat="51.097448"><ele>54</ele><time>2022-05-15T06:26:45.000Z</time></trkpt><trkpt lon="5.671083" lat="51.097381"><ele>54.2</ele><time>2022-05-15T06:26:46.000Z</time></trkpt><trkpt lon="5.671042" lat="51.097316"><ele>54.2</ele><time>2022-05-15T06:26:47.000Z</time></trkpt><trkpt lon="5.671002" lat="51.097254"><ele>54.2</ele><time>2022-05-15T06:26:48.000Z</time></trkpt><trkpt lon="5.670964" lat="51.09719"><ele>54.2</ele><time>2022-05-15T06:26:49.000Z</time></trkpt><trkpt lon="5.670925" lat="51.097127"><ele>54.2</ele><time>2022-05-15T06:26:50.000Z</time></trkpt><trkpt lon="5.670887" lat="51.097069"><ele>54.2</ele><time>2022-05-15T06:26:51.000Z</time></trkpt><trkpt lon="5.670844" lat="51.096998"><ele>54.2</ele><time>2022-05-15T06:26:52.000Z</time></trkpt><trkpt lon="5.670809" lat="51.096936"><ele>54.2</ele><time>2022-05-15T06:26:53.000Z</time></trkpt><trkpt lon="5.670771" lat="51.096873"><ele>54.2</ele><time>2022-05-15T06:26:54.000Z</time></trkpt><trkpt lon="5.670736" lat="51.096812"><ele>54.2</ele><time>2022-05-15T06:26:55.000Z</time></trkpt><trkpt lon="5.670701" lat="51.09675"><ele>54.2</ele><time>2022-05-15T06:26:56.000Z</time></trkpt><trkpt lon="5.670661" lat="51.096689"><ele>54.2</ele><time>2022-05-15T06:26:57.000Z</time></trkpt><trkpt lon="5.670621" lat="51.096629"><ele>54.2</ele><time>2022-05-15T06:26:58.000Z</time></trkpt><trkpt lon="5.670583" lat="51.096564"><ele>54.2</ele><time>2022-05-15T06:26:59.000Z</time></trkpt><trkpt lon="5.670546" lat="51.096502"><ele>54.2</ele><time>2022-05-15T06:27:00.000Z</time></trkpt><trkpt lon="5.670508" lat="51.096442"><ele>54.4</ele><time>2022-05-15T06:27:01.000Z</time></trkpt><trkpt lon="5.67047" lat="51.09638"><ele>54.4</ele><time>2022-05-15T06:27:02.000Z</time></trkpt><trkpt lon="5.670428" lat="51.096316"><ele>54.2</ele><time>2022-05-15T06:27:03.000Z</time></trkpt><trkpt lon="5.670388" lat="51.096251"><ele>54.2</ele><time>2022-05-15T06:27:04.000Z</time></trkpt><trkpt lon="5.670351" lat="51.096192"><ele>54.2</ele><time>2022-05-15T06:27:05.000Z</time></trkpt><trkpt lon="5.67031" lat="51.096129"><ele>54.2</ele><time>2022-05-15T06:27:06.000Z</time></trkpt><trkpt lon="5.67027" lat="51.096063"><ele>54.2</ele><time>2022-05-15T06:27:07.000Z</time></trkpt><trkpt lon="5.670231" lat="51.095999"><ele>54.2</ele><time>2022-05-15T06:27:08.000Z</time></trkpt><trkpt lon="5.670193" lat="51.095938"><ele>54.2</ele><time>2022-05-15T06:27:09.000Z</time></trkpt><trkpt lon="5.670151" lat="51.095879"><ele>54.2</ele><time>2022-05-15T06:27:10.000Z</time></trkpt><trkpt lon="5.670106" lat="51.095814"><ele>54.2</ele><time>2022-05-15T06:27:11.000Z</time></trkpt><trkpt lon="5.670066" lat="51.095753"><ele>54</ele><time>2022-05-15T06:27:12.000Z</time></trkpt><trkpt lon="5.670023" lat="51.095686"><ele>54.2</ele><time>2022-05-15T06:27:13.000Z</time></trkpt><trkpt lon="5.669981" lat="51.095625"><ele>54.2</ele><time>2022-05-15T06:27:14.000Z</time></trkpt><trkpt lon="5.669941" lat="51.095564"><ele>54.2</ele><time>2022-05-15T06:27:15.000Z</time></trkpt><trkpt lon="5.669904" lat="51.095505"><ele>54.2</ele><time>2022-05-15T06:27:16.000Z</time></trkpt><trkpt lon="5.669863" lat="51.095446"><ele>54.2</ele><time>2022-05-15T06:27:17.000Z</time></trkpt><trkpt lon="5.669826" lat="51.095388"><ele>54.2</ele><time>2022-05-15T06:27:18.000Z</time></trkpt><trkpt lon="5.66979" lat="51.095331"><ele>54.2</ele><time>2022-05-15T06:27:19.000Z</time></trkpt><trkpt lon="5.669755" lat="51.095274"><ele>54.2</ele><time>2022-05-15T06:27:20.000Z</time></trkpt><trkpt lon="5.66972" lat="51.095217"><ele>54.4</ele><time>2022-05-15T06:27:21.000Z</time></trkpt><trkpt lon="5.669688" lat="51.095163"><ele>54.4</ele><time>2022-05-15T06:27:22.000Z</time></trkpt><trkpt lon="5.669656" lat="51.095114"><ele>54.6</ele><time>2022-05-15T06:27:23.000Z</time></trkpt><trkpt lon="5.669623" lat="51.09506"><ele>54.6</ele><time>2022-05-15T06:27:24.000Z</time></trkpt><trkpt lon="5.669593" lat="51.095007"><ele>54.8</ele><time>2022-05-15T06:27:25.000Z</time></trkpt><trkpt lon="5.669569" lat="51.094953"><ele>54.8</ele><time>2022-05-15T06:27:26.000Z</time></trkpt><trkpt lon="5.669567" lat="51.094892"><ele>55</ele><time>2022-05-15T06:27:27.000Z</time></trkpt><trkpt lon="5.669592" lat="51.094839"><ele>55</ele><time>2022-05-15T06:27:28.000Z</time></trkpt><trkpt lon="5.669653" lat="51.094793"><ele>55</ele><time>2022-05-15T06:27:29.000Z</time></trkpt><trkpt lon="5.669737" lat="51.094755"><ele>55</ele><time>2022-05-15T06:27:30.000Z</time></trkpt><trkpt lon="5.669836" lat="51.094728"><ele>54.8</ele><time>2022-05-15T06:27:31.000Z</time></trkpt><trkpt lon="5.669946" lat="51.094701"><ele>54.4</ele><time>2022-05-15T06:27:32.000Z</time></trkpt><trkpt lon="5.670056" lat="51.094678"><ele>54</ele><time>2022-05-15T06:27:33.000Z</time></trkpt><trkpt lon="5.670168" lat="51.094651"><ele>53.6</ele><time>2022-05-15T06:27:34.000Z</time></trkpt><trkpt lon="5.67028" lat="51.094628"><ele>53.4</ele><time>2022-05-15T06:27:35.000Z</time></trkpt><trkpt lon="5.67039" lat="51.094602"><ele>53.4</ele><time>2022-05-15T06:27:36.000Z</time></trkpt><trkpt lon="5.670501" lat="51.094579"><ele>53.4</ele><time>2022-05-15T06:27:37.000Z</time></trkpt><trkpt lon="5.670612" lat="51.094556"><ele>53.4</ele><time>2022-05-15T06:27:38.000Z</time></trkpt><trkpt lon="5.67072" lat="51.094533"><ele>53.2</ele><time>2022-05-15T06:27:39.000Z</time></trkpt><trkpt lon="5.670829" lat="51.09451"><ele>53.2</ele><time>2022-05-15T06:27:40.000Z</time></trkpt><trkpt lon="5.67094" lat="51.094491"><ele>53.2</ele><time>2022-05-15T06:27:41.000Z</time></trkpt><trkpt lon="5.671051" lat="51.094475"><ele>53.4</ele><time>2022-05-15T06:27:42.000Z</time></trkpt><trkpt lon="5.671162" lat="51.094456"><ele>53.2</ele><time>2022-05-15T06:27:43.000Z</time></trkpt><trkpt lon="5.671273" lat="51.094441"><ele>52.8</ele><time>2022-05-15T06:27:44.000Z</time></trkpt><trkpt lon="5.671384" lat="51.094429"><ele>52.6</ele><time>2022-05-15T06:27:45.000Z</time></trkpt><trkpt lon="5.671497" lat="51.094422"><ele>52.4</ele><time>2022-05-15T06:27:46.000Z</time></trkpt><trkpt lon="5.671606" lat="51.09441"><ele>52.2</ele><time>2022-05-15T06:27:47.000Z</time></trkpt><trkpt lon="5.671715" lat="51.094406"><ele>52.4</ele><time>2022-05-15T06:27:48.000Z</time></trkpt><trkpt lon="5.671821" lat="51.094399"><ele>52.4</ele><time>2022-05-15T06:27:49.000Z</time></trkpt><trkpt lon="5.671931" lat="51.094391"><ele>52.4</ele><time>2022-05-15T06:27:50.000Z</time></trkpt><trkpt lon="5.672044" lat="51.094387"><ele>52.4</ele><time>2022-05-15T06:27:51.000Z</time></trkpt><trkpt lon="5.672154" lat="51.094383"><ele>52.4</ele><time>2022-05-15T06:27:52.000Z</time></trkpt><trkpt lon="5.672264" lat="51.094372"><ele>52.4</ele><time>2022-05-15T06:27:53.000Z</time></trkpt><trkpt lon="5.672371" lat="51.094357"><ele>52.4</ele><time>2022-05-15T06:27:54.000Z</time></trkpt><trkpt lon="5.672477" lat="51.094342"><ele>52.4</ele><time>2022-05-15T06:27:55.000Z</time></trkpt><trkpt lon="5.672583" lat="51.094319"><ele>52.4</ele><time>2022-05-15T06:27:56.000Z</time></trkpt><trkpt lon="5.672685" lat="51.094293"><ele>52.4</ele><time>2022-05-15T06:27:57.000Z</time></trkpt><trkpt lon="5.672784" lat="51.094266"><ele>52.2</ele><time>2022-05-15T06:27:58.000Z</time></trkpt><trkpt lon="5.67288" lat="51.094237"><ele>52</ele><time>2022-05-15T06:27:59.000Z</time></trkpt><trkpt lon="5.672979" lat="51.094206"><ele>52</ele><time>2022-05-15T06:28:00.000Z</time></trkpt><trkpt lon="5.673078" lat="51.094175"><ele>52</ele><time>2022-05-15T06:28:01.000Z</time></trkpt><trkpt lon="5.673169" lat="51.094146"><ele>52</ele><time>2022-05-15T06:28:02.000Z</time></trkpt><trkpt lon="5.673273" lat="51.094114"><ele>51.8</ele><time>2022-05-15T06:28:03.000Z</time></trkpt><trkpt lon="5.673372" lat="51.094091"><ele>51.6</ele><time>2022-05-15T06:28:04.000Z</time></trkpt><trkpt lon="5.673473" lat="51.094064"><ele>51.4</ele><time>2022-05-15T06:28:05.000Z</time></trkpt><trkpt lon="5.673576" lat="51.094044"><ele>51.4</ele><time>2022-05-15T06:28:06.000Z</time></trkpt><trkpt lon="5.673679" lat="51.094025"><ele>51.6</ele><time>2022-05-15T06:28:07.000Z</time></trkpt><trkpt lon="5.673784" lat="51.09401"><ele>51.6</ele><time>2022-05-15T06:28:08.000Z</time></trkpt><trkpt lon="5.673892" lat="51.093995"><ele>51.6</ele><time>2022-05-15T06:28:09.000Z</time></trkpt><trkpt lon="5.674004" lat="51.093983"><ele>51.6</ele><time>2022-05-15T06:28:10.000Z</time></trkpt><trkpt lon="5.674116" lat="51.093972"><ele>51.6</ele><time>2022-05-15T06:28:11.000Z</time></trkpt><trkpt lon="5.674226" lat="51.093957"><ele>51.6</ele><time>2022-05-15T06:28:12.000Z</time></trkpt><trkpt lon="5.674335" lat="51.093941"><ele>51.4</ele><time>2022-05-15T06:28:13.000Z</time></trkpt><trkpt lon="5.674445" lat="51.093926"><ele>51.2</ele><time>2022-05-15T06:28:14.000Z</time></trkpt><trkpt lon="5.674553" lat="51.093911"><ele>51.2</ele><time>2022-05-15T06:28:15.000Z</time></trkpt><trkpt lon="5.674655" lat="51.093896"><ele>51.2</ele><time>2022-05-15T06:28:16.000Z</time></trkpt><trkpt lon="5.67476" lat="51.09388"><ele>51.2</ele><time>2022-05-15T06:28:17.000Z</time></trkpt><trkpt lon="5.674867" lat="51.093858"><ele>51.4</ele><time>2022-05-15T06:28:18.000Z</time></trkpt><trkpt lon="5.67497" lat="51.093838"><ele>51.4</ele><time>2022-05-15T06:28:19.000Z</time></trkpt><trkpt lon="5.675073" lat="51.093816"><ele>51.2</ele><time>2022-05-15T06:28:20.000Z</time></trkpt><trkpt lon="5.67517" lat="51.09379"><ele>51.2</ele><time>2022-05-15T06:28:21.000Z</time></trkpt><trkpt lon="5.675266" lat="51.093766"><ele>51.2</ele><time>2022-05-15T06:28:22.000Z</time></trkpt><trkpt lon="5.67536" lat="51.093739"><ele>51.2</ele><time>2022-05-15T06:28:23.000Z</time></trkpt><trkpt lon="5.67545" lat="51.093713"><ele>51.2</ele><time>2022-05-15T06:28:24.000Z</time></trkpt><trkpt lon="5.675539" lat="51.09369"><ele>51</ele><time>2022-05-15T06:28:25.000Z</time></trkpt><trkpt lon="5.67563" lat="51.093671"><ele>51</ele><time>2022-05-15T06:28:26.000Z</time></trkpt><trkpt lon="5.675713" lat="51.093645"><ele>51</ele><time>2022-05-15T06:28:27.000Z</time></trkpt><trkpt lon="5.675794" lat="51.093621"><ele>51</ele><time>2022-05-15T06:28:28.000Z</time></trkpt><trkpt lon="5.675862" lat="51.093591"><ele>51</ele><time>2022-05-15T06:28:29.000Z</time></trkpt><trkpt lon="5.675917" lat="51.09356"><ele>51</ele><time>2022-05-15T06:28:30.000Z</time></trkpt><trkpt lon="5.675941" lat="51.093515"><ele>51.2</ele><time>2022-05-15T06:28:31.000Z</time></trkpt><trkpt lon="5.675943" lat="51.093451"><ele>51.2</ele><time>2022-05-15T06:28:32.000Z</time></trkpt><trkpt lon="5.67595" lat="51.093387"><ele>51</ele><time>2022-05-15T06:28:33.000Z</time></trkpt><trkpt lon="5.675968" lat="51.093318"><ele>50.8</ele><time>2022-05-15T06:28:34.000Z</time></trkpt><trkpt lon="5.675991" lat="51.093245"><ele>50.8</ele><time>2022-05-15T06:28:35.000Z</time></trkpt><trkpt lon="5.676021" lat="51.093173"><ele>50.6</ele><time>2022-05-15T06:28:36.000Z</time></trkpt><trkpt lon="5.676052" lat="51.093104"><ele>50.6</ele><time>2022-05-15T06:28:37.000Z</time></trkpt><trkpt lon="5.676084" lat="51.093031"><ele>50.6</ele><time>2022-05-15T06:28:38.000Z</time></trkpt><trkpt lon="5.676114" lat="51.092962"><ele>50.6</ele><time>2022-05-15T06:28:39.000Z</time></trkpt><trkpt lon="5.676142" lat="51.092894"><ele>50.6</ele><time>2022-05-15T06:28:40.000Z</time></trkpt><trkpt lon="5.676169" lat="51.092826"><ele>50.6</ele><time>2022-05-15T06:28:41.000Z</time></trkpt><trkpt lon="5.676197" lat="51.092757"><ele>50.6</ele><time>2022-05-15T06:28:42.000Z</time></trkpt><trkpt lon="5.676227" lat="51.092688"><ele>50.4</ele><time>2022-05-15T06:28:43.000Z</time></trkpt><trkpt lon="5.676261" lat="51.092623"><ele>50.4</ele><time>2022-05-15T06:28:44.000Z</time></trkpt><trkpt lon="5.676298" lat="51.092555"><ele>50.6</ele><time>2022-05-15T06:28:45.000Z</time></trkpt><trkpt lon="5.676337" lat="51.09249"><ele>50.6</ele><time>2022-05-15T06:28:46.000Z</time></trkpt><trkpt lon="5.676379" lat="51.092425"><ele>50.6</ele><time>2022-05-15T06:28:47.000Z</time></trkpt><trkpt lon="5.676419" lat="51.092359"><ele>50.6</ele><time>2022-05-15T06:28:48.000Z</time></trkpt><trkpt lon="5.676464" lat="51.092295"><ele>50.6</ele><time>2022-05-15T06:28:49.000Z</time></trkpt><trkpt lon="5.676508" lat="51.092234"><ele>50.6</ele><time>2022-05-15T06:28:50.000Z</time></trkpt><trkpt lon="5.676555" lat="51.092173"><ele>50.6</ele><time>2022-05-15T06:28:51.000Z</time></trkpt><trkpt lon="5.676603" lat="51.092112"><ele>50.6</ele><time>2022-05-15T06:28:52.000Z</time></trkpt><trkpt lon="5.676654" lat="51.092052"><ele>50.6</ele><time>2022-05-15T06:28:53.000Z</time></trkpt><trkpt lon="5.676707" lat="51.09199"><ele>50.6</ele><time>2022-05-15T06:28:54.000Z</time></trkpt><trkpt lon="5.676759" lat="51.091929"><ele>50.6</ele><time>2022-05-15T06:28:55.000Z</time></trkpt><trkpt lon="5.67681" lat="51.091867"><ele>50.6</ele><time>2022-05-15T06:28:56.000Z</time></trkpt><trkpt lon="5.676864" lat="51.09181"><ele>50.6</ele><time>2022-05-15T06:28:57.000Z</time></trkpt><trkpt lon="5.676914" lat="51.091745"><ele>50.6</ele><time>2022-05-15T06:28:58.000Z</time></trkpt><trkpt lon="5.676964" lat="51.091686"><ele>50.6</ele><time>2022-05-15T06:28:59.000Z</time></trkpt><trkpt lon="5.677015" lat="51.091627"><ele>50.4</ele><time>2022-05-15T06:29:00.000Z</time></trkpt><trkpt lon="5.677065" lat="51.091562"><ele>50.4</ele><time>2022-05-15T06:29:01.000Z</time></trkpt><trkpt lon="5.677113" lat="51.091502"><ele>50.2</ele><time>2022-05-15T06:29:02.000Z</time></trkpt><trkpt lon="5.677163" lat="51.091441"><ele>50</ele><time>2022-05-15T06:29:03.000Z</time></trkpt><trkpt lon="5.677217" lat="51.091379"><ele>50</ele><time>2022-05-15T06:29:04.000Z</time></trkpt><trkpt lon="5.677272" lat="51.091321"><ele>49.8</ele><time>2022-05-15T06:29:05.000Z</time></trkpt><trkpt lon="5.677323" lat="51.091257"><ele>49.8</ele><time>2022-05-15T06:29:06.000Z</time></trkpt><trkpt lon="5.677375" lat="51.091196"><ele>49.8</ele><time>2022-05-15T06:29:07.000Z</time></trkpt><trkpt lon="5.677426" lat="51.091135"><ele>49.6</ele><time>2022-05-15T06:29:08.000Z</time></trkpt><trkpt lon="5.677479" lat="51.09107"><ele>49.4</ele><time>2022-05-15T06:29:09.000Z</time></trkpt><trkpt lon="5.67753" lat="51.09101"><ele>49.4</ele><time>2022-05-15T06:29:10.000Z</time></trkpt><trkpt lon="5.677578" lat="51.090944"><ele>49.2</ele><time>2022-05-15T06:29:11.000Z</time></trkpt><trkpt lon="5.677626" lat="51.090885"><ele>49.2</ele><time>2022-05-15T06:29:12.000Z</time></trkpt><trkpt lon="5.677675" lat="51.090819"><ele>49.2</ele><time>2022-05-15T06:29:13.000Z</time></trkpt><trkpt lon="5.677722" lat="51.090754"><ele>49.2</ele><time>2022-05-15T06:29:14.000Z</time></trkpt><trkpt lon="5.67777" lat="51.090693"><ele>49.2</ele><time>2022-05-15T06:29:15.000Z</time></trkpt><trkpt lon="5.677817" lat="51.090629"><ele>49.2</ele><time>2022-05-15T06:29:16.000Z</time></trkpt><trkpt lon="5.677863" lat="51.090563"><ele>49.2</ele><time>2022-05-15T06:29:17.000Z</time></trkpt><trkpt lon="5.677909" lat="51.090498"><ele>49</ele><time>2022-05-15T06:29:18.000Z</time></trkpt><trkpt lon="5.67795" lat="51.090434"><ele>49</ele><time>2022-05-15T06:29:19.000Z</time></trkpt><trkpt lon="5.677992" lat="51.090369"><ele>48.8</ele><time>2022-05-15T06:29:20.000Z</time></trkpt><trkpt lon="5.678035" lat="51.090304"><ele>48.8</ele><time>2022-05-15T06:29:21.000Z</time></trkpt><trkpt lon="5.678077" lat="51.090239"><ele>48.8</ele><time>2022-05-15T06:29:22.000Z</time></trkpt><trkpt lon="5.678119" lat="51.090174"><ele>48.6</ele><time>2022-05-15T06:29:23.000Z</time></trkpt><trkpt lon="5.67816" lat="51.090109"><ele>48.6</ele><time>2022-05-15T06:29:24.000Z</time></trkpt><trkpt lon="5.678198" lat="51.090048"><ele>48.6</ele><time>2022-05-15T06:29:25.000Z</time></trkpt><trkpt lon="5.678236" lat="51.089989"><ele>48.6</ele><time>2022-05-15T06:29:26.000Z</time></trkpt><trkpt lon="5.678277" lat="51.089922"><ele>48.6</ele><time>2022-05-15T06:29:27.000Z</time></trkpt><trkpt lon="5.678314" lat="51.089857"><ele>48.4</ele><time>2022-05-15T06:29:28.000Z</time></trkpt><trkpt lon="5.678349" lat="51.089793"><ele>48.4</ele><time>2022-05-15T06:29:29.000Z</time></trkpt><trkpt lon="5.678384" lat="51.089731"><ele>48.4</ele><time>2022-05-15T06:29:30.000Z</time></trkpt><trkpt lon="5.678417" lat="51.089663"><ele>48.2</ele><time>2022-05-15T06:29:31.000Z</time></trkpt><trkpt lon="5.67845" lat="51.089599"><ele>48.2</ele><time>2022-05-15T06:29:32.000Z</time></trkpt><trkpt lon="5.678482" lat="51.089533"><ele>48.2</ele><time>2022-05-15T06:29:33.000Z</time></trkpt><trkpt lon="5.678511" lat="51.089472"><ele>48.2</ele><time>2022-05-15T06:29:34.000Z</time></trkpt><trkpt lon="5.678537" lat="51.089408"><ele>48</ele><time>2022-05-15T06:29:35.000Z</time></trkpt><trkpt lon="5.678563" lat="51.089343"><ele>48</ele><time>2022-05-15T06:29:36.000Z</time></trkpt><trkpt lon="5.678592" lat="51.08927"><ele>48</ele><time>2022-05-15T06:29:37.000Z</time></trkpt><trkpt lon="5.678621" lat="51.089205"><ele>48</ele><time>2022-05-15T06:29:38.000Z</time></trkpt><trkpt lon="5.678646" lat="51.089136"><ele>47.8</ele><time>2022-05-15T06:29:39.000Z</time></trkpt><trkpt lon="5.678671" lat="51.089068"><ele>47.8</ele><time>2022-05-15T06:29:40.000Z</time></trkpt><trkpt lon="5.678693" lat="51.088999"><ele>47.8</ele><time>2022-05-15T06:29:41.000Z</time></trkpt><trkpt lon="5.678716" lat="51.088932"><ele>47.8</ele><time>2022-05-15T06:29:42.000Z</time></trkpt><trkpt lon="5.678741" lat="51.088861"><ele>48</ele><time>2022-05-15T06:29:43.000Z</time></trkpt><trkpt lon="5.678764" lat="51.088797"><ele>48</ele><time>2022-05-15T06:29:44.000Z</time></trkpt><trkpt lon="5.678787" lat="51.088729"><ele>48</ele><time>2022-05-15T06:29:45.000Z</time></trkpt><trkpt lon="5.678809" lat="51.08866"><ele>48</ele><time>2022-05-15T06:29:46.000Z</time></trkpt><trkpt lon="5.678831" lat="51.088591"><ele>48</ele><time>2022-05-15T06:29:47.000Z</time></trkpt><trkpt lon="5.678854" lat="51.088523"><ele>48.2</ele><time>2022-05-15T06:29:48.000Z</time></trkpt><trkpt lon="5.678877" lat="51.088458"><ele>48.4</ele><time>2022-05-15T06:29:49.000Z</time></trkpt><trkpt lon="5.678901" lat="51.088393"><ele>48.4</ele><time>2022-05-15T06:29:50.000Z</time></trkpt><trkpt lon="5.678924" lat="51.088332"><ele>48.6</ele><time>2022-05-15T06:29:51.000Z</time></trkpt><trkpt lon="5.678945" lat="51.08827"><ele>48.8</ele><time>2022-05-15T06:29:52.000Z</time></trkpt><trkpt lon="5.678967" lat="51.088211"><ele>49</ele><time>2022-05-15T06:29:53.000Z</time></trkpt><trkpt lon="5.678988" lat="51.088148"><ele>49.2</ele><time>2022-05-15T06:29:54.000Z</time></trkpt><trkpt lon="5.679006" lat="51.088092"><ele>49.4</ele><time>2022-05-15T06:29:55.000Z</time></trkpt><trkpt lon="5.679023" lat="51.088034"><ele>49.6</ele><time>2022-05-15T06:29:56.000Z</time></trkpt><trkpt lon="5.679041" lat="51.087976"><ele>49.8</ele><time>2022-05-15T06:29:57.000Z</time></trkpt><trkpt lon="5.679063" lat="51.087923"><ele>50</ele><time>2022-05-15T06:29:58.000Z</time></trkpt><trkpt lon="5.679084" lat="51.087869"><ele>50.2</ele><time>2022-05-15T06:29:59.000Z</time></trkpt><trkpt lon="5.679107" lat="51.087816"><ele>50.4</ele><time>2022-05-15T06:30:00.000Z</time></trkpt><trkpt lon="5.679131" lat="51.087763"><ele>50.6</ele><time>2022-05-15T06:30:01.000Z</time></trkpt><trkpt lon="5.679155" lat="51.087707"><ele>50.6</ele><time>2022-05-15T06:30:02.000Z</time></trkpt><trkpt lon="5.679186" lat="51.087651"><ele>50.6</ele><time>2022-05-15T06:30:03.000Z</time></trkpt><trkpt lon="5.679217" lat="51.087596"><ele>50.6</ele><time>2022-05-15T06:30:04.000Z</time></trkpt><trkpt lon="5.679248" lat="51.087535"><ele>50.8</ele><time>2022-05-15T06:30:05.000Z</time></trkpt><trkpt lon="5.679282" lat="51.087477"><ele>50.8</ele><time>2022-05-15T06:30:06.000Z</time></trkpt><trkpt lon="5.679316" lat="51.087412"><ele>51</ele><time>2022-05-15T06:30:07.000Z</time></trkpt><trkpt lon="5.679348" lat="51.087356"><ele>51</ele><time>2022-05-15T06:30:08.000Z</time></trkpt><trkpt lon="5.679382" lat="51.087295"><ele>51</ele><time>2022-05-15T06:30:09.000Z</time></trkpt><trkpt lon="5.679417" lat="51.087238"><ele>51</ele><time>2022-05-15T06:30:10.000Z</time></trkpt><trkpt lon="5.679455" lat="51.087176"><ele>51</ele><time>2022-05-15T06:30:11.000Z</time></trkpt><trkpt lon="5.679495" lat="51.087114"><ele>51</ele><time>2022-05-15T06:30:12.000Z</time></trkpt><trkpt lon="5.679535" lat="51.087057"><ele>51.2</ele><time>2022-05-15T06:30:13.000Z</time></trkpt><trkpt lon="5.679575" lat="51.086993"><ele>51.2</ele><time>2022-05-15T06:30:14.000Z</time></trkpt><trkpt lon="5.679617" lat="51.086931"><ele>51.4</ele><time>2022-05-15T06:30:15.000Z</time></trkpt><trkpt lon="5.679656" lat="51.086868"><ele>51.4</ele><time>2022-05-15T06:30:16.000Z</time></trkpt><trkpt lon="5.679698" lat="51.086802"><ele>51.6</ele><time>2022-05-15T06:30:17.000Z</time></trkpt><trkpt lon="5.67974" lat="51.086738"><ele>51.6</ele><time>2022-05-15T06:30:18.000Z</time></trkpt><trkpt lon="5.679779" lat="51.086672"><ele>51.6</ele><time>2022-05-15T06:30:19.000Z</time></trkpt><trkpt lon="5.679816" lat="51.08661"><ele>51.6</ele><time>2022-05-15T06:30:20.000Z</time></trkpt><trkpt lon="5.679854" lat="51.086554"><ele>51.8</ele><time>2022-05-15T06:30:21.000Z</time></trkpt><trkpt lon="5.67989" lat="51.086489"><ele>51.8</ele><time>2022-05-15T06:30:22.000Z</time></trkpt><trkpt lon="5.679926" lat="51.086431"><ele>51.8</ele><time>2022-05-15T06:30:23.000Z</time></trkpt><trkpt lon="5.679961" lat="51.086371"><ele>51.8</ele><time>2022-05-15T06:30:24.000Z</time></trkpt><trkpt lon="5.679998" lat="51.086313"><ele>51.8</ele><time>2022-05-15T06:30:25.000Z</time></trkpt><trkpt lon="5.680039" lat="51.086252"><ele>52</ele><time>2022-05-15T06:30:26.000Z</time></trkpt><trkpt lon="5.680074" lat="51.086195"><ele>52.2</ele><time>2022-05-15T06:30:27.000Z</time></trkpt><trkpt lon="5.680111" lat="51.086134"><ele>52.2</ele><time>2022-05-15T06:30:28.000Z</time></trkpt><trkpt lon="5.680149" lat="51.086077"><ele>52.4</ele><time>2022-05-15T06:30:29.000Z</time></trkpt><trkpt lon="5.680189" lat="51.08602"><ele>52.4</ele><time>2022-05-15T06:30:30.000Z</time></trkpt><trkpt lon="5.680227" lat="51.085963"><ele>52.6</ele><time>2022-05-15T06:30:31.000Z</time></trkpt><trkpt lon="5.680265" lat="51.085905"><ele>52.6</ele><time>2022-05-15T06:30:32.000Z</time></trkpt><trkpt lon="5.680304" lat="51.085848"><ele>52.8</ele><time>2022-05-15T06:30:33.000Z</time></trkpt><trkpt lon="5.680342" lat="51.085791"><ele>53</ele><time>2022-05-15T06:30:34.000Z</time></trkpt><trkpt lon="5.680381" lat="51.085729"><ele>53</ele><time>2022-05-15T06:30:35.000Z</time></trkpt><trkpt lon="5.680419" lat="51.085672"><ele>53.2</ele><time>2022-05-15T06:30:36.000Z</time></trkpt><trkpt lon="5.680457" lat="51.085615"><ele>53.2</ele><time>2022-05-15T06:30:37.000Z</time></trkpt><trkpt lon="5.680497" lat="51.085562"><ele>53.2</ele><time>2022-05-15T06:30:38.000Z</time></trkpt><trkpt lon="5.680533" lat="51.085502"><ele>53.2</ele><time>2022-05-15T06:30:39.000Z</time></trkpt><trkpt lon="5.680573" lat="51.085444"><ele>53.2</ele><time>2022-05-15T06:30:40.000Z</time></trkpt><trkpt lon="5.680615" lat="51.085387"><ele>53.2</ele><time>2022-05-15T06:30:41.000Z</time></trkpt><trkpt lon="5.680657" lat="51.085325"><ele>53</ele><time>2022-05-15T06:30:42.000Z</time></trkpt><trkpt lon="5.680698" lat="51.085264"><ele>53</ele><time>2022-05-15T06:30:43.000Z</time></trkpt><trkpt lon="5.68074" lat="51.085203"><ele>53</ele><time>2022-05-15T06:30:44.000Z</time></trkpt><trkpt lon="5.680779" lat="51.085143"><ele>52.8</ele><time>2022-05-15T06:30:45.000Z</time></trkpt><trkpt lon="5.680817" lat="51.08508"><ele>52.8</ele><time>2022-05-15T06:30:46.000Z</time></trkpt><trkpt lon="5.680857" lat="51.085016"><ele>52.8</ele><time>2022-05-15T06:30:47.000Z</time></trkpt><trkpt lon="5.680896" lat="51.084955"><ele>52.6</ele><time>2022-05-15T06:30:48.000Z</time></trkpt><trkpt lon="5.680936" lat="51.084891"><ele>52.6</ele><time>2022-05-15T06:30:49.000Z</time></trkpt><trkpt lon="5.680974" lat="51.084829"><ele>52.4</ele><time>2022-05-15T06:30:50.000Z</time></trkpt><trkpt lon="5.681013" lat="51.084772"><ele>52.2</ele><time>2022-05-15T06:30:51.000Z</time></trkpt><trkpt lon="5.681052" lat="51.084708"><ele>52</ele><time>2022-05-15T06:30:52.000Z</time></trkpt><trkpt lon="5.681092" lat="51.084652"><ele>52</ele><time>2022-05-15T06:30:53.000Z</time></trkpt><trkpt lon="5.681134" lat="51.084586"><ele>51.8</ele><time>2022-05-15T06:30:54.000Z</time></trkpt><trkpt lon="5.681175" lat="51.084528"><ele>51.6</ele><time>2022-05-15T06:30:55.000Z</time></trkpt><trkpt lon="5.681217" lat="51.084467"><ele>51.4</ele><time>2022-05-15T06:30:56.000Z</time></trkpt><trkpt lon="5.681257" lat="51.08441"><ele>51.2</ele><time>2022-05-15T06:30:57.000Z</time></trkpt><trkpt lon="5.681297" lat="51.084352"><ele>51</ele><time>2022-05-15T06:30:58.000Z</time></trkpt><trkpt lon="5.681336" lat="51.084299"><ele>50.8</ele><time>2022-05-15T06:30:59.000Z</time></trkpt><trkpt lon="5.681367" lat="51.084242"><ele>50.6</ele><time>2022-05-15T06:31:00.000Z</time></trkpt><trkpt lon="5.681393" lat="51.084188"><ele>50.4</ele><time>2022-05-15T06:31:01.000Z</time></trkpt><trkpt lon="5.681418" lat="51.084138"><ele>50.2</ele><time>2022-05-15T06:31:02.000Z</time></trkpt><trkpt lon="5.681444" lat="51.084089"><ele>50</ele><time>2022-05-15T06:31:03.000Z</time></trkpt><trkpt lon="5.681467" lat="51.08404"><ele>49.8</ele><time>2022-05-15T06:31:04.000Z</time></trkpt><trkpt lon="5.681493" lat="51.083989"><ele>49.6</ele><time>2022-05-15T06:31:05.000Z</time></trkpt><trkpt lon="5.681518" lat="51.083943"><ele>49.4</ele><time>2022-05-15T06:31:06.000Z</time></trkpt><trkpt lon="5.681539" lat="51.083898"><ele>49.2</ele><time>2022-05-15T06:31:07.000Z</time></trkpt><trkpt lon="5.681557" lat="51.08386"><ele>49.2</ele><time>2022-05-15T06:31:08.000Z</time></trkpt><trkpt lon="5.681576" lat="51.083833"><ele>49</ele><time>2022-05-15T06:31:09.000Z</time></trkpt><trkpt lon="5.681599" lat="51.083806"><ele>49</ele><time>2022-05-15T06:31:10.000Z</time></trkpt><trkpt lon="5.681637" lat="51.08378"><ele>49</ele><time>2022-05-15T06:31:11.000Z</time></trkpt><trkpt lon="5.681685" lat="51.083764"><ele>48.8</ele><time>2022-05-15T06:31:12.000Z</time></trkpt><trkpt lon="5.68175" lat="51.083752"><ele>48.8</ele><time>2022-05-15T06:31:13.000Z</time></trkpt><trkpt lon="5.681819" lat="51.083733"><ele>48.8</ele><time>2022-05-15T06:31:14.000Z</time></trkpt><trkpt lon="5.681883" lat="51.083703"><ele>48.6</ele><time>2022-05-15T06:31:15.000Z</time></trkpt><trkpt lon="5.681937" lat="51.083666"><ele>48.4</ele><time>2022-05-15T06:31:16.000Z</time></trkpt><trkpt lon="5.681988" lat="51.08362"><ele>48.2</ele><time>2022-05-15T06:31:17.000Z</time></trkpt><trkpt lon="5.682037" lat="51.083567"><ele>48</ele><time>2022-05-15T06:31:18.000Z</time></trkpt><trkpt lon="5.682088" lat="51.083513"><ele>47.8</ele><time>2022-05-15T06:31:19.000Z</time></trkpt><trkpt lon="5.682135" lat="51.08346"><ele>47.6</ele><time>2022-05-15T06:31:20.000Z</time></trkpt><trkpt lon="5.682182" lat="51.08341"><ele>47.4</ele><time>2022-05-15T06:31:21.000Z</time></trkpt><trkpt lon="5.682228" lat="51.083364"><ele>47.2</ele><time>2022-05-15T06:31:22.000Z</time></trkpt><trkpt lon="5.682275" lat="51.083315"><ele>47</ele><time>2022-05-15T06:31:23.000Z</time></trkpt><trkpt lon="5.682323" lat="51.083261"><ele>46.8</ele><time>2022-05-15T06:31:24.000Z</time></trkpt><trkpt lon="5.682369" lat="51.083216"><ele>46.8</ele><time>2022-05-15T06:31:25.000Z</time></trkpt><trkpt lon="5.682414" lat="51.083169"><ele>46.6</ele><time>2022-05-15T06:31:26.000Z</time></trkpt><trkpt lon="5.682447" lat="51.08312"><ele>46.4</ele><time>2022-05-15T06:31:27.000Z</time></trkpt><trkpt lon="5.682465" lat="51.083067"><ele>46.4</ele><time>2022-05-15T06:31:28.000Z</time></trkpt><trkpt lon="5.682473" lat="51.083013"><ele>46.2</ele><time>2022-05-15T06:31:29.000Z</time></trkpt><trkpt lon="5.68248" lat="51.08296"><ele>46.2</ele><time>2022-05-15T06:31:30.000Z</time></trkpt><trkpt lon="5.682478" lat="51.082907"><ele>46</ele><time>2022-05-15T06:31:31.000Z</time></trkpt><trkpt lon="5.682467" lat="51.082849"><ele>46</ele><time>2022-05-15T06:31:32.000Z</time></trkpt><trkpt lon="5.682455" lat="51.082781"><ele>45.8</ele><time>2022-05-15T06:31:33.000Z</time></trkpt><trkpt lon="5.682445" lat="51.082708"><ele>45.8</ele><time>2022-05-15T06:31:34.000Z</time></trkpt><trkpt lon="5.682445" lat="51.082636"><ele>45.6</ele><time>2022-05-15T06:31:35.000Z</time></trkpt><trkpt lon="5.682448" lat="51.082556"><ele>45.6</ele><time>2022-05-15T06:31:36.000Z</time></trkpt><trkpt lon="5.682455" lat="51.082477"><ele>45.6</ele><time>2022-05-15T06:31:37.000Z</time></trkpt><trkpt lon="5.682468" lat="51.082407"><ele>45.6</ele><time>2022-05-15T06:31:38.000Z</time></trkpt><trkpt lon="5.682491" lat="51.082339"><ele>45.6</ele><time>2022-05-15T06:31:39.000Z</time></trkpt><trkpt lon="5.682523" lat="51.082269"><ele>45.6</ele><time>2022-05-15T06:31:40.000Z</time></trkpt><trkpt lon="5.682557" lat="51.082203"><ele>45.6</ele><time>2022-05-15T06:31:41.000Z</time></trkpt><trkpt lon="5.682593" lat="51.082138"><ele>45.6</ele><time>2022-05-15T06:31:42.000Z</time></trkpt><trkpt lon="5.682634" lat="51.082075"><ele>45.6</ele><time>2022-05-15T06:31:43.000Z</time></trkpt><trkpt lon="5.682672" lat="51.08201"><ele>45.6</ele><time>2022-05-15T06:31:44.000Z</time></trkpt><trkpt lon="5.682715" lat="51.081946"><ele>45.6</ele><time>2022-05-15T06:31:45.000Z</time></trkpt><trkpt lon="5.682758" lat="51.081878"><ele>45.8</ele><time>2022-05-15T06:31:46.000Z</time></trkpt><trkpt lon="5.6828" lat="51.081812"><ele>45.8</ele><time>2022-05-15T06:31:47.000Z</time></trkpt><trkpt lon="5.682842" lat="51.081747"><ele>45.8</ele><time>2022-05-15T06:31:48.000Z</time></trkpt><trkpt lon="5.68288" lat="51.081683"><ele>46</ele><time>2022-05-15T06:31:49.000Z</time></trkpt><trkpt lon="5.682917" lat="51.081625"><ele>46</ele><time>2022-05-15T06:31:50.000Z</time></trkpt><trkpt lon="5.682951" lat="51.081564"><ele>46</ele><time>2022-05-15T06:31:51.000Z</time></trkpt><trkpt lon="5.682984" lat="51.081503"><ele>46</ele><time>2022-05-15T06:31:52.000Z</time></trkpt><trkpt lon="5.683022" lat="51.081442"><ele>46</ele><time>2022-05-15T06:31:53.000Z</time></trkpt><trkpt lon="5.683057" lat="51.08137"><ele>46.2</ele><time>2022-05-15T06:31:54.000Z</time></trkpt><trkpt lon="5.683089" lat="51.081297"><ele>46.2</ele><time>2022-05-15T06:31:55.000Z</time></trkpt><trkpt lon="5.683122" lat="51.081225"><ele>46.4</ele><time>2022-05-15T06:31:56.000Z</time></trkpt><trkpt lon="5.683159" lat="51.081156"><ele>46.4</ele><time>2022-05-15T06:31:57.000Z</time></trkpt><trkpt lon="5.6832" lat="51.081091"><ele>46.4</ele><time>2022-05-15T06:31:58.000Z</time></trkpt><trkpt lon="5.683245" lat="51.08103"><ele>46.6</ele><time>2022-05-15T06:31:59.000Z</time></trkpt><trkpt lon="5.68329" lat="51.080966"><ele>46.6</ele><time>2022-05-15T06:32:00.000Z</time></trkpt><trkpt lon="5.683335" lat="51.080904"><ele>46.6</ele><time>2022-05-15T06:32:01.000Z</time></trkpt><trkpt lon="5.683379" lat="51.080843"><ele>46.6</ele><time>2022-05-15T06:32:02.000Z</time></trkpt><trkpt lon="5.683417" lat="51.080782"><ele>46.8</ele><time>2022-05-15T06:32:03.000Z</time></trkpt><trkpt lon="5.683457" lat="51.080721"><ele>46.8</ele><time>2022-05-15T06:32:04.000Z</time></trkpt><trkpt lon="5.683496" lat="51.080668"><ele>46.8</ele><time>2022-05-15T06:32:05.000Z</time></trkpt><trkpt lon="5.683534" lat="51.080614"><ele>47</ele><time>2022-05-15T06:32:06.000Z</time></trkpt><trkpt lon="5.683578" lat="51.080557"><ele>47</ele><time>2022-05-15T06:32:07.000Z</time></trkpt><trkpt lon="5.683622" lat="51.080503"><ele>47</ele><time>2022-05-15T06:32:08.000Z</time></trkpt><trkpt lon="5.683664" lat="51.080446"><ele>47</ele><time>2022-05-15T06:32:09.000Z</time></trkpt><trkpt lon="5.683707" lat="51.080389"><ele>47.2</ele><time>2022-05-15T06:32:10.000Z</time></trkpt><trkpt lon="5.683749" lat="51.080332"><ele>47.2</ele><time>2022-05-15T06:32:11.000Z</time></trkpt><trkpt lon="5.683789" lat="51.080278"><ele>47.4</ele><time>2022-05-15T06:32:12.000Z</time></trkpt><trkpt lon="5.683827" lat="51.080225"><ele>47.4</ele><time>2022-05-15T06:32:13.000Z</time></trkpt><trkpt lon="5.68386" lat="51.080168"><ele>47.6</ele><time>2022-05-15T06:32:14.000Z</time></trkpt><trkpt lon="5.683894" lat="51.080118"><ele>47.6</ele><time>2022-05-15T06:32:15.000Z</time></trkpt><trkpt lon="5.68392" lat="51.080072"><ele>47.8</ele><time>2022-05-15T06:32:16.000Z</time></trkpt><trkpt lon="5.683933" lat="51.080015"><ele>47.8</ele><time>2022-05-15T06:32:17.000Z</time></trkpt><trkpt lon="5.683914" lat="51.079965"><ele>48</ele><time>2022-05-15T06:32:18.000Z</time></trkpt><trkpt lon="5.683865" lat="51.079923"><ele>48</ele><time>2022-05-15T06:32:19.000Z</time></trkpt><trkpt lon="5.683793" lat="51.079893"><ele>48.2</ele><time>2022-05-15T06:32:20.000Z</time></trkpt><trkpt lon="5.683697" lat="51.079862"><ele>48.2</ele><time>2022-05-15T06:32:21.000Z</time></trkpt><trkpt lon="5.683597" lat="51.079835"><ele>48.4</ele><time>2022-05-15T06:32:22.000Z</time></trkpt><trkpt lon="5.683497" lat="51.079809"><ele>48.4</ele><time>2022-05-15T06:32:23.000Z</time></trkpt><trkpt lon="5.683394" lat="51.079782"><ele>48.6</ele><time>2022-05-15T06:32:24.000Z</time></trkpt><trkpt lon="5.683293" lat="51.079755"><ele>48.6</ele><time>2022-05-15T06:32:25.000Z</time></trkpt><trkpt lon="5.683195" lat="51.079729"><ele>48.8</ele><time>2022-05-15T06:32:26.000Z</time></trkpt><trkpt lon="5.683092" lat="51.079701"><ele>49</ele><time>2022-05-15T06:32:27.000Z</time></trkpt><trkpt lon="5.682993" lat="51.079678"><ele>49</ele><time>2022-05-15T06:32:28.000Z</time></trkpt><trkpt lon="5.682897" lat="51.079652"><ele>49.2</ele><time>2022-05-15T06:32:29.000Z</time></trkpt><trkpt lon="5.682802" lat="51.079621"><ele>49.4</ele><time>2022-05-15T06:32:30.000Z</time></trkpt><trkpt lon="5.682709" lat="51.079595"><ele>49.4</ele><time>2022-05-15T06:32:31.000Z</time></trkpt><trkpt lon="5.682618" lat="51.079564"><ele>49.6</ele><time>2022-05-15T06:32:32.000Z</time></trkpt><trkpt lon="5.682529" lat="51.079526"><ele>49.8</ele><time>2022-05-15T06:32:33.000Z</time></trkpt><trkpt lon="5.682443" lat="51.079492"><ele>49.8</ele><time>2022-05-15T06:32:34.000Z</time></trkpt><trkpt lon="5.682357" lat="51.079457"><ele>50</ele><time>2022-05-15T06:32:35.000Z</time></trkpt><trkpt lon="5.682272" lat="51.079423"><ele>50</ele><time>2022-05-15T06:32:36.000Z</time></trkpt><trkpt lon="5.682184" lat="51.079389"><ele>50</ele><time>2022-05-15T06:32:37.000Z</time></trkpt><trkpt lon="5.682098" lat="51.079354"><ele>50.2</ele><time>2022-05-15T06:32:38.000Z</time></trkpt><trkpt lon="5.682006" lat="51.079324"><ele>50.2</ele><time>2022-05-15T06:32:39.000Z</time></trkpt><trkpt lon="5.681914" lat="51.07929"><ele>50.2</ele><time>2022-05-15T06:32:40.000Z</time></trkpt><trkpt lon="5.681819" lat="51.079259"><ele>50.2</ele><time>2022-05-15T06:32:41.000Z</time></trkpt><trkpt lon="5.681723" lat="51.079228"><ele>50.2</ele><time>2022-05-15T06:32:42.000Z</time></trkpt><trkpt lon="5.681625" lat="51.079198"><ele>50.2</ele><time>2022-05-15T06:32:43.000Z</time></trkpt><trkpt lon="5.681528" lat="51.079171"><ele>50.2</ele><time>2022-05-15T06:32:44.000Z</time></trkpt><trkpt lon="5.681431" lat="51.079148"><ele>50.2</ele><time>2022-05-15T06:32:45.000Z</time></trkpt><trkpt lon="5.681337" lat="51.079126"><ele>50.2</ele><time>2022-05-15T06:32:46.000Z</time></trkpt><trkpt lon="5.681232" lat="51.079106"><ele>50</ele><time>2022-05-15T06:32:47.000Z</time></trkpt><trkpt lon="5.681127" lat="51.079083"><ele>50</ele><time>2022-05-15T06:32:48.000Z</time></trkpt><trkpt lon="5.681022" lat="51.079064"><ele>49.8</ele><time>2022-05-15T06:32:49.000Z</time></trkpt><trkpt lon="5.680917" lat="51.079041"><ele>49.8</ele><time>2022-05-15T06:32:50.000Z</time></trkpt><trkpt lon="5.680812" lat="51.079022"><ele>49.8</ele><time>2022-05-15T06:32:51.000Z</time></trkpt><trkpt lon="5.680709" lat="51.079003"><ele>49.6</ele><time>2022-05-15T06:32:52.000Z</time></trkpt><trkpt lon="5.6806" lat="51.07898"><ele>49.6</ele><time>2022-05-15T06:32:53.000Z</time></trkpt><trkpt lon="5.680494" lat="51.078961"><ele>49.6</ele><time>2022-05-15T06:32:54.000Z</time></trkpt><trkpt lon="5.680385" lat="51.078942"><ele>49.6</ele><time>2022-05-15T06:32:55.000Z</time></trkpt><trkpt lon="5.680274" lat="51.078919"><ele>49.6</ele><time>2022-05-15T06:32:56.000Z</time></trkpt><trkpt lon="5.680162" lat="51.0789"><ele>49.4</ele><time>2022-05-15T06:32:57.000Z</time></trkpt><trkpt lon="5.680051" lat="51.078877"><ele>49.4</ele><time>2022-05-15T06:32:58.000Z</time></trkpt><trkpt lon="5.679944" lat="51.078858"><ele>49.4</ele><time>2022-05-15T06:32:59.000Z</time></trkpt><trkpt lon="5.679834" lat="51.078839"><ele>49.2</ele><time>2022-05-15T06:33:00.000Z</time></trkpt><trkpt lon="5.679719" lat="51.078816"><ele>49.2</ele><time>2022-05-15T06:33:01.000Z</time></trkpt><trkpt lon="5.679608" lat="51.078797"><ele>49</ele><time>2022-05-15T06:33:02.000Z</time></trkpt><trkpt lon="5.679498" lat="51.078774"><ele>49</ele><time>2022-05-15T06:33:03.000Z</time></trkpt><trkpt lon="5.67939" lat="51.078759"><ele>49.2</ele><time>2022-05-15T06:33:04.000Z</time></trkpt><trkpt lon="5.679282" lat="51.078736"><ele>49.2</ele><time>2022-05-15T06:33:05.000Z</time></trkpt><trkpt lon="5.679175" lat="51.078721"><ele>49.2</ele><time>2022-05-15T06:33:06.000Z</time></trkpt><trkpt lon="5.679071" lat="51.078698"><ele>49.2</ele><time>2022-05-15T06:33:07.000Z</time></trkpt><trkpt lon="5.678966" lat="51.078679"><ele>49.2</ele><time>2022-05-15T06:33:08.000Z</time></trkpt><trkpt lon="5.678862" lat="51.07866"><ele>49.2</ele><time>2022-05-15T06:33:09.000Z</time></trkpt><trkpt lon="5.678753" lat="51.078641"><ele>49.2</ele><time>2022-05-15T06:33:10.000Z</time></trkpt><trkpt lon="5.678645" lat="51.078622"><ele>49.2</ele><time>2022-05-15T06:33:11.000Z</time></trkpt><trkpt lon="5.678538" lat="51.078603"><ele>49.2</ele><time>2022-05-15T06:33:12.000Z</time></trkpt><trkpt lon="5.67843" lat="51.07858"><ele>49.2</ele><time>2022-05-15T06:33:13.000Z</time></trkpt><trkpt lon="5.678324" lat="51.078561"><ele>49.2</ele><time>2022-05-15T06:33:14.000Z</time></trkpt><trkpt lon="5.678221" lat="51.078538"><ele>49.2</ele><time>2022-05-15T06:33:15.000Z</time></trkpt><trkpt lon="5.678118" lat="51.078519"><ele>49.2</ele><time>2022-05-15T06:33:16.000Z</time></trkpt><trkpt lon="5.678009" lat="51.078496"><ele>49</ele><time>2022-05-15T06:33:17.000Z</time></trkpt><trkpt lon="5.6779" lat="51.078469"><ele>49</ele><time>2022-05-15T06:33:18.000Z</time></trkpt><trkpt lon="5.677789" lat="51.07845"><ele>49</ele><time>2022-05-15T06:33:19.000Z</time></trkpt><trkpt lon="5.677677" lat="51.078427"><ele>48.8</ele><time>2022-05-15T06:33:20.000Z</time></trkpt><trkpt lon="5.677566" lat="51.078404"><ele>48.6</ele><time>2022-05-15T06:33:21.000Z</time></trkpt><trkpt lon="5.677455" lat="51.078378"><ele>48.6</ele><time>2022-05-15T06:33:22.000Z</time></trkpt><trkpt lon="5.677346" lat="51.078347"><ele>48.6</ele><time>2022-05-15T06:33:23.000Z</time></trkpt><trkpt lon="5.677244" lat="51.078317"><ele>48.4</ele><time>2022-05-15T06:33:24.000Z</time></trkpt><trkpt lon="5.677142" lat="51.078279"><ele>48.4</ele><time>2022-05-15T06:33:25.000Z</time></trkpt><trkpt lon="5.677043" lat="51.078244"><ele>48.4</ele><time>2022-05-15T06:33:26.000Z</time></trkpt><trkpt lon="5.676951" lat="51.078202"><ele>48.2</ele><time>2022-05-15T06:33:27.000Z</time></trkpt><trkpt lon="5.676865" lat="51.078162"><ele>48.2</ele><time>2022-05-15T06:33:28.000Z</time></trkpt><trkpt lon="5.676776" lat="51.078119"><ele>48.2</ele><time>2022-05-15T06:33:29.000Z</time></trkpt><trkpt lon="5.67669" lat="51.078073"><ele>48.4</ele><time>2022-05-15T06:33:30.000Z</time></trkpt><trkpt lon="5.676608" lat="51.078027"><ele>48.4</ele><time>2022-05-15T06:33:31.000Z</time></trkpt><trkpt lon="5.676529" lat="51.077981"><ele>48.4</ele><time>2022-05-15T06:33:32.000Z</time></trkpt><trkpt lon="5.676455" lat="51.077929"><ele>48.4</ele><time>2022-05-15T06:33:33.000Z</time></trkpt><trkpt lon="5.676379" lat="51.077882"><ele>48.4</ele><time>2022-05-15T06:33:34.000Z</time></trkpt><trkpt lon="5.676307" lat="51.077835"><ele>48.4</ele><time>2022-05-15T06:33:35.000Z</time></trkpt><trkpt lon="5.67623" lat="51.077779"><ele>48.4</ele><time>2022-05-15T06:33:36.000Z</time></trkpt><trkpt lon="5.676161" lat="51.07773"><ele>48.2</ele><time>2022-05-15T06:33:37.000Z</time></trkpt><trkpt lon="5.676092" lat="51.077679"><ele>48.2</ele><time>2022-05-15T06:33:38.000Z</time></trkpt><trkpt lon="5.676017" lat="51.077627"><ele>48.2</ele><time>2022-05-15T06:33:39.000Z</time></trkpt><trkpt lon="5.675946" lat="51.077574"><ele>48.2</ele><time>2022-05-15T06:33:40.000Z</time></trkpt><trkpt lon="5.675872" lat="51.077528"><ele>48.2</ele><time>2022-05-15T06:33:41.000Z</time></trkpt><trkpt lon="5.675799" lat="51.077479"><ele>48.2</ele><time>2022-05-15T06:33:42.000Z</time></trkpt><trkpt lon="5.675725" lat="51.077424"><ele>48.2</ele><time>2022-05-15T06:33:43.000Z</time></trkpt><trkpt lon="5.675654" lat="51.077371"><ele>48.2</ele><time>2022-05-15T06:33:44.000Z</time></trkpt><trkpt lon="5.675577" lat="51.077322"><ele>48.4</ele><time>2022-05-15T06:33:45.000Z</time></trkpt><trkpt lon="5.675505" lat="51.077272"><ele>48.4</ele><time>2022-05-15T06:33:46.000Z</time></trkpt><trkpt lon="5.675434" lat="51.077223"><ele>48.6</ele><time>2022-05-15T06:33:47.000Z</time></trkpt><trkpt lon="5.675363" lat="51.077177"><ele>48.6</ele><time>2022-05-15T06:33:48.000Z</time></trkpt><trkpt lon="5.675289" lat="51.077131"><ele>48.6</ele><time>2022-05-15T06:33:49.000Z</time></trkpt><trkpt lon="5.675217" lat="51.077081"><ele>48.6</ele><time>2022-05-15T06:33:50.000Z</time></trkpt><trkpt lon="5.675144" lat="51.077032"><ele>48.6</ele><time>2022-05-15T06:33:51.000Z</time></trkpt><trkpt lon="5.67507" lat="51.076982"><ele>48.6</ele><time>2022-05-15T06:33:52.000Z</time></trkpt><trkpt lon="5.674997" lat="51.076932"><ele>48.6</ele><time>2022-05-15T06:33:53.000Z</time></trkpt><trkpt lon="5.674924" lat="51.076887"><ele>48.6</ele><time>2022-05-15T06:33:54.000Z</time></trkpt><trkpt lon="5.67485" lat="51.076842"><ele>48.4</ele><time>2022-05-15T06:33:55.000Z</time></trkpt><trkpt lon="5.674775" lat="51.076795"><ele>48.4</ele><time>2022-05-15T06:33:56.000Z</time></trkpt><trkpt lon="5.674702" lat="51.076749"><ele>48.4</ele><time>2022-05-15T06:33:57.000Z</time></trkpt><trkpt lon="5.674631" lat="51.076704"><ele>48.4</ele><time>2022-05-15T06:33:58.000Z</time></trkpt><trkpt lon="5.674557" lat="51.076662"><ele>48.4</ele><time>2022-05-15T06:33:59.000Z</time></trkpt><trkpt lon="5.674484" lat="51.076612"><ele>48.2</ele><time>2022-05-15T06:34:00.000Z</time></trkpt><trkpt lon="5.674412" lat="51.076566"><ele>48.2</ele><time>2022-05-15T06:34:01.000Z</time></trkpt><trkpt lon="5.674344" lat="51.076521"><ele>48.2</ele><time>2022-05-15T06:34:02.000Z</time></trkpt><trkpt lon="5.674262" lat="51.076475"><ele>48.2</ele><time>2022-05-15T06:34:03.000Z</time></trkpt><trkpt lon="5.67417" lat="51.076429"><ele>48</ele><time>2022-05-15T06:34:04.000Z</time></trkpt><trkpt lon="5.674089" lat="51.076387"><ele>48</ele><time>2022-05-15T06:34:05.000Z</time></trkpt><trkpt lon="5.674006" lat="51.076345"><ele>48.2</ele><time>2022-05-15T06:34:06.000Z</time></trkpt><trkpt lon="5.673923" lat="51.076299"><ele>48.2</ele><time>2022-05-15T06:34:07.000Z</time></trkpt><trkpt lon="5.673845" lat="51.07625"><ele>48.2</ele><time>2022-05-15T06:34:08.000Z</time></trkpt><trkpt lon="5.673771" lat="51.0762"><ele>48.4</ele><time>2022-05-15T06:34:09.000Z</time></trkpt><trkpt lon="5.673699" lat="51.076158"><ele>48.4</ele><time>2022-05-15T06:34:10.000Z</time></trkpt><trkpt lon="5.673635" lat="51.076112"><ele>48.6</ele><time>2022-05-15T06:34:11.000Z</time></trkpt><trkpt lon="5.673572" lat="51.076066"><ele>48.8</ele><time>2022-05-15T06:34:12.000Z</time></trkpt><trkpt lon="5.673523" lat="51.076021"><ele>48.8</ele><time>2022-05-15T06:34:13.000Z</time></trkpt><trkpt lon="5.673472" lat="51.075975"><ele>49</ele><time>2022-05-15T06:34:14.000Z</time></trkpt><trkpt lon="5.673414" lat="51.075933"><ele>49</ele><time>2022-05-15T06:34:15.000Z</time></trkpt><trkpt lon="5.673373" lat="51.075898"><ele>49.2</ele><time>2022-05-15T06:34:16.000Z</time></trkpt><trkpt lon="5.673318" lat="51.075847"><ele>49.4</ele><time>2022-05-15T06:34:17.000Z</time></trkpt><trkpt lon="5.67326" lat="51.075807"><ele>49.4</ele><time>2022-05-15T06:34:18.000Z</time></trkpt><trkpt lon="5.673198" lat="51.075766"><ele>49.4</ele><time>2022-05-15T06:34:19.000Z</time></trkpt><trkpt lon="5.673129" lat="51.075727"><ele>49.6</ele><time>2022-05-15T06:34:20.000Z</time></trkpt><trkpt lon="5.673064" lat="51.075681"><ele>49.6</ele><time>2022-05-15T06:34:21.000Z</time></trkpt><trkpt lon="5.672996" lat="51.075643"><ele>49.6</ele><time>2022-05-15T06:34:22.000Z</time></trkpt><trkpt lon="5.672923" lat="51.075601"><ele>49.6</ele><time>2022-05-15T06:34:23.000Z</time></trkpt><trkpt lon="5.672846" lat="51.075563"><ele>49.4</ele><time>2022-05-15T06:34:24.000Z</time></trkpt><trkpt lon="5.672768" lat="51.075525"><ele>49.4</ele><time>2022-05-15T06:34:25.000Z</time></trkpt><trkpt lon="5.672681" lat="51.07549"><ele>49.4</ele><time>2022-05-15T06:34:26.000Z</time></trkpt><trkpt lon="5.672587" lat="51.07546"><ele>49.4</ele><time>2022-05-15T06:34:27.000Z</time></trkpt><trkpt lon="5.672467" lat="51.075433"><ele>49.4</ele><time>2022-05-15T06:34:28.000Z</time></trkpt><trkpt lon="5.67235" lat="51.075406"><ele>49.4</ele><time>2022-05-15T06:34:29.000Z</time></trkpt><trkpt lon="5.672216" lat="51.075379"><ele>49.4</ele><time>2022-05-15T06:34:30.000Z</time></trkpt><trkpt lon="5.672095" lat="51.075353"><ele>49.6</ele><time>2022-05-15T06:34:31.000Z</time></trkpt><trkpt lon="5.671975" lat="51.07533"><ele>49.6</ele><time>2022-05-15T06:34:32.000Z</time></trkpt><trkpt lon="5.671849" lat="51.075307"><ele>49.6</ele><time>2022-05-15T06:34:33.000Z</time></trkpt><trkpt lon="5.671741" lat="51.075277"><ele>49.6</ele><time>2022-05-15T06:34:34.000Z</time></trkpt><trkpt lon="5.671629" lat="51.075246"><ele>49.4</ele><time>2022-05-15T06:34:35.000Z</time></trkpt><trkpt lon="5.671527" lat="51.075212"><ele>49.4</ele><time>2022-05-15T06:34:36.000Z</time></trkpt><trkpt lon="5.671415" lat="51.075177"><ele>49.2</ele><time>2022-05-15T06:34:37.000Z</time></trkpt><trkpt lon="5.671311" lat="51.075146"><ele>49.2</ele><time>2022-05-15T06:34:38.000Z</time></trkpt><trkpt lon="5.671202" lat="51.075116"><ele>49.2</ele><time>2022-05-15T06:34:39.000Z</time></trkpt><trkpt lon="5.671097" lat="51.075086"><ele>49.2</ele><time>2022-05-15T06:34:40.000Z</time></trkpt><trkpt lon="5.670996" lat="51.075059"><ele>49.2</ele><time>2022-05-15T06:34:41.000Z</time></trkpt><trkpt lon="5.670889" lat="51.075028"><ele>49.2</ele><time>2022-05-15T06:34:42.000Z</time></trkpt><trkpt lon="5.670794" lat="51.074994"><ele>49.2</ele><time>2022-05-15T06:34:43.000Z</time></trkpt><trkpt lon="5.670697" lat="51.074964"><ele>49.2</ele><time>2022-05-15T06:34:44.000Z</time></trkpt><trkpt lon="5.670614" lat="51.074926"><ele>49.4</ele><time>2022-05-15T06:34:45.000Z</time></trkpt><trkpt lon="5.670538" lat="51.074891"><ele>49.4</ele><time>2022-05-15T06:34:46.000Z</time></trkpt><trkpt lon="5.670474" lat="51.074853"><ele>49.4</ele><time>2022-05-15T06:34:47.000Z</time></trkpt><trkpt lon="5.670412" lat="51.07482"><ele>49.4</ele><time>2022-05-15T06:34:48.000Z</time></trkpt><trkpt lon="5.670341" lat="51.074796"><ele>49.6</ele><time>2022-05-15T06:34:49.000Z</time></trkpt><trkpt lon="5.670272" lat="51.074759"><ele>49.6</ele><time>2022-05-15T06:34:50.000Z</time></trkpt><trkpt lon="5.670202" lat="51.074716"><ele>49.6</ele><time>2022-05-15T06:34:51.000Z</time></trkpt><trkpt lon="5.670134" lat="51.07467"><ele>49.6</ele><time>2022-05-15T06:34:52.000Z</time></trkpt><trkpt lon="5.670056" lat="51.074628"><ele>49.6</ele><time>2022-05-15T06:34:53.000Z</time></trkpt><trkpt lon="5.669976" lat="51.074582"><ele>49.6</ele><time>2022-05-15T06:34:54.000Z</time></trkpt><trkpt lon="5.669911" lat="51.074537"><ele>49.6</ele><time>2022-05-15T06:34:55.000Z</time></trkpt><trkpt lon="5.669837" lat="51.074502"><ele>49.4</ele><time>2022-05-15T06:34:56.000Z</time></trkpt><trkpt lon="5.669777" lat="51.074457"><ele>49.4</ele><time>2022-05-15T06:34:57.000Z</time></trkpt><trkpt lon="5.6697" lat="51.074426"><ele>49.4</ele><time>2022-05-15T06:34:58.000Z</time></trkpt><trkpt lon="5.669632" lat="51.07438"><ele>49.4</ele><time>2022-05-15T06:34:59.000Z</time></trkpt><trkpt lon="5.669558" lat="51.07434"><ele>49.2</ele><time>2022-05-15T06:35:00.000Z</time></trkpt><trkpt lon="5.669482" lat="51.074301"><ele>49.2</ele><time>2022-05-15T06:35:01.000Z</time></trkpt><trkpt lon="5.6694" lat="51.074258"><ele>49.2</ele><time>2022-05-15T06:35:02.000Z</time></trkpt><trkpt lon="5.6693" lat="51.074227"><ele>49.2</ele><time>2022-05-15T06:35:03.000Z</time></trkpt><trkpt lon="5.669199" lat="51.074201"><ele>49</ele><time>2022-05-15T06:35:04.000Z</time></trkpt><trkpt lon="5.669092" lat="51.074163"><ele>49</ele><time>2022-05-15T06:35:05.000Z</time></trkpt><trkpt lon="5.668972" lat="51.074106"><ele>49</ele><time>2022-05-15T06:35:06.000Z</time></trkpt><trkpt lon="5.668878" lat="51.07406"><ele>49</ele><time>2022-05-15T06:35:07.000Z</time></trkpt><trkpt lon="5.668783" lat="51.074007"><ele>49</ele><time>2022-05-15T06:35:08.000Z</time></trkpt><trkpt lon="5.668696" lat="51.073957"><ele>49</ele><time>2022-05-15T06:35:09.000Z</time></trkpt><trkpt lon="5.668617" lat="51.073915"><ele>48.8</ele><time>2022-05-15T06:35:10.000Z</time></trkpt><trkpt lon="5.668534" lat="51.073873"><ele>49</ele><time>2022-05-15T06:35:11.000Z</time></trkpt><trkpt lon="5.66845" lat="51.073831"><ele>49.2</ele><time>2022-05-15T06:35:12.000Z</time></trkpt><trkpt lon="5.668367" lat="51.073796"><ele>49.2</ele><time>2022-05-15T06:35:13.000Z</time></trkpt><trkpt lon="5.66829" lat="51.073758"><ele>49.4</ele><time>2022-05-15T06:35:14.000Z</time></trkpt><trkpt lon="5.668221" lat="51.07372"><ele>49.4</ele><time>2022-05-15T06:35:15.000Z</time></trkpt><trkpt lon="5.668147" lat="51.073683"><ele>49.6</ele><time>2022-05-15T06:35:16.000Z</time></trkpt><trkpt lon="5.668079" lat="51.073652"><ele>49.6</ele><time>2022-05-15T06:35:17.000Z</time></trkpt><trkpt lon="5.668015" lat="51.073621"><ele>49.6</ele><time>2022-05-15T06:35:18.000Z</time></trkpt><trkpt lon="5.667959" lat="51.073587"><ele>49.6</ele><time>2022-05-15T06:35:19.000Z</time></trkpt><trkpt lon="5.667894" lat="51.073556"><ele>49.8</ele><time>2022-05-15T06:35:20.000Z</time></trkpt><trkpt lon="5.667826" lat="51.073518"><ele>50</ele><time>2022-05-15T06:35:21.000Z</time></trkpt><trkpt lon="5.66776" lat="51.073482"><ele>50</ele><time>2022-05-15T06:35:22.000Z</time></trkpt><trkpt lon="5.667682" lat="51.073442"><ele>50.2</ele><time>2022-05-15T06:35:23.000Z</time></trkpt><trkpt lon="5.667607" lat="51.0734"><ele>50.2</ele><time>2022-05-15T06:35:24.000Z</time></trkpt><trkpt lon="5.667529" lat="51.073369"><ele>50.2</ele><time>2022-05-15T06:35:25.000Z</time></trkpt><trkpt lon="5.667445" lat="51.073335"><ele>50.2</ele><time>2022-05-15T06:35:26.000Z</time></trkpt><trkpt lon="5.667376" lat="51.073293"><ele>50.2</ele><time>2022-05-15T06:35:27.000Z</time></trkpt><trkpt lon="5.667292" lat="51.073266"><ele>50.2</ele><time>2022-05-15T06:35:28.000Z</time></trkpt><trkpt lon="5.667213" lat="51.073247"><ele>50.4</ele><time>2022-05-15T06:35:29.000Z</time></trkpt><trkpt lon="5.667128" lat="51.073228"><ele>50.4</ele><time>2022-05-15T06:35:30.000Z</time></trkpt><trkpt lon="5.667034" lat="51.073186"><ele>50.4</ele><time>2022-05-15T06:35:31.000Z</time></trkpt><trkpt lon="5.666949" lat="51.073148"><ele>50.6</ele><time>2022-05-15T06:35:32.000Z</time></trkpt><trkpt lon="5.666863" lat="51.073106"><ele>50.6</ele><time>2022-05-15T06:35:33.000Z</time></trkpt><trkpt lon="5.666747" lat="51.073057"><ele>50.6</ele><time>2022-05-15T06:35:34.000Z</time></trkpt><trkpt lon="5.666647" lat="51.073014"><ele>50.6</ele><time>2022-05-15T06:35:35.000Z</time></trkpt><trkpt lon="5.666558" lat="51.072973"><ele>50.6</ele><time>2022-05-15T06:35:36.000Z</time></trkpt><trkpt lon="5.666457" lat="51.072934"><ele>50.4</ele><time>2022-05-15T06:35:37.000Z</time></trkpt><trkpt lon="5.666364" lat="51.072892"><ele>50.4</ele><time>2022-05-15T06:35:38.000Z</time></trkpt><trkpt lon="5.666266" lat="51.07285"><ele>50.6</ele><time>2022-05-15T06:35:39.000Z</time></trkpt><trkpt lon="5.666155" lat="51.07282"><ele>50.4</ele><time>2022-05-15T06:35:40.000Z</time></trkpt><trkpt lon="5.666042" lat="51.072797"><ele>50.4</ele><time>2022-05-15T06:35:41.000Z</time></trkpt><trkpt lon="5.665937" lat="51.072767"><ele>50.4</ele><time>2022-05-15T06:35:42.000Z</time></trkpt><trkpt lon="5.665841" lat="51.072736"><ele>50.4</ele><time>2022-05-15T06:35:43.000Z</time></trkpt><trkpt lon="5.66575" lat="51.072724"><ele>50.4</ele><time>2022-05-15T06:35:44.000Z</time></trkpt><trkpt lon="5.665661" lat="51.072709"><ele>50.4</ele><time>2022-05-15T06:35:45.000Z</time></trkpt><trkpt lon="5.665568" lat="51.072701"><ele>50.6</ele><time>2022-05-15T06:35:46.000Z</time></trkpt><trkpt lon="5.665484" lat="51.072686"><ele>50.4</ele><time>2022-05-15T06:35:47.000Z</time></trkpt><trkpt lon="5.665354" lat="51.072656"><ele>50.4</ele><time>2022-05-15T06:35:48.000Z</time></trkpt><trkpt lon="5.665247" lat="51.072618"><ele>50.4</ele><time>2022-05-15T06:35:49.000Z</time></trkpt><trkpt lon="5.665142" lat="51.072587"><ele>50.4</ele><time>2022-05-15T06:35:50.000Z</time></trkpt><trkpt lon="5.665038" lat="51.072556"><ele>50.2</ele><time>2022-05-15T06:35:51.000Z</time></trkpt><trkpt lon="5.664946" lat="51.072515"><ele>50.2</ele><time>2022-05-15T06:35:52.000Z</time></trkpt><trkpt lon="5.664861" lat="51.072476"><ele>50.2</ele><time>2022-05-15T06:35:53.000Z</time></trkpt><trkpt lon="5.664779" lat="51.072435"><ele>50.2</ele><time>2022-05-15T06:35:54.000Z</time></trkpt><trkpt lon="5.664707" lat="51.072393"><ele>50.2</ele><time>2022-05-15T06:35:55.000Z</time></trkpt><trkpt lon="5.664628" lat="51.072343"><ele>50.2</ele><time>2022-05-15T06:35:56.000Z</time></trkpt><trkpt lon="5.664541" lat="51.072306"><ele>50.2</ele><time>2022-05-15T06:35:57.000Z</time></trkpt><trkpt lon="5.664443" lat="51.072256"><ele>50.2</ele><time>2022-05-15T06:35:58.000Z</time></trkpt><trkpt lon="5.664367" lat="51.072209"><ele>50.2</ele><time>2022-05-15T06:35:59.000Z</time></trkpt><trkpt lon="5.664303" lat="51.072171"><ele>50.2</ele><time>2022-05-15T06:36:00.000Z</time></trkpt><trkpt lon="5.66423" lat="51.072129"><ele>50.2</ele><time>2022-05-15T06:36:01.000Z</time></trkpt><trkpt lon="5.664162" lat="51.072084"><ele>50.2</ele><time>2022-05-15T06:36:02.000Z</time></trkpt><trkpt lon="5.664098" lat="51.072052"><ele>50.2</ele><time>2022-05-15T06:36:03.000Z</time></trkpt><trkpt lon="5.664029" lat="51.072001"><ele>50</ele><time>2022-05-15T06:36:04.000Z</time></trkpt><trkpt lon="5.663967" lat="51.07195"><ele>50</ele><time>2022-05-15T06:36:05.000Z</time></trkpt><trkpt lon="5.663911" lat="51.071893"><ele>50.2</ele><time>2022-05-15T06:36:06.000Z</time></trkpt><trkpt lon="5.663838" lat="51.071832"><ele>50.2</ele><time>2022-05-15T06:36:07.000Z</time></trkpt><trkpt lon="5.663785" lat="51.071782"><ele>50.2</ele><time>2022-05-15T06:36:08.000Z</time></trkpt><trkpt lon="5.663712" lat="51.071736"><ele>50.2</ele><time>2022-05-15T06:36:09.000Z</time></trkpt><trkpt lon="5.663644" lat="51.071688"><ele>50.2</ele><time>2022-05-15T06:36:10.000Z</time></trkpt><trkpt lon="5.663574" lat="51.071643"><ele>50.2</ele><time>2022-05-15T06:36:11.000Z</time></trkpt><trkpt lon="5.663501" lat="51.071585"><ele>50</ele><time>2022-05-15T06:36:12.000Z</time></trkpt><trkpt lon="5.663397" lat="51.071527"><ele>50</ele><time>2022-05-15T06:36:13.000Z</time></trkpt><trkpt lon="5.663325" lat="51.071482"><ele>50</ele><time>2022-05-15T06:36:14.000Z</time></trkpt><trkpt lon="5.663255" lat="51.071432"><ele>50</ele><time>2022-05-15T06:36:15.000Z</time></trkpt><trkpt lon="5.6632" lat="51.07139"><ele>50.2</ele><time>2022-05-15T06:36:16.000Z</time></trkpt><trkpt lon="5.663091" lat="51.071326"><ele>50.2</ele><time>2022-05-15T06:36:17.000Z</time></trkpt><trkpt lon="5.663003" lat="51.071283"><ele>50.4</ele><time>2022-05-15T06:36:18.000Z</time></trkpt><trkpt lon="5.662912" lat="51.071241"><ele>50.4</ele><time>2022-05-15T06:36:19.000Z</time></trkpt><trkpt lon="5.662829" lat="51.071202"><ele>50.6</ele><time>2022-05-15T06:36:20.000Z</time></trkpt><trkpt lon="5.662744" lat="51.071172"><ele>50.6</ele><time>2022-05-15T06:36:21.000Z</time></trkpt><trkpt lon="5.662648" lat="51.071134"><ele>50.6</ele><time>2022-05-15T06:36:22.000Z</time></trkpt><trkpt lon="5.662559" lat="51.0711"><ele>50.8</ele><time>2022-05-15T06:36:23.000Z</time></trkpt><trkpt lon="5.662471" lat="51.071072"><ele>50.8</ele><time>2022-05-15T06:36:24.000Z</time></trkpt><trkpt lon="5.662403" lat="51.071046"><ele>51</ele><time>2022-05-15T06:36:25.000Z</time></trkpt><trkpt lon="5.662332" lat="51.071019"><ele>51</ele><time>2022-05-15T06:36:26.000Z</time></trkpt><trkpt lon="5.662283" lat="51.070974"><ele>51.2</ele><time>2022-05-15T06:36:27.000Z</time></trkpt><trkpt lon="5.662232" lat="51.070921"><ele>51.4</ele><time>2022-05-15T06:36:28.000Z</time></trkpt><trkpt lon="5.662185" lat="51.070868"><ele>51.4</ele><time>2022-05-15T06:36:29.000Z</time></trkpt><trkpt lon="5.662145" lat="51.070829"><ele>51.4</ele><time>2022-05-15T06:36:30.000Z</time></trkpt><trkpt lon="5.662106" lat="51.070791"><ele>51.4</ele><time>2022-05-15T06:36:31.000Z</time></trkpt><trkpt lon="5.662064" lat="51.07073"><ele>51.4</ele><time>2022-05-15T06:36:32.000Z</time></trkpt><trkpt lon="5.662036" lat="51.070663"><ele>51.4</ele><time>2022-05-15T06:36:33.000Z</time></trkpt><trkpt lon="5.662029" lat="51.070591"><ele>51.4</ele><time>2022-05-15T06:36:34.000Z</time></trkpt><trkpt lon="5.662028" lat="51.07055"><ele>51.2</ele><time>2022-05-15T06:36:35.000Z</time></trkpt><trkpt lon="5.662023" lat="51.070495"><ele>51.2</ele><time>2022-05-15T06:36:36.000Z</time></trkpt><trkpt lon="5.662015" lat="51.070432"><ele>51.2</ele><time>2022-05-15T06:36:37.000Z</time></trkpt><trkpt lon="5.661994" lat="51.070375"><ele>51.2</ele><time>2022-05-15T06:36:38.000Z</time></trkpt><trkpt lon="5.661966" lat="51.070318"><ele>51.2</ele><time>2022-05-15T06:36:39.000Z</time></trkpt><trkpt lon="5.661905" lat="51.07026"><ele>51.4</ele><time>2022-05-15T06:36:40.000Z</time></trkpt><trkpt lon="5.661858" lat="51.070189"><ele>51.4</ele><time>2022-05-15T06:36:41.000Z</time></trkpt><trkpt lon="5.661797" lat="51.070116"><ele>51.4</ele><time>2022-05-15T06:36:42.000Z</time></trkpt><trkpt lon="5.661719" lat="51.070033"><ele>51.4</ele><time>2022-05-15T06:36:43.000Z</time></trkpt><trkpt lon="5.661621" lat="51.06996"><ele>51.4</ele><time>2022-05-15T06:36:44.000Z</time></trkpt><trkpt lon="5.66153" lat="51.069891"><ele>51.4</ele><time>2022-05-15T06:36:45.000Z</time></trkpt><trkpt lon="5.661438" lat="51.069841"><ele>51.6</ele><time>2022-05-15T06:36:46.000Z</time></trkpt><trkpt lon="5.661351" lat="51.069788"><ele>51.8</ele><time>2022-05-15T06:36:47.000Z</time></trkpt><trkpt lon="5.661261" lat="51.069727"><ele>52</ele><time>2022-05-15T06:36:48.000Z</time></trkpt><trkpt lon="5.661184" lat="51.069673"><ele>52.2</ele><time>2022-05-15T06:36:49.000Z</time></trkpt><trkpt lon="5.66112" lat="51.06962"><ele>52.4</ele><time>2022-05-15T06:36:50.000Z</time></trkpt><trkpt lon="5.661062" lat="51.069559"><ele>52.8</ele><time>2022-05-15T06:36:51.000Z</time></trkpt><trkpt lon="5.661008" lat="51.069509"><ele>53</ele><time>2022-05-15T06:36:52.000Z</time></trkpt><trkpt lon="5.660963" lat="51.069456"><ele>53</ele><time>2022-05-15T06:36:53.000Z</time></trkpt><trkpt lon="5.660923" lat="51.069395"><ele>53.2</ele><time>2022-05-15T06:36:54.000Z</time></trkpt><trkpt lon="5.660889" lat="51.069346"><ele>53.2</ele><time>2022-05-15T06:36:55.000Z</time></trkpt><trkpt lon="5.660862" lat="51.069288"><ele>53.2</ele><time>2022-05-15T06:36:56.000Z</time></trkpt><trkpt lon="5.660825" lat="51.069216"><ele>53</ele><time>2022-05-15T06:36:57.000Z</time></trkpt><trkpt lon="5.660775" lat="51.069133"><ele>53</ele><time>2022-05-15T06:36:58.000Z</time></trkpt><trkpt lon="5.660716" lat="51.069044"><ele>53</ele><time>2022-05-15T06:36:59.000Z</time></trkpt><trkpt lon="5.660662" lat="51.068966"><ele>52.8</ele><time>2022-05-15T06:37:00.000Z</time></trkpt><trkpt lon="5.660613" lat="51.068881"><ele>52.8</ele><time>2022-05-15T06:37:01.000Z</time></trkpt><trkpt lon="5.660562" lat="51.068805"><ele>52.8</ele><time>2022-05-15T06:37:02.000Z</time></trkpt><trkpt lon="5.66051" lat="51.068728"><ele>52.8</ele><time>2022-05-15T06:37:03.000Z</time></trkpt><trkpt lon="5.660441" lat="51.068641"><ele>52.8</ele><time>2022-05-15T06:37:04.000Z</time></trkpt><trkpt lon="5.660399" lat="51.068575"><ele>52.8</ele><time>2022-05-15T06:37:05.000Z</time></trkpt><trkpt lon="5.660336" lat="51.068482"><ele>52.8</ele><time>2022-05-15T06:37:06.000Z</time></trkpt><trkpt lon="5.660282" lat="51.068407"><ele>52.6</ele><time>2022-05-15T06:37:07.000Z</time></trkpt><trkpt lon="5.66022" lat="51.068334"><ele>52.8</ele><time>2022-05-15T06:37:08.000Z</time></trkpt><trkpt lon="5.660159" lat="51.06827"><ele>52.8</ele><time>2022-05-15T06:37:09.000Z</time></trkpt><trkpt lon="5.660094" lat="51.068205"><ele>52.8</ele><time>2022-05-15T06:37:10.000Z</time></trkpt><trkpt lon="5.660037" lat="51.068141"><ele>52.8</ele><time>2022-05-15T06:37:11.000Z</time></trkpt><trkpt lon="5.659985" lat="51.068076"><ele>52.8</ele><time>2022-05-15T06:37:12.000Z</time></trkpt><trkpt lon="5.659931" lat="51.068022"><ele>53</ele><time>2022-05-15T06:37:13.000Z</time></trkpt><trkpt lon="5.659879" lat="51.067965"><ele>53</ele><time>2022-05-15T06:37:14.000Z</time></trkpt><trkpt lon="5.659822" lat="51.067911"><ele>53</ele><time>2022-05-15T06:37:15.000Z</time></trkpt><trkpt lon="5.659773" lat="51.067858"><ele>53.2</ele><time>2022-05-15T06:37:16.000Z</time></trkpt><trkpt lon="5.65972" lat="51.067809"><ele>53.2</ele><time>2022-05-15T06:37:17.000Z</time></trkpt><trkpt lon="5.659655" lat="51.067769"><ele>53.2</ele><time>2022-05-15T06:37:18.000Z</time></trkpt><trkpt lon="5.659579" lat="51.067731"><ele>53.2</ele><time>2022-05-15T06:37:19.000Z</time></trkpt><trkpt lon="5.659502" lat="51.067694"><ele>53.4</ele><time>2022-05-15T06:37:20.000Z</time></trkpt><trkpt lon="5.659442" lat="51.067644"><ele>53.4</ele><time>2022-05-15T06:37:21.000Z</time></trkpt><trkpt lon="5.659388" lat="51.067587"><ele>53.4</ele><time>2022-05-15T06:37:22.000Z</time></trkpt><trkpt lon="5.65932" lat="51.06753"><ele>53.4</ele><time>2022-05-15T06:37:23.000Z</time></trkpt><trkpt lon="5.659237" lat="51.06748"><ele>53.4</ele><time>2022-05-15T06:37:24.000Z</time></trkpt><trkpt lon="5.659151" lat="51.067427"><ele>53.4</ele><time>2022-05-15T06:37:25.000Z</time></trkpt><trkpt lon="5.659057" lat="51.067377"><ele>53.4</ele><time>2022-05-15T06:37:26.000Z</time></trkpt><trkpt lon="5.658963" lat="51.067324"><ele>53.4</ele><time>2022-05-15T06:37:27.000Z</time></trkpt><trkpt lon="5.658872" lat="51.067278"><ele>53.4</ele><time>2022-05-15T06:37:28.000Z</time></trkpt><trkpt lon="5.658775" lat="51.067232"><ele>53.4</ele><time>2022-05-15T06:37:29.000Z</time></trkpt><trkpt lon="5.658683" lat="51.06719"><ele>53.4</ele><time>2022-05-15T06:37:30.000Z</time></trkpt><trkpt lon="5.65859" lat="51.067153"><ele>53.4</ele><time>2022-05-15T06:37:31.000Z</time></trkpt><trkpt lon="5.658492" lat="51.067113"><ele>53.4</ele><time>2022-05-15T06:37:32.000Z</time></trkpt><trkpt lon="5.658395" lat="51.067079"><ele>53.4</ele><time>2022-05-15T06:37:33.000Z</time></trkpt><trkpt lon="5.658295" lat="51.067044"><ele>53.4</ele><time>2022-05-15T06:37:34.000Z</time></trkpt><trkpt lon="5.658223" lat="51.067015"><ele>53.4</ele><time>2022-05-15T06:37:35.000Z</time></trkpt><trkpt lon="5.658107" lat="51.066972"><ele>53.4</ele><time>2022-05-15T06:37:36.000Z</time></trkpt><trkpt lon="5.658012" lat="51.06693"><ele>53.2</ele><time>2022-05-15T06:37:37.000Z</time></trkpt><trkpt lon="5.657921" lat="51.066888"><ele>53.2</ele><time>2022-05-15T06:37:38.000Z</time></trkpt><trkpt lon="5.657831" lat="51.066836"><ele>53</ele><time>2022-05-15T06:37:39.000Z</time></trkpt><trkpt lon="5.657743" lat="51.066782"><ele>53</ele><time>2022-05-15T06:37:40.000Z</time></trkpt><trkpt lon="5.657663" lat="51.066725"><ele>52.8</ele><time>2022-05-15T06:37:41.000Z</time></trkpt><trkpt lon="5.657589" lat="51.066665"><ele>52.8</ele><time>2022-05-15T06:37:42.000Z</time></trkpt><trkpt lon="5.657519" lat="51.066596"><ele>52.6</ele><time>2022-05-15T06:37:43.000Z</time></trkpt><trkpt lon="5.657457" lat="51.06653"><ele>52.4</ele><time>2022-05-15T06:37:44.000Z</time></trkpt><trkpt lon="5.657395" lat="51.066465"><ele>52.4</ele><time>2022-05-15T06:37:45.000Z</time></trkpt><trkpt lon="5.657334" lat="51.066397"><ele>52.4</ele><time>2022-05-15T06:37:46.000Z</time></trkpt><trkpt lon="5.657269" lat="51.066336"><ele>52.4</ele><time>2022-05-15T06:37:47.000Z</time></trkpt><trkpt lon="5.657201" lat="51.066275"><ele>52.2</ele><time>2022-05-15T06:37:48.000Z</time></trkpt><trkpt lon="5.657147" lat="51.066232"><ele>52.2</ele><time>2022-05-15T06:37:49.000Z</time></trkpt><trkpt lon="5.657053" lat="51.066157"><ele>52.2</ele><time>2022-05-15T06:37:50.000Z</time></trkpt><trkpt lon="5.656975" lat="51.0661"><ele>52.4</ele><time>2022-05-15T06:37:51.000Z</time></trkpt><trkpt lon="5.656893" lat="51.06605"><ele>52.4</ele><time>2022-05-15T06:37:52.000Z</time></trkpt><trkpt lon="5.65681" lat="51.066001"><ele>52.2</ele><time>2022-05-15T06:37:53.000Z</time></trkpt><trkpt lon="5.656722" lat="51.065947"><ele>52.4</ele><time>2022-05-15T06:37:54.000Z</time></trkpt><trkpt lon="5.656631" lat="51.065901"><ele>52.4</ele><time>2022-05-15T06:37:55.000Z</time></trkpt><trkpt lon="5.656537" lat="51.065856"><ele>52.4</ele><time>2022-05-15T06:37:56.000Z</time></trkpt><trkpt lon="5.656442" lat="51.065818"><ele>52.6</ele><time>2022-05-15T06:37:57.000Z</time></trkpt><trkpt lon="5.656339" lat="51.065779"><ele>52.6</ele><time>2022-05-15T06:37:58.000Z</time></trkpt><trkpt lon="5.656235" lat="51.065737"><ele>52.6</ele><time>2022-05-15T06:37:59.000Z</time></trkpt><trkpt lon="5.656128" lat="51.065701"><ele>52.8</ele><time>2022-05-15T06:38:00.000Z</time></trkpt><trkpt lon="5.65602" lat="51.065671"><ele>52.8</ele><time>2022-05-15T06:38:01.000Z</time></trkpt><trkpt lon="5.655914" lat="51.065637"><ele>52.8</ele><time>2022-05-15T06:38:02.000Z</time></trkpt><trkpt lon="5.655807" lat="51.065606"><ele>52.8</ele><time>2022-05-15T06:38:03.000Z</time></trkpt><trkpt lon="5.655702" lat="51.065576"><ele>53</ele><time>2022-05-15T06:38:04.000Z</time></trkpt><trkpt lon="5.655609" lat="51.065548"><ele>53.2</ele><time>2022-05-15T06:38:05.000Z</time></trkpt><trkpt lon="5.655496" lat="51.065511"><ele>53.2</ele><time>2022-05-15T06:38:06.000Z</time></trkpt><trkpt lon="5.655396" lat="51.065484"><ele>53.2</ele><time>2022-05-15T06:38:07.000Z</time></trkpt><trkpt lon="5.655293" lat="51.065457"><ele>53.2</ele><time>2022-05-15T06:38:08.000Z</time></trkpt><trkpt lon="5.655195" lat="51.065424"><ele>53.2</ele><time>2022-05-15T06:38:09.000Z</time></trkpt><trkpt lon="5.655092" lat="51.065393"><ele>53.4</ele><time>2022-05-15T06:38:10.000Z</time></trkpt><trkpt lon="5.654988" lat="51.065362"><ele>53.6</ele><time>2022-05-15T06:38:11.000Z</time></trkpt><trkpt lon="5.654886" lat="51.065331"><ele>53.6</ele><time>2022-05-15T06:38:12.000Z</time></trkpt><trkpt lon="5.654782" lat="51.065301"><ele>53.6</ele><time>2022-05-15T06:38:13.000Z</time></trkpt><trkpt lon="5.654677" lat="51.065267"><ele>53.6</ele><time>2022-05-15T06:38:14.000Z</time></trkpt><trkpt lon="5.65457" lat="51.065236"><ele>53.6</ele><time>2022-05-15T06:38:15.000Z</time></trkpt><trkpt lon="5.654467" lat="51.06521"><ele>53.8</ele><time>2022-05-15T06:38:16.000Z</time></trkpt><trkpt lon="5.654359" lat="51.065179"><ele>53.8</ele><time>2022-05-15T06:38:17.000Z</time></trkpt><trkpt lon="5.654255" lat="51.065145"><ele>53.8</ele><time>2022-05-15T06:38:18.000Z</time></trkpt><trkpt lon="5.65415" lat="51.065114"><ele>53.8</ele><time>2022-05-15T06:38:19.000Z</time></trkpt><trkpt lon="5.654045" lat="51.06508"><ele>53.8</ele><time>2022-05-15T06:38:20.000Z</time></trkpt><trkpt lon="5.653942" lat="51.065046"><ele>54</ele><time>2022-05-15T06:38:21.000Z</time></trkpt><trkpt lon="5.653838" lat="51.065011"><ele>54</ele><time>2022-05-15T06:38:22.000Z</time></trkpt><trkpt lon="5.653738" lat="51.06497"><ele>54.2</ele><time>2022-05-15T06:38:23.000Z</time></trkpt><trkpt lon="5.653637" lat="51.064931"><ele>54.2</ele><time>2022-05-15T06:38:24.000Z</time></trkpt><trkpt lon="5.653541" lat="51.064894"><ele>54.4</ele><time>2022-05-15T06:38:25.000Z</time></trkpt><trkpt lon="5.653447" lat="51.064855"><ele>54.4</ele><time>2022-05-15T06:38:26.000Z</time></trkpt><trkpt lon="5.653356" lat="51.064813"><ele>54.6</ele><time>2022-05-15T06:38:27.000Z</time></trkpt><trkpt lon="5.653269" lat="51.064771"><ele>54.8</ele><time>2022-05-15T06:38:28.000Z</time></trkpt><trkpt lon="5.653186" lat="51.064725"><ele>54.8</ele><time>2022-05-15T06:38:29.000Z</time></trkpt><trkpt lon="5.653106" lat="51.064683"><ele>55</ele><time>2022-05-15T06:38:30.000Z</time></trkpt><trkpt lon="5.653029" lat="51.064638"><ele>55.2</ele><time>2022-05-15T06:38:31.000Z</time></trkpt><trkpt lon="5.652955" lat="51.064589"><ele>55.4</ele><time>2022-05-15T06:38:32.000Z</time></trkpt><trkpt lon="5.652884" lat="51.064543"><ele>55.6</ele><time>2022-05-15T06:38:33.000Z</time></trkpt><trkpt lon="5.652812" lat="51.064493"><ele>55.8</ele><time>2022-05-15T06:38:34.000Z</time></trkpt><trkpt lon="5.652748" lat="51.064444"><ele>56</ele><time>2022-05-15T06:38:35.000Z</time></trkpt><trkpt lon="5.652674" lat="51.06439"><ele>56.2</ele><time>2022-05-15T06:38:36.000Z</time></trkpt><trkpt lon="5.652605" lat="51.06434"><ele>56.6</ele><time>2022-05-15T06:38:37.000Z</time></trkpt><trkpt lon="5.652539" lat="51.06429"><ele>56.8</ele><time>2022-05-15T06:38:38.000Z</time></trkpt><trkpt lon="5.652474" lat="51.064241"><ele>57</ele><time>2022-05-15T06:38:39.000Z</time></trkpt><trkpt lon="5.652407" lat="51.064191"><ele>57</ele><time>2022-05-15T06:38:40.000Z</time></trkpt><trkpt lon="5.652342" lat="51.064138"><ele>57.2</ele><time>2022-05-15T06:38:41.000Z</time></trkpt><trkpt lon="5.652279" lat="51.064089"><ele>57.4</ele><time>2022-05-15T06:38:42.000Z</time></trkpt><trkpt lon="5.652216" lat="51.064043"><ele>57.6</ele><time>2022-05-15T06:38:43.000Z</time></trkpt><trkpt lon="5.652149" lat="51.063993"><ele>57.8</ele><time>2022-05-15T06:38:44.000Z</time></trkpt><trkpt lon="5.652087" lat="51.063946"><ele>58</ele><time>2022-05-15T06:38:45.000Z</time></trkpt><trkpt lon="5.652021" lat="51.063894"><ele>58</ele><time>2022-05-15T06:38:46.000Z</time></trkpt><trkpt lon="5.651954" lat="51.063848"><ele>58.2</ele><time>2022-05-15T06:38:47.000Z</time></trkpt><trkpt lon="5.651889" lat="51.063799"><ele>58.4</ele><time>2022-05-15T06:38:48.000Z</time></trkpt><trkpt lon="5.651822" lat="51.063754"><ele>58.6</ele><time>2022-05-15T06:38:49.000Z</time></trkpt><trkpt lon="5.651757" lat="51.063703"><ele>58.8</ele><time>2022-05-15T06:38:50.000Z</time></trkpt><trkpt lon="5.65169" lat="51.063657"><ele>59</ele><time>2022-05-15T06:38:51.000Z</time></trkpt><trkpt lon="5.651627" lat="51.063608"><ele>59.2</ele><time>2022-05-15T06:38:52.000Z</time></trkpt><trkpt lon="5.651561" lat="51.063558"><ele>59.4</ele><time>2022-05-15T06:38:53.000Z</time></trkpt><trkpt lon="5.651493" lat="51.063512"><ele>59.6</ele><time>2022-05-15T06:38:54.000Z</time></trkpt><trkpt lon="5.651424" lat="51.063463"><ele>59.6</ele><time>2022-05-15T06:38:55.000Z</time></trkpt><trkpt lon="5.651355" lat="51.063413"><ele>59.8</ele><time>2022-05-15T06:38:56.000Z</time></trkpt><trkpt lon="5.651285" lat="51.06336"><ele>59.6</ele><time>2022-05-15T06:38:57.000Z</time></trkpt><trkpt lon="5.651217" lat="51.06331"><ele>59.8</ele><time>2022-05-15T06:38:58.000Z</time></trkpt><trkpt lon="5.651146" lat="51.063261"><ele>59.8</ele><time>2022-05-15T06:38:59.000Z</time></trkpt><trkpt lon="5.651074" lat="51.063207"><ele>59.8</ele><time>2022-05-15T06:39:00.000Z</time></trkpt><trkpt lon="5.651005" lat="51.063159"><ele>59.8</ele><time>2022-05-15T06:39:01.000Z</time></trkpt><trkpt lon="5.650934" lat="51.063104"><ele>59.8</ele><time>2022-05-15T06:39:02.000Z</time></trkpt><trkpt lon="5.650861" lat="51.063051"><ele>59.6</ele><time>2022-05-15T06:39:03.000Z</time></trkpt><trkpt lon="5.650786" lat="51.063001"><ele>59.6</ele><time>2022-05-15T06:39:04.000Z</time></trkpt><trkpt lon="5.650713" lat="51.062948"><ele>59.6</ele><time>2022-05-15T06:39:05.000Z</time></trkpt><trkpt lon="5.65064" lat="51.062894"><ele>59.6</ele><time>2022-05-15T06:39:06.000Z</time></trkpt><trkpt lon="5.650567" lat="51.062837"><ele>59.4</ele><time>2022-05-15T06:39:07.000Z</time></trkpt><trkpt lon="5.650498" lat="51.062781"><ele>59.4</ele><time>2022-05-15T06:39:08.000Z</time></trkpt><trkpt lon="5.650429" lat="51.062723"><ele>59.4</ele><time>2022-05-15T06:39:09.000Z</time></trkpt><trkpt lon="5.65036" lat="51.062662"><ele>59.4</ele><time>2022-05-15T06:39:10.000Z</time></trkpt><trkpt lon="5.650294" lat="51.062601"><ele>59.2</ele><time>2022-05-15T06:39:11.000Z</time></trkpt><trkpt lon="5.650231" lat="51.062543"><ele>59.2</ele><time>2022-05-15T06:39:12.000Z</time></trkpt><trkpt lon="5.650162" lat="51.062479"><ele>59</ele><time>2022-05-15T06:39:13.000Z</time></trkpt><trkpt lon="5.650099" lat="51.062418"><ele>59</ele><time>2022-05-15T06:39:14.000Z</time></trkpt><trkpt lon="5.650035" lat="51.062357"><ele>58.8</ele><time>2022-05-15T06:39:15.000Z</time></trkpt><trkpt lon="5.649975" lat="51.062294"><ele>58.8</ele><time>2022-05-15T06:39:16.000Z</time></trkpt><trkpt lon="5.649912" lat="51.062235"><ele>58.8</ele><time>2022-05-15T06:39:17.000Z</time></trkpt><trkpt lon="5.649853" lat="51.062179"><ele>58.8</ele><time>2022-05-15T06:39:18.000Z</time></trkpt><trkpt lon="5.649792" lat="51.06212"><ele>58.8</ele><time>2022-05-15T06:39:19.000Z</time></trkpt><trkpt lon="5.649734" lat="51.062067"><ele>59</ele><time>2022-05-15T06:39:20.000Z</time></trkpt><trkpt lon="5.649678" lat="51.062006"><ele>59</ele><time>2022-05-15T06:39:21.000Z</time></trkpt><trkpt lon="5.649622" lat="51.061949"><ele>59</ele><time>2022-05-15T06:39:22.000Z</time></trkpt><trkpt lon="5.649569" lat="51.061893"><ele>59</ele><time>2022-05-15T06:39:23.000Z</time></trkpt><trkpt lon="5.64951" lat="51.061834"><ele>59.2</ele><time>2022-05-15T06:39:24.000Z</time></trkpt><trkpt lon="5.649451" lat="51.061777"><ele>59.2</ele><time>2022-05-15T06:39:25.000Z</time></trkpt><trkpt lon="5.649395" lat="51.061723"><ele>59.2</ele><time>2022-05-15T06:39:26.000Z</time></trkpt><trkpt lon="5.649336" lat="51.061667"><ele>59.4</ele><time>2022-05-15T06:39:27.000Z</time></trkpt><trkpt lon="5.649277" lat="51.061605"><ele>59.4</ele><time>2022-05-15T06:39:28.000Z</time></trkpt><trkpt lon="5.649219" lat="51.061548"><ele>59.4</ele><time>2022-05-15T06:39:29.000Z</time></trkpt><trkpt lon="5.649157" lat="51.061491"><ele>59.4</ele><time>2022-05-15T06:39:30.000Z</time></trkpt><trkpt lon="5.649096" lat="51.061433"><ele>59.6</ele><time>2022-05-15T06:39:31.000Z</time></trkpt><trkpt lon="5.649038" lat="51.061377"><ele>59.6</ele><time>2022-05-15T06:39:32.000Z</time></trkpt><trkpt lon="5.648979" lat="51.061316"><ele>59.6</ele><time>2022-05-15T06:39:33.000Z</time></trkpt><trkpt lon="5.64892" lat="51.061262"><ele>59.6</ele><time>2022-05-15T06:39:34.000Z</time></trkpt><trkpt lon="5.648863" lat="51.061202"><ele>59.8</ele><time>2022-05-15T06:39:35.000Z</time></trkpt><trkpt lon="5.648807" lat="51.061147"><ele>59.8</ele><time>2022-05-15T06:39:36.000Z</time></trkpt><trkpt lon="5.648751" lat="51.061094"><ele>59.8</ele><time>2022-05-15T06:39:37.000Z</time></trkpt><trkpt lon="5.6487" lat="51.061045"><ele>59.8</ele><time>2022-05-15T06:39:38.000Z</time></trkpt><trkpt lon="5.648647" lat="51.060991"><ele>59.8</ele><time>2022-05-15T06:39:39.000Z</time></trkpt><trkpt lon="5.648592" lat="51.060941"><ele>60</ele><time>2022-05-15T06:39:40.000Z</time></trkpt><trkpt lon="5.648537" lat="51.060885"><ele>60</ele><time>2022-05-15T06:39:41.000Z</time></trkpt><trkpt lon="5.648481" lat="51.060831"><ele>60</ele><time>2022-05-15T06:39:42.000Z</time></trkpt><trkpt lon="5.648423" lat="51.060773"><ele>60</ele><time>2022-05-15T06:39:43.000Z</time></trkpt><trkpt lon="5.648367" lat="51.06072"><ele>60</ele><time>2022-05-15T06:39:44.000Z</time></trkpt><trkpt lon="5.648315" lat="51.060674"><ele>60</ele><time>2022-05-15T06:39:45.000Z</time></trkpt><trkpt lon="5.648245" lat="51.060613"><ele>60</ele><time>2022-05-15T06:39:46.000Z</time></trkpt><trkpt lon="5.648179" lat="51.06056"><ele>60</ele><time>2022-05-15T06:39:47.000Z</time></trkpt><trkpt lon="5.648105" lat="51.060507"><ele>59.8</ele><time>2022-05-15T06:39:48.000Z</time></trkpt><trkpt lon="5.648026" lat="51.060457"><ele>59.8</ele><time>2022-05-15T06:39:49.000Z</time></trkpt><trkpt lon="5.647941" lat="51.060407"><ele>59.6</ele><time>2022-05-15T06:39:50.000Z</time></trkpt><trkpt lon="5.647848" lat="51.060361"><ele>59.6</ele><time>2022-05-15T06:39:51.000Z</time></trkpt><trkpt lon="5.647753" lat="51.060319"><ele>59.4</ele><time>2022-05-15T06:39:52.000Z</time></trkpt><trkpt lon="5.647656" lat="51.060281"><ele>59.2</ele><time>2022-05-15T06:39:53.000Z</time></trkpt><trkpt lon="5.647552" lat="51.060243"><ele>59.2</ele><time>2022-05-15T06:39:54.000Z</time></trkpt><trkpt lon="5.64745" lat="51.060212"><ele>59</ele><time>2022-05-15T06:39:55.000Z</time></trkpt><trkpt lon="5.647345" lat="51.060178"><ele>58.8</ele><time>2022-05-15T06:39:56.000Z</time></trkpt><trkpt lon="5.647243" lat="51.060148"><ele>58.8</ele><time>2022-05-15T06:39:57.000Z</time></trkpt><trkpt lon="5.64713" lat="51.060117"><ele>58.8</ele><time>2022-05-15T06:39:58.000Z</time></trkpt><trkpt lon="5.64702" lat="51.060086"><ele>58.6</ele><time>2022-05-15T06:39:59.000Z</time></trkpt><trkpt lon="5.646909" lat="51.060056"><ele>58.4</ele><time>2022-05-15T06:40:00.000Z</time></trkpt><trkpt lon="5.646794" lat="51.060025"><ele>58.2</ele><time>2022-05-15T06:40:01.000Z</time></trkpt><trkpt lon="5.646681" lat="51.059995"><ele>58.2</ele><time>2022-05-15T06:40:02.000Z</time></trkpt><trkpt lon="5.646571" lat="51.059964"><ele>58</ele><time>2022-05-15T06:40:03.000Z</time></trkpt><trkpt lon="5.646465" lat="51.059934"><ele>58</ele><time>2022-05-15T06:40:04.000Z</time></trkpt><trkpt lon="5.646358" lat="51.059903"><ele>58</ele><time>2022-05-15T06:40:05.000Z</time></trkpt><trkpt lon="5.646252" lat="51.059873"><ele>57.8</ele><time>2022-05-15T06:40:06.000Z</time></trkpt><trkpt lon="5.646141" lat="51.059846"><ele>57.8</ele><time>2022-05-15T06:40:07.000Z</time></trkpt><trkpt lon="5.646033" lat="51.059815"><ele>57.8</ele><time>2022-05-15T06:40:08.000Z</time></trkpt><trkpt lon="5.645927" lat="51.059789"><ele>57.8</ele><time>2022-05-15T06:40:09.000Z</time></trkpt><trkpt lon="5.64582" lat="51.059758"><ele>57.8</ele><time>2022-05-15T06:40:10.000Z</time></trkpt><trkpt lon="5.645713" lat="51.059728"><ele>57.6</ele><time>2022-05-15T06:40:11.000Z</time></trkpt><trkpt lon="5.645603" lat="51.059694"><ele>57.4</ele><time>2022-05-15T06:40:12.000Z</time></trkpt><trkpt lon="5.6455" lat="51.059668"><ele>57.4</ele><time>2022-05-15T06:40:13.000Z</time></trkpt><trkpt lon="5.645384" lat="51.059636"><ele>57.4</ele><time>2022-05-15T06:40:14.000Z</time></trkpt><trkpt lon="5.645275" lat="51.059606"><ele>57.2</ele><time>2022-05-15T06:40:15.000Z</time></trkpt><trkpt lon="5.64518" lat="51.059576"><ele>57.2</ele><time>2022-05-15T06:40:16.000Z</time></trkpt><trkpt lon="5.645058" lat="51.059542"><ele>57.2</ele><time>2022-05-15T06:40:17.000Z</time></trkpt><trkpt lon="5.644947" lat="51.05951"><ele>57.2</ele><time>2022-05-15T06:40:18.000Z</time></trkpt><trkpt lon="5.644838" lat="51.059476"><ele>57.2</ele><time>2022-05-15T06:40:19.000Z</time></trkpt><trkpt lon="5.644732" lat="51.059438"><ele>57.2</ele><time>2022-05-15T06:40:20.000Z</time></trkpt><trkpt lon="5.644627" lat="51.059404"><ele>57.2</ele><time>2022-05-15T06:40:21.000Z</time></trkpt><trkpt lon="5.644521" lat="51.059369"><ele>57.2</ele><time>2022-05-15T06:40:22.000Z</time></trkpt><trkpt lon="5.644414" lat="51.059331"><ele>57.2</ele><time>2022-05-15T06:40:23.000Z</time></trkpt><trkpt lon="5.64431" lat="51.059297"><ele>57.2</ele><time>2022-05-15T06:40:24.000Z</time></trkpt><trkpt lon="5.644209" lat="51.059255"><ele>57.2</ele><time>2022-05-15T06:40:25.000Z</time></trkpt><trkpt lon="5.644108" lat="51.059217"><ele>57.2</ele><time>2022-05-15T06:40:26.000Z</time></trkpt><trkpt lon="5.644009" lat="51.059179"><ele>57</ele><time>2022-05-15T06:40:27.000Z</time></trkpt><trkpt lon="5.643906" lat="51.059136"><ele>57</ele><time>2022-05-15T06:40:28.000Z</time></trkpt><trkpt lon="5.643811" lat="51.059095"><ele>57</ele><time>2022-05-15T06:40:29.000Z</time></trkpt><trkpt lon="5.643717" lat="51.059054"><ele>56.8</ele><time>2022-05-15T06:40:30.000Z</time></trkpt><trkpt lon="5.643621" lat="51.059011"><ele>56.8</ele><time>2022-05-15T06:40:31.000Z</time></trkpt><trkpt lon="5.64353" lat="51.058965"><ele>56.8</ele><time>2022-05-15T06:40:32.000Z</time></trkpt><trkpt lon="5.643438" lat="51.05892"><ele>56.8</ele><time>2022-05-15T06:40:33.000Z</time></trkpt><trkpt lon="5.643348" lat="51.058874"><ele>56.8</ele><time>2022-05-15T06:40:34.000Z</time></trkpt><trkpt lon="5.643258" lat="51.058828"><ele>56.8</ele><time>2022-05-15T06:40:35.000Z</time></trkpt><trkpt lon="5.643171" lat="51.058782"><ele>56.8</ele><time>2022-05-15T06:40:36.000Z</time></trkpt><trkpt lon="5.643086" lat="51.058737"><ele>56.8</ele><time>2022-05-15T06:40:37.000Z</time></trkpt><trkpt lon="5.642997" lat="51.058691"><ele>56.8</ele><time>2022-05-15T06:40:38.000Z</time></trkpt><trkpt lon="5.642905" lat="51.058644"><ele>56.8</ele><time>2022-05-15T06:40:39.000Z</time></trkpt><trkpt lon="5.642819" lat="51.058599"><ele>56.8</ele><time>2022-05-15T06:40:40.000Z</time></trkpt><trkpt lon="5.642737" lat="51.058557"><ele>56.6</ele><time>2022-05-15T06:40:41.000Z</time></trkpt><trkpt lon="5.642661" lat="51.058513"><ele>56.6</ele><time>2022-05-15T06:40:42.000Z</time></trkpt><trkpt lon="5.642584" lat="51.058473"><ele>56.4</ele><time>2022-05-15T06:40:43.000Z</time></trkpt><trkpt lon="5.642511" lat="51.058424"><ele>56.4</ele><time>2022-05-15T06:40:44.000Z</time></trkpt><trkpt lon="5.64244" lat="51.058378"><ele>56.4</ele><time>2022-05-15T06:40:45.000Z</time></trkpt><trkpt lon="5.642366" lat="51.058328"><ele>56.6</ele><time>2022-05-15T06:40:46.000Z</time></trkpt><trkpt lon="5.642295" lat="51.058283"><ele>56.6</ele><time>2022-05-15T06:40:47.000Z</time></trkpt><trkpt lon="5.642226" lat="51.058244"><ele>56.4</ele><time>2022-05-15T06:40:48.000Z</time></trkpt><trkpt lon="5.642164" lat="51.05821"><ele>56.2</ele><time>2022-05-15T06:40:49.000Z</time></trkpt><trkpt lon="5.642097" lat="51.058179"><ele>56</ele><time>2022-05-15T06:40:50.000Z</time></trkpt><trkpt lon="5.642034" lat="51.058141"><ele>56</ele><time>2022-05-15T06:40:51.000Z</time></trkpt><trkpt lon="5.641963" lat="51.058099"><ele>56</ele><time>2022-05-15T06:40:52.000Z</time></trkpt><trkpt lon="5.641883" lat="51.058057"><ele>56</ele><time>2022-05-15T06:40:53.000Z</time></trkpt><trkpt lon="5.641805" lat="51.058012"><ele>56.2</ele><time>2022-05-15T06:40:54.000Z</time></trkpt><trkpt lon="5.641732" lat="51.057969"><ele>56.2</ele><time>2022-05-15T06:40:55.000Z</time></trkpt><trkpt lon="5.641654" lat="51.057924"><ele>56.2</ele><time>2022-05-15T06:40:56.000Z</time></trkpt><trkpt lon="5.641574" lat="51.057885"><ele>56.2</ele><time>2022-05-15T06:40:57.000Z</time></trkpt><trkpt lon="5.641496" lat="51.057844"><ele>56.4</ele><time>2022-05-15T06:40:58.000Z</time></trkpt><trkpt lon="5.641421" lat="51.057809"><ele>56.4</ele><time>2022-05-15T06:40:59.000Z</time></trkpt><trkpt lon="5.641352" lat="51.057767"><ele>56.6</ele><time>2022-05-15T06:41:00.000Z</time></trkpt><trkpt lon="5.641287" lat="51.057733"><ele>56.6</ele><time>2022-05-15T06:41:01.000Z</time></trkpt><trkpt lon="5.641221" lat="51.057695"><ele>56.6</ele><time>2022-05-15T06:41:02.000Z</time></trkpt><trkpt lon="5.641154" lat="51.05766"><ele>56.8</ele><time>2022-05-15T06:41:03.000Z</time></trkpt><trkpt lon="5.641087" lat="51.05762"><ele>56.8</ele><time>2022-05-15T06:41:04.000Z</time></trkpt><trkpt lon="5.641002" lat="51.057577"><ele>57</ele><time>2022-05-15T06:41:05.000Z</time></trkpt><trkpt lon="5.640929" lat="51.057534"><ele>57</ele><time>2022-05-15T06:41:06.000Z</time></trkpt><trkpt lon="5.640858" lat="51.057492"><ele>57.2</ele><time>2022-05-15T06:41:07.000Z</time></trkpt><trkpt lon="5.640792" lat="51.057447"><ele>57.4</ele><time>2022-05-15T06:41:08.000Z</time></trkpt><trkpt lon="5.640724" lat="51.057405"><ele>57.4</ele><time>2022-05-15T06:41:09.000Z</time></trkpt><trkpt lon="5.640651" lat="51.05737"><ele>57.6</ele><time>2022-05-15T06:41:10.000Z</time></trkpt><trkpt lon="5.640569" lat="51.057336"><ele>57.6</ele><time>2022-05-15T06:41:11.000Z</time></trkpt><trkpt lon="5.640489" lat="51.057302"><ele>57.6</ele><time>2022-05-15T06:41:12.000Z</time></trkpt><trkpt lon="5.64041" lat="51.057268"><ele>57.8</ele><time>2022-05-15T06:41:13.000Z</time></trkpt><trkpt lon="5.640334" lat="51.057233"><ele>57.8</ele><time>2022-05-15T06:41:14.000Z</time></trkpt><trkpt lon="5.640261" lat="51.057191"><ele>58</ele><time>2022-05-15T06:41:15.000Z</time></trkpt><trkpt lon="5.6402" lat="51.057161"><ele>58</ele><time>2022-05-15T06:41:16.000Z</time></trkpt><trkpt lon="5.640143" lat="51.05713"><ele>58.2</ele><time>2022-05-15T06:41:17.000Z</time></trkpt><trkpt lon="5.640085" lat="51.057096"><ele>58.2</ele><time>2022-05-15T06:41:18.000Z</time></trkpt><trkpt lon="5.640022" lat="51.057058"><ele>58.4</ele><time>2022-05-15T06:41:19.000Z</time></trkpt><trkpt lon="5.639942" lat="51.05702"><ele>58.4</ele><time>2022-05-15T06:41:20.000Z</time></trkpt><trkpt lon="5.639852" lat="51.056973"><ele>58.6</ele><time>2022-05-15T06:41:21.000Z</time></trkpt><trkpt lon="5.639757" lat="51.056928"><ele>58.6</ele><time>2022-05-15T06:41:22.000Z</time></trkpt><trkpt lon="5.639664" lat="51.056883"><ele>58.6</ele><time>2022-05-15T06:41:23.000Z</time></trkpt><trkpt lon="5.639567" lat="51.056838"><ele>58.8</ele><time>2022-05-15T06:41:24.000Z</time></trkpt><trkpt lon="5.639477" lat="51.056795"><ele>59</ele><time>2022-05-15T06:41:25.000Z</time></trkpt><trkpt lon="5.639396" lat="51.056753"><ele>59</ele><time>2022-05-15T06:41:26.000Z</time></trkpt><trkpt lon="5.639319" lat="51.056715"><ele>59.2</ele><time>2022-05-15T06:41:27.000Z</time></trkpt><trkpt lon="5.63925" lat="51.056684"><ele>59.4</ele><time>2022-05-15T06:41:28.000Z</time></trkpt><trkpt lon="5.6392" lat="51.056649"><ele>59.6</ele><time>2022-05-15T06:41:29.000Z</time></trkpt><trkpt lon="5.639157" lat="51.056612"><ele>59.6</ele><time>2022-05-15T06:41:30.000Z</time></trkpt><trkpt lon="5.639119" lat="51.05657"><ele>59.8</ele><time>2022-05-15T06:41:31.000Z</time></trkpt><trkpt lon="5.639079" lat="51.056532"><ele>60</ele><time>2022-05-15T06:41:32.000Z</time></trkpt><trkpt lon="5.639026" lat="51.056499"><ele>60.2</ele><time>2022-05-15T06:41:33.000Z</time></trkpt><trkpt lon="5.638948" lat="51.056462"><ele>60.4</ele><time>2022-05-15T06:41:34.000Z</time></trkpt><trkpt lon="5.638881" lat="51.056432"><ele>60.6</ele><time>2022-05-15T06:41:35.000Z</time></trkpt><trkpt lon="5.638813" lat="51.056408"><ele>61</ele><time>2022-05-15T06:41:36.000Z</time></trkpt><trkpt lon="5.638745" lat="51.056382"><ele>61.4</ele><time>2022-05-15T06:41:37.000Z</time></trkpt><trkpt lon="5.638683" lat="51.056359"><ele>61.6</ele><time>2022-05-15T06:41:38.000Z</time></trkpt><trkpt lon="5.638623" lat="51.056326"><ele>62</ele><time>2022-05-15T06:41:39.000Z</time></trkpt><trkpt lon="5.638581" lat="51.056284"><ele>62.4</ele><time>2022-05-15T06:41:40.000Z</time></trkpt><trkpt lon="5.638563" lat="51.056242"><ele>62.6</ele><time>2022-05-15T06:41:41.000Z</time></trkpt><trkpt lon="5.638568" lat="51.0562"><ele>63</ele><time>2022-05-15T06:41:42.000Z</time></trkpt><trkpt lon="5.638601" lat="51.056161"><ele>63.2</ele><time>2022-05-15T06:41:43.000Z</time></trkpt><trkpt lon="5.638644" lat="51.056123"><ele>63.6</ele><time>2022-05-15T06:41:44.000Z</time></trkpt><trkpt lon="5.638691" lat="51.056085"><ele>63.6</ele><time>2022-05-15T06:41:45.000Z</time></trkpt><trkpt lon="5.638737" lat="51.056043"><ele>63.8</ele><time>2022-05-15T06:41:46.000Z</time></trkpt><trkpt lon="5.638779" lat="51.056005"><ele>64</ele><time>2022-05-15T06:41:47.000Z</time></trkpt><trkpt lon="5.638822" lat="51.055963"><ele>64.4</ele><time>2022-05-15T06:41:48.000Z</time></trkpt><trkpt lon="5.638867" lat="51.055921"><ele>64.6</ele><time>2022-05-15T06:41:49.000Z</time></trkpt><trkpt lon="5.638918" lat="51.055883"><ele>64.8</ele><time>2022-05-15T06:41:50.000Z</time></trkpt><trkpt lon="5.638968" lat="51.055844"><ele>65</ele><time>2022-05-15T06:41:51.000Z</time></trkpt><trkpt lon="5.639014" lat="51.05581"><ele>65.2</ele><time>2022-05-15T06:41:52.000Z</time></trkpt><trkpt lon="5.63907" lat="51.055768"><ele>65.4</ele><time>2022-05-15T06:41:53.000Z</time></trkpt><trkpt lon="5.639121" lat="51.055731"><ele>65.4</ele><time>2022-05-15T06:41:54.000Z</time></trkpt><trkpt lon="5.639178" lat="51.055692"><ele>65.4</ele><time>2022-05-15T06:41:55.000Z</time></trkpt><trkpt lon="5.639235" lat="51.055657"><ele>65.4</ele><time>2022-05-15T06:41:56.000Z</time></trkpt><trkpt lon="5.639291" lat="51.05562"><ele>65.4</ele><time>2022-05-15T06:41:57.000Z</time></trkpt><trkpt lon="5.639347" lat="51.055581"><ele>65.6</ele><time>2022-05-15T06:41:58.000Z</time></trkpt><trkpt lon="5.63941" lat="51.055544"><ele>65.6</ele><time>2022-05-15T06:41:59.000Z</time></trkpt><trkpt lon="5.639476" lat="51.055505"><ele>65.6</ele><time>2022-05-15T06:42:00.000Z</time></trkpt><trkpt lon="5.639541" lat="51.055467"><ele>65.8</ele><time>2022-05-15T06:42:01.000Z</time></trkpt><trkpt lon="5.639603" lat="51.055425"><ele>65.8</ele><time>2022-05-15T06:42:02.000Z</time></trkpt><trkpt lon="5.639664" lat="51.055383"><ele>65.8</ele><time>2022-05-15T06:42:03.000Z</time></trkpt><trkpt lon="5.639729" lat="51.055342"><ele>65.8</ele><time>2022-05-15T06:42:04.000Z</time></trkpt><trkpt lon="5.639796" lat="51.055292"><ele>65.8</ele><time>2022-05-15T06:42:05.000Z</time></trkpt><trkpt lon="5.63986" lat="51.055246"><ele>65.8</ele><time>2022-05-15T06:42:06.000Z</time></trkpt><trkpt lon="5.639918" lat="51.0552"><ele>65.8</ele><time>2022-05-15T06:42:07.000Z</time></trkpt><trkpt lon="5.639986" lat="51.055147"><ele>65.8</ele><time>2022-05-15T06:42:08.000Z</time></trkpt><trkpt lon="5.640051" lat="51.055101"><ele>65.8</ele><time>2022-05-15T06:42:09.000Z</time></trkpt><trkpt lon="5.640115" lat="51.055049"><ele>65.6</ele><time>2022-05-15T06:42:10.000Z</time></trkpt><trkpt lon="5.640184" lat="51.054998"><ele>65.6</ele><time>2022-05-15T06:42:11.000Z</time></trkpt><trkpt lon="5.640254" lat="51.054945"><ele>65.6</ele><time>2022-05-15T06:42:12.000Z</time></trkpt><trkpt lon="5.640325" lat="51.054891"><ele>65.4</ele><time>2022-05-15T06:42:13.000Z</time></trkpt><trkpt lon="5.640392" lat="51.054842"><ele>65.2</ele><time>2022-05-15T06:42:14.000Z</time></trkpt><trkpt lon="5.640461" lat="51.054788"><ele>65</ele><time>2022-05-15T06:42:15.000Z</time></trkpt><trkpt lon="5.640524" lat="51.054747"><ele>64.8</ele><time>2022-05-15T06:42:16.000Z</time></trkpt><trkpt lon="5.640585" lat="51.054704"><ele>64.8</ele><time>2022-05-15T06:42:17.000Z</time></trkpt><trkpt lon="5.640641" lat="51.054658"><ele>64.6</ele><time>2022-05-15T06:42:18.000Z</time></trkpt><trkpt lon="5.640697" lat="51.054616"><ele>64.6</ele><time>2022-05-15T06:42:19.000Z</time></trkpt><trkpt lon="5.64075" lat="51.054571"><ele>64.6</ele><time>2022-05-15T06:42:20.000Z</time></trkpt><trkpt lon="5.6408" lat="51.054529"><ele>64.6</ele><time>2022-05-15T06:42:21.000Z</time></trkpt><trkpt lon="5.640846" lat="51.05449"><ele>64.6</ele><time>2022-05-15T06:42:22.000Z</time></trkpt><trkpt lon="5.640895" lat="51.05446"><ele>64.6</ele><time>2022-05-15T06:42:23.000Z</time></trkpt><trkpt lon="5.640943" lat="51.054429"><ele>64.6</ele><time>2022-05-15T06:42:24.000Z</time></trkpt><trkpt lon="5.64099" lat="51.054407"><ele>64.8</ele><time>2022-05-15T06:42:25.000Z</time></trkpt><trkpt lon="5.641042" lat="51.05438"><ele>64.8</ele><time>2022-05-15T06:42:26.000Z</time></trkpt><trkpt lon="5.641098" lat="51.054353"><ele>64.8</ele><time>2022-05-15T06:42:27.000Z</time></trkpt><trkpt lon="5.641153" lat="51.054326"><ele>65</ele><time>2022-05-15T06:42:28.000Z</time></trkpt><trkpt lon="5.641205" lat="51.054303"><ele>65</ele><time>2022-05-15T06:42:29.000Z</time></trkpt><trkpt lon="5.641255" lat="51.05428"><ele>65.2</ele><time>2022-05-15T06:42:30.000Z</time></trkpt><trkpt lon="5.641302" lat="51.054261"><ele>65.2</ele><time>2022-05-15T06:42:31.000Z</time></trkpt><trkpt lon="5.641351" lat="51.054246"><ele>65.4</ele><time>2022-05-15T06:42:32.000Z</time></trkpt><trkpt lon="5.641406" lat="51.05423"><ele>65.4</ele><time>2022-05-15T06:42:33.000Z</time></trkpt><trkpt lon="5.64147" lat="51.054194"><ele>65.6</ele><time>2022-05-15T06:42:34.000Z</time></trkpt><trkpt lon="5.641534" lat="51.054158"><ele>65.6</ele><time>2022-05-15T06:42:35.000Z</time></trkpt><trkpt lon="5.6416" lat="51.05412"><ele>65.8</ele><time>2022-05-15T06:42:36.000Z</time></trkpt><trkpt lon="5.641656" lat="51.054078"><ele>66</ele><time>2022-05-15T06:42:37.000Z</time></trkpt><trkpt lon="5.641718" lat="51.054037"><ele>66.4</ele><time>2022-05-15T06:42:38.000Z</time></trkpt><trkpt lon="5.641767" lat="51.054013"><ele>66.6</ele><time>2022-05-15T06:42:39.000Z</time></trkpt><trkpt lon="5.641814" lat="51.053983"><ele>66.8</ele><time>2022-05-15T06:42:40.000Z</time></trkpt><trkpt lon="5.641858" lat="51.053957"><ele>67</ele><time>2022-05-15T06:42:41.000Z</time></trkpt><trkpt lon="5.641907" lat="51.053916"><ele>67.2</ele><time>2022-05-15T06:42:42.000Z</time></trkpt><trkpt lon="5.641953" lat="51.053891"><ele>67.4</ele><time>2022-05-15T06:42:43.000Z</time></trkpt><trkpt lon="5.641997" lat="51.053864"><ele>67.6</ele><time>2022-05-15T06:42:44.000Z</time></trkpt><trkpt lon="5.642041" lat="51.053823"><ele>67.8</ele><time>2022-05-15T06:42:45.000Z</time></trkpt><trkpt lon="5.642103" lat="51.053744"><ele>68</ele><time>2022-05-15T06:42:46.000Z</time></trkpt><trkpt lon="5.642139" lat="51.053708"><ele>68.2</ele><time>2022-05-15T06:42:47.000Z</time></trkpt><trkpt lon="5.642196" lat="51.053637"><ele>68.4</ele><time>2022-05-15T06:42:48.000Z</time></trkpt><trkpt lon="5.642229" lat="51.053591"><ele>68.6</ele><time>2022-05-15T06:42:49.000Z</time></trkpt><trkpt lon="5.642274" lat="51.053522"><ele>68.8</ele><time>2022-05-15T06:42:50.000Z</time></trkpt><trkpt lon="5.642309" lat="51.053479"><ele>69</ele><time>2022-05-15T06:42:51.000Z</time></trkpt><trkpt lon="5.64235" lat="51.053427"><ele>69.2</ele><time>2022-05-15T06:42:52.000Z</time></trkpt><trkpt lon="5.642411" lat="51.053366"><ele>69.4</ele><time>2022-05-15T06:42:53.000Z</time></trkpt><trkpt lon="5.642462" lat="51.053312"><ele>69.6</ele><time>2022-05-15T06:42:54.000Z</time></trkpt><trkpt lon="5.642504" lat="51.053257"><ele>69.8</ele><time>2022-05-15T06:42:55.000Z</time></trkpt><trkpt lon="5.642556" lat="51.053191"><ele>70.2</ele><time>2022-05-15T06:42:56.000Z</time></trkpt><trkpt lon="5.642597" lat="51.053139"><ele>70.4</ele><time>2022-05-15T06:42:57.000Z</time></trkpt><trkpt lon="5.642639" lat="51.053098"><ele>70.8</ele><time>2022-05-15T06:42:58.000Z</time></trkpt><trkpt lon="5.642685" lat="51.053052"><ele>71.2</ele><time>2022-05-15T06:42:59.000Z</time></trkpt><trkpt lon="5.642721" lat="51.053007"><ele>71.6</ele><time>2022-05-15T06:43:00.000Z</time></trkpt><trkpt lon="5.642748" lat="51.052968"><ele>72</ele><time>2022-05-15T06:43:01.000Z</time></trkpt><trkpt lon="5.642774" lat="51.052938"><ele>72.4</ele><time>2022-05-15T06:43:02.000Z</time></trkpt><trkpt lon="5.642809" lat="51.052899"><ele>72.8</ele><time>2022-05-15T06:43:03.000Z</time></trkpt><trkpt lon="5.642852" lat="51.052861"><ele>73</ele><time>2022-05-15T06:43:04.000Z</time></trkpt><trkpt lon="5.642891" lat="51.052816"><ele>73.4</ele><time>2022-05-15T06:43:05.000Z</time></trkpt><trkpt lon="5.642937" lat="51.052767"><ele>73.6</ele><time>2022-05-15T06:43:06.000Z</time></trkpt><trkpt lon="5.642974" lat="51.052714"><ele>73.8</ele><time>2022-05-15T06:43:07.000Z</time></trkpt><trkpt lon="5.643015" lat="51.052656"><ele>74.2</ele><time>2022-05-15T06:43:08.000Z</time></trkpt><trkpt lon="5.643049" lat="51.05261"><ele>74.4</ele><time>2022-05-15T06:43:09.000Z</time></trkpt><trkpt lon="5.643088" lat="51.052553"><ele>74.6</ele><time>2022-05-15T06:43:10.000Z</time></trkpt><trkpt lon="5.643116" lat="51.052503"><ele>74.8</ele><time>2022-05-15T06:43:11.000Z</time></trkpt><trkpt lon="5.643175" lat="51.052445"><ele>75</ele><time>2022-05-15T06:43:12.000Z</time></trkpt><trkpt lon="5.643219" lat="51.052385"><ele>75.2</ele><time>2022-05-15T06:43:13.000Z</time></trkpt><trkpt lon="5.643259" lat="51.052302"><ele>75.6</ele><time>2022-05-15T06:43:14.000Z</time></trkpt><trkpt lon="5.643284" lat="51.052255"><ele>75.8</ele><time>2022-05-15T06:43:15.000Z</time></trkpt><trkpt lon="5.643306" lat="51.052206"><ele>76.2</ele><time>2022-05-15T06:43:16.000Z</time></trkpt><trkpt lon="5.643339" lat="51.052148"><ele>76.6</ele><time>2022-05-15T06:43:17.000Z</time></trkpt><trkpt lon="5.643366" lat="51.05211"><ele>77</ele><time>2022-05-15T06:43:18.000Z</time></trkpt><trkpt lon="5.643413" lat="51.052029"><ele>77.4</ele><time>2022-05-15T06:43:19.000Z</time></trkpt><trkpt lon="5.643453" lat="51.051974"><ele>77.8</ele><time>2022-05-15T06:43:20.000Z</time></trkpt><trkpt lon="5.6435" lat="51.051909"><ele>78.2</ele><time>2022-05-15T06:43:21.000Z</time></trkpt><trkpt lon="5.643537" lat="51.051859"><ele>78.6</ele><time>2022-05-15T06:43:22.000Z</time></trkpt><trkpt lon="5.643571" lat="51.051791"><ele>79</ele><time>2022-05-15T06:43:23.000Z</time></trkpt><trkpt lon="5.643607" lat="51.051729"><ele>79.4</ele><time>2022-05-15T06:43:24.000Z</time></trkpt><trkpt lon="5.643653" lat="51.051665"><ele>79.8</ele><time>2022-05-15T06:43:25.000Z</time></trkpt><trkpt lon="5.643687" lat="51.051599"><ele>80.2</ele><time>2022-05-15T06:43:26.000Z</time></trkpt><trkpt lon="5.643725" lat="51.051535"><ele>80.4</ele><time>2022-05-15T06:43:27.000Z</time></trkpt><trkpt lon="5.643763" lat="51.051463"><ele>80.6</ele><time>2022-05-15T06:43:28.000Z</time></trkpt><trkpt lon="5.6438" lat="51.051394"><ele>81</ele><time>2022-05-15T06:43:29.000Z</time></trkpt><trkpt lon="5.643837" lat="51.051315"><ele>81.2</ele><time>2022-05-15T06:43:30.000Z</time></trkpt><trkpt lon="5.643858" lat="51.051245"><ele>81.6</ele><time>2022-05-15T06:43:31.000Z</time></trkpt><trkpt lon="5.643881" lat="51.05117"><ele>81.8</ele><time>2022-05-15T06:43:32.000Z</time></trkpt><trkpt lon="5.643901" lat="51.051066"><ele>82.2</ele><time>2022-05-15T06:43:33.000Z</time></trkpt><trkpt lon="5.643931" lat="51.050993"><ele>82.4</ele><time>2022-05-15T06:43:34.000Z</time></trkpt><trkpt lon="5.643951" lat="51.050917"><ele>82.6</ele><time>2022-05-15T06:43:35.000Z</time></trkpt><trkpt lon="5.643971" lat="51.050863"><ele>83</ele><time>2022-05-15T06:43:36.000Z</time></trkpt><trkpt lon="5.643988" lat="51.050813"><ele>83.2</ele><time>2022-05-15T06:43:37.000Z</time></trkpt><trkpt lon="5.643998" lat="51.050779"><ele>83.2</ele><time>2022-05-15T06:43:38.000Z</time></trkpt><trkpt lon="5.644006" lat="51.05073"><ele>83.4</ele><time>2022-05-15T06:43:39.000Z</time></trkpt><trkpt lon="5.64404" lat="51.050666"><ele>83.6</ele><time>2022-05-15T06:43:40.000Z</time></trkpt><trkpt lon="5.64406" lat="51.050615"><ele>83.6</ele><time>2022-05-15T06:43:41.000Z</time></trkpt><trkpt lon="5.64408" lat="51.050573"><ele>83.8</ele><time>2022-05-15T06:43:42.000Z</time></trkpt><trkpt lon="5.644103" lat="51.050527"><ele>84</ele><time>2022-05-15T06:43:43.000Z</time></trkpt><trkpt lon="5.644118" lat="51.050485"><ele>84</ele><time>2022-05-15T06:43:44.000Z</time></trkpt><trkpt lon="5.644147" lat="51.050439"><ele>84.2</ele><time>2022-05-15T06:43:45.000Z</time></trkpt><trkpt lon="5.644166" lat="51.050401"><ele>84.2</ele><time>2022-05-15T06:43:46.000Z</time></trkpt><trkpt lon="5.644179" lat="51.050367"><ele>84.4</ele><time>2022-05-15T06:43:47.000Z</time></trkpt><trkpt lon="5.644189" lat="51.050337"><ele>84.4</ele><time>2022-05-15T06:43:48.000Z</time></trkpt><trkpt lon="5.644216" lat="51.050294"><ele>84.4</ele><time>2022-05-15T06:43:49.000Z</time></trkpt><trkpt lon="5.644242" lat="51.050249"><ele>84.4</ele><time>2022-05-15T06:43:50.000Z</time></trkpt><trkpt lon="5.644263" lat="51.050207"><ele>84.6</ele><time>2022-05-15T06:43:51.000Z</time></trkpt><trkpt lon="5.644278" lat="51.050158"><ele>84.6</ele><time>2022-05-15T06:43:52.000Z</time></trkpt><trkpt lon="5.644262" lat="51.050104"><ele>84.6</ele><time>2022-05-15T06:43:53.000Z</time></trkpt><trkpt lon="5.644228" lat="51.050047"><ele>84.8</ele><time>2022-05-15T06:43:54.000Z</time></trkpt><trkpt lon="5.644187" lat="51.050008"><ele>84.8</ele><time>2022-05-15T06:43:55.000Z</time></trkpt><trkpt lon="5.64414" lat="51.04997"><ele>84.8</ele><time>2022-05-15T06:43:56.000Z</time></trkpt><trkpt lon="5.6441" lat="51.049928"><ele>84.8</ele><time>2022-05-15T06:43:57.000Z</time></trkpt><trkpt lon="5.644065" lat="51.049879"><ele>84.8</ele><time>2022-05-15T06:43:58.000Z</time></trkpt><trkpt lon="5.644045" lat="51.049818"><ele>85</ele><time>2022-05-15T06:43:59.000Z</time></trkpt><trkpt lon="5.644013" lat="51.049776"><ele>85</ele><time>2022-05-15T06:44:00.000Z</time></trkpt><trkpt lon="5.643975" lat="51.049726"><ele>85</ele><time>2022-05-15T06:44:01.000Z</time></trkpt><trkpt lon="5.643941" lat="51.049684"><ele>85</ele><time>2022-05-15T06:44:02.000Z</time></trkpt><trkpt lon="5.6439" lat="51.049638"><ele>85</ele><time>2022-05-15T06:44:03.000Z</time></trkpt><trkpt lon="5.643857" lat="51.0496"><ele>85</ele><time>2022-05-15T06:44:04.000Z</time></trkpt><trkpt lon="5.64381" lat="51.049562"><ele>85</ele><time>2022-05-15T06:44:05.000Z</time></trkpt><trkpt lon="5.643767" lat="51.049535"><ele>85</ele><time>2022-05-15T06:44:06.000Z</time></trkpt><trkpt lon="5.643709" lat="51.049504"><ele>85</ele><time>2022-05-15T06:44:07.000Z</time></trkpt><trkpt lon="5.643656" lat="51.049481"><ele>85</ele><time>2022-05-15T06:44:08.000Z</time></trkpt><trkpt lon="5.6436" lat="51.049458"><ele>85</ele><time>2022-05-15T06:44:09.000Z</time></trkpt><trkpt lon="5.643544" lat="51.049439"><ele>85</ele><time>2022-05-15T06:44:10.000Z</time></trkpt><trkpt lon="5.643487" lat="51.04942"><ele>85.2</ele><time>2022-05-15T06:44:11.000Z</time></trkpt><trkpt lon="5.643426" lat="51.049397"><ele>85.2</ele><time>2022-05-15T06:44:12.000Z</time></trkpt><trkpt lon="5.64337" lat="51.049379"><ele>85.2</ele><time>2022-05-15T06:44:13.000Z</time></trkpt><trkpt lon="5.643306" lat="51.049359"><ele>85.2</ele><time>2022-05-15T06:44:14.000Z</time></trkpt><trkpt lon="5.64325" lat="51.04934"><ele>85.2</ele><time>2022-05-15T06:44:15.000Z</time></trkpt><trkpt lon="5.643205" lat="51.049324"><ele>85.2</ele><time>2022-05-15T06:44:16.000Z</time></trkpt><trkpt lon="5.643147" lat="51.049302"><ele>85.2</ele><time>2022-05-15T06:44:17.000Z</time></trkpt><trkpt lon="5.643093" lat="51.049283"><ele>85.2</ele><time>2022-05-15T06:44:18.000Z</time></trkpt><trkpt lon="5.64304" lat="51.049267"><ele>85.2</ele><time>2022-05-15T06:44:19.000Z</time></trkpt><trkpt lon="5.642986" lat="51.049252"><ele>85.2</ele><time>2022-05-15T06:44:20.000Z</time></trkpt><trkpt lon="5.642928" lat="51.04924"><ele>85.2</ele><time>2022-05-15T06:44:21.000Z</time></trkpt><trkpt lon="5.642875" lat="51.049225"><ele>85.2</ele><time>2022-05-15T06:44:22.000Z</time></trkpt><trkpt lon="5.642822" lat="51.04921"><ele>85.2</ele><time>2022-05-15T06:44:23.000Z</time></trkpt><trkpt lon="5.642763" lat="51.049195"><ele>85.4</ele><time>2022-05-15T06:44:24.000Z</time></trkpt><trkpt lon="5.642713" lat="51.04918"><ele>85.4</ele><time>2022-05-15T06:44:25.000Z</time></trkpt><trkpt lon="5.642657" lat="51.049168"><ele>85.4</ele><time>2022-05-15T06:44:26.000Z</time></trkpt><trkpt lon="5.642594" lat="51.049153"><ele>85.6</ele><time>2022-05-15T06:44:27.000Z</time></trkpt><trkpt lon="5.64254" lat="51.049138"><ele>85.6</ele><time>2022-05-15T06:44:28.000Z</time></trkpt><trkpt lon="5.642482" lat="51.049123"><ele>85.6</ele><time>2022-05-15T06:44:29.000Z</time></trkpt><trkpt lon="5.642422" lat="51.049107"><ele>85.6</ele><time>2022-05-15T06:44:30.000Z</time></trkpt><trkpt lon="5.642367" lat="51.049096"><ele>85.6</ele><time>2022-05-15T06:44:31.000Z</time></trkpt><trkpt lon="5.642317" lat="51.049081"><ele>85.6</ele><time>2022-05-15T06:44:32.000Z</time></trkpt><trkpt lon="5.642254" lat="51.049065"><ele>85.6</ele><time>2022-05-15T06:44:33.000Z</time></trkpt><trkpt lon="5.642194" lat="51.049054"><ele>85.6</ele><time>2022-05-15T06:44:34.000Z</time></trkpt><trkpt lon="5.642142" lat="51.049046"><ele>85.6</ele><time>2022-05-15T06:44:35.000Z</time></trkpt><trkpt lon="5.642088" lat="51.049035"><ele>85.4</ele><time>2022-05-15T06:44:36.000Z</time></trkpt><trkpt lon="5.642019" lat="51.049016"><ele>85.4</ele><time>2022-05-15T06:44:37.000Z</time></trkpt><trkpt lon="5.641962" lat="51.048997"><ele>85.4</ele><time>2022-05-15T06:44:38.000Z</time></trkpt><trkpt lon="5.641902" lat="51.048964"><ele>85.6</ele><time>2022-05-15T06:44:39.000Z</time></trkpt><trkpt lon="5.641848" lat="51.048914"><ele>85.6</ele><time>2022-05-15T06:44:40.000Z</time></trkpt><trkpt lon="5.641823" lat="51.048868"><ele>85.6</ele><time>2022-05-15T06:44:41.000Z</time></trkpt><trkpt lon="5.641813" lat="51.048818"><ele>85.8</ele><time>2022-05-15T06:44:42.000Z</time></trkpt><trkpt lon="5.641809" lat="51.048754"><ele>85.8</ele><time>2022-05-15T06:44:43.000Z</time></trkpt><trkpt lon="5.641807" lat="51.048693"><ele>85.8</ele><time>2022-05-15T06:44:44.000Z</time></trkpt><trkpt lon="5.641807" lat="51.048632"><ele>85.8</ele><time>2022-05-15T06:44:45.000Z</time></trkpt><trkpt lon="5.641818" lat="51.048578"><ele>86</ele><time>2022-05-15T06:44:46.000Z</time></trkpt><trkpt lon="5.64183" lat="51.048521"><ele>86</ele><time>2022-05-15T06:44:47.000Z</time></trkpt><trkpt lon="5.641838" lat="51.04846"><ele>86</ele><time>2022-05-15T06:44:48.000Z</time></trkpt><trkpt lon="5.641851" lat="51.048407"><ele>86</ele><time>2022-05-15T06:44:49.000Z</time></trkpt><trkpt lon="5.64186" lat="51.048343"><ele>86</ele><time>2022-05-15T06:44:50.000Z</time></trkpt><trkpt lon="5.641865" lat="51.048289"><ele>86</ele><time>2022-05-15T06:44:51.000Z</time></trkpt><trkpt lon="5.641865" lat="51.048227"><ele>86</ele><time>2022-05-15T06:44:52.000Z</time></trkpt><trkpt lon="5.641857" lat="51.04817"><ele>86</ele><time>2022-05-15T06:44:53.000Z</time></trkpt><trkpt lon="5.641841" lat="51.04812"><ele>86</ele><time>2022-05-15T06:44:54.000Z</time></trkpt><trkpt lon="5.641814" lat="51.048067"><ele>86</ele><time>2022-05-15T06:44:55.000Z</time></trkpt><trkpt lon="5.641783" lat="51.048017"><ele>86</ele><time>2022-05-15T06:44:56.000Z</time></trkpt><trkpt lon="5.641751" lat="51.047968"><ele>86</ele><time>2022-05-15T06:44:57.000Z</time></trkpt><trkpt lon="5.641718" lat="51.047922"><ele>86</ele><time>2022-05-15T06:44:58.000Z</time></trkpt><trkpt lon="5.641681" lat="51.047872"><ele>86.2</ele><time>2022-05-15T06:44:59.000Z</time></trkpt><trkpt lon="5.641643" lat="51.047823"><ele>86.2</ele><time>2022-05-15T06:45:00.000Z</time></trkpt><trkpt lon="5.641605" lat="51.047774"><ele>86.2</ele><time>2022-05-15T06:45:01.000Z</time></trkpt><trkpt lon="5.641565" lat="51.047721"><ele>86.2</ele><time>2022-05-15T06:45:02.000Z</time></trkpt><trkpt lon="5.641524" lat="51.04767"><ele>86.2</ele><time>2022-05-15T06:45:03.000Z</time></trkpt><trkpt lon="5.641488" lat="51.047617"><ele>86.4</ele><time>2022-05-15T06:45:04.000Z</time></trkpt><trkpt lon="5.641451" lat="51.047563"><ele>86.2</ele><time>2022-05-15T06:45:05.000Z</time></trkpt><trkpt lon="5.641415" lat="51.047516"><ele>86.2</ele><time>2022-05-15T06:45:06.000Z</time></trkpt><trkpt lon="5.641373" lat="51.04746"><ele>86.2</ele><time>2022-05-15T06:45:07.000Z</time></trkpt><trkpt lon="5.641337" lat="51.047407"><ele>86.2</ele><time>2022-05-15T06:45:08.000Z</time></trkpt><trkpt lon="5.641301" lat="51.047354"><ele>86.2</ele><time>2022-05-15T06:45:09.000Z</time></trkpt><trkpt lon="5.641259" lat="51.0473"><ele>86.2</ele><time>2022-05-15T06:45:10.000Z</time></trkpt><trkpt lon="5.641219" lat="51.04725"><ele>86.2</ele><time>2022-05-15T06:45:11.000Z</time></trkpt><trkpt lon="5.641176" lat="51.047197"><ele>86.2</ele><time>2022-05-15T06:45:12.000Z</time></trkpt><trkpt lon="5.641133" lat="51.04714"><ele>86.2</ele><time>2022-05-15T06:45:13.000Z</time></trkpt><trkpt lon="5.641093" lat="51.047087"><ele>86.4</ele><time>2022-05-15T06:45:14.000Z</time></trkpt><trkpt lon="5.64105" lat="51.047033"><ele>86.4</ele><time>2022-05-15T06:45:15.000Z</time></trkpt><trkpt lon="5.641008" lat="51.046977"><ele>86.4</ele><time>2022-05-15T06:45:16.000Z</time></trkpt><trkpt lon="5.640962" lat="51.046923"><ele>86.4</ele><time>2022-05-15T06:45:17.000Z</time></trkpt><trkpt lon="5.64092" lat="51.046866"><ele>86.4</ele><time>2022-05-15T06:45:18.000Z</time></trkpt><trkpt lon="5.64088" lat="51.046812"><ele>86.2</ele><time>2022-05-15T06:45:19.000Z</time></trkpt><trkpt lon="5.640841" lat="51.046759"><ele>86.2</ele><time>2022-05-15T06:45:20.000Z</time></trkpt><trkpt lon="5.640803" lat="51.046705"><ele>86.2</ele><time>2022-05-15T06:45:21.000Z</time></trkpt><trkpt lon="5.64076" lat="51.046654"><ele>86.2</ele><time>2022-05-15T06:45:22.000Z</time></trkpt><trkpt lon="5.640717" lat="51.046595"><ele>86</ele><time>2022-05-15T06:45:23.000Z</time></trkpt><trkpt lon="5.640675" lat="51.046538"><ele>86</ele><time>2022-05-15T06:45:24.000Z</time></trkpt><trkpt lon="5.640631" lat="51.046484"><ele>86</ele><time>2022-05-15T06:45:25.000Z</time></trkpt><trkpt lon="5.640586" lat="51.046427"><ele>86</ele><time>2022-05-15T06:45:26.000Z</time></trkpt><trkpt lon="5.64054" lat="51.046373"><ele>86</ele><time>2022-05-15T06:45:27.000Z</time></trkpt><trkpt lon="5.640493" lat="51.046316"><ele>86</ele><time>2022-05-15T06:45:28.000Z</time></trkpt><trkpt lon="5.640447" lat="51.046266"><ele>86</ele><time>2022-05-15T06:45:29.000Z</time></trkpt><trkpt lon="5.640405" lat="51.04621"><ele>85.8</ele><time>2022-05-15T06:45:30.000Z</time></trkpt><trkpt lon="5.640365" lat="51.04616"><ele>85.8</ele><time>2022-05-15T06:45:31.000Z</time></trkpt><trkpt lon="5.640326" lat="51.046108"><ele>85.8</ele><time>2022-05-15T06:45:32.000Z</time></trkpt><trkpt lon="5.640286" lat="51.046062"><ele>85.6</ele><time>2022-05-15T06:45:33.000Z</time></trkpt><trkpt lon="5.64024" lat="51.046004"><ele>85.6</ele><time>2022-05-15T06:45:34.000Z</time></trkpt><trkpt lon="5.640197" lat="51.045951"><ele>85.6</ele><time>2022-05-15T06:45:35.000Z</time></trkpt><trkpt lon="5.640153" lat="51.045897"><ele>85.6</ele><time>2022-05-15T06:45:36.000Z</time></trkpt><trkpt lon="5.640108" lat="51.045843"><ele>85.6</ele><time>2022-05-15T06:45:37.000Z</time></trkpt><trkpt lon="5.640065" lat="51.045786"><ele>85.6</ele><time>2022-05-15T06:45:38.000Z</time></trkpt><trkpt lon="5.64002" lat="51.045732"><ele>85.6</ele><time>2022-05-15T06:45:39.000Z</time></trkpt><trkpt lon="5.639976" lat="51.045675"><ele>85.4</ele><time>2022-05-15T06:45:40.000Z</time></trkpt><trkpt lon="5.639937" lat="51.045622"><ele>85.2</ele><time>2022-05-15T06:45:41.000Z</time></trkpt><trkpt lon="5.639894" lat="51.045568"><ele>85.2</ele><time>2022-05-15T06:45:42.000Z</time></trkpt><trkpt lon="5.639852" lat="51.045515"><ele>85.4</ele><time>2022-05-15T06:45:43.000Z</time></trkpt><trkpt lon="5.639809" lat="51.045461"><ele>85.4</ele><time>2022-05-15T06:45:44.000Z</time></trkpt><trkpt lon="5.639763" lat="51.045408"><ele>85.4</ele><time>2022-05-15T06:45:45.000Z</time></trkpt><trkpt lon="5.639718" lat="51.045355"><ele>85.4</ele><time>2022-05-15T06:45:46.000Z</time></trkpt><trkpt lon="5.639676" lat="51.045301"><ele>85.4</ele><time>2022-05-15T06:45:47.000Z</time></trkpt><trkpt lon="5.639634" lat="51.045248"><ele>85.4</ele><time>2022-05-15T06:45:48.000Z</time></trkpt><trkpt lon="5.639594" lat="51.045194"><ele>85.4</ele><time>2022-05-15T06:45:49.000Z</time></trkpt><trkpt lon="5.639553" lat="51.045145"><ele>85.4</ele><time>2022-05-15T06:45:50.000Z</time></trkpt><trkpt lon="5.639513" lat="51.045092"><ele>85.4</ele><time>2022-05-15T06:45:51.000Z</time></trkpt><trkpt lon="5.639472" lat="51.045039"><ele>85.2</ele><time>2022-05-15T06:45:52.000Z</time></trkpt><trkpt lon="5.639429" lat="51.044984"><ele>85.2</ele><time>2022-05-15T06:45:53.000Z</time></trkpt><trkpt lon="5.639388" lat="51.044931"><ele>85.2</ele><time>2022-05-15T06:45:54.000Z</time></trkpt><trkpt lon="5.639347" lat="51.044879"><ele>85.2</ele><time>2022-05-15T06:45:55.000Z</time></trkpt><trkpt lon="5.639305" lat="51.044825"><ele>85.2</ele><time>2022-05-15T06:45:56.000Z</time></trkpt><trkpt lon="5.639263" lat="51.044771"><ele>85.2</ele><time>2022-05-15T06:45:57.000Z</time></trkpt><trkpt lon="5.639222" lat="51.044718"><ele>85.2</ele><time>2022-05-15T06:45:58.000Z</time></trkpt><trkpt lon="5.63918" lat="51.044664"><ele>85</ele><time>2022-05-15T06:45:59.000Z</time></trkpt><trkpt lon="5.639139" lat="51.044611"><ele>85</ele><time>2022-05-15T06:46:00.000Z</time></trkpt><trkpt lon="5.639096" lat="51.044558"><ele>85</ele><time>2022-05-15T06:46:01.000Z</time></trkpt><trkpt lon="5.639055" lat="51.044503"><ele>85</ele><time>2022-05-15T06:46:02.000Z</time></trkpt><trkpt lon="5.639006" lat="51.044447"><ele>84.8</ele><time>2022-05-15T06:46:03.000Z</time></trkpt><trkpt lon="5.638961" lat="51.04439"><ele>84.8</ele><time>2022-05-15T06:46:04.000Z</time></trkpt><trkpt lon="5.638915" lat="51.044333"><ele>84.8</ele><time>2022-05-15T06:46:05.000Z</time></trkpt><trkpt lon="5.63887" lat="51.044275"><ele>84.6</ele><time>2022-05-15T06:46:06.000Z</time></trkpt><trkpt lon="5.638825" lat="51.044218"><ele>84.6</ele><time>2022-05-15T06:46:07.000Z</time></trkpt><trkpt lon="5.638782" lat="51.044161"><ele>84.6</ele><time>2022-05-15T06:46:08.000Z</time></trkpt><trkpt lon="5.638739" lat="51.044103"><ele>84.4</ele><time>2022-05-15T06:46:09.000Z</time></trkpt><trkpt lon="5.638697" lat="51.044047"><ele>84.4</ele><time>2022-05-15T06:46:10.000Z</time></trkpt><trkpt lon="5.638652" lat="51.043986"><ele>84.2</ele><time>2022-05-15T06:46:11.000Z</time></trkpt><trkpt lon="5.638608" lat="51.043932"><ele>84.2</ele><time>2022-05-15T06:46:12.000Z</time></trkpt><trkpt lon="5.638561" lat="51.043871"><ele>84.2</ele><time>2022-05-15T06:46:13.000Z</time></trkpt><trkpt lon="5.638517" lat="51.043814"><ele>84</ele><time>2022-05-15T06:46:14.000Z</time></trkpt><trkpt lon="5.63847" lat="51.04376"><ele>84</ele><time>2022-05-15T06:46:15.000Z</time></trkpt><trkpt lon="5.638429" lat="51.043705"><ele>84</ele><time>2022-05-15T06:46:16.000Z</time></trkpt><trkpt lon="5.638378" lat="51.043644"><ele>84</ele><time>2022-05-15T06:46:17.000Z</time></trkpt><trkpt lon="5.638328" lat="51.043585"><ele>84</ele><time>2022-05-15T06:46:18.000Z</time></trkpt><trkpt lon="5.638282" lat="51.043524"><ele>84</ele><time>2022-05-15T06:46:19.000Z</time></trkpt><trkpt lon="5.638238" lat="51.043472"><ele>84</ele><time>2022-05-15T06:46:20.000Z</time></trkpt><trkpt lon="5.63819" lat="51.043413"><ele>84</ele><time>2022-05-15T06:46:21.000Z</time></trkpt><trkpt lon="5.638143" lat="51.043356"><ele>84</ele><time>2022-05-15T06:46:22.000Z</time></trkpt><trkpt lon="5.638098" lat="51.043299"><ele>84</ele><time>2022-05-15T06:46:23.000Z</time></trkpt><trkpt lon="5.638054" lat="51.043246"><ele>83.8</ele><time>2022-05-15T06:46:24.000Z</time></trkpt><trkpt lon="5.63801" lat="51.043188"><ele>83.8</ele><time>2022-05-15T06:46:25.000Z</time></trkpt><trkpt lon="5.637965" lat="51.043127"><ele>83.8</ele><time>2022-05-15T06:46:26.000Z</time></trkpt><trkpt lon="5.63792" lat="51.043073"><ele>84</ele><time>2022-05-15T06:46:27.000Z</time></trkpt><trkpt lon="5.637876" lat="51.043018"><ele>84</ele><time>2022-05-15T06:46:28.000Z</time></trkpt><trkpt lon="5.637831" lat="51.04296"><ele>84</ele><time>2022-05-15T06:46:29.000Z</time></trkpt><trkpt lon="5.637788" lat="51.042902"><ele>84</ele><time>2022-05-15T06:46:30.000Z</time></trkpt><trkpt lon="5.637746" lat="51.042846"><ele>84</ele><time>2022-05-15T06:46:31.000Z</time></trkpt><trkpt lon="5.6377" lat="51.042788"><ele>84</ele><time>2022-05-15T06:46:32.000Z</time></trkpt><trkpt lon="5.637655" lat="51.04273"><ele>84</ele><time>2022-05-15T06:46:33.000Z</time></trkpt><trkpt lon="5.63761" lat="51.042674"><ele>84</ele><time>2022-05-15T06:46:34.000Z</time></trkpt><trkpt lon="5.637565" lat="51.042612"><ele>84</ele><time>2022-05-15T06:46:35.000Z</time></trkpt><trkpt lon="5.637518" lat="51.042555"><ele>84</ele><time>2022-05-15T06:46:36.000Z</time></trkpt><trkpt lon="5.637473" lat="51.042494"><ele>84</ele><time>2022-05-15T06:46:37.000Z</time></trkpt><trkpt lon="5.637426" lat="51.04244"><ele>84</ele><time>2022-05-15T06:46:38.000Z</time></trkpt><trkpt lon="5.637383" lat="51.042381"><ele>84.2</ele><time>2022-05-15T06:46:39.000Z</time></trkpt><trkpt lon="5.637338" lat="51.042322"><ele>84.2</ele><time>2022-05-15T06:46:40.000Z</time></trkpt><trkpt lon="5.637293" lat="51.042269"><ele>84.2</ele><time>2022-05-15T06:46:41.000Z</time></trkpt><trkpt lon="5.63725" lat="51.042211"><ele>84.4</ele><time>2022-05-15T06:46:42.000Z</time></trkpt><trkpt lon="5.637205" lat="51.042151"><ele>84.4</ele><time>2022-05-15T06:46:43.000Z</time></trkpt><trkpt lon="5.63716" lat="51.042093"><ele>84.4</ele><time>2022-05-15T06:46:44.000Z</time></trkpt><trkpt lon="5.637116" lat="51.042032"><ele>84.4</ele><time>2022-05-15T06:46:45.000Z</time></trkpt><trkpt lon="5.637072" lat="51.041975"><ele>84.4</ele><time>2022-05-15T06:46:46.000Z</time></trkpt><trkpt lon="5.637027" lat="51.041918"><ele>84.4</ele><time>2022-05-15T06:46:47.000Z</time></trkpt><trkpt lon="5.636982" lat="51.041864"><ele>84.4</ele><time>2022-05-15T06:46:48.000Z</time></trkpt><trkpt lon="5.636935" lat="51.041811"><ele>84.4</ele><time>2022-05-15T06:46:49.000Z</time></trkpt><trkpt lon="5.636888" lat="51.041754"><ele>84.6</ele><time>2022-05-15T06:46:50.000Z</time></trkpt><trkpt lon="5.636843" lat="51.0417"><ele>84.4</ele><time>2022-05-15T06:46:51.000Z</time></trkpt><trkpt lon="5.636798" lat="51.04164"><ele>84.4</ele><time>2022-05-15T06:46:52.000Z</time></trkpt><trkpt lon="5.636752" lat="51.041582"><ele>84.4</ele><time>2022-05-15T06:46:53.000Z</time></trkpt><trkpt lon="5.636708" lat="51.041521"><ele>84.4</ele><time>2022-05-15T06:46:54.000Z</time></trkpt><trkpt lon="5.636665" lat="51.04146"><ele>84.6</ele><time>2022-05-15T06:46:55.000Z</time></trkpt><trkpt lon="5.636622" lat="51.041399"><ele>84.6</ele><time>2022-05-15T06:46:56.000Z</time></trkpt><trkpt lon="5.636577" lat="51.041342"><ele>84.6</ele><time>2022-05-15T06:46:57.000Z</time></trkpt><trkpt lon="5.636532" lat="51.041282"><ele>84.6</ele><time>2022-05-15T06:46:58.000Z</time></trkpt><trkpt lon="5.636487" lat="51.041224"><ele>84.4</ele><time>2022-05-15T06:46:59.000Z</time></trkpt><trkpt lon="5.63644" lat="51.041162"><ele>84.2</ele><time>2022-05-15T06:47:00.000Z</time></trkpt><trkpt lon="5.636393" lat="51.041105"><ele>84</ele><time>2022-05-15T06:47:01.000Z</time></trkpt><trkpt lon="5.63635" lat="51.04105"><ele>84</ele><time>2022-05-15T06:47:02.000Z</time></trkpt><trkpt lon="5.636306" lat="51.040994"><ele>84.2</ele><time>2022-05-15T06:47:03.000Z</time></trkpt><trkpt lon="5.636268" lat="51.040937"><ele>84.2</ele><time>2022-05-15T06:47:04.000Z</time></trkpt><trkpt lon="5.636231" lat="51.040884"><ele>84.4</ele><time>2022-05-15T06:47:05.000Z</time></trkpt><trkpt lon="5.636199" lat="51.040841"><ele>84.4</ele><time>2022-05-15T06:47:06.000Z</time></trkpt><trkpt lon="5.636153" lat="51.040778"><ele>84.4</ele><time>2022-05-15T06:47:07.000Z</time></trkpt><trkpt lon="5.636115" lat="51.040725"><ele>84.6</ele><time>2022-05-15T06:47:08.000Z</time></trkpt><trkpt lon="5.636075" lat="51.04067"><ele>84.6</ele><time>2022-05-15T06:47:09.000Z</time></trkpt><trkpt lon="5.63603" lat="51.040617"><ele>84.6</ele><time>2022-05-15T06:47:10.000Z</time></trkpt><trkpt lon="5.635986" lat="51.040556"><ele>84.8</ele><time>2022-05-15T06:47:11.000Z</time></trkpt><trkpt lon="5.635946" lat="51.040496"><ele>84.8</ele><time>2022-05-15T06:47:12.000Z</time></trkpt><trkpt lon="5.635901" lat="51.040434"><ele>84.6</ele><time>2022-05-15T06:47:13.000Z</time></trkpt><trkpt lon="5.635858" lat="51.040376"><ele>84.6</ele><time>2022-05-15T06:47:14.000Z</time></trkpt><trkpt lon="5.63582" lat="51.040323"><ele>84.6</ele><time>2022-05-15T06:47:15.000Z</time></trkpt><trkpt lon="5.635782" lat="51.040271"><ele>84.6</ele><time>2022-05-15T06:47:16.000Z</time></trkpt><trkpt lon="5.635743" lat="51.040213"><ele>84.8</ele><time>2022-05-15T06:47:17.000Z</time></trkpt><trkpt lon="5.635703" lat="51.040159"><ele>84.8</ele><time>2022-05-15T06:47:18.000Z</time></trkpt><trkpt lon="5.635663" lat="51.040102"><ele>84.8</ele><time>2022-05-15T06:47:19.000Z</time></trkpt><trkpt lon="5.63562" lat="51.040041"><ele>85</ele><time>2022-05-15T06:47:20.000Z</time></trkpt><trkpt lon="5.635575" lat="51.039984"><ele>85</ele><time>2022-05-15T06:47:21.000Z</time></trkpt><trkpt lon="5.635528" lat="51.039924"><ele>84.8</ele><time>2022-05-15T06:47:22.000Z</time></trkpt><trkpt lon="5.63548" lat="51.039864"><ele>84.8</ele><time>2022-05-15T06:47:23.000Z</time></trkpt><trkpt lon="5.635429" lat="51.039801"><ele>84.8</ele><time>2022-05-15T06:47:24.000Z</time></trkpt><trkpt lon="5.63538" lat="51.039739"><ele>84.8</ele><time>2022-05-15T06:47:25.000Z</time></trkpt><trkpt lon="5.635329" lat="51.039679"><ele>84.8</ele><time>2022-05-15T06:47:26.000Z</time></trkpt><trkpt lon="5.635275" lat="51.039618"><ele>84.6</ele><time>2022-05-15T06:47:27.000Z</time></trkpt><trkpt lon="5.635222" lat="51.039557"><ele>84.6</ele><time>2022-05-15T06:47:28.000Z</time></trkpt><trkpt lon="5.635172" lat="51.039496"><ele>84.6</ele><time>2022-05-15T06:47:29.000Z</time></trkpt><trkpt lon="5.635125" lat="51.039439"><ele>84.6</ele><time>2022-05-15T06:47:30.000Z</time></trkpt><trkpt lon="5.635077" lat="51.039381"><ele>84.6</ele><time>2022-05-15T06:47:31.000Z</time></trkpt><trkpt lon="5.635029" lat="51.039325"><ele>84.8</ele><time>2022-05-15T06:47:32.000Z</time></trkpt><trkpt lon="5.63498" lat="51.03927"><ele>84.8</ele><time>2022-05-15T06:47:33.000Z</time></trkpt><trkpt lon="5.634932" lat="51.039217"><ele>84.8</ele><time>2022-05-15T06:47:34.000Z</time></trkpt><trkpt lon="5.634885" lat="51.039166"><ele>84.8</ele><time>2022-05-15T06:47:35.000Z</time></trkpt><trkpt lon="5.634839" lat="51.03911"><ele>85</ele><time>2022-05-15T06:47:36.000Z</time></trkpt><trkpt lon="5.63479" lat="51.039049"><ele>85</ele><time>2022-05-15T06:47:37.000Z</time></trkpt><trkpt lon="5.634748" lat="51.038995"><ele>85.2</ele><time>2022-05-15T06:47:38.000Z</time></trkpt><trkpt lon="5.634704" lat="51.038938"><ele>85.2</ele><time>2022-05-15T06:47:39.000Z</time></trkpt><trkpt lon="5.634657" lat="51.038881"><ele>85.2</ele><time>2022-05-15T06:47:40.000Z</time></trkpt><trkpt lon="5.63461" lat="51.038824"><ele>85.2</ele><time>2022-05-15T06:47:41.000Z</time></trkpt><trkpt lon="5.634571" lat="51.038777"><ele>85.4</ele><time>2022-05-15T06:47:42.000Z</time></trkpt><trkpt lon="5.634526" lat="51.038721"><ele>85.4</ele><time>2022-05-15T06:47:43.000Z</time></trkpt><trkpt lon="5.634487" lat="51.038665"><ele>85.4</ele><time>2022-05-15T06:47:44.000Z</time></trkpt><trkpt lon="5.634448" lat="51.03861"><ele>85.4</ele><time>2022-05-15T06:47:45.000Z</time></trkpt><trkpt lon="5.634409" lat="51.038554"><ele>85.4</ele><time>2022-05-15T06:47:46.000Z</time></trkpt><trkpt lon="5.63437" lat="51.038496"><ele>85.2</ele><time>2022-05-15T06:47:47.000Z</time></trkpt><trkpt lon="5.63433" lat="51.038443"><ele>85.2</ele><time>2022-05-15T06:47:48.000Z</time></trkpt><trkpt lon="5.634285" lat="51.038382"><ele>85.2</ele><time>2022-05-15T06:47:49.000Z</time></trkpt><trkpt lon="5.634242" lat="51.038321"><ele>85.2</ele><time>2022-05-15T06:47:50.000Z</time></trkpt><trkpt lon="5.634201" lat="51.038262"><ele>85</ele><time>2022-05-15T06:47:51.000Z</time></trkpt><trkpt lon="5.634158" lat="51.038196"><ele>84.8</ele><time>2022-05-15T06:47:52.000Z</time></trkpt><trkpt lon="5.634114" lat="51.038134"><ele>84.4</ele><time>2022-05-15T06:47:53.000Z</time></trkpt><trkpt lon="5.634069" lat="51.038078"><ele>84</ele><time>2022-05-15T06:47:54.000Z</time></trkpt><trkpt lon="5.634025" lat="51.038019"><ele>83.4</ele><time>2022-05-15T06:47:55.000Z</time></trkpt><trkpt lon="5.633982" lat="51.037956"><ele>83</ele><time>2022-05-15T06:47:56.000Z</time></trkpt><trkpt lon="5.63393" lat="51.037886"><ele>82.4</ele><time>2022-05-15T06:47:57.000Z</time></trkpt><trkpt lon="5.633868" lat="51.037818"><ele>81.8</ele><time>2022-05-15T06:47:58.000Z</time></trkpt><trkpt lon="5.633808" lat="51.03775"><ele>81.2</ele><time>2022-05-15T06:47:59.000Z</time></trkpt><trkpt lon="5.633742" lat="51.037673"><ele>80.4</ele><time>2022-05-15T06:48:00.000Z</time></trkpt><trkpt lon="5.633664" lat="51.037596"><ele>79.4</ele><time>2022-05-15T06:48:01.000Z</time></trkpt><trkpt lon="5.633575" lat="51.037517"><ele>78.6</ele><time>2022-05-15T06:48:02.000Z</time></trkpt><trkpt lon="5.633475" lat="51.037431"><ele>78</ele><time>2022-05-15T06:48:03.000Z</time></trkpt><trkpt lon="5.633362" lat="51.037335"><ele>77.4</ele><time>2022-05-15T06:48:04.000Z</time></trkpt><trkpt lon="5.63325" lat="51.037239"><ele>76.6</ele><time>2022-05-15T06:48:05.000Z</time></trkpt><trkpt lon="5.633159" lat="51.037167"><ele>76</ele><time>2022-05-15T06:48:06.000Z</time></trkpt><trkpt lon="5.633028" lat="51.037067"><ele>75.6</ele><time>2022-05-15T06:48:07.000Z</time></trkpt><trkpt lon="5.632907" lat="51.036982"><ele>74.8</ele><time>2022-05-15T06:48:08.000Z</time></trkpt><trkpt lon="5.632793" lat="51.036903"><ele>74.6</ele><time>2022-05-15T06:48:09.000Z</time></trkpt><trkpt lon="5.632683" lat="51.036827"><ele>74.6</ele><time>2022-05-15T06:48:10.000Z</time></trkpt><trkpt lon="5.632577" lat="51.036762"><ele>74.6</ele><time>2022-05-15T06:48:11.000Z</time></trkpt><trkpt lon="5.632477" lat="51.036695"><ele>74.8</ele><time>2022-05-15T06:48:12.000Z</time></trkpt><trkpt lon="5.632376" lat="51.036624"><ele>75</ele><time>2022-05-15T06:48:13.000Z</time></trkpt><trkpt lon="5.632288" lat="51.036564"><ele>75.2</ele><time>2022-05-15T06:48:14.000Z</time></trkpt><trkpt lon="5.632198" lat="51.036502"><ele>75.6</ele><time>2022-05-15T06:48:15.000Z</time></trkpt><trkpt lon="5.632114" lat="51.036447"><ele>76.2</ele><time>2022-05-15T06:48:16.000Z</time></trkpt><trkpt lon="5.632025" lat="51.036389"><ele>76.6</ele><time>2022-05-15T06:48:17.000Z</time></trkpt><trkpt lon="5.631939" lat="51.036331"><ele>77</ele><time>2022-05-15T06:48:18.000Z</time></trkpt><trkpt lon="5.631858" lat="51.036278"><ele>77.4</ele><time>2022-05-15T06:48:19.000Z</time></trkpt><trkpt lon="5.631775" lat="51.036226"><ele>77.8</ele><time>2022-05-15T06:48:20.000Z</time></trkpt><trkpt lon="5.631694" lat="51.036174"><ele>78</ele><time>2022-05-15T06:48:21.000Z</time></trkpt><trkpt lon="5.631622" lat="51.036126"><ele>78.2</ele><time>2022-05-15T06:48:22.000Z</time></trkpt><trkpt lon="5.63155" lat="51.036075"><ele>78.6</ele><time>2022-05-15T06:48:23.000Z</time></trkpt><trkpt lon="5.631481" lat="51.036022"><ele>79</ele><time>2022-05-15T06:48:24.000Z</time></trkpt><trkpt lon="5.631409" lat="51.035971"><ele>79.2</ele><time>2022-05-15T06:48:25.000Z</time></trkpt><trkpt lon="5.631343" lat="51.035923"><ele>79.4</ele><time>2022-05-15T06:48:26.000Z</time></trkpt><trkpt lon="5.631273" lat="51.035873"><ele>79.6</ele><time>2022-05-15T06:48:27.000Z</time></trkpt><trkpt lon="5.631204" lat="51.035823"><ele>79.8</ele><time>2022-05-15T06:48:28.000Z</time></trkpt><trkpt lon="5.631136" lat="51.035772"><ele>80.2</ele><time>2022-05-15T06:48:29.000Z</time></trkpt><trkpt lon="5.631071" lat="51.035728"><ele>80.4</ele><time>2022-05-15T06:48:30.000Z</time></trkpt><trkpt lon="5.631" lat="51.035677"><ele>80.6</ele><time>2022-05-15T06:48:31.000Z</time></trkpt><trkpt lon="5.630933" lat="51.035629"><ele>80.8</ele><time>2022-05-15T06:48:32.000Z</time></trkpt><trkpt lon="5.630864" lat="51.035582"><ele>81.2</ele><time>2022-05-15T06:48:33.000Z</time></trkpt><trkpt lon="5.630795" lat="51.035537"><ele>81.4</ele><time>2022-05-15T06:48:34.000Z</time></trkpt><trkpt lon="5.630722" lat="51.035491"><ele>81.4</ele><time>2022-05-15T06:48:35.000Z</time></trkpt><trkpt lon="5.63066" lat="51.03545"><ele>81.6</ele><time>2022-05-15T06:48:36.000Z</time></trkpt><trkpt lon="5.630586" lat="51.035402"><ele>81.8</ele><time>2022-05-15T06:48:37.000Z</time></trkpt><trkpt lon="5.630509" lat="51.035353"><ele>82</ele><time>2022-05-15T06:48:38.000Z</time></trkpt><trkpt lon="5.630436" lat="51.035307"><ele>82</ele><time>2022-05-15T06:48:39.000Z</time></trkpt><trkpt lon="5.630368" lat="51.03526"><ele>82</ele><time>2022-05-15T06:48:40.000Z</time></trkpt><trkpt lon="5.630295" lat="51.035213"><ele>82.2</ele><time>2022-05-15T06:48:41.000Z</time></trkpt><trkpt lon="5.630225" lat="51.035168"><ele>82.2</ele><time>2022-05-15T06:48:42.000Z</time></trkpt><trkpt lon="5.630155" lat="51.035119"><ele>82.4</ele><time>2022-05-15T06:48:43.000Z</time></trkpt><trkpt lon="5.630081" lat="51.035071"><ele>82.4</ele><time>2022-05-15T06:48:44.000Z</time></trkpt><trkpt lon="5.630014" lat="51.035026"><ele>82.8</ele><time>2022-05-15T06:48:45.000Z</time></trkpt><trkpt lon="5.629944" lat="51.034981"><ele>83</ele><time>2022-05-15T06:48:46.000Z</time></trkpt><trkpt lon="5.629874" lat="51.034935"><ele>83.2</ele><time>2022-05-15T06:48:47.000Z</time></trkpt><trkpt lon="5.629805" lat="51.034888"><ele>83.4</ele><time>2022-05-15T06:48:48.000Z</time></trkpt><trkpt lon="5.629739" lat="51.034842"><ele>83.4</ele><time>2022-05-15T06:48:49.000Z</time></trkpt><trkpt lon="5.629674" lat="51.034793"><ele>83.6</ele><time>2022-05-15T06:48:50.000Z</time></trkpt><trkpt lon="5.62961" lat="51.034748"><ele>83.8</ele><time>2022-05-15T06:48:51.000Z</time></trkpt><trkpt lon="5.629544" lat="51.034701"><ele>84</ele><time>2022-05-15T06:48:52.000Z</time></trkpt><trkpt lon="5.62948" lat="51.034656"><ele>84.2</ele><time>2022-05-15T06:48:53.000Z</time></trkpt><trkpt lon="5.629415" lat="51.034608"><ele>84.2</ele><time>2022-05-15T06:48:54.000Z</time></trkpt><trkpt lon="5.629347" lat="51.03456"><ele>84.4</ele><time>2022-05-15T06:48:55.000Z</time></trkpt><trkpt lon="5.629281" lat="51.034515"><ele>84.4</ele><time>2022-05-15T06:48:56.000Z</time></trkpt><trkpt lon="5.629217" lat="51.034466"><ele>84.6</ele><time>2022-05-15T06:48:57.000Z</time></trkpt><trkpt lon="5.629147" lat="51.034422"><ele>84.6</ele><time>2022-05-15T06:48:58.000Z</time></trkpt><trkpt lon="5.629079" lat="51.034377"><ele>84.8</ele><time>2022-05-15T06:48:59.000Z</time></trkpt><trkpt lon="5.629012" lat="51.034331"><ele>84.8</ele><time>2022-05-15T06:49:00.000Z</time></trkpt><trkpt lon="5.628943" lat="51.034282"><ele>84.8</ele><time>2022-05-15T06:49:01.000Z</time></trkpt><trkpt lon="5.628874" lat="51.034237"><ele>84.8</ele><time>2022-05-15T06:49:02.000Z</time></trkpt><trkpt lon="5.628806" lat="51.03419"><ele>84.8</ele><time>2022-05-15T06:49:03.000Z</time></trkpt><trkpt lon="5.628735" lat="51.03414"><ele>85</ele><time>2022-05-15T06:49:04.000Z</time></trkpt><trkpt lon="5.628669" lat="51.034096"><ele>85</ele><time>2022-05-15T06:49:05.000Z</time></trkpt><trkpt lon="5.628611" lat="51.034056"><ele>85.2</ele><time>2022-05-15T06:49:06.000Z</time></trkpt><trkpt lon="5.628541" lat="51.034008"><ele>85.2</ele><time>2022-05-15T06:49:07.000Z</time></trkpt><trkpt lon="5.628467" lat="51.033957"><ele>85.2</ele><time>2022-05-15T06:49:08.000Z</time></trkpt><trkpt lon="5.628402" lat="51.033913"><ele>85.2</ele><time>2022-05-15T06:49:09.000Z</time></trkpt><trkpt lon="5.628333" lat="51.033869"><ele>85.2</ele><time>2022-05-15T06:49:10.000Z</time></trkpt><trkpt lon="5.628271" lat="51.033828"><ele>85.4</ele><time>2022-05-15T06:49:11.000Z</time></trkpt><trkpt lon="5.628204" lat="51.033786"><ele>85.6</ele><time>2022-05-15T06:49:12.000Z</time></trkpt><trkpt lon="5.628138" lat="51.033745"><ele>85.8</ele><time>2022-05-15T06:49:13.000Z</time></trkpt><trkpt lon="5.62807" lat="51.033702"><ele>86</ele><time>2022-05-15T06:49:14.000Z</time></trkpt><trkpt lon="5.628005" lat="51.033664"><ele>86</ele><time>2022-05-15T06:49:15.000Z</time></trkpt><trkpt lon="5.627944" lat="51.033631"><ele>86</ele><time>2022-05-15T06:49:16.000Z</time></trkpt><trkpt lon="5.627878" lat="51.033592"><ele>86.2</ele><time>2022-05-15T06:49:17.000Z</time></trkpt><trkpt lon="5.627815" lat="51.033556"><ele>86.2</ele><time>2022-05-15T06:49:18.000Z</time></trkpt><trkpt lon="5.627752" lat="51.033515"><ele>86.2</ele><time>2022-05-15T06:49:19.000Z</time></trkpt><trkpt lon="5.62769" lat="51.033469"><ele>86.2</ele><time>2022-05-15T06:49:20.000Z</time></trkpt><trkpt lon="5.627626" lat="51.033427"><ele>86.4</ele><time>2022-05-15T06:49:21.000Z</time></trkpt><trkpt lon="5.627562" lat="51.033386"><ele>86.4</ele><time>2022-05-15T06:49:22.000Z</time></trkpt><trkpt lon="5.6275" lat="51.033347"><ele>86.4</ele><time>2022-05-15T06:49:23.000Z</time></trkpt><trkpt lon="5.627433" lat="51.033302"><ele>86.6</ele><time>2022-05-15T06:49:24.000Z</time></trkpt><trkpt lon="5.627365" lat="51.033258"><ele>86.6</ele><time>2022-05-15T06:49:25.000Z</time></trkpt><trkpt lon="5.627293" lat="51.033209"><ele>86.6</ele><time>2022-05-15T06:49:26.000Z</time></trkpt><trkpt lon="5.62722" lat="51.033161"><ele>86.8</ele><time>2022-05-15T06:49:27.000Z</time></trkpt><trkpt lon="5.627146" lat="51.033113"><ele>87</ele><time>2022-05-15T06:49:28.000Z</time></trkpt><trkpt lon="5.627079" lat="51.033067"><ele>87.2</ele><time>2022-05-15T06:49:29.000Z</time></trkpt><trkpt lon="5.62701" lat="51.033014"><ele>87.2</ele><time>2022-05-15T06:49:30.000Z</time></trkpt><trkpt lon="5.626941" lat="51.032961"><ele>87</ele><time>2022-05-15T06:49:31.000Z</time></trkpt><trkpt lon="5.626869" lat="51.032907"><ele>87</ele><time>2022-05-15T06:49:32.000Z</time></trkpt><trkpt lon="5.626797" lat="51.03285"><ele>87.2</ele><time>2022-05-15T06:49:33.000Z</time></trkpt><trkpt lon="5.626727" lat="51.032797"><ele>87.2</ele><time>2022-05-15T06:49:34.000Z</time></trkpt><trkpt lon="5.626659" lat="51.032743"><ele>87.2</ele><time>2022-05-15T06:49:35.000Z</time></trkpt><trkpt lon="5.626594" lat="51.032697"><ele>87.2</ele><time>2022-05-15T06:49:36.000Z</time></trkpt><trkpt lon="5.626533" lat="51.032651"><ele>87.2</ele><time>2022-05-15T06:49:37.000Z</time></trkpt><trkpt lon="5.626471" lat="51.032605"><ele>87.2</ele><time>2022-05-15T06:49:38.000Z</time></trkpt><trkpt lon="5.626409" lat="51.032559"><ele>87.2</ele><time>2022-05-15T06:49:39.000Z</time></trkpt><trkpt lon="5.626346" lat="51.032511"><ele>87.2</ele><time>2022-05-15T06:49:40.000Z</time></trkpt><trkpt lon="5.626273" lat="51.032461"><ele>87.4</ele><time>2022-05-15T06:49:41.000Z</time></trkpt><trkpt lon="5.6262" lat="51.032412"><ele>87.6</ele><time>2022-05-15T06:49:42.000Z</time></trkpt><trkpt lon="5.626095" lat="51.03233"><ele>87.6</ele><time>2022-05-15T06:49:43.000Z</time></trkpt><trkpt lon="5.625989" lat="51.032246"><ele>87.8</ele><time>2022-05-15T06:49:44.000Z</time></trkpt><trkpt lon="5.625892" lat="51.032177"><ele>87.8</ele><time>2022-05-15T06:49:45.000Z</time></trkpt><trkpt lon="5.625814" lat="51.032131"><ele>87.8</ele><time>2022-05-15T06:49:46.000Z</time></trkpt><trkpt lon="5.625731" lat="51.032061"><ele>87.8</ele><time>2022-05-15T06:49:47.000Z</time></trkpt><trkpt lon="5.625644" lat="51.03201"><ele>87.8</ele><time>2022-05-15T06:49:48.000Z</time></trkpt><trkpt lon="5.625567" lat="51.031965"><ele>88</ele><time>2022-05-15T06:49:49.000Z</time></trkpt><trkpt lon="5.62549" lat="51.031915"><ele>87.8</ele><time>2022-05-15T06:49:50.000Z</time></trkpt><trkpt lon="5.625415" lat="51.031862"><ele>87.8</ele><time>2022-05-15T06:49:51.000Z</time></trkpt><trkpt lon="5.625338" lat="51.031809"><ele>87.6</ele><time>2022-05-15T06:49:52.000Z</time></trkpt><trkpt lon="5.625258" lat="51.031758"><ele>87.4</ele><time>2022-05-15T06:49:53.000Z</time></trkpt><trkpt lon="5.625177" lat="51.031702"><ele>87.4</ele><time>2022-05-15T06:49:54.000Z</time></trkpt><trkpt lon="5.625096" lat="51.031648"><ele>87.2</ele><time>2022-05-15T06:49:55.000Z</time></trkpt><trkpt lon="5.625019" lat="51.031595"><ele>87</ele><time>2022-05-15T06:49:56.000Z</time></trkpt><trkpt lon="5.624942" lat="51.031541"><ele>86.8</ele><time>2022-05-15T06:49:57.000Z</time></trkpt><trkpt lon="5.624868" lat="51.031488"><ele>86.8</ele><time>2022-05-15T06:49:58.000Z</time></trkpt><trkpt lon="5.624796" lat="51.031435"><ele>86.8</ele><time>2022-05-15T06:49:59.000Z</time></trkpt><trkpt lon="5.624727" lat="51.031385"><ele>86.6</ele><time>2022-05-15T06:50:00.000Z</time></trkpt><trkpt lon="5.624655" lat="51.031335"><ele>86.4</ele><time>2022-05-15T06:50:01.000Z</time></trkpt><trkpt lon="5.624581" lat="51.031282"><ele>86.4</ele><time>2022-05-15T06:50:02.000Z</time></trkpt><trkpt lon="5.624506" lat="51.031228"><ele>86.2</ele><time>2022-05-15T06:50:03.000Z</time></trkpt><trkpt lon="5.624433" lat="51.031175"><ele>86</ele><time>2022-05-15T06:50:04.000Z</time></trkpt><trkpt lon="5.624358" lat="51.031122"><ele>85.8</ele><time>2022-05-15T06:50:05.000Z</time></trkpt><trkpt lon="5.624278" lat="51.031069"><ele>85.6</ele><time>2022-05-15T06:50:06.000Z</time></trkpt><trkpt lon="5.624193" lat="51.031008"><ele>85.4</ele><time>2022-05-15T06:50:07.000Z</time></trkpt><trkpt lon="5.624102" lat="51.030946"><ele>85</ele><time>2022-05-15T06:50:08.000Z</time></trkpt><trkpt lon="5.624006" lat="51.030885"><ele>84.4</ele><time>2022-05-15T06:50:09.000Z</time></trkpt><trkpt lon="5.623906" lat="51.030828"><ele>83.8</ele><time>2022-05-15T06:50:10.000Z</time></trkpt><trkpt lon="5.623801" lat="51.030763"><ele>83.2</ele><time>2022-05-15T06:50:11.000Z</time></trkpt><trkpt lon="5.623691" lat="51.030706"><ele>82.6</ele><time>2022-05-15T06:50:12.000Z</time></trkpt><trkpt lon="5.623574" lat="51.030652"><ele>82</ele><time>2022-05-15T06:50:13.000Z</time></trkpt><trkpt lon="5.623465" lat="51.030603"><ele>81.8</ele><time>2022-05-15T06:50:14.000Z</time></trkpt><trkpt lon="5.623348" lat="51.030553"><ele>81.6</ele><time>2022-05-15T06:50:15.000Z</time></trkpt><trkpt lon="5.623238" lat="51.030511"><ele>81.6</ele><time>2022-05-15T06:50:16.000Z</time></trkpt><trkpt lon="5.623139" lat="51.030471"><ele>81.6</ele><time>2022-05-15T06:50:17.000Z</time></trkpt><trkpt lon="5.62304" lat="51.030431"><ele>81.6</ele><time>2022-05-15T06:50:18.000Z</time></trkpt><trkpt lon="5.622949" lat="51.030396"><ele>82</ele><time>2022-05-15T06:50:19.000Z</time></trkpt><trkpt lon="5.622864" lat="51.03037"><ele>82.2</ele><time>2022-05-15T06:50:20.000Z</time></trkpt><trkpt lon="5.622782" lat="51.030339"><ele>82.4</ele><time>2022-05-15T06:50:21.000Z</time></trkpt><trkpt lon="5.622704" lat="51.030309"><ele>82.8</ele><time>2022-05-15T06:50:22.000Z</time></trkpt><trkpt lon="5.622629" lat="51.030274"><ele>83.2</ele><time>2022-05-15T06:50:23.000Z</time></trkpt><trkpt lon="5.622551" lat="51.030244"><ele>83.4</ele><time>2022-05-15T06:50:24.000Z</time></trkpt><trkpt lon="5.622469" lat="51.030206"><ele>83.8</ele><time>2022-05-15T06:50:25.000Z</time></trkpt><trkpt lon="5.62239" lat="51.030179"><ele>84</ele><time>2022-05-15T06:50:26.000Z</time></trkpt><trkpt lon="5.622318" lat="51.030152"><ele>84.2</ele><time>2022-05-15T06:50:27.000Z</time></trkpt><trkpt lon="5.622248" lat="51.030122"><ele>84.6</ele><time>2022-05-15T06:50:28.000Z</time></trkpt><trkpt lon="5.622175" lat="51.030087"><ele>84.8</ele><time>2022-05-15T06:50:29.000Z</time></trkpt><trkpt lon="5.622098" lat="51.030053"><ele>85.2</ele><time>2022-05-15T06:50:30.000Z</time></trkpt><trkpt lon="5.622025" lat="51.030023"><ele>85.4</ele><time>2022-05-15T06:50:31.000Z</time></trkpt><trkpt lon="5.621942" lat="51.029985"><ele>85.8</ele><time>2022-05-15T06:50:32.000Z</time></trkpt><trkpt lon="5.621852" lat="51.029935"><ele>86</ele><time>2022-05-15T06:50:33.000Z</time></trkpt><trkpt lon="5.621756" lat="51.029878"><ele>86.2</ele><time>2022-05-15T06:50:34.000Z</time></trkpt><trkpt lon="5.621666" lat="51.029821"><ele>86.4</ele><time>2022-05-15T06:50:35.000Z</time></trkpt><trkpt lon="5.621581" lat="51.02976"><ele>86.8</ele><time>2022-05-15T06:50:36.000Z</time></trkpt><trkpt lon="5.621493" lat="51.029691"><ele>87</ele><time>2022-05-15T06:50:37.000Z</time></trkpt><trkpt lon="5.621409" lat="51.029623"><ele>87</ele><time>2022-05-15T06:50:38.000Z</time></trkpt><trkpt lon="5.621323" lat="51.029559"><ele>87.2</ele><time>2022-05-15T06:50:39.000Z</time></trkpt><trkpt lon="5.621239" lat="51.029497"><ele>87.4</ele><time>2022-05-15T06:50:40.000Z</time></trkpt><trkpt lon="5.62116" lat="51.02944"><ele>87.6</ele><time>2022-05-15T06:50:41.000Z</time></trkpt><trkpt lon="5.621079" lat="51.029376"><ele>87.8</ele><time>2022-05-15T06:50:42.000Z</time></trkpt><trkpt lon="5.620998" lat="51.029317"><ele>87.8</ele><time>2022-05-15T06:50:43.000Z</time></trkpt><trkpt lon="5.620926" lat="51.029268"><ele>88</ele><time>2022-05-15T06:50:44.000Z</time></trkpt><trkpt lon="5.620855" lat="51.029214"><ele>88.2</ele><time>2022-05-15T06:50:45.000Z</time></trkpt><trkpt lon="5.620784" lat="51.029165"><ele>88.4</ele><time>2022-05-15T06:50:46.000Z</time></trkpt><trkpt lon="5.620714" lat="51.029112"><ele>88.8</ele><time>2022-05-15T06:50:47.000Z</time></trkpt><trkpt lon="5.620644" lat="51.029063"><ele>89</ele><time>2022-05-15T06:50:48.000Z</time></trkpt><trkpt lon="5.620576" lat="51.029012"><ele>89.2</ele><time>2022-05-15T06:50:49.000Z</time></trkpt><trkpt lon="5.620509" lat="51.02896"><ele>89.2</ele><time>2022-05-15T06:50:50.000Z</time></trkpt><trkpt lon="5.620447" lat="51.028909"><ele>89.4</ele><time>2022-05-15T06:50:51.000Z</time></trkpt><trkpt lon="5.620384" lat="51.028856"><ele>89.4</ele><time>2022-05-15T06:50:52.000Z</time></trkpt><trkpt lon="5.620326" lat="51.028802"><ele>89.6</ele><time>2022-05-15T06:50:53.000Z</time></trkpt><trkpt lon="5.620275" lat="51.028757"><ele>89.6</ele><time>2022-05-15T06:50:54.000Z</time></trkpt><trkpt lon="5.620225" lat="51.028711"><ele>89.8</ele><time>2022-05-15T06:50:55.000Z</time></trkpt><trkpt lon="5.620172" lat="51.028661"><ele>89.8</ele><time>2022-05-15T06:50:56.000Z</time></trkpt><trkpt lon="5.620115" lat="51.028608"><ele>89.8</ele><time>2022-05-15T06:50:57.000Z</time></trkpt><trkpt lon="5.620069" lat="51.028555"><ele>89.8</ele><time>2022-05-15T06:50:58.000Z</time></trkpt><trkpt lon="5.62002" lat="51.028505"><ele>89.8</ele><time>2022-05-15T06:50:59.000Z</time></trkpt><trkpt lon="5.619967" lat="51.028459"><ele>89.8</ele><time>2022-05-15T06:51:00.000Z</time></trkpt><trkpt lon="5.619911" lat="51.028417"><ele>89.8</ele><time>2022-05-15T06:51:01.000Z</time></trkpt><trkpt lon="5.61987" lat="51.028382"><ele>89.8</ele><time>2022-05-15T06:51:02.000Z</time></trkpt><trkpt lon="5.619826" lat="51.028348"><ele>89.8</ele><time>2022-05-15T06:51:03.000Z</time></trkpt><trkpt lon="5.619777" lat="51.028318"><ele>89.8</ele><time>2022-05-15T06:51:04.000Z</time></trkpt><trkpt lon="5.619718" lat="51.028294"><ele>89.8</ele><time>2022-05-15T06:51:05.000Z</time></trkpt><trkpt lon="5.619663" lat="51.028265"><ele>89.8</ele><time>2022-05-15T06:51:06.000Z</time></trkpt><trkpt lon="5.619606" lat="51.028226"><ele>90</ele><time>2022-05-15T06:51:07.000Z</time></trkpt><trkpt lon="5.619553" lat="51.028188"><ele>90</ele><time>2022-05-15T06:51:08.000Z</time></trkpt><trkpt lon="5.619505" lat="51.028153"><ele>90</ele><time>2022-05-15T06:51:09.000Z</time></trkpt><trkpt lon="5.619452" lat="51.02813"><ele>89.8</ele><time>2022-05-15T06:51:10.000Z</time></trkpt><trkpt lon="5.619397" lat="51.028122"><ele>89.8</ele><time>2022-05-15T06:51:11.000Z</time></trkpt><trkpt lon="5.619334" lat="51.028129"><ele>89.8</ele><time>2022-05-15T06:51:12.000Z</time></trkpt><trkpt lon="5.619278" lat="51.028144"><ele>89.6</ele><time>2022-05-15T06:51:13.000Z</time></trkpt><trkpt lon="5.619223" lat="51.028166"><ele>89.6</ele><time>2022-05-15T06:51:14.000Z</time></trkpt><trkpt lon="5.619156" lat="51.028182"><ele>89.4</ele><time>2022-05-15T06:51:15.000Z</time></trkpt><trkpt lon="5.619092" lat="51.028198"><ele>89.4</ele><time>2022-05-15T06:51:16.000Z</time></trkpt><trkpt lon="5.619025" lat="51.02822"><ele>89.4</ele><time>2022-05-15T06:51:17.000Z</time></trkpt><trkpt lon="5.618958" lat="51.028243"><ele>89.4</ele><time>2022-05-15T06:51:18.000Z</time></trkpt><trkpt lon="5.61888" lat="51.028278"><ele>89.4</ele><time>2022-05-15T06:51:19.000Z</time></trkpt><trkpt lon="5.618806" lat="51.028308"><ele>89.4</ele><time>2022-05-15T06:51:20.000Z</time></trkpt><trkpt lon="5.618735" lat="51.028339"><ele>89.2</ele><time>2022-05-15T06:51:21.000Z</time></trkpt><trkpt lon="5.618668" lat="51.028369"><ele>89.2</ele><time>2022-05-15T06:51:22.000Z</time></trkpt><trkpt lon="5.618589" lat="51.028406"><ele>89.2</ele><time>2022-05-15T06:51:23.000Z</time></trkpt><trkpt lon="5.61852" lat="51.028449"><ele>89</ele><time>2022-05-15T06:51:24.000Z</time></trkpt><trkpt lon="5.618441" lat="51.028491"><ele>89</ele><time>2022-05-15T06:51:25.000Z</time></trkpt><trkpt lon="5.618362" lat="51.028533"><ele>88.8</ele><time>2022-05-15T06:51:26.000Z</time></trkpt><trkpt lon="5.618289" lat="51.028575"><ele>88.6</ele><time>2022-05-15T06:51:27.000Z</time></trkpt><trkpt lon="5.618211" lat="51.028613"><ele>88.6</ele><time>2022-05-15T06:51:28.000Z</time></trkpt><trkpt lon="5.618127" lat="51.028651"><ele>88.4</ele><time>2022-05-15T06:51:29.000Z</time></trkpt><trkpt lon="5.618055" lat="51.028689"><ele>88.2</ele><time>2022-05-15T06:51:30.000Z</time></trkpt><trkpt lon="5.617978" lat="51.028731"><ele>88.2</ele><time>2022-05-15T06:51:31.000Z</time></trkpt><trkpt lon="5.617902" lat="51.028777"><ele>88</ele><time>2022-05-15T06:51:32.000Z</time></trkpt><trkpt lon="5.617814" lat="51.028811"><ele>88</ele><time>2022-05-15T06:51:33.000Z</time></trkpt><trkpt lon="5.617722" lat="51.028845"><ele>88</ele><time>2022-05-15T06:51:34.000Z</time></trkpt><trkpt lon="5.617633" lat="51.028887"><ele>88</ele><time>2022-05-15T06:51:35.000Z</time></trkpt><trkpt lon="5.617556" lat="51.028932"><ele>88</ele><time>2022-05-15T06:51:36.000Z</time></trkpt><trkpt lon="5.617466" lat="51.028975"><ele>88</ele><time>2022-05-15T06:51:37.000Z</time></trkpt><trkpt lon="5.617369" lat="51.029014"><ele>88</ele><time>2022-05-15T06:51:38.000Z</time></trkpt><trkpt lon="5.617283" lat="51.029056"><ele>87.8</ele><time>2022-05-15T06:51:39.000Z</time></trkpt><trkpt lon="5.617182" lat="51.02909"><ele>87.8</ele><time>2022-05-15T06:51:40.000Z</time></trkpt><trkpt lon="5.617048" lat="51.029124"><ele>87.8</ele><time>2022-05-15T06:51:41.000Z</time></trkpt><trkpt lon="5.616923" lat="51.029158"><ele>88</ele><time>2022-05-15T06:51:42.000Z</time></trkpt><trkpt lon="5.616806" lat="51.0292"><ele>88</ele><time>2022-05-15T06:51:43.000Z</time></trkpt><trkpt lon="5.616704" lat="51.029246"><ele>88</ele><time>2022-05-15T06:51:44.000Z</time></trkpt><trkpt lon="5.616614" lat="51.029287"><ele>87.8</ele><time>2022-05-15T06:51:45.000Z</time></trkpt><trkpt lon="5.616529" lat="51.029333"><ele>88</ele><time>2022-05-15T06:51:46.000Z</time></trkpt><trkpt lon="5.616443" lat="51.029375"><ele>88</ele><time>2022-05-15T06:51:47.000Z</time></trkpt><trkpt lon="5.616363" lat="51.029418"><ele>88</ele><time>2022-05-15T06:51:48.000Z</time></trkpt><trkpt lon="5.616278" lat="51.02946"><ele>88</ele><time>2022-05-15T06:51:49.000Z</time></trkpt><trkpt lon="5.616202" lat="51.029498"><ele>88</ele><time>2022-05-15T06:51:50.000Z</time></trkpt><trkpt lon="5.616129" lat="51.029532"><ele>88</ele><time>2022-05-15T06:51:51.000Z</time></trkpt><trkpt lon="5.616057" lat="51.02957"><ele>88</ele><time>2022-05-15T06:51:52.000Z</time></trkpt><trkpt lon="5.615984" lat="51.029612"><ele>88</ele><time>2022-05-15T06:51:53.000Z</time></trkpt><trkpt lon="5.615914" lat="51.029647"><ele>87.8</ele><time>2022-05-15T06:51:54.000Z</time></trkpt><trkpt lon="5.61585" lat="51.029677"><ele>87.8</ele><time>2022-05-15T06:51:55.000Z</time></trkpt><trkpt lon="5.615794" lat="51.029708"><ele>87.8</ele><time>2022-05-15T06:51:56.000Z</time></trkpt><trkpt lon="5.615744" lat="51.029723"><ele>87.6</ele><time>2022-05-15T06:51:57.000Z</time></trkpt><trkpt lon="5.615695" lat="51.029717"><ele>87.6</ele><time>2022-05-15T06:51:58.000Z</time></trkpt><trkpt lon="5.615656" lat="51.029691"><ele>87.6</ele><time>2022-05-15T06:51:59.000Z</time></trkpt><trkpt lon="5.615629" lat="51.029656"><ele>87.8</ele><time>2022-05-15T06:52:00.000Z</time></trkpt><trkpt lon="5.615601" lat="51.029615"><ele>87.8</ele><time>2022-05-15T06:52:01.000Z</time></trkpt><trkpt lon="5.615572" lat="51.029569"><ele>87.8</ele><time>2022-05-15T06:52:02.000Z</time></trkpt><trkpt lon="5.615548" lat="51.029523"><ele>87.8</ele><time>2022-05-15T06:52:03.000Z</time></trkpt><trkpt lon="5.615525" lat="51.029478"><ele>87.8</ele><time>2022-05-15T06:52:04.000Z</time></trkpt><trkpt lon="5.615507" lat="51.029431"><ele>87.8</ele><time>2022-05-15T06:52:05.000Z</time></trkpt><trkpt lon="5.615489" lat="51.02939"><ele>88</ele><time>2022-05-15T06:52:06.000Z</time></trkpt><trkpt lon="5.615469" lat="51.029348"><ele>88</ele><time>2022-05-15T06:52:07.000Z</time></trkpt><trkpt lon="5.61545" lat="51.029311"><ele>88</ele><time>2022-05-15T06:52:08.000Z</time></trkpt><trkpt lon="5.61543" lat="51.029279"><ele>88</ele><time>2022-05-15T06:52:09.000Z</time></trkpt><trkpt lon="5.615412" lat="51.029248"><ele>88.2</ele><time>2022-05-15T06:52:10.000Z</time></trkpt><trkpt lon="5.615391" lat="51.029221"><ele>88.2</ele><time>2022-05-15T06:52:11.000Z</time></trkpt><trkpt lon="5.615361" lat="51.029206"><ele>88.2</ele><time>2022-05-15T06:52:12.000Z</time></trkpt><trkpt lon="5.61532" lat="51.029205"><ele>88.2</ele><time>2022-05-15T06:52:13.000Z</time></trkpt><trkpt lon="5.615265" lat="51.02922"><ele>88.2</ele><time>2022-05-15T06:52:14.000Z</time></trkpt><trkpt lon="5.615196" lat="51.029242"><ele>88</ele><time>2022-05-15T06:52:15.000Z</time></trkpt><trkpt lon="5.615119" lat="51.029266"><ele>88</ele><time>2022-05-15T06:52:16.000Z</time></trkpt><trkpt lon="5.615032" lat="51.029289"><ele>87.8</ele><time>2022-05-15T06:52:17.000Z</time></trkpt><trkpt lon="5.614941" lat="51.029319"><ele>87.8</ele><time>2022-05-15T06:52:18.000Z</time></trkpt><trkpt lon="5.614846" lat="51.029356"><ele>87.6</ele><time>2022-05-15T06:52:19.000Z</time></trkpt><trkpt lon="5.614742" lat="51.029391"><ele>87.6</ele><time>2022-05-15T06:52:20.000Z</time></trkpt><trkpt lon="5.614637" lat="51.029426"><ele>87.6</ele><time>2022-05-15T06:52:21.000Z</time></trkpt><trkpt lon="5.614536" lat="51.029464"><ele>87.6</ele><time>2022-05-15T06:52:22.000Z</time></trkpt><trkpt lon="5.614436" lat="51.029494"><ele>87.8</ele><time>2022-05-15T06:52:23.000Z</time></trkpt><trkpt lon="5.614338" lat="51.029525"><ele>88</ele><time>2022-05-15T06:52:24.000Z</time></trkpt><trkpt lon="5.61424" lat="51.029559"><ele>88.2</ele><time>2022-05-15T06:52:25.000Z</time></trkpt><trkpt lon="5.61415" lat="51.029589"><ele>88.2</ele><time>2022-05-15T06:52:26.000Z</time></trkpt><trkpt lon="5.614058" lat="51.02962"><ele>88.4</ele><time>2022-05-15T06:52:27.000Z</time></trkpt><trkpt lon="5.613967" lat="51.02965"><ele>88.4</ele><time>2022-05-15T06:52:28.000Z</time></trkpt><trkpt lon="5.613878" lat="51.029685"><ele>88.6</ele><time>2022-05-15T06:52:29.000Z</time></trkpt><trkpt lon="5.613788" lat="51.029715"><ele>88.6</ele><time>2022-05-15T06:52:30.000Z</time></trkpt><trkpt lon="5.613699" lat="51.029746"><ele>88.6</ele><time>2022-05-15T06:52:31.000Z</time></trkpt><trkpt lon="5.613609" lat="51.029777"><ele>88.8</ele><time>2022-05-15T06:52:32.000Z</time></trkpt><trkpt lon="5.613518" lat="51.029807"><ele>88.8</ele><time>2022-05-15T06:52:33.000Z</time></trkpt><trkpt lon="5.613428" lat="51.029834"><ele>89</ele><time>2022-05-15T06:52:34.000Z</time></trkpt><trkpt lon="5.613336" lat="51.029864"><ele>89</ele><time>2022-05-15T06:52:35.000Z</time></trkpt><trkpt lon="5.613246" lat="51.029895"><ele>89</ele><time>2022-05-15T06:52:36.000Z</time></trkpt><trkpt lon="5.613157" lat="51.029922"><ele>89</ele><time>2022-05-15T06:52:37.000Z</time></trkpt><trkpt lon="5.613063" lat="51.029952"><ele>89</ele><time>2022-05-15T06:52:38.000Z</time></trkpt><trkpt lon="5.612973" lat="51.029983"><ele>89.2</ele><time>2022-05-15T06:52:39.000Z</time></trkpt><trkpt lon="5.612878" lat="51.030017"><ele>89.2</ele><time>2022-05-15T06:52:40.000Z</time></trkpt><trkpt lon="5.612784" lat="51.030047"><ele>89.2</ele><time>2022-05-15T06:52:41.000Z</time></trkpt><trkpt lon="5.612687" lat="51.030078"><ele>89</ele><time>2022-05-15T06:52:42.000Z</time></trkpt><trkpt lon="5.61259" lat="51.030112"><ele>89</ele><time>2022-05-15T06:52:43.000Z</time></trkpt><trkpt lon="5.612491" lat="51.030143"><ele>88.8</ele><time>2022-05-15T06:52:44.000Z</time></trkpt><trkpt lon="5.612393" lat="51.030177"><ele>88.8</ele><time>2022-05-15T06:52:45.000Z</time></trkpt><trkpt lon="5.612296" lat="51.030208"><ele>88.6</ele><time>2022-05-15T06:52:46.000Z</time></trkpt><trkpt lon="5.612202" lat="51.030238"><ele>88.6</ele><time>2022-05-15T06:52:47.000Z</time></trkpt><trkpt lon="5.612107" lat="51.030269"><ele>88.6</ele><time>2022-05-15T06:52:48.000Z</time></trkpt><trkpt lon="5.612011" lat="51.030303"><ele>88.6</ele><time>2022-05-15T06:52:49.000Z</time></trkpt><trkpt lon="5.611919" lat="51.030333"><ele>88.8</ele><time>2022-05-15T06:52:50.000Z</time></trkpt><trkpt lon="5.611832" lat="51.030364"><ele>88.8</ele><time>2022-05-15T06:52:51.000Z</time></trkpt><trkpt lon="5.611744" lat="51.030391"><ele>88.8</ele><time>2022-05-15T06:52:52.000Z</time></trkpt><trkpt lon="5.611658" lat="51.030421"><ele>88.8</ele><time>2022-05-15T06:52:53.000Z</time></trkpt><trkpt lon="5.611571" lat="51.030452"><ele>89</ele><time>2022-05-15T06:52:54.000Z</time></trkpt><trkpt lon="5.611484" lat="51.030479"><ele>89</ele><time>2022-05-15T06:52:55.000Z</time></trkpt><trkpt lon="5.611399" lat="51.030505"><ele>89</ele><time>2022-05-15T06:52:56.000Z</time></trkpt><trkpt lon="5.611314" lat="51.030532"><ele>89</ele><time>2022-05-15T06:52:57.000Z</time></trkpt><trkpt lon="5.611233" lat="51.030559"><ele>89.2</ele><time>2022-05-15T06:52:58.000Z</time></trkpt><trkpt lon="5.61115" lat="51.030585"><ele>89.2</ele><time>2022-05-15T06:52:59.000Z</time></trkpt><trkpt lon="5.611068" lat="51.030612"><ele>89.2</ele><time>2022-05-15T06:53:00.000Z</time></trkpt><trkpt lon="5.610987" lat="51.030639"><ele>89.2</ele><time>2022-05-15T06:53:01.000Z</time></trkpt><trkpt lon="5.610908" lat="51.030666"><ele>89</ele><time>2022-05-15T06:53:02.000Z</time></trkpt><trkpt lon="5.610829" lat="51.030688"><ele>89</ele><time>2022-05-15T06:53:03.000Z</time></trkpt><trkpt lon="5.610747" lat="51.030711"><ele>89</ele><time>2022-05-15T06:53:04.000Z</time></trkpt><trkpt lon="5.610671" lat="51.030734"><ele>89</ele><time>2022-05-15T06:53:05.000Z</time></trkpt><trkpt lon="5.610589" lat="51.03075"><ele>89</ele><time>2022-05-15T06:53:06.000Z</time></trkpt><trkpt lon="5.610506" lat="51.030758"><ele>89</ele><time>2022-05-15T06:53:07.000Z</time></trkpt><trkpt lon="5.610423" lat="51.030754"><ele>88.8</ele><time>2022-05-15T06:53:08.000Z</time></trkpt><trkpt lon="5.610344" lat="51.030743"><ele>89</ele><time>2022-05-15T06:53:09.000Z</time></trkpt><trkpt lon="5.610277" lat="51.030713"><ele>89</ele><time>2022-05-15T06:53:10.000Z</time></trkpt><trkpt lon="5.610238" lat="51.030665"><ele>89</ele><time>2022-05-15T06:53:11.000Z</time></trkpt><trkpt lon="5.610211" lat="51.030607"><ele>89</ele><time>2022-05-15T06:53:12.000Z</time></trkpt><trkpt lon="5.610188" lat="51.030548"><ele>89</ele><time>2022-05-15T06:53:13.000Z</time></trkpt><trkpt lon="5.610164" lat="51.030483"><ele>89</ele><time>2022-05-15T06:53:14.000Z</time></trkpt><trkpt lon="5.610139" lat="51.03042"><ele>89</ele><time>2022-05-15T06:53:15.000Z</time></trkpt><trkpt lon="5.610113" lat="51.03036"><ele>89.2</ele><time>2022-05-15T06:53:16.000Z</time></trkpt><trkpt lon="5.610087" lat="51.030294"><ele>89.2</ele><time>2022-05-15T06:53:17.000Z</time></trkpt><trkpt lon="5.610063" lat="51.030235"><ele>89.2</ele><time>2022-05-15T06:53:18.000Z</time></trkpt><trkpt lon="5.610039" lat="51.030176"><ele>89.2</ele><time>2022-05-15T06:53:19.000Z</time></trkpt><trkpt lon="5.610014" lat="51.030115"><ele>89.2</ele><time>2022-05-15T06:53:20.000Z</time></trkpt><trkpt lon="5.609988" lat="51.03005"><ele>89.2</ele><time>2022-05-15T06:53:21.000Z</time></trkpt><trkpt lon="5.609961" lat="51.029989"><ele>89.2</ele><time>2022-05-15T06:53:22.000Z</time></trkpt><trkpt lon="5.609934" lat="51.029928"><ele>89.2</ele><time>2022-05-15T06:53:23.000Z</time></trkpt><trkpt lon="5.609907" lat="51.029863"><ele>89.4</ele><time>2022-05-15T06:53:24.000Z</time></trkpt><trkpt lon="5.609881" lat="51.029803"><ele>89.2</ele><time>2022-05-15T06:53:25.000Z</time></trkpt><trkpt lon="5.609853" lat="51.029742"><ele>89.2</ele><time>2022-05-15T06:53:26.000Z</time></trkpt><trkpt lon="5.609827" lat="51.02968"><ele>89.2</ele><time>2022-05-15T06:53:27.000Z</time></trkpt><trkpt lon="5.609806" lat="51.029615"><ele>89</ele><time>2022-05-15T06:53:28.000Z</time></trkpt><trkpt lon="5.609782" lat="51.029547"><ele>89</ele><time>2022-05-15T06:53:29.000Z</time></trkpt><trkpt lon="5.609756" lat="51.029482"><ele>88.8</ele><time>2022-05-15T06:53:30.000Z</time></trkpt><trkpt lon="5.609728" lat="51.029421"><ele>88.6</ele><time>2022-05-15T06:53:31.000Z</time></trkpt><trkpt lon="5.609701" lat="51.02936"><ele>88.4</ele><time>2022-05-15T06:53:32.000Z</time></trkpt><trkpt lon="5.609676" lat="51.029299"><ele>88.4</ele><time>2022-05-15T06:53:33.000Z</time></trkpt><trkpt lon="5.609655" lat="51.029234"><ele>88</ele><time>2022-05-15T06:53:34.000Z</time></trkpt><trkpt lon="5.609639" lat="51.029172"><ele>87.8</ele><time>2022-05-15T06:53:35.000Z</time></trkpt><trkpt lon="5.609621" lat="51.029097"><ele>87.2</ele><time>2022-05-15T06:53:36.000Z</time></trkpt><trkpt lon="5.609597" lat="51.029021"><ele>86.8</ele><time>2022-05-15T06:53:37.000Z</time></trkpt><trkpt lon="5.609561" lat="51.028944"><ele>86.2</ele><time>2022-05-15T06:53:38.000Z</time></trkpt><trkpt lon="5.609513" lat="51.028868"><ele>85.6</ele><time>2022-05-15T06:53:39.000Z</time></trkpt><trkpt lon="5.609453" lat="51.028795"><ele>85.4</ele><time>2022-05-15T06:53:40.000Z</time></trkpt><trkpt lon="5.609377" lat="51.028723"><ele>85.2</ele><time>2022-05-15T06:53:41.000Z</time></trkpt><trkpt lon="5.609293" lat="51.028658"><ele>85</ele><time>2022-05-15T06:53:42.000Z</time></trkpt><trkpt lon="5.609204" lat="51.028593"><ele>85</ele><time>2022-05-15T06:53:43.000Z</time></trkpt><trkpt lon="5.609117" lat="51.028532"><ele>85</ele><time>2022-05-15T06:53:44.000Z</time></trkpt><trkpt lon="5.609036" lat="51.028468"><ele>85</ele><time>2022-05-15T06:53:45.000Z</time></trkpt><trkpt lon="5.60896" lat="51.028411"><ele>84.8</ele><time>2022-05-15T06:53:46.000Z</time></trkpt><trkpt lon="5.608886" lat="51.028349"><ele>84.8</ele><time>2022-05-15T06:53:47.000Z</time></trkpt><trkpt lon="5.608817" lat="51.028292"><ele>84.8</ele><time>2022-05-15T06:53:48.000Z</time></trkpt><trkpt lon="5.608758" lat="51.028232"><ele>84.8</ele><time>2022-05-15T06:53:49.000Z</time></trkpt><trkpt lon="5.608707" lat="51.028174"><ele>84.8</ele><time>2022-05-15T06:53:50.000Z</time></trkpt><trkpt lon="5.608657" lat="51.02812"><ele>84.8</ele><time>2022-05-15T06:53:51.000Z</time></trkpt><trkpt lon="5.608607" lat="51.028063"><ele>85</ele><time>2022-05-15T06:53:52.000Z</time></trkpt><trkpt lon="5.608561" lat="51.028006"><ele>85.2</ele><time>2022-05-15T06:53:53.000Z</time></trkpt><trkpt lon="5.608518" lat="51.027948"><ele>85.4</ele><time>2022-05-15T06:53:54.000Z</time></trkpt><trkpt lon="5.608479" lat="51.027894"><ele>85.8</ele><time>2022-05-15T06:53:55.000Z</time></trkpt><trkpt lon="5.60844" lat="51.02783"><ele>86</ele><time>2022-05-15T06:53:56.000Z</time></trkpt><trkpt lon="5.608406" lat="51.027772"><ele>86.2</ele><time>2022-05-15T06:53:57.000Z</time></trkpt><trkpt lon="5.608379" lat="51.027712"><ele>86.4</ele><time>2022-05-15T06:53:58.000Z</time></trkpt><trkpt lon="5.608356" lat="51.027647"><ele>86.6</ele><time>2022-05-15T06:53:59.000Z</time></trkpt><trkpt lon="5.608331" lat="51.027579"><ele>86.8</ele><time>2022-05-15T06:54:00.000Z</time></trkpt><trkpt lon="5.608308" lat="51.02751"><ele>86.8</ele><time>2022-05-15T06:54:01.000Z</time></trkpt><trkpt lon="5.608282" lat="51.027437"><ele>87</ele><time>2022-05-15T06:54:02.000Z</time></trkpt><trkpt lon="5.608262" lat="51.027373"><ele>87</ele><time>2022-05-15T06:54:03.000Z</time></trkpt><trkpt lon="5.608244" lat="51.027304"><ele>87.2</ele><time>2022-05-15T06:54:04.000Z</time></trkpt><trkpt lon="5.608225" lat="51.027235"><ele>87.2</ele><time>2022-05-15T06:54:05.000Z</time></trkpt><trkpt lon="5.608211" lat="51.027168"><ele>87.2</ele><time>2022-05-15T06:54:06.000Z</time></trkpt><trkpt lon="5.608196" lat="51.0271"><ele>87.4</ele><time>2022-05-15T06:54:07.000Z</time></trkpt><trkpt lon="5.608182" lat="51.02703"><ele>87.4</ele><time>2022-05-15T06:54:08.000Z</time></trkpt><trkpt lon="5.608164" lat="51.026964"><ele>87.4</ele><time>2022-05-15T06:54:09.000Z</time></trkpt><trkpt lon="5.608147" lat="51.026899"><ele>87.4</ele><time>2022-05-15T06:54:10.000Z</time></trkpt><trkpt lon="5.608127" lat="51.026835"><ele>87.2</ele><time>2022-05-15T06:54:11.000Z</time></trkpt><trkpt lon="5.60811" lat="51.026768"><ele>87.2</ele><time>2022-05-15T06:54:12.000Z</time></trkpt><trkpt lon="5.608092" lat="51.026697"><ele>87.2</ele><time>2022-05-15T06:54:13.000Z</time></trkpt><trkpt lon="5.608076" lat="51.026628"><ele>87.4</ele><time>2022-05-15T06:54:14.000Z</time></trkpt><trkpt lon="5.608062" lat="51.02656"><ele>87.4</ele><time>2022-05-15T06:54:15.000Z</time></trkpt><trkpt lon="5.608047" lat="51.026488"><ele>87.4</ele><time>2022-05-15T06:54:16.000Z</time></trkpt><trkpt lon="5.608032" lat="51.026419"><ele>87.2</ele><time>2022-05-15T06:54:17.000Z</time></trkpt><trkpt lon="5.608019" lat="51.026354"><ele>87.2</ele><time>2022-05-15T06:54:18.000Z</time></trkpt><trkpt lon="5.608005" lat="51.026285"><ele>87.2</ele><time>2022-05-15T06:54:19.000Z</time></trkpt><trkpt lon="5.60799" lat="51.026221"><ele>87.2</ele><time>2022-05-15T06:54:20.000Z</time></trkpt><trkpt lon="5.607974" lat="51.026156"><ele>87.2</ele><time>2022-05-15T06:54:21.000Z</time></trkpt><trkpt lon="5.607959" lat="51.026094"><ele>87</ele><time>2022-05-15T06:54:22.000Z</time></trkpt><trkpt lon="5.607945" lat="51.026034"><ele>86.8</ele><time>2022-05-15T06:54:23.000Z</time></trkpt><trkpt lon="5.607931" lat="51.025976"><ele>86.8</ele><time>2022-05-15T06:54:24.000Z</time></trkpt><trkpt lon="5.607908" lat="51.025923"><ele>86.8</ele><time>2022-05-15T06:54:25.000Z</time></trkpt><trkpt lon="5.607869" lat="51.025876"><ele>86.8</ele><time>2022-05-15T06:54:26.000Z</time></trkpt><trkpt lon="5.607805" lat="51.025838"><ele>86.8</ele><time>2022-05-15T06:54:27.000Z</time></trkpt><trkpt lon="5.60772" lat="51.025819"><ele>86.6</ele><time>2022-05-15T06:54:28.000Z</time></trkpt><trkpt lon="5.607628" lat="51.0258"><ele>86.6</ele><time>2022-05-15T06:54:29.000Z</time></trkpt><trkpt lon="5.607525" lat="51.025773"><ele>86.4</ele><time>2022-05-15T06:54:30.000Z</time></trkpt><trkpt lon="5.607423" lat="51.025743"><ele>86.4</ele><time>2022-05-15T06:54:31.000Z</time></trkpt><trkpt lon="5.607331" lat="51.025705"><ele>86.2</ele><time>2022-05-15T06:54:32.000Z</time></trkpt><trkpt lon="5.60725" lat="51.025656"><ele>86.2</ele><time>2022-05-15T06:54:33.000Z</time></trkpt><trkpt lon="5.607176" lat="51.025606"><ele>86</ele><time>2022-05-15T06:54:34.000Z</time></trkpt><trkpt lon="5.607104" lat="51.025553"><ele>86</ele><time>2022-05-15T06:54:35.000Z</time></trkpt><trkpt lon="5.607034" lat="51.025495"><ele>85.8</ele><time>2022-05-15T06:54:36.000Z</time></trkpt><trkpt lon="5.606967" lat="51.025442"><ele>85.6</ele><time>2022-05-15T06:54:37.000Z</time></trkpt><trkpt lon="5.606899" lat="51.025381"><ele>85.4</ele><time>2022-05-15T06:54:38.000Z</time></trkpt><trkpt lon="5.60683" lat="51.02532"><ele>85.2</ele><time>2022-05-15T06:54:39.000Z</time></trkpt><trkpt lon="5.606754" lat="51.025263"><ele>85</ele><time>2022-05-15T06:54:40.000Z</time></trkpt><trkpt lon="5.606674" lat="51.025205"><ele>84.8</ele><time>2022-05-15T06:54:41.000Z</time></trkpt><trkpt lon="5.606596" lat="51.025148"><ele>84.6</ele><time>2022-05-15T06:54:42.000Z</time></trkpt><trkpt lon="5.606517" lat="51.025088"><ele>84.2</ele><time>2022-05-15T06:54:43.000Z</time></trkpt><trkpt lon="5.606438" lat="51.025031"><ele>84</ele><time>2022-05-15T06:54:44.000Z</time></trkpt><trkpt lon="5.606363" lat="51.024969"><ele>83.8</ele><time>2022-05-15T06:54:45.000Z</time></trkpt><trkpt lon="5.606294" lat="51.024905"><ele>83.4</ele><time>2022-05-15T06:54:46.000Z</time></trkpt><trkpt lon="5.606225" lat="51.024847"><ele>83.2</ele><time>2022-05-15T06:54:47.000Z</time></trkpt><trkpt lon="5.606157" lat="51.024796"><ele>82.8</ele><time>2022-05-15T06:54:48.000Z</time></trkpt><trkpt lon="5.606078" lat="51.024741"><ele>82.4</ele><time>2022-05-15T06:54:49.000Z</time></trkpt><trkpt lon="5.605998" lat="51.024683"><ele>82</ele><time>2022-05-15T06:54:50.000Z</time></trkpt><trkpt lon="5.605921" lat="51.02463"><ele>81.6</ele><time>2022-05-15T06:54:51.000Z</time></trkpt><trkpt lon="5.60584" lat="51.024583"><ele>81.4</ele><time>2022-05-15T06:54:52.000Z</time></trkpt><trkpt lon="5.605751" lat="51.024545"><ele>81</ele><time>2022-05-15T06:54:53.000Z</time></trkpt><trkpt lon="5.605655" lat="51.024518"><ele>80.6</ele><time>2022-05-15T06:54:54.000Z</time></trkpt><trkpt lon="5.60555" lat="51.024502"><ele>80.4</ele><time>2022-05-15T06:54:55.000Z</time></trkpt><trkpt lon="5.605431" lat="51.024502"><ele>80</ele><time>2022-05-15T06:54:56.000Z</time></trkpt><trkpt lon="5.605303" lat="51.024509"><ele>79.8</ele><time>2022-05-15T06:54:57.000Z</time></trkpt><trkpt lon="5.605173" lat="51.024517"><ele>79.6</ele><time>2022-05-15T06:54:58.000Z</time></trkpt><trkpt lon="5.605043" lat="51.024528"><ele>79.4</ele><time>2022-05-15T06:54:59.000Z</time></trkpt><trkpt lon="5.604916" lat="51.024543"><ele>79.2</ele><time>2022-05-15T06:55:00.000Z</time></trkpt><trkpt lon="5.604787" lat="51.024559"><ele>79</ele><time>2022-05-15T06:55:01.000Z</time></trkpt><trkpt lon="5.604657" lat="51.02457"><ele>78.8</ele><time>2022-05-15T06:55:02.000Z</time></trkpt><trkpt lon="5.604535" lat="51.024582"><ele>78.6</ele><time>2022-05-15T06:55:03.000Z</time></trkpt><trkpt lon="5.604414" lat="51.024589"><ele>78.4</ele><time>2022-05-15T06:55:04.000Z</time></trkpt><trkpt lon="5.604294" lat="51.024597"><ele>78.4</ele><time>2022-05-15T06:55:05.000Z</time></trkpt><trkpt lon="5.604177" lat="51.024601"><ele>78.2</ele><time>2022-05-15T06:55:06.000Z</time></trkpt><trkpt lon="5.604063" lat="51.024608"><ele>77.8</ele><time>2022-05-15T06:55:07.000Z</time></trkpt><trkpt lon="5.603949" lat="51.02462"><ele>77.4</ele><time>2022-05-15T06:55:08.000Z</time></trkpt><trkpt lon="5.603836" lat="51.024631"><ele>77.2</ele><time>2022-05-15T06:55:09.000Z</time></trkpt><trkpt lon="5.603727" lat="51.024646"><ele>76.8</ele><time>2022-05-15T06:55:10.000Z</time></trkpt><trkpt lon="5.603618" lat="51.024665"><ele>76.4</ele><time>2022-05-15T06:55:11.000Z</time></trkpt><trkpt lon="5.603513" lat="51.024692"><ele>76</ele><time>2022-05-15T06:55:12.000Z</time></trkpt><trkpt lon="5.60341" lat="51.024718"><ele>75.6</ele><time>2022-05-15T06:55:13.000Z</time></trkpt><trkpt lon="5.603309" lat="51.024742"><ele>75</ele><time>2022-05-15T06:55:14.000Z</time></trkpt><trkpt lon="5.603209" lat="51.024753"><ele>74.6</ele><time>2022-05-15T06:55:15.000Z</time></trkpt><trkpt lon="5.603101" lat="51.024743"><ele>74.2</ele><time>2022-05-15T06:55:16.000Z</time></trkpt><trkpt lon="5.60299" lat="51.02472"><ele>73.8</ele><time>2022-05-15T06:55:17.000Z</time></trkpt><trkpt lon="5.602892" lat="51.024683"><ele>73.4</ele><time>2022-05-15T06:55:18.000Z</time></trkpt><trkpt lon="5.602808" lat="51.024623"><ele>72.8</ele><time>2022-05-15T06:55:19.000Z</time></trkpt><trkpt lon="5.602736" lat="51.024554"><ele>72.6</ele><time>2022-05-15T06:55:20.000Z</time></trkpt><trkpt lon="5.60268" lat="51.024477"><ele>72.2</ele><time>2022-05-15T06:55:21.000Z</time></trkpt><trkpt lon="5.60264" lat="51.024398"><ele>71.8</ele><time>2022-05-15T06:55:22.000Z</time></trkpt><trkpt lon="5.602603" lat="51.024313"><ele>71.6</ele><time>2022-05-15T06:55:23.000Z</time></trkpt><trkpt lon="5.602575" lat="51.024227"><ele>71.4</ele><time>2022-05-15T06:55:24.000Z</time></trkpt><trkpt lon="5.602549" lat="51.024142"><ele>71.4</ele><time>2022-05-15T06:55:25.000Z</time></trkpt><trkpt lon="5.602523" lat="51.024062"><ele>71.2</ele><time>2022-05-15T06:55:26.000Z</time></trkpt><trkpt lon="5.602499" lat="51.023985"><ele>71.4</ele><time>2022-05-15T06:55:27.000Z</time></trkpt><trkpt lon="5.602479" lat="51.023913"><ele>71.4</ele><time>2022-05-15T06:55:28.000Z</time></trkpt><trkpt lon="5.602451" lat="51.023844"><ele>71.4</ele><time>2022-05-15T06:55:29.000Z</time></trkpt><trkpt lon="5.60242" lat="51.023772"><ele>71.6</ele><time>2022-05-15T06:55:30.000Z</time></trkpt><trkpt lon="5.602386" lat="51.023703"><ele>71.6</ele><time>2022-05-15T06:55:31.000Z</time></trkpt><trkpt lon="5.602346" lat="51.023635"><ele>71.6</ele><time>2022-05-15T06:55:32.000Z</time></trkpt><trkpt lon="5.602302" lat="51.023573"><ele>71.8</ele><time>2022-05-15T06:55:33.000Z</time></trkpt><trkpt lon="5.602255" lat="51.023516"><ele>71.8</ele><time>2022-05-15T06:55:34.000Z</time></trkpt><trkpt lon="5.602198" lat="51.023458"><ele>72</ele><time>2022-05-15T06:55:35.000Z</time></trkpt><trkpt lon="5.602127" lat="51.023405"><ele>72</ele><time>2022-05-15T06:55:36.000Z</time></trkpt><trkpt lon="5.602055" lat="51.023355"><ele>72</ele><time>2022-05-15T06:55:37.000Z</time></trkpt><trkpt lon="5.601996" lat="51.023302"><ele>72.2</ele><time>2022-05-15T06:55:38.000Z</time></trkpt><trkpt lon="5.601935" lat="51.023245"><ele>72.2</ele><time>2022-05-15T06:55:39.000Z</time></trkpt><trkpt lon="5.60186" lat="51.023195"><ele>72.2</ele><time>2022-05-15T06:55:40.000Z</time></trkpt><trkpt lon="5.601775" lat="51.023151"><ele>72.4</ele><time>2022-05-15T06:55:41.000Z</time></trkpt><trkpt lon="5.60167" lat="51.0231"><ele>72.4</ele><time>2022-05-15T06:55:42.000Z</time></trkpt><trkpt lon="5.601577" lat="51.023056"><ele>72.2</ele><time>2022-05-15T06:55:43.000Z</time></trkpt><trkpt lon="5.601487" lat="51.023004"><ele>72.2</ele><time>2022-05-15T06:55:44.000Z</time></trkpt><trkpt lon="5.601406" lat="51.022955"><ele>72.2</ele><time>2022-05-15T06:55:45.000Z</time></trkpt><trkpt lon="5.601335" lat="51.022907"><ele>72.2</ele><time>2022-05-15T06:55:46.000Z</time></trkpt><trkpt lon="5.601269" lat="51.022855"><ele>72.2</ele><time>2022-05-15T06:55:47.000Z</time></trkpt><trkpt lon="5.601217" lat="51.022802"><ele>72.4</ele><time>2022-05-15T06:55:48.000Z</time></trkpt><trkpt lon="5.601165" lat="51.022749"><ele>72.4</ele><time>2022-05-15T06:55:49.000Z</time></trkpt><trkpt lon="5.601112" lat="51.022707"><ele>72.4</ele><time>2022-05-15T06:55:50.000Z</time></trkpt><trkpt lon="5.601051" lat="51.022668"><ele>72.2</ele><time>2022-05-15T06:55:51.000Z</time></trkpt><trkpt lon="5.600976" lat="51.022656"><ele>72.2</ele><time>2022-05-15T06:55:52.000Z</time></trkpt><trkpt lon="5.60088" lat="51.022659"><ele>72</ele><time>2022-05-15T06:55:53.000Z</time></trkpt><trkpt lon="5.600779" lat="51.022682"><ele>71.8</ele><time>2022-05-15T06:55:54.000Z</time></trkpt><trkpt lon="5.600668" lat="51.022716"><ele>71.6</ele><time>2022-05-15T06:55:55.000Z</time></trkpt><trkpt lon="5.600551" lat="51.022746"><ele>71.6</ele><time>2022-05-15T06:55:56.000Z</time></trkpt><trkpt lon="5.600434" lat="51.022784"><ele>71.4</ele><time>2022-05-15T06:55:57.000Z</time></trkpt><trkpt lon="5.600316" lat="51.022818"><ele>71.4</ele><time>2022-05-15T06:55:58.000Z</time></trkpt><trkpt lon="5.600197" lat="51.022849"><ele>71.2</ele><time>2022-05-15T06:55:59.000Z</time></trkpt><trkpt lon="5.600079" lat="51.02288"><ele>71.2</ele><time>2022-05-15T06:56:00.000Z</time></trkpt><trkpt lon="5.599964" lat="51.02291"><ele>71.2</ele><time>2022-05-15T06:56:01.000Z</time></trkpt><trkpt lon="5.59985" lat="51.022937"><ele>71.2</ele><time>2022-05-15T06:56:02.000Z</time></trkpt><trkpt lon="5.59974" lat="51.022967"><ele>71</ele><time>2022-05-15T06:56:03.000Z</time></trkpt><trkpt lon="5.599628" lat="51.022998"><ele>71</ele><time>2022-05-15T06:56:04.000Z</time></trkpt><trkpt lon="5.599515" lat="51.023025"><ele>70.8</ele><time>2022-05-15T06:56:05.000Z</time></trkpt><trkpt lon="5.599407" lat="51.023054"><ele>70.6</ele><time>2022-05-15T06:56:06.000Z</time></trkpt><trkpt lon="5.59929" lat="51.023086"><ele>70.4</ele><time>2022-05-15T06:56:07.000Z</time></trkpt><trkpt lon="5.599177" lat="51.023112"><ele>70.2</ele><time>2022-05-15T06:56:08.000Z</time></trkpt><trkpt lon="5.599064" lat="51.023146"><ele>70</ele><time>2022-05-15T06:56:09.000Z</time></trkpt><trkpt lon="5.598948" lat="51.023177"><ele>69.8</ele><time>2022-05-15T06:56:10.000Z</time></trkpt><trkpt lon="5.598834" lat="51.023207"><ele>69.6</ele><time>2022-05-15T06:56:11.000Z</time></trkpt><trkpt lon="5.598713" lat="51.023238"><ele>69.4</ele><time>2022-05-15T06:56:12.000Z</time></trkpt><trkpt lon="5.598594" lat="51.023265"><ele>69.2</ele><time>2022-05-15T06:56:13.000Z</time></trkpt><trkpt lon="5.598479" lat="51.023295"><ele>69</ele><time>2022-05-15T06:56:14.000Z</time></trkpt><trkpt lon="5.598366" lat="51.023325"><ele>68.8</ele><time>2022-05-15T06:56:15.000Z</time></trkpt><trkpt lon="5.598253" lat="51.023359"><ele>68.6</ele><time>2022-05-15T06:56:16.000Z</time></trkpt><trkpt lon="5.598138" lat="51.023387"><ele>68.4</ele><time>2022-05-15T06:56:17.000Z</time></trkpt><trkpt lon="5.598026" lat="51.023414"><ele>68.2</ele><time>2022-05-15T06:56:18.000Z</time></trkpt><trkpt lon="5.597917" lat="51.02344"><ele>68</ele><time>2022-05-15T06:56:19.000Z</time></trkpt><trkpt lon="5.597803" lat="51.023467"><ele>68</ele><time>2022-05-15T06:56:20.000Z</time></trkpt><trkpt lon="5.597694" lat="51.023494"><ele>67.8</ele><time>2022-05-15T06:56:21.000Z</time></trkpt><trkpt lon="5.597587" lat="51.023513"><ele>67.6</ele><time>2022-05-15T06:56:22.000Z</time></trkpt><trkpt lon="5.597478" lat="51.02354"><ele>67.2</ele><time>2022-05-15T06:56:23.000Z</time></trkpt><trkpt lon="5.597367" lat="51.023574"><ele>67</ele><time>2022-05-15T06:56:24.000Z</time></trkpt><trkpt lon="5.597253" lat="51.023604"><ele>66.8</ele><time>2022-05-15T06:56:25.000Z</time></trkpt><trkpt lon="5.597143" lat="51.023631"><ele>66.6</ele><time>2022-05-15T06:56:26.000Z</time></trkpt><trkpt lon="5.59704" lat="51.02366"><ele>66.4</ele><time>2022-05-15T06:56:27.000Z</time></trkpt><trkpt lon="5.596938" lat="51.023696"><ele>66.2</ele><time>2022-05-15T06:56:28.000Z</time></trkpt><trkpt lon="5.596856" lat="51.023741"><ele>66.2</ele><time>2022-05-15T06:56:29.000Z</time></trkpt><trkpt lon="5.596781" lat="51.023787"><ele>66.2</ele><time>2022-05-15T06:56:30.000Z</time></trkpt><trkpt lon="5.596712" lat="51.023833"><ele>66.4</ele><time>2022-05-15T06:56:31.000Z</time></trkpt><trkpt lon="5.596649" lat="51.023879"><ele>66.4</ele><time>2022-05-15T06:56:32.000Z</time></trkpt><trkpt lon="5.596585" lat="51.023925"><ele>66.6</ele><time>2022-05-15T06:56:33.000Z</time></trkpt><trkpt lon="5.596514" lat="51.023963"><ele>66.8</ele><time>2022-05-15T06:56:34.000Z</time></trkpt><trkpt lon="5.596433" lat="51.023993"><ele>66.8</ele><time>2022-05-15T06:56:35.000Z</time></trkpt><trkpt lon="5.596347" lat="51.024009"><ele>67</ele><time>2022-05-15T06:56:36.000Z</time></trkpt><trkpt lon="5.596251" lat="51.024002"><ele>67</ele><time>2022-05-15T06:56:37.000Z</time></trkpt><trkpt lon="5.596156" lat="51.023984"><ele>67</ele><time>2022-05-15T06:56:38.000Z</time></trkpt><trkpt lon="5.596063" lat="51.023953"><ele>67</ele><time>2022-05-15T06:56:39.000Z</time></trkpt><trkpt lon="5.595969" lat="51.023916"><ele>67.2</ele><time>2022-05-15T06:56:40.000Z</time></trkpt><trkpt lon="5.595871" lat="51.023882"><ele>67.2</ele><time>2022-05-15T06:56:41.000Z</time></trkpt><trkpt lon="5.595769" lat="51.023843"><ele>67.4</ele><time>2022-05-15T06:56:42.000Z</time></trkpt><trkpt lon="5.595665" lat="51.023809"><ele>67.4</ele><time>2022-05-15T06:56:43.000Z</time></trkpt><trkpt lon="5.595567" lat="51.023774"><ele>67.6</ele><time>2022-05-15T06:56:44.000Z</time></trkpt><trkpt lon="5.595471" lat="51.02374"><ele>67.8</ele><time>2022-05-15T06:56:45.000Z</time></trkpt><trkpt lon="5.595376" lat="51.023706"><ele>67.8</ele><time>2022-05-15T06:56:46.000Z</time></trkpt><trkpt lon="5.595279" lat="51.023672"><ele>67.8</ele><time>2022-05-15T06:56:47.000Z</time></trkpt><trkpt lon="5.595187" lat="51.023641"><ele>67.8</ele><time>2022-05-15T06:56:48.000Z</time></trkpt><trkpt lon="5.595101" lat="51.023607"><ele>68</ele><time>2022-05-15T06:56:49.000Z</time></trkpt><trkpt lon="5.595016" lat="51.023573"><ele>68</ele><time>2022-05-15T06:56:50.000Z</time></trkpt><trkpt lon="5.594929" lat="51.023538"><ele>68.2</ele><time>2022-05-15T06:56:51.000Z</time></trkpt><trkpt lon="5.594848" lat="51.023507"><ele>68.4</ele><time>2022-05-15T06:56:52.000Z</time></trkpt><trkpt lon="5.594765" lat="51.023473"><ele>68.6</ele><time>2022-05-15T06:56:53.000Z</time></trkpt><trkpt lon="5.59468" lat="51.023439"><ele>68.6</ele><time>2022-05-15T06:56:54.000Z</time></trkpt><trkpt lon="5.594595" lat="51.023404"><ele>68.8</ele><time>2022-05-15T06:56:55.000Z</time></trkpt><trkpt lon="5.594506" lat="51.023374"><ele>69</ele><time>2022-05-15T06:56:56.000Z</time></trkpt><trkpt lon="5.594418" lat="51.023339"><ele>69</ele><time>2022-05-15T06:56:57.000Z</time></trkpt><trkpt lon="5.594336" lat="51.023305"><ele>69.2</ele><time>2022-05-15T06:56:58.000Z</time></trkpt><trkpt lon="5.594253" lat="51.023271"><ele>69.4</ele><time>2022-05-15T06:56:59.000Z</time></trkpt><trkpt lon="5.594173" lat="51.023233"><ele>69.6</ele><time>2022-05-15T06:57:00.000Z</time></trkpt><trkpt lon="5.594085" lat="51.023195"><ele>69.6</ele><time>2022-05-15T06:57:01.000Z</time></trkpt><trkpt lon="5.593994" lat="51.02316"><ele>69.8</ele><time>2022-05-15T06:57:02.000Z</time></trkpt><trkpt lon="5.593908" lat="51.023122"><ele>69.8</ele><time>2022-05-15T06:57:03.000Z</time></trkpt><trkpt lon="5.593821" lat="51.023089"><ele>69.8</ele><time>2022-05-15T06:57:04.000Z</time></trkpt><trkpt lon="5.593731" lat="51.023053"><ele>69.8</ele><time>2022-05-15T06:57:05.000Z</time></trkpt><trkpt lon="5.593647" lat="51.023021"><ele>70</ele><time>2022-05-15T06:57:06.000Z</time></trkpt><trkpt lon="5.593561" lat="51.022985"><ele>70</ele><time>2022-05-15T06:57:07.000Z</time></trkpt><trkpt lon="5.593478" lat="51.022947"><ele>70</ele><time>2022-05-15T06:57:08.000Z</time></trkpt><trkpt lon="5.593393" lat="51.022916"><ele>70</ele><time>2022-05-15T06:57:09.000Z</time></trkpt><trkpt lon="5.59332" lat="51.022881"><ele>70</ele><time>2022-05-15T06:57:10.000Z</time></trkpt><trkpt lon="5.593252" lat="51.022852"><ele>70.2</ele><time>2022-05-15T06:57:11.000Z</time></trkpt><trkpt lon="5.593172" lat="51.02282"><ele>70.2</ele><time>2022-05-15T06:57:12.000Z</time></trkpt><trkpt lon="5.593091" lat="51.022794"><ele>70.4</ele><time>2022-05-15T06:57:13.000Z</time></trkpt><trkpt lon="5.592995" lat="51.022763"><ele>70.4</ele><time>2022-05-15T06:57:14.000Z</time></trkpt><trkpt lon="5.592896" lat="51.022733"><ele>70.4</ele><time>2022-05-15T06:57:15.000Z</time></trkpt><trkpt lon="5.592809" lat="51.022698"><ele>70.6</ele><time>2022-05-15T06:57:16.000Z</time></trkpt><trkpt lon="5.59272" lat="51.022664"><ele>70.6</ele><time>2022-05-15T06:57:17.000Z</time></trkpt><trkpt lon="5.592637" lat="51.022634"><ele>70.8</ele><time>2022-05-15T06:57:18.000Z</time></trkpt><trkpt lon="5.592551" lat="51.022599"><ele>70.8</ele><time>2022-05-15T06:57:19.000Z</time></trkpt><trkpt lon="5.592463" lat="51.022565"><ele>71</ele><time>2022-05-15T06:57:20.000Z</time></trkpt><trkpt lon="5.592375" lat="51.022534"><ele>71</ele><time>2022-05-15T06:57:21.000Z</time></trkpt><trkpt lon="5.592278" lat="51.0225"><ele>71</ele><time>2022-05-15T06:57:22.000Z</time></trkpt><trkpt lon="5.592185" lat="51.022466"><ele>71.2</ele><time>2022-05-15T06:57:23.000Z</time></trkpt><trkpt lon="5.592095" lat="51.022428"><ele>71.2</ele><time>2022-05-15T06:57:24.000Z</time></trkpt><trkpt lon="5.592006" lat="51.022393"><ele>71.2</ele><time>2022-05-15T06:57:25.000Z</time></trkpt><trkpt lon="5.591919" lat="51.02236"><ele>71.2</ele><time>2022-05-15T06:57:26.000Z</time></trkpt><trkpt lon="5.591814" lat="51.022329"><ele>71.2</ele><time>2022-05-15T06:57:27.000Z</time></trkpt><trkpt lon="5.59172" lat="51.022298"><ele>71.2</ele><time>2022-05-15T06:57:28.000Z</time></trkpt><trkpt lon="5.59162" lat="51.022264"><ele>71.2</ele><time>2022-05-15T06:57:29.000Z</time></trkpt><trkpt lon="5.591532" lat="51.022233"><ele>71.2</ele><time>2022-05-15T06:57:30.000Z</time></trkpt><trkpt lon="5.591443" lat="51.022202"><ele>71.4</ele><time>2022-05-15T06:57:31.000Z</time></trkpt><trkpt lon="5.59136" lat="51.022174"><ele>71.4</ele><time>2022-05-15T06:57:32.000Z</time></trkpt><trkpt lon="5.591269" lat="51.022138"><ele>71.6</ele><time>2022-05-15T06:57:33.000Z</time></trkpt><trkpt lon="5.591179" lat="51.022103"><ele>71.6</ele><time>2022-05-15T06:57:34.000Z</time></trkpt><trkpt lon="5.591088" lat="51.022073"><ele>71.6</ele><time>2022-05-15T06:57:35.000Z</time></trkpt><trkpt lon="5.590997" lat="51.022039"><ele>71.8</ele><time>2022-05-15T06:57:36.000Z</time></trkpt><trkpt lon="5.590922" lat="51.022012"><ele>71.8</ele><time>2022-05-15T06:57:37.000Z</time></trkpt><trkpt lon="5.590821" lat="51.021977"><ele>72</ele><time>2022-05-15T06:57:38.000Z</time></trkpt><trkpt lon="5.590735" lat="51.021952"><ele>72</ele><time>2022-05-15T06:57:39.000Z</time></trkpt><trkpt lon="5.590643" lat="51.021924"><ele>72</ele><time>2022-05-15T06:57:40.000Z</time></trkpt><trkpt lon="5.590554" lat="51.02189"><ele>72.2</ele><time>2022-05-15T06:57:41.000Z</time></trkpt><trkpt lon="5.590463" lat="51.021848"><ele>72.2</ele><time>2022-05-15T06:57:42.000Z</time></trkpt><trkpt lon="5.590368" lat="51.021814"><ele>72.2</ele><time>2022-05-15T06:57:43.000Z</time></trkpt><trkpt lon="5.590266" lat="51.021779"><ele>72.2</ele><time>2022-05-15T06:57:44.000Z</time></trkpt><trkpt lon="5.590161" lat="51.021741"><ele>72.2</ele><time>2022-05-15T06:57:45.000Z</time></trkpt><trkpt lon="5.59006" lat="51.021704"><ele>72.4</ele><time>2022-05-15T06:57:46.000Z</time></trkpt><trkpt lon="5.589948" lat="51.021665"><ele>72.4</ele><time>2022-05-15T06:57:47.000Z</time></trkpt><trkpt lon="5.58985" lat="51.021627"><ele>72.4</ele><time>2022-05-15T06:57:48.000Z</time></trkpt><trkpt lon="5.589752" lat="51.021589"><ele>72.6</ele><time>2022-05-15T06:57:49.000Z</time></trkpt><trkpt lon="5.589658" lat="51.021555"><ele>72.6</ele><time>2022-05-15T06:57:50.000Z</time></trkpt><trkpt lon="5.589561" lat="51.021516"><ele>72.6</ele><time>2022-05-15T06:57:51.000Z</time></trkpt><trkpt lon="5.58947" lat="51.021485"><ele>72.8</ele><time>2022-05-15T06:57:52.000Z</time></trkpt><trkpt lon="5.589374" lat="51.021451"><ele>72.8</ele><time>2022-05-15T06:57:53.000Z</time></trkpt><trkpt lon="5.589274" lat="51.021421"><ele>72.8</ele><time>2022-05-15T06:57:54.000Z</time></trkpt><trkpt lon="5.589172" lat="51.02139"><ele>73</ele><time>2022-05-15T06:57:55.000Z</time></trkpt><trkpt lon="5.589073" lat="51.021361"><ele>73</ele><time>2022-05-15T06:57:56.000Z</time></trkpt><trkpt lon="5.58896" lat="51.021336"><ele>73</ele><time>2022-05-15T06:57:57.000Z</time></trkpt><trkpt lon="5.588859" lat="51.021318"><ele>73</ele><time>2022-05-15T06:57:58.000Z</time></trkpt><trkpt lon="5.588748" lat="51.021302"><ele>73</ele><time>2022-05-15T06:57:59.000Z</time></trkpt><trkpt lon="5.588646" lat="51.021283"><ele>73.2</ele><time>2022-05-15T06:58:00.000Z</time></trkpt><trkpt lon="5.588536" lat="51.021264"><ele>73.2</ele><time>2022-05-15T06:58:01.000Z</time></trkpt><trkpt lon="5.588434" lat="51.021245"><ele>73.4</ele><time>2022-05-15T06:58:02.000Z</time></trkpt><trkpt lon="5.588334" lat="51.021229"><ele>73.4</ele><time>2022-05-15T06:58:03.000Z</time></trkpt><trkpt lon="5.588237" lat="51.02121"><ele>73.6</ele><time>2022-05-15T06:58:04.000Z</time></trkpt><trkpt lon="5.58814" lat="51.021191"><ele>73.8</ele><time>2022-05-15T06:58:05.000Z</time></trkpt><trkpt lon="5.588036" lat="51.021172"><ele>73.8</ele><time>2022-05-15T06:58:06.000Z</time></trkpt><trkpt lon="5.587933" lat="51.021153"><ele>74</ele><time>2022-05-15T06:58:07.000Z</time></trkpt><trkpt lon="5.587829" lat="51.021134"><ele>74</ele><time>2022-05-15T06:58:08.000Z</time></trkpt><trkpt lon="5.587725" lat="51.021111"><ele>74</ele><time>2022-05-15T06:58:09.000Z</time></trkpt><trkpt lon="5.587622" lat="51.021088"><ele>74.2</ele><time>2022-05-15T06:58:10.000Z</time></trkpt><trkpt lon="5.587529" lat="51.021058"><ele>74.2</ele><time>2022-05-15T06:58:11.000Z</time></trkpt><trkpt lon="5.587447" lat="51.02102"><ele>74.2</ele><time>2022-05-15T06:58:12.000Z</time></trkpt><trkpt lon="5.587376" lat="51.020979"><ele>74.4</ele><time>2022-05-15T06:58:13.000Z</time></trkpt><trkpt lon="5.587307" lat="51.020933"><ele>74.4</ele><time>2022-05-15T06:58:14.000Z</time></trkpt><trkpt lon="5.587242" lat="51.02088"><ele>74.4</ele><time>2022-05-15T06:58:15.000Z</time></trkpt><trkpt lon="5.587179" lat="51.020822"><ele>74.4</ele><time>2022-05-15T06:58:16.000Z</time></trkpt><trkpt lon="5.587109" lat="51.020763"><ele>74.2</ele><time>2022-05-15T06:58:17.000Z</time></trkpt><trkpt lon="5.587034" lat="51.020708"><ele>74.2</ele><time>2022-05-15T06:58:18.000Z</time></trkpt><trkpt lon="5.586963" lat="51.020651"><ele>74.2</ele><time>2022-05-15T06:58:19.000Z</time></trkpt><trkpt lon="5.586879" lat="51.020594"><ele>74.2</ele><time>2022-05-15T06:58:20.000Z</time></trkpt><trkpt lon="5.586797" lat="51.020544"><ele>74.2</ele><time>2022-05-15T06:58:21.000Z</time></trkpt><trkpt lon="5.586717" lat="51.020494"><ele>74.2</ele><time>2022-05-15T06:58:22.000Z</time></trkpt><trkpt lon="5.586651" lat="51.020456"><ele>74.2</ele><time>2022-05-15T06:58:23.000Z</time></trkpt><trkpt lon="5.586559" lat="51.020399"><ele>74.2</ele><time>2022-05-15T06:58:24.000Z</time></trkpt><trkpt lon="5.586482" lat="51.020356"><ele>74.2</ele><time>2022-05-15T06:58:25.000Z</time></trkpt><trkpt lon="5.586396" lat="51.020303"><ele>74.2</ele><time>2022-05-15T06:58:26.000Z</time></trkpt><trkpt lon="5.586311" lat="51.020251"><ele>74.2</ele><time>2022-05-15T06:58:27.000Z</time></trkpt><trkpt lon="5.586231" lat="51.020201"><ele>74.2</ele><time>2022-05-15T06:58:28.000Z</time></trkpt><trkpt lon="5.586153" lat="51.020151"><ele>74.2</ele><time>2022-05-15T06:58:29.000Z</time></trkpt><trkpt lon="5.586066" lat="51.020101"><ele>74</ele><time>2022-05-15T06:58:30.000Z</time></trkpt><trkpt lon="5.585979" lat="51.020048"><ele>74</ele><time>2022-05-15T06:58:31.000Z</time></trkpt><trkpt lon="5.585895" lat="51.019995"><ele>74</ele><time>2022-05-15T06:58:32.000Z</time></trkpt><trkpt lon="5.58581" lat="51.019942"><ele>74</ele><time>2022-05-15T06:58:33.000Z</time></trkpt><trkpt lon="5.585728" lat="51.019892"><ele>74</ele><time>2022-05-15T06:58:34.000Z</time></trkpt><trkpt lon="5.585644" lat="51.019838"><ele>74</ele><time>2022-05-15T06:58:35.000Z</time></trkpt><trkpt lon="5.585564" lat="51.019788"><ele>74</ele><time>2022-05-15T06:58:36.000Z</time></trkpt><trkpt lon="5.585496" lat="51.019747"><ele>74</ele><time>2022-05-15T06:58:37.000Z</time></trkpt><trkpt lon="5.585413" lat="51.019695"><ele>74.2</ele><time>2022-05-15T06:58:38.000Z</time></trkpt><trkpt lon="5.585324" lat="51.01964"><ele>74.2</ele><time>2022-05-15T06:58:39.000Z</time></trkpt><trkpt lon="5.585252" lat="51.01959"><ele>74.2</ele><time>2022-05-15T06:58:40.000Z</time></trkpt><trkpt lon="5.58518" lat="51.019538"><ele>74.2</ele><time>2022-05-15T06:58:41.000Z</time></trkpt><trkpt lon="5.585105" lat="51.019488"><ele>74.2</ele><time>2022-05-15T06:58:42.000Z</time></trkpt><trkpt lon="5.585032" lat="51.019442"><ele>74.2</ele><time>2022-05-15T06:58:43.000Z</time></trkpt><trkpt lon="5.584957" lat="51.019393"><ele>74.2</ele><time>2022-05-15T06:58:44.000Z</time></trkpt><trkpt lon="5.58488" lat="51.019346"><ele>74.2</ele><time>2022-05-15T06:58:45.000Z</time></trkpt><trkpt lon="5.584804" lat="51.019296"><ele>74.4</ele><time>2022-05-15T06:58:46.000Z</time></trkpt><trkpt lon="5.584729" lat="51.019247"><ele>74.4</ele><time>2022-05-15T06:58:47.000Z</time></trkpt><trkpt lon="5.584653" lat="51.019197"><ele>74.4</ele><time>2022-05-15T06:58:48.000Z</time></trkpt><trkpt lon="5.584576" lat="51.019144"><ele>74.4</ele><time>2022-05-15T06:58:49.000Z</time></trkpt><trkpt lon="5.584506" lat="51.019097"><ele>74.4</ele><time>2022-05-15T06:58:50.000Z</time></trkpt><trkpt lon="5.58443" lat="51.019048"><ele>74.4</ele><time>2022-05-15T06:58:51.000Z</time></trkpt><trkpt lon="5.584363" lat="51.019002"><ele>74.4</ele><time>2022-05-15T06:58:52.000Z</time></trkpt><trkpt lon="5.584297" lat="51.01896"><ele>74.4</ele><time>2022-05-15T06:58:53.000Z</time></trkpt><trkpt lon="5.58422" lat="51.018925"><ele>74.4</ele><time>2022-05-15T06:58:54.000Z</time></trkpt><trkpt lon="5.58415" lat="51.018906"><ele>74.4</ele><time>2022-05-15T06:58:55.000Z</time></trkpt><trkpt lon="5.584048" lat="51.018895"><ele>74.4</ele><time>2022-05-15T06:58:56.000Z</time></trkpt><trkpt lon="5.58395" lat="51.018905"><ele>74.4</ele><time>2022-05-15T06:58:57.000Z</time></trkpt><trkpt lon="5.58385" lat="51.018931"><ele>74.4</ele><time>2022-05-15T06:58:58.000Z</time></trkpt><trkpt lon="5.583745" lat="51.018962"><ele>74.4</ele><time>2022-05-15T06:58:59.000Z</time></trkpt><trkpt lon="5.583641" lat="51.018993"><ele>74.4</ele><time>2022-05-15T06:59:00.000Z</time></trkpt><trkpt lon="5.583539" lat="51.019019"><ele>74.4</ele><time>2022-05-15T06:59:01.000Z</time></trkpt><trkpt lon="5.583434" lat="51.01905"><ele>74.4</ele><time>2022-05-15T06:59:02.000Z</time></trkpt><trkpt lon="5.583334" lat="51.019077"><ele>74.6</ele><time>2022-05-15T06:59:03.000Z</time></trkpt><trkpt lon="5.583237" lat="51.019099"><ele>74.6</ele><time>2022-05-15T06:59:04.000Z</time></trkpt><trkpt lon="5.583139" lat="51.019129"><ele>74.8</ele><time>2022-05-15T06:59:05.000Z</time></trkpt><trkpt lon="5.583041" lat="51.019157"><ele>74.8</ele><time>2022-05-15T06:59:06.000Z</time></trkpt><trkpt lon="5.582967" lat="51.019178"><ele>75</ele><time>2022-05-15T06:59:07.000Z</time></trkpt><trkpt lon="5.582855" lat="51.019206"><ele>75</ele><time>2022-05-15T06:59:08.000Z</time></trkpt><trkpt lon="5.582766" lat="51.019229"><ele>75</ele><time>2022-05-15T06:59:09.000Z</time></trkpt><trkpt lon="5.582679" lat="51.019249"><ele>75.2</ele><time>2022-05-15T06:59:10.000Z</time></trkpt><trkpt lon="5.582586" lat="51.019271"><ele>75.2</ele><time>2022-05-15T06:59:11.000Z</time></trkpt><trkpt lon="5.582489" lat="51.019297"><ele>75.4</ele><time>2022-05-15T06:59:12.000Z</time></trkpt><trkpt lon="5.582392" lat="51.019321"><ele>75.4</ele><time>2022-05-15T06:59:13.000Z</time></trkpt><trkpt lon="5.582292" lat="51.019347"><ele>75.4</ele><time>2022-05-15T06:59:14.000Z</time></trkpt><trkpt lon="5.582191" lat="51.019374"><ele>75.4</ele><time>2022-05-15T06:59:15.000Z</time></trkpt><trkpt lon="5.582095" lat="51.0194"><ele>75.6</ele><time>2022-05-15T06:59:16.000Z</time></trkpt><trkpt lon="5.581997" lat="51.019427"><ele>75.6</ele><time>2022-05-15T06:59:17.000Z</time></trkpt><trkpt lon="5.5819" lat="51.019454"><ele>75.8</ele><time>2022-05-15T06:59:18.000Z</time></trkpt><trkpt lon="5.581804" lat="51.019477"><ele>76</ele><time>2022-05-15T06:59:19.000Z</time></trkpt><trkpt lon="5.581714" lat="51.019503"><ele>76</ele><time>2022-05-15T06:59:20.000Z</time></trkpt><trkpt lon="5.581639" lat="51.019523"><ele>76.4</ele><time>2022-05-15T06:59:21.000Z</time></trkpt><trkpt lon="5.581546" lat="51.019545"><ele>76.6</ele><time>2022-05-15T06:59:22.000Z</time></trkpt><trkpt lon="5.58147" lat="51.019565"><ele>76.8</ele><time>2022-05-15T06:59:23.000Z</time></trkpt><trkpt lon="5.581399" lat="51.019584"><ele>77</ele><time>2022-05-15T06:59:24.000Z</time></trkpt><trkpt lon="5.581334" lat="51.019599"><ele>77.4</ele><time>2022-05-15T06:59:25.000Z</time></trkpt><trkpt lon="5.581278" lat="51.019618"><ele>77.6</ele><time>2022-05-15T06:59:26.000Z</time></trkpt><trkpt lon="5.581232" lat="51.019633"><ele>77.8</ele><time>2022-05-15T06:59:27.000Z</time></trkpt><trkpt lon="5.581195" lat="51.019645"><ele>78.2</ele><time>2022-05-15T06:59:28.000Z</time></trkpt><trkpt lon="5.581164" lat="51.019653"><ele>78.4</ele><time>2022-05-15T06:59:29.000Z</time></trkpt><trkpt lon="5.581138" lat="51.019661"><ele>78.6</ele><time>2022-05-15T06:59:30.000Z</time></trkpt><trkpt lon="5.581117" lat="51.019665"><ele>78.8</ele><time>2022-05-15T06:59:31.000Z</time></trkpt><trkpt lon="5.581038" lat="51.019669"><ele>79.2</ele><time>2022-05-15T06:59:37.000Z</time></trkpt><trkpt lon="5.580994" lat="51.019662"><ele>79.2</ele><time>2022-05-15T06:59:38.000Z</time></trkpt><trkpt lon="5.580954" lat="51.019653"><ele>79.2</ele><time>2022-05-15T06:59:39.000Z</time></trkpt><trkpt lon="5.580913" lat="51.019646"><ele>79.2</ele><time>2022-05-15T06:59:40.000Z</time></trkpt><trkpt lon="5.580869" lat="51.019638"><ele>79.2</ele><time>2022-05-15T06:59:41.000Z</time></trkpt><trkpt lon="5.580828" lat="51.019616"><ele>79</ele><time>2022-05-15T06:59:42.000Z</time></trkpt><trkpt lon="5.580802" lat="51.019589"><ele>79</ele><time>2022-05-15T06:59:43.000Z</time></trkpt><trkpt lon="5.580792" lat="51.019548"><ele>78.8</ele><time>2022-05-15T06:59:44.000Z</time></trkpt><trkpt lon="5.580785" lat="51.019491"><ele>78.8</ele><time>2022-05-15T06:59:45.000Z</time></trkpt><trkpt lon="5.580782" lat="51.01943"><ele>78.8</ele><time>2022-05-15T06:59:46.000Z</time></trkpt><trkpt lon="5.580788" lat="51.019366"><ele>78.6</ele><time>2022-05-15T06:59:47.000Z</time></trkpt><trkpt lon="5.580795" lat="51.019309"><ele>78.6</ele><time>2022-05-15T06:59:48.000Z</time></trkpt><trkpt lon="5.580803" lat="51.019236"><ele>78.4</ele><time>2022-05-15T06:59:49.000Z</time></trkpt><trkpt lon="5.580805" lat="51.01917"><ele>78.2</ele><time>2022-05-15T06:59:50.000Z</time></trkpt><trkpt lon="5.5808" lat="51.019095"><ele>78.2</ele><time>2022-05-15T06:59:51.000Z</time></trkpt><trkpt lon="5.580792" lat="51.019024"><ele>78</ele><time>2022-05-15T06:59:52.000Z</time></trkpt><trkpt lon="5.58078" lat="51.018954"><ele>78</ele><time>2022-05-15T06:59:53.000Z</time></trkpt><trkpt lon="5.58077" lat="51.018881"><ele>78</ele><time>2022-05-15T06:59:54.000Z</time></trkpt><trkpt lon="5.580764" lat="51.018809"><ele>77.8</ele><time>2022-05-15T06:59:55.000Z</time></trkpt><trkpt lon="5.580754" lat="51.018744"><ele>77.6</ele><time>2022-05-15T06:59:56.000Z</time></trkpt><trkpt lon="5.580747" lat="51.018672"><ele>77.4</ele><time>2022-05-15T06:59:57.000Z</time></trkpt><trkpt lon="5.58074" lat="51.0186"><ele>77.4</ele><time>2022-05-15T06:59:58.000Z</time></trkpt><trkpt lon="5.580735" lat="51.018528"><ele>77.2</ele><time>2022-05-15T06:59:59.000Z</time></trkpt><trkpt lon="5.58073" lat="51.018454"><ele>77</ele><time>2022-05-15T07:00:00.000Z</time></trkpt><trkpt lon="5.580725" lat="51.018378"><ele>77</ele><time>2022-05-15T07:00:01.000Z</time></trkpt><trkpt lon="5.58072" lat="51.018306"><ele>76.8</ele><time>2022-05-15T07:00:02.000Z</time></trkpt><trkpt lon="5.580714" lat="51.01823"><ele>76.6</ele><time>2022-05-15T07:00:03.000Z</time></trkpt><trkpt lon="5.580709" lat="51.01815"><ele>76.6</ele><time>2022-05-15T07:00:04.000Z</time></trkpt><trkpt lon="5.580703" lat="51.018073"><ele>76.4</ele><time>2022-05-15T07:00:05.000Z</time></trkpt><trkpt lon="5.580697" lat="51.017998"><ele>76.4</ele><time>2022-05-15T07:00:06.000Z</time></trkpt><trkpt lon="5.580689" lat="51.01792"><ele>76.2</ele><time>2022-05-15T07:00:07.000Z</time></trkpt><trkpt lon="5.58068" lat="51.017849"><ele>76.2</ele><time>2022-05-15T07:00:08.000Z</time></trkpt><trkpt lon="5.580673" lat="51.017772"><ele>76.2</ele><time>2022-05-15T07:00:09.000Z</time></trkpt><trkpt lon="5.580664" lat="51.017704"><ele>76</ele><time>2022-05-15T07:00:10.000Z</time></trkpt><trkpt lon="5.580656" lat="51.017636"><ele>76</ele><time>2022-05-15T07:00:11.000Z</time></trkpt><trkpt lon="5.58064" lat="51.017569"><ele>76</ele><time>2022-05-15T07:00:12.000Z</time></trkpt><trkpt lon="5.58062" lat="51.017511"><ele>75.8</ele><time>2022-05-15T07:00:13.000Z</time></trkpt><trkpt lon="5.5806" lat="51.017447"><ele>75.8</ele><time>2022-05-15T07:00:14.000Z</time></trkpt><trkpt lon="5.580586" lat="51.017381"><ele>75.6</ele><time>2022-05-15T07:00:15.000Z</time></trkpt><trkpt lon="5.580576" lat="51.017313"><ele>75.4</ele><time>2022-05-15T07:00:16.000Z</time></trkpt><trkpt lon="5.580565" lat="51.017233"><ele>75.4</ele><time>2022-05-15T07:00:17.000Z</time></trkpt><trkpt lon="5.580557" lat="51.017161"><ele>75.4</ele><time>2022-05-15T07:00:18.000Z</time></trkpt><trkpt lon="5.580549" lat="51.017086"><ele>75.4</ele><time>2022-05-15T07:00:19.000Z</time></trkpt><trkpt lon="5.580542" lat="51.017013"><ele>75.2</ele><time>2022-05-15T07:00:20.000Z</time></trkpt><trkpt lon="5.580529" lat="51.016939"><ele>75.2</ele><time>2022-05-15T07:00:21.000Z</time></trkpt><trkpt lon="5.580519" lat="51.016867"><ele>75.2</ele><time>2022-05-15T07:00:22.000Z</time></trkpt><trkpt lon="5.580512" lat="51.016802"><ele>75</ele><time>2022-05-15T07:00:23.000Z</time></trkpt><trkpt lon="5.580505" lat="51.016727"><ele>75</ele><time>2022-05-15T07:00:24.000Z</time></trkpt><trkpt lon="5.580497" lat="51.016658"><ele>75</ele><time>2022-05-15T07:00:25.000Z</time></trkpt><trkpt lon="5.580489" lat="51.016587"><ele>75</ele><time>2022-05-15T07:00:26.000Z</time></trkpt><trkpt lon="5.580482" lat="51.016517"><ele>74.8</ele><time>2022-05-15T07:00:27.000Z</time></trkpt><trkpt lon="5.580472" lat="51.016449"><ele>74.8</ele><time>2022-05-15T07:00:28.000Z</time></trkpt><trkpt lon="5.580467" lat="51.016379"><ele>74.8</ele><time>2022-05-15T07:00:29.000Z</time></trkpt><trkpt lon="5.580464" lat="51.016313"><ele>74.8</ele><time>2022-05-15T07:00:30.000Z</time></trkpt><trkpt lon="5.580455" lat="51.016242"><ele>74.6</ele><time>2022-05-15T07:00:31.000Z</time></trkpt><trkpt lon="5.580447" lat="51.01618"><ele>74.6</ele><time>2022-05-15T07:00:32.000Z</time></trkpt><trkpt lon="5.580442" lat="51.016123"><ele>74.6</ele><time>2022-05-15T07:00:33.000Z</time></trkpt><trkpt lon="5.580438" lat="51.01607"><ele>74.6</ele><time>2022-05-15T07:00:34.000Z</time></trkpt><trkpt lon="5.580434" lat="51.016017"><ele>74.6</ele><time>2022-05-15T07:00:35.000Z</time></trkpt><trkpt lon="5.580428" lat="51.01597"><ele>74.4</ele><time>2022-05-15T07:00:36.000Z</time></trkpt><trkpt lon="5.580417" lat="51.015937"><ele>74.4</ele><time>2022-05-15T07:00:37.000Z</time></trkpt><trkpt lon="5.580382" lat="51.015893"><ele>74.4</ele><time>2022-05-15T07:00:38.000Z</time></trkpt><trkpt lon="5.580331" lat="51.01584"><ele>74.2</ele><time>2022-05-15T07:00:39.000Z</time></trkpt><trkpt lon="5.580272" lat="51.015798"><ele>74.2</ele><time>2022-05-15T07:00:40.000Z</time></trkpt><trkpt lon="5.580211" lat="51.015748"><ele>74.2</ele><time>2022-05-15T07:00:41.000Z</time></trkpt><trkpt lon="5.58015" lat="51.015698"><ele>74.2</ele><time>2022-05-15T07:00:42.000Z</time></trkpt><trkpt lon="5.58008" lat="51.015635"><ele>74.2</ele><time>2022-05-15T07:00:43.000Z</time></trkpt><trkpt lon="5.58002" lat="51.015571"><ele>74.2</ele><time>2022-05-15T07:00:44.000Z</time></trkpt><trkpt lon="5.57996" lat="51.015505"><ele>74.2</ele><time>2022-05-15T07:00:45.000Z</time></trkpt><trkpt lon="5.5799" lat="51.01544"><ele>74.4</ele><time>2022-05-15T07:00:46.000Z</time></trkpt><trkpt lon="5.579836" lat="51.015376"><ele>74.4</ele><time>2022-05-15T07:00:47.000Z</time></trkpt><trkpt lon="5.579775" lat="51.015313"><ele>74.4</ele><time>2022-05-15T07:00:48.000Z</time></trkpt><trkpt lon="5.579705" lat="51.01525"><ele>74.4</ele><time>2022-05-15T07:00:49.000Z</time></trkpt><trkpt lon="5.579637" lat="51.01519"><ele>74.4</ele><time>2022-05-15T07:00:50.000Z</time></trkpt><trkpt lon="5.579562" lat="51.015127"><ele>74.4</ele><time>2022-05-15T07:00:51.000Z</time></trkpt><trkpt lon="5.579488" lat="51.015074"><ele>74.4</ele><time>2022-05-15T07:00:52.000Z</time></trkpt><trkpt lon="5.579408" lat="51.015024"><ele>74.4</ele><time>2022-05-15T07:00:53.000Z</time></trkpt><trkpt lon="5.57933" lat="51.014971"><ele>74.6</ele><time>2022-05-15T07:00:54.000Z</time></trkpt><trkpt lon="5.579249" lat="51.014917"><ele>74.6</ele><time>2022-05-15T07:00:55.000Z</time></trkpt><trkpt lon="5.57917" lat="51.014872"><ele>74.8</ele><time>2022-05-15T07:00:56.000Z</time></trkpt><trkpt lon="5.579095" lat="51.014824"><ele>75</ele><time>2022-05-15T07:00:57.000Z</time></trkpt><trkpt lon="5.579019" lat="51.014781"><ele>75</ele><time>2022-05-15T07:00:58.000Z</time></trkpt><trkpt lon="5.578942" lat="51.014742"><ele>75</ele><time>2022-05-15T07:00:59.000Z</time></trkpt><trkpt lon="5.578866" lat="51.014696"><ele>75.2</ele><time>2022-05-15T07:01:00.000Z</time></trkpt><trkpt lon="5.578791" lat="51.01465"><ele>75.2</ele><time>2022-05-15T07:01:01.000Z</time></trkpt><trkpt lon="5.578716" lat="51.014604"><ele>75.4</ele><time>2022-05-15T07:01:02.000Z</time></trkpt><trkpt lon="5.578644" lat="51.014562"><ele>75.4</ele><time>2022-05-15T07:01:03.000Z</time></trkpt><trkpt lon="5.578572" lat="51.01452"><ele>75.6</ele><time>2022-05-15T07:01:04.000Z</time></trkpt><trkpt lon="5.578503" lat="51.014478"><ele>75.6</ele><time>2022-05-15T07:01:05.000Z</time></trkpt><trkpt lon="5.578432" lat="51.014437"><ele>75.6</ele><time>2022-05-15T07:01:06.000Z</time></trkpt><trkpt lon="5.578357" lat="51.014398"><ele>75.6</ele><time>2022-05-15T07:01:07.000Z</time></trkpt><trkpt lon="5.578284" lat="51.014352"><ele>75.6</ele><time>2022-05-15T07:01:08.000Z</time></trkpt><trkpt lon="5.57821" lat="51.01431"><ele>75.6</ele><time>2022-05-15T07:01:09.000Z</time></trkpt><trkpt lon="5.578136" lat="51.014269"><ele>75.6</ele><time>2022-05-15T07:01:10.000Z</time></trkpt><trkpt lon="5.578062" lat="51.014227"><ele>75.6</ele><time>2022-05-15T07:01:11.000Z</time></trkpt><trkpt lon="5.577992" lat="51.014186"><ele>75.6</ele><time>2022-05-15T07:01:12.000Z</time></trkpt><trkpt lon="5.577902" lat="51.014139"><ele>75.6</ele><time>2022-05-15T07:01:13.000Z</time></trkpt><trkpt lon="5.577811" lat="51.014104"><ele>75.6</ele><time>2022-05-15T07:01:14.000Z</time></trkpt><trkpt lon="5.57773" lat="51.014066"><ele>75.8</ele><time>2022-05-15T07:01:15.000Z</time></trkpt><trkpt lon="5.577654" lat="51.014028"><ele>75.8</ele><time>2022-05-15T07:01:16.000Z</time></trkpt><trkpt lon="5.577586" lat="51.013994"><ele>75.8</ele><time>2022-05-15T07:01:17.000Z</time></trkpt><trkpt lon="5.577514" lat="51.013963"><ele>75.8</ele><time>2022-05-15T07:01:18.000Z</time></trkpt><trkpt lon="5.577439" lat="51.01394"><ele>75.8</ele><time>2022-05-15T07:01:19.000Z</time></trkpt><trkpt lon="5.577362" lat="51.013909"><ele>75.8</ele><time>2022-05-15T07:01:20.000Z</time></trkpt><trkpt lon="5.577286" lat="51.013872"><ele>75.8</ele><time>2022-05-15T07:01:21.000Z</time></trkpt><trkpt lon="5.577209" lat="51.013837"><ele>76</ele><time>2022-05-15T07:01:22.000Z</time></trkpt><trkpt lon="5.577125" lat="51.013803"><ele>76</ele><time>2022-05-15T07:01:23.000Z</time></trkpt><trkpt lon="5.577031" lat="51.013772"><ele>76</ele><time>2022-05-15T07:01:24.000Z</time></trkpt><trkpt lon="5.576933" lat="51.013739"><ele>76</ele><time>2022-05-15T07:01:25.000Z</time></trkpt><trkpt lon="5.576825" lat="51.013711"><ele>76</ele><time>2022-05-15T07:01:26.000Z</time></trkpt><trkpt lon="5.576721" lat="51.01368"><ele>76</ele><time>2022-05-15T07:01:27.000Z</time></trkpt><trkpt lon="5.576619" lat="51.01365"><ele>76</ele><time>2022-05-15T07:01:28.000Z</time></trkpt><trkpt lon="5.576515" lat="51.013619"><ele>76.2</ele><time>2022-05-15T07:01:29.000Z</time></trkpt><trkpt lon="5.576415" lat="51.013593"><ele>76.2</ele><time>2022-05-15T07:01:30.000Z</time></trkpt><trkpt lon="5.576314" lat="51.013562"><ele>76.2</ele><time>2022-05-15T07:01:31.000Z</time></trkpt><trkpt lon="5.576212" lat="51.013536"><ele>76.4</ele><time>2022-05-15T07:01:32.000Z</time></trkpt><trkpt lon="5.576108" lat="51.013505"><ele>76.4</ele><time>2022-05-15T07:01:33.000Z</time></trkpt><trkpt lon="5.57601" lat="51.013474"><ele>76.4</ele><time>2022-05-15T07:01:34.000Z</time></trkpt><trkpt lon="5.575912" lat="51.013448"><ele>76.6</ele><time>2022-05-15T07:01:35.000Z</time></trkpt><trkpt lon="5.575811" lat="51.013418"><ele>76.6</ele><time>2022-05-15T07:01:36.000Z</time></trkpt><trkpt lon="5.575712" lat="51.013391"><ele>76.6</ele><time>2022-05-15T07:01:37.000Z</time></trkpt><trkpt lon="5.575611" lat="51.01336"><ele>76.6</ele><time>2022-05-15T07:01:38.000Z</time></trkpt><trkpt lon="5.575514" lat="51.01333"><ele>76.8</ele><time>2022-05-15T07:01:39.000Z</time></trkpt><trkpt lon="5.575422" lat="51.013306"><ele>76.8</ele><time>2022-05-15T07:01:40.000Z</time></trkpt><trkpt lon="5.575316" lat="51.013274"><ele>76.8</ele><time>2022-05-15T07:01:41.000Z</time></trkpt><trkpt lon="5.575216" lat="51.013244"><ele>76.8</ele><time>2022-05-15T07:01:42.000Z</time></trkpt><trkpt lon="5.575109" lat="51.013213"><ele>76.8</ele><time>2022-05-15T07:01:43.000Z</time></trkpt><trkpt lon="5.575003" lat="51.013181"><ele>76.8</ele><time>2022-05-15T07:01:44.000Z</time></trkpt><trkpt lon="5.574904" lat="51.013154"><ele>77</ele><time>2022-05-15T07:01:45.000Z</time></trkpt><trkpt lon="5.574805" lat="51.013128"><ele>77</ele><time>2022-05-15T07:01:46.000Z</time></trkpt><trkpt lon="5.574705" lat="51.013097"><ele>77</ele><time>2022-05-15T07:01:47.000Z</time></trkpt><trkpt lon="5.574607" lat="51.01307"><ele>77</ele><time>2022-05-15T07:01:48.000Z</time></trkpt><trkpt lon="5.574511" lat="51.013044"><ele>77.2</ele><time>2022-05-15T07:01:49.000Z</time></trkpt><trkpt lon="5.574414" lat="51.013013"><ele>77.2</ele><time>2022-05-15T07:01:50.000Z</time></trkpt><trkpt lon="5.574319" lat="51.012987"><ele>77.2</ele><time>2022-05-15T07:01:51.000Z</time></trkpt><trkpt lon="5.574217" lat="51.012959"><ele>77.4</ele><time>2022-05-15T07:01:52.000Z</time></trkpt><trkpt lon="5.574118" lat="51.012933"><ele>77.4</ele><time>2022-05-15T07:01:53.000Z</time></trkpt><trkpt lon="5.574024" lat="51.012906"><ele>77.4</ele><time>2022-05-15T07:01:54.000Z</time></trkpt><trkpt lon="5.573928" lat="51.012879"><ele>77.6</ele><time>2022-05-15T07:01:55.000Z</time></trkpt><trkpt lon="5.573828" lat="51.012849"><ele>77.6</ele><time>2022-05-15T07:01:56.000Z</time></trkpt><trkpt lon="5.57373" lat="51.012822"><ele>77.6</ele><time>2022-05-15T07:01:57.000Z</time></trkpt><trkpt lon="5.573628" lat="51.012795"><ele>77.8</ele><time>2022-05-15T07:01:58.000Z</time></trkpt><trkpt lon="5.573529" lat="51.012769"><ele>77.8</ele><time>2022-05-15T07:01:59.000Z</time></trkpt><trkpt lon="5.573426" lat="51.012742"><ele>78</ele><time>2022-05-15T07:02:00.000Z</time></trkpt><trkpt lon="5.57332" lat="51.012715"><ele>78</ele><time>2022-05-15T07:02:01.000Z</time></trkpt><trkpt lon="5.573217" lat="51.012692"><ele>78</ele><time>2022-05-15T07:02:02.000Z</time></trkpt><trkpt lon="5.573114" lat="51.012666"><ele>78</ele><time>2022-05-15T07:02:03.000Z</time></trkpt><trkpt lon="5.573007" lat="51.012643"><ele>78.2</ele><time>2022-05-15T07:02:04.000Z</time></trkpt><trkpt lon="5.572906" lat="51.012617"><ele>78.2</ele><time>2022-05-15T07:02:05.000Z</time></trkpt><trkpt lon="5.572805" lat="51.012594"><ele>78.2</ele><time>2022-05-15T07:02:06.000Z</time></trkpt><trkpt lon="5.5727" lat="51.01257"><ele>78.2</ele><time>2022-05-15T07:02:07.000Z</time></trkpt><trkpt lon="5.572603" lat="51.012548"><ele>78.2</ele><time>2022-05-15T07:02:08.000Z</time></trkpt><trkpt lon="5.572505" lat="51.012528"><ele>78.2</ele><time>2022-05-15T07:02:09.000Z</time></trkpt><trkpt lon="5.57241" lat="51.012509"><ele>78.2</ele><time>2022-05-15T07:02:10.000Z</time></trkpt><trkpt lon="5.572317" lat="51.012494"><ele>78.2</ele><time>2022-05-15T07:02:11.000Z</time></trkpt><trkpt lon="5.572224" lat="51.012479"><ele>78.2</ele><time>2022-05-15T07:02:12.000Z</time></trkpt><trkpt lon="5.572131" lat="51.012459"><ele>78.2</ele><time>2022-05-15T07:02:13.000Z</time></trkpt><trkpt lon="5.572044" lat="51.012437"><ele>78.2</ele><time>2022-05-15T07:02:14.000Z</time></trkpt><trkpt lon="5.571964" lat="51.012403"><ele>78.2</ele><time>2022-05-15T07:02:15.000Z</time></trkpt><trkpt lon="5.571899" lat="51.012354"><ele>78.2</ele><time>2022-05-15T07:02:16.000Z</time></trkpt><trkpt lon="5.57186" lat="51.012297"><ele>78.2</ele><time>2022-05-15T07:02:17.000Z</time></trkpt><trkpt lon="5.571842" lat="51.012232"><ele>78.2</ele><time>2022-05-15T07:02:18.000Z</time></trkpt><trkpt lon="5.571835" lat="51.012157"><ele>78.2</ele><time>2022-05-15T07:02:19.000Z</time></trkpt><trkpt lon="5.571829" lat="51.012083"><ele>78.2</ele><time>2022-05-15T07:02:20.000Z</time></trkpt><trkpt lon="5.571819" lat="51.012008"><ele>78.2</ele><time>2022-05-15T07:02:21.000Z</time></trkpt><trkpt lon="5.57181" lat="51.011932"><ele>78</ele><time>2022-05-15T07:02:22.000Z</time></trkpt><trkpt lon="5.571807" lat="51.011855"><ele>78</ele><time>2022-05-15T07:02:23.000Z</time></trkpt><trkpt lon="5.571804" lat="51.011783"><ele>78</ele><time>2022-05-15T07:02:24.000Z</time></trkpt><trkpt lon="5.571805" lat="51.011707"><ele>78</ele><time>2022-05-15T07:02:25.000Z</time></trkpt><trkpt lon="5.571806" lat="51.011632"><ele>78</ele><time>2022-05-15T07:02:26.000Z</time></trkpt><trkpt lon="5.571808" lat="51.01156"><ele>78</ele><time>2022-05-15T07:02:27.000Z</time></trkpt><trkpt lon="5.571808" lat="51.011482"><ele>78</ele><time>2022-05-15T07:02:28.000Z</time></trkpt><trkpt lon="5.571805" lat="51.011412"><ele>78</ele><time>2022-05-15T07:02:29.000Z</time></trkpt><trkpt lon="5.571804" lat="51.01134"><ele>78</ele><time>2022-05-15T07:02:30.000Z</time></trkpt><trkpt lon="5.571804" lat="51.011271"><ele>78</ele><time>2022-05-15T07:02:31.000Z</time></trkpt><trkpt lon="5.571802" lat="51.011203"><ele>78</ele><time>2022-05-15T07:02:32.000Z</time></trkpt><trkpt lon="5.571798" lat="51.01113"><ele>78</ele><time>2022-05-15T07:02:33.000Z</time></trkpt><trkpt lon="5.571797" lat="51.011063"><ele>78</ele><time>2022-05-15T07:02:34.000Z</time></trkpt><trkpt lon="5.571794" lat="51.010992"><ele>78</ele><time>2022-05-15T07:02:35.000Z</time></trkpt><trkpt lon="5.57179" lat="51.010924"><ele>78</ele><time>2022-05-15T07:02:36.000Z</time></trkpt><trkpt lon="5.571788" lat="51.010852"><ele>78</ele><time>2022-05-15T07:02:37.000Z</time></trkpt><trkpt lon="5.571787" lat="51.010782"><ele>78</ele><time>2022-05-15T07:02:38.000Z</time></trkpt><trkpt lon="5.571787" lat="51.010714"><ele>78</ele><time>2022-05-15T07:02:39.000Z</time></trkpt><trkpt lon="5.571784" lat="51.010645"><ele>78</ele><time>2022-05-15T07:02:40.000Z</time></trkpt><trkpt lon="5.57178" lat="51.010576"><ele>78</ele><time>2022-05-15T07:02:41.000Z</time></trkpt><trkpt lon="5.571778" lat="51.010512"><ele>78</ele><time>2022-05-15T07:02:42.000Z</time></trkpt><trkpt lon="5.571778" lat="51.010443"><ele>78</ele><time>2022-05-15T07:02:43.000Z</time></trkpt><trkpt lon="5.571777" lat="51.010379"><ele>78</ele><time>2022-05-15T07:02:44.000Z</time></trkpt><trkpt lon="5.571777" lat="51.01031"><ele>78.2</ele><time>2022-05-15T07:02:45.000Z</time></trkpt><trkpt lon="5.571777" lat="51.010241"><ele>78.2</ele><time>2022-05-15T07:02:46.000Z</time></trkpt><trkpt lon="5.571777" lat="51.010172"><ele>78.2</ele><time>2022-05-15T07:02:47.000Z</time></trkpt><trkpt lon="5.571774" lat="51.010103"><ele>78.2</ele><time>2022-05-15T07:02:48.000Z</time></trkpt><trkpt lon="5.57177" lat="51.01004"><ele>78.2</ele><time>2022-05-15T07:02:49.000Z</time></trkpt><trkpt lon="5.571768" lat="51.009971"><ele>78.2</ele><time>2022-05-15T07:02:50.000Z</time></trkpt><trkpt lon="5.571767" lat="51.009902"><ele>78.2</ele><time>2022-05-15T07:02:51.000Z</time></trkpt><trkpt lon="5.571767" lat="51.009837"><ele>78.2</ele><time>2022-05-15T07:02:52.000Z</time></trkpt><trkpt lon="5.571767" lat="51.009776"><ele>78.2</ele><time>2022-05-15T07:02:53.000Z</time></trkpt><trkpt lon="5.571765" lat="51.009714"><ele>78.2</ele><time>2022-05-15T07:02:54.000Z</time></trkpt><trkpt lon="5.571767" lat="51.009658"><ele>78.2</ele><time>2022-05-15T07:02:55.000Z</time></trkpt><trkpt lon="5.571768" lat="51.0096"><ele>78.2</ele><time>2022-05-15T07:02:56.000Z</time></trkpt><trkpt lon="5.57177" lat="51.009546"><ele>78.2</ele><time>2022-05-15T07:02:57.000Z</time></trkpt><trkpt lon="5.571762" lat="51.009493"><ele>78</ele><time>2022-05-15T07:02:58.000Z</time></trkpt><trkpt lon="5.571736" lat="51.009439"><ele>78</ele><time>2022-05-15T07:02:59.000Z</time></trkpt><trkpt lon="5.57168" lat="51.009397"><ele>78</ele><time>2022-05-15T07:03:00.000Z</time></trkpt><trkpt lon="5.571599" lat="51.009381"><ele>78</ele><time>2022-05-15T07:03:01.000Z</time></trkpt><trkpt lon="5.571511" lat="51.00938"><ele>78</ele><time>2022-05-15T07:03:02.000Z</time></trkpt><trkpt lon="5.571407" lat="51.009384"><ele>78</ele><time>2022-05-15T07:03:03.000Z</time></trkpt><trkpt lon="5.571303" lat="51.009391"><ele>78.2</ele><time>2022-05-15T07:03:04.000Z</time></trkpt><trkpt lon="5.571197" lat="51.009399"><ele>78.2</ele><time>2022-05-15T07:03:05.000Z</time></trkpt><trkpt lon="5.57109" lat="51.009407"><ele>78.2</ele><time>2022-05-15T07:03:06.000Z</time></trkpt><trkpt lon="5.570982" lat="51.009418"><ele>78.2</ele><time>2022-05-15T07:03:07.000Z</time></trkpt><trkpt lon="5.570876" lat="51.009426"><ele>78.4</ele><time>2022-05-15T07:03:08.000Z</time></trkpt><trkpt lon="5.570766" lat="51.009437"><ele>78.4</ele><time>2022-05-15T07:03:09.000Z</time></trkpt><trkpt lon="5.570656" lat="51.009445"><ele>78.2</ele><time>2022-05-15T07:03:10.000Z</time></trkpt><trkpt lon="5.570547" lat="51.009453"><ele>78.2</ele><time>2022-05-15T07:03:11.000Z</time></trkpt><trkpt lon="5.570436" lat="51.00946"><ele>78.4</ele><time>2022-05-15T07:03:12.000Z</time></trkpt><trkpt lon="5.570328" lat="51.009468"><ele>78.4</ele><time>2022-05-15T07:03:13.000Z</time></trkpt><trkpt lon="5.570222" lat="51.009472"><ele>78.4</ele><time>2022-05-15T07:03:14.000Z</time></trkpt><trkpt lon="5.570113" lat="51.009483"><ele>78.4</ele><time>2022-05-15T07:03:15.000Z</time></trkpt><trkpt lon="5.570007" lat="51.009487"><ele>78.4</ele><time>2022-05-15T07:03:16.000Z</time></trkpt><trkpt lon="5.569901" lat="51.009494"><ele>78.4</ele><time>2022-05-15T07:03:17.000Z</time></trkpt><trkpt lon="5.569788" lat="51.009502"><ele>78.4</ele><time>2022-05-15T07:03:18.000Z</time></trkpt><trkpt lon="5.569676" lat="51.00951"><ele>78.4</ele><time>2022-05-15T07:03:19.000Z</time></trkpt><trkpt lon="5.569565" lat="51.009514"><ele>78.4</ele><time>2022-05-15T07:03:20.000Z</time></trkpt><trkpt lon="5.569454" lat="51.009518"><ele>78.6</ele><time>2022-05-15T07:03:21.000Z</time></trkpt><trkpt lon="5.569343" lat="51.009521"><ele>78.6</ele><time>2022-05-15T07:03:22.000Z</time></trkpt><trkpt lon="5.569236" lat="51.009529"><ele>78.6</ele><time>2022-05-15T07:03:23.000Z</time></trkpt><trkpt lon="5.56913" lat="51.009536"><ele>78.8</ele><time>2022-05-15T07:03:24.000Z</time></trkpt><trkpt lon="5.569022" lat="51.00954"><ele>78.8</ele><time>2022-05-15T07:03:25.000Z</time></trkpt><trkpt lon="5.56891" lat="51.009548"><ele>78.8</ele><time>2022-05-15T07:03:26.000Z</time></trkpt><trkpt lon="5.568799" lat="51.009563"><ele>78.8</ele><time>2022-05-15T07:03:27.000Z</time></trkpt><trkpt lon="5.568689" lat="51.009567"><ele>78.8</ele><time>2022-05-15T07:03:28.000Z</time></trkpt><trkpt lon="5.568582" lat="51.009571"><ele>78.8</ele><time>2022-05-15T07:03:29.000Z</time></trkpt><trkpt lon="5.568479" lat="51.009575"><ele>79</ele><time>2022-05-15T07:03:30.000Z</time></trkpt><trkpt lon="5.568373" lat="51.009579"><ele>79</ele><time>2022-05-15T07:03:31.000Z</time></trkpt><trkpt lon="5.56827" lat="51.009586"><ele>79</ele><time>2022-05-15T07:03:32.000Z</time></trkpt><trkpt lon="5.568163" lat="51.009594"><ele>79</ele><time>2022-05-15T07:03:33.000Z</time></trkpt><trkpt lon="5.568053" lat="51.009601"><ele>79</ele><time>2022-05-15T07:03:34.000Z</time></trkpt><trkpt lon="5.567951" lat="51.009613"><ele>79</ele><time>2022-05-15T07:03:35.000Z</time></trkpt><trkpt lon="5.567844" lat="51.00962"><ele>79</ele><time>2022-05-15T07:03:36.000Z</time></trkpt><trkpt lon="5.56774" lat="51.009624"><ele>79</ele><time>2022-05-15T07:03:37.000Z</time></trkpt><trkpt lon="5.56764" lat="51.009628"><ele>79</ele><time>2022-05-15T07:03:38.000Z</time></trkpt><trkpt lon="5.567538" lat="51.009636"><ele>79</ele><time>2022-05-15T07:03:39.000Z</time></trkpt><trkpt lon="5.567436" lat="51.00964"><ele>79</ele><time>2022-05-15T07:03:40.000Z</time></trkpt><trkpt lon="5.567328" lat="51.009643"><ele>79</ele><time>2022-05-15T07:03:41.000Z</time></trkpt><trkpt lon="5.567219" lat="51.009651"><ele>79</ele><time>2022-05-15T07:03:42.000Z</time></trkpt><trkpt lon="5.56711" lat="51.009655"><ele>79</ele><time>2022-05-15T07:03:43.000Z</time></trkpt><trkpt lon="5.566998" lat="51.009655"><ele>79</ele><time>2022-05-15T07:03:44.000Z</time></trkpt><trkpt lon="5.566888" lat="51.009659"><ele>79</ele><time>2022-05-15T07:03:45.000Z</time></trkpt><trkpt lon="5.566767" lat="51.009666"><ele>79</ele><time>2022-05-15T07:03:46.000Z</time></trkpt><trkpt lon="5.566649" lat="51.009674"><ele>79</ele><time>2022-05-15T07:03:47.000Z</time></trkpt><trkpt lon="5.566539" lat="51.009678"><ele>79</ele><time>2022-05-15T07:03:48.000Z</time></trkpt><trkpt lon="5.566427" lat="51.009682"><ele>79</ele><time>2022-05-15T07:03:49.000Z</time></trkpt><trkpt lon="5.566323" lat="51.009685"><ele>79</ele><time>2022-05-15T07:03:50.000Z</time></trkpt><trkpt lon="5.566213" lat="51.009689"><ele>79</ele><time>2022-05-15T07:03:51.000Z</time></trkpt><trkpt lon="5.566105" lat="51.009693"><ele>79</ele><time>2022-05-15T07:03:52.000Z</time></trkpt><trkpt lon="5.56599" lat="51.009701"><ele>79</ele><time>2022-05-15T07:03:53.000Z</time></trkpt><trkpt lon="5.565872" lat="51.009708"><ele>79</ele><time>2022-05-15T07:03:54.000Z</time></trkpt><trkpt lon="5.565758" lat="51.009716"><ele>79</ele><time>2022-05-15T07:03:55.000Z</time></trkpt><trkpt lon="5.56564" lat="51.00972"><ele>78.8</ele><time>2022-05-15T07:03:56.000Z</time></trkpt><trkpt lon="5.565524" lat="51.009727"><ele>78.8</ele><time>2022-05-15T07:03:57.000Z</time></trkpt><trkpt lon="5.565409" lat="51.009735"><ele>78.8</ele><time>2022-05-15T07:03:58.000Z</time></trkpt><trkpt lon="5.565299" lat="51.009739"><ele>78.8</ele><time>2022-05-15T07:03:59.000Z</time></trkpt><trkpt lon="5.565186" lat="51.009746"><ele>78.8</ele><time>2022-05-15T07:04:00.000Z</time></trkpt><trkpt lon="5.56508" lat="51.00975"><ele>78.8</ele><time>2022-05-15T07:04:01.000Z</time></trkpt><trkpt lon="5.56497" lat="51.009754"><ele>78.8</ele><time>2022-05-15T07:04:02.000Z</time></trkpt><trkpt lon="5.564859" lat="51.009758"><ele>78.8</ele><time>2022-05-15T07:04:03.000Z</time></trkpt><trkpt lon="5.564744" lat="51.009762"><ele>78.6</ele><time>2022-05-15T07:04:04.000Z</time></trkpt><trkpt lon="5.56463" lat="51.009765"><ele>78.6</ele><time>2022-05-15T07:04:05.000Z</time></trkpt><trkpt lon="5.56452" lat="51.009769"><ele>78.6</ele><time>2022-05-15T07:04:06.000Z</time></trkpt><trkpt lon="5.564404" lat="51.009773"><ele>78.6</ele><time>2022-05-15T07:04:07.000Z</time></trkpt><trkpt lon="5.564291" lat="51.009773"><ele>78.4</ele><time>2022-05-15T07:04:08.000Z</time></trkpt><trkpt lon="5.564173" lat="51.009773"><ele>78.4</ele><time>2022-05-15T07:04:09.000Z</time></trkpt><trkpt lon="5.564053" lat="51.009773"><ele>78.4</ele><time>2022-05-15T07:04:10.000Z</time></trkpt><trkpt lon="5.563939" lat="51.00977"><ele>78.4</ele><time>2022-05-15T07:04:11.000Z</time></trkpt><trkpt lon="5.563823" lat="51.009762"><ele>78.2</ele><time>2022-05-15T07:04:12.000Z</time></trkpt><trkpt lon="5.563713" lat="51.009762"><ele>78.2</ele><time>2022-05-15T07:04:13.000Z</time></trkpt><trkpt lon="5.563599" lat="51.009747"><ele>78.2</ele><time>2022-05-15T07:04:14.000Z</time></trkpt><trkpt lon="5.56349" lat="51.009739"><ele>78.2</ele><time>2022-05-15T07:04:15.000Z</time></trkpt><trkpt lon="5.563383" lat="51.009724"><ele>78.2</ele><time>2022-05-15T07:04:16.000Z</time></trkpt><trkpt lon="5.563275" lat="51.009709"><ele>78.2</ele><time>2022-05-15T07:04:17.000Z</time></trkpt><trkpt lon="5.563169" lat="51.009694"><ele>78</ele><time>2022-05-15T07:04:18.000Z</time></trkpt><trkpt lon="5.563055" lat="51.009675"><ele>78</ele><time>2022-05-15T07:04:19.000Z</time></trkpt><trkpt lon="5.562946" lat="51.009656"><ele>78</ele><time>2022-05-15T07:04:20.000Z</time></trkpt><trkpt lon="5.562832" lat="51.009637"><ele>77.8</ele><time>2022-05-15T07:04:21.000Z</time></trkpt><trkpt lon="5.562719" lat="51.009614"><ele>77.8</ele><time>2022-05-15T07:04:22.000Z</time></trkpt><trkpt lon="5.562604" lat="51.009591"><ele>77.8</ele><time>2022-05-15T07:04:23.000Z</time></trkpt><trkpt lon="5.56249" lat="51.009572"><ele>77.6</ele><time>2022-05-15T07:04:24.000Z</time></trkpt><trkpt lon="5.562379" lat="51.009553"><ele>77.6</ele><time>2022-05-15T07:04:25.000Z</time></trkpt><trkpt lon="5.562271" lat="51.009534"><ele>77.4</ele><time>2022-05-15T07:04:26.000Z</time></trkpt><trkpt lon="5.562159" lat="51.009511"><ele>77.4</ele><time>2022-05-15T07:04:27.000Z</time></trkpt><trkpt lon="5.562047" lat="51.009492"><ele>77.2</ele><time>2022-05-15T07:04:28.000Z</time></trkpt><trkpt lon="5.561934" lat="51.009473"><ele>77.2</ele><time>2022-05-15T07:04:29.000Z</time></trkpt><trkpt lon="5.561818" lat="51.00945"><ele>77</ele><time>2022-05-15T07:04:30.000Z</time></trkpt><trkpt lon="5.561705" lat="51.009427"><ele>77</ele><time>2022-05-15T07:04:31.000Z</time></trkpt><trkpt lon="5.561586" lat="51.009404"><ele>76.8</ele><time>2022-05-15T07:04:32.000Z</time></trkpt><trkpt lon="5.561468" lat="51.009385"><ele>76.8</ele><time>2022-05-15T07:04:33.000Z</time></trkpt><trkpt lon="5.561347" lat="51.009366"><ele>76.6</ele><time>2022-05-15T07:04:34.000Z</time></trkpt><trkpt lon="5.561232" lat="51.009339"><ele>76.8</ele><time>2022-05-15T07:04:35.000Z</time></trkpt><trkpt lon="5.561119" lat="51.00932"><ele>76.8</ele><time>2022-05-15T07:04:36.000Z</time></trkpt><trkpt lon="5.561008" lat="51.009301"><ele>76.6</ele><time>2022-05-15T07:04:37.000Z</time></trkpt><trkpt lon="5.560897" lat="51.009282"><ele>76.6</ele><time>2022-05-15T07:04:38.000Z</time></trkpt><trkpt lon="5.560781" lat="51.009259"><ele>76.6</ele><time>2022-05-15T07:04:39.000Z</time></trkpt><trkpt lon="5.560673" lat="51.00924"><ele>76.8</ele><time>2022-05-15T07:04:40.000Z</time></trkpt><trkpt lon="5.560565" lat="51.009221"><ele>76.8</ele><time>2022-05-15T07:04:41.000Z</time></trkpt><trkpt lon="5.560457" lat="51.009202"><ele>76.8</ele><time>2022-05-15T07:04:42.000Z</time></trkpt><trkpt lon="5.560351" lat="51.009179"><ele>76.8</ele><time>2022-05-15T07:04:43.000Z</time></trkpt><trkpt lon="5.560245" lat="51.00916"><ele>76.8</ele><time>2022-05-15T07:04:44.000Z</time></trkpt><trkpt lon="5.560137" lat="51.009141"><ele>76.8</ele><time>2022-05-15T07:04:45.000Z</time></trkpt><trkpt lon="5.560025" lat="51.009118"><ele>77</ele><time>2022-05-15T07:04:46.000Z</time></trkpt><trkpt lon="5.559915" lat="51.009099"><ele>77</ele><time>2022-05-15T07:04:47.000Z</time></trkpt><trkpt lon="5.559807" lat="51.009076"><ele>77</ele><time>2022-05-15T07:04:48.000Z</time></trkpt><trkpt lon="5.559697" lat="51.009057"><ele>77</ele><time>2022-05-15T07:04:49.000Z</time></trkpt><trkpt lon="5.559586" lat="51.009034"><ele>77</ele><time>2022-05-15T07:04:50.000Z</time></trkpt><trkpt lon="5.559477" lat="51.009011"><ele>77</ele><time>2022-05-15T07:04:51.000Z</time></trkpt><trkpt lon="5.559368" lat="51.008992"><ele>76.8</ele><time>2022-05-15T07:04:52.000Z</time></trkpt><trkpt lon="5.559263" lat="51.008973"><ele>76.8</ele><time>2022-05-15T07:04:53.000Z</time></trkpt><trkpt lon="5.559161" lat="51.008954"><ele>76.8</ele><time>2022-05-15T07:04:54.000Z</time></trkpt><trkpt lon="5.559057" lat="51.008935"><ele>76.8</ele><time>2022-05-15T07:04:55.000Z</time></trkpt><trkpt lon="5.558956" lat="51.008916"><ele>76.8</ele><time>2022-05-15T07:04:56.000Z</time></trkpt><trkpt lon="5.558853" lat="51.008896"><ele>76.8</ele><time>2022-05-15T07:04:57.000Z</time></trkpt><trkpt lon="5.558753" lat="51.008881"><ele>76.8</ele><time>2022-05-15T07:04:58.000Z</time></trkpt><trkpt lon="5.558651" lat="51.008862"><ele>76.8</ele><time>2022-05-15T07:04:59.000Z</time></trkpt><trkpt lon="5.558551" lat="51.008843"><ele>77</ele><time>2022-05-15T07:05:00.000Z</time></trkpt><trkpt lon="5.558451" lat="51.008824"><ele>77</ele><time>2022-05-15T07:05:01.000Z</time></trkpt><trkpt lon="5.558358" lat="51.008805"><ele>77</ele><time>2022-05-15T07:05:02.000Z</time></trkpt><trkpt lon="5.558264" lat="51.008786"><ele>77</ele><time>2022-05-15T07:05:03.000Z</time></trkpt><trkpt lon="5.558168" lat="51.00877"><ele>77</ele><time>2022-05-15T07:05:04.000Z</time></trkpt><trkpt lon="5.558077" lat="51.008755"><ele>77.2</ele><time>2022-05-15T07:05:05.000Z</time></trkpt><trkpt lon="5.557991" lat="51.00874"><ele>77.2</ele><time>2022-05-15T07:05:06.000Z</time></trkpt><trkpt lon="5.557915" lat="51.008718"><ele>77.2</ele><time>2022-05-15T07:05:07.000Z</time></trkpt><trkpt lon="5.557859" lat="51.008696"><ele>77.2</ele><time>2022-05-15T07:05:08.000Z</time></trkpt><trkpt lon="5.557814" lat="51.008664"><ele>77.2</ele><time>2022-05-15T07:05:09.000Z</time></trkpt><trkpt lon="5.5578" lat="51.008622"><ele>77.2</ele><time>2022-05-15T07:05:10.000Z</time></trkpt><trkpt lon="5.557818" lat="51.008566"><ele>77.2</ele><time>2022-05-15T07:05:11.000Z</time></trkpt><trkpt lon="5.557844" lat="51.008502"><ele>77</ele><time>2022-05-15T07:05:12.000Z</time></trkpt><trkpt lon="5.557874" lat="51.008437"><ele>77</ele><time>2022-05-15T07:05:13.000Z</time></trkpt><trkpt lon="5.557904" lat="51.008372"><ele>77</ele><time>2022-05-15T07:05:14.000Z</time></trkpt><trkpt lon="5.557932" lat="51.008308"><ele>76.8</ele><time>2022-05-15T07:05:15.000Z</time></trkpt><trkpt lon="5.557961" lat="51.008246"><ele>76.8</ele><time>2022-05-15T07:05:16.000Z</time></trkpt><trkpt lon="5.557987" lat="51.008184"><ele>76.8</ele><time>2022-05-15T07:05:17.000Z</time></trkpt><trkpt lon="5.558016" lat="51.008126"><ele>76.6</ele><time>2022-05-15T07:05:18.000Z</time></trkpt><trkpt lon="5.558042" lat="51.008075"><ele>76.6</ele><time>2022-05-15T07:05:19.000Z</time></trkpt><trkpt lon="5.558066" lat="51.008029"><ele>76.6</ele><time>2022-05-15T07:05:20.000Z</time></trkpt><trkpt lon="5.558073" lat="51.007986"><ele>76.6</ele><time>2022-05-15T07:05:21.000Z</time></trkpt><trkpt lon="5.558046" lat="51.007945"><ele>76.6</ele><time>2022-05-15T07:05:22.000Z</time></trkpt><trkpt lon="5.557987" lat="51.007909"><ele>76.4</ele><time>2022-05-15T07:05:23.000Z</time></trkpt><trkpt lon="5.557897" lat="51.007886"><ele>76.4</ele><time>2022-05-15T07:05:24.000Z</time></trkpt><trkpt lon="5.557795" lat="51.007863"><ele>76.4</ele><time>2022-05-15T07:05:25.000Z</time></trkpt><trkpt lon="5.557695" lat="51.007836"><ele>76.6</ele><time>2022-05-15T07:05:26.000Z</time></trkpt><trkpt lon="5.557596" lat="51.007803"><ele>76.6</ele><time>2022-05-15T07:05:27.000Z</time></trkpt><trkpt lon="5.557501" lat="51.007768"><ele>76.6</ele><time>2022-05-15T07:05:28.000Z</time></trkpt><trkpt lon="5.557405" lat="51.007737"><ele>76.6</ele><time>2022-05-15T07:05:29.000Z</time></trkpt><trkpt lon="5.55731" lat="51.007703"><ele>76.6</ele><time>2022-05-15T07:05:30.000Z</time></trkpt><trkpt lon="5.557221" lat="51.007665"><ele>76.4</ele><time>2022-05-15T07:05:31.000Z</time></trkpt><trkpt lon="5.55714" lat="51.007635"><ele>76.4</ele><time>2022-05-15T07:05:32.000Z</time></trkpt><trkpt lon="5.557058" lat="51.0076"><ele>76.4</ele><time>2022-05-15T07:05:33.000Z</time></trkpt><trkpt lon="5.556982" lat="51.007566"><ele>76.2</ele><time>2022-05-15T07:05:34.000Z</time></trkpt><trkpt lon="5.556904" lat="51.007531"><ele>76.2</ele><time>2022-05-15T07:05:35.000Z</time></trkpt><trkpt lon="5.556826" lat="51.007497"><ele>76.2</ele><time>2022-05-15T07:05:36.000Z</time></trkpt><trkpt lon="5.556747" lat="51.007463"><ele>76.2</ele><time>2022-05-15T07:05:37.000Z</time></trkpt><trkpt lon="5.556671" lat="51.007425"><ele>76.2</ele><time>2022-05-15T07:05:38.000Z</time></trkpt><trkpt lon="5.556595" lat="51.007386"><ele>76.2</ele><time>2022-05-15T07:05:39.000Z</time></trkpt><trkpt lon="5.556519" lat="51.007345"><ele>76.2</ele><time>2022-05-15T07:05:40.000Z</time></trkpt><trkpt lon="5.556434" lat="51.007303"><ele>76.2</ele><time>2022-05-15T07:05:41.000Z</time></trkpt><trkpt lon="5.556347" lat="51.007261"><ele>76.2</ele><time>2022-05-15T07:05:42.000Z</time></trkpt><trkpt lon="5.556258" lat="51.007223"><ele>76.2</ele><time>2022-05-15T07:05:43.000Z</time></trkpt><trkpt lon="5.556178" lat="51.007184"><ele>76.2</ele><time>2022-05-15T07:05:44.000Z</time></trkpt><trkpt lon="5.556093" lat="51.007142"><ele>76.2</ele><time>2022-05-15T07:05:45.000Z</time></trkpt><trkpt lon="5.556005" lat="51.007101"><ele>76.2</ele><time>2022-05-15T07:05:46.000Z</time></trkpt><trkpt lon="5.555913" lat="51.007055"><ele>76.2</ele><time>2022-05-15T07:05:47.000Z</time></trkpt><trkpt lon="5.555823" lat="51.007011"><ele>76.2</ele><time>2022-05-15T07:05:48.000Z</time></trkpt><trkpt lon="5.555732" lat="51.006968"><ele>76.2</ele><time>2022-05-15T07:05:49.000Z</time></trkpt><trkpt lon="5.555638" lat="51.006926"><ele>76.2</ele><time>2022-05-15T07:05:50.000Z</time></trkpt><trkpt lon="5.555544" lat="51.006883"><ele>76.2</ele><time>2022-05-15T07:05:51.000Z</time></trkpt><trkpt lon="5.555456" lat="51.006846"><ele>76.2</ele><time>2022-05-15T07:05:52.000Z</time></trkpt><trkpt lon="5.555362" lat="51.006803"><ele>76.4</ele><time>2022-05-15T07:05:53.000Z</time></trkpt><trkpt lon="5.55527" lat="51.006765"><ele>76.4</ele><time>2022-05-15T07:05:54.000Z</time></trkpt><trkpt lon="5.555176" lat="51.006723"><ele>76.4</ele><time>2022-05-15T07:05:55.000Z</time></trkpt><trkpt lon="5.555086" lat="51.006685"><ele>76.4</ele><time>2022-05-15T07:05:56.000Z</time></trkpt><trkpt lon="5.554995" lat="51.006643"><ele>76.4</ele><time>2022-05-15T07:05:57.000Z</time></trkpt><trkpt lon="5.554901" lat="51.006601"><ele>76.4</ele><time>2022-05-15T07:05:58.000Z</time></trkpt><trkpt lon="5.55481" lat="51.006563"><ele>76.4</ele><time>2022-05-15T07:05:59.000Z</time></trkpt><trkpt lon="5.554713" lat="51.006525"><ele>76.4</ele><time>2022-05-15T07:06:00.000Z</time></trkpt><trkpt lon="5.554616" lat="51.006487"><ele>76.4</ele><time>2022-05-15T07:06:01.000Z</time></trkpt><trkpt lon="5.554521" lat="51.006449"><ele>76.6</ele><time>2022-05-15T07:06:02.000Z</time></trkpt><trkpt lon="5.554429" lat="51.006407"><ele>76.6</ele><time>2022-05-15T07:06:03.000Z</time></trkpt><trkpt lon="5.554341" lat="51.006372"><ele>76.6</ele><time>2022-05-15T07:06:04.000Z</time></trkpt><trkpt lon="5.554256" lat="51.006334"><ele>76.6</ele><time>2022-05-15T07:06:05.000Z</time></trkpt><trkpt lon="5.554175" lat="51.006289"><ele>76.6</ele><time>2022-05-15T07:06:06.000Z</time></trkpt><trkpt lon="5.554094" lat="51.006243"><ele>76.6</ele><time>2022-05-15T07:06:07.000Z</time></trkpt><trkpt lon="5.554018" lat="51.006197"><ele>76.8</ele><time>2022-05-15T07:06:08.000Z</time></trkpt><trkpt lon="5.553939" lat="51.006151"><ele>76.8</ele><time>2022-05-15T07:06:09.000Z</time></trkpt><trkpt lon="5.553867" lat="51.006105"><ele>76.8</ele><time>2022-05-15T07:06:10.000Z</time></trkpt><trkpt lon="5.553804" lat="51.006055"><ele>76.8</ele><time>2022-05-15T07:06:11.000Z</time></trkpt><trkpt lon="5.553744" lat="51.006006"><ele>76.8</ele><time>2022-05-15T07:06:12.000Z</time></trkpt><trkpt lon="5.553685" lat="51.005949"><ele>76.8</ele><time>2022-05-15T07:06:13.000Z</time></trkpt><trkpt lon="5.553631" lat="51.005893"><ele>76.8</ele><time>2022-05-15T07:06:14.000Z</time></trkpt><trkpt lon="5.55358" lat="51.005831"><ele>76.8</ele><time>2022-05-15T07:06:15.000Z</time></trkpt><trkpt lon="5.553528" lat="51.005775"><ele>77</ele><time>2022-05-15T07:06:16.000Z</time></trkpt><trkpt lon="5.553478" lat="51.005714"><ele>77</ele><time>2022-05-15T07:06:17.000Z</time></trkpt><trkpt lon="5.553432" lat="51.005656"><ele>77</ele><time>2022-05-15T07:06:18.000Z</time></trkpt><trkpt lon="5.553391" lat="51.005594"><ele>77</ele><time>2022-05-15T07:06:19.000Z</time></trkpt><trkpt lon="5.553353" lat="51.005537"><ele>77</ele><time>2022-05-15T07:06:20.000Z</time></trkpt><trkpt lon="5.553317" lat="51.005473"><ele>77</ele><time>2022-05-15T07:06:21.000Z</time></trkpt><trkpt lon="5.553277" lat="51.005412"><ele>77</ele><time>2022-05-15T07:06:22.000Z</time></trkpt><trkpt lon="5.553233" lat="51.005347"><ele>77</ele><time>2022-05-15T07:06:23.000Z</time></trkpt><trkpt lon="5.553192" lat="51.005283"><ele>77</ele><time>2022-05-15T07:06:24.000Z</time></trkpt><trkpt lon="5.553155" lat="51.005217"><ele>77</ele><time>2022-05-15T07:06:25.000Z</time></trkpt><trkpt lon="5.553123" lat="51.005152"><ele>77</ele><time>2022-05-15T07:06:26.000Z</time></trkpt><trkpt lon="5.553091" lat="51.005087"><ele>77</ele><time>2022-05-15T07:06:27.000Z</time></trkpt><trkpt lon="5.553062" lat="51.005024"><ele>77</ele><time>2022-05-15T07:06:28.000Z</time></trkpt><trkpt lon="5.553038" lat="51.004957"><ele>76.8</ele><time>2022-05-15T07:06:29.000Z</time></trkpt><trkpt lon="5.553022" lat="51.004897"><ele>76.8</ele><time>2022-05-15T07:06:30.000Z</time></trkpt><trkpt lon="5.553009" lat="51.004831"><ele>76.8</ele><time>2022-05-15T07:06:31.000Z</time></trkpt><trkpt lon="5.553" lat="51.00477"><ele>76.8</ele><time>2022-05-15T07:06:32.000Z</time></trkpt><trkpt lon="5.552992" lat="51.004707"><ele>76.8</ele><time>2022-05-15T07:06:33.000Z</time></trkpt><trkpt lon="5.552982" lat="51.004645"><ele>76.6</ele><time>2022-05-15T07:06:34.000Z</time></trkpt><trkpt lon="5.55297" lat="51.004584"><ele>76.6</ele><time>2022-05-15T07:06:35.000Z</time></trkpt><trkpt lon="5.552962" lat="51.004527"><ele>76.6</ele><time>2022-05-15T07:06:36.000Z</time></trkpt><trkpt lon="5.552949" lat="51.004459"><ele>76.6</ele><time>2022-05-15T07:06:37.000Z</time></trkpt><trkpt lon="5.552927" lat="51.004389"><ele>76.6</ele><time>2022-05-15T07:06:38.000Z</time></trkpt><trkpt lon="5.552897" lat="51.004305"><ele>76.6</ele><time>2022-05-15T07:06:39.000Z</time></trkpt><trkpt lon="5.552869" lat="51.004225"><ele>76.6</ele><time>2022-05-15T07:06:40.000Z</time></trkpt><trkpt lon="5.552845" lat="51.004146"><ele>76.8</ele><time>2022-05-15T07:06:41.000Z</time></trkpt><trkpt lon="5.552826" lat="51.004074"><ele>76.8</ele><time>2022-05-15T07:06:42.000Z</time></trkpt><trkpt lon="5.552808" lat="51.004006"><ele>77</ele><time>2022-05-15T07:06:43.000Z</time></trkpt><trkpt lon="5.552788" lat="51.003932"><ele>77</ele><time>2022-05-15T07:06:44.000Z</time></trkpt><trkpt lon="5.552769" lat="51.003864"><ele>77.2</ele><time>2022-05-15T07:06:45.000Z</time></trkpt><trkpt lon="5.552748" lat="51.003795"><ele>77.4</ele><time>2022-05-15T07:06:46.000Z</time></trkpt><trkpt lon="5.552722" lat="51.00372"><ele>77.6</ele><time>2022-05-15T07:06:47.000Z</time></trkpt><trkpt lon="5.552699" lat="51.003643"><ele>77.6</ele><time>2022-05-15T07:06:48.000Z</time></trkpt><trkpt lon="5.552682" lat="51.00357"><ele>77.8</ele><time>2022-05-15T07:06:49.000Z</time></trkpt><trkpt lon="5.552661" lat="51.003495"><ele>77.8</ele><time>2022-05-15T07:06:50.000Z</time></trkpt><trkpt lon="5.552645" lat="51.003441"><ele>78</ele><time>2022-05-15T07:06:51.000Z</time></trkpt><trkpt lon="5.552623" lat="51.003354"><ele>78</ele><time>2022-05-15T07:06:52.000Z</time></trkpt><trkpt lon="5.55261" lat="51.003283"><ele>78</ele><time>2022-05-15T07:06:53.000Z</time></trkpt><trkpt lon="5.552594" lat="51.003211"><ele>78</ele><time>2022-05-15T07:06:54.000Z</time></trkpt><trkpt lon="5.552573" lat="51.003136"><ele>77.8</ele><time>2022-05-15T07:06:55.000Z</time></trkpt><trkpt lon="5.552558" lat="51.003065"><ele>77.8</ele><time>2022-05-15T07:06:56.000Z</time></trkpt><trkpt lon="5.552542" lat="51.002993"><ele>77.8</ele><time>2022-05-15T07:06:57.000Z</time></trkpt><trkpt lon="5.552524" lat="51.002923"><ele>77.6</ele><time>2022-05-15T07:06:58.000Z</time></trkpt><trkpt lon="5.552507" lat="51.002852"><ele>77.6</ele><time>2022-05-15T07:06:59.000Z</time></trkpt><trkpt lon="5.552488" lat="51.002777"><ele>77.6</ele><time>2022-05-15T07:07:00.000Z</time></trkpt><trkpt lon="5.552471" lat="51.002704"><ele>77.6</ele><time>2022-05-15T07:07:01.000Z</time></trkpt><trkpt lon="5.552462" lat="51.002634"><ele>77.4</ele><time>2022-05-15T07:07:02.000Z</time></trkpt><trkpt lon="5.552468" lat="51.002558"><ele>77.4</ele><time>2022-05-15T07:07:03.000Z</time></trkpt><trkpt lon="5.552486" lat="51.00249"><ele>77.2</ele><time>2022-05-15T07:07:04.000Z</time></trkpt><trkpt lon="5.552511" lat="51.002421"><ele>77</ele><time>2022-05-15T07:07:05.000Z</time></trkpt><trkpt lon="5.552542" lat="51.002364"><ele>76.8</ele><time>2022-05-15T07:07:06.000Z</time></trkpt><trkpt lon="5.552584" lat="51.002311"><ele>76.6</ele><time>2022-05-15T07:07:07.000Z</time></trkpt><trkpt lon="5.552639" lat="51.002266"><ele>76.4</ele><time>2022-05-15T07:07:08.000Z</time></trkpt><trkpt lon="5.552712" lat="51.002223"><ele>76.4</ele><time>2022-05-15T07:07:09.000Z</time></trkpt><trkpt lon="5.552802" lat="51.00218"><ele>76.2</ele><time>2022-05-15T07:07:10.000Z</time></trkpt><trkpt lon="5.552884" lat="51.002146"><ele>76.2</ele><time>2022-05-15T07:07:11.000Z</time></trkpt><trkpt lon="5.552975" lat="51.002114"><ele>76.2</ele><time>2022-05-15T07:07:12.000Z</time></trkpt><trkpt lon="5.553063" lat="51.00209"><ele>76</ele><time>2022-05-15T07:07:13.000Z</time></trkpt><trkpt lon="5.55316" lat="51.002058"><ele>76</ele><time>2022-05-15T07:07:14.000Z</time></trkpt><trkpt lon="5.553255" lat="51.002027"><ele>75.8</ele><time>2022-05-15T07:07:15.000Z</time></trkpt><trkpt lon="5.553351" lat="51.001997"><ele>75.8</ele><time>2022-05-15T07:07:16.000Z</time></trkpt><trkpt lon="5.553442" lat="51.00197"><ele>75.8</ele><time>2022-05-15T07:07:17.000Z</time></trkpt><trkpt lon="5.553529" lat="51.00194"><ele>76</ele><time>2022-05-15T07:07:18.000Z</time></trkpt><trkpt lon="5.553624" lat="51.001909"><ele>76</ele><time>2022-05-15T07:07:19.000Z</time></trkpt><trkpt lon="5.553712" lat="51.001878"><ele>76</ele><time>2022-05-15T07:07:20.000Z</time></trkpt><trkpt lon="5.553794" lat="51.001848"><ele>76</ele><time>2022-05-15T07:07:21.000Z</time></trkpt><trkpt lon="5.553879" lat="51.001822"><ele>75.8</ele><time>2022-05-15T07:07:22.000Z</time></trkpt><trkpt lon="5.553977" lat="51.001794"><ele>75.8</ele><time>2022-05-15T07:07:23.000Z</time></trkpt><trkpt lon="5.554071" lat="51.001769"><ele>75.8</ele><time>2022-05-15T07:07:24.000Z</time></trkpt><trkpt lon="5.554182" lat="51.001737"><ele>75.6</ele><time>2022-05-15T07:07:25.000Z</time></trkpt><trkpt lon="5.554283" lat="51.001707"><ele>75.6</ele><time>2022-05-15T07:07:26.000Z</time></trkpt><trkpt lon="5.554387" lat="51.00168"><ele>75.6</ele><time>2022-05-15T07:07:27.000Z</time></trkpt><trkpt lon="5.554482" lat="51.001654"><ele>75.6</ele><time>2022-05-15T07:07:28.000Z</time></trkpt><trkpt lon="5.554578" lat="51.00163"><ele>75.8</ele><time>2022-05-15T07:07:29.000Z</time></trkpt><trkpt lon="5.554663" lat="51.0016"><ele>75.8</ele><time>2022-05-15T07:07:30.000Z</time></trkpt><trkpt lon="5.554744" lat="51.001577"><ele>76</ele><time>2022-05-15T07:07:31.000Z</time></trkpt><trkpt lon="5.554827" lat="51.001557"><ele>76</ele><time>2022-05-15T07:07:32.000Z</time></trkpt><trkpt lon="5.554898" lat="51.001546"><ele>76</ele><time>2022-05-15T07:07:33.000Z</time></trkpt><trkpt lon="5.554967" lat="51.001541"><ele>76</ele><time>2022-05-15T07:07:34.000Z</time></trkpt><trkpt lon="5.555033" lat="51.001548"><ele>76</ele><time>2022-05-15T07:07:35.000Z</time></trkpt><trkpt lon="5.555096" lat="51.001561"><ele>76</ele><time>2022-05-15T07:07:36.000Z</time></trkpt><trkpt lon="5.555188" lat="51.001581"><ele>75.8</ele><time>2022-05-15T07:07:37.000Z</time></trkpt><trkpt lon="5.55529" lat="51.001605"><ele>75.8</ele><time>2022-05-15T07:07:38.000Z</time></trkpt><trkpt lon="5.555387" lat="51.001632"><ele>76</ele><time>2022-05-15T07:07:39.000Z</time></trkpt><trkpt lon="5.555488" lat="51.001662"><ele>75.8</ele><time>2022-05-15T07:07:40.000Z</time></trkpt><trkpt lon="5.555584" lat="51.001694"><ele>75.8</ele><time>2022-05-15T07:07:41.000Z</time></trkpt><trkpt lon="5.555694" lat="51.001727"><ele>75.8</ele><time>2022-05-15T07:07:42.000Z</time></trkpt><trkpt lon="5.555799" lat="51.001756"><ele>75.8</ele><time>2022-05-15T07:07:43.000Z</time></trkpt><trkpt lon="5.555893" lat="51.001791"><ele>75.8</ele><time>2022-05-15T07:07:44.000Z</time></trkpt><trkpt lon="5.55598" lat="51.001821"><ele>75.6</ele><time>2022-05-15T07:07:45.000Z</time></trkpt><trkpt lon="5.556078" lat="51.001852"><ele>75.6</ele><time>2022-05-15T07:07:46.000Z</time></trkpt><trkpt lon="5.556178" lat="51.001882"><ele>75.6</ele><time>2022-05-15T07:07:47.000Z</time></trkpt><trkpt lon="5.556282" lat="51.001913"><ele>75.8</ele><time>2022-05-15T07:07:48.000Z</time></trkpt><trkpt lon="5.556373" lat="51.001942"><ele>75.8</ele><time>2022-05-15T07:07:49.000Z</time></trkpt><trkpt lon="5.556466" lat="51.001978"><ele>76</ele><time>2022-05-15T07:07:50.000Z</time></trkpt><trkpt lon="5.556554" lat="51.002004"><ele>76</ele><time>2022-05-15T07:07:51.000Z</time></trkpt><trkpt lon="5.55665" lat="51.002036"><ele>76.2</ele><time>2022-05-15T07:07:52.000Z</time></trkpt><trkpt lon="5.556735" lat="51.00206"><ele>76.4</ele><time>2022-05-15T07:07:53.000Z</time></trkpt><trkpt lon="5.556832" lat="51.002096"><ele>76.4</ele><time>2022-05-15T07:07:54.000Z</time></trkpt><trkpt lon="5.556912" lat="51.002123"><ele>76.2</ele><time>2022-05-15T07:07:55.000Z</time></trkpt><trkpt lon="5.556989" lat="51.002156"><ele>76.2</ele><time>2022-05-15T07:07:56.000Z</time></trkpt><trkpt lon="5.557066" lat="51.002183"><ele>76.4</ele><time>2022-05-15T07:07:57.000Z</time></trkpt><trkpt lon="5.557149" lat="51.002193"><ele>76.4</ele><time>2022-05-15T07:07:58.000Z</time></trkpt><trkpt lon="5.55723" lat="51.002176"><ele>76.6</ele><time>2022-05-15T07:07:59.000Z</time></trkpt><trkpt lon="5.557301" lat="51.002143"><ele>76.6</ele><time>2022-05-15T07:08:00.000Z</time></trkpt><trkpt lon="5.557359" lat="51.002103"><ele>76.8</ele><time>2022-05-15T07:08:01.000Z</time></trkpt><trkpt lon="5.557417" lat="51.002048"><ele>76.8</ele><time>2022-05-15T07:08:02.000Z</time></trkpt><trkpt lon="5.557481" lat="51.001975"><ele>77</ele><time>2022-05-15T07:08:03.000Z</time></trkpt><trkpt lon="5.557534" lat="51.001912"><ele>77</ele><time>2022-05-15T07:08:04.000Z</time></trkpt><trkpt lon="5.557583" lat="51.001845"><ele>77</ele><time>2022-05-15T07:08:05.000Z</time></trkpt><trkpt lon="5.557628" lat="51.001782"><ele>77</ele><time>2022-05-15T07:08:06.000Z</time></trkpt><trkpt lon="5.557672" lat="51.001719"><ele>77.2</ele><time>2022-05-15T07:08:07.000Z</time></trkpt><trkpt lon="5.55771" lat="51.001662"><ele>77.6</ele><time>2022-05-15T07:08:08.000Z</time></trkpt><trkpt lon="5.557755" lat="51.001598"><ele>77.8</ele><time>2022-05-15T07:08:09.000Z</time></trkpt><trkpt lon="5.557792" lat="51.001539"><ele>78</ele><time>2022-05-15T07:08:10.000Z</time></trkpt><trkpt lon="5.55783" lat="51.001482"><ele>78.2</ele><time>2022-05-15T07:08:11.000Z</time></trkpt><trkpt lon="5.557867" lat="51.001427"><ele>78.4</ele><time>2022-05-15T07:08:12.000Z</time></trkpt><trkpt lon="5.557908" lat="51.001369"><ele>78.6</ele><time>2022-05-15T07:08:13.000Z</time></trkpt><trkpt lon="5.557947" lat="51.001314"><ele>78.8</ele><time>2022-05-15T07:08:14.000Z</time></trkpt><trkpt lon="5.557987" lat="51.001255"><ele>79.2</ele><time>2022-05-15T07:08:15.000Z</time></trkpt><trkpt lon="5.558029" lat="51.001192"><ele>79.4</ele><time>2022-05-15T07:08:16.000Z</time></trkpt><trkpt lon="5.55807" lat="51.001132"><ele>79.6</ele><time>2022-05-15T07:08:17.000Z</time></trkpt><trkpt lon="5.55811" lat="51.00107"><ele>79.6</ele><time>2022-05-15T07:08:18.000Z</time></trkpt><trkpt lon="5.558149" lat="51.001011"><ele>79.6</ele><time>2022-05-15T07:08:19.000Z</time></trkpt><trkpt lon="5.558188" lat="51.000948"><ele>79.6</ele><time>2022-05-15T07:08:20.000Z</time></trkpt><trkpt lon="5.558231" lat="51.000891"><ele>79.6</ele><time>2022-05-15T07:08:21.000Z</time></trkpt><trkpt lon="5.558269" lat="51.00083"><ele>79.8</ele><time>2022-05-15T07:08:22.000Z</time></trkpt><trkpt lon="5.558305" lat="51.000772"><ele>80</ele><time>2022-05-15T07:08:23.000Z</time></trkpt><trkpt lon="5.558347" lat="51.000711"><ele>80</ele><time>2022-05-15T07:08:24.000Z</time></trkpt><trkpt lon="5.558387" lat="51.000651"><ele>80</ele><time>2022-05-15T07:08:25.000Z</time></trkpt><trkpt lon="5.558427" lat="51.00059"><ele>80</ele><time>2022-05-15T07:08:26.000Z</time></trkpt><trkpt lon="5.558464" lat="51.000531"><ele>80</ele><time>2022-05-15T07:08:27.000Z</time></trkpt><trkpt lon="5.558498" lat="51.000481"><ele>80</ele><time>2022-05-15T07:08:28.000Z</time></trkpt><trkpt lon="5.558547" lat="51.000411"><ele>79.8</ele><time>2022-05-15T07:08:29.000Z</time></trkpt><trkpt lon="5.55859" lat="51.000353"><ele>79.8</ele><time>2022-05-15T07:08:30.000Z</time></trkpt><trkpt lon="5.558633" lat="51.000298"><ele>80</ele><time>2022-05-15T07:08:31.000Z</time></trkpt><trkpt lon="5.558688" lat="51.000242"><ele>80</ele><time>2022-05-15T07:08:32.000Z</time></trkpt><trkpt lon="5.558756" lat="51.000199"><ele>80</ele><time>2022-05-15T07:08:33.000Z</time></trkpt><trkpt lon="5.558834" lat="51.000161"><ele>80</ele><time>2022-05-15T07:08:34.000Z</time></trkpt><trkpt lon="5.558919" lat="51.000131"><ele>80</ele><time>2022-05-15T07:08:35.000Z</time></trkpt><trkpt lon="5.55901" lat="51.0001"><ele>80</ele><time>2022-05-15T07:08:36.000Z</time></trkpt><trkpt lon="5.5591" lat="51.000077"><ele>80</ele><time>2022-05-15T07:08:37.000Z</time></trkpt><trkpt lon="5.559189" lat="51.000047"><ele>79.8</ele><time>2022-05-15T07:08:38.000Z</time></trkpt><trkpt lon="5.559278" lat="51.00002"><ele>80</ele><time>2022-05-15T07:08:39.000Z</time></trkpt><trkpt lon="5.559371" lat="50.999997"><ele>80</ele><time>2022-05-15T07:08:40.000Z</time></trkpt><trkpt lon="5.559461" lat="50.99997"><ele>80</ele><time>2022-05-15T07:08:41.000Z</time></trkpt><trkpt lon="5.559553" lat="50.999943"><ele>80</ele><time>2022-05-15T07:08:42.000Z</time></trkpt><trkpt lon="5.559638" lat="50.999921"><ele>80</ele><time>2022-05-15T07:08:43.000Z</time></trkpt><trkpt lon="5.559729" lat="50.999894"><ele>79.8</ele><time>2022-05-15T07:08:44.000Z</time></trkpt><trkpt lon="5.559821" lat="50.999871"><ele>79.8</ele><time>2022-05-15T07:08:45.000Z</time></trkpt><trkpt lon="5.559912" lat="50.999844"><ele>79.8</ele><time>2022-05-15T07:08:46.000Z</time></trkpt><trkpt lon="5.560005" lat="50.999822"><ele>79.8</ele><time>2022-05-15T07:08:47.000Z</time></trkpt><trkpt lon="5.5601" lat="50.999802"><ele>79.8</ele><time>2022-05-15T07:08:48.000Z</time></trkpt><trkpt lon="5.560195" lat="50.999776"><ele>79.8</ele><time>2022-05-15T07:08:49.000Z</time></trkpt><trkpt lon="5.560293" lat="50.999749"><ele>80</ele><time>2022-05-15T07:08:50.000Z</time></trkpt><trkpt lon="5.560387" lat="50.999727"><ele>80</ele><time>2022-05-15T07:08:51.000Z</time></trkpt><trkpt lon="5.560487" lat="50.999704"><ele>80</ele><time>2022-05-15T07:08:52.000Z</time></trkpt><trkpt lon="5.56059" lat="50.99968"><ele>79.8</ele><time>2022-05-15T07:08:53.000Z</time></trkpt><trkpt lon="5.560689" lat="50.999654"><ele>79.8</ele><time>2022-05-15T07:08:54.000Z</time></trkpt><trkpt lon="5.560781" lat="50.999628"><ele>79.8</ele><time>2022-05-15T07:08:55.000Z</time></trkpt><trkpt lon="5.560882" lat="50.9996"><ele>79.8</ele><time>2022-05-15T07:08:56.000Z</time></trkpt><trkpt lon="5.560979" lat="50.999577"><ele>79.6</ele><time>2022-05-15T07:08:57.000Z</time></trkpt><trkpt lon="5.561077" lat="50.999551"><ele>79.6</ele><time>2022-05-15T07:08:58.000Z</time></trkpt><trkpt lon="5.561177" lat="50.999524"><ele>79.4</ele><time>2022-05-15T07:08:59.000Z</time></trkpt><trkpt lon="5.561276" lat="50.999497"><ele>79.2</ele><time>2022-05-15T07:09:00.000Z</time></trkpt><trkpt lon="5.561377" lat="50.999467"><ele>79</ele><time>2022-05-15T07:09:01.000Z</time></trkpt><trkpt lon="5.561473" lat="50.999441"><ele>78.8</ele><time>2022-05-15T07:09:02.000Z</time></trkpt><trkpt lon="5.56157" lat="50.999406"><ele>78.8</ele><time>2022-05-15T07:09:03.000Z</time></trkpt><trkpt lon="5.561661" lat="50.999368"><ele>78.8</ele><time>2022-05-15T07:09:04.000Z</time></trkpt><trkpt lon="5.561743" lat="50.999327"><ele>78.8</ele><time>2022-05-15T07:09:05.000Z</time></trkpt><trkpt lon="5.561819" lat="50.999277"><ele>78.8</ele><time>2022-05-15T07:09:06.000Z</time></trkpt><trkpt lon="5.561886" lat="50.999224"><ele>79</ele><time>2022-05-15T07:09:07.000Z</time></trkpt><trkpt lon="5.561947" lat="50.999168"><ele>79.2</ele><time>2022-05-15T07:09:08.000Z</time></trkpt><trkpt lon="5.562007" lat="50.999113"><ele>79.4</ele><time>2022-05-15T07:09:09.000Z</time></trkpt><trkpt lon="5.562061" lat="50.99906"><ele>79.6</ele><time>2022-05-15T07:09:10.000Z</time></trkpt><trkpt lon="5.562118" lat="50.99901"><ele>79.8</ele><time>2022-05-15T07:09:11.000Z</time></trkpt><trkpt lon="5.562171" lat="50.998958"><ele>79.8</ele><time>2022-05-15T07:09:12.000Z</time></trkpt><trkpt lon="5.562225" lat="50.998908"><ele>79.8</ele><time>2022-05-15T07:09:13.000Z</time></trkpt><trkpt lon="5.562278" lat="50.998861"><ele>79.8</ele><time>2022-05-15T07:09:14.000Z</time></trkpt><trkpt lon="5.562327" lat="50.998815"><ele>80</ele><time>2022-05-15T07:09:15.000Z</time></trkpt><trkpt lon="5.56237" lat="50.998773"><ele>80.2</ele><time>2022-05-15T07:09:16.000Z</time></trkpt><trkpt lon="5.562405" lat="50.998739"><ele>80.2</ele><time>2022-05-15T07:09:17.000Z</time></trkpt><trkpt lon="5.562438" lat="50.998708"><ele>80.4</ele><time>2022-05-15T07:09:18.000Z</time></trkpt><trkpt lon="5.562465" lat="50.998681"><ele>80.6</ele><time>2022-05-15T07:09:19.000Z</time></trkpt><trkpt lon="5.562484" lat="50.998662"><ele>80.8</ele><time>2022-05-15T07:09:20.000Z</time></trkpt><trkpt lon="5.562493" lat="50.998643"><ele>80.8</ele><time>2022-05-15T07:09:21.000Z</time></trkpt><trkpt lon="5.562495" lat="50.998632"><ele>81</ele><time>2022-05-15T07:09:22.000Z</time></trkpt><trkpt lon="5.562495" lat="50.998619"><ele>81.4</ele><time>2022-05-15T07:09:30.000Z</time></trkpt><trkpt lon="5.562473" lat="50.998592"><ele>81.4</ele><time>2022-05-15T07:09:31.000Z</time></trkpt><trkpt lon="5.562451" lat="50.99857"><ele>81.4</ele><time>2022-05-15T07:09:32.000Z</time></trkpt><trkpt lon="5.56243" lat="50.998536"><ele>81.4</ele><time>2022-05-15T07:09:33.000Z</time></trkpt><trkpt lon="5.562419" lat="50.998498"><ele>81.2</ele><time>2022-05-15T07:09:34.000Z</time></trkpt><trkpt lon="5.562423" lat="50.998456"><ele>81.2</ele><time>2022-05-15T07:09:35.000Z</time></trkpt><trkpt lon="5.562449" lat="50.998407"><ele>81.2</ele><time>2022-05-15T07:09:36.000Z</time></trkpt><trkpt lon="5.562488" lat="50.998358"><ele>81.2</ele><time>2022-05-15T07:09:37.000Z</time></trkpt><trkpt lon="5.56253" lat="50.998317"><ele>81.2</ele><time>2022-05-15T07:09:38.000Z</time></trkpt><trkpt lon="5.562585" lat="50.998262"><ele>81.2</ele><time>2022-05-15T07:09:39.000Z</time></trkpt><trkpt lon="5.562635" lat="50.998212"><ele>81.2</ele><time>2022-05-15T07:09:40.000Z</time></trkpt><trkpt lon="5.562688" lat="50.998163"><ele>81.2</ele><time>2022-05-15T07:09:41.000Z</time></trkpt><trkpt lon="5.562746" lat="50.998121"><ele>81.2</ele><time>2022-05-15T07:09:42.000Z</time></trkpt><trkpt lon="5.562816" lat="50.99809"><ele>81</ele><time>2022-05-15T07:09:43.000Z</time></trkpt><trkpt lon="5.562891" lat="50.998074"><ele>80.8</ele><time>2022-05-15T07:09:44.000Z</time></trkpt><trkpt lon="5.562971" lat="50.998074"><ele>80.6</ele><time>2022-05-15T07:09:45.000Z</time></trkpt><trkpt lon="5.563046" lat="50.998084"><ele>80.6</ele><time>2022-05-15T07:09:46.000Z</time></trkpt><trkpt lon="5.563127" lat="50.998078"><ele>80.4</ele><time>2022-05-15T07:09:47.000Z</time></trkpt><trkpt lon="5.563206" lat="50.998059"><ele>80.4</ele><time>2022-05-15T07:09:48.000Z</time></trkpt><trkpt lon="5.563282" lat="50.998025"><ele>80.4</ele><time>2022-05-15T07:09:49.000Z</time></trkpt><trkpt lon="5.563356" lat="50.997987"><ele>80.4</ele><time>2022-05-15T07:09:50.000Z</time></trkpt><trkpt lon="5.563433" lat="50.997949"><ele>80.4</ele><time>2022-05-15T07:09:51.000Z</time></trkpt><trkpt lon="5.56351" lat="50.997915"><ele>80.4</ele><time>2022-05-15T07:09:52.000Z</time></trkpt><trkpt lon="5.56359" lat="50.997877"><ele>80.2</ele><time>2022-05-15T07:09:53.000Z</time></trkpt><trkpt lon="5.563674" lat="50.997846"><ele>80.2</ele><time>2022-05-15T07:09:54.000Z</time></trkpt><trkpt lon="5.563759" lat="50.997815"><ele>80.2</ele><time>2022-05-15T07:09:55.000Z</time></trkpt><trkpt lon="5.563846" lat="50.997788"><ele>80.2</ele><time>2022-05-15T07:09:56.000Z</time></trkpt><trkpt lon="5.563931" lat="50.997762"><ele>80.4</ele><time>2022-05-15T07:09:57.000Z</time></trkpt><trkpt lon="5.564025" lat="50.997742"><ele>80.6</ele><time>2022-05-15T07:09:58.000Z</time></trkpt><trkpt lon="5.564122" lat="50.997723"><ele>80.6</ele><time>2022-05-15T07:09:59.000Z</time></trkpt><trkpt lon="5.56422" lat="50.997704"><ele>80.4</ele><time>2022-05-15T07:10:00.000Z</time></trkpt><trkpt lon="5.564315" lat="50.997685"><ele>80.4</ele><time>2022-05-15T07:10:01.000Z</time></trkpt><trkpt lon="5.56441" lat="50.99767"><ele>80.4</ele><time>2022-05-15T07:10:02.000Z</time></trkpt><trkpt lon="5.564507" lat="50.997658"><ele>80.4</ele><time>2022-05-15T07:10:03.000Z</time></trkpt><trkpt lon="5.564607" lat="50.99765"><ele>80.6</ele><time>2022-05-15T07:10:04.000Z</time></trkpt><trkpt lon="5.56471" lat="50.997639"><ele>80.6</ele><time>2022-05-15T07:10:05.000Z</time></trkpt><trkpt lon="5.564812" lat="50.997628"><ele>80.4</ele><time>2022-05-15T07:10:06.000Z</time></trkpt><trkpt lon="5.564913" lat="50.997616"><ele>80.6</ele><time>2022-05-15T07:10:07.000Z</time></trkpt><trkpt lon="5.565007" lat="50.997605"><ele>80.8</ele><time>2022-05-15T07:10:08.000Z</time></trkpt><trkpt lon="5.565114" lat="50.997586"><ele>81</ele><time>2022-05-15T07:10:09.000Z</time></trkpt><trkpt lon="5.565214" lat="50.99757"><ele>81</ele><time>2022-05-15T07:10:10.000Z</time></trkpt><trkpt lon="5.565312" lat="50.997552"><ele>81</ele><time>2022-05-15T07:10:11.000Z</time></trkpt><trkpt lon="5.565411" lat="50.997533"><ele>81</ele><time>2022-05-15T07:10:12.000Z</time></trkpt><trkpt lon="5.565507" lat="50.99751"><ele>81.4</ele><time>2022-05-15T07:10:13.000Z</time></trkpt><trkpt lon="5.565602" lat="50.99749"><ele>81.8</ele><time>2022-05-15T07:10:14.000Z</time></trkpt><trkpt lon="5.565696" lat="50.997468"><ele>81.8</ele><time>2022-05-15T07:10:15.000Z</time></trkpt><trkpt lon="5.56579" lat="50.997445"><ele>82</ele><time>2022-05-15T07:10:16.000Z</time></trkpt><trkpt lon="5.565885" lat="50.997422"><ele>82</ele><time>2022-05-15T07:10:17.000Z</time></trkpt><trkpt lon="5.565982" lat="50.997399"><ele>82.2</ele><time>2022-05-15T07:10:18.000Z</time></trkpt><trkpt lon="5.566076" lat="50.997381"><ele>82</ele><time>2022-05-15T07:10:19.000Z</time></trkpt><trkpt lon="5.566177" lat="50.997357"><ele>82</ele><time>2022-05-15T07:10:20.000Z</time></trkpt><trkpt lon="5.566276" lat="50.997334"><ele>82.2</ele><time>2022-05-15T07:10:21.000Z</time></trkpt><trkpt lon="5.566372" lat="50.997308"><ele>82.2</ele><time>2022-05-15T07:10:22.000Z</time></trkpt><trkpt lon="5.566469" lat="50.997284"><ele>82.2</ele><time>2022-05-15T07:10:23.000Z</time></trkpt><trkpt lon="5.566563" lat="50.997266"><ele>82.2</ele><time>2022-05-15T07:10:24.000Z</time></trkpt><trkpt lon="5.566655" lat="50.997246"><ele>82.2</ele><time>2022-05-15T07:10:25.000Z</time></trkpt><trkpt lon="5.566744" lat="50.997227"><ele>82.2</ele><time>2022-05-15T07:10:26.000Z</time></trkpt><trkpt lon="5.56683" lat="50.997208"><ele>82.4</ele><time>2022-05-15T07:10:27.000Z</time></trkpt><trkpt lon="5.566912" lat="50.997189"><ele>82.6</ele><time>2022-05-15T07:10:28.000Z</time></trkpt><trkpt lon="5.566993" lat="50.997174"><ele>82.6</ele><time>2022-05-15T07:10:29.000Z</time></trkpt><trkpt lon="5.56707" lat="50.997155"><ele>82.6</ele><time>2022-05-15T07:10:30.000Z</time></trkpt><trkpt lon="5.567151" lat="50.997136"><ele>82.8</ele><time>2022-05-15T07:10:31.000Z</time></trkpt><trkpt lon="5.567231" lat="50.99712"><ele>82.8</ele><time>2022-05-15T07:10:32.000Z</time></trkpt><trkpt lon="5.567314" lat="50.997102"><ele>82.8</ele><time>2022-05-15T07:10:33.000Z</time></trkpt><trkpt lon="5.567399" lat="50.997082"><ele>83</ele><time>2022-05-15T07:10:34.000Z</time></trkpt><trkpt lon="5.567484" lat="50.997063"><ele>83.2</ele><time>2022-05-15T07:10:35.000Z</time></trkpt><trkpt lon="5.567569" lat="50.997044"><ele>83.2</ele><time>2022-05-15T07:10:36.000Z</time></trkpt><trkpt lon="5.567655" lat="50.997029"><ele>83</ele><time>2022-05-15T07:10:37.000Z</time></trkpt><trkpt lon="5.567728" lat="50.997013"><ele>83</ele><time>2022-05-15T07:10:38.000Z</time></trkpt><trkpt lon="5.567825" lat="50.996991"><ele>83</ele><time>2022-05-15T07:10:39.000Z</time></trkpt><trkpt lon="5.567914" lat="50.996972"><ele>83</ele><time>2022-05-15T07:10:40.000Z</time></trkpt><trkpt lon="5.568001" lat="50.996949"><ele>82.8</ele><time>2022-05-15T07:10:41.000Z</time></trkpt><trkpt lon="5.568088" lat="50.99693"><ele>82.8</ele><time>2022-05-15T07:10:42.000Z</time></trkpt><trkpt lon="5.568179" lat="50.996911"><ele>82.8</ele><time>2022-05-15T07:10:43.000Z</time></trkpt><trkpt lon="5.568268" lat="50.996892"><ele>82.8</ele><time>2022-05-15T07:10:44.000Z</time></trkpt><trkpt lon="5.568358" lat="50.996873"><ele>82.8</ele><time>2022-05-15T07:10:45.000Z</time></trkpt><trkpt lon="5.568448" lat="50.99685"><ele>83</ele><time>2022-05-15T07:10:46.000Z</time></trkpt><trkpt lon="5.568537" lat="50.996831"><ele>83</ele><time>2022-05-15T07:10:47.000Z</time></trkpt><trkpt lon="5.568625" lat="50.996808"><ele>83.2</ele><time>2022-05-15T07:10:48.000Z</time></trkpt><trkpt lon="5.568712" lat="50.996789"><ele>83</ele><time>2022-05-15T07:10:49.000Z</time></trkpt><trkpt lon="5.568801" lat="50.99677"><ele>83</ele><time>2022-05-15T07:10:50.000Z</time></trkpt><trkpt lon="5.56889" lat="50.996751"><ele>83</ele><time>2022-05-15T07:10:51.000Z</time></trkpt><trkpt lon="5.56898" lat="50.996728"><ele>83.2</ele><time>2022-05-15T07:10:52.000Z</time></trkpt><trkpt lon="5.569072" lat="50.996709"><ele>83</ele><time>2022-05-15T07:10:53.000Z</time></trkpt><trkpt lon="5.569166" lat="50.996686"><ele>83</ele><time>2022-05-15T07:10:54.000Z</time></trkpt><trkpt lon="5.569262" lat="50.996663"><ele>83</ele><time>2022-05-15T07:10:55.000Z</time></trkpt><trkpt lon="5.569355" lat="50.99664"><ele>83</ele><time>2022-05-15T07:10:56.000Z</time></trkpt><trkpt lon="5.569446" lat="50.996621"><ele>83</ele><time>2022-05-15T07:10:57.000Z</time></trkpt><trkpt lon="5.56954" lat="50.996594"><ele>83</ele><time>2022-05-15T07:10:58.000Z</time></trkpt><trkpt lon="5.569631" lat="50.996572"><ele>83</ele><time>2022-05-15T07:10:59.000Z</time></trkpt><trkpt lon="5.569725" lat="50.996548"><ele>83</ele><time>2022-05-15T07:11:00.000Z</time></trkpt><trkpt lon="5.569819" lat="50.996526"><ele>83</ele><time>2022-05-15T07:11:01.000Z</time></trkpt><trkpt lon="5.56991" lat="50.996506"><ele>83</ele><time>2022-05-15T07:11:02.000Z</time></trkpt><trkpt lon="5.570002" lat="50.996484"><ele>82.8</ele><time>2022-05-15T07:11:03.000Z</time></trkpt><trkpt lon="5.570096" lat="50.996461"><ele>82.8</ele><time>2022-05-15T07:11:04.000Z</time></trkpt><trkpt lon="5.570189" lat="50.996438"><ele>82.8</ele><time>2022-05-15T07:11:05.000Z</time></trkpt><trkpt lon="5.57028" lat="50.996415"><ele>82.8</ele><time>2022-05-15T07:11:06.000Z</time></trkpt><trkpt lon="5.57037" lat="50.996396"><ele>83</ele><time>2022-05-15T07:11:07.000Z</time></trkpt><trkpt lon="5.570454" lat="50.996376"><ele>83.2</ele><time>2022-05-15T07:11:08.000Z</time></trkpt><trkpt lon="5.57056" lat="50.99635"><ele>83.4</ele><time>2022-05-15T07:11:09.000Z</time></trkpt><trkpt lon="5.570654" lat="50.996327"><ele>83.4</ele><time>2022-05-15T07:11:10.000Z</time></trkpt><trkpt lon="5.570748" lat="50.996304"><ele>83.2</ele><time>2022-05-15T07:11:11.000Z</time></trkpt><trkpt lon="5.570838" lat="50.996282"><ele>83.2</ele><time>2022-05-15T07:11:12.000Z</time></trkpt><trkpt lon="5.570932" lat="50.996259"><ele>83.6</ele><time>2022-05-15T07:11:13.000Z</time></trkpt><trkpt lon="5.571024" lat="50.996236"><ele>83.6</ele><time>2022-05-15T07:11:14.000Z</time></trkpt><trkpt lon="5.571114" lat="50.996217"><ele>83.6</ele><time>2022-05-15T07:11:15.000Z</time></trkpt><trkpt lon="5.571208" lat="50.996194"><ele>83.6</ele><time>2022-05-15T07:11:16.000Z</time></trkpt><trkpt lon="5.571295" lat="50.996171"><ele>83.6</ele><time>2022-05-15T07:11:17.000Z</time></trkpt><trkpt lon="5.57139" lat="50.996155"><ele>83.6</ele><time>2022-05-15T07:11:18.000Z</time></trkpt><trkpt lon="5.571485" lat="50.996136"><ele>83.6</ele><time>2022-05-15T07:11:19.000Z</time></trkpt><trkpt lon="5.571582" lat="50.996117"><ele>83.4</ele><time>2022-05-15T07:11:20.000Z</time></trkpt><trkpt lon="5.571678" lat="50.996102"><ele>83.4</ele><time>2022-05-15T07:11:21.000Z</time></trkpt><trkpt lon="5.571775" lat="50.996087"><ele>83.4</ele><time>2022-05-15T07:11:22.000Z</time></trkpt><trkpt lon="5.571872" lat="50.996071"><ele>83.6</ele><time>2022-05-15T07:11:23.000Z</time></trkpt><trkpt lon="5.571969" lat="50.996056"><ele>83.6</ele><time>2022-05-15T07:11:24.000Z</time></trkpt><trkpt lon="5.572063" lat="50.996041"><ele>83.4</ele><time>2022-05-15T07:11:25.000Z</time></trkpt><trkpt lon="5.572155" lat="50.996026"><ele>83.4</ele><time>2022-05-15T07:11:26.000Z</time></trkpt><trkpt lon="5.572255" lat="50.996014"><ele>83.6</ele><time>2022-05-15T07:11:27.000Z</time></trkpt><trkpt lon="5.572353" lat="50.995999"><ele>83.6</ele><time>2022-05-15T07:11:28.000Z</time></trkpt><trkpt lon="5.57245" lat="50.995987"><ele>83.8</ele><time>2022-05-15T07:11:29.000Z</time></trkpt><trkpt lon="5.572546" lat="50.995976"><ele>83.8</ele><time>2022-05-15T07:11:30.000Z</time></trkpt><trkpt lon="5.572644" lat="50.995965"><ele>84</ele><time>2022-05-15T07:11:31.000Z</time></trkpt><trkpt lon="5.572741" lat="50.995953"><ele>84</ele><time>2022-05-15T07:11:32.000Z</time></trkpt><trkpt lon="5.572835" lat="50.995942"><ele>84</ele><time>2022-05-15T07:11:33.000Z</time></trkpt><trkpt lon="5.572935" lat="50.99593"><ele>84</ele><time>2022-05-15T07:11:34.000Z</time></trkpt><trkpt lon="5.573028" lat="50.995919"><ele>84</ele><time>2022-05-15T07:11:35.000Z</time></trkpt><trkpt lon="5.573122" lat="50.995904"><ele>84</ele><time>2022-05-15T07:11:36.000Z</time></trkpt><trkpt lon="5.573213" lat="50.995885"><ele>84</ele><time>2022-05-15T07:11:37.000Z</time></trkpt><trkpt lon="5.573307" lat="50.995865"><ele>84</ele><time>2022-05-15T07:11:38.000Z</time></trkpt><trkpt lon="5.573397" lat="50.995846"><ele>84</ele><time>2022-05-15T07:11:39.000Z</time></trkpt><trkpt lon="5.573483" lat="50.995824"><ele>84.2</ele><time>2022-05-15T07:11:40.000Z</time></trkpt><trkpt lon="5.573566" lat="50.995802"><ele>84.2</ele><time>2022-05-15T07:11:41.000Z</time></trkpt><trkpt lon="5.573651" lat="50.995778"><ele>84.2</ele><time>2022-05-15T07:11:42.000Z</time></trkpt><trkpt lon="5.573727" lat="50.995752"><ele>84.2</ele><time>2022-05-15T07:11:43.000Z</time></trkpt><trkpt lon="5.573802" lat="50.995721"><ele>84.4</ele><time>2022-05-15T07:11:44.000Z</time></trkpt><trkpt lon="5.573863" lat="50.995687"><ele>84.4</ele><time>2022-05-15T07:11:45.000Z</time></trkpt><trkpt lon="5.573896" lat="50.995656"><ele>84.6</ele><time>2022-05-15T07:11:46.000Z</time></trkpt><trkpt lon="5.573925" lat="50.995626"><ele>84.6</ele><time>2022-05-15T07:11:47.000Z</time></trkpt><trkpt lon="5.573967" lat="50.995602"><ele>84.8</ele><time>2022-05-15T07:11:48.000Z</time></trkpt><trkpt lon="5.574024" lat="50.995583"><ele>84.8</ele><time>2022-05-15T07:11:49.000Z</time></trkpt><trkpt lon="5.574091" lat="50.995575"><ele>84.8</ele><time>2022-05-15T07:11:50.000Z</time></trkpt><trkpt lon="5.57416" lat="50.995575"><ele>84.8</ele><time>2022-05-15T07:11:51.000Z</time></trkpt><trkpt lon="5.57424" lat="50.995575"><ele>84.6</ele><time>2022-05-15T07:11:52.000Z</time></trkpt><trkpt lon="5.574318" lat="50.995579"><ele>84.6</ele><time>2022-05-15T07:11:53.000Z</time></trkpt><trkpt lon="5.574398" lat="50.995582"><ele>84.6</ele><time>2022-05-15T07:11:54.000Z</time></trkpt><trkpt lon="5.574475" lat="50.995583"><ele>84.8</ele><time>2022-05-15T07:11:55.000Z</time></trkpt><trkpt lon="5.574554" lat="50.995583"><ele>84.8</ele><time>2022-05-15T07:11:56.000Z</time></trkpt><trkpt lon="5.574632" lat="50.995575"><ele>84.8</ele><time>2022-05-15T07:11:57.000Z</time></trkpt><trkpt lon="5.574707" lat="50.995571"><ele>85</ele><time>2022-05-15T07:11:58.000Z</time></trkpt><trkpt lon="5.574773" lat="50.995564"><ele>85</ele><time>2022-05-15T07:11:59.000Z</time></trkpt><trkpt lon="5.57483" lat="50.995549"><ele>85</ele><time>2022-05-15T07:12:00.000Z</time></trkpt><trkpt lon="5.57487" lat="50.995534"><ele>85</ele><time>2022-05-15T07:12:01.000Z</time></trkpt><trkpt lon="5.574891" lat="50.995511"><ele>85</ele><time>2022-05-15T07:12:02.000Z</time></trkpt><trkpt lon="5.574901" lat="50.995484"><ele>85.2</ele><time>2022-05-15T07:12:03.000Z</time></trkpt><trkpt lon="5.57491" lat="50.995454"><ele>85.2</ele><time>2022-05-15T07:12:04.000Z</time></trkpt><trkpt lon="5.57491" lat="50.99542"><ele>85.2</ele><time>2022-05-15T07:12:05.000Z</time></trkpt><trkpt lon="5.574902" lat="50.995378"><ele>85.2</ele><time>2022-05-15T07:12:06.000Z</time></trkpt><trkpt lon="5.574895" lat="50.99534"><ele>85.2</ele><time>2022-05-15T07:12:07.000Z</time></trkpt><trkpt lon="5.57489" lat="50.995298"><ele>85.2</ele><time>2022-05-15T07:12:08.000Z</time></trkpt><trkpt lon="5.574884" lat="50.995252"><ele>85.2</ele><time>2022-05-15T07:12:09.000Z</time></trkpt><trkpt lon="5.574875" lat="50.995214"><ele>85.2</ele><time>2022-05-15T07:12:10.000Z</time></trkpt><trkpt lon="5.574862" lat="50.995172"><ele>85.2</ele><time>2022-05-15T07:12:11.000Z</time></trkpt><trkpt lon="5.574849" lat="50.995137"><ele>85.2</ele><time>2022-05-15T07:12:12.000Z</time></trkpt><trkpt lon="5.574842" lat="50.995107"><ele>85.2</ele><time>2022-05-15T07:12:13.000Z</time></trkpt><trkpt lon="5.574835" lat="50.99508"><ele>85.2</ele><time>2022-05-15T07:12:14.000Z</time></trkpt><trkpt lon="5.574827" lat="50.995057"><ele>85.2</ele><time>2022-05-15T07:12:15.000Z</time></trkpt><trkpt lon="5.574818" lat="50.99503"><ele>85.2</ele><time>2022-05-15T07:12:16.000Z</time></trkpt><trkpt lon="5.574808" lat="50.995007"><ele>85.2</ele><time>2022-05-15T07:12:17.000Z</time></trkpt><trkpt lon="5.574804" lat="50.994988"><ele>85.2</ele><time>2022-05-15T07:12:18.000Z</time></trkpt><trkpt lon="5.5748" lat="50.994973"><ele>85.2</ele><time>2022-05-15T07:12:19.000Z</time></trkpt><trkpt lon="5.574801" lat="50.994958"><ele>85.2</ele><time>2022-05-15T07:12:20.000Z</time></trkpt><trkpt lon="5.57481" lat="50.994943"><ele>85.2</ele><time>2022-05-15T07:12:21.000Z</time></trkpt><trkpt lon="5.574821" lat="50.994927"><ele>85.4</ele><time>2022-05-15T07:12:22.000Z</time></trkpt><trkpt lon="5.574837" lat="50.994908"><ele>85.4</ele><time>2022-05-15T07:12:23.000Z</time></trkpt><trkpt lon="5.574861" lat="50.994889"><ele>85.4</ele><time>2022-05-15T07:12:24.000Z</time></trkpt><trkpt lon="5.57489" lat="50.994866"><ele>85.4</ele><time>2022-05-15T07:12:25.000Z</time></trkpt><trkpt lon="5.574932" lat="50.994851"><ele>85.2</ele><time>2022-05-15T07:12:26.000Z</time></trkpt><trkpt lon="5.574986" lat="50.994835"><ele>85.2</ele><time>2022-05-15T07:12:27.000Z</time></trkpt><trkpt lon="5.575049" lat="50.994824"><ele>85.2</ele><time>2022-05-15T07:12:28.000Z</time></trkpt><trkpt lon="5.575119" lat="50.994812"><ele>85.2</ele><time>2022-05-15T07:12:29.000Z</time></trkpt><trkpt lon="5.575191" lat="50.994801"><ele>85</ele><time>2022-05-15T07:12:30.000Z</time></trkpt><trkpt lon="5.575267" lat="50.994786"><ele>85</ele><time>2022-05-15T07:12:31.000Z</time></trkpt><trkpt lon="5.575339" lat="50.994767"><ele>84.8</ele><time>2022-05-15T07:12:32.000Z</time></trkpt><trkpt lon="5.575402" lat="50.994749"><ele>84.8</ele><time>2022-05-15T07:12:33.000Z</time></trkpt><trkpt lon="5.575464" lat="50.994729"><ele>84.6</ele><time>2022-05-15T07:12:34.000Z</time></trkpt><trkpt lon="5.575532" lat="50.994713"><ele>84.6</ele><time>2022-05-15T07:12:35.000Z</time></trkpt><trkpt lon="5.575597" lat="50.994695"><ele>84.4</ele><time>2022-05-15T07:12:36.000Z</time></trkpt><trkpt lon="5.575651" lat="50.994679"><ele>84.4</ele><time>2022-05-15T07:12:37.000Z</time></trkpt><trkpt lon="5.575711" lat="50.994656"><ele>84.4</ele><time>2022-05-15T07:12:38.000Z</time></trkpt><trkpt lon="5.575778" lat="50.99463"><ele>84.4</ele><time>2022-05-15T07:12:39.000Z</time></trkpt><trkpt lon="5.575848" lat="50.994599"><ele>84.6</ele><time>2022-05-15T07:12:40.000Z</time></trkpt><trkpt lon="5.575908" lat="50.994573"><ele>84.6</ele><time>2022-05-15T07:12:41.000Z</time></trkpt><trkpt lon="5.575976" lat="50.994538"><ele>84.6</ele><time>2022-05-15T07:12:42.000Z</time></trkpt><trkpt lon="5.576035" lat="50.994505"><ele>84.6</ele><time>2022-05-15T07:12:43.000Z</time></trkpt><trkpt lon="5.5761" lat="50.994466"><ele>84.6</ele><time>2022-05-15T07:12:44.000Z</time></trkpt><trkpt lon="5.576163" lat="50.994432"><ele>84.6</ele><time>2022-05-15T07:12:45.000Z</time></trkpt><trkpt lon="5.576228" lat="50.994397"><ele>84.6</ele><time>2022-05-15T07:12:46.000Z</time></trkpt><trkpt lon="5.57629" lat="50.994359"><ele>84.6</ele><time>2022-05-15T07:12:47.000Z</time></trkpt><trkpt lon="5.576351" lat="50.994329"><ele>84.6</ele><time>2022-05-15T07:12:48.000Z</time></trkpt><trkpt lon="5.576408" lat="50.994298"><ele>84.8</ele><time>2022-05-15T07:12:49.000Z</time></trkpt><trkpt lon="5.576463" lat="50.994268"><ele>84.8</ele><time>2022-05-15T07:12:50.000Z</time></trkpt><trkpt lon="5.576523" lat="50.994235"><ele>84.8</ele><time>2022-05-15T07:12:51.000Z</time></trkpt><trkpt lon="5.57659" lat="50.994199"><ele>84.8</ele><time>2022-05-15T07:12:52.000Z</time></trkpt><trkpt lon="5.576661" lat="50.994165"><ele>85</ele><time>2022-05-15T07:12:53.000Z</time></trkpt><trkpt lon="5.576727" lat="50.994127"><ele>85</ele><time>2022-05-15T07:12:54.000Z</time></trkpt><trkpt lon="5.57678" lat="50.994089"><ele>85</ele><time>2022-05-15T07:12:55.000Z</time></trkpt><trkpt lon="5.576834" lat="50.994058"><ele>85</ele><time>2022-05-15T07:12:56.000Z</time></trkpt><trkpt lon="5.576882" lat="50.994014"><ele>85</ele><time>2022-05-15T07:12:57.000Z</time></trkpt><trkpt lon="5.576938" lat="50.993967"><ele>85.2</ele><time>2022-05-15T07:12:58.000Z</time></trkpt><trkpt lon="5.576997" lat="50.993913"><ele>85.2</ele><time>2022-05-15T07:12:59.000Z</time></trkpt><trkpt lon="5.577058" lat="50.993879"><ele>85.4</ele><time>2022-05-15T07:13:00.000Z</time></trkpt><trkpt lon="5.577124" lat="50.993841"><ele>85.4</ele><time>2022-05-15T07:13:01.000Z</time></trkpt><trkpt lon="5.577186" lat="50.993802"><ele>85.4</ele><time>2022-05-15T07:13:02.000Z</time></trkpt><trkpt lon="5.577246" lat="50.993768"><ele>85.4</ele><time>2022-05-15T07:13:03.000Z</time></trkpt><trkpt lon="5.577309" lat="50.99373"><ele>85.4</ele><time>2022-05-15T07:13:04.000Z</time></trkpt><trkpt lon="5.577371" lat="50.993696"><ele>85.6</ele><time>2022-05-15T07:13:05.000Z</time></trkpt><trkpt lon="5.57743" lat="50.993665"><ele>85.6</ele><time>2022-05-15T07:13:06.000Z</time></trkpt><trkpt lon="5.577494" lat="50.993623"><ele>85.6</ele><time>2022-05-15T07:13:07.000Z</time></trkpt><trkpt lon="5.577559" lat="50.993589"><ele>85.6</ele><time>2022-05-15T07:13:08.000Z</time></trkpt><trkpt lon="5.577632" lat="50.99355"><ele>85.8</ele><time>2022-05-15T07:13:09.000Z</time></trkpt><trkpt lon="5.577721" lat="50.993497"><ele>85.8</ele><time>2022-05-15T07:13:10.000Z</time></trkpt><trkpt lon="5.577787" lat="50.993459"><ele>85.8</ele><time>2022-05-15T07:13:11.000Z</time></trkpt><trkpt lon="5.577848" lat="50.993428"><ele>85.8</ele><time>2022-05-15T07:13:12.000Z</time></trkpt><trkpt lon="5.57791" lat="50.993398"><ele>85.8</ele><time>2022-05-15T07:13:13.000Z</time></trkpt><trkpt lon="5.577965" lat="50.993375"><ele>85.8</ele><time>2022-05-15T07:13:14.000Z</time></trkpt><trkpt lon="5.57802" lat="50.993344"><ele>85.8</ele><time>2022-05-15T07:13:15.000Z</time></trkpt><trkpt lon="5.578058" lat="50.993318"><ele>86</ele><time>2022-05-15T07:13:16.000Z</time></trkpt><trkpt lon="5.578102" lat="50.99328"><ele>86</ele><time>2022-05-15T07:13:17.000Z</time></trkpt><trkpt lon="5.578132" lat="50.993245"><ele>86</ele><time>2022-05-15T07:13:18.000Z</time></trkpt><trkpt lon="5.578164" lat="50.99323"><ele>86</ele><time>2022-05-15T07:13:19.000Z</time></trkpt><trkpt lon="5.57819" lat="50.993218"><ele>86.2</ele><time>2022-05-15T07:13:20.000Z</time></trkpt><trkpt lon="5.578305" lat="50.99312"><ele>86.2</ele><time>2022-05-15T07:13:24.000Z</time></trkpt><trkpt lon="5.578339" lat="50.993095"><ele>86.2</ele><time>2022-05-15T07:13:25.000Z</time></trkpt><trkpt lon="5.578384" lat="50.993069"><ele>86.2</ele><time>2022-05-15T07:13:26.000Z</time></trkpt><trkpt lon="5.578436" lat="50.993032"><ele>86.2</ele><time>2022-05-15T07:13:27.000Z</time></trkpt><trkpt lon="5.578481" lat="50.993004"><ele>86.2</ele><time>2022-05-15T07:13:28.000Z</time></trkpt><trkpt lon="5.578528" lat="50.992974"><ele>86.2</ele><time>2022-05-15T07:13:29.000Z</time></trkpt><trkpt lon="5.578583" lat="50.992944"><ele>86</ele><time>2022-05-15T07:13:30.000Z</time></trkpt><trkpt lon="5.578646" lat="50.992913"><ele>85.8</ele><time>2022-05-15T07:13:31.000Z</time></trkpt><trkpt lon="5.578716" lat="50.992883"><ele>85.8</ele><time>2022-05-15T07:13:32.000Z</time></trkpt><trkpt lon="5.578786" lat="50.992856"><ele>85.6</ele><time>2022-05-15T07:13:33.000Z</time></trkpt><trkpt lon="5.578855" lat="50.992829"><ele>85.6</ele><time>2022-05-15T07:13:34.000Z</time></trkpt><trkpt lon="5.578914" lat="50.992803"><ele>85.4</ele><time>2022-05-15T07:13:35.000Z</time></trkpt><trkpt lon="5.578971" lat="50.992773"><ele>85.6</ele><time>2022-05-15T07:13:36.000Z</time></trkpt><trkpt lon="5.579022" lat="50.992749"><ele>85.6</ele><time>2022-05-15T07:13:37.000Z</time></trkpt><trkpt lon="5.579075" lat="50.992723"><ele>85.6</ele><time>2022-05-15T07:13:38.000Z</time></trkpt><trkpt lon="5.579123" lat="50.992707"><ele>85.6</ele><time>2022-05-15T07:13:39.000Z</time></trkpt><trkpt lon="5.579176" lat="50.992691"><ele>85.8</ele><time>2022-05-15T07:13:40.000Z</time></trkpt><trkpt lon="5.57922" lat="50.992676"><ele>85.8</ele><time>2022-05-15T07:13:41.000Z</time></trkpt><trkpt lon="5.579262" lat="50.992657"><ele>85.6</ele><time>2022-05-15T07:13:42.000Z</time></trkpt><trkpt lon="5.579304" lat="50.992639"><ele>85.6</ele><time>2022-05-15T07:13:43.000Z</time></trkpt><trkpt lon="5.579347" lat="50.992616"><ele>85.4</ele><time>2022-05-15T07:13:44.000Z</time></trkpt><trkpt lon="5.579392" lat="50.992593"><ele>85.4</ele><time>2022-05-15T07:13:45.000Z</time></trkpt><trkpt lon="5.579443" lat="50.992574"><ele>85.6</ele><time>2022-05-15T07:13:46.000Z</time></trkpt><trkpt lon="5.579498" lat="50.992551"><ele>85.6</ele><time>2022-05-15T07:13:47.000Z</time></trkpt><trkpt lon="5.579555" lat="50.992528"><ele>85.4</ele><time>2022-05-15T07:13:48.000Z</time></trkpt><trkpt lon="5.57961" lat="50.992505"><ele>85.4</ele><time>2022-05-15T07:13:49.000Z</time></trkpt><trkpt lon="5.579663" lat="50.992486"><ele>85.4</ele><time>2022-05-15T07:13:50.000Z</time></trkpt><trkpt lon="5.579716" lat="50.992463"><ele>85.4</ele><time>2022-05-15T07:13:51.000Z</time></trkpt><trkpt lon="5.579766" lat="50.99244"><ele>85.2</ele><time>2022-05-15T07:13:52.000Z</time></trkpt><trkpt lon="5.579815" lat="50.992421"><ele>85.2</ele><time>2022-05-15T07:13:53.000Z</time></trkpt><trkpt lon="5.579865" lat="50.992398"><ele>85.2</ele><time>2022-05-15T07:13:54.000Z</time></trkpt><trkpt lon="5.579912" lat="50.992379"><ele>85.4</ele><time>2022-05-15T07:13:55.000Z</time></trkpt><trkpt lon="5.579957" lat="50.992367"><ele>85.4</ele><time>2022-05-15T07:13:56.000Z</time></trkpt><trkpt lon="5.579999" lat="50.992352"><ele>85.4</ele><time>2022-05-15T07:13:57.000Z</time></trkpt><trkpt lon="5.58004" lat="50.992341"><ele>85.4</ele><time>2022-05-15T07:13:58.000Z</time></trkpt><trkpt lon="5.58008" lat="50.992325"><ele>85.4</ele><time>2022-05-15T07:13:59.000Z</time></trkpt><trkpt lon="5.580123" lat="50.992307"><ele>85.4</ele><time>2022-05-15T07:14:00.000Z</time></trkpt><trkpt lon="5.580167" lat="50.992287"><ele>85.6</ele><time>2022-05-15T07:14:01.000Z</time></trkpt><trkpt lon="5.580209" lat="50.992268"><ele>85.6</ele><time>2022-05-15T07:14:02.000Z</time></trkpt><trkpt lon="5.580247" lat="50.992253"><ele>85.6</ele><time>2022-05-15T07:14:03.000Z</time></trkpt><trkpt lon="5.580288" lat="50.992234"><ele>85.6</ele><time>2022-05-15T07:14:04.000Z</time></trkpt><trkpt lon="5.580329" lat="50.992215"><ele>85.6</ele><time>2022-05-15T07:14:05.000Z</time></trkpt><trkpt lon="5.580375" lat="50.992196"><ele>85.6</ele><time>2022-05-15T07:14:06.000Z</time></trkpt><trkpt lon="5.580415" lat="50.99218"><ele>85.6</ele><time>2022-05-15T07:14:07.000Z</time></trkpt><trkpt lon="5.580455" lat="50.992162"><ele>85.6</ele><time>2022-05-15T07:14:08.000Z</time></trkpt><trkpt lon="5.580493" lat="50.992139"><ele>85.6</ele><time>2022-05-15T07:14:09.000Z</time></trkpt><trkpt lon="5.580532" lat="50.992117"><ele>85.6</ele><time>2022-05-15T07:14:10.000Z</time></trkpt><trkpt lon="5.580572" lat="50.9921"><ele>85.8</ele><time>2022-05-15T07:14:11.000Z</time></trkpt><trkpt lon="5.58061" lat="50.992081"><ele>85.8</ele><time>2022-05-15T07:14:12.000Z</time></trkpt><trkpt lon="5.580647" lat="50.992063"><ele>85.8</ele><time>2022-05-15T07:14:13.000Z</time></trkpt><trkpt lon="5.580684" lat="50.992047"><ele>85.8</ele><time>2022-05-15T07:14:14.000Z</time></trkpt><trkpt lon="5.580722" lat="50.992028"><ele>86</ele><time>2022-05-15T07:14:15.000Z</time></trkpt><trkpt lon="5.580762" lat="50.992009"><ele>86</ele><time>2022-05-15T07:14:16.000Z</time></trkpt><trkpt lon="5.580796" lat="50.991998"><ele>86</ele><time>2022-05-15T07:14:17.000Z</time></trkpt><trkpt lon="5.580834" lat="50.991986"><ele>86</ele><time>2022-05-15T07:14:18.000Z</time></trkpt><trkpt lon="5.580863" lat="50.991974"><ele>86.2</ele><time>2022-05-15T07:14:19.000Z</time></trkpt><trkpt lon="5.580896" lat="50.991959"><ele>86.2</ele><time>2022-05-15T07:14:20.000Z</time></trkpt><trkpt lon="5.58094" lat="50.991944"><ele>86.2</ele><time>2022-05-15T07:14:21.000Z</time></trkpt><trkpt lon="5.580984" lat="50.991932"><ele>86.2</ele><time>2022-05-15T07:14:22.000Z</time></trkpt><trkpt lon="5.581016" lat="50.991918"><ele>86.2</ele><time>2022-05-15T07:14:23.000Z</time></trkpt><trkpt lon="5.581052" lat="50.991898"><ele>86.2</ele><time>2022-05-15T07:14:24.000Z</time></trkpt><trkpt lon="5.581088" lat="50.991879"><ele>86.2</ele><time>2022-05-15T07:14:25.000Z</time></trkpt><trkpt lon="5.58113" lat="50.991867"><ele>86.2</ele><time>2022-05-15T07:14:26.000Z</time></trkpt><trkpt lon="5.581176" lat="50.991852"><ele>86.2</ele><time>2022-05-15T07:14:27.000Z</time></trkpt><trkpt lon="5.581215" lat="50.991837"><ele>86.2</ele><time>2022-05-15T07:14:28.000Z</time></trkpt><trkpt lon="5.581241" lat="50.991829"><ele>86.2</ele><time>2022-05-15T07:14:29.000Z</time></trkpt><trkpt lon="5.581263" lat="50.991814"><ele>86.2</ele><time>2022-05-15T07:14:30.000Z</time></trkpt><trkpt lon="5.581292" lat="50.991792"><ele>86.2</ele><time>2022-05-15T07:14:31.000Z</time></trkpt><trkpt lon="5.581305" lat="50.991772"><ele>86.2</ele><time>2022-05-15T07:14:32.000Z</time></trkpt><trkpt lon="5.581318" lat="50.991743"><ele>86.2</ele><time>2022-05-15T07:14:33.000Z</time></trkpt><trkpt lon="5.581333" lat="50.991708"><ele>86</ele><time>2022-05-15T07:14:34.000Z</time></trkpt><trkpt lon="5.58133" lat="50.991681"><ele>86</ele><time>2022-05-15T07:14:35.000Z</time></trkpt><trkpt lon="5.581325" lat="50.991651"><ele>85.8</ele><time>2022-05-15T07:14:36.000Z</time></trkpt><trkpt lon="5.581317" lat="50.991616"><ele>85.8</ele><time>2022-05-15T07:14:37.000Z</time></trkpt><trkpt lon="5.581305" lat="50.991586"><ele>85.6</ele><time>2022-05-15T07:14:38.000Z</time></trkpt><trkpt lon="5.581287" lat="50.991544"><ele>85.6</ele><time>2022-05-15T07:14:39.000Z</time></trkpt><trkpt lon="5.581269" lat="50.991509"><ele>85.4</ele><time>2022-05-15T07:14:40.000Z</time></trkpt><trkpt lon="5.581249" lat="50.991471"><ele>85.4</ele><time>2022-05-15T07:14:41.000Z</time></trkpt><trkpt lon="5.581227" lat="50.991435"><ele>85.4</ele><time>2022-05-15T07:14:42.000Z</time></trkpt><trkpt lon="5.5812" lat="50.991393"><ele>85.2</ele><time>2022-05-15T07:14:43.000Z</time></trkpt><trkpt lon="5.581173" lat="50.99135"><ele>85.2</ele><time>2022-05-15T07:14:44.000Z</time></trkpt><trkpt lon="5.581143" lat="50.991304"><ele>85.2</ele><time>2022-05-15T07:14:45.000Z</time></trkpt><trkpt lon="5.581115" lat="50.991259"><ele>85.2</ele><time>2022-05-15T07:14:46.000Z</time></trkpt><trkpt lon="5.581083" lat="50.991216"><ele>85.2</ele><time>2022-05-15T07:14:47.000Z</time></trkpt><trkpt lon="5.581048" lat="50.991156"><ele>85.2</ele><time>2022-05-15T07:14:48.000Z</time></trkpt><trkpt lon="5.581011" lat="50.991098"><ele>85</ele><time>2022-05-15T07:14:49.000Z</time></trkpt><trkpt lon="5.580977" lat="50.991042"><ele>85</ele><time>2022-05-15T07:14:50.000Z</time></trkpt><trkpt lon="5.580937" lat="50.990997"><ele>85</ele><time>2022-05-15T07:14:51.000Z</time></trkpt><trkpt lon="5.580885" lat="50.990942"><ele>85</ele><time>2022-05-15T07:14:52.000Z</time></trkpt><trkpt lon="5.580847" lat="50.99089"><ele>85</ele><time>2022-05-15T07:14:53.000Z</time></trkpt><trkpt lon="5.580806" lat="50.99085"><ele>85</ele><time>2022-05-15T07:14:54.000Z</time></trkpt><trkpt lon="5.580772" lat="50.990805"><ele>84.8</ele><time>2022-05-15T07:14:55.000Z</time></trkpt><trkpt lon="5.58074" lat="50.990747"><ele>84.8</ele><time>2022-05-15T07:14:56.000Z</time></trkpt><trkpt lon="5.580698" lat="50.990695"><ele>84.8</ele><time>2022-05-15T07:14:57.000Z</time></trkpt><trkpt lon="5.580645" lat="50.990648"><ele>84.8</ele><time>2022-05-15T07:14:58.000Z</time></trkpt><trkpt lon="5.580603" lat="50.990598"><ele>84.8</ele><time>2022-05-15T07:14:59.000Z</time></trkpt><trkpt lon="5.580552" lat="50.990549"><ele>84.8</ele><time>2022-05-15T07:15:00.000Z</time></trkpt><trkpt lon="5.580491" lat="50.990503"><ele>84.8</ele><time>2022-05-15T07:15:01.000Z</time></trkpt><trkpt lon="5.580445" lat="50.990461"><ele>84.8</ele><time>2022-05-15T07:15:02.000Z</time></trkpt><trkpt lon="5.5804" lat="50.990417"><ele>84.8</ele><time>2022-05-15T07:15:03.000Z</time></trkpt><trkpt lon="5.580357" lat="50.990369"><ele>84.6</ele><time>2022-05-15T07:15:04.000Z</time></trkpt><trkpt lon="5.580308" lat="50.990318"><ele>84.6</ele><time>2022-05-15T07:15:05.000Z</time></trkpt><trkpt lon="5.580248" lat="50.99027"><ele>84.6</ele><time>2022-05-15T07:15:06.000Z</time></trkpt><trkpt lon="5.580186" lat="50.990214"><ele>84.6</ele><time>2022-05-15T07:15:07.000Z</time></trkpt><trkpt lon="5.580132" lat="50.99016"><ele>84.6</ele><time>2022-05-15T07:15:08.000Z</time></trkpt><trkpt lon="5.580069" lat="50.990107"><ele>84.6</ele><time>2022-05-15T07:15:09.000Z</time></trkpt><trkpt lon="5.580007" lat="50.990049"><ele>84.8</ele><time>2022-05-15T07:15:10.000Z</time></trkpt><trkpt lon="5.579945" lat="50.989995"><ele>84.8</ele><time>2022-05-15T07:15:11.000Z</time></trkpt><trkpt lon="5.579871" lat="50.989935"><ele>85</ele><time>2022-05-15T07:15:12.000Z</time></trkpt><trkpt lon="5.579792" lat="50.989871"><ele>85</ele><time>2022-05-15T07:15:13.000Z</time></trkpt><trkpt lon="5.579714" lat="50.989809"><ele>85</ele><time>2022-05-15T07:15:14.000Z</time></trkpt><trkpt lon="5.57964" lat="50.989756"><ele>85</ele><time>2022-05-15T07:15:15.000Z</time></trkpt><trkpt lon="5.579566" lat="50.989689"><ele>85</ele><time>2022-05-15T07:15:16.000Z</time></trkpt><trkpt lon="5.579509" lat="50.989631"><ele>85</ele><time>2022-05-15T07:15:17.000Z</time></trkpt><trkpt lon="5.579452" lat="50.98958"><ele>85</ele><time>2022-05-15T07:15:18.000Z</time></trkpt><trkpt lon="5.579404" lat="50.989549"><ele>85</ele><time>2022-05-15T07:15:19.000Z</time></trkpt><trkpt lon="5.579351" lat="50.989526"><ele>84.8</ele><time>2022-05-15T07:15:20.000Z</time></trkpt><trkpt lon="5.579284" lat="50.98951"><ele>84.8</ele><time>2022-05-15T07:15:21.000Z</time></trkpt><trkpt lon="5.579213" lat="50.989499"><ele>84.6</ele><time>2022-05-15T07:15:22.000Z</time></trkpt><trkpt lon="5.579131" lat="50.989487"><ele>84.4</ele><time>2022-05-15T07:15:23.000Z</time></trkpt><trkpt lon="5.579044" lat="50.989483"><ele>84.4</ele><time>2022-05-15T07:15:24.000Z</time></trkpt><trkpt lon="5.578959" lat="50.989483"><ele>84.2</ele><time>2022-05-15T07:15:25.000Z</time></trkpt><trkpt lon="5.578862" lat="50.989479"><ele>84.2</ele><time>2022-05-15T07:15:26.000Z</time></trkpt><trkpt lon="5.578768" lat="50.989468"><ele>84.2</ele><time>2022-05-15T07:15:27.000Z</time></trkpt><trkpt lon="5.578668" lat="50.98946"><ele>84</ele><time>2022-05-15T07:15:28.000Z</time></trkpt><trkpt lon="5.578557" lat="50.989456"><ele>84</ele><time>2022-05-15T07:15:29.000Z</time></trkpt><trkpt lon="5.578457" lat="50.98946"><ele>83.8</ele><time>2022-05-15T07:15:30.000Z</time></trkpt><trkpt lon="5.578368" lat="50.98946"><ele>83.8</ele><time>2022-05-15T07:15:31.000Z</time></trkpt><trkpt lon="5.578263" lat="50.989449"><ele>83.6</ele><time>2022-05-15T07:15:32.000Z</time></trkpt><trkpt lon="5.578172" lat="50.989438"><ele>83.6</ele><time>2022-05-15T07:15:33.000Z</time></trkpt><trkpt lon="5.578068" lat="50.989433"><ele>83.4</ele><time>2022-05-15T07:15:34.000Z</time></trkpt><trkpt lon="5.57798" lat="50.989422"><ele>83.4</ele><time>2022-05-15T07:15:35.000Z</time></trkpt><trkpt lon="5.577901" lat="50.989412"><ele>83.2</ele><time>2022-05-15T07:15:36.000Z</time></trkpt><trkpt lon="5.577778" lat="50.9894"><ele>83.2</ele><time>2022-05-15T07:15:37.000Z</time></trkpt><trkpt lon="5.577646" lat="50.989381"><ele>83.2</ele><time>2022-05-15T07:15:38.000Z</time></trkpt><trkpt lon="5.577535" lat="50.989369"><ele>83</ele><time>2022-05-15T07:15:39.000Z</time></trkpt><trkpt lon="5.57743" lat="50.989368"><ele>83</ele><time>2022-05-15T07:15:40.000Z</time></trkpt><trkpt lon="5.577326" lat="50.989368"><ele>82.8</ele><time>2022-05-15T07:15:41.000Z</time></trkpt><trkpt lon="5.577223" lat="50.989368"><ele>82.8</ele><time>2022-05-15T07:15:42.000Z</time></trkpt><trkpt lon="5.577106" lat="50.989361"><ele>82.6</ele><time>2022-05-15T07:15:43.000Z</time></trkpt><trkpt lon="5.577004" lat="50.989365"><ele>82.6</ele><time>2022-05-15T07:15:44.000Z</time></trkpt><trkpt lon="5.576904" lat="50.989361"><ele>82.6</ele><time>2022-05-15T07:15:45.000Z</time></trkpt><trkpt lon="5.576791" lat="50.989353"><ele>82.4</ele><time>2022-05-15T07:15:46.000Z</time></trkpt><trkpt lon="5.57669" lat="50.98935"><ele>82.4</ele><time>2022-05-15T07:15:47.000Z</time></trkpt><trkpt lon="5.5766" lat="50.989342"><ele>82.4</ele><time>2022-05-15T07:15:48.000Z</time></trkpt><trkpt lon="5.576509" lat="50.989334"><ele>82.4</ele><time>2022-05-15T07:15:49.000Z</time></trkpt><trkpt lon="5.576415" lat="50.989334"><ele>82.2</ele><time>2022-05-15T07:15:50.000Z</time></trkpt><trkpt lon="5.576316" lat="50.989327"><ele>82.2</ele><time>2022-05-15T07:15:51.000Z</time></trkpt><trkpt lon="5.576216" lat="50.989323"><ele>82.2</ele><time>2022-05-15T07:15:52.000Z</time></trkpt><trkpt lon="5.576089" lat="50.989319"><ele>82.2</ele><time>2022-05-15T07:15:53.000Z</time></trkpt><trkpt lon="5.575963" lat="50.989315"><ele>82.4</ele><time>2022-05-15T07:15:54.000Z</time></trkpt><trkpt lon="5.575812" lat="50.989315"><ele>82.2</ele><time>2022-05-15T07:15:55.000Z</time></trkpt><trkpt lon="5.575701" lat="50.9893"><ele>82.2</ele><time>2022-05-15T07:15:56.000Z</time></trkpt><trkpt lon="5.575589" lat="50.989289"><ele>82.2</ele><time>2022-05-15T07:15:57.000Z</time></trkpt><trkpt lon="5.575438" lat="50.989264"><ele>82</ele><time>2022-05-15T07:15:58.000Z</time></trkpt><trkpt lon="5.575321" lat="50.989244"><ele>82</ele><time>2022-05-15T07:15:59.000Z</time></trkpt><trkpt lon="5.575217" lat="50.989217"><ele>82</ele><time>2022-05-15T07:16:00.000Z</time></trkpt><trkpt lon="5.575134" lat="50.989185"><ele>82</ele><time>2022-05-15T07:16:01.000Z</time></trkpt><trkpt lon="5.575054" lat="50.989159"><ele>82</ele><time>2022-05-15T07:16:02.000Z</time></trkpt><trkpt lon="5.575012" lat="50.989132"><ele>82</ele><time>2022-05-15T07:16:03.000Z</time></trkpt><trkpt lon="5.574963" lat="50.989095"><ele>82</ele><time>2022-05-15T07:16:04.000Z</time></trkpt><trkpt lon="5.574935" lat="50.989061"><ele>82</ele><time>2022-05-15T07:16:05.000Z</time></trkpt><trkpt lon="5.574903" lat="50.989019"><ele>82</ele><time>2022-05-15T07:16:06.000Z</time></trkpt><trkpt lon="5.574868" lat="50.988995"><ele>82.2</ele><time>2022-05-15T07:16:07.000Z</time></trkpt><trkpt lon="5.574833" lat="50.98898"><ele>82.2</ele><time>2022-05-15T07:16:08.000Z</time></trkpt><trkpt lon="5.574796" lat="50.988969"><ele>82</ele><time>2022-05-15T07:16:09.000Z</time></trkpt><trkpt lon="5.574729" lat="50.98895"><ele>82</ele><time>2022-05-15T07:16:10.000Z</time></trkpt><trkpt lon="5.574649" lat="50.988938"><ele>81.8</ele><time>2022-05-15T07:16:11.000Z</time></trkpt><trkpt lon="5.574549" lat="50.988937"><ele>81.8</ele><time>2022-05-15T07:16:12.000Z</time></trkpt><trkpt lon="5.574442" lat="50.988937"><ele>81.6</ele><time>2022-05-15T07:16:13.000Z</time></trkpt><trkpt lon="5.574315" lat="50.98893"><ele>81.4</ele><time>2022-05-15T07:16:14.000Z</time></trkpt><trkpt lon="5.574218" lat="50.988933"><ele>81.2</ele><time>2022-05-15T07:16:15.000Z</time></trkpt><trkpt lon="5.57411" lat="50.98893"><ele>81</ele><time>2022-05-15T07:16:16.000Z</time></trkpt><trkpt lon="5.573968" lat="50.988919"><ele>80.8</ele><time>2022-05-15T07:16:17.000Z</time></trkpt><trkpt lon="5.573856" lat="50.988918"><ele>80.8</ele><time>2022-05-15T07:16:18.000Z</time></trkpt><trkpt lon="5.57373" lat="50.988926"><ele>80.8</ele><time>2022-05-15T07:16:19.000Z</time></trkpt><trkpt lon="5.573634" lat="50.98894"><ele>80.8</ele><time>2022-05-15T07:16:20.000Z</time></trkpt><trkpt lon="5.57355" lat="50.988959"><ele>80.8</ele><time>2022-05-15T07:16:21.000Z</time></trkpt><trkpt lon="5.573463" lat="50.988975"><ele>80.8</ele><time>2022-05-15T07:16:22.000Z</time></trkpt><trkpt lon="5.573373" lat="50.98899"><ele>80.8</ele><time>2022-05-15T07:16:23.000Z</time></trkpt><trkpt lon="5.573274" lat="50.988998"><ele>80.8</ele><time>2022-05-15T07:16:24.000Z</time></trkpt><trkpt lon="5.573192" lat="50.988995"><ele>80.8</ele><time>2022-05-15T07:16:25.000Z</time></trkpt><trkpt lon="5.573131" lat="50.988973"><ele>81</ele><time>2022-05-15T07:16:26.000Z</time></trkpt><trkpt lon="5.57308" lat="50.988953"><ele>81</ele><time>2022-05-15T07:16:27.000Z</time></trkpt><trkpt lon="5.573032" lat="50.98892"><ele>81.2</ele><time>2022-05-15T07:16:28.000Z</time></trkpt><trkpt lon="5.573001" lat="50.988871"><ele>81.2</ele><time>2022-05-15T07:16:29.000Z</time></trkpt><trkpt lon="5.572975" lat="50.988822"><ele>81.2</ele><time>2022-05-15T07:16:30.000Z</time></trkpt><trkpt lon="5.572957" lat="50.988767"><ele>81</ele><time>2022-05-15T07:16:31.000Z</time></trkpt><trkpt lon="5.572939" lat="50.988711"><ele>81</ele><time>2022-05-15T07:16:32.000Z</time></trkpt><trkpt lon="5.572918" lat="50.988658"><ele>80.8</ele><time>2022-05-15T07:16:33.000Z</time></trkpt><trkpt lon="5.572896" lat="50.988603"><ele>81</ele><time>2022-05-15T07:16:34.000Z</time></trkpt><trkpt lon="5.572874" lat="50.988552"><ele>81</ele><time>2022-05-15T07:16:35.000Z</time></trkpt><trkpt lon="5.572858" lat="50.988508"><ele>81</ele><time>2022-05-15T07:16:36.000Z</time></trkpt><trkpt lon="5.572849" lat="50.98846"><ele>80.8</ele><time>2022-05-15T07:16:37.000Z</time></trkpt><trkpt lon="5.572831" lat="50.988405"><ele>80.8</ele><time>2022-05-15T07:16:38.000Z</time></trkpt><trkpt lon="5.572822" lat="50.988352"><ele>80.8</ele><time>2022-05-15T07:16:39.000Z</time></trkpt><trkpt lon="5.572804" lat="50.988299"><ele>80.8</ele><time>2022-05-15T07:16:40.000Z</time></trkpt><trkpt lon="5.572787" lat="50.988241"><ele>80.6</ele><time>2022-05-15T07:16:41.000Z</time></trkpt><trkpt lon="5.572774" lat="50.988178"><ele>80.6</ele><time>2022-05-15T07:16:42.000Z</time></trkpt><trkpt lon="5.572764" lat="50.988118"><ele>80.4</ele><time>2022-05-15T07:16:43.000Z</time></trkpt><trkpt lon="5.572752" lat="50.988062"><ele>80.4</ele><time>2022-05-15T07:16:44.000Z</time></trkpt><trkpt lon="5.572737" lat="50.988008"><ele>80.4</ele><time>2022-05-15T07:16:45.000Z</time></trkpt><trkpt lon="5.572721" lat="50.987955"><ele>80.4</ele><time>2022-05-15T07:16:46.000Z</time></trkpt><trkpt lon="5.572703" lat="50.987907"><ele>80.4</ele><time>2022-05-15T07:16:47.000Z</time></trkpt><trkpt lon="5.572697" lat="50.987856"><ele>80.4</ele><time>2022-05-15T07:16:48.000Z</time></trkpt><trkpt lon="5.572685" lat="50.987799"><ele>80.2</ele><time>2022-05-15T07:16:49.000Z</time></trkpt><trkpt lon="5.572676" lat="50.987746"><ele>80</ele><time>2022-05-15T07:16:50.000Z</time></trkpt><trkpt lon="5.572662" lat="50.987696"><ele>80</ele><time>2022-05-15T07:16:51.000Z</time></trkpt><trkpt lon="5.572649" lat="50.987638"><ele>80.2</ele><time>2022-05-15T07:16:52.000Z</time></trkpt><trkpt lon="5.572625" lat="50.987587"><ele>80.2</ele><time>2022-05-15T07:16:53.000Z</time></trkpt><trkpt lon="5.572604" lat="50.987535"><ele>80.2</ele><time>2022-05-15T07:16:54.000Z</time></trkpt><trkpt lon="5.572566" lat="50.987474"><ele>80.2</ele><time>2022-05-15T07:16:55.000Z</time></trkpt><trkpt lon="5.572544" lat="50.987417"><ele>80.2</ele><time>2022-05-15T07:16:56.000Z</time></trkpt><trkpt lon="5.572527" lat="50.987354"><ele>80.2</ele><time>2022-05-15T07:16:57.000Z</time></trkpt><trkpt lon="5.57252" lat="50.987296"><ele>80.4</ele><time>2022-05-15T07:16:58.000Z</time></trkpt><trkpt lon="5.572507" lat="50.987239"><ele>80.2</ele><time>2022-05-15T07:16:59.000Z</time></trkpt><trkpt lon="5.572491" lat="50.987184"><ele>80.2</ele><time>2022-05-15T07:17:00.000Z</time></trkpt><trkpt lon="5.572459" lat="50.987129"><ele>80.2</ele><time>2022-05-15T07:17:01.000Z</time></trkpt><trkpt lon="5.572442" lat="50.98707"><ele>80.2</ele><time>2022-05-15T07:17:02.000Z</time></trkpt><trkpt lon="5.572421" lat="50.987013"><ele>80.4</ele><time>2022-05-15T07:17:03.000Z</time></trkpt><trkpt lon="5.572407" lat="50.986956"><ele>80.4</ele><time>2022-05-15T07:17:04.000Z</time></trkpt><trkpt lon="5.572391" lat="50.986906"><ele>80.4</ele><time>2022-05-15T07:17:05.000Z</time></trkpt><trkpt lon="5.572367" lat="50.986852"><ele>80.2</ele><time>2022-05-15T07:17:06.000Z</time></trkpt><trkpt lon="5.572351" lat="50.9868"><ele>80.2</ele><time>2022-05-15T07:17:07.000Z</time></trkpt><trkpt lon="5.572332" lat="50.986738"><ele>80</ele><time>2022-05-15T07:17:08.000Z</time></trkpt><trkpt lon="5.572317" lat="50.986677"><ele>80</ele><time>2022-05-15T07:17:09.000Z</time></trkpt><trkpt lon="5.57231" lat="50.986633"><ele>80</ele><time>2022-05-15T07:17:10.000Z</time></trkpt><trkpt lon="5.572293" lat="50.986574"><ele>80</ele><time>2022-05-15T07:17:11.000Z</time></trkpt><trkpt lon="5.572274" lat="50.986499"><ele>80.2</ele><time>2022-05-15T07:17:12.000Z</time></trkpt><trkpt lon="5.572247" lat="50.986415"><ele>80.4</ele><time>2022-05-15T07:17:13.000Z</time></trkpt><trkpt lon="5.572221" lat="50.986345"><ele>80.4</ele><time>2022-05-15T07:17:14.000Z</time></trkpt><trkpt lon="5.572209" lat="50.986281"><ele>80.6</ele><time>2022-05-15T07:17:15.000Z</time></trkpt><trkpt lon="5.572199" lat="50.986223"><ele>80.4</ele><time>2022-05-15T07:17:16.000Z</time></trkpt><trkpt lon="5.572183" lat="50.986171"><ele>80.4</ele><time>2022-05-15T07:17:17.000Z</time></trkpt><trkpt lon="5.572153" lat="50.986105"><ele>80.6</ele><time>2022-05-15T07:17:18.000Z</time></trkpt><trkpt lon="5.572114" lat="50.986044"><ele>80.6</ele><time>2022-05-15T07:17:19.000Z</time></trkpt><trkpt lon="5.572091" lat="50.985975"><ele>80.8</ele><time>2022-05-15T07:17:20.000Z</time></trkpt><trkpt lon="5.572059" lat="50.98591"><ele>80.8</ele><time>2022-05-15T07:17:21.000Z</time></trkpt><trkpt lon="5.572028" lat="50.985842"><ele>81</ele><time>2022-05-15T07:17:22.000Z</time></trkpt><trkpt lon="5.572006" lat="50.985783"><ele>81</ele><time>2022-05-15T07:17:23.000Z</time></trkpt><trkpt lon="5.571973" lat="50.985708"><ele>81.2</ele><time>2022-05-15T07:17:24.000Z</time></trkpt><trkpt lon="5.571946" lat="50.985656"><ele>81.2</ele><time>2022-05-15T07:17:25.000Z</time></trkpt><trkpt lon="5.571918" lat="50.985605"><ele>81.4</ele><time>2022-05-15T07:17:26.000Z</time></trkpt><trkpt lon="5.571896" lat="50.985548"><ele>81.4</ele><time>2022-05-15T07:17:27.000Z</time></trkpt><trkpt lon="5.571864" lat="50.98548"><ele>81.4</ele><time>2022-05-15T07:17:28.000Z</time></trkpt><trkpt lon="5.571844" lat="50.985431"><ele>81.6</ele><time>2022-05-15T07:17:29.000Z</time></trkpt><trkpt lon="5.5718" lat="50.985359"><ele>81.6</ele><time>2022-05-15T07:17:30.000Z</time></trkpt><trkpt lon="5.571765" lat="50.985276"><ele>81.6</ele><time>2022-05-15T07:17:31.000Z</time></trkpt><trkpt lon="5.571752" lat="50.985209"><ele>81.6</ele><time>2022-05-15T07:17:32.000Z</time></trkpt><trkpt lon="5.571695" lat="50.985116"><ele>81.6</ele><time>2022-05-15T07:17:33.000Z</time></trkpt><trkpt lon="5.571674" lat="50.985049"><ele>81.6</ele><time>2022-05-15T07:17:34.000Z</time></trkpt><trkpt lon="5.571638" lat="50.984987"><ele>81.8</ele><time>2022-05-15T07:17:35.000Z</time></trkpt><trkpt lon="5.571613" lat="50.984923"><ele>81.8</ele><time>2022-05-15T07:17:36.000Z</time></trkpt><trkpt lon="5.571596" lat="50.984854"><ele>81.8</ele><time>2022-05-15T07:17:37.000Z</time></trkpt><trkpt lon="5.571574" lat="50.984783"><ele>81.8</ele><time>2022-05-15T07:17:38.000Z</time></trkpt><trkpt lon="5.57155" lat="50.984716"><ele>81.8</ele><time>2022-05-15T07:17:39.000Z</time></trkpt><trkpt lon="5.571523" lat="50.984637"><ele>81.8</ele><time>2022-05-15T07:17:40.000Z</time></trkpt><trkpt lon="5.571496" lat="50.984556"><ele>81.8</ele><time>2022-05-15T07:17:41.000Z</time></trkpt><trkpt lon="5.571476" lat="50.984488"><ele>82</ele><time>2022-05-15T07:17:42.000Z</time></trkpt><trkpt lon="5.571459" lat="50.984431"><ele>82</ele><time>2022-05-15T07:17:43.000Z</time></trkpt><trkpt lon="5.571444" lat="50.984366"><ele>82</ele><time>2022-05-15T07:17:44.000Z</time></trkpt><trkpt lon="5.571429" lat="50.984312"><ele>82</ele><time>2022-05-15T07:17:45.000Z</time></trkpt><trkpt lon="5.571419" lat="50.98424"><ele>82</ele><time>2022-05-15T07:17:46.000Z</time></trkpt><trkpt lon="5.571411" lat="50.984172"><ele>82</ele><time>2022-05-15T07:17:47.000Z</time></trkpt><trkpt lon="5.571401" lat="50.984111"><ele>82</ele><time>2022-05-15T07:17:48.000Z</time></trkpt><trkpt lon="5.571381" lat="50.98406"><ele>82.2</ele><time>2022-05-15T07:17:49.000Z</time></trkpt><trkpt lon="5.571369" lat="50.984007"><ele>82.2</ele><time>2022-05-15T07:17:50.000Z</time></trkpt><trkpt lon="5.571352" lat="50.98395"><ele>82.6</ele><time>2022-05-15T07:17:51.000Z</time></trkpt><trkpt lon="5.571339" lat="50.983893"><ele>82.6</ele><time>2022-05-15T07:17:52.000Z</time></trkpt><trkpt lon="5.571325" lat="50.983827"><ele>82.8</ele><time>2022-05-15T07:17:53.000Z</time></trkpt><trkpt lon="5.571307" lat="50.983767"><ele>82.8</ele><time>2022-05-15T07:17:54.000Z</time></trkpt><trkpt lon="5.571295" lat="50.983705"><ele>83</ele><time>2022-05-15T07:17:55.000Z</time></trkpt><trkpt lon="5.571277" lat="50.983652"><ele>83.2</ele><time>2022-05-15T07:17:56.000Z</time></trkpt><trkpt lon="5.571262" lat="50.983595"><ele>83.2</ele><time>2022-05-15T07:17:57.000Z</time></trkpt><trkpt lon="5.571241" lat="50.98353"><ele>83.2</ele><time>2022-05-15T07:17:58.000Z</time></trkpt><trkpt lon="5.571226" lat="50.983465"><ele>83.2</ele><time>2022-05-15T07:17:59.000Z</time></trkpt><trkpt lon="5.571207" lat="50.983401"><ele>83.2</ele><time>2022-05-15T07:18:00.000Z</time></trkpt><trkpt lon="5.571173" lat="50.983339"><ele>83.2</ele><time>2022-05-15T07:18:01.000Z</time></trkpt><trkpt lon="5.571131" lat="50.983274"><ele>83.2</ele><time>2022-05-15T07:18:02.000Z</time></trkpt><trkpt lon="5.571095" lat="50.983199"><ele>83.2</ele><time>2022-05-15T07:18:03.000Z</time></trkpt><trkpt lon="5.571074" lat="50.983137"><ele>83.2</ele><time>2022-05-15T07:18:04.000Z</time></trkpt><trkpt lon="5.571049" lat="50.983073"><ele>83.4</ele><time>2022-05-15T07:18:05.000Z</time></trkpt><trkpt lon="5.571032" lat="50.983016"><ele>83.4</ele><time>2022-05-15T07:18:06.000Z</time></trkpt><trkpt lon="5.571019" lat="50.98294"><ele>83.4</ele><time>2022-05-15T07:18:07.000Z</time></trkpt><trkpt lon="5.570988" lat="50.982867"><ele>83.4</ele><time>2022-05-15T07:18:08.000Z</time></trkpt><trkpt lon="5.570961" lat="50.982794"><ele>83.4</ele><time>2022-05-15T07:18:09.000Z</time></trkpt><trkpt lon="5.570924" lat="50.982717"><ele>83.4</ele><time>2022-05-15T07:18:10.000Z</time></trkpt><trkpt lon="5.570906" lat="50.982641"><ele>83.4</ele><time>2022-05-15T07:18:11.000Z</time></trkpt><trkpt lon="5.570889" lat="50.982569"><ele>83.4</ele><time>2022-05-15T07:18:12.000Z</time></trkpt><trkpt lon="5.57087" lat="50.982496"><ele>83.4</ele><time>2022-05-15T07:18:13.000Z</time></trkpt><trkpt lon="5.570849" lat="50.982424"><ele>83.4</ele><time>2022-05-15T07:18:14.000Z</time></trkpt><trkpt lon="5.570828" lat="50.982353"><ele>83.4</ele><time>2022-05-15T07:18:15.000Z</time></trkpt><trkpt lon="5.570813" lat="50.982293"><ele>83.4</ele><time>2022-05-15T07:18:16.000Z</time></trkpt><trkpt lon="5.570794" lat="50.982233"><ele>83.4</ele><time>2022-05-15T07:18:17.000Z</time></trkpt><trkpt lon="5.570776" lat="50.982172"><ele>83.4</ele><time>2022-05-15T07:18:18.000Z</time></trkpt><trkpt lon="5.570745" lat="50.982104"><ele>83.4</ele><time>2022-05-15T07:18:19.000Z</time></trkpt><trkpt lon="5.570726" lat="50.98205"><ele>83.4</ele><time>2022-05-15T07:18:20.000Z</time></trkpt><trkpt lon="5.570693" lat="50.981978"><ele>83.2</ele><time>2022-05-15T07:18:21.000Z</time></trkpt><trkpt lon="5.570678" lat="50.981919"><ele>83.2</ele><time>2022-05-15T07:18:22.000Z</time></trkpt><trkpt lon="5.570661" lat="50.981854"><ele>83.2</ele><time>2022-05-15T07:18:23.000Z</time></trkpt><trkpt lon="5.570638" lat="50.981785"><ele>83.2</ele><time>2022-05-15T07:18:24.000Z</time></trkpt><trkpt lon="5.570619" lat="50.981715"><ele>83.2</ele><time>2022-05-15T07:18:25.000Z</time></trkpt><trkpt lon="5.570593" lat="50.981649"><ele>83.2</ele><time>2022-05-15T07:18:26.000Z</time></trkpt><trkpt lon="5.570573" lat="50.981578"><ele>83.2</ele><time>2022-05-15T07:18:27.000Z</time></trkpt><trkpt lon="5.570549" lat="50.981509"><ele>83.4</ele><time>2022-05-15T07:18:28.000Z</time></trkpt><trkpt lon="5.570527" lat="50.981447"><ele>83.6</ele><time>2022-05-15T07:18:29.000Z</time></trkpt><trkpt lon="5.570496" lat="50.981383"><ele>83.6</ele><time>2022-05-15T07:18:30.000Z</time></trkpt><trkpt lon="5.570467" lat="50.981314"><ele>83.6</ele><time>2022-05-15T07:18:31.000Z</time></trkpt><trkpt lon="5.570442" lat="50.981255"><ele>83.8</ele><time>2022-05-15T07:18:32.000Z</time></trkpt><trkpt lon="5.570417" lat="50.981181"><ele>83.8</ele><time>2022-05-15T07:18:33.000Z</time></trkpt><trkpt lon="5.570389" lat="50.981114"><ele>84</ele><time>2022-05-15T07:18:34.000Z</time></trkpt><trkpt lon="5.570361" lat="50.981047"><ele>84</ele><time>2022-05-15T07:18:35.000Z</time></trkpt><trkpt lon="5.570341" lat="50.980983"><ele>84.2</ele><time>2022-05-15T07:18:36.000Z</time></trkpt><trkpt lon="5.570319" lat="50.980917"><ele>84.2</ele><time>2022-05-15T07:18:37.000Z</time></trkpt><trkpt lon="5.570305" lat="50.980853"><ele>84.4</ele><time>2022-05-15T07:18:38.000Z</time></trkpt><trkpt lon="5.570291" lat="50.980784"><ele>84.4</ele><time>2022-05-15T07:18:39.000Z</time></trkpt><trkpt lon="5.570275" lat="50.980727"><ele>84.4</ele><time>2022-05-15T07:18:40.000Z</time></trkpt><trkpt lon="5.570254" lat="50.980665"><ele>84.4</ele><time>2022-05-15T07:18:41.000Z</time></trkpt><trkpt lon="5.570237" lat="50.980608"><ele>84.4</ele><time>2022-05-15T07:18:42.000Z</time></trkpt><trkpt lon="5.570221" lat="50.980553"><ele>84.6</ele><time>2022-05-15T07:18:43.000Z</time></trkpt><trkpt lon="5.570204" lat="50.980493"><ele>84.6</ele><time>2022-05-15T07:18:44.000Z</time></trkpt><trkpt lon="5.570181" lat="50.98044"><ele>84.6</ele><time>2022-05-15T07:18:45.000Z</time></trkpt><trkpt lon="5.570167" lat="50.980376"><ele>84.6</ele><time>2022-05-15T07:18:46.000Z</time></trkpt><trkpt lon="5.57013" lat="50.980311"><ele>84.8</ele><time>2022-05-15T07:18:47.000Z</time></trkpt><trkpt lon="5.570114" lat="50.98025"><ele>84.8</ele><time>2022-05-15T07:18:48.000Z</time></trkpt><trkpt lon="5.570102" lat="50.980189"><ele>84.8</ele><time>2022-05-15T07:18:49.000Z</time></trkpt><trkpt lon="5.570088" lat="50.980126"><ele>85</ele><time>2022-05-15T07:18:50.000Z</time></trkpt><trkpt lon="5.570069" lat="50.980059"><ele>85</ele><time>2022-05-15T07:18:51.000Z</time></trkpt><trkpt lon="5.570048" lat="50.979988"><ele>85</ele><time>2022-05-15T07:18:52.000Z</time></trkpt><trkpt lon="5.570027" lat="50.979921"><ele>85.2</ele><time>2022-05-15T07:18:53.000Z</time></trkpt><trkpt lon="5.569989" lat="50.979845"><ele>85.2</ele><time>2022-05-15T07:18:54.000Z</time></trkpt><trkpt lon="5.569948" lat="50.979773"><ele>85.2</ele><time>2022-05-15T07:18:55.000Z</time></trkpt><trkpt lon="5.569924" lat="50.979705"><ele>85.2</ele><time>2022-05-15T07:18:56.000Z</time></trkpt><trkpt lon="5.569902" lat="50.979625"><ele>85.2</ele><time>2022-05-15T07:18:57.000Z</time></trkpt><trkpt lon="5.569879" lat="50.97956"><ele>85.2</ele><time>2022-05-15T07:18:58.000Z</time></trkpt><trkpt lon="5.56985" lat="50.979491"><ele>85.2</ele><time>2022-05-15T07:18:59.000Z</time></trkpt><trkpt lon="5.569818" lat="50.979424"><ele>85.2</ele><time>2022-05-15T07:19:00.000Z</time></trkpt><trkpt lon="5.569793" lat="50.97935"><ele>85.2</ele><time>2022-05-15T07:19:01.000Z</time></trkpt><trkpt lon="5.569767" lat="50.979273"><ele>85</ele><time>2022-05-15T07:19:02.000Z</time></trkpt><trkpt lon="5.569742" lat="50.979203"><ele>85</ele><time>2022-05-15T07:19:03.000Z</time></trkpt><trkpt lon="5.569722" lat="50.979141"><ele>84.8</ele><time>2022-05-15T07:19:04.000Z</time></trkpt><trkpt lon="5.569701" lat="50.97907"><ele>84.6</ele><time>2022-05-15T07:19:05.000Z</time></trkpt><trkpt lon="5.569679" lat="50.978999"><ele>84.4</ele><time>2022-05-15T07:19:06.000Z</time></trkpt><trkpt lon="5.569651" lat="50.97892"><ele>84.4</ele><time>2022-05-15T07:19:07.000Z</time></trkpt><trkpt lon="5.569624" lat="50.978854"><ele>84.2</ele><time>2022-05-15T07:19:08.000Z</time></trkpt><trkpt lon="5.569609" lat="50.978804"><ele>84.2</ele><time>2022-05-15T07:19:09.000Z</time></trkpt><trkpt lon="5.569588" lat="50.978729"><ele>84.2</ele><time>2022-05-15T07:19:10.000Z</time></trkpt><trkpt lon="5.569572" lat="50.97866"><ele>84.2</ele><time>2022-05-15T07:19:11.000Z</time></trkpt><trkpt lon="5.569555" lat="50.97859"><ele>84.2</ele><time>2022-05-15T07:19:12.000Z</time></trkpt><trkpt lon="5.569533" lat="50.978524"><ele>84.4</ele><time>2022-05-15T07:19:13.000Z</time></trkpt><trkpt lon="5.569516" lat="50.978461"><ele>84.4</ele><time>2022-05-15T07:19:14.000Z</time></trkpt><trkpt lon="5.569493" lat="50.978401"><ele>84.4</ele><time>2022-05-15T07:19:15.000Z</time></trkpt><trkpt lon="5.569476" lat="50.978338"><ele>84.4</ele><time>2022-05-15T07:19:16.000Z</time></trkpt><trkpt lon="5.569455" lat="50.978278"><ele>84.2</ele><time>2022-05-15T07:19:17.000Z</time></trkpt><trkpt lon="5.569439" lat="50.978213"><ele>84.2</ele><time>2022-05-15T07:19:18.000Z</time></trkpt><trkpt lon="5.56942" lat="50.978153"><ele>84.2</ele><time>2022-05-15T07:19:19.000Z</time></trkpt><trkpt lon="5.569404" lat="50.978091"><ele>84.2</ele><time>2022-05-15T07:19:20.000Z</time></trkpt><trkpt lon="5.569384" lat="50.978028"><ele>84</ele><time>2022-05-15T07:19:21.000Z</time></trkpt><trkpt lon="5.569356" lat="50.977961"><ele>84</ele><time>2022-05-15T07:19:22.000Z</time></trkpt><trkpt lon="5.56933" lat="50.977897"><ele>84</ele><time>2022-05-15T07:19:23.000Z</time></trkpt><trkpt lon="5.569303" lat="50.977831"><ele>84</ele><time>2022-05-15T07:19:24.000Z</time></trkpt><trkpt lon="5.569284" lat="50.977767"><ele>83.8</ele><time>2022-05-15T07:19:25.000Z</time></trkpt><trkpt lon="5.569262" lat="50.977694"><ele>83.8</ele><time>2022-05-15T07:19:26.000Z</time></trkpt><trkpt lon="5.569245" lat="50.977627"><ele>83.6</ele><time>2022-05-15T07:19:27.000Z</time></trkpt><trkpt lon="5.569227" lat="50.977553"><ele>83.6</ele><time>2022-05-15T07:19:28.000Z</time></trkpt><trkpt lon="5.569204" lat="50.977485"><ele>83.6</ele><time>2022-05-15T07:19:29.000Z</time></trkpt><trkpt lon="5.569176" lat="50.977408"><ele>83.6</ele><time>2022-05-15T07:19:30.000Z</time></trkpt><trkpt lon="5.569163" lat="50.977342"><ele>83.6</ele><time>2022-05-15T07:19:31.000Z</time></trkpt><trkpt lon="5.569133" lat="50.977267"><ele>83.6</ele><time>2022-05-15T07:19:32.000Z</time></trkpt><trkpt lon="5.569109" lat="50.977194"><ele>83.6</ele><time>2022-05-15T07:19:33.000Z</time></trkpt><trkpt lon="5.569079" lat="50.977114"><ele>83.4</ele><time>2022-05-15T07:19:34.000Z</time></trkpt><trkpt lon="5.569042" lat="50.977035"><ele>83.4</ele><time>2022-05-15T07:19:35.000Z</time></trkpt><trkpt lon="5.56901" lat="50.976944"><ele>83.4</ele><time>2022-05-15T07:19:36.000Z</time></trkpt><trkpt lon="5.568982" lat="50.976871"><ele>83.2</ele><time>2022-05-15T07:19:37.000Z</time></trkpt><trkpt lon="5.568943" lat="50.976798"><ele>83.2</ele><time>2022-05-15T07:19:38.000Z</time></trkpt><trkpt lon="5.568896" lat="50.976722"><ele>83</ele><time>2022-05-15T07:19:39.000Z</time></trkpt><trkpt lon="5.56884" lat="50.976643"><ele>83</ele><time>2022-05-15T07:19:40.000Z</time></trkpt><trkpt lon="5.568781" lat="50.976562"><ele>82.8</ele><time>2022-05-15T07:19:41.000Z</time></trkpt><trkpt lon="5.568709" lat="50.976489"><ele>82.8</ele><time>2022-05-15T07:19:42.000Z</time></trkpt><trkpt lon="5.568641" lat="50.976421"><ele>82.8</ele><time>2022-05-15T07:19:43.000Z</time></trkpt><trkpt lon="5.56856" lat="50.976336"><ele>82.6</ele><time>2022-05-15T07:19:44.000Z</time></trkpt><trkpt lon="5.56848" lat="50.976253"><ele>82.6</ele><time>2022-05-15T07:19:45.000Z</time></trkpt><trkpt lon="5.568425" lat="50.976178"><ele>82.4</ele><time>2022-05-15T07:19:46.000Z</time></trkpt><trkpt lon="5.568368" lat="50.976102"><ele>82.4</ele><time>2022-05-15T07:19:47.000Z</time></trkpt><trkpt lon="5.56831" lat="50.976018"><ele>82.4</ele><time>2022-05-15T07:19:48.000Z</time></trkpt><trkpt lon="5.56826" lat="50.975943"><ele>82.2</ele><time>2022-05-15T07:19:49.000Z</time></trkpt><trkpt lon="5.568218" lat="50.97587"><ele>82.2</ele><time>2022-05-15T07:19:50.000Z</time></trkpt><trkpt lon="5.568175" lat="50.975791"><ele>82</ele><time>2022-05-15T07:19:51.000Z</time></trkpt><trkpt lon="5.568119" lat="50.975698"><ele>82</ele><time>2022-05-15T07:19:52.000Z</time></trkpt><trkpt lon="5.568066" lat="50.975602"><ele>82</ele><time>2022-05-15T07:19:53.000Z</time></trkpt><trkpt lon="5.568022" lat="50.975514"><ele>81.8</ele><time>2022-05-15T07:19:54.000Z</time></trkpt><trkpt lon="5.56799" lat="50.975431"><ele>81.8</ele><time>2022-05-15T07:19:55.000Z</time></trkpt><trkpt lon="5.567958" lat="50.975348"><ele>81.8</ele><time>2022-05-15T07:19:56.000Z</time></trkpt><trkpt lon="5.567922" lat="50.975265"><ele>81.8</ele><time>2022-05-15T07:19:57.000Z</time></trkpt><trkpt lon="5.567891" lat="50.975185"><ele>81.6</ele><time>2022-05-15T07:19:58.000Z</time></trkpt><trkpt lon="5.567871" lat="50.975108"><ele>81.6</ele><time>2022-05-15T07:19:59.000Z</time></trkpt><trkpt lon="5.567851" lat="50.975039"><ele>81.6</ele><time>2022-05-15T07:20:00.000Z</time></trkpt><trkpt lon="5.567826" lat="50.974972"><ele>81.8</ele><time>2022-05-15T07:20:01.000Z</time></trkpt><trkpt lon="5.567798" lat="50.974894"><ele>82</ele><time>2022-05-15T07:20:02.000Z</time></trkpt><trkpt lon="5.567775" lat="50.974824"><ele>82.4</ele><time>2022-05-15T07:20:03.000Z</time></trkpt><trkpt lon="5.567751" lat="50.974749"><ele>82.6</ele><time>2022-05-15T07:20:04.000Z</time></trkpt><trkpt lon="5.567728" lat="50.974685"><ele>82.8</ele><time>2022-05-15T07:20:05.000Z</time></trkpt><trkpt lon="5.567701" lat="50.974612"><ele>83.2</ele><time>2022-05-15T07:20:06.000Z</time></trkpt><trkpt lon="5.567676" lat="50.974544"><ele>83.4</ele><time>2022-05-15T07:20:07.000Z</time></trkpt><trkpt lon="5.567656" lat="50.974476"><ele>83.6</ele><time>2022-05-15T07:20:08.000Z</time></trkpt><trkpt lon="5.567638" lat="50.974411"><ele>84</ele><time>2022-05-15T07:20:09.000Z</time></trkpt><trkpt lon="5.567619" lat="50.974344"><ele>84.2</ele><time>2022-05-15T07:20:10.000Z</time></trkpt><trkpt lon="5.567599" lat="50.974279"><ele>84.4</ele><time>2022-05-15T07:20:11.000Z</time></trkpt><trkpt lon="5.567582" lat="50.974214"><ele>84.8</ele><time>2022-05-15T07:20:12.000Z</time></trkpt><trkpt lon="5.567559" lat="50.974147"><ele>85</ele><time>2022-05-15T07:20:13.000Z</time></trkpt><trkpt lon="5.567539" lat="50.974078"><ele>85.2</ele><time>2022-05-15T07:20:14.000Z</time></trkpt><trkpt lon="5.567516" lat="50.974009"><ele>85.6</ele><time>2022-05-15T07:20:15.000Z</time></trkpt><trkpt lon="5.567491" lat="50.973944"><ele>85.8</ele><time>2022-05-15T07:20:16.000Z</time></trkpt><trkpt lon="5.567472" lat="50.97388"><ele>86</ele><time>2022-05-15T07:20:17.000Z</time></trkpt><trkpt lon="5.567446" lat="50.973811"><ele>86.2</ele><time>2022-05-15T07:20:18.000Z</time></trkpt><trkpt lon="5.567424" lat="50.973746"><ele>86.6</ele><time>2022-05-15T07:20:19.000Z</time></trkpt><trkpt lon="5.567407" lat="50.973677"><ele>87</ele><time>2022-05-15T07:20:20.000Z</time></trkpt><trkpt lon="5.567384" lat="50.973613"><ele>87.2</ele><time>2022-05-15T07:20:21.000Z</time></trkpt><trkpt lon="5.567363" lat="50.973548"><ele>87.4</ele><time>2022-05-15T07:20:22.000Z</time></trkpt><trkpt lon="5.567345" lat="50.973483"><ele>87.8</ele><time>2022-05-15T07:20:23.000Z</time></trkpt><trkpt lon="5.567326" lat="50.97341"><ele>88</ele><time>2022-05-15T07:20:24.000Z</time></trkpt><trkpt lon="5.567313" lat="50.973344"><ele>88.2</ele><time>2022-05-15T07:20:25.000Z</time></trkpt><trkpt lon="5.5673" lat="50.973276"><ele>88.4</ele><time>2022-05-15T07:20:26.000Z</time></trkpt><trkpt lon="5.567289" lat="50.973211"><ele>88.6</ele><time>2022-05-15T07:20:27.000Z</time></trkpt><trkpt lon="5.567264" lat="50.973143"><ele>88.6</ele><time>2022-05-15T07:20:28.000Z</time></trkpt><trkpt lon="5.567241" lat="50.973075"><ele>89</ele><time>2022-05-15T07:20:29.000Z</time></trkpt><trkpt lon="5.56722" lat="50.973007"><ele>89</ele><time>2022-05-15T07:20:30.000Z</time></trkpt><trkpt lon="5.567199" lat="50.972941"><ele>89.2</ele><time>2022-05-15T07:20:31.000Z</time></trkpt><trkpt lon="5.567176" lat="50.972872"><ele>89.2</ele><time>2022-05-15T07:20:32.000Z</time></trkpt><trkpt lon="5.567155" lat="50.97281"><ele>89.2</ele><time>2022-05-15T07:20:33.000Z</time></trkpt><trkpt lon="5.567131" lat="50.972738"><ele>89.4</ele><time>2022-05-15T07:20:34.000Z</time></trkpt><trkpt lon="5.567109" lat="50.97267"><ele>89.4</ele><time>2022-05-15T07:20:35.000Z</time></trkpt><trkpt lon="5.567089" lat="50.972605"><ele>89.4</ele><time>2022-05-15T07:20:36.000Z</time></trkpt><trkpt lon="5.567066" lat="50.972538"><ele>89.4</ele><time>2022-05-15T07:20:37.000Z</time></trkpt><trkpt lon="5.567044" lat="50.972472"><ele>89.4</ele><time>2022-05-15T07:20:38.000Z</time></trkpt><trkpt lon="5.567025" lat="50.972417"><ele>89.2</ele><time>2022-05-15T07:20:39.000Z</time></trkpt><trkpt lon="5.566998" lat="50.972343"><ele>89.4</ele><time>2022-05-15T07:20:40.000Z</time></trkpt><trkpt lon="5.566971" lat="50.972285"><ele>89.4</ele><time>2022-05-15T07:20:41.000Z</time></trkpt><trkpt lon="5.566938" lat="50.972224"><ele>89.2</ele><time>2022-05-15T07:20:42.000Z</time></trkpt><trkpt lon="5.566907" lat="50.972165"><ele>89.2</ele><time>2022-05-15T07:20:43.000Z</time></trkpt><trkpt lon="5.566879" lat="50.972097"><ele>89</ele><time>2022-05-15T07:20:44.000Z</time></trkpt><trkpt lon="5.566855" lat="50.972034"><ele>89</ele><time>2022-05-15T07:20:45.000Z</time></trkpt><trkpt lon="5.566832" lat="50.971968"><ele>88.8</ele><time>2022-05-15T07:20:46.000Z</time></trkpt><trkpt lon="5.566813" lat="50.971901"><ele>88.8</ele><time>2022-05-15T07:20:47.000Z</time></trkpt><trkpt lon="5.566791" lat="50.971835"><ele>88.6</ele><time>2022-05-15T07:20:48.000Z</time></trkpt><trkpt lon="5.566765" lat="50.971772"><ele>88.4</ele><time>2022-05-15T07:20:49.000Z</time></trkpt><trkpt lon="5.566737" lat="50.971701"><ele>88.2</ele><time>2022-05-15T07:20:50.000Z</time></trkpt><trkpt lon="5.566713" lat="50.971633"><ele>88</ele><time>2022-05-15T07:20:51.000Z</time></trkpt><trkpt lon="5.566688" lat="50.971565"><ele>87.8</ele><time>2022-05-15T07:20:52.000Z</time></trkpt><trkpt lon="5.566664" lat="50.971494"><ele>87.4</ele><time>2022-05-15T07:20:53.000Z</time></trkpt><trkpt lon="5.566636" lat="50.971419"><ele>87.2</ele><time>2022-05-15T07:20:54.000Z</time></trkpt><trkpt lon="5.566614" lat="50.971354"><ele>87</ele><time>2022-05-15T07:20:55.000Z</time></trkpt><trkpt lon="5.566586" lat="50.971275"><ele>86.8</ele><time>2022-05-15T07:20:56.000Z</time></trkpt><trkpt lon="5.566564" lat="50.971203"><ele>86.4</ele><time>2022-05-15T07:20:57.000Z</time></trkpt><trkpt lon="5.566544" lat="50.971122"><ele>86</ele><time>2022-05-15T07:20:58.000Z</time></trkpt><trkpt lon="5.566523" lat="50.971047"><ele>85.6</ele><time>2022-05-15T07:20:59.000Z</time></trkpt><trkpt lon="5.566499" lat="50.970973"><ele>85.4</ele><time>2022-05-15T07:21:00.000Z</time></trkpt><trkpt lon="5.566472" lat="50.970895"><ele>85.2</ele><time>2022-05-15T07:21:01.000Z</time></trkpt><trkpt lon="5.56644" lat="50.970813"><ele>84.8</ele><time>2022-05-15T07:21:02.000Z</time></trkpt><trkpt lon="5.566415" lat="50.970743"><ele>84.6</ele><time>2022-05-15T07:21:03.000Z</time></trkpt><trkpt lon="5.566383" lat="50.970656"><ele>84.4</ele><time>2022-05-15T07:21:04.000Z</time></trkpt><trkpt lon="5.566355" lat="50.970581"><ele>84.4</ele><time>2022-05-15T07:21:05.000Z</time></trkpt><trkpt lon="5.566331" lat="50.970507"><ele>84.2</ele><time>2022-05-15T07:21:06.000Z</time></trkpt><trkpt lon="5.566311" lat="50.970446"><ele>84.2</ele><time>2022-05-15T07:21:07.000Z</time></trkpt><trkpt lon="5.566287" lat="50.970374"><ele>84.2</ele><time>2022-05-15T07:21:08.000Z</time></trkpt><trkpt lon="5.566268" lat="50.970313"><ele>84.2</ele><time>2022-05-15T07:21:09.000Z</time></trkpt><trkpt lon="5.566241" lat="50.970233"><ele>84.4</ele><time>2022-05-15T07:21:10.000Z</time></trkpt><trkpt lon="5.566214" lat="50.970161"><ele>84.4</ele><time>2022-05-15T07:21:11.000Z</time></trkpt><trkpt lon="5.566192" lat="50.970091"><ele>84.4</ele><time>2022-05-15T07:21:12.000Z</time></trkpt><trkpt lon="5.566169" lat="50.970027"><ele>84.6</ele><time>2022-05-15T07:21:13.000Z</time></trkpt><trkpt lon="5.566146" lat="50.969954"><ele>84.6</ele><time>2022-05-15T07:21:14.000Z</time></trkpt><trkpt lon="5.566126" lat="50.969891"><ele>84.8</ele><time>2022-05-15T07:21:15.000Z</time></trkpt><trkpt lon="5.566109" lat="50.969822"><ele>84.8</ele><time>2022-05-15T07:21:16.000Z</time></trkpt><trkpt lon="5.566094" lat="50.969768"><ele>85</ele><time>2022-05-15T07:21:17.000Z</time></trkpt><trkpt lon="5.566071" lat="50.969688"><ele>85</ele><time>2022-05-15T07:21:18.000Z</time></trkpt><trkpt lon="5.566056" lat="50.969619"><ele>85.2</ele><time>2022-05-15T07:21:19.000Z</time></trkpt><trkpt lon="5.566047" lat="50.969555"><ele>85.2</ele><time>2022-05-15T07:21:20.000Z</time></trkpt><trkpt lon="5.56604" lat="50.96949"><ele>85.2</ele><time>2022-05-15T07:21:21.000Z</time></trkpt><trkpt lon="5.566034" lat="50.969428"><ele>85.4</ele><time>2022-05-15T07:21:22.000Z</time></trkpt><trkpt lon="5.566032" lat="50.969377"><ele>85.6</ele><time>2022-05-15T07:21:23.000Z</time></trkpt><trkpt lon="5.566033" lat="50.969317"><ele>85.6</ele><time>2022-05-15T07:21:24.000Z</time></trkpt><trkpt lon="5.566041" lat="50.969261"><ele>85.6</ele><time>2022-05-15T07:21:25.000Z</time></trkpt><trkpt lon="5.566048" lat="50.96921"><ele>85.6</ele><time>2022-05-15T07:21:26.000Z</time></trkpt><trkpt lon="5.566054" lat="50.969158"><ele>85.6</ele><time>2022-05-15T07:21:27.000Z</time></trkpt><trkpt lon="5.566063" lat="50.969111"><ele>85.6</ele><time>2022-05-15T07:21:28.000Z</time></trkpt><trkpt lon="5.566076" lat="50.969066"><ele>85.8</ele><time>2022-05-15T07:21:29.000Z</time></trkpt><trkpt lon="5.566091" lat="50.96902"><ele>86</ele><time>2022-05-15T07:21:30.000Z</time></trkpt><trkpt lon="5.566096" lat="50.968978"><ele>86</ele><time>2022-05-15T07:21:31.000Z</time></trkpt><trkpt lon="5.5661" lat="50.968933"><ele>86</ele><time>2022-05-15T07:21:32.000Z</time></trkpt><trkpt lon="5.566095" lat="50.968878"><ele>86.2</ele><time>2022-05-15T07:21:33.000Z</time></trkpt><trkpt lon="5.566089" lat="50.968818"><ele>86.2</ele><time>2022-05-15T07:21:34.000Z</time></trkpt><trkpt lon="5.566084" lat="50.968758"><ele>86.2</ele><time>2022-05-15T07:21:35.000Z</time></trkpt><trkpt lon="5.566075" lat="50.968704"><ele>86.4</ele><time>2022-05-15T07:21:36.000Z</time></trkpt><trkpt lon="5.566069" lat="50.968653"><ele>86.6</ele><time>2022-05-15T07:21:37.000Z</time></trkpt><trkpt lon="5.566058" lat="50.968608"><ele>86.6</ele><time>2022-05-15T07:21:38.000Z</time></trkpt><trkpt lon="5.566052" lat="50.968573"><ele>86.8</ele><time>2022-05-15T07:21:39.000Z</time></trkpt><trkpt lon="5.566048" lat="50.968527"><ele>87</ele><time>2022-05-15T07:21:40.000Z</time></trkpt><trkpt lon="5.566045" lat="50.968486"><ele>87.2</ele><time>2022-05-15T07:21:41.000Z</time></trkpt><trkpt lon="5.566042" lat="50.968435"><ele>87.2</ele><time>2022-05-15T07:21:42.000Z</time></trkpt><trkpt lon="5.56604" lat="50.968383"><ele>87.4</ele><time>2022-05-15T07:21:43.000Z</time></trkpt><trkpt lon="5.566034" lat="50.968321"><ele>87.4</ele><time>2022-05-15T07:21:44.000Z</time></trkpt><trkpt lon="5.56603" lat="50.968266"><ele>87.4</ele><time>2022-05-15T07:21:45.000Z</time></trkpt><trkpt lon="5.566031" lat="50.968185"><ele>87.4</ele><time>2022-05-15T07:21:46.000Z</time></trkpt><trkpt lon="5.566022" lat="50.968126"><ele>87.4</ele><time>2022-05-15T07:21:47.000Z</time></trkpt><trkpt lon="5.566012" lat="50.968066"><ele>87.4</ele><time>2022-05-15T07:21:48.000Z</time></trkpt><trkpt lon="5.566001" lat="50.968014"><ele>87.6</ele><time>2022-05-15T07:21:49.000Z</time></trkpt><trkpt lon="5.565983" lat="50.96796"><ele>87.6</ele><time>2022-05-15T07:21:50.000Z</time></trkpt><trkpt lon="5.565955" lat="50.9679"><ele>87.8</ele><time>2022-05-15T07:21:51.000Z</time></trkpt><trkpt lon="5.565942" lat="50.967838"><ele>87.8</ele><time>2022-05-15T07:21:52.000Z</time></trkpt><trkpt lon="5.565921" lat="50.967775"><ele>87.8</ele><time>2022-05-15T07:21:53.000Z</time></trkpt><trkpt lon="5.565904" lat="50.967719"><ele>87.8</ele><time>2022-05-15T07:21:54.000Z</time></trkpt><trkpt lon="5.565887" lat="50.967659"><ele>87.8</ele><time>2022-05-15T07:21:55.000Z</time></trkpt><trkpt lon="5.565864" lat="50.96759"><ele>88</ele><time>2022-05-15T07:21:56.000Z</time></trkpt><trkpt lon="5.565846" lat="50.96752"><ele>88</ele><time>2022-05-15T07:21:57.000Z</time></trkpt><trkpt lon="5.565819" lat="50.96745"><ele>88</ele><time>2022-05-15T07:21:58.000Z</time></trkpt><trkpt lon="5.56579" lat="50.967381"><ele>87.8</ele><time>2022-05-15T07:21:59.000Z</time></trkpt><trkpt lon="5.565774" lat="50.967326"><ele>87.8</ele><time>2022-05-15T07:22:00.000Z</time></trkpt><trkpt lon="5.565759" lat="50.967276"><ele>87.8</ele><time>2022-05-15T07:22:01.000Z</time></trkpt><trkpt lon="5.565742" lat="50.967219"><ele>88</ele><time>2022-05-15T07:22:02.000Z</time></trkpt><trkpt lon="5.565722" lat="50.967159"><ele>88</ele><time>2022-05-15T07:22:03.000Z</time></trkpt><trkpt lon="5.565693" lat="50.967086"><ele>88.2</ele><time>2022-05-15T07:22:04.000Z</time></trkpt><trkpt lon="5.565685" lat="50.967038"><ele>88.2</ele><time>2022-05-15T07:22:05.000Z</time></trkpt><trkpt lon="5.565672" lat="50.966982"><ele>88.4</ele><time>2022-05-15T07:22:06.000Z</time></trkpt><trkpt lon="5.565651" lat="50.966934"><ele>88.4</ele><time>2022-05-15T07:22:07.000Z</time></trkpt><trkpt lon="5.56562" lat="50.966868"><ele>88.2</ele><time>2022-05-15T07:22:08.000Z</time></trkpt><trkpt lon="5.565604" lat="50.966826"><ele>88.4</ele><time>2022-05-15T07:22:09.000Z</time></trkpt><trkpt lon="5.565591" lat="50.966772"><ele>88.4</ele><time>2022-05-15T07:22:10.000Z</time></trkpt><trkpt lon="5.565579" lat="50.966711"><ele>88.4</ele><time>2022-05-15T07:22:11.000Z</time></trkpt><trkpt lon="5.56557" lat="50.96665"><ele>88.6</ele><time>2022-05-15T07:22:12.000Z</time></trkpt><trkpt lon="5.565557" lat="50.966586"><ele>88.6</ele><time>2022-05-15T07:22:13.000Z</time></trkpt><trkpt lon="5.565536" lat="50.966525"><ele>88.6</ele><time>2022-05-15T07:22:14.000Z</time></trkpt><trkpt lon="5.565516" lat="50.96646"><ele>88.6</ele><time>2022-05-15T07:22:15.000Z</time></trkpt><trkpt lon="5.565493" lat="50.966377"><ele>88.6</ele><time>2022-05-15T07:22:16.000Z</time></trkpt><trkpt lon="5.565478" lat="50.966319"><ele>88.4</ele><time>2022-05-15T07:22:17.000Z</time></trkpt><trkpt lon="5.565461" lat="50.966254"><ele>88.2</ele><time>2022-05-15T07:22:18.000Z</time></trkpt><trkpt lon="5.565423" lat="50.96617"><ele>88</ele><time>2022-05-15T07:22:19.000Z</time></trkpt><trkpt lon="5.565394" lat="50.966094"><ele>88</ele><time>2022-05-15T07:22:20.000Z</time></trkpt><trkpt lon="5.565363" lat="50.966025"><ele>88</ele><time>2022-05-15T07:22:21.000Z</time></trkpt><trkpt lon="5.565342" lat="50.965965"><ele>88</ele><time>2022-05-15T07:22:22.000Z</time></trkpt><trkpt lon="5.565311" lat="50.965884"><ele>88</ele><time>2022-05-15T07:22:23.000Z</time></trkpt><trkpt lon="5.565277" lat="50.965803"><ele>88</ele><time>2022-05-15T07:22:24.000Z</time></trkpt><trkpt lon="5.565249" lat="50.965723"><ele>88</ele><time>2022-05-15T07:22:25.000Z</time></trkpt><trkpt lon="5.565217" lat="50.965647"><ele>88</ele><time>2022-05-15T07:22:26.000Z</time></trkpt><trkpt lon="5.565176" lat="50.965571"><ele>88</ele><time>2022-05-15T07:22:27.000Z</time></trkpt><trkpt lon="5.565154" lat="50.965506"><ele>87.8</ele><time>2022-05-15T07:22:28.000Z</time></trkpt><trkpt lon="5.565134" lat="50.965444"><ele>87.6</ele><time>2022-05-15T07:22:29.000Z</time></trkpt><trkpt lon="5.565121" lat="50.965391"><ele>87.6</ele><time>2022-05-15T07:22:30.000Z</time></trkpt><trkpt lon="5.56509" lat="50.965312"><ele>87.4</ele><time>2022-05-15T07:22:31.000Z</time></trkpt><trkpt lon="5.565067" lat="50.965246"><ele>87.4</ele><time>2022-05-15T07:22:32.000Z</time></trkpt><trkpt lon="5.565041" lat="50.965185"><ele>87.4</ele><time>2022-05-15T07:22:33.000Z</time></trkpt><trkpt lon="5.565021" lat="50.965128"><ele>87.4</ele><time>2022-05-15T07:22:34.000Z</time></trkpt><trkpt lon="5.564999" lat="50.965067"><ele>87.4</ele><time>2022-05-15T07:22:35.000Z</time></trkpt><trkpt lon="5.564955" lat="50.965006"><ele>87.4</ele><time>2022-05-15T07:22:36.000Z</time></trkpt><trkpt lon="5.564924" lat="50.964949"><ele>87.4</ele><time>2022-05-15T07:22:37.000Z</time></trkpt><trkpt lon="5.564896" lat="50.964888"><ele>87.4</ele><time>2022-05-15T07:22:38.000Z</time></trkpt><trkpt lon="5.564864" lat="50.964819"><ele>87.2</ele><time>2022-05-15T07:22:39.000Z</time></trkpt><trkpt lon="5.564843" lat="50.964767"><ele>87.2</ele><time>2022-05-15T07:22:40.000Z</time></trkpt><trkpt lon="5.564827" lat="50.964704"><ele>87</ele><time>2022-05-15T07:22:41.000Z</time></trkpt><trkpt lon="5.56482" lat="50.964651"><ele>87</ele><time>2022-05-15T07:22:42.000Z</time></trkpt><trkpt lon="5.564804" lat="50.964579"><ele>87</ele><time>2022-05-15T07:22:43.000Z</time></trkpt><trkpt lon="5.564789" lat="50.964513"><ele>86.8</ele><time>2022-05-15T07:22:44.000Z</time></trkpt><trkpt lon="5.564751" lat="50.964438"><ele>86.8</ele><time>2022-05-15T07:22:45.000Z</time></trkpt><trkpt lon="5.564713" lat="50.964343"><ele>86.8</ele><time>2022-05-15T07:22:46.000Z</time></trkpt><trkpt lon="5.564694" lat="50.964274"><ele>86.8</ele><time>2022-05-15T07:22:47.000Z</time></trkpt><trkpt lon="5.564674" lat="50.964198"><ele>86.6</ele><time>2022-05-15T07:22:48.000Z</time></trkpt><trkpt lon="5.564649" lat="50.964129"><ele>86.4</ele><time>2022-05-15T07:22:49.000Z</time></trkpt><trkpt lon="5.564616" lat="50.964056"><ele>86.4</ele><time>2022-05-15T07:22:50.000Z</time></trkpt><trkpt lon="5.564588" lat="50.96398"><ele>86.4</ele><time>2022-05-15T07:22:51.000Z</time></trkpt><trkpt lon="5.564558" lat="50.963911"><ele>86.4</ele><time>2022-05-15T07:22:52.000Z</time></trkpt><trkpt lon="5.56453" lat="50.963847"><ele>86.2</ele><time>2022-05-15T07:22:53.000Z</time></trkpt><trkpt lon="5.564504" lat="50.963778"><ele>86.2</ele><time>2022-05-15T07:22:54.000Z</time></trkpt><trkpt lon="5.564482" lat="50.96371"><ele>86.2</ele><time>2022-05-15T07:22:55.000Z</time></trkpt><trkpt lon="5.564435" lat="50.963633"><ele>86.2</ele><time>2022-05-15T07:22:56.000Z</time></trkpt><trkpt lon="5.564406" lat="50.963562"><ele>86.2</ele><time>2022-05-15T07:22:57.000Z</time></trkpt><trkpt lon="5.564391" lat="50.963492"><ele>86.2</ele><time>2022-05-15T07:22:58.000Z</time></trkpt><trkpt lon="5.564377" lat="50.963408"><ele>86.2</ele><time>2022-05-15T07:22:59.000Z</time></trkpt><trkpt lon="5.564354" lat="50.963328"><ele>86.2</ele><time>2022-05-15T07:23:00.000Z</time></trkpt><trkpt lon="5.564337" lat="50.963252"><ele>86.2</ele><time>2022-05-15T07:23:01.000Z</time></trkpt><trkpt lon="5.564308" lat="50.963171"><ele>86.2</ele><time>2022-05-15T07:23:02.000Z</time></trkpt><trkpt lon="5.564245" lat="50.963055"><ele>86.2</ele><time>2022-05-15T07:23:03.000Z</time></trkpt><trkpt lon="5.564206" lat="50.962962"><ele>86.2</ele><time>2022-05-15T07:23:04.000Z</time></trkpt><trkpt lon="5.564171" lat="50.962878"><ele>86.2</ele><time>2022-05-15T07:23:05.000Z</time></trkpt><trkpt lon="5.564141" lat="50.962791"><ele>86.2</ele><time>2022-05-15T07:23:06.000Z</time></trkpt><trkpt lon="5.564116" lat="50.962703"><ele>86.2</ele><time>2022-05-15T07:23:07.000Z</time></trkpt><trkpt lon="5.564091" lat="50.96263"><ele>86.2</ele><time>2022-05-15T07:23:08.000Z</time></trkpt><trkpt lon="5.564058" lat="50.962548"><ele>86.2</ele><time>2022-05-15T07:23:09.000Z</time></trkpt><trkpt lon="5.564026" lat="50.962466"><ele>86.2</ele><time>2022-05-15T07:23:10.000Z</time></trkpt><trkpt lon="5.563998" lat="50.962382"><ele>86</ele><time>2022-05-15T07:23:11.000Z</time></trkpt><trkpt lon="5.563971" lat="50.962305"><ele>86</ele><time>2022-05-15T07:23:12.000Z</time></trkpt><trkpt lon="5.563941" lat="50.962225"><ele>86</ele><time>2022-05-15T07:23:13.000Z</time></trkpt><trkpt lon="5.563891" lat="50.962119"><ele>86</ele><time>2022-05-15T07:23:14.000Z</time></trkpt><trkpt lon="5.563853" lat="50.962028"><ele>86</ele><time>2022-05-15T07:23:15.000Z</time></trkpt><trkpt lon="5.563826" lat="50.96194"><ele>86</ele><time>2022-05-15T07:23:16.000Z</time></trkpt><trkpt lon="5.563803" lat="50.961868"><ele>86</ele><time>2022-05-15T07:23:17.000Z</time></trkpt><trkpt lon="5.563781" lat="50.9618"><ele>86</ele><time>2022-05-15T07:23:18.000Z</time></trkpt><trkpt lon="5.56376" lat="50.961729"><ele>86</ele><time>2022-05-15T07:23:19.000Z</time></trkpt><trkpt lon="5.563736" lat="50.961661"><ele>86</ele><time>2022-05-15T07:23:20.000Z</time></trkpt><trkpt lon="5.563714" lat="50.961592"><ele>86</ele><time>2022-05-15T07:23:21.000Z</time></trkpt><trkpt lon="5.563685" lat="50.96151"><ele>86</ele><time>2022-05-15T07:23:22.000Z</time></trkpt><trkpt lon="5.563659" lat="50.961421"><ele>86</ele><time>2022-05-15T07:23:23.000Z</time></trkpt><trkpt lon="5.563632" lat="50.961348"><ele>86</ele><time>2022-05-15T07:23:24.000Z</time></trkpt><trkpt lon="5.563608" lat="50.961284"><ele>86</ele><time>2022-05-15T07:23:25.000Z</time></trkpt><trkpt lon="5.563587" lat="50.961214"><ele>86</ele><time>2022-05-15T07:23:26.000Z</time></trkpt><trkpt lon="5.563572" lat="50.961146"><ele>86</ele><time>2022-05-15T07:23:27.000Z</time></trkpt><trkpt lon="5.563554" lat="50.96107"><ele>86</ele><time>2022-05-15T07:23:28.000Z</time></trkpt><trkpt lon="5.563537" lat="50.960986"><ele>86</ele><time>2022-05-15T07:23:29.000Z</time></trkpt><trkpt lon="5.563514" lat="50.960913"><ele>86</ele><time>2022-05-15T07:23:30.000Z</time></trkpt><trkpt lon="5.563489" lat="50.960834"><ele>86</ele><time>2022-05-15T07:23:31.000Z</time></trkpt><trkpt lon="5.563459" lat="50.960761"><ele>86</ele><time>2022-05-15T07:23:32.000Z</time></trkpt><trkpt lon="5.563433" lat="50.960692"><ele>86</ele><time>2022-05-15T07:23:33.000Z</time></trkpt><trkpt lon="5.563403" lat="50.960616"><ele>86</ele><time>2022-05-15T07:23:34.000Z</time></trkpt><trkpt lon="5.563374" lat="50.960543"><ele>86</ele><time>2022-05-15T07:23:35.000Z</time></trkpt><trkpt lon="5.563351" lat="50.960471"><ele>86</ele><time>2022-05-15T07:23:36.000Z</time></trkpt><trkpt lon="5.563324" lat="50.960398"><ele>86</ele><time>2022-05-15T07:23:37.000Z</time></trkpt><trkpt lon="5.563301" lat="50.960325"><ele>86</ele><time>2022-05-15T07:23:38.000Z</time></trkpt><trkpt lon="5.563274" lat="50.960253"><ele>86</ele><time>2022-05-15T07:23:39.000Z</time></trkpt><trkpt lon="5.563249" lat="50.960176"><ele>86</ele><time>2022-05-15T07:23:40.000Z</time></trkpt><trkpt lon="5.563224" lat="50.960104"><ele>86</ele><time>2022-05-15T07:23:41.000Z</time></trkpt><trkpt lon="5.563201" lat="50.960036"><ele>86.2</ele><time>2022-05-15T07:23:42.000Z</time></trkpt><trkpt lon="5.563176" lat="50.959963"><ele>86.2</ele><time>2022-05-15T07:23:43.000Z</time></trkpt><trkpt lon="5.563151" lat="50.959891"><ele>86.2</ele><time>2022-05-15T07:23:44.000Z</time></trkpt><trkpt lon="5.563126" lat="50.959818"><ele>86</ele><time>2022-05-15T07:23:45.000Z</time></trkpt><trkpt lon="5.563106" lat="50.95975"><ele>86</ele><time>2022-05-15T07:23:46.000Z</time></trkpt><trkpt lon="5.563082" lat="50.959677"><ele>86</ele><time>2022-05-15T07:23:47.000Z</time></trkpt><trkpt lon="5.563062" lat="50.959609"><ele>86.2</ele><time>2022-05-15T07:23:48.000Z</time></trkpt><trkpt lon="5.563046" lat="50.959543"><ele>86.2</ele><time>2022-05-15T07:23:49.000Z</time></trkpt><trkpt lon="5.56303" lat="50.959479"><ele>86.2</ele><time>2022-05-15T07:23:50.000Z</time></trkpt><trkpt lon="5.563011" lat="50.959418"><ele>86.4</ele><time>2022-05-15T07:23:51.000Z</time></trkpt><trkpt lon="5.562991" lat="50.959353"><ele>86.4</ele><time>2022-05-15T07:23:52.000Z</time></trkpt><trkpt lon="5.562968" lat="50.959284"><ele>86.4</ele><time>2022-05-15T07:23:53.000Z</time></trkpt><trkpt lon="5.562949" lat="50.959216"><ele>86.4</ele><time>2022-05-15T07:23:54.000Z</time></trkpt><trkpt lon="5.562924" lat="50.959147"><ele>86.4</ele><time>2022-05-15T07:23:55.000Z</time></trkpt><trkpt lon="5.562901" lat="50.959078"><ele>86.4</ele><time>2022-05-15T07:23:56.000Z</time></trkpt><trkpt lon="5.562879" lat="50.959009"><ele>86.4</ele><time>2022-05-15T07:23:57.000Z</time></trkpt><trkpt lon="5.562857" lat="50.958937"><ele>86.4</ele><time>2022-05-15T07:23:58.000Z</time></trkpt><trkpt lon="5.562836" lat="50.958872"><ele>86.6</ele><time>2022-05-15T07:23:59.000Z</time></trkpt><trkpt lon="5.562811" lat="50.958807"><ele>86.6</ele><time>2022-05-15T07:24:00.000Z</time></trkpt><trkpt lon="5.562781" lat="50.958742"><ele>86.6</ele><time>2022-05-15T07:24:01.000Z</time></trkpt><trkpt lon="5.562756" lat="50.958674"><ele>86.6</ele><time>2022-05-15T07:24:02.000Z</time></trkpt><trkpt lon="5.562731" lat="50.958605"><ele>86.6</ele><time>2022-05-15T07:24:03.000Z</time></trkpt><trkpt lon="5.562704" lat="50.958537"><ele>86.6</ele><time>2022-05-15T07:24:04.000Z</time></trkpt><trkpt lon="5.562679" lat="50.958468"><ele>86.6</ele><time>2022-05-15T07:24:05.000Z</time></trkpt><trkpt lon="5.562652" lat="50.958395"><ele>86.6</ele><time>2022-05-15T07:24:06.000Z</time></trkpt><trkpt lon="5.562626" lat="50.958327"><ele>86.6</ele><time>2022-05-15T07:24:07.000Z</time></trkpt><trkpt lon="5.562602" lat="50.958254"><ele>86.8</ele><time>2022-05-15T07:24:08.000Z</time></trkpt><trkpt lon="5.562579" lat="50.958189"><ele>86.8</ele><time>2022-05-15T07:24:09.000Z</time></trkpt><trkpt lon="5.562561" lat="50.958124"><ele>86.8</ele><time>2022-05-15T07:24:10.000Z</time></trkpt><trkpt lon="5.562542" lat="50.958059"><ele>87</ele><time>2022-05-15T07:24:11.000Z</time></trkpt><trkpt lon="5.562521" lat="50.957996"><ele>87</ele><time>2022-05-15T07:24:12.000Z</time></trkpt><trkpt lon="5.5625" lat="50.957931"><ele>87</ele><time>2022-05-15T07:24:13.000Z</time></trkpt><trkpt lon="5.562477" lat="50.957865"><ele>87</ele><time>2022-05-15T07:24:14.000Z</time></trkpt><trkpt lon="5.562454" lat="50.957796"><ele>87</ele><time>2022-05-15T07:24:15.000Z</time></trkpt><trkpt lon="5.562436" lat="50.957728"><ele>87</ele><time>2022-05-15T07:24:16.000Z</time></trkpt><trkpt lon="5.562413" lat="50.957659"><ele>87</ele><time>2022-05-15T07:24:17.000Z</time></trkpt><trkpt lon="5.562391" lat="50.957587"><ele>87.2</ele><time>2022-05-15T07:24:18.000Z</time></trkpt><trkpt lon="5.562371" lat="50.95752"><ele>87.2</ele><time>2022-05-15T07:24:19.000Z</time></trkpt><trkpt lon="5.562349" lat="50.95745"><ele>87.2</ele><time>2022-05-15T07:24:20.000Z</time></trkpt><trkpt lon="5.562326" lat="50.957385"><ele>87.4</ele><time>2022-05-15T07:24:21.000Z</time></trkpt><trkpt lon="5.562304" lat="50.95732"><ele>87.4</ele><time>2022-05-15T07:24:22.000Z</time></trkpt><trkpt lon="5.562282" lat="50.957254"><ele>87.4</ele><time>2022-05-15T07:24:23.000Z</time></trkpt><trkpt lon="5.562259" lat="50.95719"><ele>87.6</ele><time>2022-05-15T07:24:24.000Z</time></trkpt><trkpt lon="5.562234" lat="50.957122"><ele>87.6</ele><time>2022-05-15T07:24:25.000Z</time></trkpt><trkpt lon="5.562209" lat="50.957056"><ele>87.6</ele><time>2022-05-15T07:24:26.000Z</time></trkpt><trkpt lon="5.562186" lat="50.956992"><ele>87.6</ele><time>2022-05-15T07:24:27.000Z</time></trkpt><trkpt lon="5.562162" lat="50.956926"><ele>87.8</ele><time>2022-05-15T07:24:28.000Z</time></trkpt><trkpt lon="5.562137" lat="50.956862"><ele>87.8</ele><time>2022-05-15T07:24:29.000Z</time></trkpt><trkpt lon="5.56211" lat="50.956794"><ele>87.8</ele><time>2022-05-15T07:24:30.000Z</time></trkpt><trkpt lon="5.562083" lat="50.956728"><ele>87.8</ele><time>2022-05-15T07:24:31.000Z</time></trkpt><trkpt lon="5.562056" lat="50.956664"><ele>88</ele><time>2022-05-15T07:24:32.000Z</time></trkpt><trkpt lon="5.562029" lat="50.956602"><ele>88</ele><time>2022-05-15T07:24:33.000Z</time></trkpt><trkpt lon="5.561999" lat="50.956538"><ele>88</ele><time>2022-05-15T07:24:34.000Z</time></trkpt><trkpt lon="5.561968" lat="50.95648"><ele>88.2</ele><time>2022-05-15T07:24:35.000Z</time></trkpt><trkpt lon="5.561933" lat="50.956419"><ele>88.2</ele><time>2022-05-15T07:24:36.000Z</time></trkpt><trkpt lon="5.561896" lat="50.956358"><ele>88.2</ele><time>2022-05-15T07:24:37.000Z</time></trkpt><trkpt lon="5.561855" lat="50.956301"><ele>88.2</ele><time>2022-05-15T07:24:38.000Z</time></trkpt><trkpt lon="5.561815" lat="50.956244"><ele>88.4</ele><time>2022-05-15T07:24:39.000Z</time></trkpt><trkpt lon="5.561774" lat="50.956182"><ele>88.4</ele><time>2022-05-15T07:24:40.000Z</time></trkpt><trkpt lon="5.561733" lat="50.956125"><ele>88.4</ele><time>2022-05-15T07:24:41.000Z</time></trkpt><trkpt lon="5.561687" lat="50.956061"><ele>88.4</ele><time>2022-05-15T07:24:42.000Z</time></trkpt><trkpt lon="5.561638" lat="50.956"><ele>88.4</ele><time>2022-05-15T07:24:43.000Z</time></trkpt><trkpt lon="5.561587" lat="50.955938"><ele>88.4</ele><time>2022-05-15T07:24:44.000Z</time></trkpt><trkpt lon="5.561534" lat="50.955878"><ele>88.4</ele><time>2022-05-15T07:24:45.000Z</time></trkpt><trkpt lon="5.561484" lat="50.955817"><ele>88.6</ele><time>2022-05-15T07:24:46.000Z</time></trkpt><trkpt lon="5.561434" lat="50.955757"><ele>88.6</ele><time>2022-05-15T07:24:47.000Z</time></trkpt><trkpt lon="5.561386" lat="50.955696"><ele>88.6</ele><time>2022-05-15T07:24:48.000Z</time></trkpt><trkpt lon="5.561337" lat="50.955633"><ele>88.8</ele><time>2022-05-15T07:24:49.000Z</time></trkpt><trkpt lon="5.561288" lat="50.955572"><ele>88.8</ele><time>2022-05-15T07:24:50.000Z</time></trkpt><trkpt lon="5.561239" lat="50.955512"><ele>88.8</ele><time>2022-05-15T07:24:51.000Z</time></trkpt><trkpt lon="5.561188" lat="50.95545"><ele>89</ele><time>2022-05-15T07:24:52.000Z</time></trkpt><trkpt lon="5.561137" lat="50.95539"><ele>89</ele><time>2022-05-15T07:24:53.000Z</time></trkpt><trkpt lon="5.561087" lat="50.955332"><ele>89</ele><time>2022-05-15T07:24:54.000Z</time></trkpt><trkpt lon="5.561039" lat="50.955272"><ele>89</ele><time>2022-05-15T07:24:55.000Z</time></trkpt><trkpt lon="5.560991" lat="50.955211"><ele>89</ele><time>2022-05-15T07:24:56.000Z</time></trkpt><trkpt lon="5.560943" lat="50.955152"><ele>89.2</ele><time>2022-05-15T07:24:57.000Z</time></trkpt><trkpt lon="5.560897" lat="50.955092"><ele>89.2</ele><time>2022-05-15T07:24:58.000Z</time></trkpt><trkpt lon="5.560852" lat="50.95503"><ele>89.2</ele><time>2022-05-15T07:24:59.000Z</time></trkpt><trkpt lon="5.560813" lat="50.95497"><ele>89.2</ele><time>2022-05-15T07:25:00.000Z</time></trkpt><trkpt lon="5.560778" lat="50.954909"><ele>89.4</ele><time>2022-05-15T07:25:01.000Z</time></trkpt><trkpt lon="5.560748" lat="50.954844"><ele>89.2</ele><time>2022-05-15T07:25:02.000Z</time></trkpt><trkpt lon="5.56072" lat="50.954779"><ele>89.4</ele><time>2022-05-15T07:25:03.000Z</time></trkpt><trkpt lon="5.560699" lat="50.954714"><ele>89.6</ele><time>2022-05-15T07:25:04.000Z</time></trkpt><trkpt lon="5.560681" lat="50.954657"><ele>89.8</ele><time>2022-05-15T07:25:05.000Z</time></trkpt><trkpt lon="5.560661" lat="50.954588"><ele>89.8</ele><time>2022-05-15T07:25:06.000Z</time></trkpt><trkpt lon="5.560642" lat="50.954523"><ele>89.6</ele><time>2022-05-15T07:25:07.000Z</time></trkpt><trkpt lon="5.560624" lat="50.954458"><ele>89.6</ele><time>2022-05-15T07:25:08.000Z</time></trkpt><trkpt lon="5.560602" lat="50.954394"><ele>89.6</ele><time>2022-05-15T07:25:09.000Z</time></trkpt><trkpt lon="5.560577" lat="50.954329"><ele>89.4</ele><time>2022-05-15T07:25:10.000Z</time></trkpt><trkpt lon="5.560551" lat="50.954263"><ele>89.4</ele><time>2022-05-15T07:25:11.000Z</time></trkpt><trkpt lon="5.560521" lat="50.954199"><ele>89.4</ele><time>2022-05-15T07:25:12.000Z</time></trkpt><trkpt lon="5.560486" lat="50.954138"><ele>89.2</ele><time>2022-05-15T07:25:13.000Z</time></trkpt><trkpt lon="5.560448" lat="50.954073"><ele>89.2</ele><time>2022-05-15T07:25:14.000Z</time></trkpt><trkpt lon="5.560402" lat="50.954012"><ele>89.2</ele><time>2022-05-15T07:25:15.000Z</time></trkpt><trkpt lon="5.560357" lat="50.953951"><ele>89</ele><time>2022-05-15T07:25:16.000Z</time></trkpt><trkpt lon="5.560308" lat="50.953893"><ele>88.8</ele><time>2022-05-15T07:25:17.000Z</time></trkpt><trkpt lon="5.560261" lat="50.953833"><ele>88.6</ele><time>2022-05-15T07:25:18.000Z</time></trkpt><trkpt lon="5.560213" lat="50.953779"><ele>88.6</ele><time>2022-05-15T07:25:19.000Z</time></trkpt><trkpt lon="5.560163" lat="50.953722"><ele>88.4</ele><time>2022-05-15T07:25:20.000Z</time></trkpt><trkpt lon="5.560114" lat="50.95367"><ele>88.4</ele><time>2022-05-15T07:25:21.000Z</time></trkpt><trkpt lon="5.560068" lat="50.953614"><ele>88.4</ele><time>2022-05-15T07:25:22.000Z</time></trkpt><trkpt lon="5.56002" lat="50.953551"><ele>88.6</ele><time>2022-05-15T07:25:23.000Z</time></trkpt><trkpt lon="5.559974" lat="50.953493"><ele>88.6</ele><time>2022-05-15T07:25:24.000Z</time></trkpt><trkpt lon="5.559931" lat="50.953436"><ele>88.6</ele><time>2022-05-15T07:25:25.000Z</time></trkpt><trkpt lon="5.559886" lat="50.953379"><ele>88.4</ele><time>2022-05-15T07:25:26.000Z</time></trkpt><trkpt lon="5.559842" lat="50.953322"><ele>88.4</ele><time>2022-05-15T07:25:27.000Z</time></trkpt><trkpt lon="5.559798" lat="50.95326"><ele>88.4</ele><time>2022-05-15T07:25:28.000Z</time></trkpt><trkpt lon="5.559752" lat="50.953208"><ele>88.2</ele><time>2022-05-15T07:25:29.000Z</time></trkpt><trkpt lon="5.559706" lat="50.953151"><ele>88</ele><time>2022-05-15T07:25:30.000Z</time></trkpt><trkpt lon="5.559665" lat="50.953093"><ele>87.8</ele><time>2022-05-15T07:25:31.000Z</time></trkpt><trkpt lon="5.559623" lat="50.953039"><ele>87.8</ele><time>2022-05-15T07:25:32.000Z</time></trkpt><trkpt lon="5.559585" lat="50.952986"><ele>87.8</ele><time>2022-05-15T07:25:33.000Z</time></trkpt><trkpt lon="5.559541" lat="50.952944"><ele>88</ele><time>2022-05-15T07:25:34.000Z</time></trkpt><trkpt lon="5.559495" lat="50.952905"><ele>88</ele><time>2022-05-15T07:25:35.000Z</time></trkpt><trkpt lon="5.559453" lat="50.952867"><ele>88.2</ele><time>2022-05-15T07:25:36.000Z</time></trkpt><trkpt lon="5.559407" lat="50.952836"><ele>88.2</ele><time>2022-05-15T07:25:37.000Z</time></trkpt><trkpt lon="5.559356" lat="50.952806"><ele>88.2</ele><time>2022-05-15T07:25:38.000Z</time></trkpt><trkpt lon="5.559307" lat="50.952782"><ele>88.4</ele><time>2022-05-15T07:25:39.000Z</time></trkpt><trkpt lon="5.559258" lat="50.95276"><ele>88.4</ele><time>2022-05-15T07:25:40.000Z</time></trkpt><trkpt lon="5.559204" lat="50.95274"><ele>88.4</ele><time>2022-05-15T07:25:41.000Z</time></trkpt><trkpt lon="5.559145" lat="50.952725"><ele>88.4</ele><time>2022-05-15T07:25:42.000Z</time></trkpt><trkpt lon="5.559091" lat="50.952703"><ele>88.6</ele><time>2022-05-15T07:25:43.000Z</time></trkpt><trkpt lon="5.55904" lat="50.952676"><ele>88.6</ele><time>2022-05-15T07:25:44.000Z</time></trkpt><trkpt lon="5.558998" lat="50.952638"><ele>88.6</ele><time>2022-05-15T07:25:45.000Z</time></trkpt><trkpt lon="5.558973" lat="50.952589"><ele>88.4</ele><time>2022-05-15T07:25:46.000Z</time></trkpt><trkpt lon="5.558962" lat="50.952537"><ele>88.4</ele><time>2022-05-15T07:25:47.000Z</time></trkpt><trkpt lon="5.558957" lat="50.952482"><ele>88.2</ele><time>2022-05-15T07:25:48.000Z</time></trkpt><trkpt lon="5.558963" lat="50.952422"><ele>88.2</ele><time>2022-05-15T07:25:49.000Z</time></trkpt><trkpt lon="5.558981" lat="50.952364"><ele>88</ele><time>2022-05-15T07:25:50.000Z</time></trkpt><trkpt lon="5.559003" lat="50.95231"><ele>88</ele><time>2022-05-15T07:25:51.000Z</time></trkpt><trkpt lon="5.559023" lat="50.952257"><ele>88</ele><time>2022-05-15T07:25:52.000Z</time></trkpt><trkpt lon="5.559039" lat="50.952211"><ele>88.2</ele><time>2022-05-15T07:25:53.000Z</time></trkpt><trkpt lon="5.559045" lat="50.952173"><ele>88.2</ele><time>2022-05-15T07:25:54.000Z</time></trkpt><trkpt lon="5.559027" lat="50.952142"><ele>88.2</ele><time>2022-05-15T07:25:55.000Z</time></trkpt><trkpt lon="5.558984" lat="50.952112"><ele>88</ele><time>2022-05-15T07:25:56.000Z</time></trkpt><trkpt lon="5.55892" lat="50.952081"><ele>88</ele><time>2022-05-15T07:25:57.000Z</time></trkpt><trkpt lon="5.558843" lat="50.952054"><ele>88</ele><time>2022-05-15T07:25:58.000Z</time></trkpt><trkpt lon="5.55875" lat="50.952027"><ele>87.8</ele><time>2022-05-15T07:25:59.000Z</time></trkpt><trkpt lon="5.558649" lat="50.952001"><ele>87.8</ele><time>2022-05-15T07:26:00.000Z</time></trkpt><trkpt lon="5.558547" lat="50.95197"><ele>87.6</ele><time>2022-05-15T07:26:01.000Z</time></trkpt><trkpt lon="5.558443" lat="50.951939"><ele>87.8</ele><time>2022-05-15T07:26:02.000Z</time></trkpt><trkpt lon="5.558342" lat="50.951909"><ele>87.8</ele><time>2022-05-15T07:26:03.000Z</time></trkpt><trkpt lon="5.558236" lat="50.951878"><ele>88</ele><time>2022-05-15T07:26:04.000Z</time></trkpt><trkpt lon="5.558129" lat="50.951848"><ele>88</ele><time>2022-05-15T07:26:05.000Z</time></trkpt><trkpt lon="5.558028" lat="50.951818"><ele>88</ele><time>2022-05-15T07:26:06.000Z</time></trkpt><trkpt lon="5.557934" lat="50.951788"><ele>88.2</ele><time>2022-05-15T07:26:07.000Z</time></trkpt><trkpt lon="5.557832" lat="50.951756"><ele>88</ele><time>2022-05-15T07:26:08.000Z</time></trkpt><trkpt lon="5.557731" lat="50.951726"><ele>88</ele><time>2022-05-15T07:26:09.000Z</time></trkpt><trkpt lon="5.557631" lat="50.951695"><ele>88</ele><time>2022-05-15T07:26:10.000Z</time></trkpt><trkpt lon="5.557535" lat="50.951661"><ele>88</ele><time>2022-05-15T07:26:11.000Z</time></trkpt><trkpt lon="5.557439" lat="50.951634"><ele>88</ele><time>2022-05-15T07:26:12.000Z</time></trkpt><trkpt lon="5.557345" lat="50.9516"><ele>87.8</ele><time>2022-05-15T07:26:13.000Z</time></trkpt><trkpt lon="5.557251" lat="50.95157"><ele>87.8</ele><time>2022-05-15T07:26:14.000Z</time></trkpt><trkpt lon="5.557152" lat="50.951536"><ele>87.6</ele><time>2022-05-15T07:26:15.000Z</time></trkpt><trkpt lon="5.55705" lat="50.951505"><ele>87.6</ele><time>2022-05-15T07:26:16.000Z</time></trkpt><trkpt lon="5.556947" lat="50.951474"><ele>87.4</ele><time>2022-05-15T07:26:17.000Z</time></trkpt><trkpt lon="5.556846" lat="50.95144"><ele>87.6</ele><time>2022-05-15T07:26:18.000Z</time></trkpt><trkpt lon="5.556745" lat="50.951406"><ele>87.6</ele><time>2022-05-15T07:26:19.000Z</time></trkpt><trkpt lon="5.556645" lat="50.951371"><ele>87.6</ele><time>2022-05-15T07:26:20.000Z</time></trkpt><trkpt lon="5.556545" lat="50.951341"><ele>87.6</ele><time>2022-05-15T07:26:21.000Z</time></trkpt><trkpt lon="5.556449" lat="50.951307"><ele>87.6</ele><time>2022-05-15T07:26:22.000Z</time></trkpt><trkpt lon="5.556359" lat="50.951269"><ele>87.6</ele><time>2022-05-15T07:26:23.000Z</time></trkpt><trkpt lon="5.55628" lat="50.951223"><ele>87.8</ele><time>2022-05-15T07:26:24.000Z</time></trkpt><trkpt lon="5.556211" lat="50.951169"><ele>87.8</ele><time>2022-05-15T07:26:25.000Z</time></trkpt><trkpt lon="5.556157" lat="50.951109"><ele>88</ele><time>2022-05-15T07:26:26.000Z</time></trkpt><trkpt lon="5.556118" lat="50.951041"><ele>88</ele><time>2022-05-15T07:26:27.000Z</time></trkpt><trkpt lon="5.556091" lat="50.950968"><ele>88</ele><time>2022-05-15T07:26:28.000Z</time></trkpt><trkpt lon="5.556079" lat="50.950896"><ele>88</ele><time>2022-05-15T07:26:29.000Z</time></trkpt><trkpt lon="5.556072" lat="50.950828"><ele>87.8</ele><time>2022-05-15T07:26:30.000Z</time></trkpt><trkpt lon="5.556072" lat="50.950755"><ele>88</ele><time>2022-05-15T07:26:31.000Z</time></trkpt><trkpt lon="5.55607" lat="50.950683"><ele>88</ele><time>2022-05-15T07:26:32.000Z</time></trkpt><trkpt lon="5.556068" lat="50.950617"><ele>88</ele><time>2022-05-15T07:26:33.000Z</time></trkpt><trkpt lon="5.556065" lat="50.950549"><ele>88</ele><time>2022-05-15T07:26:34.000Z</time></trkpt><trkpt lon="5.556063" lat="50.950483"><ele>88</ele><time>2022-05-15T07:26:35.000Z</time></trkpt><trkpt lon="5.55606" lat="50.950415"><ele>88</ele><time>2022-05-15T07:26:36.000Z</time></trkpt><trkpt lon="5.556044" lat="50.950354"><ele>88</ele><time>2022-05-15T07:26:37.000Z</time></trkpt><trkpt lon="5.556011" lat="50.950289"><ele>88</ele><time>2022-05-15T07:26:38.000Z</time></trkpt><trkpt lon="5.555965" lat="50.950232"><ele>88</ele><time>2022-05-15T07:26:39.000Z</time></trkpt><trkpt lon="5.55591" lat="50.950178"><ele>88</ele><time>2022-05-15T07:26:40.000Z</time></trkpt><trkpt lon="5.55585" lat="50.950121"><ele>88</ele><time>2022-05-15T07:26:41.000Z</time></trkpt><trkpt lon="5.555787" lat="50.950063"><ele>88</ele><time>2022-05-15T07:26:42.000Z</time></trkpt><trkpt lon="5.555721" lat="50.95001"><ele>88</ele><time>2022-05-15T07:26:43.000Z</time></trkpt><trkpt lon="5.555651" lat="50.949953"><ele>87.8</ele><time>2022-05-15T07:26:44.000Z</time></trkpt><trkpt lon="5.555576" lat="50.949899"><ele>87.8</ele><time>2022-05-15T07:26:45.000Z</time></trkpt><trkpt lon="5.555499" lat="50.94985"><ele>88</ele><time>2022-05-15T07:26:46.000Z</time></trkpt><trkpt lon="5.555419" lat="50.949797"><ele>88</ele><time>2022-05-15T07:26:47.000Z</time></trkpt><trkpt lon="5.555337" lat="50.949751"><ele>88</ele><time>2022-05-15T07:26:48.000Z</time></trkpt><trkpt lon="5.555249" lat="50.949701"><ele>88</ele><time>2022-05-15T07:26:49.000Z</time></trkpt><trkpt lon="5.555162" lat="50.949655"><ele>88</ele><time>2022-05-15T07:26:50.000Z</time></trkpt><trkpt lon="5.555075" lat="50.949614"><ele>88.2</ele><time>2022-05-15T07:26:51.000Z</time></trkpt><trkpt lon="5.554982" lat="50.949568"><ele>88.2</ele><time>2022-05-15T07:26:52.000Z</time></trkpt><trkpt lon="5.554892" lat="50.949526"><ele>88.2</ele><time>2022-05-15T07:26:53.000Z</time></trkpt><trkpt lon="5.554801" lat="50.949484"><ele>88.2</ele><time>2022-05-15T07:26:54.000Z</time></trkpt><trkpt lon="5.554715" lat="50.949443"><ele>88.2</ele><time>2022-05-15T07:26:55.000Z</time></trkpt><trkpt lon="5.554624" lat="50.9494"><ele>88.2</ele><time>2022-05-15T07:26:56.000Z</time></trkpt><trkpt lon="5.554535" lat="50.949358"><ele>88.2</ele><time>2022-05-15T07:26:57.000Z</time></trkpt><trkpt lon="5.554448" lat="50.949316"><ele>88.2</ele><time>2022-05-15T07:26:58.000Z</time></trkpt><trkpt lon="5.55436" lat="50.949274"><ele>88.2</ele><time>2022-05-15T07:26:59.000Z</time></trkpt><trkpt lon="5.554274" lat="50.949235"><ele>88</ele><time>2022-05-15T07:27:00.000Z</time></trkpt><trkpt lon="5.55419" lat="50.949197"><ele>87.8</ele><time>2022-05-15T07:27:01.000Z</time></trkpt><trkpt lon="5.554104" lat="50.949155"><ele>87.8</ele><time>2022-05-15T07:27:02.000Z</time></trkpt><trkpt lon="5.554021" lat="50.949117"><ele>87.8</ele><time>2022-05-15T07:27:03.000Z</time></trkpt><trkpt lon="5.553935" lat="50.949079"><ele>87.8</ele><time>2022-05-15T07:27:04.000Z</time></trkpt><trkpt lon="5.553858" lat="50.949043"><ele>88</ele><time>2022-05-15T07:27:05.000Z</time></trkpt><trkpt lon="5.55377" lat="50.948999"><ele>88</ele><time>2022-05-15T07:27:06.000Z</time></trkpt><trkpt lon="5.553686" lat="50.948957"><ele>88.2</ele><time>2022-05-15T07:27:07.000Z</time></trkpt><trkpt lon="5.553605" lat="50.948919"><ele>88.2</ele><time>2022-05-15T07:27:08.000Z</time></trkpt><trkpt lon="5.55352" lat="50.948877"><ele>88.4</ele><time>2022-05-15T07:27:09.000Z</time></trkpt><trkpt lon="5.553434" lat="50.948839"><ele>88.4</ele><time>2022-05-15T07:27:10.000Z</time></trkpt><trkpt lon="5.553348" lat="50.9488"><ele>88.4</ele><time>2022-05-15T07:27:11.000Z</time></trkpt><trkpt lon="5.553257" lat="50.948762"><ele>88.4</ele><time>2022-05-15T07:27:12.000Z</time></trkpt><trkpt lon="5.553165" lat="50.948724"><ele>88.4</ele><time>2022-05-15T07:27:13.000Z</time></trkpt><trkpt lon="5.55307" lat="50.94869"><ele>88.4</ele><time>2022-05-15T07:27:14.000Z</time></trkpt><trkpt lon="5.552976" lat="50.948656"><ele>88.2</ele><time>2022-05-15T07:27:15.000Z</time></trkpt><trkpt lon="5.552878" lat="50.948622"><ele>88.2</ele><time>2022-05-15T07:27:16.000Z</time></trkpt><trkpt lon="5.552777" lat="50.94859"><ele>88.4</ele><time>2022-05-15T07:27:17.000Z</time></trkpt><trkpt lon="5.552675" lat="50.94856"><ele>88.4</ele><time>2022-05-15T07:27:18.000Z</time></trkpt><trkpt lon="5.552573" lat="50.948529"><ele>88.4</ele><time>2022-05-15T07:27:19.000Z</time></trkpt><trkpt lon="5.552476" lat="50.948499"><ele>88.4</ele><time>2022-05-15T07:27:20.000Z</time></trkpt><trkpt lon="5.552377" lat="50.948468"><ele>88.2</ele><time>2022-05-15T07:27:21.000Z</time></trkpt><trkpt lon="5.552282" lat="50.948438"><ele>88.2</ele><time>2022-05-15T07:27:22.000Z</time></trkpt><trkpt lon="5.552186" lat="50.948411"><ele>88</ele><time>2022-05-15T07:27:23.000Z</time></trkpt><trkpt lon="5.552091" lat="50.948381"><ele>88</ele><time>2022-05-15T07:27:24.000Z</time></trkpt><trkpt lon="5.551992" lat="50.94835"><ele>87.8</ele><time>2022-05-15T07:27:25.000Z</time></trkpt><trkpt lon="5.551898" lat="50.948319"><ele>87.8</ele><time>2022-05-15T07:27:26.000Z</time></trkpt><trkpt lon="5.551808" lat="50.948289"><ele>88</ele><time>2022-05-15T07:27:27.000Z</time></trkpt><trkpt lon="5.551726" lat="50.948256"><ele>88</ele><time>2022-05-15T07:27:28.000Z</time></trkpt><trkpt lon="5.551647" lat="50.94822"><ele>88.2</ele><time>2022-05-15T07:27:29.000Z</time></trkpt><trkpt lon="5.551581" lat="50.948186"><ele>88.2</ele><time>2022-05-15T07:27:30.000Z</time></trkpt><trkpt lon="5.55152" lat="50.948148"><ele>88.4</ele><time>2022-05-15T07:27:31.000Z</time></trkpt><trkpt lon="5.551468" lat="50.948118"><ele>88.4</ele><time>2022-05-15T07:27:32.000Z</time></trkpt><trkpt lon="5.551413" lat="50.948083"><ele>88.4</ele><time>2022-05-15T07:27:33.000Z</time></trkpt><trkpt lon="5.551363" lat="50.948052"><ele>88.6</ele><time>2022-05-15T07:27:34.000Z</time></trkpt><trkpt lon="5.551316" lat="50.948022"><ele>88.6</ele><time>2022-05-15T07:27:35.000Z</time></trkpt><trkpt lon="5.551273" lat="50.947991"><ele>88.6</ele><time>2022-05-15T07:27:36.000Z</time></trkpt><trkpt lon="5.551237" lat="50.947965"><ele>88.8</ele><time>2022-05-15T07:27:37.000Z</time></trkpt><trkpt lon="5.551208" lat="50.947942"><ele>88.8</ele><time>2022-05-15T07:27:38.000Z</time></trkpt><trkpt lon="5.551189" lat="50.947919"><ele>88.8</ele><time>2022-05-15T07:27:39.000Z</time></trkpt><trkpt lon="5.55118" lat="50.947892"><ele>89</ele><time>2022-05-15T07:27:40.000Z</time></trkpt><trkpt lon="5.551182" lat="50.947869"><ele>89</ele><time>2022-05-15T07:27:41.000Z</time></trkpt><trkpt lon="5.55119" lat="50.947846"><ele>89</ele><time>2022-05-15T07:27:42.000Z</time></trkpt><trkpt lon="5.551203" lat="50.947831"><ele>89</ele><time>2022-05-15T07:27:43.000Z</time></trkpt><trkpt lon="5.551218" lat="50.947815"><ele>89</ele><time>2022-05-15T07:27:44.000Z</time></trkpt><trkpt lon="5.551236" lat="50.9478"><ele>89</ele><time>2022-05-15T07:27:45.000Z</time></trkpt><trkpt lon="5.551254" lat="50.947782"><ele>89</ele><time>2022-05-15T07:27:46.000Z</time></trkpt><trkpt lon="5.551273" lat="50.947762"><ele>89</ele><time>2022-05-15T07:27:47.000Z</time></trkpt><trkpt lon="5.551291" lat="50.947747"><ele>89.2</ele><time>2022-05-15T07:27:48.000Z</time></trkpt><trkpt lon="5.551326" lat="50.947727"><ele>89.2</ele><time>2022-05-15T07:27:49.000Z</time></trkpt><trkpt lon="5.551345" lat="50.947723"><ele>89.2</ele><time>2022-05-15T07:27:50.000Z</time></trkpt><trkpt lon="5.551364" lat="50.947718"><ele>89.2</ele><time>2022-05-15T07:27:51.000Z</time></trkpt><trkpt lon="5.551383" lat="50.947714"><ele>89</ele><time>2022-05-15T07:28:18.000Z</time></trkpt><trkpt lon="5.551402" lat="50.947709"><ele>89</ele><time>2022-05-15T07:28:19.000Z</time></trkpt><trkpt lon="5.551421" lat="50.947705"><ele>89</ele><time>2022-05-15T07:28:20.000Z</time></trkpt><trkpt lon="5.551414" lat="50.947704"><ele>89</ele><time>2022-05-15T07:28:21.000Z</time></trkpt><trkpt lon="5.551407" lat="50.947708"><ele>89.2</ele><time>2022-05-15T07:28:22.000Z</time></trkpt><trkpt lon="5.551404" lat="50.947712"><ele>89.2</ele><time>2022-05-15T07:28:23.000Z</time></trkpt><trkpt lon="5.551404" lat="50.947712"><ele>89.2</ele><time>2022-05-15T07:28:24.000Z</time></trkpt><trkpt lon="5.551404" lat="50.947712"><ele>89.2</ele><time>2022-05-15T07:28:25.000Z</time></trkpt><trkpt lon="5.551404" lat="50.947712"><ele>89.2</ele><time>2022-05-15T07:28:26.000Z</time></trkpt><trkpt lon="5.551404" lat="50.947712"><ele>89.2</ele><time>2022-05-15T07:28:27.000Z</time></trkpt><trkpt lon="5.551404" lat="50.947712"><ele>89.2</ele><time>2022-05-15T07:28:28.000Z</time></trkpt><trkpt lon="5.551404" lat="50.947712"><ele>89.2</ele><time>2022-05-15T07:28:29.000Z</time></trkpt><trkpt lon="5.551404" lat="50.947712"><ele>89.2</ele><time>2022-05-15T07:28:30.000Z</time></trkpt><trkpt lon="5.551404" lat="50.947712"><ele>89.2</ele><time>2022-05-15T07:28:31.000Z</time></trkpt><trkpt lon="5.551404" lat="50.947712"><ele>89.2</ele><time>2022-05-15T07:28:32.000Z</time></trkpt><trkpt lon="5.551404" lat="50.947712"><ele>89.2</ele><time>2022-05-15T07:28:33.000Z</time></trkpt><trkpt lon="5.551404" lat="50.947712"><ele>89.2</ele><time>2022-05-15T07:28:34.000Z</time></trkpt><trkpt lon="5.551404" lat="50.947712"><ele>89.2</ele><time>2022-05-15T07:28:35.000Z</time></trkpt><trkpt lon="5.551404" lat="50.947712"><ele>89.2</ele><time>2022-05-15T07:28:36.000Z</time></trkpt><trkpt lon="5.551404" lat="50.947712"><ele>89.2</ele><time>2022-05-15T07:28:37.000Z</time></trkpt><trkpt lon="5.551404" lat="50.947712"><ele>89.2</ele><time>2022-05-15T07:28:38.000Z</time></trkpt><trkpt lon="5.551404" lat="50.947712"><ele>89.2</ele><time>2022-05-15T07:28:39.000Z</time></trkpt><trkpt lon="5.551404" lat="50.947712"><ele>89.2</ele><time>2022-05-15T07:28:40.000Z</time></trkpt><trkpt lon="5.551404" lat="50.947712"><ele>89.2</ele><time>2022-05-15T07:28:41.000Z</time></trkpt><trkpt lon="5.551404" lat="50.947712"><ele>89.2</ele><time>2022-05-15T07:28:42.000Z</time></trkpt><trkpt lon="5.551542" lat="50.94772"><ele>89</ele><time>2022-05-15T07:54:05.000Z</time></trkpt><trkpt lon="5.551534" lat="50.947712"><ele>89</ele><time>2022-05-15T07:54:06.000Z</time></trkpt><trkpt lon="5.551523" lat="50.947701"><ele>89.2</ele><time>2022-05-15T07:54:07.000Z</time></trkpt><trkpt lon="5.551522" lat="50.947686"><ele>89.2</ele><time>2022-05-15T07:54:08.000Z</time></trkpt><trkpt lon="5.551523" lat="50.947678"><ele>89.2</ele><time>2022-05-15T07:54:09.000Z</time></trkpt><trkpt lon="5.551525" lat="50.94767"><ele>89.2</ele><time>2022-05-15T07:54:10.000Z</time></trkpt><trkpt lon="5.55153" lat="50.947663"><ele>89.2</ele><time>2022-05-15T07:54:11.000Z</time></trkpt><trkpt lon="5.551535" lat="50.947659"><ele>89.2</ele><time>2022-05-15T07:54:12.000Z</time></trkpt><trkpt lon="5.551536" lat="50.947662"><ele>89.2</ele><time>2022-05-15T07:54:13.000Z</time></trkpt><trkpt lon="5.551538" lat="50.947662"><ele>89.2</ele><time>2022-05-15T07:54:14.000Z</time></trkpt><trkpt lon="5.551538" lat="50.947662"><ele>89.2</ele><time>2022-05-15T07:54:15.000Z</time></trkpt><trkpt lon="5.551537" lat="50.947662"><ele>89.2</ele><time>2022-05-15T07:54:16.000Z</time></trkpt><trkpt lon="5.551537" lat="50.947662"><ele>89.2</ele><time>2022-05-15T07:54:17.000Z</time></trkpt><trkpt lon="5.551525" lat="50.947651"><ele>89.2</ele><time>2022-05-15T07:54:18.000Z</time></trkpt><trkpt lon="5.551519" lat="50.947651"><ele>89.2</ele><time>2022-05-15T07:54:19.000Z</time></trkpt><trkpt lon="5.551507" lat="50.947644"><ele>89.2</ele><time>2022-05-15T07:54:20.000Z</time></trkpt><trkpt lon="5.551494" lat="50.947636"><ele>89.2</ele><time>2022-05-15T07:54:21.000Z</time></trkpt><trkpt lon="5.551482" lat="50.947628"><ele>89.2</ele><time>2022-05-15T07:54:22.000Z</time></trkpt><trkpt lon="5.551473" lat="50.947624"><ele>89.2</ele><time>2022-05-15T07:54:23.000Z</time></trkpt><trkpt lon="5.551472" lat="50.947617"><ele>89.2</ele><time>2022-05-15T07:54:24.000Z</time></trkpt><trkpt lon="5.551475" lat="50.947613"><ele>89.2</ele><time>2022-05-15T07:54:25.000Z</time></trkpt><trkpt lon="5.551473" lat="50.947609"><ele>89.2</ele><time>2022-05-15T07:54:26.000Z</time></trkpt><trkpt lon="5.551472" lat="50.947605"><ele>89.2</ele><time>2022-05-15T07:54:27.000Z</time></trkpt><trkpt lon="5.551473" lat="50.947601"><ele>89.2</ele><time>2022-05-15T07:54:28.000Z</time></trkpt><trkpt lon="5.551473" lat="50.947601"><ele>89.2</ele><time>2022-05-15T07:54:29.000Z</time></trkpt><trkpt lon="5.551473" lat="50.947601"><ele>89.2</ele><time>2022-05-15T07:54:30.000Z</time></trkpt><trkpt lon="5.551473" lat="50.947601"><ele>89.2</ele><time>2022-05-15T07:54:54.000Z</time></trkpt><trkpt lon="5.551502" lat="50.947579"><ele>89.2</ele><time>2022-05-15T07:54:55.000Z</time></trkpt><trkpt lon="5.551523" lat="50.947564"><ele>89.2</ele><time>2022-05-15T07:54:56.000Z</time></trkpt><trkpt lon="5.551543" lat="50.947552"><ele>89.2</ele><time>2022-05-15T07:54:57.000Z</time></trkpt><trkpt lon="5.551566" lat="50.947529"><ele>89.2</ele><time>2022-05-15T07:54:58.000Z</time></trkpt><trkpt lon="5.551596" lat="50.947507"><ele>89.2</ele><time>2022-05-15T07:54:59.000Z</time></trkpt><trkpt lon="5.551626" lat="50.947476"><ele>89</ele><time>2022-05-15T07:55:00.000Z</time></trkpt><trkpt lon="5.55166" lat="50.947446"><ele>89</ele><time>2022-05-15T07:55:01.000Z</time></trkpt><trkpt lon="5.551694" lat="50.947415"><ele>89</ele><time>2022-05-15T07:55:02.000Z</time></trkpt><trkpt lon="5.551724" lat="50.947381"><ele>88.8</ele><time>2022-05-15T07:55:03.000Z</time></trkpt><trkpt lon="5.551752" lat="50.947355"><ele>88.8</ele><time>2022-05-15T07:55:04.000Z</time></trkpt><trkpt lon="5.551781" lat="50.947324"><ele>88.8</ele><time>2022-05-15T07:55:05.000Z</time></trkpt><trkpt lon="5.551809" lat="50.947293"><ele>88.8</ele><time>2022-05-15T07:55:06.000Z</time></trkpt><trkpt lon="5.551841" lat="50.947263"><ele>88.6</ele><time>2022-05-15T07:55:07.000Z</time></trkpt><trkpt lon="5.551879" lat="50.947229"><ele>88.6</ele><time>2022-05-15T07:55:08.000Z</time></trkpt><trkpt lon="5.551918" lat="50.947187"><ele>88.6</ele><time>2022-05-15T07:55:09.000Z</time></trkpt><trkpt lon="5.551964" lat="50.947145"><ele>88.6</ele><time>2022-05-15T07:55:10.000Z</time></trkpt><trkpt lon="5.552012" lat="50.947103"><ele>88.6</ele><time>2022-05-15T07:55:11.000Z</time></trkpt><trkpt lon="5.552054" lat="50.947065"><ele>88.6</ele><time>2022-05-15T07:55:12.000Z</time></trkpt><trkpt lon="5.552096" lat="50.947023"><ele>88.6</ele><time>2022-05-15T07:55:13.000Z</time></trkpt><trkpt lon="5.552142" lat="50.946984"><ele>88.8</ele><time>2022-05-15T07:55:14.000Z</time></trkpt><trkpt lon="5.552192" lat="50.946939"><ele>88.8</ele><time>2022-05-15T07:55:15.000Z</time></trkpt><trkpt lon="5.552245" lat="50.946893"><ele>88.8</ele><time>2022-05-15T07:55:16.000Z</time></trkpt><trkpt lon="5.552303" lat="50.946851"><ele>88.8</ele><time>2022-05-15T07:55:17.000Z</time></trkpt><trkpt lon="5.552364" lat="50.946806"><ele>88.8</ele><time>2022-05-15T07:55:18.000Z</time></trkpt><trkpt lon="5.552435" lat="50.94676"><ele>88.8</ele><time>2022-05-15T07:55:19.000Z</time></trkpt><trkpt lon="5.552502" lat="50.946715"><ele>89</ele><time>2022-05-15T07:55:20.000Z</time></trkpt><trkpt lon="5.552576" lat="50.946672"><ele>89</ele><time>2022-05-15T07:55:21.000Z</time></trkpt><trkpt lon="5.552647" lat="50.946634"><ele>89</ele><time>2022-05-15T07:55:22.000Z</time></trkpt><trkpt lon="5.552714" lat="50.946596"><ele>89</ele><time>2022-05-15T07:55:23.000Z</time></trkpt><trkpt lon="5.552782" lat="50.946561"><ele>89</ele><time>2022-05-15T07:55:24.000Z</time></trkpt><trkpt lon="5.552845" lat="50.946523"><ele>89</ele><time>2022-05-15T07:55:25.000Z</time></trkpt><trkpt lon="5.552907" lat="50.946488"><ele>89</ele><time>2022-05-15T07:55:26.000Z</time></trkpt><trkpt lon="5.552972" lat="50.946455"><ele>89</ele><time>2022-05-15T07:55:27.000Z</time></trkpt><trkpt lon="5.553042" lat="50.946413"><ele>89</ele><time>2022-05-15T07:55:28.000Z</time></trkpt><trkpt lon="5.553111" lat="50.946378"><ele>89</ele><time>2022-05-15T07:55:29.000Z</time></trkpt><trkpt lon="5.553182" lat="50.946337"><ele>88.8</ele><time>2022-05-15T07:55:30.000Z</time></trkpt><trkpt lon="5.553249" lat="50.946306"><ele>88.8</ele><time>2022-05-15T07:55:31.000Z</time></trkpt><trkpt lon="5.553316" lat="50.946271"><ele>88.6</ele><time>2022-05-15T07:55:32.000Z</time></trkpt><trkpt lon="5.553376" lat="50.946233"><ele>88.4</ele><time>2022-05-15T07:55:33.000Z</time></trkpt><trkpt lon="5.553439" lat="50.946199"><ele>88.4</ele><time>2022-05-15T07:55:34.000Z</time></trkpt><trkpt lon="5.5535" lat="50.946164"><ele>88.2</ele><time>2022-05-15T07:55:35.000Z</time></trkpt><trkpt lon="5.553561" lat="50.94613"><ele>88.2</ele><time>2022-05-15T07:55:36.000Z</time></trkpt><trkpt lon="5.553618" lat="50.946099"><ele>88.2</ele><time>2022-05-15T07:55:37.000Z</time></trkpt><trkpt lon="5.553673" lat="50.946073"><ele>88.2</ele><time>2022-05-15T07:55:38.000Z</time></trkpt><trkpt lon="5.553728" lat="50.946042"><ele>88.2</ele><time>2022-05-15T07:55:39.000Z</time></trkpt><trkpt lon="5.55378" lat="50.946019"><ele>88.2</ele><time>2022-05-15T07:55:40.000Z</time></trkpt><trkpt lon="5.553831" lat="50.945993"><ele>88.4</ele><time>2022-05-15T07:55:41.000Z</time></trkpt><trkpt lon="5.553885" lat="50.94597"><ele>88.4</ele><time>2022-05-15T07:55:42.000Z</time></trkpt><trkpt lon="5.553935" lat="50.94595"><ele>88.2</ele><time>2022-05-15T07:55:43.000Z</time></trkpt><trkpt lon="5.553988" lat="50.945935"><ele>88.2</ele><time>2022-05-15T07:55:44.000Z</time></trkpt><trkpt lon="5.554053" lat="50.945916"><ele>88</ele><time>2022-05-15T07:55:45.000Z</time></trkpt><trkpt lon="5.554119" lat="50.945889"><ele>88</ele><time>2022-05-15T07:55:46.000Z</time></trkpt><trkpt lon="5.554191" lat="50.945863"><ele>88</ele><time>2022-05-15T07:55:47.000Z</time></trkpt><trkpt lon="5.55426" lat="50.945834"><ele>87.8</ele><time>2022-05-15T07:55:48.000Z</time></trkpt><trkpt lon="5.554326" lat="50.945803"><ele>87.8</ele><time>2022-05-15T07:55:49.000Z</time></trkpt><trkpt lon="5.554397" lat="50.945775"><ele>87.8</ele><time>2022-05-15T07:55:50.000Z</time></trkpt><trkpt lon="5.554466" lat="50.945752"><ele>87.6</ele><time>2022-05-15T07:55:51.000Z</time></trkpt><trkpt lon="5.554539" lat="50.945729"><ele>87.6</ele><time>2022-05-15T07:55:52.000Z</time></trkpt><trkpt lon="5.55462" lat="50.945699"><ele>87.6</ele><time>2022-05-15T07:55:53.000Z</time></trkpt><trkpt lon="5.554703" lat="50.945668"><ele>87.4</ele><time>2022-05-15T07:55:54.000Z</time></trkpt><trkpt lon="5.554779" lat="50.945638"><ele>87.4</ele><time>2022-05-15T07:55:55.000Z</time></trkpt><trkpt lon="5.554853" lat="50.945607"><ele>87.4</ele><time>2022-05-15T07:55:56.000Z</time></trkpt><trkpt lon="5.554921" lat="50.94558"><ele>87.2</ele><time>2022-05-15T07:55:57.000Z</time></trkpt><trkpt lon="5.554991" lat="50.945554"><ele>87.2</ele><time>2022-05-15T07:55:58.000Z</time></trkpt><trkpt lon="5.555063" lat="50.945527"><ele>87.2</ele><time>2022-05-15T07:55:59.000Z</time></trkpt><trkpt lon="5.555139" lat="50.9455"><ele>87.2</ele><time>2022-05-15T07:56:00.000Z</time></trkpt><trkpt lon="5.555208" lat="50.945477"><ele>87</ele><time>2022-05-15T07:56:01.000Z</time></trkpt><trkpt lon="5.555276" lat="50.945447"><ele>87</ele><time>2022-05-15T07:56:02.000Z</time></trkpt><trkpt lon="5.555353" lat="50.945416"><ele>87</ele><time>2022-05-15T07:56:03.000Z</time></trkpt><trkpt lon="5.55543" lat="50.945383"><ele>87</ele><time>2022-05-15T07:56:04.000Z</time></trkpt><trkpt lon="5.555506" lat="50.945352"><ele>86.8</ele><time>2022-05-15T07:56:05.000Z</time></trkpt><trkpt lon="5.555587" lat="50.945321"><ele>86.8</ele><time>2022-05-15T07:56:06.000Z</time></trkpt><trkpt lon="5.555659" lat="50.945291"><ele>86.8</ele><time>2022-05-15T07:56:07.000Z</time></trkpt><trkpt lon="5.555726" lat="50.945264"><ele>86.8</ele><time>2022-05-15T07:56:08.000Z</time></trkpt><trkpt lon="5.555793" lat="50.945233"><ele>86.6</ele><time>2022-05-15T07:56:09.000Z</time></trkpt><trkpt lon="5.555866" lat="50.945203"><ele>86.6</ele><time>2022-05-15T07:56:10.000Z</time></trkpt><trkpt lon="5.555936" lat="50.945165"><ele>86.6</ele><time>2022-05-15T07:56:11.000Z</time></trkpt><trkpt lon="5.556018" lat="50.945123"><ele>86.8</ele><time>2022-05-15T07:56:12.000Z</time></trkpt><trkpt lon="5.5561" lat="50.945085"><ele>86.8</ele><time>2022-05-15T07:56:13.000Z</time></trkpt><trkpt lon="5.556195" lat="50.945043"><ele>86.8</ele><time>2022-05-15T07:56:14.000Z</time></trkpt><trkpt lon="5.556292" lat="50.945005"><ele>86.8</ele><time>2022-05-15T07:56:15.000Z</time></trkpt><trkpt lon="5.556397" lat="50.944955"><ele>86.8</ele><time>2022-05-15T07:56:16.000Z</time></trkpt><trkpt lon="5.55649" lat="50.944921"><ele>87</ele><time>2022-05-15T07:56:17.000Z</time></trkpt><trkpt lon="5.556582" lat="50.944883"><ele>87</ele><time>2022-05-15T07:56:18.000Z</time></trkpt><trkpt lon="5.556672" lat="50.944841"><ele>87</ele><time>2022-05-15T07:56:19.000Z</time></trkpt><trkpt lon="5.556754" lat="50.944806"><ele>87</ele><time>2022-05-15T07:56:20.000Z</time></trkpt><trkpt lon="5.556833" lat="50.944772"><ele>87.2</ele><time>2022-05-15T07:56:21.000Z</time></trkpt><trkpt lon="5.556912" lat="50.944738"><ele>87.2</ele><time>2022-05-15T07:56:22.000Z</time></trkpt><trkpt lon="5.556985" lat="50.944707"><ele>87.2</ele><time>2022-05-15T07:56:23.000Z</time></trkpt><trkpt lon="5.557056" lat="50.944677"><ele>87.4</ele><time>2022-05-15T07:56:24.000Z</time></trkpt><trkpt lon="5.557133" lat="50.94465"><ele>87.4</ele><time>2022-05-15T07:56:25.000Z</time></trkpt><trkpt lon="5.557206" lat="50.944623"><ele>87.4</ele><time>2022-05-15T07:56:26.000Z</time></trkpt><trkpt lon="5.557298" lat="50.944585"><ele>87.6</ele><time>2022-05-15T07:56:27.000Z</time></trkpt><trkpt lon="5.557394" lat="50.944543"><ele>87.6</ele><time>2022-05-15T07:56:28.000Z</time></trkpt><trkpt lon="5.557486" lat="50.944512"><ele>87.8</ele><time>2022-05-15T07:56:29.000Z</time></trkpt><trkpt lon="5.557574" lat="50.944482"><ele>88</ele><time>2022-05-15T07:56:30.000Z</time></trkpt><trkpt lon="5.557675" lat="50.944444"><ele>88</ele><time>2022-05-15T07:56:31.000Z</time></trkpt><trkpt lon="5.557763" lat="50.944413"><ele>88.2</ele><time>2022-05-15T07:56:32.000Z</time></trkpt><trkpt lon="5.557846" lat="50.944386"><ele>88.4</ele><time>2022-05-15T07:56:33.000Z</time></trkpt><trkpt lon="5.557938" lat="50.944356"><ele>88.6</ele><time>2022-05-15T07:56:34.000Z</time></trkpt><trkpt lon="5.558029" lat="50.944326"><ele>88.6</ele><time>2022-05-15T07:56:35.000Z</time></trkpt><trkpt lon="5.558121" lat="50.944292"><ele>88.8</ele><time>2022-05-15T07:56:36.000Z</time></trkpt><trkpt lon="5.558203" lat="50.944268"><ele>88.8</ele><time>2022-05-15T07:56:37.000Z</time></trkpt><trkpt lon="5.558276" lat="50.944242"><ele>88.8</ele><time>2022-05-15T07:56:38.000Z</time></trkpt><trkpt lon="5.558362" lat="50.944207"><ele>88.8</ele><time>2022-05-15T07:56:39.000Z</time></trkpt><trkpt lon="5.558444" lat="50.94418"><ele>88.8</ele><time>2022-05-15T07:56:40.000Z</time></trkpt><trkpt lon="5.558523" lat="50.944161"><ele>88.8</ele><time>2022-05-15T07:56:41.000Z</time></trkpt><trkpt lon="5.558601" lat="50.944146"><ele>88.8</ele><time>2022-05-15T07:56:42.000Z</time></trkpt><trkpt lon="5.558686" lat="50.944112"><ele>88.8</ele><time>2022-05-15T07:56:43.000Z</time></trkpt><trkpt lon="5.558775" lat="50.944078"><ele>88.6</ele><time>2022-05-15T07:56:44.000Z</time></trkpt><trkpt lon="5.558869" lat="50.94404"><ele>88.6</ele><time>2022-05-15T07:56:45.000Z</time></trkpt><trkpt lon="5.558957" lat="50.944009"><ele>88.8</ele><time>2022-05-15T07:56:46.000Z</time></trkpt><trkpt lon="5.559041" lat="50.943982"><ele>88.8</ele><time>2022-05-15T07:56:47.000Z</time></trkpt><trkpt lon="5.55911" lat="50.943963"><ele>88.8</ele><time>2022-05-15T07:56:48.000Z</time></trkpt><trkpt lon="5.559177" lat="50.943928"><ele>88.8</ele><time>2022-05-15T07:56:49.000Z</time></trkpt><trkpt lon="5.559227" lat="50.943894"><ele>88.8</ele><time>2022-05-15T07:56:50.000Z</time></trkpt><trkpt lon="5.559278" lat="50.943857"><ele>88.8</ele><time>2022-05-15T07:56:51.000Z</time></trkpt><trkpt lon="5.559322" lat="50.943811"><ele>88.8</ele><time>2022-05-15T07:56:52.000Z</time></trkpt><trkpt lon="5.559359" lat="50.943755"><ele>88.6</ele><time>2022-05-15T07:56:53.000Z</time></trkpt><trkpt lon="5.559409" lat="50.9437"><ele>88.4</ele><time>2022-05-15T07:56:54.000Z</time></trkpt><trkpt lon="5.559471" lat="50.943662"><ele>88.4</ele><time>2022-05-15T07:56:55.000Z</time></trkpt><trkpt lon="5.559546" lat="50.943631"><ele>88.4</ele><time>2022-05-15T07:56:56.000Z</time></trkpt><trkpt lon="5.559626" lat="50.943609"><ele>88.4</ele><time>2022-05-15T07:56:57.000Z</time></trkpt><trkpt lon="5.55971" lat="50.943578"><ele>88.4</ele><time>2022-05-15T07:56:58.000Z</time></trkpt><trkpt lon="5.5598" lat="50.943552"><ele>88.2</ele><time>2022-05-15T07:56:59.000Z</time></trkpt><trkpt lon="5.559886" lat="50.943522"><ele>88.2</ele><time>2022-05-15T07:57:00.000Z</time></trkpt><trkpt lon="5.559978" lat="50.943486"><ele>88.2</ele><time>2022-05-15T07:57:01.000Z</time></trkpt><trkpt lon="5.560059" lat="50.943452"><ele>88</ele><time>2022-05-15T07:57:02.000Z</time></trkpt><trkpt lon="5.560137" lat="50.943414"><ele>88</ele><time>2022-05-15T07:57:03.000Z</time></trkpt><trkpt lon="5.560214" lat="50.94338"><ele>88</ele><time>2022-05-15T07:57:04.000Z</time></trkpt><trkpt lon="5.560289" lat="50.943353"><ele>88</ele><time>2022-05-15T07:57:05.000Z</time></trkpt><trkpt lon="5.560365" lat="50.943326"><ele>88</ele><time>2022-05-15T07:57:06.000Z</time></trkpt><trkpt lon="5.560439" lat="50.943304"><ele>88</ele><time>2022-05-15T07:57:07.000Z</time></trkpt><trkpt lon="5.560511" lat="50.943287"><ele>88.2</ele><time>2022-05-15T07:57:08.000Z</time></trkpt><trkpt lon="5.560574" lat="50.943272"><ele>88.2</ele><time>2022-05-15T07:57:09.000Z</time></trkpt><trkpt lon="5.560638" lat="50.943261"><ele>88.2</ele><time>2022-05-15T07:57:10.000Z</time></trkpt><trkpt lon="5.560706" lat="50.943249"><ele>88.2</ele><time>2022-05-15T07:57:11.000Z</time></trkpt><trkpt lon="5.560773" lat="50.943238"><ele>88.4</ele><time>2022-05-15T07:57:12.000Z</time></trkpt><trkpt lon="5.560847" lat="50.943227"><ele>88.4</ele><time>2022-05-15T07:57:13.000Z</time></trkpt><trkpt lon="5.56093" lat="50.943215"><ele>88.6</ele><time>2022-05-15T07:57:14.000Z</time></trkpt><trkpt lon="5.561" lat="50.9432"><ele>88.6</ele><time>2022-05-15T07:57:15.000Z</time></trkpt><trkpt lon="5.561061" lat="50.943192"><ele>88.8</ele><time>2022-05-15T07:57:16.000Z</time></trkpt><trkpt lon="5.561125" lat="50.943184"><ele>88.8</ele><time>2022-05-15T07:57:17.000Z</time></trkpt><trkpt lon="5.561193" lat="50.943176"><ele>89</ele><time>2022-05-15T07:57:18.000Z</time></trkpt><trkpt lon="5.56127" lat="50.943173"><ele>89.2</ele><time>2022-05-15T07:57:19.000Z</time></trkpt><trkpt lon="5.561358" lat="50.943162"><ele>89.2</ele><time>2022-05-15T07:57:20.000Z</time></trkpt><trkpt lon="5.561445" lat="50.943143"><ele>89.4</ele><time>2022-05-15T07:57:21.000Z</time></trkpt><trkpt lon="5.561527" lat="50.943127"><ele>89.6</ele><time>2022-05-15T07:57:22.000Z</time></trkpt><trkpt lon="5.5616" lat="50.943112"><ele>89.6</ele><time>2022-05-15T07:57:23.000Z</time></trkpt><trkpt lon="5.561677" lat="50.943097"><ele>89.8</ele><time>2022-05-15T07:57:24.000Z</time></trkpt><trkpt lon="5.561754" lat="50.943078"><ele>89.8</ele><time>2022-05-15T07:57:25.000Z</time></trkpt><trkpt lon="5.561829" lat="50.943062"><ele>89.8</ele><time>2022-05-15T07:57:26.000Z</time></trkpt><trkpt lon="5.561916" lat="50.943043"><ele>90</ele><time>2022-05-15T07:57:27.000Z</time></trkpt><trkpt lon="5.562007" lat="50.943017"><ele>90</ele><time>2022-05-15T07:57:28.000Z</time></trkpt><trkpt lon="5.562109" lat="50.94299"><ele>90</ele><time>2022-05-15T07:57:29.000Z</time></trkpt><trkpt lon="5.562204" lat="50.942963"><ele>90</ele><time>2022-05-15T07:57:30.000Z</time></trkpt><trkpt lon="5.562294" lat="50.942941"><ele>90</ele><time>2022-05-15T07:57:31.000Z</time></trkpt><trkpt lon="5.562403" lat="50.942921"><ele>90</ele><time>2022-05-15T07:57:32.000Z</time></trkpt><trkpt lon="5.562505" lat="50.942902"><ele>90.2</ele><time>2022-05-15T07:57:33.000Z</time></trkpt><trkpt lon="5.562612" lat="50.942891"><ele>90.2</ele><time>2022-05-15T07:57:34.000Z</time></trkpt><trkpt lon="5.562722" lat="50.942879"><ele>90.4</ele><time>2022-05-15T07:57:35.000Z</time></trkpt><trkpt lon="5.562826" lat="50.942868"><ele>90.4</ele><time>2022-05-15T07:57:36.000Z</time></trkpt><trkpt lon="5.562937" lat="50.942852"><ele>90.6</ele><time>2022-05-15T07:57:37.000Z</time></trkpt><trkpt lon="5.563045" lat="50.942837"><ele>90.6</ele><time>2022-05-15T07:57:38.000Z</time></trkpt><trkpt lon="5.563149" lat="50.942818"><ele>90.6</ele><time>2022-05-15T07:57:39.000Z</time></trkpt><trkpt lon="5.563245" lat="50.942799"><ele>90.8</ele><time>2022-05-15T07:57:40.000Z</time></trkpt><trkpt lon="5.563337" lat="50.942788"><ele>90.8</ele><time>2022-05-15T07:57:41.000Z</time></trkpt><trkpt lon="5.563423" lat="50.942772"><ele>90.8</ele><time>2022-05-15T07:57:42.000Z</time></trkpt><trkpt lon="5.563516" lat="50.942761"><ele>90.8</ele><time>2022-05-15T07:57:43.000Z</time></trkpt><trkpt lon="5.563604" lat="50.942753"><ele>90.8</ele><time>2022-05-15T07:57:44.000Z</time></trkpt><trkpt lon="5.563703" lat="50.942734"><ele>90.8</ele><time>2022-05-15T07:57:45.000Z</time></trkpt><trkpt lon="5.563797" lat="50.942719"><ele>90.8</ele><time>2022-05-15T07:57:46.000Z</time></trkpt><trkpt lon="5.563886" lat="50.9427"><ele>90.8</ele><time>2022-05-15T07:57:47.000Z</time></trkpt><trkpt lon="5.56397" lat="50.942685"><ele>90.8</ele><time>2022-05-15T07:57:48.000Z</time></trkpt><trkpt lon="5.564052" lat="50.942669"><ele>91</ele><time>2022-05-15T07:57:49.000Z</time></trkpt><trkpt lon="5.564139" lat="50.942655"><ele>91</ele><time>2022-05-15T07:57:50.000Z</time></trkpt><trkpt lon="5.564247" lat="50.942639"><ele>91</ele><time>2022-05-15T07:57:51.000Z</time></trkpt><trkpt lon="5.564352" lat="50.942624"><ele>91</ele><time>2022-05-15T07:57:52.000Z</time></trkpt><trkpt lon="5.564447" lat="50.942612"><ele>91</ele><time>2022-05-15T07:57:53.000Z</time></trkpt><trkpt lon="5.56454" lat="50.942604"><ele>91</ele><time>2022-05-15T07:57:54.000Z</time></trkpt><trkpt lon="5.564629" lat="50.942597"><ele>91</ele><time>2022-05-15T07:57:55.000Z</time></trkpt><trkpt lon="5.564714" lat="50.942593"><ele>91</ele><time>2022-05-15T07:57:56.000Z</time></trkpt><trkpt lon="5.564794" lat="50.942589"><ele>91</ele><time>2022-05-15T07:57:57.000Z</time></trkpt><trkpt lon="5.564873" lat="50.942585"><ele>91</ele><time>2022-05-15T07:57:58.000Z</time></trkpt><trkpt lon="5.564967" lat="50.942581"><ele>91</ele><time>2022-05-15T07:57:59.000Z</time></trkpt><trkpt lon="5.565055" lat="50.942577"><ele>91</ele><time>2022-05-15T07:58:00.000Z</time></trkpt><trkpt lon="5.565145" lat="50.942574"><ele>91</ele><time>2022-05-15T07:58:01.000Z</time></trkpt><trkpt lon="5.565243" lat="50.942574"><ele>91</ele><time>2022-05-15T07:58:02.000Z</time></trkpt><trkpt lon="5.565339" lat="50.942567"><ele>91</ele><time>2022-05-15T07:58:03.000Z</time></trkpt><trkpt lon="5.565443" lat="50.942562"><ele>91</ele><time>2022-05-15T07:58:04.000Z</time></trkpt><trkpt lon="5.565546" lat="50.942566"><ele>91</ele><time>2022-05-15T07:58:05.000Z</time></trkpt><trkpt lon="5.56565" lat="50.942573"><ele>91.2</ele><time>2022-05-15T07:58:06.000Z</time></trkpt><trkpt lon="5.565761" lat="50.942574"><ele>91.2</ele><time>2022-05-15T07:58:07.000Z</time></trkpt><trkpt lon="5.565872" lat="50.94257"><ele>91.2</ele><time>2022-05-15T07:58:08.000Z</time></trkpt><trkpt lon="5.565989" lat="50.942562"><ele>91.4</ele><time>2022-05-15T07:58:09.000Z</time></trkpt><trkpt lon="5.566097" lat="50.942551"><ele>91.4</ele><time>2022-05-15T07:58:10.000Z</time></trkpt><trkpt lon="5.566207" lat="50.942536"><ele>91.4</ele><time>2022-05-15T07:58:11.000Z</time></trkpt><trkpt lon="5.56631" lat="50.942522"><ele>91.2</ele><time>2022-05-15T07:58:12.000Z</time></trkpt><trkpt lon="5.56644" lat="50.942502"><ele>91.4</ele><time>2022-05-15T07:58:13.000Z</time></trkpt><trkpt lon="5.566549" lat="50.94249"><ele>91.4</ele><time>2022-05-15T07:58:14.000Z</time></trkpt><trkpt lon="5.56666" lat="50.942475"><ele>91.4</ele><time>2022-05-15T07:58:15.000Z</time></trkpt><trkpt lon="5.566775" lat="50.942463"><ele>91.4</ele><time>2022-05-15T07:58:16.000Z</time></trkpt><trkpt lon="5.566878" lat="50.942452"><ele>91.4</ele><time>2022-05-15T07:58:17.000Z</time></trkpt><trkpt lon="5.56698" lat="50.942433"><ele>91.4</ele><time>2022-05-15T07:58:18.000Z</time></trkpt><trkpt lon="5.567109" lat="50.942399"><ele>91.2</ele><time>2022-05-15T07:58:19.000Z</time></trkpt><trkpt lon="5.56723" lat="50.942365"><ele>91.2</ele><time>2022-05-15T07:58:20.000Z</time></trkpt><trkpt lon="5.567334" lat="50.942341"><ele>91.2</ele><time>2022-05-15T07:58:21.000Z</time></trkpt><trkpt lon="5.567451" lat="50.942311"><ele>91.2</ele><time>2022-05-15T07:58:22.000Z</time></trkpt><trkpt lon="5.567544" lat="50.942288"><ele>91.2</ele><time>2022-05-15T07:58:23.000Z</time></trkpt><trkpt lon="5.567635" lat="50.942254"><ele>91.2</ele><time>2022-05-15T07:58:24.000Z</time></trkpt><trkpt lon="5.567704" lat="50.942224"><ele>91.2</ele><time>2022-05-15T07:58:25.000Z</time></trkpt><trkpt lon="5.567776" lat="50.942186"><ele>91.2</ele><time>2022-05-15T07:58:26.000Z</time></trkpt><trkpt lon="5.567825" lat="50.942146"><ele>91.2</ele><time>2022-05-15T07:58:27.000Z</time></trkpt><trkpt lon="5.567882" lat="50.942094"><ele>91.2</ele><time>2022-05-15T07:58:28.000Z</time></trkpt><trkpt lon="5.567921" lat="50.942041"><ele>91.2</ele><time>2022-05-15T07:58:29.000Z</time></trkpt><trkpt lon="5.567964" lat="50.941978"><ele>91.2</ele><time>2022-05-15T07:58:30.000Z</time></trkpt><trkpt lon="5.567995" lat="50.941921"><ele>91.2</ele><time>2022-05-15T07:58:31.000Z</time></trkpt><trkpt lon="5.568022" lat="50.941869"><ele>91.2</ele><time>2022-05-15T07:58:32.000Z</time></trkpt><trkpt lon="5.568056" lat="50.941809"><ele>91</ele><time>2022-05-15T07:58:33.000Z</time></trkpt><trkpt lon="5.568087" lat="50.941745"><ele>91</ele><time>2022-05-15T07:58:34.000Z</time></trkpt><trkpt lon="5.568109" lat="50.941687"><ele>91</ele><time>2022-05-15T07:58:35.000Z</time></trkpt><trkpt lon="5.568133" lat="50.941626"><ele>91</ele><time>2022-05-15T07:58:36.000Z</time></trkpt><trkpt lon="5.568153" lat="50.941568"><ele>91.2</ele><time>2022-05-15T07:58:37.000Z</time></trkpt><trkpt lon="5.568171" lat="50.941492"><ele>91.2</ele><time>2022-05-15T07:58:38.000Z</time></trkpt><trkpt lon="5.568189" lat="50.941424"><ele>91.2</ele><time>2022-05-15T07:58:39.000Z</time></trkpt><trkpt lon="5.568213" lat="50.941362"><ele>91.4</ele><time>2022-05-15T07:58:40.000Z</time></trkpt><trkpt lon="5.568228" lat="50.941312"><ele>91.4</ele><time>2022-05-15T07:58:41.000Z</time></trkpt><trkpt lon="5.568239" lat="50.941243"><ele>91.4</ele><time>2022-05-15T07:58:42.000Z</time></trkpt><trkpt lon="5.56825" lat="50.941172"><ele>91.6</ele><time>2022-05-15T07:58:43.000Z</time></trkpt><trkpt lon="5.568265" lat="50.941099"><ele>91.6</ele><time>2022-05-15T07:58:44.000Z</time></trkpt><trkpt lon="5.568285" lat="50.941027"><ele>91.6</ele><time>2022-05-15T07:58:45.000Z</time></trkpt><trkpt lon="5.568304" lat="50.940965"><ele>91.6</ele><time>2022-05-15T07:58:46.000Z</time></trkpt><trkpt lon="5.568319" lat="50.940901"><ele>91.6</ele><time>2022-05-15T07:58:47.000Z</time></trkpt><trkpt lon="5.568336" lat="50.940825"><ele>91.6</ele><time>2022-05-15T07:58:48.000Z</time></trkpt><trkpt lon="5.568361" lat="50.940756"><ele>91.6</ele><time>2022-05-15T07:58:49.000Z</time></trkpt><trkpt lon="5.568378" lat="50.940694"><ele>91.8</ele><time>2022-05-15T07:58:50.000Z</time></trkpt><trkpt lon="5.568383" lat="50.940639"><ele>91.8</ele><time>2022-05-15T07:58:51.000Z</time></trkpt><trkpt lon="5.568393" lat="50.94058"><ele>91.8</ele><time>2022-05-15T07:58:52.000Z</time></trkpt><trkpt lon="5.568408" lat="50.940531"><ele>92</ele><time>2022-05-15T07:58:53.000Z</time></trkpt><trkpt lon="5.568432" lat="50.940488"><ele>92.2</ele><time>2022-05-15T07:58:54.000Z</time></trkpt><trkpt lon="5.568465" lat="50.940454"><ele>92.4</ele><time>2022-05-15T07:58:55.000Z</time></trkpt><trkpt lon="5.568523" lat="50.940442"><ele>92.4</ele><time>2022-05-15T07:58:56.000Z</time></trkpt><trkpt lon="5.568589" lat="50.940434"><ele>92.4</ele><time>2022-05-15T07:58:57.000Z</time></trkpt><trkpt lon="5.568667" lat="50.940433"><ele>92.6</ele><time>2022-05-15T07:58:58.000Z</time></trkpt><trkpt lon="5.568759" lat="50.940422"><ele>92.6</ele><time>2022-05-15T07:58:59.000Z</time></trkpt><trkpt lon="5.568862" lat="50.940407"><ele>92.6</ele><time>2022-05-15T07:59:00.000Z</time></trkpt><trkpt lon="5.568964" lat="50.940381"><ele>92.6</ele><time>2022-05-15T07:59:01.000Z</time></trkpt><trkpt lon="5.569066" lat="50.940351"><ele>92.6</ele><time>2022-05-15T07:59:02.000Z</time></trkpt><trkpt lon="5.56917" lat="50.94032"><ele>92.6</ele><time>2022-05-15T07:59:03.000Z</time></trkpt><trkpt lon="5.569277" lat="50.940289"><ele>92.6</ele><time>2022-05-15T07:59:04.000Z</time></trkpt><trkpt lon="5.569378" lat="50.940256"><ele>92.6</ele><time>2022-05-15T07:59:05.000Z</time></trkpt><trkpt lon="5.56948" lat="50.940213"><ele>92.6</ele><time>2022-05-15T07:59:06.000Z</time></trkpt><trkpt lon="5.569582" lat="50.940175"><ele>92.6</ele><time>2022-05-15T07:59:07.000Z</time></trkpt><trkpt lon="5.569682" lat="50.940137"><ele>92.4</ele><time>2022-05-15T07:59:08.000Z</time></trkpt><trkpt lon="5.569769" lat="50.94011"><ele>92.4</ele><time>2022-05-15T07:59:09.000Z</time></trkpt><trkpt lon="5.569854" lat="50.940083"><ele>92.2</ele><time>2022-05-15T07:59:10.000Z</time></trkpt><trkpt lon="5.56992" lat="50.940049"><ele>92.2</ele><time>2022-05-15T07:59:11.000Z</time></trkpt><trkpt lon="5.569962" lat="50.94002"><ele>92.2</ele><time>2022-05-15T07:59:12.000Z</time></trkpt><trkpt lon="5.569991" lat="50.939988"><ele>92.2</ele><time>2022-05-15T07:59:13.000Z</time></trkpt><trkpt lon="5.570003" lat="50.939958"><ele>92.4</ele><time>2022-05-15T07:59:14.000Z</time></trkpt><trkpt lon="5.569998" lat="50.939923"><ele>92.4</ele><time>2022-05-15T07:59:15.000Z</time></trkpt><trkpt lon="5.569985" lat="50.939889"><ele>92.4</ele><time>2022-05-15T07:59:16.000Z</time></trkpt><trkpt lon="5.569956" lat="50.939848"><ele>92.4</ele><time>2022-05-15T07:59:17.000Z</time></trkpt><trkpt lon="5.569924" lat="50.939794"><ele>92.4</ele><time>2022-05-15T07:59:18.000Z</time></trkpt><trkpt lon="5.569881" lat="50.93973"><ele>92.4</ele><time>2022-05-15T07:59:19.000Z</time></trkpt><trkpt lon="5.569832" lat="50.939662"><ele>92.4</ele><time>2022-05-15T07:59:20.000Z</time></trkpt><trkpt lon="5.569786" lat="50.939604"><ele>92.4</ele><time>2022-05-15T07:59:21.000Z</time></trkpt><trkpt lon="5.569744" lat="50.939551"><ele>92.4</ele><time>2022-05-15T07:59:22.000Z</time></trkpt><trkpt lon="5.569701" lat="50.9395"><ele>92.4</ele><time>2022-05-15T07:59:23.000Z</time></trkpt><trkpt lon="5.56966" lat="50.939452"><ele>92.4</ele><time>2022-05-15T07:59:24.000Z</time></trkpt><trkpt lon="5.569618" lat="50.939409"><ele>92.4</ele><time>2022-05-15T07:59:25.000Z</time></trkpt><trkpt lon="5.569565" lat="50.939356"><ele>92.4</ele><time>2022-05-15T07:59:26.000Z</time></trkpt><trkpt lon="5.56952" lat="50.93931"><ele>92.4</ele><time>2022-05-15T07:59:27.000Z</time></trkpt><trkpt lon="5.569472" lat="50.939257"><ele>92.4</ele><time>2022-05-15T07:59:28.000Z</time></trkpt><trkpt lon="5.569422" lat="50.9392"><ele>92.4</ele><time>2022-05-15T07:59:29.000Z</time></trkpt><trkpt lon="5.569365" lat="50.939139"><ele>92.4</ele><time>2022-05-15T07:59:30.000Z</time></trkpt><trkpt lon="5.569312" lat="50.939088"><ele>92.4</ele><time>2022-05-15T07:59:31.000Z</time></trkpt><trkpt lon="5.569255" lat="50.939039"><ele>92.4</ele><time>2022-05-15T07:59:32.000Z</time></trkpt><trkpt lon="5.569219" lat="50.938993"><ele>92.4</ele><time>2022-05-15T07:59:33.000Z</time></trkpt><trkpt lon="5.569179" lat="50.93894"><ele>92.4</ele><time>2022-05-15T07:59:34.000Z</time></trkpt><trkpt lon="5.569181" lat="50.938894"><ele>92.4</ele><time>2022-05-15T07:59:35.000Z</time></trkpt><trkpt lon="5.569191" lat="50.93884"><ele>92.4</ele><time>2022-05-15T07:59:36.000Z</time></trkpt><trkpt lon="5.56919" lat="50.938791"><ele>92.2</ele><time>2022-05-15T07:59:37.000Z</time></trkpt><trkpt lon="5.5692" lat="50.938738"><ele>92.2</ele><time>2022-05-15T07:59:38.000Z</time></trkpt><trkpt lon="5.569217" lat="50.938681"><ele>92.2</ele><time>2022-05-15T07:59:39.000Z</time></trkpt><trkpt lon="5.569249" lat="50.938627"><ele>92.2</ele><time>2022-05-15T07:59:40.000Z</time></trkpt><trkpt lon="5.56929" lat="50.938577"><ele>92.2</ele><time>2022-05-15T07:59:41.000Z</time></trkpt><trkpt lon="5.569331" lat="50.938529"><ele>92.2</ele><time>2022-05-15T07:59:42.000Z</time></trkpt><trkpt lon="5.569362" lat="50.938482"><ele>92.2</ele><time>2022-05-15T07:59:43.000Z</time></trkpt><trkpt lon="5.569394" lat="50.93844"><ele>92.2</ele><time>2022-05-15T07:59:44.000Z</time></trkpt><trkpt lon="5.569424" lat="50.93839"><ele>92.2</ele><time>2022-05-15T07:59:45.000Z</time></trkpt><trkpt lon="5.569454" lat="50.938345"><ele>92.2</ele><time>2022-05-15T07:59:46.000Z</time></trkpt><trkpt lon="5.569488" lat="50.938295"><ele>92.2</ele><time>2022-05-15T07:59:47.000Z</time></trkpt><trkpt lon="5.569524" lat="50.938253"><ele>92.2</ele><time>2022-05-15T07:59:48.000Z</time></trkpt><trkpt lon="5.569563" lat="50.938204"><ele>92.2</ele><time>2022-05-15T07:59:49.000Z</time></trkpt><trkpt lon="5.569609" lat="50.93815"><ele>92.2</ele><time>2022-05-15T07:59:50.000Z</time></trkpt><trkpt lon="5.569653" lat="50.938105"><ele>92</ele><time>2022-05-15T07:59:51.000Z</time></trkpt><trkpt lon="5.569689" lat="50.938055"><ele>92</ele><time>2022-05-15T07:59:52.000Z</time></trkpt><trkpt lon="5.56973" lat="50.938016"><ele>92</ele><time>2022-05-15T07:59:53.000Z</time></trkpt><trkpt lon="5.569767" lat="50.937967"><ele>92</ele><time>2022-05-15T07:59:54.000Z</time></trkpt><trkpt lon="5.569791" lat="50.937928"><ele>91.8</ele><time>2022-05-15T07:59:55.000Z</time></trkpt><trkpt lon="5.569816" lat="50.937894"><ele>91.8</ele><time>2022-05-15T07:59:56.000Z</time></trkpt><trkpt lon="5.569818" lat="50.93786"><ele>91.8</ele><time>2022-05-15T07:59:57.000Z</time></trkpt><trkpt lon="5.569828" lat="50.937833"><ele>91.8</ele><time>2022-05-15T07:59:58.000Z</time></trkpt><trkpt lon="5.569838" lat="50.937806"><ele>91.8</ele><time>2022-05-15T07:59:59.000Z</time></trkpt><trkpt lon="5.569846" lat="50.937769"><ele>91.8</ele><time>2022-05-15T08:00:00.000Z</time></trkpt><trkpt lon="5.569868" lat="50.937738"><ele>91.6</ele><time>2022-05-15T08:00:01.000Z</time></trkpt><trkpt lon="5.569905" lat="50.937703"><ele>91.6</ele><time>2022-05-15T08:00:02.000Z</time></trkpt><trkpt lon="5.569957" lat="50.937673"><ele>91.4</ele><time>2022-05-15T08:00:03.000Z</time></trkpt><trkpt lon="5.570004" lat="50.937636"><ele>91.4</ele><time>2022-05-15T08:00:04.000Z</time></trkpt><trkpt lon="5.570063" lat="50.937596"><ele>91.2</ele><time>2022-05-15T08:00:05.000Z</time></trkpt><trkpt lon="5.57012" lat="50.937558"><ele>91.2</ele><time>2022-05-15T08:00:06.000Z</time></trkpt><trkpt lon="5.570184" lat="50.93752"><ele>91.2</ele><time>2022-05-15T08:00:07.000Z</time></trkpt><trkpt lon="5.570256" lat="50.937475"><ele>91.2</ele><time>2022-05-15T08:00:08.000Z</time></trkpt><trkpt lon="5.570332" lat="50.937429"><ele>91.2</ele><time>2022-05-15T08:00:09.000Z</time></trkpt><trkpt lon="5.570407" lat="50.937387"><ele>91.2</ele><time>2022-05-15T08:00:10.000Z</time></trkpt><trkpt lon="5.570483" lat="50.937341"><ele>91.2</ele><time>2022-05-15T08:00:11.000Z</time></trkpt><trkpt lon="5.570556" lat="50.937277"><ele>91.2</ele><time>2022-05-15T08:00:12.000Z</time></trkpt><trkpt lon="5.570626" lat="50.937212"><ele>91.2</ele><time>2022-05-15T08:00:13.000Z</time></trkpt><trkpt lon="5.570692" lat="50.93715"><ele>91.2</ele><time>2022-05-15T08:00:14.000Z</time></trkpt><trkpt lon="5.57076" lat="50.937086"><ele>91.2</ele><time>2022-05-15T08:00:15.000Z</time></trkpt><trkpt lon="5.57083" lat="50.937028"><ele>91.2</ele><time>2022-05-15T08:00:16.000Z</time></trkpt><trkpt lon="5.570899" lat="50.93698"><ele>91</ele><time>2022-05-15T08:00:17.000Z</time></trkpt><trkpt lon="5.57098" lat="50.936922"><ele>91</ele><time>2022-05-15T08:00:18.000Z</time></trkpt><trkpt lon="5.571062" lat="50.936865"><ele>91</ele><time>2022-05-15T08:00:19.000Z</time></trkpt><trkpt lon="5.571143" lat="50.936807"><ele>91</ele><time>2022-05-15T08:00:20.000Z</time></trkpt><trkpt lon="5.571225" lat="50.936758"><ele>91</ele><time>2022-05-15T08:00:21.000Z</time></trkpt><trkpt lon="5.571308" lat="50.936708"><ele>91</ele><time>2022-05-15T08:00:22.000Z</time></trkpt><trkpt lon="5.571389" lat="50.936659"><ele>91</ele><time>2022-05-15T08:00:23.000Z</time></trkpt><trkpt lon="5.571466" lat="50.93661"><ele>90.8</ele><time>2022-05-15T08:00:24.000Z</time></trkpt><trkpt lon="5.571542" lat="50.93656"><ele>91</ele><time>2022-05-15T08:00:25.000Z</time></trkpt><trkpt lon="5.571613" lat="50.93651"><ele>91</ele><time>2022-05-15T08:00:26.000Z</time></trkpt><trkpt lon="5.571679" lat="50.936471"><ele>91</ele><time>2022-05-15T08:00:27.000Z</time></trkpt><trkpt lon="5.57174" lat="50.936426"><ele>90.8</ele><time>2022-05-15T08:00:28.000Z</time></trkpt><trkpt lon="5.571802" lat="50.936384"><ele>90.8</ele><time>2022-05-15T08:00:29.000Z</time></trkpt><trkpt lon="5.571868" lat="50.936349"><ele>90.8</ele><time>2022-05-15T08:00:30.000Z</time></trkpt><trkpt lon="5.571936" lat="50.936311"><ele>90.6</ele><time>2022-05-15T08:00:31.000Z</time></trkpt><trkpt lon="5.572007" lat="50.93627"><ele>90.6</ele><time>2022-05-15T08:00:32.000Z</time></trkpt><trkpt lon="5.572078" lat="50.936231"><ele>90.8</ele><time>2022-05-15T08:00:33.000Z</time></trkpt><trkpt lon="5.572154" lat="50.936189"><ele>90.8</ele><time>2022-05-15T08:00:34.000Z</time></trkpt><trkpt lon="5.572229" lat="50.936143"><ele>90.8</ele><time>2022-05-15T08:00:35.000Z</time></trkpt><trkpt lon="5.572309" lat="50.936098"><ele>90.8</ele><time>2022-05-15T08:00:36.000Z</time></trkpt><trkpt lon="5.572388" lat="50.936048"><ele>90.8</ele><time>2022-05-15T08:00:37.000Z</time></trkpt><trkpt lon="5.572469" lat="50.936002"><ele>90.6</ele><time>2022-05-15T08:00:38.000Z</time></trkpt><trkpt lon="5.572553" lat="50.935956"><ele>90.6</ele><time>2022-05-15T08:00:39.000Z</time></trkpt><trkpt lon="5.572633" lat="50.935911"><ele>90.6</ele><time>2022-05-15T08:00:40.000Z</time></trkpt><trkpt lon="5.572712" lat="50.935865"><ele>90.6</ele><time>2022-05-15T08:00:41.000Z</time></trkpt><trkpt lon="5.572779" lat="50.935827"><ele>90.6</ele><time>2022-05-15T08:00:42.000Z</time></trkpt><trkpt lon="5.572871" lat="50.935773"><ele>90.6</ele><time>2022-05-15T08:00:43.000Z</time></trkpt><trkpt lon="5.572951" lat="50.935728"><ele>90.6</ele><time>2022-05-15T08:00:44.000Z</time></trkpt><trkpt lon="5.573031" lat="50.935682"><ele>90.8</ele><time>2022-05-15T08:00:45.000Z</time></trkpt><trkpt lon="5.573109" lat="50.935636"><ele>90.8</ele><time>2022-05-15T08:00:46.000Z</time></trkpt><trkpt lon="5.573185" lat="50.935591"><ele>91</ele><time>2022-05-15T08:00:47.000Z</time></trkpt><trkpt lon="5.573256" lat="50.935548"><ele>91</ele><time>2022-05-15T08:00:48.000Z</time></trkpt><trkpt lon="5.573318" lat="50.935506"><ele>91</ele><time>2022-05-15T08:00:49.000Z</time></trkpt><trkpt lon="5.573378" lat="50.935464"><ele>91</ele><time>2022-05-15T08:00:50.000Z</time></trkpt><trkpt lon="5.573439" lat="50.935415"><ele>91</ele><time>2022-05-15T08:00:51.000Z</time></trkpt><trkpt lon="5.573503" lat="50.935361"><ele>91</ele><time>2022-05-15T08:00:52.000Z</time></trkpt><trkpt lon="5.573573" lat="50.935312"><ele>91</ele><time>2022-05-15T08:00:53.000Z</time></trkpt><trkpt lon="5.573649" lat="50.935259"><ele>90.8</ele><time>2022-05-15T08:00:54.000Z</time></trkpt><trkpt lon="5.573726" lat="50.935206"><ele>90.8</ele><time>2022-05-15T08:00:55.000Z</time></trkpt><trkpt lon="5.573806" lat="50.935152"><ele>90.8</ele><time>2022-05-15T08:00:56.000Z</time></trkpt><trkpt lon="5.573883" lat="50.935102"><ele>90.8</ele><time>2022-05-15T08:00:57.000Z</time></trkpt><trkpt lon="5.573957" lat="50.935053"><ele>90.8</ele><time>2022-05-15T08:00:58.000Z</time></trkpt><trkpt lon="5.574033" lat="50.935003"><ele>90.8</ele><time>2022-05-15T08:00:59.000Z</time></trkpt><trkpt lon="5.574107" lat="50.934954"><ele>90.8</ele><time>2022-05-15T08:01:00.000Z</time></trkpt><trkpt lon="5.574177" lat="50.934901"><ele>90.6</ele><time>2022-05-15T08:01:01.000Z</time></trkpt><trkpt lon="5.574248" lat="50.934847"><ele>90.6</ele><time>2022-05-15T08:01:02.000Z</time></trkpt><trkpt lon="5.574314" lat="50.934801"><ele>90.6</ele><time>2022-05-15T08:01:03.000Z</time></trkpt><trkpt lon="5.574381" lat="50.934752"><ele>90.6</ele><time>2022-05-15T08:01:04.000Z</time></trkpt><trkpt lon="5.574448" lat="50.934701"><ele>90.4</ele><time>2022-05-15T08:01:05.000Z</time></trkpt><trkpt lon="5.574511" lat="50.934657"><ele>90.4</ele><time>2022-05-15T08:01:06.000Z</time></trkpt><trkpt lon="5.574575" lat="50.934607"><ele>90.4</ele><time>2022-05-15T08:01:07.000Z</time></trkpt><trkpt lon="5.57464" lat="50.934557"><ele>90.4</ele><time>2022-05-15T08:01:08.000Z</time></trkpt><trkpt lon="5.574705" lat="50.934507"><ele>90.2</ele><time>2022-05-15T08:01:09.000Z</time></trkpt><trkpt lon="5.57477" lat="50.934458"><ele>90.2</ele><time>2022-05-15T08:01:10.000Z</time></trkpt><trkpt lon="5.574836" lat="50.934408"><ele>90</ele><time>2022-05-15T08:01:11.000Z</time></trkpt><trkpt lon="5.574903" lat="50.934355"><ele>89.8</ele><time>2022-05-15T08:01:12.000Z</time></trkpt><trkpt lon="5.57497" lat="50.934298"><ele>89.6</ele><time>2022-05-15T08:01:13.000Z</time></trkpt><trkpt lon="5.575036" lat="50.934244"><ele>89.2</ele><time>2022-05-15T08:01:14.000Z</time></trkpt><trkpt lon="5.5751" lat="50.934194"><ele>88.8</ele><time>2022-05-15T08:01:15.000Z</time></trkpt><trkpt lon="5.575166" lat="50.934144"><ele>88.8</ele><time>2022-05-15T08:01:16.000Z</time></trkpt><trkpt lon="5.575227" lat="50.934095"><ele>88.6</ele><time>2022-05-15T08:01:17.000Z</time></trkpt><trkpt lon="5.575284" lat="50.934054"><ele>88.4</ele><time>2022-05-15T08:01:18.000Z</time></trkpt><trkpt lon="5.575344" lat="50.934007"><ele>88.2</ele><time>2022-05-15T08:01:19.000Z</time></trkpt><trkpt lon="5.575397" lat="50.933969"><ele>88</ele><time>2022-05-15T08:01:20.000Z</time></trkpt><trkpt lon="5.575444" lat="50.93393"><ele>87.8</ele><time>2022-05-15T08:01:21.000Z</time></trkpt><trkpt lon="5.575485" lat="50.933896"><ele>87.4</ele><time>2022-05-15T08:01:22.000Z</time></trkpt><trkpt lon="5.575522" lat="50.933869"><ele>87.2</ele><time>2022-05-15T08:01:23.000Z</time></trkpt><trkpt lon="5.575553" lat="50.933842"><ele>86.8</ele><time>2022-05-15T08:01:24.000Z</time></trkpt><trkpt lon="5.575578" lat="50.933819"><ele>86.6</ele><time>2022-05-15T08:01:25.000Z</time></trkpt><trkpt lon="5.575593" lat="50.933804"><ele>86.4</ele><time>2022-05-15T08:01:26.000Z</time></trkpt><trkpt lon="5.575605" lat="50.933789"><ele>86.2</ele><time>2022-05-15T08:01:27.000Z</time></trkpt><trkpt lon="5.575613" lat="50.933777"><ele>86.2</ele><time>2022-05-15T08:01:28.000Z</time></trkpt><trkpt lon="5.575621" lat="50.933762"><ele>86</ele><time>2022-05-15T08:01:29.000Z</time></trkpt><trkpt lon="5.575635" lat="50.933751"><ele>85.8</ele><time>2022-05-15T08:01:30.000Z</time></trkpt><trkpt lon="5.575653" lat="50.933732"><ele>85.8</ele><time>2022-05-15T08:01:31.000Z</time></trkpt><trkpt lon="5.575683" lat="50.933717"><ele>85.6</ele><time>2022-05-15T08:01:32.000Z</time></trkpt><trkpt lon="5.575721" lat="50.933708"><ele>85.6</ele><time>2022-05-15T08:01:33.000Z</time></trkpt><trkpt lon="5.575767" lat="50.933708"><ele>85.4</ele><time>2022-05-15T08:01:34.000Z</time></trkpt><trkpt lon="5.575822" lat="50.933719"><ele>85.4</ele><time>2022-05-15T08:01:35.000Z</time></trkpt><trkpt lon="5.575885" lat="50.933731"><ele>85.4</ele><time>2022-05-15T08:01:36.000Z</time></trkpt><trkpt lon="5.575953" lat="50.933742"><ele>85.2</ele><time>2022-05-15T08:01:37.000Z</time></trkpt><trkpt lon="5.576021" lat="50.933761"><ele>85.2</ele><time>2022-05-15T08:01:38.000Z</time></trkpt><trkpt lon="5.576092" lat="50.93378"><ele>85.2</ele><time>2022-05-15T08:01:39.000Z</time></trkpt><trkpt lon="5.576167" lat="50.933806"><ele>85.2</ele><time>2022-05-15T08:01:40.000Z</time></trkpt><trkpt lon="5.576249" lat="50.933837"><ele>85.2</ele><time>2022-05-15T08:01:41.000Z</time></trkpt><trkpt lon="5.576329" lat="50.933866"><ele>85.2</ele><time>2022-05-15T08:01:42.000Z</time></trkpt><trkpt lon="5.576413" lat="50.933894"><ele>85.4</ele><time>2022-05-15T08:01:43.000Z</time></trkpt><trkpt lon="5.576495" lat="50.933925"><ele>85.4</ele><time>2022-05-15T08:01:44.000Z</time></trkpt><trkpt lon="5.576576" lat="50.933955"><ele>85.6</ele><time>2022-05-15T08:01:45.000Z</time></trkpt><trkpt lon="5.576658" lat="50.933982"><ele>85.6</ele><time>2022-05-15T08:01:46.000Z</time></trkpt><trkpt lon="5.57674" lat="50.934012"><ele>85.6</ele><time>2022-05-15T08:01:47.000Z</time></trkpt><trkpt lon="5.576824" lat="50.934039"><ele>85.8</ele><time>2022-05-15T08:01:48.000Z</time></trkpt><trkpt lon="5.576906" lat="50.93407"><ele>85.8</ele><time>2022-05-15T08:01:49.000Z</time></trkpt><trkpt lon="5.576986" lat="50.934097"><ele>85.8</ele><time>2022-05-15T08:01:50.000Z</time></trkpt><trkpt lon="5.577069" lat="50.934123"><ele>85.8</ele><time>2022-05-15T08:01:51.000Z</time></trkpt><trkpt lon="5.577149" lat="50.93415"><ele>85.6</ele><time>2022-05-15T08:01:52.000Z</time></trkpt><trkpt lon="5.577233" lat="50.934177"><ele>85.6</ele><time>2022-05-15T08:01:53.000Z</time></trkpt><trkpt lon="5.577315" lat="50.934203"><ele>85.6</ele><time>2022-05-15T08:01:54.000Z</time></trkpt><trkpt lon="5.5774" lat="50.93423"><ele>85.8</ele><time>2022-05-15T08:01:55.000Z</time></trkpt><trkpt lon="5.577488" lat="50.934261"><ele>85.8</ele><time>2022-05-15T08:01:56.000Z</time></trkpt><trkpt lon="5.577573" lat="50.934287"><ele>85.8</ele><time>2022-05-15T08:01:57.000Z</time></trkpt><trkpt lon="5.577657" lat="50.93431"><ele>86</ele><time>2022-05-15T08:01:58.000Z</time></trkpt><trkpt lon="5.577741" lat="50.934337"><ele>86</ele><time>2022-05-15T08:01:59.000Z</time></trkpt><trkpt lon="5.577825" lat="50.93436"><ele>86</ele><time>2022-05-15T08:02:00.000Z</time></trkpt><trkpt lon="5.577911" lat="50.934383"><ele>86</ele><time>2022-05-15T08:02:01.000Z</time></trkpt><trkpt lon="5.577993" lat="50.934406"><ele>86.2</ele><time>2022-05-15T08:02:02.000Z</time></trkpt><trkpt lon="5.578075" lat="50.934428"><ele>86.2</ele><time>2022-05-15T08:02:03.000Z</time></trkpt><trkpt lon="5.57816" lat="50.934451"><ele>86.2</ele><time>2022-05-15T08:02:04.000Z</time></trkpt><trkpt lon="5.578243" lat="50.934474"><ele>86.2</ele><time>2022-05-15T08:02:05.000Z</time></trkpt><trkpt lon="5.578327" lat="50.934497"><ele>86.2</ele><time>2022-05-15T08:02:06.000Z</time></trkpt><trkpt lon="5.578413" lat="50.934516"><ele>86.4</ele><time>2022-05-15T08:02:07.000Z</time></trkpt><trkpt lon="5.578502" lat="50.934539"><ele>86.6</ele><time>2022-05-15T08:02:08.000Z</time></trkpt><trkpt lon="5.578591" lat="50.934555"><ele>86.6</ele><time>2022-05-15T08:02:09.000Z</time></trkpt><trkpt lon="5.578679" lat="50.934574"><ele>86.8</ele><time>2022-05-15T08:02:10.000Z</time></trkpt><trkpt lon="5.578769" lat="50.934593"><ele>86.8</ele><time>2022-05-15T08:02:11.000Z</time></trkpt><trkpt lon="5.578857" lat="50.934608"><ele>87</ele><time>2022-05-15T08:02:12.000Z</time></trkpt><trkpt lon="5.578944" lat="50.934627"><ele>87</ele><time>2022-05-15T08:02:13.000Z</time></trkpt><trkpt lon="5.57903" lat="50.934646"><ele>87</ele><time>2022-05-15T08:02:14.000Z</time></trkpt><trkpt lon="5.579117" lat="50.934669"><ele>87.2</ele><time>2022-05-15T08:02:15.000Z</time></trkpt><trkpt lon="5.579202" lat="50.934688"><ele>87.2</ele><time>2022-05-15T08:02:16.000Z</time></trkpt><trkpt lon="5.579291" lat="50.934707"><ele>87.2</ele><time>2022-05-15T08:02:17.000Z</time></trkpt><trkpt lon="5.579379" lat="50.93473"><ele>87</ele><time>2022-05-15T08:02:18.000Z</time></trkpt><trkpt lon="5.579468" lat="50.934753"><ele>87</ele><time>2022-05-15T08:02:19.000Z</time></trkpt><trkpt lon="5.579559" lat="50.934776"><ele>87</ele><time>2022-05-15T08:02:20.000Z</time></trkpt><trkpt lon="5.579651" lat="50.934798"><ele>87.2</ele><time>2022-05-15T08:02:21.000Z</time></trkpt><trkpt lon="5.579744" lat="50.934825"><ele>87.2</ele><time>2022-05-15T08:02:22.000Z</time></trkpt><trkpt lon="5.579836" lat="50.934848"><ele>87.4</ele><time>2022-05-15T08:02:23.000Z</time></trkpt><trkpt lon="5.57993" lat="50.934871"><ele>87.6</ele><time>2022-05-15T08:02:24.000Z</time></trkpt><trkpt lon="5.580021" lat="50.934894"><ele>87.6</ele><time>2022-05-15T08:02:25.000Z</time></trkpt><trkpt lon="5.580114" lat="50.934917"><ele>87.8</ele><time>2022-05-15T08:02:26.000Z</time></trkpt><trkpt lon="5.580206" lat="50.934936"><ele>88</ele><time>2022-05-15T08:02:27.000Z</time></trkpt><trkpt lon="5.580297" lat="50.934959"><ele>88.2</ele><time>2022-05-15T08:02:28.000Z</time></trkpt><trkpt lon="5.580386" lat="50.934978"><ele>88.2</ele><time>2022-05-15T08:02:29.000Z</time></trkpt><trkpt lon="5.580477" lat="50.935001"><ele>88.4</ele><time>2022-05-15T08:02:30.000Z</time></trkpt><trkpt lon="5.580569" lat="50.93502"><ele>88.4</ele><time>2022-05-15T08:02:31.000Z</time></trkpt><trkpt lon="5.580659" lat="50.935043"><ele>88.4</ele><time>2022-05-15T08:02:32.000Z</time></trkpt><trkpt lon="5.58075" lat="50.935062"><ele>88.6</ele><time>2022-05-15T08:02:33.000Z</time></trkpt><trkpt lon="5.580838" lat="50.935085"><ele>88.6</ele><time>2022-05-15T08:02:34.000Z</time></trkpt><trkpt lon="5.580923" lat="50.935107"><ele>88.6</ele><time>2022-05-15T08:02:35.000Z</time></trkpt><trkpt lon="5.581011" lat="50.93513"><ele>88.8</ele><time>2022-05-15T08:02:36.000Z</time></trkpt><trkpt lon="5.581096" lat="50.93515"><ele>88.8</ele><time>2022-05-15T08:02:37.000Z</time></trkpt><trkpt lon="5.581184" lat="50.935169"><ele>88.8</ele><time>2022-05-15T08:02:38.000Z</time></trkpt><trkpt lon="5.581271" lat="50.935188"><ele>89</ele><time>2022-05-15T08:02:39.000Z</time></trkpt><trkpt lon="5.581354" lat="50.93521"><ele>89</ele><time>2022-05-15T08:02:40.000Z</time></trkpt><trkpt lon="5.58144" lat="50.935234"><ele>89</ele><time>2022-05-15T08:02:41.000Z</time></trkpt><trkpt lon="5.581525" lat="50.935256"><ele>89</ele><time>2022-05-15T08:02:42.000Z</time></trkpt><trkpt lon="5.581609" lat="50.935279"><ele>89</ele><time>2022-05-15T08:02:43.000Z</time></trkpt><trkpt lon="5.581693" lat="50.935298"><ele>88.8</ele><time>2022-05-15T08:02:44.000Z</time></trkpt><trkpt lon="5.581777" lat="50.935317"><ele>88.8</ele><time>2022-05-15T08:02:45.000Z</time></trkpt><trkpt lon="5.581862" lat="50.935336"><ele>88.8</ele><time>2022-05-15T08:02:46.000Z</time></trkpt><trkpt lon="5.581946" lat="50.935359"><ele>89</ele><time>2022-05-15T08:02:47.000Z</time></trkpt><trkpt lon="5.582029" lat="50.935378"><ele>89.2</ele><time>2022-05-15T08:02:48.000Z</time></trkpt><trkpt lon="5.582114" lat="50.935397"><ele>89.4</ele><time>2022-05-15T08:02:49.000Z</time></trkpt><trkpt lon="5.5822" lat="50.93542"><ele>89.6</ele><time>2022-05-15T08:02:50.000Z</time></trkpt><trkpt lon="5.582284" lat="50.93544"><ele>89.6</ele><time>2022-05-15T08:02:51.000Z</time></trkpt><trkpt lon="5.582371" lat="50.935466"><ele>89.6</ele><time>2022-05-15T08:02:52.000Z</time></trkpt><trkpt lon="5.582459" lat="50.935485"><ele>89.8</ele><time>2022-05-15T08:02:53.000Z</time></trkpt><trkpt lon="5.582545" lat="50.935508"><ele>90</ele><time>2022-05-15T08:02:54.000Z</time></trkpt><trkpt lon="5.582632" lat="50.935527"><ele>90</ele><time>2022-05-15T08:02:55.000Z</time></trkpt><trkpt lon="5.582719" lat="50.93555"><ele>90</ele><time>2022-05-15T08:02:56.000Z</time></trkpt><trkpt lon="5.582808" lat="50.935573"><ele>90.2</ele><time>2022-05-15T08:02:57.000Z</time></trkpt><trkpt lon="5.582897" lat="50.935592"><ele>90.2</ele><time>2022-05-15T08:02:58.000Z</time></trkpt><trkpt lon="5.582985" lat="50.935611"><ele>90.4</ele><time>2022-05-15T08:02:59.000Z</time></trkpt><trkpt lon="5.583075" lat="50.935633"><ele>90.4</ele><time>2022-05-15T08:03:00.000Z</time></trkpt><trkpt lon="5.583162" lat="50.935649"><ele>90.4</ele><time>2022-05-15T08:03:01.000Z</time></trkpt><trkpt lon="5.583252" lat="50.935676"><ele>90.6</ele><time>2022-05-15T08:03:02.000Z</time></trkpt><trkpt lon="5.583339" lat="50.935695"><ele>90.6</ele><time>2022-05-15T08:03:03.000Z</time></trkpt><trkpt lon="5.583426" lat="50.935718"><ele>90.6</ele><time>2022-05-15T08:03:04.000Z</time></trkpt><trkpt lon="5.583516" lat="50.935744"><ele>90.6</ele><time>2022-05-15T08:03:05.000Z</time></trkpt><trkpt lon="5.583605" lat="50.935764"><ele>90.6</ele><time>2022-05-15T08:03:06.000Z</time></trkpt><trkpt lon="5.583695" lat="50.935783"><ele>90.8</ele><time>2022-05-15T08:03:07.000Z</time></trkpt><trkpt lon="5.583787" lat="50.935806"><ele>90.8</ele><time>2022-05-15T08:03:08.000Z</time></trkpt><trkpt lon="5.583879" lat="50.935825"><ele>90.8</ele><time>2022-05-15T08:03:09.000Z</time></trkpt><trkpt lon="5.583967" lat="50.935847"><ele>91</ele><time>2022-05-15T08:03:10.000Z</time></trkpt><trkpt lon="5.584056" lat="50.935866"><ele>91</ele><time>2022-05-15T08:03:11.000Z</time></trkpt><trkpt lon="5.584147" lat="50.935889"><ele>91.2</ele><time>2022-05-15T08:03:12.000Z</time></trkpt><trkpt lon="5.584234" lat="50.935908"><ele>91.2</ele><time>2022-05-15T08:03:13.000Z</time></trkpt><trkpt lon="5.584317" lat="50.935927"><ele>91.2</ele><time>2022-05-15T08:03:14.000Z</time></trkpt><trkpt lon="5.584411" lat="50.935947"><ele>91.2</ele><time>2022-05-15T08:03:15.000Z</time></trkpt><trkpt lon="5.584498" lat="50.935966"><ele>91.4</ele><time>2022-05-15T08:03:16.000Z</time></trkpt><trkpt lon="5.584582" lat="50.935989"><ele>91.4</ele><time>2022-05-15T08:03:17.000Z</time></trkpt><trkpt lon="5.584671" lat="50.936008"><ele>91.6</ele><time>2022-05-15T08:03:18.000Z</time></trkpt><trkpt lon="5.584754" lat="50.936023"><ele>91.6</ele><time>2022-05-15T08:03:19.000Z</time></trkpt><trkpt lon="5.584836" lat="50.936045"><ele>91.8</ele><time>2022-05-15T08:03:20.000Z</time></trkpt><trkpt lon="5.584919" lat="50.936065"><ele>91.8</ele><time>2022-05-15T08:03:21.000Z</time></trkpt><trkpt lon="5.585004" lat="50.936088"><ele>92</ele><time>2022-05-15T08:03:22.000Z</time></trkpt><trkpt lon="5.585088" lat="50.936107"><ele>91.8</ele><time>2022-05-15T08:03:23.000Z</time></trkpt><trkpt lon="5.585175" lat="50.936126"><ele>91.6</ele><time>2022-05-15T08:03:24.000Z</time></trkpt><trkpt lon="5.585262" lat="50.936153"><ele>91.8</ele><time>2022-05-15T08:03:25.000Z</time></trkpt><trkpt lon="5.585349" lat="50.936172"><ele>92</ele><time>2022-05-15T08:03:26.000Z</time></trkpt><trkpt lon="5.585437" lat="50.936195"><ele>92</ele><time>2022-05-15T08:03:27.000Z</time></trkpt><trkpt lon="5.585525" lat="50.936217"><ele>92.2</ele><time>2022-05-15T08:03:28.000Z</time></trkpt><trkpt lon="5.585617" lat="50.93624"><ele>92.4</ele><time>2022-05-15T08:03:29.000Z</time></trkpt><trkpt lon="5.585706" lat="50.93626"><ele>92.4</ele><time>2022-05-15T08:03:30.000Z</time></trkpt><trkpt lon="5.585795" lat="50.936279"><ele>92.6</ele><time>2022-05-15T08:03:31.000Z</time></trkpt><trkpt lon="5.585886" lat="50.936305"><ele>92.6</ele><time>2022-05-15T08:03:32.000Z</time></trkpt><trkpt lon="5.585977" lat="50.936332"><ele>92.6</ele><time>2022-05-15T08:03:33.000Z</time></trkpt><trkpt lon="5.586067" lat="50.936362"><ele>92.8</ele><time>2022-05-15T08:03:34.000Z</time></trkpt><trkpt lon="5.586156" lat="50.936389"><ele>92.8</ele><time>2022-05-15T08:03:35.000Z</time></trkpt><trkpt lon="5.586243" lat="50.93642"><ele>92.8</ele><time>2022-05-15T08:03:36.000Z</time></trkpt><trkpt lon="5.586327" lat="50.936452"><ele>93</ele><time>2022-05-15T08:03:37.000Z</time></trkpt><trkpt lon="5.586425" lat="50.936488"><ele>92.8</ele><time>2022-05-15T08:03:38.000Z</time></trkpt><trkpt lon="5.586521" lat="50.936526"><ele>92.8</ele><time>2022-05-15T08:03:39.000Z</time></trkpt><trkpt lon="5.586612" lat="50.936564"><ele>93</ele><time>2022-05-15T08:03:40.000Z</time></trkpt><trkpt lon="5.586699" lat="50.936602"><ele>93</ele><time>2022-05-15T08:03:41.000Z</time></trkpt><trkpt lon="5.586785" lat="50.936644"><ele>93</ele><time>2022-05-15T08:03:42.000Z</time></trkpt><trkpt lon="5.586865" lat="50.936686"><ele>93.2</ele><time>2022-05-15T08:03:43.000Z</time></trkpt><trkpt lon="5.586944" lat="50.93673"><ele>93.2</ele><time>2022-05-15T08:03:44.000Z</time></trkpt><trkpt lon="5.587023" lat="50.936774"><ele>93.4</ele><time>2022-05-15T08:03:45.000Z</time></trkpt><trkpt lon="5.587096" lat="50.936819"><ele>93.4</ele><time>2022-05-15T08:03:46.000Z</time></trkpt><trkpt lon="5.587168" lat="50.936865"><ele>93.4</ele><time>2022-05-15T08:03:47.000Z</time></trkpt><trkpt lon="5.58724" lat="50.936909"><ele>93.4</ele><time>2022-05-15T08:03:48.000Z</time></trkpt><trkpt lon="5.587316" lat="50.93696"><ele>93.4</ele><time>2022-05-15T08:03:49.000Z</time></trkpt><trkpt lon="5.58739" lat="50.93701"><ele>93.4</ele><time>2022-05-15T08:03:50.000Z</time></trkpt><trkpt lon="5.587459" lat="50.937057"><ele>93.4</ele><time>2022-05-15T08:03:51.000Z</time></trkpt><trkpt lon="5.587534" lat="50.937109"><ele>93.4</ele><time>2022-05-15T08:03:52.000Z</time></trkpt><trkpt lon="5.587605" lat="50.937155"><ele>93.4</ele><time>2022-05-15T08:03:53.000Z</time></trkpt><trkpt lon="5.587671" lat="50.937205"><ele>93.2</ele><time>2022-05-15T08:03:54.000Z</time></trkpt><trkpt lon="5.587739" lat="50.93725"><ele>93.2</ele><time>2022-05-15T08:03:55.000Z</time></trkpt><trkpt lon="5.587806" lat="50.937296"><ele>93.2</ele><time>2022-05-15T08:03:56.000Z</time></trkpt><trkpt lon="5.587876" lat="50.937342"><ele>93.2</ele><time>2022-05-15T08:03:57.000Z</time></trkpt><trkpt lon="5.587945" lat="50.937388"><ele>93.2</ele><time>2022-05-15T08:03:58.000Z</time></trkpt><trkpt lon="5.588011" lat="50.937434"><ele>93.2</ele><time>2022-05-15T08:03:59.000Z</time></trkpt><trkpt lon="5.588077" lat="50.937479"><ele>93.2</ele><time>2022-05-15T08:04:00.000Z</time></trkpt><trkpt lon="5.588148" lat="50.937525"><ele>93.2</ele><time>2022-05-15T08:04:01.000Z</time></trkpt><trkpt lon="5.588216" lat="50.937575"><ele>93</ele><time>2022-05-15T08:04:02.000Z</time></trkpt><trkpt lon="5.588286" lat="50.937621"><ele>93</ele><time>2022-05-15T08:04:03.000Z</time></trkpt><trkpt lon="5.588355" lat="50.937669"><ele>93</ele><time>2022-05-15T08:04:04.000Z</time></trkpt><trkpt lon="5.588427" lat="50.93772"><ele>93</ele><time>2022-05-15T08:04:05.000Z</time></trkpt><trkpt lon="5.588493" lat="50.93777"><ele>93</ele><time>2022-05-15T08:04:06.000Z</time></trkpt><trkpt lon="5.588558" lat="50.937815"><ele>93</ele><time>2022-05-15T08:04:07.000Z</time></trkpt><trkpt lon="5.588623" lat="50.937865"><ele>93</ele><time>2022-05-15T08:04:08.000Z</time></trkpt><trkpt lon="5.588686" lat="50.93791"><ele>93</ele><time>2022-05-15T08:04:09.000Z</time></trkpt><trkpt lon="5.58875" lat="50.937956"><ele>93</ele><time>2022-05-15T08:04:10.000Z</time></trkpt><trkpt lon="5.588814" lat="50.938002"><ele>93</ele><time>2022-05-15T08:04:11.000Z</time></trkpt><trkpt lon="5.588872" lat="50.938041"><ele>93</ele><time>2022-05-15T08:04:12.000Z</time></trkpt><trkpt lon="5.588928" lat="50.938082"><ele>93</ele><time>2022-05-15T08:04:13.000Z</time></trkpt><trkpt lon="5.588986" lat="50.938124"><ele>93</ele><time>2022-05-15T08:04:14.000Z</time></trkpt><trkpt lon="5.589049" lat="50.938167"><ele>93</ele><time>2022-05-15T08:04:15.000Z</time></trkpt><trkpt lon="5.589111" lat="50.938208"><ele>93</ele><time>2022-05-15T08:04:16.000Z</time></trkpt><trkpt lon="5.589176" lat="50.93825"><ele>92.8</ele><time>2022-05-15T08:04:17.000Z</time></trkpt><trkpt lon="5.589242" lat="50.938299"><ele>92.8</ele><time>2022-05-15T08:04:18.000Z</time></trkpt><trkpt lon="5.58931" lat="50.938345"><ele>92.8</ele><time>2022-05-15T08:04:19.000Z</time></trkpt><trkpt lon="5.589381" lat="50.938395"><ele>92.8</ele><time>2022-05-15T08:04:20.000Z</time></trkpt><trkpt lon="5.589453" lat="50.938448"><ele>92.8</ele><time>2022-05-15T08:04:21.000Z</time></trkpt><trkpt lon="5.589523" lat="50.938501"><ele>92.8</ele><time>2022-05-15T08:04:22.000Z</time></trkpt><trkpt lon="5.589591" lat="50.938559"><ele>92.8</ele><time>2022-05-15T08:04:23.000Z</time></trkpt><trkpt lon="5.589656" lat="50.938608"><ele>92.8</ele><time>2022-05-15T08:04:24.000Z</time></trkpt><trkpt lon="5.589719" lat="50.938661"><ele>93</ele><time>2022-05-15T08:04:25.000Z</time></trkpt><trkpt lon="5.589784" lat="50.938719"><ele>93</ele><time>2022-05-15T08:04:26.000Z</time></trkpt><trkpt lon="5.589848" lat="50.938776"><ele>93</ele><time>2022-05-15T08:04:27.000Z</time></trkpt><trkpt lon="5.589913" lat="50.938833"><ele>92.8</ele><time>2022-05-15T08:04:28.000Z</time></trkpt><trkpt lon="5.589976" lat="50.938887"><ele>92.8</ele><time>2022-05-15T08:04:29.000Z</time></trkpt><trkpt lon="5.590042" lat="50.938941"><ele>92.8</ele><time>2022-05-15T08:04:30.000Z</time></trkpt><trkpt lon="5.590106" lat="50.938994"><ele>92.8</ele><time>2022-05-15T08:04:31.000Z</time></trkpt><trkpt lon="5.59017" lat="50.939047"><ele>92.8</ele><time>2022-05-15T08:04:32.000Z</time></trkpt><trkpt lon="5.590237" lat="50.939097"><ele>93</ele><time>2022-05-15T08:04:33.000Z</time></trkpt><trkpt lon="5.590301" lat="50.939146"><ele>93</ele><time>2022-05-15T08:04:34.000Z</time></trkpt><trkpt lon="5.590363" lat="50.939196"><ele>93.2</ele><time>2022-05-15T08:04:35.000Z</time></trkpt><trkpt lon="5.590423" lat="50.939246"><ele>93.2</ele><time>2022-05-15T08:04:36.000Z</time></trkpt><trkpt lon="5.590482" lat="50.939295"><ele>93</ele><time>2022-05-15T08:04:37.000Z</time></trkpt><trkpt lon="5.590542" lat="50.939345"><ele>93</ele><time>2022-05-15T08:04:38.000Z</time></trkpt><trkpt lon="5.590603" lat="50.939394"><ele>93</ele><time>2022-05-15T08:04:39.000Z</time></trkpt><trkpt lon="5.590665" lat="50.939444"><ele>93.2</ele><time>2022-05-15T08:04:40.000Z</time></trkpt><trkpt lon="5.590726" lat="50.939497"><ele>93.2</ele><time>2022-05-15T08:04:41.000Z</time></trkpt><trkpt lon="5.590788" lat="50.939547"><ele>93.4</ele><time>2022-05-15T08:04:42.000Z</time></trkpt><trkpt lon="5.590849" lat="50.939599"><ele>93.6</ele><time>2022-05-15T08:04:43.000Z</time></trkpt><trkpt lon="5.590914" lat="50.939647"><ele>93.6</ele><time>2022-05-15T08:04:44.000Z</time></trkpt><trkpt lon="5.590975" lat="50.939696"><ele>93.4</ele><time>2022-05-15T08:04:45.000Z</time></trkpt><trkpt lon="5.591036" lat="50.939745"><ele>93.4</ele><time>2022-05-15T08:04:46.000Z</time></trkpt><trkpt lon="5.591096" lat="50.939795"><ele>93.4</ele><time>2022-05-15T08:04:47.000Z</time></trkpt><trkpt lon="5.591155" lat="50.939845"><ele>93.4</ele><time>2022-05-15T08:04:48.000Z</time></trkpt><trkpt lon="5.591215" lat="50.939894"><ele>93.6</ele><time>2022-05-15T08:04:49.000Z</time></trkpt><trkpt lon="5.591275" lat="50.939944"><ele>93.8</ele><time>2022-05-15T08:04:50.000Z</time></trkpt><trkpt lon="5.591337" lat="50.939993"><ele>93.8</ele><time>2022-05-15T08:04:51.000Z</time></trkpt><trkpt lon="5.591398" lat="50.940046"><ele>93.8</ele><time>2022-05-15T08:04:52.000Z</time></trkpt><trkpt lon="5.591459" lat="50.940096"><ele>94</ele><time>2022-05-15T08:04:53.000Z</time></trkpt><trkpt lon="5.591521" lat="50.940147"><ele>94</ele><time>2022-05-15T08:04:54.000Z</time></trkpt><trkpt lon="5.591586" lat="50.940199"><ele>94</ele><time>2022-05-15T08:04:55.000Z</time></trkpt><trkpt lon="5.591648" lat="50.940249"><ele>94</ele><time>2022-05-15T08:04:56.000Z</time></trkpt><trkpt lon="5.591709" lat="50.940302"><ele>94</ele><time>2022-05-15T08:04:57.000Z</time></trkpt><trkpt lon="5.59177" lat="50.940352"><ele>94.2</ele><time>2022-05-15T08:04:58.000Z</time></trkpt><trkpt lon="5.59183" lat="50.940404"><ele>94.2</ele><time>2022-05-15T08:04:59.000Z</time></trkpt><trkpt lon="5.591892" lat="50.940454"><ele>94.2</ele><time>2022-05-15T08:05:00.000Z</time></trkpt><trkpt lon="5.591953" lat="50.940507"><ele>94.2</ele><time>2022-05-15T08:05:01.000Z</time></trkpt><trkpt lon="5.592015" lat="50.940558"><ele>94.2</ele><time>2022-05-15T08:05:02.000Z</time></trkpt><trkpt lon="5.592075" lat="50.940608"><ele>94.4</ele><time>2022-05-15T08:05:03.000Z</time></trkpt><trkpt lon="5.592132" lat="50.940656"><ele>94.4</ele><time>2022-05-15T08:05:04.000Z</time></trkpt><trkpt lon="5.592191" lat="50.940707"><ele>94.4</ele><time>2022-05-15T08:05:05.000Z</time></trkpt><trkpt lon="5.592249" lat="50.940753"><ele>94.4</ele><time>2022-05-15T08:05:06.000Z</time></trkpt><trkpt lon="5.592307" lat="50.940802"><ele>94.4</ele><time>2022-05-15T08:05:07.000Z</time></trkpt><trkpt lon="5.592363" lat="50.940844"><ele>94.6</ele><time>2022-05-15T08:05:08.000Z</time></trkpt><trkpt lon="5.592422" lat="50.940893"><ele>94.6</ele><time>2022-05-15T08:05:09.000Z</time></trkpt><trkpt lon="5.592478" lat="50.940939"><ele>94.6</ele><time>2022-05-15T08:05:10.000Z</time></trkpt><trkpt lon="5.592538" lat="50.940985"><ele>94.6</ele><time>2022-05-15T08:05:11.000Z</time></trkpt><trkpt lon="5.592597" lat="50.941035"><ele>94.6</ele><time>2022-05-15T08:05:12.000Z</time></trkpt><trkpt lon="5.592651" lat="50.94108"><ele>94.6</ele><time>2022-05-15T08:05:13.000Z</time></trkpt><trkpt lon="5.592699" lat="50.941121"><ele>94.8</ele><time>2022-05-15T08:05:14.000Z</time></trkpt><trkpt lon="5.59276" lat="50.941172"><ele>94.8</ele><time>2022-05-15T08:05:15.000Z</time></trkpt><trkpt lon="5.59282" lat="50.941222"><ele>94.8</ele><time>2022-05-15T08:05:16.000Z</time></trkpt><trkpt lon="5.59288" lat="50.941271"><ele>94.8</ele><time>2022-05-15T08:05:17.000Z</time></trkpt><trkpt lon="5.592937" lat="50.941321"><ele>94.8</ele><time>2022-05-15T08:05:18.000Z</time></trkpt><trkpt lon="5.593006" lat="50.941381"><ele>95</ele><time>2022-05-15T08:05:19.000Z</time></trkpt><trkpt lon="5.593069" lat="50.941443"><ele>95</ele><time>2022-05-15T08:05:20.000Z</time></trkpt><trkpt lon="5.593127" lat="50.941504"><ele>95</ele><time>2022-05-15T08:05:21.000Z</time></trkpt><trkpt lon="5.593183" lat="50.941565"><ele>95.2</ele><time>2022-05-15T08:05:22.000Z</time></trkpt><trkpt lon="5.59324" lat="50.941629"><ele>95.2</ele><time>2022-05-15T08:05:23.000Z</time></trkpt><trkpt lon="5.593298" lat="50.941685"><ele>95.2</ele><time>2022-05-15T08:05:24.000Z</time></trkpt><trkpt lon="5.593361" lat="50.941743"><ele>95.2</ele><time>2022-05-15T08:05:25.000Z</time></trkpt><trkpt lon="5.593421" lat="50.941797"><ele>95</ele><time>2022-05-15T08:05:26.000Z</time></trkpt><trkpt lon="5.593479" lat="50.94185"><ele>95</ele><time>2022-05-15T08:05:27.000Z</time></trkpt><trkpt lon="5.59354" lat="50.941901"><ele>94.8</ele><time>2022-05-15T08:05:28.000Z</time></trkpt><trkpt lon="5.5936" lat="50.94195"><ele>94.8</ele><time>2022-05-15T08:05:29.000Z</time></trkpt><trkpt lon="5.593667" lat="50.941998"><ele>94.8</ele><time>2022-05-15T08:05:30.000Z</time></trkpt><trkpt lon="5.593744" lat="50.942041"><ele>94.8</ele><time>2022-05-15T08:05:31.000Z</time></trkpt><trkpt lon="5.593824" lat="50.94208"><ele>94.8</ele><time>2022-05-15T08:05:32.000Z</time></trkpt><trkpt lon="5.593906" lat="50.942122"><ele>95</ele><time>2022-05-15T08:05:33.000Z</time></trkpt><trkpt lon="5.593984" lat="50.94216"><ele>95</ele><time>2022-05-15T08:05:34.000Z</time></trkpt><trkpt lon="5.594058" lat="50.942206"><ele>95.2</ele><time>2022-05-15T08:05:35.000Z</time></trkpt><trkpt lon="5.594125" lat="50.942251"><ele>95.2</ele><time>2022-05-15T08:05:36.000Z</time></trkpt><trkpt lon="5.59419" lat="50.9423"><ele>95.2</ele><time>2022-05-15T08:05:37.000Z</time></trkpt><trkpt lon="5.594255" lat="50.942351"><ele>95.4</ele><time>2022-05-15T08:05:38.000Z</time></trkpt><trkpt lon="5.59432" lat="50.942404"><ele>95.6</ele><time>2022-05-15T08:05:39.000Z</time></trkpt><trkpt lon="5.594383" lat="50.942454"><ele>95.6</ele><time>2022-05-15T08:05:40.000Z</time></trkpt><trkpt lon="5.594448" lat="50.942503"><ele>95.6</ele><time>2022-05-15T08:05:41.000Z</time></trkpt><trkpt lon="5.594513" lat="50.942556"><ele>95.6</ele><time>2022-05-15T08:05:42.000Z</time></trkpt><trkpt lon="5.594578" lat="50.942609"><ele>95.6</ele><time>2022-05-15T08:05:43.000Z</time></trkpt><trkpt lon="5.594648" lat="50.942663"><ele>95.4</ele><time>2022-05-15T08:05:44.000Z</time></trkpt><trkpt lon="5.594715" lat="50.942717"><ele>95.4</ele><time>2022-05-15T08:05:45.000Z</time></trkpt><trkpt lon="5.594779" lat="50.942773"><ele>95.2</ele><time>2022-05-15T08:05:46.000Z</time></trkpt><trkpt lon="5.594841" lat="50.942827"><ele>95.2</ele><time>2022-05-15T08:05:47.000Z</time></trkpt><trkpt lon="5.594905" lat="50.942885"><ele>95.2</ele><time>2022-05-15T08:05:48.000Z</time></trkpt><trkpt lon="5.594968" lat="50.942934"><ele>95.2</ele><time>2022-05-15T08:05:49.000Z</time></trkpt><trkpt lon="5.595026" lat="50.942987"><ele>95.2</ele><time>2022-05-15T08:05:50.000Z</time></trkpt><trkpt lon="5.595084" lat="50.943037"><ele>95.2</ele><time>2022-05-15T08:05:51.000Z</time></trkpt><trkpt lon="5.595143" lat="50.943087"><ele>95.2</ele><time>2022-05-15T08:05:52.000Z</time></trkpt><trkpt lon="5.595198" lat="50.943136"><ele>95.4</ele><time>2022-05-15T08:05:53.000Z</time></trkpt><trkpt lon="5.595251" lat="50.943185"><ele>95.4</ele><time>2022-05-15T08:05:54.000Z</time></trkpt><trkpt lon="5.595309" lat="50.943236"><ele>95.6</ele><time>2022-05-15T08:05:55.000Z</time></trkpt><trkpt lon="5.59536" lat="50.943285"><ele>95.8</ele><time>2022-05-15T08:05:56.000Z</time></trkpt><trkpt lon="5.595417" lat="50.943335"><ele>95.8</ele><time>2022-05-15T08:05:57.000Z</time></trkpt><trkpt lon="5.595473" lat="50.943384"><ele>96</ele><time>2022-05-15T08:05:58.000Z</time></trkpt><trkpt lon="5.595529" lat="50.943437"><ele>96</ele><time>2022-05-15T08:05:59.000Z</time></trkpt><trkpt lon="5.595585" lat="50.94349"><ele>96.2</ele><time>2022-05-15T08:06:00.000Z</time></trkpt><trkpt lon="5.595645" lat="50.943545"><ele>96</ele><time>2022-05-15T08:06:01.000Z</time></trkpt><trkpt lon="5.595705" lat="50.943598"><ele>96</ele><time>2022-05-15T08:06:02.000Z</time></trkpt><trkpt lon="5.595766" lat="50.943651"><ele>96</ele><time>2022-05-15T08:06:03.000Z</time></trkpt><trkpt lon="5.59583" lat="50.943704"><ele>96</ele><time>2022-05-15T08:06:04.000Z</time></trkpt><trkpt lon="5.595894" lat="50.943754"><ele>95.8</ele><time>2022-05-15T08:06:05.000Z</time></trkpt><trkpt lon="5.595958" lat="50.9438"><ele>95.8</ele><time>2022-05-15T08:06:06.000Z</time></trkpt><trkpt lon="5.596026" lat="50.943849"><ele>95.8</ele><time>2022-05-15T08:06:07.000Z</time></trkpt><trkpt lon="5.596101" lat="50.943899"><ele>95.8</ele><time>2022-05-15T08:06:08.000Z</time></trkpt><trkpt lon="5.596172" lat="50.943948"><ele>95.8</ele><time>2022-05-15T08:06:09.000Z</time></trkpt><trkpt lon="5.596238" lat="50.943994"><ele>95.8</ele><time>2022-05-15T08:06:10.000Z</time></trkpt><trkpt lon="5.5963" lat="50.944041"><ele>95.8</ele><time>2022-05-15T08:06:11.000Z</time></trkpt><trkpt lon="5.59636" lat="50.94409"><ele>95.8</ele><time>2022-05-15T08:06:12.000Z</time></trkpt><trkpt lon="5.596421" lat="50.944135"><ele>95.8</ele><time>2022-05-15T08:06:13.000Z</time></trkpt><trkpt lon="5.596492" lat="50.944188"><ele>95.8</ele><time>2022-05-15T08:06:14.000Z</time></trkpt><trkpt lon="5.596559" lat="50.94424"><ele>95.8</ele><time>2022-05-15T08:06:15.000Z</time></trkpt><trkpt lon="5.59663" lat="50.944295"><ele>95.8</ele><time>2022-05-15T08:06:16.000Z</time></trkpt><trkpt lon="5.596694" lat="50.944351"><ele>95.8</ele><time>2022-05-15T08:06:17.000Z</time></trkpt><trkpt lon="5.59676" lat="50.944409"><ele>95.8</ele><time>2022-05-15T08:06:18.000Z</time></trkpt><trkpt lon="5.596825" lat="50.944465"><ele>95.8</ele><time>2022-05-15T08:06:19.000Z</time></trkpt><trkpt lon="5.596898" lat="50.94452"><ele>95.8</ele><time>2022-05-15T08:06:20.000Z</time></trkpt><trkpt lon="5.596968" lat="50.944576"><ele>95.8</ele><time>2022-05-15T08:06:21.000Z</time></trkpt><trkpt lon="5.597038" lat="50.944631"><ele>95.8</ele><time>2022-05-15T08:06:22.000Z</time></trkpt><trkpt lon="5.597101" lat="50.944687"><ele>95.8</ele><time>2022-05-15T08:06:23.000Z</time></trkpt><trkpt lon="5.597164" lat="50.944743"><ele>95.8</ele><time>2022-05-15T08:06:24.000Z</time></trkpt><trkpt lon="5.59722" lat="50.944798"><ele>95.8</ele><time>2022-05-15T08:06:25.000Z</time></trkpt><trkpt lon="5.597284" lat="50.944856"><ele>95.8</ele><time>2022-05-15T08:06:26.000Z</time></trkpt><trkpt lon="5.597349" lat="50.944911"><ele>95.8</ele><time>2022-05-15T08:06:27.000Z</time></trkpt><trkpt lon="5.597426" lat="50.944973"><ele>95.8</ele><time>2022-05-15T08:06:28.000Z</time></trkpt><trkpt lon="5.597506" lat="50.945031"><ele>95.8</ele><time>2022-05-15T08:06:29.000Z</time></trkpt><trkpt lon="5.597586" lat="50.94509"><ele>95.8</ele><time>2022-05-15T08:06:30.000Z</time></trkpt><trkpt lon="5.597663" lat="50.945151"><ele>95.8</ele><time>2022-05-15T08:06:31.000Z</time></trkpt><trkpt lon="5.597738" lat="50.945204"><ele>95.8</ele><time>2022-05-15T08:06:32.000Z</time></trkpt><trkpt lon="5.597816" lat="50.945257"><ele>95.6</ele><time>2022-05-15T08:06:33.000Z</time></trkpt><trkpt lon="5.597887" lat="50.945313"><ele>95.6</ele><time>2022-05-15T08:06:34.000Z</time></trkpt><trkpt lon="5.597958" lat="50.945368"><ele>95.6</ele><time>2022-05-15T08:06:35.000Z</time></trkpt><trkpt lon="5.598024" lat="50.945425"><ele>95.8</ele><time>2022-05-15T08:06:36.000Z</time></trkpt><trkpt lon="5.598089" lat="50.945482"><ele>95.8</ele><time>2022-05-15T08:06:37.000Z</time></trkpt><trkpt lon="5.598158" lat="50.945532"><ele>95.8</ele><time>2022-05-15T08:06:38.000Z</time></trkpt><trkpt lon="5.598226" lat="50.945585"><ele>95.6</ele><time>2022-05-15T08:06:39.000Z</time></trkpt><trkpt lon="5.598297" lat="50.945634"><ele>95.6</ele><time>2022-05-15T08:06:40.000Z</time></trkpt><trkpt lon="5.598368" lat="50.945685"><ele>95.6</ele><time>2022-05-15T08:06:41.000Z</time></trkpt><trkpt lon="5.598435" lat="50.945738"><ele>95.6</ele><time>2022-05-15T08:06:42.000Z</time></trkpt><trkpt lon="5.598499" lat="50.945787"><ele>95.8</ele><time>2022-05-15T08:06:43.000Z</time></trkpt><trkpt lon="5.598565" lat="50.945841"><ele>95.8</ele><time>2022-05-15T08:06:44.000Z</time></trkpt><trkpt lon="5.598631" lat="50.945898"><ele>95.6</ele><time>2022-05-15T08:06:45.000Z</time></trkpt><trkpt lon="5.598701" lat="50.945952"><ele>95.6</ele><time>2022-05-15T08:06:46.000Z</time></trkpt><trkpt lon="5.598775" lat="50.946005"><ele>95.6</ele><time>2022-05-15T08:06:47.000Z</time></trkpt><trkpt lon="5.598843" lat="50.946058"><ele>95.6</ele><time>2022-05-15T08:06:48.000Z</time></trkpt><trkpt lon="5.598904" lat="50.946112"><ele>95.6</ele><time>2022-05-15T08:06:49.000Z</time></trkpt><trkpt lon="5.598962" lat="50.946169"><ele>95.6</ele><time>2022-05-15T08:06:50.000Z</time></trkpt><trkpt lon="5.599022" lat="50.946223"><ele>95.6</ele><time>2022-05-15T08:06:51.000Z</time></trkpt><trkpt lon="5.599078" lat="50.946283"><ele>95.6</ele><time>2022-05-15T08:06:52.000Z</time></trkpt><trkpt lon="5.599136" lat="50.946341"><ele>95.6</ele><time>2022-05-15T08:06:53.000Z</time></trkpt><trkpt lon="5.599194" lat="50.946397"><ele>95.6</ele><time>2022-05-15T08:06:54.000Z</time></trkpt><trkpt lon="5.599253" lat="50.946455"><ele>95.6</ele><time>2022-05-15T08:06:55.000Z</time></trkpt><trkpt lon="5.599313" lat="50.946513"><ele>95.6</ele><time>2022-05-15T08:06:56.000Z</time></trkpt><trkpt lon="5.599375" lat="50.946573"><ele>95.6</ele><time>2022-05-15T08:06:57.000Z</time></trkpt><trkpt lon="5.599435" lat="50.946626"><ele>95.6</ele><time>2022-05-15T08:06:58.000Z</time></trkpt><trkpt lon="5.599496" lat="50.94668"><ele>95.6</ele><time>2022-05-15T08:06:59.000Z</time></trkpt><trkpt lon="5.599556" lat="50.946737"><ele>95.6</ele><time>2022-05-15T08:07:00.000Z</time></trkpt><trkpt lon="5.599618" lat="50.946791"><ele>95.6</ele><time>2022-05-15T08:07:01.000Z</time></trkpt><trkpt lon="5.599682" lat="50.946848"><ele>95.6</ele><time>2022-05-15T08:07:02.000Z</time></trkpt><trkpt lon="5.599745" lat="50.946902"><ele>95.6</ele><time>2022-05-15T08:07:03.000Z</time></trkpt><trkpt lon="5.599806" lat="50.946962"><ele>95.6</ele><time>2022-05-15T08:07:04.000Z</time></trkpt><trkpt lon="5.599869" lat="50.94702"><ele>95.6</ele><time>2022-05-15T08:07:05.000Z</time></trkpt><trkpt lon="5.599928" lat="50.947081"><ele>95.6</ele><time>2022-05-15T08:07:06.000Z</time></trkpt><trkpt lon="5.599988" lat="50.947138"><ele>95.6</ele><time>2022-05-15T08:07:07.000Z</time></trkpt><trkpt lon="5.600051" lat="50.947191"><ele>95.8</ele><time>2022-05-15T08:07:08.000Z</time></trkpt><trkpt lon="5.600117" lat="50.947242"><ele>95.8</ele><time>2022-05-15T08:07:09.000Z</time></trkpt><trkpt lon="5.60018" lat="50.947295"><ele>95.8</ele><time>2022-05-15T08:07:10.000Z</time></trkpt><trkpt lon="5.600243" lat="50.947348"><ele>95.6</ele><time>2022-05-15T08:07:11.000Z</time></trkpt><trkpt lon="5.600306" lat="50.947401"><ele>95.6</ele><time>2022-05-15T08:07:12.000Z</time></trkpt><trkpt lon="5.600357" lat="50.947444"><ele>95.6</ele><time>2022-05-15T08:07:13.000Z</time></trkpt><trkpt lon="5.600427" lat="50.947502"><ele>95.6</ele><time>2022-05-15T08:07:14.000Z</time></trkpt><trkpt lon="5.600509" lat="50.947569"><ele>95.6</ele><time>2022-05-15T08:07:15.000Z</time></trkpt><trkpt lon="5.600576" lat="50.947623"><ele>95.6</ele><time>2022-05-15T08:07:16.000Z</time></trkpt><trkpt lon="5.600646" lat="50.94768"><ele>95.8</ele><time>2022-05-15T08:07:17.000Z</time></trkpt><trkpt lon="5.600716" lat="50.947733"><ele>95.8</ele><time>2022-05-15T08:07:18.000Z</time></trkpt><trkpt lon="5.600791" lat="50.947779"><ele>95.8</ele><time>2022-05-15T08:07:19.000Z</time></trkpt><trkpt lon="5.600868" lat="50.947829"><ele>95.8</ele><time>2022-05-15T08:07:20.000Z</time></trkpt><trkpt lon="5.600947" lat="50.947875"><ele>95.8</ele><time>2022-05-15T08:07:21.000Z</time></trkpt><trkpt lon="5.601023" lat="50.94792"><ele>95.8</ele><time>2022-05-15T08:07:22.000Z</time></trkpt><trkpt lon="5.601101" lat="50.947966"><ele>95.8</ele><time>2022-05-15T08:07:23.000Z</time></trkpt><trkpt lon="5.601179" lat="50.948012"><ele>95.8</ele><time>2022-05-15T08:07:24.000Z</time></trkpt><trkpt lon="5.601261" lat="50.948054"><ele>95.6</ele><time>2022-05-15T08:07:25.000Z</time></trkpt><trkpt lon="5.601344" lat="50.948092"><ele>95.4</ele><time>2022-05-15T08:07:26.000Z</time></trkpt><trkpt lon="5.601424" lat="50.948134"><ele>95.4</ele><time>2022-05-15T08:07:27.000Z</time></trkpt><trkpt lon="5.601498" lat="50.948172"><ele>95.2</ele><time>2022-05-15T08:07:28.000Z</time></trkpt><trkpt lon="5.601566" lat="50.948211"><ele>95.2</ele><time>2022-05-15T08:07:29.000Z</time></trkpt><trkpt lon="5.601634" lat="50.948248"><ele>95.2</ele><time>2022-05-15T08:07:30.000Z</time></trkpt><trkpt lon="5.601703" lat="50.948287"><ele>95</ele><time>2022-05-15T08:07:31.000Z</time></trkpt><trkpt lon="5.601774" lat="50.948321"><ele>95</ele><time>2022-05-15T08:07:32.000Z</time></trkpt><trkpt lon="5.601851" lat="50.948359"><ele>94.8</ele><time>2022-05-15T08:07:33.000Z</time></trkpt><trkpt lon="5.601933" lat="50.948401"><ele>94.8</ele><time>2022-05-15T08:07:34.000Z</time></trkpt><trkpt lon="5.602026" lat="50.948439"><ele>94.8</ele><time>2022-05-15T08:07:35.000Z</time></trkpt><trkpt lon="5.602123" lat="50.948478"><ele>94.6</ele><time>2022-05-15T08:07:36.000Z</time></trkpt><trkpt lon="5.602225" lat="50.948516"><ele>94.6</ele><time>2022-05-15T08:07:37.000Z</time></trkpt><trkpt lon="5.60233" lat="50.948561"><ele>94.6</ele><time>2022-05-15T08:07:38.000Z</time></trkpt><trkpt lon="5.602435" lat="50.948603"><ele>94.6</ele><time>2022-05-15T08:07:39.000Z</time></trkpt><trkpt lon="5.602542" lat="50.948642"><ele>94.6</ele><time>2022-05-15T08:07:40.000Z</time></trkpt><trkpt lon="5.602644" lat="50.94868"><ele>94.6</ele><time>2022-05-15T08:07:41.000Z</time></trkpt><trkpt lon="5.602746" lat="50.948722"><ele>94.6</ele><time>2022-05-15T08:07:42.000Z</time></trkpt><trkpt lon="5.602845" lat="50.948763"><ele>94.4</ele><time>2022-05-15T08:07:43.000Z</time></trkpt><trkpt lon="5.60294" lat="50.948802"><ele>94.4</ele><time>2022-05-15T08:07:44.000Z</time></trkpt><trkpt lon="5.603035" lat="50.94884"><ele>94.2</ele><time>2022-05-15T08:07:45.000Z</time></trkpt><trkpt lon="5.603117" lat="50.948889"><ele>94.2</ele><time>2022-05-15T08:07:46.000Z</time></trkpt><trkpt lon="5.603198" lat="50.948935"><ele>94</ele><time>2022-05-15T08:07:47.000Z</time></trkpt><trkpt lon="5.603284" lat="50.948983"><ele>94</ele><time>2022-05-15T08:07:48.000Z</time></trkpt><trkpt lon="5.603373" lat="50.949032"><ele>94</ele><time>2022-05-15T08:07:49.000Z</time></trkpt><trkpt lon="5.603463" lat="50.949084"><ele>93.8</ele><time>2022-05-15T08:07:50.000Z</time></trkpt><trkpt lon="5.60355" lat="50.949133"><ele>93.8</ele><time>2022-05-15T08:07:51.000Z</time></trkpt><trkpt lon="5.603639" lat="50.949179"><ele>93.8</ele><time>2022-05-15T08:07:52.000Z</time></trkpt><trkpt lon="5.603724" lat="50.949228"><ele>93.6</ele><time>2022-05-15T08:07:53.000Z</time></trkpt><trkpt lon="5.603807" lat="50.949274"><ele>93.6</ele><time>2022-05-15T08:07:54.000Z</time></trkpt><trkpt lon="5.603893" lat="50.949317"><ele>93.4</ele><time>2022-05-15T08:07:55.000Z</time></trkpt><trkpt lon="5.603971" lat="50.949362"><ele>93.4</ele><time>2022-05-15T08:07:56.000Z</time></trkpt><trkpt lon="5.604051" lat="50.949408"><ele>93.2</ele><time>2022-05-15T08:07:57.000Z</time></trkpt><trkpt lon="5.604128" lat="50.949457"><ele>93.2</ele><time>2022-05-15T08:07:58.000Z</time></trkpt><trkpt lon="5.604201" lat="50.949507"><ele>93</ele><time>2022-05-15T08:07:59.000Z</time></trkpt><trkpt lon="5.60428" lat="50.949556"><ele>93</ele><time>2022-05-15T08:08:00.000Z</time></trkpt><trkpt lon="5.604362" lat="50.949606"><ele>93</ele><time>2022-05-15T08:08:01.000Z</time></trkpt><trkpt lon="5.604444" lat="50.949656"><ele>92.8</ele><time>2022-05-15T08:08:02.000Z</time></trkpt><trkpt lon="5.604523" lat="50.949702"><ele>92.6</ele><time>2022-05-15T08:08:03.000Z</time></trkpt><trkpt lon="5.604606" lat="50.949744"><ele>92.6</ele><time>2022-05-15T08:08:04.000Z</time></trkpt><trkpt lon="5.604694" lat="50.949786"><ele>92.4</ele><time>2022-05-15T08:08:05.000Z</time></trkpt><trkpt lon="5.604787" lat="50.949828"><ele>92.2</ele><time>2022-05-15T08:08:06.000Z</time></trkpt><trkpt lon="5.604873" lat="50.949862"><ele>92.2</ele><time>2022-05-15T08:08:07.000Z</time></trkpt><trkpt lon="5.604954" lat="50.9499"><ele>92</ele><time>2022-05-15T08:08:08.000Z</time></trkpt><trkpt lon="5.605034" lat="50.949942"><ele>92</ele><time>2022-05-15T08:08:09.000Z</time></trkpt><trkpt lon="5.605114" lat="50.949984"><ele>92</ele><time>2022-05-15T08:08:10.000Z</time></trkpt><trkpt lon="5.605196" lat="50.95003"><ele>91.8</ele><time>2022-05-15T08:08:11.000Z</time></trkpt><trkpt lon="5.605273" lat="50.950076"><ele>91.6</ele><time>2022-05-15T08:08:12.000Z</time></trkpt><trkpt lon="5.605357" lat="50.950125"><ele>91.6</ele><time>2022-05-15T08:08:13.000Z</time></trkpt><trkpt lon="5.605444" lat="50.950178"><ele>91.4</ele><time>2022-05-15T08:08:14.000Z</time></trkpt><trkpt lon="5.605531" lat="50.950232"><ele>91.4</ele><time>2022-05-15T08:08:15.000Z</time></trkpt><trkpt lon="5.60562" lat="50.950286"><ele>91.2</ele><time>2022-05-15T08:08:16.000Z</time></trkpt><trkpt lon="5.605704" lat="50.950334"><ele>91.2</ele><time>2022-05-15T08:08:17.000Z</time></trkpt><trkpt lon="5.605788" lat="50.950388"><ele>91</ele><time>2022-05-15T08:08:18.000Z</time></trkpt><trkpt lon="5.605866" lat="50.950438"><ele>91</ele><time>2022-05-15T08:08:19.000Z</time></trkpt><trkpt lon="5.605948" lat="50.950488"><ele>90.8</ele><time>2022-05-15T08:08:20.000Z</time></trkpt><trkpt lon="5.606029" lat="50.950536"><ele>90.6</ele><time>2022-05-15T08:08:21.000Z</time></trkpt><trkpt lon="5.606118" lat="50.950583"><ele>90.4</ele><time>2022-05-15T08:08:22.000Z</time></trkpt><trkpt lon="5.606203" lat="50.950628"><ele>90.4</ele><time>2022-05-15T08:08:23.000Z</time></trkpt><trkpt lon="5.606287" lat="50.950674"><ele>90.4</ele><time>2022-05-15T08:08:24.000Z</time></trkpt><trkpt lon="5.606364" lat="50.950724"><ele>90.4</ele><time>2022-05-15T08:08:25.000Z</time></trkpt><trkpt lon="5.606442" lat="50.950766"><ele>90.2</ele><time>2022-05-15T08:08:26.000Z</time></trkpt><trkpt lon="5.606525" lat="50.950812"><ele>90.2</ele><time>2022-05-15T08:08:27.000Z</time></trkpt><trkpt lon="5.606605" lat="50.950864"><ele>90.2</ele><time>2022-05-15T08:08:28.000Z</time></trkpt><trkpt lon="5.606687" lat="50.950907"><ele>90.2</ele><time>2022-05-15T08:08:29.000Z</time></trkpt><trkpt lon="5.606768" lat="50.950946"><ele>90.2</ele><time>2022-05-15T08:08:30.000Z</time></trkpt><trkpt lon="5.606852" lat="50.950984"><ele>90</ele><time>2022-05-15T08:08:31.000Z</time></trkpt><trkpt lon="5.606937" lat="50.951018"><ele>90.2</ele><time>2022-05-15T08:08:32.000Z</time></trkpt><trkpt lon="5.607023" lat="50.95106"><ele>90.2</ele><time>2022-05-15T08:08:33.000Z</time></trkpt><trkpt lon="5.607113" lat="50.95111"><ele>90.2</ele><time>2022-05-15T08:08:34.000Z</time></trkpt><trkpt lon="5.607203" lat="50.951159"><ele>90.2</ele><time>2022-05-15T08:08:35.000Z</time></trkpt><trkpt lon="5.607294" lat="50.951209"><ele>90.2</ele><time>2022-05-15T08:08:36.000Z</time></trkpt><trkpt lon="5.607382" lat="50.951257"><ele>90</ele><time>2022-05-15T08:08:37.000Z</time></trkpt><trkpt lon="5.607476" lat="50.951307"><ele>90</ele><time>2022-05-15T08:08:38.000Z</time></trkpt><trkpt lon="5.607564" lat="50.951354"><ele>90</ele><time>2022-05-15T08:08:39.000Z</time></trkpt><trkpt lon="5.607652" lat="50.951392"><ele>90</ele><time>2022-05-15T08:08:40.000Z</time></trkpt><trkpt lon="5.607734" lat="50.951434"><ele>89.8</ele><time>2022-05-15T08:08:41.000Z</time></trkpt><trkpt lon="5.607817" lat="50.951472"><ele>89.8</ele><time>2022-05-15T08:08:42.000Z</time></trkpt><trkpt lon="5.607889" lat="50.951514"><ele>89.8</ele><time>2022-05-15T08:08:43.000Z</time></trkpt><trkpt lon="5.60796" lat="50.95156"><ele>89.8</ele><time>2022-05-15T08:08:44.000Z</time></trkpt><trkpt lon="5.608038" lat="50.951606"><ele>89.8</ele><time>2022-05-15T08:08:45.000Z</time></trkpt><trkpt lon="5.608124" lat="50.951651"><ele>89.8</ele><time>2022-05-15T08:08:46.000Z</time></trkpt><trkpt lon="5.608215" lat="50.951693"><ele>89.8</ele><time>2022-05-15T08:08:47.000Z</time></trkpt><trkpt lon="5.608305" lat="50.951735"><ele>89.8</ele><time>2022-05-15T08:08:48.000Z</time></trkpt><trkpt lon="5.608386" lat="50.951777"><ele>90</ele><time>2022-05-15T08:08:49.000Z</time></trkpt><trkpt lon="5.608458" lat="50.951811"><ele>90</ele><time>2022-05-15T08:08:50.000Z</time></trkpt><trkpt lon="5.608525" lat="50.951846"><ele>90.2</ele><time>2022-05-15T08:08:51.000Z</time></trkpt><trkpt lon="5.608593" lat="50.951884"><ele>90.4</ele><time>2022-05-15T08:08:52.000Z</time></trkpt><trkpt lon="5.608666" lat="50.951926"><ele>90.4</ele><time>2022-05-15T08:08:53.000Z</time></trkpt><trkpt lon="5.60874" lat="50.951972"><ele>90.4</ele><time>2022-05-15T08:08:54.000Z</time></trkpt><trkpt lon="5.60881" lat="50.952018"><ele>90.6</ele><time>2022-05-15T08:08:55.000Z</time></trkpt><trkpt lon="5.608878" lat="50.952059"><ele>90.6</ele><time>2022-05-15T08:08:56.000Z</time></trkpt><trkpt lon="5.608951" lat="50.952105"><ele>90.6</ele><time>2022-05-15T08:08:57.000Z</time></trkpt><trkpt lon="5.609027" lat="50.952147"><ele>90.6</ele><time>2022-05-15T08:08:58.000Z</time></trkpt><trkpt lon="5.609106" lat="50.952182"><ele>90.6</ele><time>2022-05-15T08:08:59.000Z</time></trkpt><trkpt lon="5.609184" lat="50.952219"><ele>90.8</ele><time>2022-05-15T08:09:00.000Z</time></trkpt><trkpt lon="5.609266" lat="50.952246"><ele>90.8</ele><time>2022-05-15T08:09:01.000Z</time></trkpt><trkpt lon="5.609351" lat="50.952292"><ele>90.8</ele><time>2022-05-15T08:09:02.000Z</time></trkpt><trkpt lon="5.609434" lat="50.952334"><ele>91</ele><time>2022-05-15T08:09:03.000Z</time></trkpt><trkpt lon="5.609529" lat="50.952368"><ele>91</ele><time>2022-05-15T08:09:04.000Z</time></trkpt><trkpt lon="5.609618" lat="50.952399"><ele>91</ele><time>2022-05-15T08:09:05.000Z</time></trkpt><trkpt lon="5.609712" lat="50.95243"><ele>91.2</ele><time>2022-05-15T08:09:06.000Z</time></trkpt><trkpt lon="5.609805" lat="50.952453"><ele>91.2</ele><time>2022-05-15T08:09:07.000Z</time></trkpt><trkpt lon="5.609903" lat="50.952472"><ele>91.4</ele><time>2022-05-15T08:09:08.000Z</time></trkpt><trkpt lon="5.610012" lat="50.952487"><ele>91.4</ele><time>2022-05-15T08:09:09.000Z</time></trkpt><trkpt lon="5.610125" lat="50.952503"><ele>91.4</ele><time>2022-05-15T08:09:10.000Z</time></trkpt><trkpt lon="5.610235" lat="50.952518"><ele>91.6</ele><time>2022-05-15T08:09:11.000Z</time></trkpt><trkpt lon="5.610352" lat="50.952533"><ele>91.6</ele><time>2022-05-15T08:09:12.000Z</time></trkpt><trkpt lon="5.610466" lat="50.952549"><ele>91.6</ele><time>2022-05-15T08:09:13.000Z</time></trkpt><trkpt lon="5.610576" lat="50.952564"><ele>91.6</ele><time>2022-05-15T08:09:14.000Z</time></trkpt><trkpt lon="5.610681" lat="50.952575"><ele>91.6</ele><time>2022-05-15T08:09:15.000Z</time></trkpt><trkpt lon="5.61079" lat="50.952583"><ele>91.6</ele><time>2022-05-15T08:09:16.000Z</time></trkpt><trkpt lon="5.610893" lat="50.952594"><ele>91.6</ele><time>2022-05-15T08:09:17.000Z</time></trkpt><trkpt lon="5.610996" lat="50.952602"><ele>91.6</ele><time>2022-05-15T08:09:18.000Z</time></trkpt><trkpt lon="5.611102" lat="50.952617"><ele>91.6</ele><time>2022-05-15T08:09:19.000Z</time></trkpt><trkpt lon="5.611206" lat="50.952636"><ele>91.6</ele><time>2022-05-15T08:09:20.000Z</time></trkpt><trkpt lon="5.611306" lat="50.952655"><ele>91.8</ele><time>2022-05-15T08:09:21.000Z</time></trkpt><trkpt lon="5.611405" lat="50.952671"><ele>91.8</ele><time>2022-05-15T08:09:22.000Z</time></trkpt><trkpt lon="5.611505" lat="50.952686"><ele>91.8</ele><time>2022-05-15T08:09:23.000Z</time></trkpt><trkpt lon="5.611606" lat="50.952701"><ele>91.8</ele><time>2022-05-15T08:09:24.000Z</time></trkpt><trkpt lon="5.61171" lat="50.952716"><ele>91.6</ele><time>2022-05-15T08:09:25.000Z</time></trkpt><trkpt lon="5.611812" lat="50.952732"><ele>91.6</ele><time>2022-05-15T08:09:26.000Z</time></trkpt><trkpt lon="5.611917" lat="50.952754"><ele>91.6</ele><time>2022-05-15T08:09:27.000Z</time></trkpt><trkpt lon="5.612021" lat="50.952781"><ele>91.8</ele><time>2022-05-15T08:09:28.000Z</time></trkpt><trkpt lon="5.612124" lat="50.9528"><ele>91.8</ele><time>2022-05-15T08:09:29.000Z</time></trkpt><trkpt lon="5.61222" lat="50.952819"><ele>91.8</ele><time>2022-05-15T08:09:30.000Z</time></trkpt><trkpt lon="5.612317" lat="50.952838"><ele>92</ele><time>2022-05-15T08:09:31.000Z</time></trkpt><trkpt lon="5.612417" lat="50.952861"><ele>92</ele><time>2022-05-15T08:09:32.000Z</time></trkpt><trkpt lon="5.612517" lat="50.952888"><ele>92.2</ele><time>2022-05-15T08:09:33.000Z</time></trkpt><trkpt lon="5.612619" lat="50.952907"><ele>92</ele><time>2022-05-15T08:09:34.000Z</time></trkpt><trkpt lon="5.612724" lat="50.952933"><ele>92.2</ele><time>2022-05-15T08:09:35.000Z</time></trkpt><trkpt lon="5.612829" lat="50.952957"><ele>92.2</ele><time>2022-05-15T08:09:36.000Z</time></trkpt><trkpt lon="5.612937" lat="50.952979"><ele>92.2</ele><time>2022-05-15T08:09:37.000Z</time></trkpt><trkpt lon="5.613043" lat="50.953006"><ele>92.2</ele><time>2022-05-15T08:09:38.000Z</time></trkpt><trkpt lon="5.613145" lat="50.953025"><ele>92</ele><time>2022-05-15T08:09:39.000Z</time></trkpt><trkpt lon="5.613244" lat="50.953044"><ele>92</ele><time>2022-05-15T08:09:40.000Z</time></trkpt><trkpt lon="5.613343" lat="50.953063"><ele>92</ele><time>2022-05-15T08:09:41.000Z</time></trkpt><trkpt lon="5.61344" lat="50.953075"><ele>92.2</ele><time>2022-05-15T08:09:42.000Z</time></trkpt><trkpt lon="5.61354" lat="50.953094"><ele>92.2</ele><time>2022-05-15T08:09:43.000Z</time></trkpt><trkpt lon="5.613635" lat="50.953109"><ele>92.2</ele><time>2022-05-15T08:09:44.000Z</time></trkpt><trkpt lon="5.61373" lat="50.953125"><ele>92.2</ele><time>2022-05-15T08:09:45.000Z</time></trkpt><trkpt lon="5.613826" lat="50.953136"><ele>92.2</ele><time>2022-05-15T08:09:46.000Z</time></trkpt><trkpt lon="5.613922" lat="50.95314"><ele>92.2</ele><time>2022-05-15T08:09:47.000Z</time></trkpt><trkpt lon="5.61402" lat="50.953144"><ele>92.2</ele><time>2022-05-15T08:09:48.000Z</time></trkpt><trkpt lon="5.614112" lat="50.95314"><ele>92.2</ele><time>2022-05-15T08:09:49.000Z</time></trkpt><trkpt lon="5.614197" lat="50.953133"><ele>92.2</ele><time>2022-05-15T08:09:50.000Z</time></trkpt><trkpt lon="5.614284" lat="50.953114"><ele>92.2</ele><time>2022-05-15T08:09:51.000Z</time></trkpt><trkpt lon="5.61437" lat="50.953095"><ele>92.4</ele><time>2022-05-15T08:09:52.000Z</time></trkpt><trkpt lon="5.614454" lat="50.953069"><ele>92.2</ele><time>2022-05-15T08:09:53.000Z</time></trkpt><trkpt lon="5.614542" lat="50.953046"><ele>92.2</ele><time>2022-05-15T08:09:54.000Z</time></trkpt><trkpt lon="5.614631" lat="50.953023"><ele>92.2</ele><time>2022-05-15T08:09:55.000Z</time></trkpt><trkpt lon="5.61472" lat="50.953003"><ele>92.2</ele><time>2022-05-15T08:09:56.000Z</time></trkpt><trkpt lon="5.6148" lat="50.952984"><ele>92.4</ele><time>2022-05-15T08:09:57.000Z</time></trkpt><trkpt lon="5.614875" lat="50.952966"><ele>92.4</ele><time>2022-05-15T08:09:58.000Z</time></trkpt><trkpt lon="5.614956" lat="50.952946"><ele>92.4</ele><time>2022-05-15T08:09:59.000Z</time></trkpt><trkpt lon="5.615035" lat="50.952928"><ele>92.4</ele><time>2022-05-15T08:10:00.000Z</time></trkpt><trkpt lon="5.615122" lat="50.952904"><ele>92.4</ele><time>2022-05-15T08:10:01.000Z</time></trkpt><trkpt lon="5.615212" lat="50.952886"><ele>92.4</ele><time>2022-05-15T08:10:02.000Z</time></trkpt><trkpt lon="5.615309" lat="50.952862"><ele>92.4</ele><time>2022-05-15T08:10:03.000Z</time></trkpt><trkpt lon="5.615401" lat="50.95284"><ele>92.4</ele><time>2022-05-15T08:10:04.000Z</time></trkpt><trkpt lon="5.615497" lat="50.952817"><ele>92.2</ele><time>2022-05-15T08:10:05.000Z</time></trkpt><trkpt lon="5.615595" lat="50.952794"><ele>92.2</ele><time>2022-05-15T08:10:06.000Z</time></trkpt><trkpt lon="5.615693" lat="50.952771"><ele>92.2</ele><time>2022-05-15T08:10:07.000Z</time></trkpt><trkpt lon="5.615796" lat="50.952748"><ele>92.2</ele><time>2022-05-15T08:10:08.000Z</time></trkpt><trkpt lon="5.615897" lat="50.952721"><ele>92.2</ele><time>2022-05-15T08:10:09.000Z</time></trkpt><trkpt lon="5.616002" lat="50.952695"><ele>92</ele><time>2022-05-15T08:10:10.000Z</time></trkpt><trkpt lon="5.616121" lat="50.952657"><ele>92</ele><time>2022-05-15T08:10:11.000Z</time></trkpt><trkpt lon="5.616222" lat="50.95263"><ele>92.2</ele><time>2022-05-15T08:10:12.000Z</time></trkpt><trkpt lon="5.616317" lat="50.952607"><ele>92.2</ele><time>2022-05-15T08:10:13.000Z</time></trkpt><trkpt lon="5.616418" lat="50.95258"><ele>92.2</ele><time>2022-05-15T08:10:14.000Z</time></trkpt><trkpt lon="5.616521" lat="50.952557"><ele>92.2</ele><time>2022-05-15T08:10:15.000Z</time></trkpt><trkpt lon="5.616615" lat="50.952527"><ele>92.2</ele><time>2022-05-15T08:10:16.000Z</time></trkpt><trkpt lon="5.616711" lat="50.952496"><ele>92.2</ele><time>2022-05-15T08:10:17.000Z</time></trkpt><trkpt lon="5.616804" lat="50.95247"><ele>92.2</ele><time>2022-05-15T08:10:18.000Z</time></trkpt><trkpt lon="5.616896" lat="50.952443"><ele>92.4</ele><time>2022-05-15T08:10:19.000Z</time></trkpt><trkpt lon="5.616988" lat="50.95242"><ele>92.4</ele><time>2022-05-15T08:10:20.000Z</time></trkpt><trkpt lon="5.617091" lat="50.952393"><ele>92.4</ele><time>2022-05-15T08:10:21.000Z</time></trkpt><trkpt lon="5.617195" lat="50.952363"><ele>92.4</ele><time>2022-05-15T08:10:22.000Z</time></trkpt><trkpt lon="5.617285" lat="50.95234"><ele>92.4</ele><time>2022-05-15T08:10:23.000Z</time></trkpt><trkpt lon="5.617375" lat="50.952321"><ele>92.4</ele><time>2022-05-15T08:10:24.000Z</time></trkpt><trkpt lon="5.61746" lat="50.952305"><ele>92.6</ele><time>2022-05-15T08:10:25.000Z</time></trkpt><trkpt lon="5.617539" lat="50.95229"><ele>92.6</ele><time>2022-05-15T08:10:26.000Z</time></trkpt><trkpt lon="5.617621" lat="50.952275"><ele>92.6</ele><time>2022-05-15T08:10:27.000Z</time></trkpt><trkpt lon="5.617702" lat="50.95226"><ele>92.6</ele><time>2022-05-15T08:10:28.000Z</time></trkpt><trkpt lon="5.617783" lat="50.952241"><ele>92.6</ele><time>2022-05-15T08:10:29.000Z</time></trkpt><trkpt lon="5.617863" lat="50.952229"><ele>92.6</ele><time>2022-05-15T08:10:30.000Z</time></trkpt><trkpt lon="5.617951" lat="50.95221"><ele>92.6</ele><time>2022-05-15T08:10:31.000Z</time></trkpt><trkpt lon="5.61804" lat="50.952191"><ele>92.4</ele><time>2022-05-15T08:10:32.000Z</time></trkpt><trkpt lon="5.618142" lat="50.952161"><ele>92.4</ele><time>2022-05-15T08:10:33.000Z</time></trkpt><trkpt lon="5.618239" lat="50.952134"><ele>92.4</ele><time>2022-05-15T08:10:34.000Z</time></trkpt><trkpt lon="5.618336" lat="50.952103"><ele>92.4</ele><time>2022-05-15T08:10:35.000Z</time></trkpt><trkpt lon="5.618428" lat="50.952073"><ele>92.4</ele><time>2022-05-15T08:10:36.000Z</time></trkpt><trkpt lon="5.61852" lat="50.952046"><ele>92.6</ele><time>2022-05-15T08:10:37.000Z</time></trkpt><trkpt lon="5.618613" lat="50.952012"><ele>92.8</ele><time>2022-05-15T08:10:38.000Z</time></trkpt><trkpt lon="5.618691" lat="50.951982"><ele>92.8</ele><time>2022-05-15T08:10:39.000Z</time></trkpt><trkpt lon="5.618778" lat="50.951937"><ele>92.8</ele><time>2022-05-15T08:10:40.000Z</time></trkpt><trkpt lon="5.618842" lat="50.951913"><ele>93</ele><time>2022-05-15T08:10:41.000Z</time></trkpt><trkpt lon="5.618913" lat="50.951886"><ele>93</ele><time>2022-05-15T08:10:42.000Z</time></trkpt><trkpt lon="5.618968" lat="50.951863"><ele>93</ele><time>2022-05-15T08:10:43.000Z</time></trkpt><trkpt lon="5.619011" lat="50.951855"><ele>93</ele><time>2022-05-15T08:10:44.000Z</time></trkpt><trkpt lon="5.619028" lat="50.95187"><ele>93</ele><time>2022-05-15T08:10:45.000Z</time></trkpt><trkpt lon="5.619027" lat="50.951877"><ele>93</ele><time>2022-05-15T08:10:46.000Z</time></trkpt><trkpt lon="5.619025" lat="50.951889"><ele>92.8</ele><time>2022-05-15T08:10:47.000Z</time></trkpt><trkpt lon="5.619014" lat="50.951907"><ele>92.8</ele><time>2022-05-15T08:10:48.000Z</time></trkpt><trkpt lon="5.618993" lat="50.951938"><ele>92.8</ele><time>2022-05-15T08:10:49.000Z</time></trkpt><trkpt lon="5.61896" lat="50.951972"><ele>92.8</ele><time>2022-05-15T08:10:50.000Z</time></trkpt><trkpt lon="5.618934" lat="50.952014"><ele>92.6</ele><time>2022-05-15T08:10:51.000Z</time></trkpt><trkpt lon="5.618901" lat="50.952045"><ele>92.6</ele><time>2022-05-15T08:10:52.000Z</time></trkpt><trkpt lon="5.618866" lat="50.952093"><ele>92.6</ele><time>2022-05-15T08:10:53.000Z</time></trkpt><trkpt lon="5.618831" lat="50.952143"><ele>92.6</ele><time>2022-05-15T08:10:54.000Z</time></trkpt><trkpt lon="5.618796" lat="50.952189"><ele>92.6</ele><time>2022-05-15T08:10:55.000Z</time></trkpt><trkpt lon="5.618758" lat="50.952239"><ele>92.4</ele><time>2022-05-15T08:10:56.000Z</time></trkpt><trkpt lon="5.618726" lat="50.952284"><ele>92.4</ele><time>2022-05-15T08:10:57.000Z</time></trkpt><trkpt lon="5.618691" lat="50.952334"><ele>92.4</ele><time>2022-05-15T08:10:58.000Z</time></trkpt><trkpt lon="5.618653" lat="50.952376"><ele>92.2</ele><time>2022-05-15T08:10:59.000Z</time></trkpt><trkpt lon="5.618608" lat="50.952425"><ele>92.2</ele><time>2022-05-15T08:11:00.000Z</time></trkpt><trkpt lon="5.618565" lat="50.952467"><ele>92.2</ele><time>2022-05-15T08:11:01.000Z</time></trkpt><trkpt lon="5.618521" lat="50.952517"><ele>92.2</ele><time>2022-05-15T08:11:02.000Z</time></trkpt><trkpt lon="5.61848" lat="50.952563"><ele>92.2</ele><time>2022-05-15T08:11:03.000Z</time></trkpt><trkpt lon="5.618438" lat="50.952612"><ele>92.2</ele><time>2022-05-15T08:11:04.000Z</time></trkpt><trkpt lon="5.618393" lat="50.952665"><ele>92</ele><time>2022-05-15T08:11:05.000Z</time></trkpt><trkpt lon="5.618349" lat="50.952726"><ele>92</ele><time>2022-05-15T08:11:06.000Z</time></trkpt><trkpt lon="5.618307" lat="50.95278"><ele>92</ele><time>2022-05-15T08:11:07.000Z</time></trkpt><trkpt lon="5.618258" lat="50.952837"><ele>92</ele><time>2022-05-15T08:11:08.000Z</time></trkpt><trkpt lon="5.618218" lat="50.952891"><ele>91.8</ele><time>2022-05-15T08:11:09.000Z</time></trkpt><trkpt lon="5.618181" lat="50.952951"><ele>91.8</ele><time>2022-05-15T08:11:10.000Z</time></trkpt><trkpt lon="5.618146" lat="50.953005"><ele>91.8</ele><time>2022-05-15T08:11:11.000Z</time></trkpt><trkpt lon="5.618106" lat="50.953062"><ele>91.6</ele><time>2022-05-15T08:11:12.000Z</time></trkpt><trkpt lon="5.618063" lat="50.953123"><ele>91.6</ele><time>2022-05-15T08:11:13.000Z</time></trkpt><trkpt lon="5.618016" lat="50.953177"><ele>91.6</ele><time>2022-05-15T08:11:14.000Z</time></trkpt><trkpt lon="5.617967" lat="50.953233"><ele>91.4</ele><time>2022-05-15T08:11:15.000Z</time></trkpt><trkpt lon="5.617918" lat="50.953295"><ele>91.2</ele><time>2022-05-15T08:11:16.000Z</time></trkpt><trkpt lon="5.61787" lat="50.953348"><ele>91.2</ele><time>2022-05-15T08:11:17.000Z</time></trkpt><trkpt lon="5.617817" lat="50.953413"><ele>91.2</ele><time>2022-05-15T08:11:18.000Z</time></trkpt><trkpt lon="5.617763" lat="50.953478"><ele>91.2</ele><time>2022-05-15T08:11:19.000Z</time></trkpt><trkpt lon="5.617718" lat="50.953532"><ele>91</ele><time>2022-05-15T08:11:20.000Z</time></trkpt><trkpt lon="5.617673" lat="50.953589"><ele>91</ele><time>2022-05-15T08:11:21.000Z</time></trkpt><trkpt lon="5.617627" lat="50.953653"><ele>90.8</ele><time>2022-05-15T08:11:22.000Z</time></trkpt><trkpt lon="5.617577" lat="50.953729"><ele>90.8</ele><time>2022-05-15T08:11:23.000Z</time></trkpt><trkpt lon="5.617528" lat="50.95379"><ele>90.6</ele><time>2022-05-15T08:11:24.000Z</time></trkpt><trkpt lon="5.617478" lat="50.953851"><ele>90.6</ele><time>2022-05-15T08:11:25.000Z</time></trkpt><trkpt lon="5.61743" lat="50.953921"><ele>90.6</ele><time>2022-05-15T08:11:26.000Z</time></trkpt><trkpt lon="5.61738" lat="50.953985"><ele>90.6</ele><time>2022-05-15T08:11:27.000Z</time></trkpt><trkpt lon="5.617329" lat="50.95405"><ele>90.6</ele><time>2022-05-15T08:11:28.000Z</time></trkpt><trkpt lon="5.617286" lat="50.954111"><ele>90.6</ele><time>2022-05-15T08:11:29.000Z</time></trkpt><trkpt lon="5.617251" lat="50.954168"><ele>90.6</ele><time>2022-05-15T08:11:30.000Z</time></trkpt><trkpt lon="5.617218" lat="50.954229"><ele>90.8</ele><time>2022-05-15T08:11:31.000Z</time></trkpt><trkpt lon="5.617176" lat="50.954283"><ele>91</ele><time>2022-05-15T08:11:32.000Z</time></trkpt><trkpt lon="5.617136" lat="50.95433"><ele>91.2</ele><time>2022-05-15T08:11:33.000Z</time></trkpt><trkpt lon="5.617098" lat="50.954378"><ele>91.4</ele><time>2022-05-15T08:11:34.000Z</time></trkpt><trkpt lon="5.617061" lat="50.954424"><ele>91.6</ele><time>2022-05-15T08:11:35.000Z</time></trkpt><trkpt lon="5.617022" lat="50.954477"><ele>91.8</ele><time>2022-05-15T08:11:36.000Z</time></trkpt><trkpt lon="5.616986" lat="50.954522"><ele>92</ele><time>2022-05-15T08:11:37.000Z</time></trkpt><trkpt lon="5.616942" lat="50.954576"><ele>92.4</ele><time>2022-05-15T08:11:38.000Z</time></trkpt><trkpt lon="5.6169" lat="50.954638"><ele>92.6</ele><time>2022-05-15T08:11:39.000Z</time></trkpt><trkpt lon="5.616856" lat="50.954695"><ele>92.8</ele><time>2022-05-15T08:11:40.000Z</time></trkpt><trkpt lon="5.616811" lat="50.954752"><ele>93</ele><time>2022-05-15T08:11:41.000Z</time></trkpt><trkpt lon="5.616761" lat="50.954817"><ele>93.2</ele><time>2022-05-15T08:11:42.000Z</time></trkpt><trkpt lon="5.61671" lat="50.954878"><ele>93.6</ele><time>2022-05-15T08:11:43.000Z</time></trkpt><trkpt lon="5.616658" lat="50.95495"><ele>93.8</ele><time>2022-05-15T08:11:44.000Z</time></trkpt><trkpt lon="5.616617" lat="50.955011"><ele>94</ele><time>2022-05-15T08:11:45.000Z</time></trkpt><trkpt lon="5.61657" lat="50.955076"><ele>94.4</ele><time>2022-05-15T08:11:46.000Z</time></trkpt><trkpt lon="5.61652" lat="50.955137"><ele>94.6</ele><time>2022-05-15T08:11:47.000Z</time></trkpt><trkpt lon="5.616473" lat="50.955199"><ele>94.8</ele><time>2022-05-15T08:11:48.000Z</time></trkpt><trkpt lon="5.616428" lat="50.955259"><ele>95</ele><time>2022-05-15T08:11:49.000Z</time></trkpt><trkpt lon="5.616385" lat="50.955317"><ele>95.2</ele><time>2022-05-15T08:11:50.000Z</time></trkpt><trkpt lon="5.61634" lat="50.955381"><ele>95.4</ele><time>2022-05-15T08:11:51.000Z</time></trkpt><trkpt lon="5.6163" lat="50.955442"><ele>95.6</ele><time>2022-05-15T08:11:52.000Z</time></trkpt><trkpt lon="5.616261" lat="50.9555"><ele>95.8</ele><time>2022-05-15T08:11:53.000Z</time></trkpt><trkpt lon="5.616228" lat="50.955557"><ele>96</ele><time>2022-05-15T08:11:54.000Z</time></trkpt><trkpt lon="5.616197" lat="50.955615"><ele>96</ele><time>2022-05-15T08:11:55.000Z</time></trkpt><trkpt lon="5.616171" lat="50.955672"><ele>96.2</ele><time>2022-05-15T08:11:56.000Z</time></trkpt><trkpt lon="5.616147" lat="50.955736"><ele>96.2</ele><time>2022-05-15T08:11:57.000Z</time></trkpt><trkpt lon="5.616126" lat="50.955797"><ele>96.2</ele><time>2022-05-15T08:11:58.000Z</time></trkpt><trkpt lon="5.616111" lat="50.95586"><ele>96.2</ele><time>2022-05-15T08:11:59.000Z</time></trkpt><trkpt lon="5.616104" lat="50.95592"><ele>96.2</ele><time>2022-05-15T08:12:00.000Z</time></trkpt><trkpt lon="5.6161" lat="50.955987"><ele>96.2</ele><time>2022-05-15T08:12:01.000Z</time></trkpt><trkpt lon="5.616098" lat="50.956049"><ele>96</ele><time>2022-05-15T08:12:02.000Z</time></trkpt><trkpt lon="5.616097" lat="50.956118"><ele>95.8</ele><time>2022-05-15T08:12:03.000Z</time></trkpt><trkpt lon="5.616098" lat="50.956186"><ele>95.6</ele><time>2022-05-15T08:12:04.000Z</time></trkpt><trkpt lon="5.6161" lat="50.956255"><ele>95.4</ele><time>2022-05-15T08:12:05.000Z</time></trkpt><trkpt lon="5.616102" lat="50.956326"><ele>95.2</ele><time>2022-05-15T08:12:06.000Z</time></trkpt><trkpt lon="5.616103" lat="50.956403"><ele>95</ele><time>2022-05-15T08:12:07.000Z</time></trkpt><trkpt lon="5.616105" lat="50.956472"><ele>94.6</ele><time>2022-05-15T08:12:08.000Z</time></trkpt><trkpt lon="5.616106" lat="50.956545"><ele>94.4</ele><time>2022-05-15T08:12:09.000Z</time></trkpt><trkpt lon="5.616107" lat="50.95661"><ele>94.2</ele><time>2022-05-15T08:12:10.000Z</time></trkpt><trkpt lon="5.616107" lat="50.956667"><ele>93.8</ele><time>2022-05-15T08:12:11.000Z</time></trkpt><trkpt lon="5.616102" lat="50.956724"><ele>93.6</ele><time>2022-05-15T08:12:12.000Z</time></trkpt><trkpt lon="5.616097" lat="50.956781"><ele>93.2</ele><time>2022-05-15T08:12:13.000Z</time></trkpt><trkpt lon="5.616095" lat="50.956838"><ele>93</ele><time>2022-05-15T08:12:14.000Z</time></trkpt><trkpt lon="5.616096" lat="50.956904"><ele>92.6</ele><time>2022-05-15T08:12:15.000Z</time></trkpt><trkpt lon="5.616102" lat="50.956965"><ele>92.2</ele><time>2022-05-15T08:12:16.000Z</time></trkpt><trkpt lon="5.616111" lat="50.957029"><ele>91.8</ele><time>2022-05-15T08:12:17.000Z</time></trkpt><trkpt lon="5.616126" lat="50.957089"><ele>91.4</ele><time>2022-05-15T08:12:18.000Z</time></trkpt><trkpt lon="5.616135" lat="50.957165"><ele>91</ele><time>2022-05-15T08:12:19.000Z</time></trkpt><trkpt lon="5.616145" lat="50.957246"><ele>90.8</ele><time>2022-05-15T08:12:20.000Z</time></trkpt><trkpt lon="5.616158" lat="50.957326"><ele>90.6</ele><time>2022-05-15T08:12:21.000Z</time></trkpt><trkpt lon="5.616175" lat="50.957406"><ele>90.4</ele><time>2022-05-15T08:12:22.000Z</time></trkpt><trkpt lon="5.616193" lat="50.95749"><ele>90.4</ele><time>2022-05-15T08:12:23.000Z</time></trkpt><trkpt lon="5.616208" lat="50.957567"><ele>90.4</ele><time>2022-05-15T08:12:24.000Z</time></trkpt><trkpt lon="5.61622" lat="50.957639"><ele>90.4</ele><time>2022-05-15T08:12:25.000Z</time></trkpt><trkpt lon="5.61623" lat="50.957715"><ele>90.4</ele><time>2022-05-15T08:12:26.000Z</time></trkpt><trkpt lon="5.616241" lat="50.957785"><ele>90.4</ele><time>2022-05-15T08:12:27.000Z</time></trkpt><trkpt lon="5.616263" lat="50.957872"><ele>90.4</ele><time>2022-05-15T08:12:28.000Z</time></trkpt><trkpt lon="5.616281" lat="50.957948"><ele>90.4</ele><time>2022-05-15T08:12:29.000Z</time></trkpt><trkpt lon="5.616296" lat="50.958025"><ele>90.4</ele><time>2022-05-15T08:12:30.000Z</time></trkpt><trkpt lon="5.616321" lat="50.958115"><ele>90.4</ele><time>2022-05-15T08:12:31.000Z</time></trkpt><trkpt lon="5.616336" lat="50.958189"><ele>90.6</ele><time>2022-05-15T08:12:32.000Z</time></trkpt><trkpt lon="5.616356" lat="50.958269"><ele>90.6</ele><time>2022-05-15T08:12:33.000Z</time></trkpt><trkpt lon="5.616373" lat="50.958348"><ele>90.6</ele><time>2022-05-15T08:12:34.000Z</time></trkpt><trkpt lon="5.616387" lat="50.958422"><ele>90.6</ele><time>2022-05-15T08:12:35.000Z</time></trkpt><trkpt lon="5.616399" lat="50.958494"><ele>90.6</ele><time>2022-05-15T08:12:36.000Z</time></trkpt><trkpt lon="5.616416" lat="50.958574"><ele>90.6</ele><time>2022-05-15T08:12:37.000Z</time></trkpt><trkpt lon="5.616429" lat="50.958647"><ele>90.8</ele><time>2022-05-15T08:12:38.000Z</time></trkpt><trkpt lon="5.616446" lat="50.958727"><ele>90.8</ele><time>2022-05-15T08:12:39.000Z</time></trkpt><trkpt lon="5.616459" lat="50.958799"><ele>90.8</ele><time>2022-05-15T08:12:40.000Z</time></trkpt><trkpt lon="5.616483" lat="50.958872"><ele>90.8</ele><time>2022-05-15T08:12:41.000Z</time></trkpt><trkpt lon="5.616504" lat="50.958948"><ele>90.8</ele><time>2022-05-15T08:12:42.000Z</time></trkpt><trkpt lon="5.616518" lat="50.959021"><ele>91</ele><time>2022-05-15T08:12:43.000Z</time></trkpt><trkpt lon="5.616531" lat="50.959089"><ele>91</ele><time>2022-05-15T08:12:44.000Z</time></trkpt><trkpt lon="5.616545" lat="50.959157"><ele>91</ele><time>2022-05-15T08:12:45.000Z</time></trkpt><trkpt lon="5.61656" lat="50.959227"><ele>91</ele><time>2022-05-15T08:12:46.000Z</time></trkpt><trkpt lon="5.616574" lat="50.959295"><ele>91</ele><time>2022-05-15T08:12:47.000Z</time></trkpt><trkpt lon="5.616588" lat="50.959363"><ele>91</ele><time>2022-05-15T08:12:48.000Z</time></trkpt><trkpt lon="5.6166" lat="50.959429"><ele>91</ele><time>2022-05-15T08:12:49.000Z</time></trkpt><trkpt lon="5.61661" lat="50.959493"><ele>91</ele><time>2022-05-15T08:12:50.000Z</time></trkpt><trkpt lon="5.616621" lat="50.959562"><ele>91.2</ele><time>2022-05-15T08:12:51.000Z</time></trkpt><trkpt lon="5.616633" lat="50.959635"><ele>91.2</ele><time>2022-05-15T08:12:52.000Z</time></trkpt><trkpt lon="5.616643" lat="50.959707"><ele>91.2</ele><time>2022-05-15T08:12:53.000Z</time></trkpt><trkpt lon="5.616653" lat="50.959779"><ele>91.2</ele><time>2022-05-15T08:12:54.000Z</time></trkpt><trkpt lon="5.616671" lat="50.959859"><ele>91.4</ele><time>2022-05-15T08:12:55.000Z</time></trkpt><trkpt lon="5.616691" lat="50.959939"><ele>91.2</ele><time>2022-05-15T08:12:56.000Z</time></trkpt><trkpt lon="5.616711" lat="50.960016"><ele>91.2</ele><time>2022-05-15T08:12:57.000Z</time></trkpt><trkpt lon="5.61673" lat="50.960096"><ele>91.4</ele><time>2022-05-15T08:12:58.000Z</time></trkpt><trkpt lon="5.616746" lat="50.960176"><ele>91.4</ele><time>2022-05-15T08:12:59.000Z</time></trkpt><trkpt lon="5.616761" lat="50.960253"><ele>91.2</ele><time>2022-05-15T08:13:00.000Z</time></trkpt><trkpt lon="5.616775" lat="50.960329"><ele>91.4</ele><time>2022-05-15T08:13:01.000Z</time></trkpt><trkpt lon="5.616791" lat="50.960405"><ele>91.2</ele><time>2022-05-15T08:13:02.000Z</time></trkpt><trkpt lon="5.616808" lat="50.960485"><ele>91.2</ele><time>2022-05-15T08:13:03.000Z</time></trkpt><trkpt lon="5.616823" lat="50.960564"><ele>91.2</ele><time>2022-05-15T08:13:04.000Z</time></trkpt><trkpt lon="5.616839" lat="50.960641"><ele>91.2</ele><time>2022-05-15T08:13:05.000Z</time></trkpt><trkpt lon="5.616858" lat="50.960714"><ele>91.2</ele><time>2022-05-15T08:13:06.000Z</time></trkpt><trkpt lon="5.616871" lat="50.960781"><ele>91.2</ele><time>2022-05-15T08:13:07.000Z</time></trkpt><trkpt lon="5.616886" lat="50.960852"><ele>91.4</ele><time>2022-05-15T08:13:08.000Z</time></trkpt><trkpt lon="5.616906" lat="50.960928"><ele>91.4</ele><time>2022-05-15T08:13:09.000Z</time></trkpt><trkpt lon="5.616923" lat="50.961001"><ele>91.6</ele><time>2022-05-15T08:13:10.000Z</time></trkpt><trkpt lon="5.616943" lat="50.961073"><ele>91.8</ele><time>2022-05-15T08:13:11.000Z</time></trkpt><trkpt lon="5.616962" lat="50.961149"><ele>91.8</ele><time>2022-05-15T08:13:12.000Z</time></trkpt><trkpt lon="5.616994" lat="50.961236"><ele>91.8</ele><time>2022-05-15T08:13:13.000Z</time></trkpt><trkpt lon="5.617013" lat="50.961313"><ele>92</ele><time>2022-05-15T08:13:14.000Z</time></trkpt><trkpt lon="5.617033" lat="50.96139"><ele>92</ele><time>2022-05-15T08:13:15.000Z</time></trkpt><trkpt lon="5.617054" lat="50.961466"><ele>92.2</ele><time>2022-05-15T08:13:16.000Z</time></trkpt><trkpt lon="5.617074" lat="50.961542"><ele>92.4</ele><time>2022-05-15T08:13:17.000Z</time></trkpt><trkpt lon="5.617097" lat="50.961613"><ele>92.6</ele><time>2022-05-15T08:13:18.000Z</time></trkpt><trkpt lon="5.617119" lat="50.961686"><ele>92.8</ele><time>2022-05-15T08:13:19.000Z</time></trkpt><trkpt lon="5.617138" lat="50.961759"><ele>93</ele><time>2022-05-15T08:13:20.000Z</time></trkpt><trkpt lon="5.617155" lat="50.961836"><ele>93.4</ele><time>2022-05-15T08:13:21.000Z</time></trkpt><trkpt lon="5.617168" lat="50.961908"><ele>93.6</ele><time>2022-05-15T08:13:22.000Z</time></trkpt><trkpt lon="5.617183" lat="50.961976"><ele>93.8</ele><time>2022-05-15T08:13:23.000Z</time></trkpt><trkpt lon="5.617196" lat="50.962045"><ele>94.2</ele><time>2022-05-15T08:13:24.000Z</time></trkpt><trkpt lon="5.617211" lat="50.962114"><ele>94.4</ele><time>2022-05-15T08:13:25.000Z</time></trkpt><trkpt lon="5.617228" lat="50.96218"><ele>94.8</ele><time>2022-05-15T08:13:26.000Z</time></trkpt><trkpt lon="5.617243" lat="50.962248"><ele>95</ele><time>2022-05-15T08:13:27.000Z</time></trkpt><trkpt lon="5.617258" lat="50.962316"><ele>95.2</ele><time>2022-05-15T08:13:28.000Z</time></trkpt><trkpt lon="5.617273" lat="50.962389"><ele>95.4</ele><time>2022-05-15T08:13:29.000Z</time></trkpt><trkpt lon="5.617288" lat="50.962457"><ele>95.6</ele><time>2022-05-15T08:13:30.000Z</time></trkpt><trkpt lon="5.617303" lat="50.96253"><ele>95.8</ele><time>2022-05-15T08:13:31.000Z</time></trkpt><trkpt lon="5.617318" lat="50.962606"><ele>96</ele><time>2022-05-15T08:13:32.000Z</time></trkpt><trkpt lon="5.617333" lat="50.962682"><ele>96</ele><time>2022-05-15T08:13:33.000Z</time></trkpt><trkpt lon="5.617348" lat="50.962758"><ele>96.2</ele><time>2022-05-15T08:13:34.000Z</time></trkpt><trkpt lon="5.617363" lat="50.962832"><ele>96.2</ele><time>2022-05-15T08:13:35.000Z</time></trkpt><trkpt lon="5.61738" lat="50.9629"><ele>96.2</ele><time>2022-05-15T08:13:36.000Z</time></trkpt><trkpt lon="5.617394" lat="50.962965"><ele>96</ele><time>2022-05-15T08:13:37.000Z</time></trkpt><trkpt lon="5.61741" lat="50.963034"><ele>96.2</ele><time>2022-05-15T08:13:38.000Z</time></trkpt><trkpt lon="5.617423" lat="50.963103"><ele>96.2</ele><time>2022-05-15T08:13:39.000Z</time></trkpt><trkpt lon="5.617438" lat="50.963175"><ele>96.2</ele><time>2022-05-15T08:13:40.000Z</time></trkpt><trkpt lon="5.617453" lat="50.963239"><ele>96.2</ele><time>2022-05-15T08:13:41.000Z</time></trkpt><trkpt lon="5.617468" lat="50.963308"><ele>96.2</ele><time>2022-05-15T08:13:42.000Z</time></trkpt><trkpt lon="5.617484" lat="50.963375"><ele>96</ele><time>2022-05-15T08:13:43.000Z</time></trkpt><trkpt lon="5.617498" lat="50.963449"><ele>95.8</ele><time>2022-05-15T08:13:44.000Z</time></trkpt><trkpt lon="5.617511" lat="50.963522"><ele>95.6</ele><time>2022-05-15T08:13:45.000Z</time></trkpt><trkpt lon="5.617528" lat="50.963594"><ele>95.6</ele><time>2022-05-15T08:13:46.000Z</time></trkpt><trkpt lon="5.617545" lat="50.96367"><ele>95.4</ele><time>2022-05-15T08:13:47.000Z</time></trkpt><trkpt lon="5.617561" lat="50.963747"><ele>95.2</ele><time>2022-05-15T08:13:48.000Z</time></trkpt><trkpt lon="5.617578" lat="50.963827"><ele>94.8</ele><time>2022-05-15T08:13:49.000Z</time></trkpt><trkpt lon="5.617593" lat="50.963907"><ele>94.6</ele><time>2022-05-15T08:13:50.000Z</time></trkpt><trkpt lon="5.617606" lat="50.963991"><ele>94.2</ele><time>2022-05-15T08:13:51.000Z</time></trkpt><trkpt lon="5.617623" lat="50.96407"><ele>94</ele><time>2022-05-15T08:13:52.000Z</time></trkpt><trkpt lon="5.617643" lat="50.964158"><ele>93.6</ele><time>2022-05-15T08:13:53.000Z</time></trkpt><trkpt lon="5.617664" lat="50.964242"><ele>93.2</ele><time>2022-05-15T08:13:54.000Z</time></trkpt><trkpt lon="5.617686" lat="50.964326"><ele>93</ele><time>2022-05-15T08:13:55.000Z</time></trkpt><trkpt lon="5.617704" lat="50.96441"><ele>92.8</ele><time>2022-05-15T08:13:56.000Z</time></trkpt><trkpt lon="5.617723" lat="50.964498"><ele>92.4</ele><time>2022-05-15T08:13:57.000Z</time></trkpt><trkpt lon="5.61774" lat="50.964585"><ele>92</ele><time>2022-05-15T08:13:58.000Z</time></trkpt><trkpt lon="5.617758" lat="50.964673"><ele>91.8</ele><time>2022-05-15T08:13:59.000Z</time></trkpt><trkpt lon="5.617771" lat="50.96476"><ele>91.4</ele><time>2022-05-15T08:14:00.000Z</time></trkpt><trkpt lon="5.617786" lat="50.964852"><ele>91</ele><time>2022-05-15T08:14:01.000Z</time></trkpt><trkpt lon="5.617801" lat="50.964944"><ele>90.6</ele><time>2022-05-15T08:14:02.000Z</time></trkpt><trkpt lon="5.617818" lat="50.965037"><ele>90.4</ele><time>2022-05-15T08:14:03.000Z</time></trkpt><trkpt lon="5.617838" lat="50.965123"><ele>90</ele><time>2022-05-15T08:14:04.000Z</time></trkpt><trkpt lon="5.617856" lat="50.965215"><ele>89.8</ele><time>2022-05-15T08:14:05.000Z</time></trkpt><trkpt lon="5.617873" lat="50.965298"><ele>89.6</ele><time>2022-05-15T08:14:06.000Z</time></trkpt><trkpt lon="5.617889" lat="50.965386"><ele>89.6</ele><time>2022-05-15T08:14:07.000Z</time></trkpt><trkpt lon="5.617908" lat="50.96547"><ele>89.6</ele><time>2022-05-15T08:14:08.000Z</time></trkpt><trkpt lon="5.617925" lat="50.965551"><ele>89.4</ele><time>2022-05-15T08:14:09.000Z</time></trkpt><trkpt lon="5.617939" lat="50.96563"><ele>89.2</ele><time>2022-05-15T08:14:10.000Z</time></trkpt><trkpt lon="5.617955" lat="50.965707"><ele>89.2</ele><time>2022-05-15T08:14:11.000Z</time></trkpt><trkpt lon="5.617973" lat="50.965783"><ele>89.2</ele><time>2022-05-15T08:14:12.000Z</time></trkpt><trkpt lon="5.61799" lat="50.965856"><ele>89</ele><time>2022-05-15T08:14:13.000Z</time></trkpt><trkpt lon="5.618008" lat="50.965936"><ele>88.8</ele><time>2022-05-15T08:14:14.000Z</time></trkpt><trkpt lon="5.618024" lat="50.966013"><ele>88.8</ele><time>2022-05-15T08:14:15.000Z</time></trkpt><trkpt lon="5.618041" lat="50.966096"><ele>88.8</ele><time>2022-05-15T08:14:16.000Z</time></trkpt><trkpt lon="5.618056" lat="50.96618"><ele>88.8</ele><time>2022-05-15T08:14:17.000Z</time></trkpt><trkpt lon="5.618074" lat="50.966256"><ele>88.8</ele><time>2022-05-15T08:14:18.000Z</time></trkpt><trkpt lon="5.618093" lat="50.966333"><ele>88.8</ele><time>2022-05-15T08:14:19.000Z</time></trkpt><trkpt lon="5.618111" lat="50.966407"><ele>88.8</ele><time>2022-05-15T08:14:20.000Z</time></trkpt><trkpt lon="5.618131" lat="50.966482"><ele>88.6</ele><time>2022-05-15T08:14:21.000Z</time></trkpt><trkpt lon="5.61815" lat="50.96655"><ele>88.6</ele><time>2022-05-15T08:14:22.000Z</time></trkpt><trkpt lon="5.618165" lat="50.966619"><ele>88.6</ele><time>2022-05-15T08:14:23.000Z</time></trkpt><trkpt lon="5.618179" lat="50.966688"><ele>88.6</ele><time>2022-05-15T08:14:24.000Z</time></trkpt><trkpt lon="5.618193" lat="50.966757"><ele>88.4</ele><time>2022-05-15T08:14:25.000Z</time></trkpt><trkpt lon="5.618206" lat="50.966826"><ele>88.6</ele><time>2022-05-15T08:14:26.000Z</time></trkpt><trkpt lon="5.618224" lat="50.96689"><ele>88.4</ele><time>2022-05-15T08:14:27.000Z</time></trkpt><trkpt lon="5.618239" lat="50.966962"><ele>88.4</ele><time>2022-05-15T08:14:28.000Z</time></trkpt><trkpt lon="5.618259" lat="50.967031"><ele>88.2</ele><time>2022-05-15T08:14:29.000Z</time></trkpt><trkpt lon="5.618275" lat="50.967107"><ele>88</ele><time>2022-05-15T08:14:30.000Z</time></trkpt><trkpt lon="5.618289" lat="50.967178"><ele>87.8</ele><time>2022-05-15T08:14:31.000Z</time></trkpt><trkpt lon="5.618302" lat="50.967252"><ele>87.8</ele><time>2022-05-15T08:14:32.000Z</time></trkpt><trkpt lon="5.618313" lat="50.967325"><ele>87.6</ele><time>2022-05-15T08:14:33.000Z</time></trkpt><trkpt lon="5.618323" lat="50.967397"><ele>87.4</ele><time>2022-05-15T08:14:34.000Z</time></trkpt><trkpt lon="5.618336" lat="50.96747"><ele>87.4</ele><time>2022-05-15T08:14:35.000Z</time></trkpt><trkpt lon="5.61835" lat="50.967539"><ele>87.4</ele><time>2022-05-15T08:14:36.000Z</time></trkpt><trkpt lon="5.61836" lat="50.967607"><ele>87.4</ele><time>2022-05-15T08:14:37.000Z</time></trkpt><trkpt lon="5.618374" lat="50.967679"><ele>87.4</ele><time>2022-05-15T08:14:38.000Z</time></trkpt><trkpt lon="5.618393" lat="50.967748"><ele>87.6</ele><time>2022-05-15T08:14:39.000Z</time></trkpt><trkpt lon="5.618414" lat="50.967824"><ele>87.8</ele><time>2022-05-15T08:14:40.000Z</time></trkpt><trkpt lon="5.61843" lat="50.967893"><ele>88</ele><time>2022-05-15T08:14:41.000Z</time></trkpt><trkpt lon="5.618446" lat="50.967959"><ele>88</ele><time>2022-05-15T08:14:42.000Z</time></trkpt><trkpt lon="5.618461" lat="50.968031"><ele>88.2</ele><time>2022-05-15T08:14:43.000Z</time></trkpt><trkpt lon="5.618476" lat="50.968099"><ele>88.2</ele><time>2022-05-15T08:14:44.000Z</time></trkpt><trkpt lon="5.618491" lat="50.968176"><ele>88.2</ele><time>2022-05-15T08:14:45.000Z</time></trkpt><trkpt lon="5.618506" lat="50.968244"><ele>88.2</ele><time>2022-05-15T08:14:46.000Z</time></trkpt><trkpt lon="5.618521" lat="50.968317"><ele>88.2</ele><time>2022-05-15T08:14:47.000Z</time></trkpt><trkpt lon="5.618539" lat="50.968389"><ele>88.2</ele><time>2022-05-15T08:14:48.000Z</time></trkpt><trkpt lon="5.618556" lat="50.968458"><ele>88.2</ele><time>2022-05-15T08:14:49.000Z</time></trkpt><trkpt lon="5.618575" lat="50.968534"><ele>88.4</ele><time>2022-05-15T08:14:50.000Z</time></trkpt><trkpt lon="5.618591" lat="50.968607"><ele>88.6</ele><time>2022-05-15T08:14:51.000Z</time></trkpt><trkpt lon="5.618608" lat="50.968675"><ele>88.6</ele><time>2022-05-15T08:14:52.000Z</time></trkpt><trkpt lon="5.618623" lat="50.968748"><ele>88.8</ele><time>2022-05-15T08:14:53.000Z</time></trkpt><trkpt lon="5.618638" lat="50.968813"><ele>89.2</ele><time>2022-05-15T08:14:54.000Z</time></trkpt><trkpt lon="5.618655" lat="50.968889"><ele>89.4</ele><time>2022-05-15T08:14:55.000Z</time></trkpt><trkpt lon="5.618671" lat="50.968958"><ele>89.4</ele><time>2022-05-15T08:14:56.000Z</time></trkpt><trkpt lon="5.618684" lat="50.969027"><ele>89.6</ele><time>2022-05-15T08:14:57.000Z</time></trkpt><trkpt lon="5.618704" lat="50.969099"><ele>89.8</ele><time>2022-05-15T08:14:58.000Z</time></trkpt><trkpt lon="5.61872" lat="50.969167"><ele>89.8</ele><time>2022-05-15T08:14:59.000Z</time></trkpt><trkpt lon="5.618736" lat="50.969236"><ele>89.8</ele><time>2022-05-15T08:15:00.000Z</time></trkpt><trkpt lon="5.618751" lat="50.969305"><ele>89.8</ele><time>2022-05-15T08:15:01.000Z</time></trkpt><trkpt lon="5.618766" lat="50.969373"><ele>89.6</ele><time>2022-05-15T08:15:02.000Z</time></trkpt><trkpt lon="5.618781" lat="50.969443"><ele>89.8</ele><time>2022-05-15T08:15:03.000Z</time></trkpt><trkpt lon="5.618795" lat="50.969511"><ele>89.8</ele><time>2022-05-15T08:15:04.000Z</time></trkpt><trkpt lon="5.61881" lat="50.96958"><ele>90.2</ele><time>2022-05-15T08:15:05.000Z</time></trkpt><trkpt lon="5.618823" lat="50.969644"><ele>90.4</ele><time>2022-05-15T08:15:06.000Z</time></trkpt><trkpt lon="5.618836" lat="50.969716"><ele>90.6</ele><time>2022-05-15T08:15:07.000Z</time></trkpt><trkpt lon="5.618851" lat="50.969785"><ele>90.8</ele><time>2022-05-15T08:15:08.000Z</time></trkpt><trkpt lon="5.618861" lat="50.969856"><ele>91</ele><time>2022-05-15T08:15:09.000Z</time></trkpt><trkpt lon="5.618878" lat="50.969927"><ele>91.2</ele><time>2022-05-15T08:15:10.000Z</time></trkpt><trkpt lon="5.618893" lat="50.969995"><ele>91.4</ele><time>2022-05-15T08:15:11.000Z</time></trkpt><trkpt lon="5.618913" lat="50.970064"><ele>91.4</ele><time>2022-05-15T08:15:12.000Z</time></trkpt><trkpt lon="5.618934" lat="50.970136"><ele>91.4</ele><time>2022-05-15T08:15:13.000Z</time></trkpt><trkpt lon="5.618953" lat="50.970201"><ele>91.4</ele><time>2022-05-15T08:15:14.000Z</time></trkpt><trkpt lon="5.618975" lat="50.970263"><ele>91.6</ele><time>2022-05-15T08:15:15.000Z</time></trkpt><trkpt lon="5.618999" lat="50.970328"><ele>91.8</ele><time>2022-05-15T08:15:16.000Z</time></trkpt><trkpt lon="5.619021" lat="50.970396"><ele>91.8</ele><time>2022-05-15T08:15:17.000Z</time></trkpt><trkpt lon="5.619046" lat="50.970464"><ele>92</ele><time>2022-05-15T08:15:18.000Z</time></trkpt><trkpt lon="5.619071" lat="50.970533"><ele>91.8</ele><time>2022-05-15T08:15:19.000Z</time></trkpt><trkpt lon="5.619096" lat="50.970598"><ele>91.8</ele><time>2022-05-15T08:15:20.000Z</time></trkpt><trkpt lon="5.619123" lat="50.970668"><ele>91.8</ele><time>2022-05-15T08:15:21.000Z</time></trkpt><trkpt lon="5.619153" lat="50.970728"><ele>91.8</ele><time>2022-05-15T08:15:22.000Z</time></trkpt><trkpt lon="5.619182" lat="50.970785"><ele>92</ele><time>2022-05-15T08:15:23.000Z</time></trkpt><trkpt lon="5.619214" lat="50.970845"><ele>92</ele><time>2022-05-15T08:15:24.000Z</time></trkpt><trkpt lon="5.619245" lat="50.970907"><ele>91.8</ele><time>2022-05-15T08:15:25.000Z</time></trkpt><trkpt lon="5.619274" lat="50.970964"><ele>91.8</ele><time>2022-05-15T08:15:26.000Z</time></trkpt><trkpt lon="5.619306" lat="50.971029"><ele>91.8</ele><time>2022-05-15T08:15:27.000Z</time></trkpt><trkpt lon="5.619334" lat="50.97109"><ele>91.8</ele><time>2022-05-15T08:15:28.000Z</time></trkpt><trkpt lon="5.619364" lat="50.971159"><ele>91.8</ele><time>2022-05-15T08:15:29.000Z</time></trkpt><trkpt lon="5.619399" lat="50.971227"><ele>91.8</ele><time>2022-05-15T08:15:30.000Z</time></trkpt><trkpt lon="5.619435" lat="50.971295"><ele>91.8</ele><time>2022-05-15T08:15:31.000Z</time></trkpt><trkpt lon="5.619472" lat="50.97136"><ele>92</ele><time>2022-05-15T08:15:32.000Z</time></trkpt><trkpt lon="5.619517" lat="50.971435"><ele>92</ele><time>2022-05-15T08:15:33.000Z</time></trkpt><trkpt lon="5.619566" lat="50.971508"><ele>92</ele><time>2022-05-15T08:15:34.000Z</time></trkpt><trkpt lon="5.619614" lat="50.971582"><ele>91.8</ele><time>2022-05-15T08:15:35.000Z</time></trkpt><trkpt lon="5.619656" lat="50.971642"><ele>92</ele><time>2022-05-15T08:15:36.000Z</time></trkpt><trkpt lon="5.619711" lat="50.971712"><ele>91.8</ele><time>2022-05-15T08:15:37.000Z</time></trkpt><trkpt lon="5.619762" lat="50.97178"><ele>91.8</ele><time>2022-05-15T08:15:38.000Z</time></trkpt><trkpt lon="5.619815" lat="50.971846"><ele>91.6</ele><time>2022-05-15T08:15:39.000Z</time></trkpt><trkpt lon="5.619873" lat="50.971914"><ele>91.6</ele><time>2022-05-15T08:15:40.000Z</time></trkpt><trkpt lon="5.619931" lat="50.971982"><ele>91.6</ele><time>2022-05-15T08:15:41.000Z</time></trkpt><trkpt lon="5.619994" lat="50.972051"><ele>91.6</ele><time>2022-05-15T08:15:42.000Z</time></trkpt><trkpt lon="5.62006" lat="50.972116"><ele>91.6</ele><time>2022-05-15T08:15:43.000Z</time></trkpt><trkpt lon="5.620132" lat="50.972185"><ele>91.6</ele><time>2022-05-15T08:15:44.000Z</time></trkpt><trkpt lon="5.620212" lat="50.97225"><ele>91.6</ele><time>2022-05-15T08:15:45.000Z</time></trkpt><trkpt lon="5.62029" lat="50.972314"><ele>91.6</ele><time>2022-05-15T08:15:46.000Z</time></trkpt><trkpt lon="5.620372" lat="50.972379"><ele>91.6</ele><time>2022-05-15T08:15:47.000Z</time></trkpt><trkpt lon="5.620446" lat="50.972444"><ele>91.6</ele><time>2022-05-15T08:15:48.000Z</time></trkpt><trkpt lon="5.620516" lat="50.972492"><ele>91.6</ele><time>2022-05-15T08:15:49.000Z</time></trkpt><trkpt lon="5.620605" lat="50.972559"><ele>91.6</ele><time>2022-05-15T08:15:50.000Z</time></trkpt><trkpt lon="5.620686" lat="50.972617"><ele>91.6</ele><time>2022-05-15T08:15:51.000Z</time></trkpt><trkpt lon="5.620774" lat="50.972672"><ele>91.6</ele><time>2022-05-15T08:15:52.000Z</time></trkpt><trkpt lon="5.620864" lat="50.97273"><ele>91.4</ele><time>2022-05-15T08:15:53.000Z</time></trkpt><trkpt lon="5.620948" lat="50.972784"><ele>91.4</ele><time>2022-05-15T08:15:54.000Z</time></trkpt><trkpt lon="5.621043" lat="50.972838"><ele>91.4</ele><time>2022-05-15T08:15:55.000Z</time></trkpt><trkpt lon="5.62113" lat="50.972887"><ele>91.2</ele><time>2022-05-15T08:15:56.000Z</time></trkpt><trkpt lon="5.62122" lat="50.972936"><ele>91</ele><time>2022-05-15T08:15:57.000Z</time></trkpt><trkpt lon="5.62131" lat="50.972983"><ele>91</ele><time>2022-05-15T08:15:58.000Z</time></trkpt><trkpt lon="5.621395" lat="50.973028"><ele>91</ele><time>2022-05-15T08:15:59.000Z</time></trkpt><trkpt lon="5.621482" lat="50.973074"><ele>91.2</ele><time>2022-05-15T08:16:00.000Z</time></trkpt><trkpt lon="5.621567" lat="50.973116"><ele>91.4</ele><time>2022-05-15T08:16:01.000Z</time></trkpt><trkpt lon="5.621656" lat="50.973158"><ele>91.4</ele><time>2022-05-15T08:16:02.000Z</time></trkpt><trkpt lon="5.621746" lat="50.973196"><ele>91.4</ele><time>2022-05-15T08:16:03.000Z</time></trkpt><trkpt lon="5.621841" lat="50.973238"><ele>91.4</ele><time>2022-05-15T08:16:04.000Z</time></trkpt><trkpt lon="5.621935" lat="50.97328"><ele>91.2</ele><time>2022-05-15T08:16:05.000Z</time></trkpt><trkpt lon="5.62203" lat="50.973321"><ele>91.2</ele><time>2022-05-15T08:16:06.000Z</time></trkpt><trkpt lon="5.622126" lat="50.973364"><ele>91.2</ele><time>2022-05-15T08:16:07.000Z</time></trkpt><trkpt lon="5.62222" lat="50.973406"><ele>91.2</ele><time>2022-05-15T08:16:08.000Z</time></trkpt><trkpt lon="5.622314" lat="50.973447"><ele>91</ele><time>2022-05-15T08:16:09.000Z</time></trkpt><trkpt lon="5.62241" lat="50.97349"><ele>91</ele><time>2022-05-15T08:16:10.000Z</time></trkpt><trkpt lon="5.622505" lat="50.973536"><ele>90.8</ele><time>2022-05-15T08:16:11.000Z</time></trkpt><trkpt lon="5.622599" lat="50.973578"><ele>90.8</ele><time>2022-05-15T08:16:12.000Z</time></trkpt><trkpt lon="5.622695" lat="50.97362"><ele>90.4</ele><time>2022-05-15T08:16:13.000Z</time></trkpt><trkpt lon="5.622787" lat="50.973658"><ele>90.4</ele><time>2022-05-15T08:16:14.000Z</time></trkpt><trkpt lon="5.622877" lat="50.9737"><ele>90.2</ele><time>2022-05-15T08:16:15.000Z</time></trkpt><trkpt lon="5.622968" lat="50.973742"><ele>90.2</ele><time>2022-05-15T08:16:16.000Z</time></trkpt><trkpt lon="5.623059" lat="50.97378"><ele>90.2</ele><time>2022-05-15T08:16:17.000Z</time></trkpt><trkpt lon="5.623149" lat="50.973818"><ele>90.2</ele><time>2022-05-15T08:16:18.000Z</time></trkpt><trkpt lon="5.623239" lat="50.973857"><ele>89.8</ele><time>2022-05-15T08:16:19.000Z</time></trkpt><trkpt lon="5.62333" lat="50.973898"><ele>89.8</ele><time>2022-05-15T08:16:20.000Z</time></trkpt><trkpt lon="5.623419" lat="50.97394"><ele>89.6</ele><time>2022-05-15T08:16:21.000Z</time></trkpt><trkpt lon="5.623506" lat="50.973979"><ele>89.6</ele><time>2022-05-15T08:16:22.000Z</time></trkpt><trkpt lon="5.623591" lat="50.974015"><ele>89.6</ele><time>2022-05-15T08:16:23.000Z</time></trkpt><trkpt lon="5.623681" lat="50.974054"><ele>89.6</ele><time>2022-05-15T08:16:24.000Z</time></trkpt><trkpt lon="5.623768" lat="50.974093"><ele>89.4</ele><time>2022-05-15T08:16:25.000Z</time></trkpt><trkpt lon="5.623855" lat="50.974131"><ele>89.2</ele><time>2022-05-15T08:16:26.000Z</time></trkpt><trkpt lon="5.623942" lat="50.974169"><ele>89</ele><time>2022-05-15T08:16:27.000Z</time></trkpt><trkpt lon="5.624027" lat="50.974208"><ele>89.2</ele><time>2022-05-15T08:16:28.000Z</time></trkpt><trkpt lon="5.624113" lat="50.974245"><ele>89</ele><time>2022-05-15T08:16:29.000Z</time></trkpt><trkpt lon="5.624198" lat="50.974283"><ele>88.8</ele><time>2022-05-15T08:16:30.000Z</time></trkpt><trkpt lon="5.624283" lat="50.974322"><ele>88.8</ele><time>2022-05-15T08:16:31.000Z</time></trkpt><trkpt lon="5.624367" lat="50.97436"><ele>88.8</ele><time>2022-05-15T08:16:32.000Z</time></trkpt><trkpt lon="5.62445" lat="50.974398"><ele>88.8</ele><time>2022-05-15T08:16:33.000Z</time></trkpt><trkpt lon="5.624528" lat="50.974431"><ele>88.6</ele><time>2022-05-15T08:16:34.000Z</time></trkpt><trkpt lon="5.624615" lat="50.97447"><ele>88.6</ele><time>2022-05-15T08:16:35.000Z</time></trkpt><trkpt lon="5.624697" lat="50.974505"><ele>88.6</ele><time>2022-05-15T08:16:36.000Z</time></trkpt><trkpt lon="5.624781" lat="50.974542"><ele>88.6</ele><time>2022-05-15T08:16:37.000Z</time></trkpt><trkpt lon="5.62487" lat="50.974585"><ele>88.8</ele><time>2022-05-15T08:16:38.000Z</time></trkpt><trkpt lon="5.624957" lat="50.974627"><ele>88.8</ele><time>2022-05-15T08:16:39.000Z</time></trkpt><trkpt lon="5.625044" lat="50.974665"><ele>88.8</ele><time>2022-05-15T08:16:40.000Z</time></trkpt><trkpt lon="5.625127" lat="50.97471"><ele>89</ele><time>2022-05-15T08:16:41.000Z</time></trkpt><trkpt lon="5.625206" lat="50.974757"><ele>89</ele><time>2022-05-15T08:16:42.000Z</time></trkpt><trkpt lon="5.625283" lat="50.974798"><ele>89.2</ele><time>2022-05-15T08:16:43.000Z</time></trkpt><trkpt lon="5.625362" lat="50.974841"><ele>89.2</ele><time>2022-05-15T08:16:44.000Z</time></trkpt><trkpt lon="5.625436" lat="50.974883"><ele>89.4</ele><time>2022-05-15T08:16:45.000Z</time></trkpt><trkpt lon="5.625509" lat="50.974928"><ele>89.4</ele><time>2022-05-15T08:16:46.000Z</time></trkpt><trkpt lon="5.625586" lat="50.974974"><ele>89.6</ele><time>2022-05-15T08:16:47.000Z</time></trkpt><trkpt lon="5.625659" lat="50.975023"><ele>89.4</ele><time>2022-05-15T08:16:48.000Z</time></trkpt><trkpt lon="5.625736" lat="50.975073"><ele>89.6</ele><time>2022-05-15T08:16:49.000Z</time></trkpt><trkpt lon="5.625811" lat="50.975123"><ele>89.4</ele><time>2022-05-15T08:16:50.000Z</time></trkpt><trkpt lon="5.625884" lat="50.975173"><ele>89.4</ele><time>2022-05-15T08:16:51.000Z</time></trkpt><trkpt lon="5.625957" lat="50.975225"><ele>89.4</ele><time>2022-05-15T08:16:52.000Z</time></trkpt><trkpt lon="5.626028" lat="50.975278"><ele>89.6</ele><time>2022-05-15T08:16:53.000Z</time></trkpt><trkpt lon="5.626098" lat="50.975333"><ele>89.6</ele><time>2022-05-15T08:16:54.000Z</time></trkpt><trkpt lon="5.626164" lat="50.975386"><ele>89.6</ele><time>2022-05-15T08:16:55.000Z</time></trkpt><trkpt lon="5.626228" lat="50.975442"><ele>89.8</ele><time>2022-05-15T08:16:56.000Z</time></trkpt><trkpt lon="5.626292" lat="50.975496"><ele>89.8</ele><time>2022-05-15T08:16:57.000Z</time></trkpt><trkpt lon="5.626355" lat="50.975553"><ele>90</ele><time>2022-05-15T08:16:58.000Z</time></trkpt><trkpt lon="5.626416" lat="50.975615"><ele>90</ele><time>2022-05-15T08:16:59.000Z</time></trkpt><trkpt lon="5.626475" lat="50.975672"><ele>89.8</ele><time>2022-05-15T08:17:00.000Z</time></trkpt><trkpt lon="5.626531" lat="50.975732"><ele>89.8</ele><time>2022-05-15T08:17:01.000Z</time></trkpt><trkpt lon="5.626586" lat="50.975792"><ele>89.6</ele><time>2022-05-15T08:17:02.000Z</time></trkpt><trkpt lon="5.626641" lat="50.975851"><ele>89.4</ele><time>2022-05-15T08:17:03.000Z</time></trkpt><trkpt lon="5.626694" lat="50.975911"><ele>89.4</ele><time>2022-05-15T08:17:04.000Z</time></trkpt><trkpt lon="5.626744" lat="50.975969"><ele>89.4</ele><time>2022-05-15T08:17:05.000Z</time></trkpt><trkpt lon="5.62679" lat="50.97603"><ele>89.6</ele><time>2022-05-15T08:17:06.000Z</time></trkpt><trkpt lon="5.626835" lat="50.976091"><ele>89.6</ele><time>2022-05-15T08:17:07.000Z</time></trkpt><trkpt lon="5.626877" lat="50.976156"><ele>89.6</ele><time>2022-05-15T08:17:08.000Z</time></trkpt><trkpt lon="5.626917" lat="50.976217"><ele>89.6</ele><time>2022-05-15T08:17:09.000Z</time></trkpt><trkpt lon="5.626955" lat="50.976278"><ele>89.8</ele><time>2022-05-15T08:17:10.000Z</time></trkpt><trkpt lon="5.626992" lat="50.976343"><ele>90</ele><time>2022-05-15T08:17:11.000Z</time></trkpt><trkpt lon="5.627025" lat="50.976408"><ele>90</ele><time>2022-05-15T08:17:12.000Z</time></trkpt><trkpt lon="5.627059" lat="50.976473"><ele>90</ele><time>2022-05-15T08:17:13.000Z</time></trkpt><trkpt lon="5.627091" lat="50.976537"><ele>89.8</ele><time>2022-05-15T08:17:14.000Z</time></trkpt><trkpt lon="5.627124" lat="50.976602"><ele>90</ele><time>2022-05-15T08:17:15.000Z</time></trkpt><trkpt lon="5.627154" lat="50.976664"><ele>89.8</ele><time>2022-05-15T08:17:16.000Z</time></trkpt><trkpt lon="5.627179" lat="50.976731"><ele>89.8</ele><time>2022-05-15T08:17:17.000Z</time></trkpt><trkpt lon="5.627199" lat="50.976795"><ele>89.8</ele><time>2022-05-15T08:17:18.000Z</time></trkpt><trkpt lon="5.627217" lat="50.976861"><ele>90</ele><time>2022-05-15T08:17:19.000Z</time></trkpt><trkpt lon="5.627237" lat="50.976926"><ele>90.2</ele><time>2022-05-15T08:17:20.000Z</time></trkpt><trkpt lon="5.627254" lat="50.976995"><ele>90.4</ele><time>2022-05-15T08:17:21.000Z</time></trkpt><trkpt lon="5.62727" lat="50.97706"><ele>90.4</ele><time>2022-05-15T08:17:22.000Z</time></trkpt><trkpt lon="5.627283" lat="50.977129"><ele>90.4</ele><time>2022-05-15T08:17:23.000Z</time></trkpt><trkpt lon="5.627296" lat="50.977193"><ele>90.2</ele><time>2022-05-15T08:17:24.000Z</time></trkpt><trkpt lon="5.627305" lat="50.977258"><ele>90.2</ele><time>2022-05-15T08:17:25.000Z</time></trkpt><trkpt lon="5.627313" lat="50.977323"><ele>90.4</ele><time>2022-05-15T08:17:26.000Z</time></trkpt><trkpt lon="5.627318" lat="50.977391"><ele>90.6</ele><time>2022-05-15T08:17:27.000Z</time></trkpt><trkpt lon="5.62732" lat="50.97746"><ele>90.8</ele><time>2022-05-15T08:17:28.000Z</time></trkpt><trkpt lon="5.627322" lat="50.977529"><ele>90.8</ele><time>2022-05-15T08:17:29.000Z</time></trkpt><trkpt lon="5.627319" lat="50.977593"><ele>90.8</ele><time>2022-05-15T08:17:30.000Z</time></trkpt><trkpt lon="5.627313" lat="50.977662"><ele>90.6</ele><time>2022-05-15T08:17:31.000Z</time></trkpt><trkpt lon="5.627309" lat="50.97773"><ele>90.4</ele><time>2022-05-15T08:17:32.000Z</time></trkpt><trkpt lon="5.627303" lat="50.9778"><ele>90.2</ele><time>2022-05-15T08:17:33.000Z</time></trkpt><trkpt lon="5.627297" lat="50.977865"><ele>90.2</ele><time>2022-05-15T08:17:34.000Z</time></trkpt><trkpt lon="5.62729" lat="50.977934"><ele>90.4</ele><time>2022-05-15T08:17:35.000Z</time></trkpt><trkpt lon="5.627281" lat="50.977998"><ele>90.2</ele><time>2022-05-15T08:17:36.000Z</time></trkpt><trkpt lon="5.627274" lat="50.978067"><ele>90</ele><time>2022-05-15T08:17:37.000Z</time></trkpt><trkpt lon="5.627267" lat="50.978132"><ele>90</ele><time>2022-05-15T08:17:38.000Z</time></trkpt><trkpt lon="5.627259" lat="50.9782"><ele>90</ele><time>2022-05-15T08:17:39.000Z</time></trkpt><trkpt lon="5.627252" lat="50.978267"><ele>90</ele><time>2022-05-15T08:17:40.000Z</time></trkpt><trkpt lon="5.627245" lat="50.978338"><ele>90</ele><time>2022-05-15T08:17:41.000Z</time></trkpt><trkpt lon="5.627237" lat="50.978403"><ele>89.8</ele><time>2022-05-15T08:17:42.000Z</time></trkpt><trkpt lon="5.627225" lat="50.97847"><ele>89.8</ele><time>2022-05-15T08:17:43.000Z</time></trkpt><trkpt lon="5.627215" lat="50.97854"><ele>89.8</ele><time>2022-05-15T08:17:44.000Z</time></trkpt><trkpt lon="5.627208" lat="50.978609"><ele>89.8</ele><time>2022-05-15T08:17:45.000Z</time></trkpt><trkpt lon="5.6272" lat="50.978678"><ele>89.8</ele><time>2022-05-15T08:17:46.000Z</time></trkpt><trkpt lon="5.627191" lat="50.978745"><ele>89.8</ele><time>2022-05-15T08:17:47.000Z</time></trkpt><trkpt lon="5.627182" lat="50.978815"><ele>89.6</ele><time>2022-05-15T08:17:48.000Z</time></trkpt><trkpt lon="5.627174" lat="50.978883"><ele>89.8</ele><time>2022-05-15T08:17:49.000Z</time></trkpt><trkpt lon="5.627167" lat="50.978952"><ele>90</ele><time>2022-05-15T08:17:50.000Z</time></trkpt><trkpt lon="5.627158" lat="50.979024"><ele>90</ele><time>2022-05-15T08:17:51.000Z</time></trkpt><trkpt lon="5.62715" lat="50.979093"><ele>89.8</ele><time>2022-05-15T08:17:52.000Z</time></trkpt><trkpt lon="5.627144" lat="50.979165"><ele>89.8</ele><time>2022-05-15T08:17:53.000Z</time></trkpt><trkpt lon="5.627137" lat="50.979233"><ele>89.8</ele><time>2022-05-15T08:17:54.000Z</time></trkpt><trkpt lon="5.627132" lat="50.979307"><ele>89.8</ele><time>2022-05-15T08:17:55.000Z</time></trkpt><trkpt lon="5.627128" lat="50.979379"><ele>89.8</ele><time>2022-05-15T08:17:56.000Z</time></trkpt><trkpt lon="5.627127" lat="50.979451"><ele>89.8</ele><time>2022-05-15T08:17:57.000Z</time></trkpt><trkpt lon="5.627128" lat="50.979524"><ele>89.6</ele><time>2022-05-15T08:17:58.000Z</time></trkpt><trkpt lon="5.627131" lat="50.979597"><ele>89.6</ele><time>2022-05-15T08:17:59.000Z</time></trkpt><trkpt lon="5.627138" lat="50.979669"><ele>89.4</ele><time>2022-05-15T08:18:00.000Z</time></trkpt><trkpt lon="5.627145" lat="50.979741"><ele>89.4</ele><time>2022-05-15T08:18:01.000Z</time></trkpt><trkpt lon="5.627156" lat="50.979814"><ele>89.4</ele><time>2022-05-15T08:18:02.000Z</time></trkpt><trkpt lon="5.627168" lat="50.979883"><ele>89.4</ele><time>2022-05-15T08:18:03.000Z</time></trkpt><trkpt lon="5.627181" lat="50.979955"><ele>89.6</ele><time>2022-05-15T08:18:04.000Z</time></trkpt><trkpt lon="5.627196" lat="50.980028"><ele>89.6</ele><time>2022-05-15T08:18:05.000Z</time></trkpt><trkpt lon="5.627214" lat="50.9801"><ele>89.8</ele><time>2022-05-15T08:18:06.000Z</time></trkpt><trkpt lon="5.627233" lat="50.980172"><ele>89.8</ele><time>2022-05-15T08:18:07.000Z</time></trkpt><trkpt lon="5.627253" lat="50.980245"><ele>89.8</ele><time>2022-05-15T08:18:08.000Z</time></trkpt><trkpt lon="5.627273" lat="50.980318"><ele>89.8</ele><time>2022-05-15T08:18:09.000Z</time></trkpt><trkpt lon="5.627297" lat="50.980389"><ele>90</ele><time>2022-05-15T08:18:10.000Z</time></trkpt><trkpt lon="5.627322" lat="50.980462"><ele>90</ele><time>2022-05-15T08:18:11.000Z</time></trkpt><trkpt lon="5.627351" lat="50.980535"><ele>89.8</ele><time>2022-05-15T08:18:12.000Z</time></trkpt><trkpt lon="5.627381" lat="50.980607"><ele>89.6</ele><time>2022-05-15T08:18:13.000Z</time></trkpt><trkpt lon="5.627412" lat="50.980676"><ele>89.6</ele><time>2022-05-15T08:18:14.000Z</time></trkpt><trkpt lon="5.627447" lat="50.980748"><ele>89.6</ele><time>2022-05-15T08:18:15.000Z</time></trkpt><trkpt lon="5.627485" lat="50.980821"><ele>89.6</ele><time>2022-05-15T08:18:16.000Z</time></trkpt><trkpt lon="5.627525" lat="50.980889"><ele>89.6</ele><time>2022-05-15T08:18:17.000Z</time></trkpt><trkpt lon="5.627566" lat="50.980961"><ele>89.4</ele><time>2022-05-15T08:18:18.000Z</time></trkpt><trkpt lon="5.627612" lat="50.981031"><ele>89.2</ele><time>2022-05-15T08:18:19.000Z</time></trkpt><trkpt lon="5.627657" lat="50.981103"><ele>89.2</ele><time>2022-05-15T08:18:20.000Z</time></trkpt><trkpt lon="5.627705" lat="50.981172"><ele>89.2</ele><time>2022-05-15T08:18:21.000Z</time></trkpt><trkpt lon="5.627756" lat="50.98124"><ele>89.2</ele><time>2022-05-15T08:18:22.000Z</time></trkpt><trkpt lon="5.627808" lat="50.981309"><ele>89.4</ele><time>2022-05-15T08:18:23.000Z</time></trkpt><trkpt lon="5.627861" lat="50.981378"><ele>89.4</ele><time>2022-05-15T08:18:24.000Z</time></trkpt><trkpt lon="5.627915" lat="50.981443"><ele>89.4</ele><time>2022-05-15T08:18:25.000Z</time></trkpt><trkpt lon="5.627969" lat="50.981507"><ele>89.4</ele><time>2022-05-15T08:18:26.000Z</time></trkpt><trkpt lon="5.628025" lat="50.981569"><ele>89.4</ele><time>2022-05-15T08:18:27.000Z</time></trkpt><trkpt lon="5.628083" lat="50.98163"><ele>89.6</ele><time>2022-05-15T08:18:28.000Z</time></trkpt><trkpt lon="5.62814" lat="50.981691"><ele>89.6</ele><time>2022-05-15T08:18:29.000Z</time></trkpt><trkpt lon="5.628196" lat="50.98175"><ele>89.8</ele><time>2022-05-15T08:18:30.000Z</time></trkpt><trkpt lon="5.628259" lat="50.981813"><ele>89.8</ele><time>2022-05-15T08:18:31.000Z</time></trkpt><trkpt lon="5.628322" lat="50.981874"><ele>89.8</ele><time>2022-05-15T08:18:32.000Z</time></trkpt><trkpt lon="5.628383" lat="50.981932"><ele>90</ele><time>2022-05-15T08:18:33.000Z</time></trkpt><trkpt lon="5.628448" lat="50.981989"><ele>89.8</ele><time>2022-05-15T08:18:34.000Z</time></trkpt><trkpt lon="5.628512" lat="50.982046"><ele>89.8</ele><time>2022-05-15T08:18:35.000Z</time></trkpt><trkpt lon="5.628578" lat="50.982102"><ele>90.2</ele><time>2022-05-15T08:18:36.000Z</time></trkpt><trkpt lon="5.628649" lat="50.982157"><ele>90.4</ele><time>2022-05-15T08:18:37.000Z</time></trkpt><trkpt lon="5.628717" lat="50.98221"><ele>90.4</ele><time>2022-05-15T08:18:38.000Z</time></trkpt><trkpt lon="5.628788" lat="50.982264"><ele>90.6</ele><time>2022-05-15T08:18:39.000Z</time></trkpt><trkpt lon="5.628856" lat="50.982317"><ele>90.4</ele><time>2022-05-15T08:18:40.000Z</time></trkpt><trkpt lon="5.628928" lat="50.982367"><ele>90.4</ele><time>2022-05-15T08:18:41.000Z</time></trkpt><trkpt lon="5.629001" lat="50.98242"><ele>90.2</ele><time>2022-05-15T08:18:42.000Z</time></trkpt><trkpt lon="5.629073" lat="50.98247"><ele>90.2</ele><time>2022-05-15T08:18:43.000Z</time></trkpt><trkpt lon="5.629146" lat="50.982516"><ele>90.2</ele><time>2022-05-15T08:18:44.000Z</time></trkpt><trkpt lon="5.629221" lat="50.982565"><ele>90.4</ele><time>2022-05-15T08:18:45.000Z</time></trkpt><trkpt lon="5.629297" lat="50.982611"><ele>90.6</ele><time>2022-05-15T08:18:46.000Z</time></trkpt><trkpt lon="5.629375" lat="50.982655"><ele>90.6</ele><time>2022-05-15T08:18:47.000Z</time></trkpt><trkpt lon="5.629455" lat="50.982702"><ele>90.6</ele><time>2022-05-15T08:18:48.000Z</time></trkpt><trkpt lon="5.629534" lat="50.982748"><ele>90.8</ele><time>2022-05-15T08:18:49.000Z</time></trkpt><trkpt lon="5.629611" lat="50.982798"><ele>90.8</ele><time>2022-05-15T08:18:50.000Z</time></trkpt><trkpt lon="5.629689" lat="50.982844"><ele>91</ele><time>2022-05-15T08:18:51.000Z</time></trkpt><trkpt lon="5.629767" lat="50.982889"><ele>91</ele><time>2022-05-15T08:18:52.000Z</time></trkpt><trkpt lon="5.629842" lat="50.982935"><ele>91</ele><time>2022-05-15T08:18:53.000Z</time></trkpt><trkpt lon="5.629919" lat="50.982985"><ele>90.8</ele><time>2022-05-15T08:18:54.000Z</time></trkpt><trkpt lon="5.629997" lat="50.983031"><ele>90.8</ele><time>2022-05-15T08:18:55.000Z</time></trkpt><trkpt lon="5.630072" lat="50.983076"><ele>90.8</ele><time>2022-05-15T08:18:56.000Z</time></trkpt><trkpt lon="5.63015" lat="50.983122"><ele>90.8</ele><time>2022-05-15T08:18:57.000Z</time></trkpt><trkpt lon="5.63022" lat="50.983168"><ele>91</ele><time>2022-05-15T08:18:58.000Z</time></trkpt><trkpt lon="5.630294" lat="50.983214"><ele>91.2</ele><time>2022-05-15T08:18:59.000Z</time></trkpt><trkpt lon="5.630371" lat="50.98326"><ele>91.6</ele><time>2022-05-15T08:19:00.000Z</time></trkpt><trkpt lon="5.630447" lat="50.983309"><ele>91.6</ele><time>2022-05-15T08:19:01.000Z</time></trkpt><trkpt lon="5.630526" lat="50.983355"><ele>91.8</ele><time>2022-05-15T08:19:02.000Z</time></trkpt><trkpt lon="5.630606" lat="50.983401"><ele>91.4</ele><time>2022-05-15T08:19:03.000Z</time></trkpt><trkpt lon="5.630682" lat="50.983443"><ele>91.4</ele><time>2022-05-15T08:19:04.000Z</time></trkpt><trkpt lon="5.630758" lat="50.983489"><ele>91.2</ele><time>2022-05-15T08:19:05.000Z</time></trkpt><trkpt lon="5.630833" lat="50.983531"><ele>91</ele><time>2022-05-15T08:19:06.000Z</time></trkpt><trkpt lon="5.630906" lat="50.983576"><ele>91</ele><time>2022-05-15T08:19:07.000Z</time></trkpt><trkpt lon="5.630979" lat="50.98362"><ele>90.8</ele><time>2022-05-15T08:19:08.000Z</time></trkpt><trkpt lon="5.631056" lat="50.983663"><ele>90.6</ele><time>2022-05-15T08:19:09.000Z</time></trkpt><trkpt lon="5.631132" lat="50.983709"><ele>90.4</ele><time>2022-05-15T08:19:10.000Z</time></trkpt><trkpt lon="5.631207" lat="50.983752"><ele>90.4</ele><time>2022-05-15T08:19:11.000Z</time></trkpt><trkpt lon="5.631283" lat="50.983797"><ele>90.4</ele><time>2022-05-15T08:19:12.000Z</time></trkpt><trkpt lon="5.631357" lat="50.983843"><ele>90.4</ele><time>2022-05-15T08:19:13.000Z</time></trkpt><trkpt lon="5.631434" lat="50.983889"><ele>90.4</ele><time>2022-05-15T08:19:14.000Z</time></trkpt><trkpt lon="5.631508" lat="50.983937"><ele>90.6</ele><time>2022-05-15T08:19:15.000Z</time></trkpt><trkpt lon="5.631586" lat="50.983984"><ele>90.2</ele><time>2022-05-15T08:19:16.000Z</time></trkpt><trkpt lon="5.631663" lat="50.98403"><ele>90</ele><time>2022-05-15T08:19:17.000Z</time></trkpt><trkpt lon="5.631738" lat="50.984076"><ele>90.4</ele><time>2022-05-15T08:19:18.000Z</time></trkpt><trkpt lon="5.631815" lat="50.984121"><ele>91</ele><time>2022-05-15T08:19:19.000Z</time></trkpt><trkpt lon="5.631891" lat="50.984167"><ele>91.4</ele><time>2022-05-15T08:19:20.000Z</time></trkpt><trkpt lon="5.631966" lat="50.984217"><ele>91.6</ele><time>2022-05-15T08:19:21.000Z</time></trkpt><trkpt lon="5.632044" lat="50.984266"><ele>91.8</ele><time>2022-05-15T08:19:22.000Z</time></trkpt><trkpt lon="5.632122" lat="50.984312"><ele>92</ele><time>2022-05-15T08:19:23.000Z</time></trkpt><trkpt lon="5.6322" lat="50.984362"><ele>92.2</ele><time>2022-05-15T08:19:24.000Z</time></trkpt><trkpt lon="5.632277" lat="50.984407"><ele>92.2</ele><time>2022-05-15T08:19:25.000Z</time></trkpt><trkpt lon="5.632358" lat="50.984457"><ele>92.2</ele><time>2022-05-15T08:19:26.000Z</time></trkpt><trkpt lon="5.632437" lat="50.984503"><ele>92.2</ele><time>2022-05-15T08:19:27.000Z</time></trkpt><trkpt lon="5.632517" lat="50.984549"><ele>92.2</ele><time>2022-05-15T08:19:28.000Z</time></trkpt><trkpt lon="5.632596" lat="50.984598"><ele>92.4</ele><time>2022-05-15T08:19:29.000Z</time></trkpt><trkpt lon="5.632669" lat="50.984644"><ele>92.6</ele><time>2022-05-15T08:19:30.000Z</time></trkpt><trkpt lon="5.63274" lat="50.984693"><ele>92.8</ele><time>2022-05-15T08:19:31.000Z</time></trkpt><trkpt lon="5.632813" lat="50.984743"><ele>92.8</ele><time>2022-05-15T08:19:32.000Z</time></trkpt><trkpt lon="5.632884" lat="50.984794"><ele>92.8</ele><time>2022-05-15T08:19:33.000Z</time></trkpt><trkpt lon="5.632947" lat="50.984839"><ele>92.6</ele><time>2022-05-15T08:19:34.000Z</time></trkpt><trkpt lon="5.633011" lat="50.984885"><ele>92.4</ele><time>2022-05-15T08:19:35.000Z</time></trkpt><trkpt lon="5.633073" lat="50.984927"><ele>92.2</ele><time>2022-05-15T08:19:36.000Z</time></trkpt><trkpt lon="5.633133" lat="50.984973"><ele>92.2</ele><time>2022-05-15T08:19:37.000Z</time></trkpt><trkpt lon="5.633193" lat="50.985007"><ele>92</ele><time>2022-05-15T08:19:38.000Z</time></trkpt><trkpt lon="5.633251" lat="50.985045"><ele>92</ele><time>2022-05-15T08:19:39.000Z</time></trkpt><trkpt lon="5.633306" lat="50.985075"><ele>92</ele><time>2022-05-15T08:19:40.000Z</time></trkpt><trkpt lon="5.633362" lat="50.985103"><ele>92.2</ele><time>2022-05-15T08:19:41.000Z</time></trkpt><trkpt lon="5.63342" lat="50.985129"><ele>92.4</ele><time>2022-05-15T08:19:42.000Z</time></trkpt><trkpt lon="5.633473" lat="50.98516"><ele>92.8</ele><time>2022-05-15T08:19:43.000Z</time></trkpt><trkpt lon="5.633523" lat="50.985194"><ele>93</ele><time>2022-05-15T08:19:44.000Z</time></trkpt><trkpt lon="5.633582" lat="50.985225"><ele>93.2</ele><time>2022-05-15T08:19:45.000Z</time></trkpt><trkpt lon="5.633641" lat="50.985258"><ele>93.4</ele><time>2022-05-15T08:19:46.000Z</time></trkpt><trkpt lon="5.633697" lat="50.985293"><ele>93.4</ele><time>2022-05-15T08:19:47.000Z</time></trkpt><trkpt lon="5.633739" lat="50.985331"><ele>93.4</ele><time>2022-05-15T08:19:48.000Z</time></trkpt><trkpt lon="5.633753" lat="50.985373"><ele>93.4</ele><time>2022-05-15T08:19:49.000Z</time></trkpt><trkpt lon="5.633736" lat="50.985414"><ele>93.4</ele><time>2022-05-15T08:19:50.000Z</time></trkpt><trkpt lon="5.633705" lat="50.985445"><ele>93.4</ele><time>2022-05-15T08:19:51.000Z</time></trkpt><trkpt lon="5.63368" lat="50.985475"><ele>93.4</ele><time>2022-05-15T08:19:52.000Z</time></trkpt><trkpt lon="5.633669" lat="50.985506"><ele>93.6</ele><time>2022-05-15T08:19:53.000Z</time></trkpt><trkpt lon="5.63367" lat="50.985526"><ele>93.6</ele><time>2022-05-15T08:19:54.000Z</time></trkpt><trkpt lon="5.633753" lat="50.985573"><ele>93.6</ele><time>2022-05-15T08:20:06.000Z</time></trkpt><trkpt lon="5.633782" lat="50.985569"><ele>93.6</ele><time>2022-05-15T08:20:07.000Z</time></trkpt><trkpt lon="5.633819" lat="50.985565"><ele>93.6</ele><time>2022-05-15T08:20:08.000Z</time></trkpt><trkpt lon="5.633856" lat="50.985576"><ele>93.6</ele><time>2022-05-15T08:20:09.000Z</time></trkpt><trkpt lon="5.633887" lat="50.985602"><ele>93.6</ele><time>2022-05-15T08:20:10.000Z</time></trkpt><trkpt lon="5.633906" lat="50.985628"><ele>93.4</ele><time>2022-05-15T08:20:11.000Z</time></trkpt><trkpt lon="5.633905" lat="50.985659"><ele>93.4</ele><time>2022-05-15T08:20:12.000Z</time></trkpt><trkpt lon="5.633887" lat="50.985686"><ele>93.4</ele><time>2022-05-15T08:20:13.000Z</time></trkpt><trkpt lon="5.633862" lat="50.985712"><ele>93.4</ele><time>2022-05-15T08:20:14.000Z</time></trkpt><trkpt lon="5.633833" lat="50.98574"><ele>93.4</ele><time>2022-05-15T08:20:15.000Z</time></trkpt><trkpt lon="5.633804" lat="50.985763"><ele>93.4</ele><time>2022-05-15T08:20:16.000Z</time></trkpt><trkpt lon="5.633774" lat="50.985778"><ele>93.4</ele><time>2022-05-15T08:20:17.000Z</time></trkpt><trkpt lon="5.633743" lat="50.985797"><ele>93.4</ele><time>2022-05-15T08:20:18.000Z</time></trkpt><trkpt lon="5.633712" lat="50.985816"><ele>93.6</ele><time>2022-05-15T08:20:19.000Z</time></trkpt><trkpt lon="5.63368" lat="50.985835"><ele>93.6</ele><time>2022-05-15T08:20:20.000Z</time></trkpt><trkpt lon="5.633656" lat="50.985855"><ele>93.6</ele><time>2022-05-15T08:20:21.000Z</time></trkpt><trkpt lon="5.633627" lat="50.985877"><ele>93.6</ele><time>2022-05-15T08:20:22.000Z</time></trkpt><trkpt lon="5.633598" lat="50.9859"><ele>93.6</ele><time>2022-05-15T08:20:23.000Z</time></trkpt><trkpt lon="5.63357" lat="50.985919"><ele>93.6</ele><time>2022-05-15T08:20:24.000Z</time></trkpt><trkpt lon="5.633538" lat="50.985938"><ele>93.6</ele><time>2022-05-15T08:20:25.000Z</time></trkpt><trkpt lon="5.633508" lat="50.985954"><ele>93.6</ele><time>2022-05-15T08:20:26.000Z</time></trkpt><trkpt lon="5.633478" lat="50.985969"><ele>93.6</ele><time>2022-05-15T08:20:27.000Z</time></trkpt><trkpt lon="5.633448" lat="50.985988"><ele>93.6</ele><time>2022-05-15T08:20:28.000Z</time></trkpt><trkpt lon="5.633416" lat="50.986003"><ele>93.6</ele><time>2022-05-15T08:20:29.000Z</time></trkpt><trkpt lon="5.633386" lat="50.986022"><ele>93.6</ele><time>2022-05-15T08:20:30.000Z</time></trkpt><trkpt lon="5.633358" lat="50.986038"><ele>93.6</ele><time>2022-05-15T08:20:31.000Z</time></trkpt><trkpt lon="5.633328" lat="50.986057"><ele>93.6</ele><time>2022-05-15T08:20:32.000Z</time></trkpt><trkpt lon="5.633296" lat="50.986072"><ele>93.4</ele><time>2022-05-15T08:20:33.000Z</time></trkpt><trkpt lon="5.633257" lat="50.986091"><ele>93.4</ele><time>2022-05-15T08:20:34.000Z</time></trkpt><trkpt lon="5.633214" lat="50.986121"><ele>93.4</ele><time>2022-05-15T08:20:35.000Z</time></trkpt><trkpt lon="5.633166" lat="50.986152"><ele>93.4</ele><time>2022-05-15T08:20:36.000Z</time></trkpt><trkpt lon="5.633122" lat="50.986186"><ele>93.4</ele><time>2022-05-15T08:20:37.000Z</time></trkpt><trkpt lon="5.633079" lat="50.986216"><ele>93.4</ele><time>2022-05-15T08:20:38.000Z</time></trkpt><trkpt lon="5.633029" lat="50.986254"><ele>93.4</ele><time>2022-05-15T08:20:39.000Z</time></trkpt><trkpt lon="5.632983" lat="50.986284"><ele>93.4</ele><time>2022-05-15T08:20:40.000Z</time></trkpt><trkpt lon="5.632919" lat="50.986327"><ele>93.4</ele><time>2022-05-15T08:20:41.000Z</time></trkpt><trkpt lon="5.632876" lat="50.986354"><ele>93.2</ele><time>2022-05-15T08:20:42.000Z</time></trkpt><trkpt lon="5.632817" lat="50.986396"><ele>93.2</ele><time>2022-05-15T08:20:43.000Z</time></trkpt><trkpt lon="5.632757" lat="50.986434"><ele>93.2</ele><time>2022-05-15T08:20:44.000Z</time></trkpt><trkpt lon="5.632702" lat="50.986468"><ele>93.2</ele><time>2022-05-15T08:20:45.000Z</time></trkpt><trkpt lon="5.632648" lat="50.986504"><ele>93.2</ele><time>2022-05-15T08:20:46.000Z</time></trkpt><trkpt lon="5.632586" lat="50.986544"><ele>93.2</ele><time>2022-05-15T08:20:47.000Z</time></trkpt><trkpt lon="5.632522" lat="50.986587"><ele>93.2</ele><time>2022-05-15T08:20:48.000Z</time></trkpt><trkpt lon="5.632465" lat="50.986616"><ele>93.2</ele><time>2022-05-15T08:20:49.000Z</time></trkpt><trkpt lon="5.632396" lat="50.986658"><ele>93.2</ele><time>2022-05-15T08:20:50.000Z</time></trkpt><trkpt lon="5.632324" lat="50.986708"><ele>93.2</ele><time>2022-05-15T08:20:51.000Z</time></trkpt><trkpt lon="5.632259" lat="50.98675"><ele>93.2</ele><time>2022-05-15T08:20:52.000Z</time></trkpt><trkpt lon="5.632202" lat="50.986792"><ele>93.2</ele><time>2022-05-15T08:20:53.000Z</time></trkpt><trkpt lon="5.632146" lat="50.986838"><ele>93.2</ele><time>2022-05-15T08:20:54.000Z</time></trkpt><trkpt lon="5.632082" lat="50.98688"><ele>93.2</ele><time>2022-05-15T08:20:55.000Z</time></trkpt><trkpt lon="5.632019" lat="50.986914"><ele>93.2</ele><time>2022-05-15T08:20:56.000Z</time></trkpt><trkpt lon="5.631949" lat="50.986977"><ele>93.2</ele><time>2022-05-15T08:20:57.000Z</time></trkpt><trkpt lon="5.631881" lat="50.987028"><ele>93.4</ele><time>2022-05-15T08:20:58.000Z</time></trkpt><trkpt lon="5.631816" lat="50.98707"><ele>93.4</ele><time>2022-05-15T08:20:59.000Z</time></trkpt><trkpt lon="5.631748" lat="50.987116"><ele>93.4</ele><time>2022-05-15T08:21:00.000Z</time></trkpt><trkpt lon="5.631679" lat="50.987158"><ele>93.4</ele><time>2022-05-15T08:21:01.000Z</time></trkpt><trkpt lon="5.63159" lat="50.987219"><ele>93.6</ele><time>2022-05-15T08:21:02.000Z</time></trkpt><trkpt lon="5.631506" lat="50.987283"><ele>93.6</ele><time>2022-05-15T08:21:03.000Z</time></trkpt><trkpt lon="5.631416" lat="50.987341"><ele>93.4</ele><time>2022-05-15T08:21:04.000Z</time></trkpt><trkpt lon="5.631334" lat="50.987398"><ele>93.4</ele><time>2022-05-15T08:21:05.000Z</time></trkpt><trkpt lon="5.631256" lat="50.987444"><ele>93.4</ele><time>2022-05-15T08:21:06.000Z</time></trkpt><trkpt lon="5.631184" lat="50.987499"><ele>93.6</ele><time>2022-05-15T08:21:07.000Z</time></trkpt><trkpt lon="5.631106" lat="50.987555"><ele>93.8</ele><time>2022-05-15T08:21:08.000Z</time></trkpt><trkpt lon="5.631027" lat="50.987605"><ele>94</ele><time>2022-05-15T08:21:09.000Z</time></trkpt><trkpt lon="5.630953" lat="50.987658"><ele>94</ele><time>2022-05-15T08:21:10.000Z</time></trkpt><trkpt lon="5.630878" lat="50.987714"><ele>94.2</ele><time>2022-05-15T08:21:11.000Z</time></trkpt><trkpt lon="5.630799" lat="50.987773"><ele>94.4</ele><time>2022-05-15T08:21:12.000Z</time></trkpt><trkpt lon="5.630718" lat="50.987825"><ele>94.6</ele><time>2022-05-15T08:21:13.000Z</time></trkpt><trkpt lon="5.630637" lat="50.987883"><ele>94.8</ele><time>2022-05-15T08:21:14.000Z</time></trkpt><trkpt lon="5.630563" lat="50.987931"><ele>94.8</ele><time>2022-05-15T08:21:15.000Z</time></trkpt><trkpt lon="5.630477" lat="50.987982"><ele>94.8</ele><time>2022-05-15T08:21:16.000Z</time></trkpt><trkpt lon="5.6304" lat="50.988035"><ele>94.8</ele><time>2022-05-15T08:21:17.000Z</time></trkpt><trkpt lon="5.630332" lat="50.98808"><ele>95</ele><time>2022-05-15T08:21:18.000Z</time></trkpt><trkpt lon="5.630267" lat="50.988122"><ele>95</ele><time>2022-05-15T08:21:19.000Z</time></trkpt><trkpt lon="5.630189" lat="50.988173"><ele>95</ele><time>2022-05-15T08:21:20.000Z</time></trkpt><trkpt lon="5.630125" lat="50.988219"><ele>94.8</ele><time>2022-05-15T08:21:21.000Z</time></trkpt><trkpt lon="5.630054" lat="50.988268"><ele>94.8</ele><time>2022-05-15T08:21:22.000Z</time></trkpt><trkpt lon="5.629984" lat="50.988315"><ele>94.8</ele><time>2022-05-15T08:21:23.000Z</time></trkpt><trkpt lon="5.629887" lat="50.988374"><ele>94.8</ele><time>2022-05-15T08:21:24.000Z</time></trkpt><trkpt lon="5.629802" lat="50.988428"><ele>94.6</ele><time>2022-05-15T08:21:25.000Z</time></trkpt><trkpt lon="5.629729" lat="50.988476"><ele>94.4</ele><time>2022-05-15T08:21:26.000Z</time></trkpt><trkpt lon="5.62965" lat="50.988528"><ele>94.4</ele><time>2022-05-15T08:21:27.000Z</time></trkpt><trkpt lon="5.629568" lat="50.988581"><ele>94.6</ele><time>2022-05-15T08:21:28.000Z</time></trkpt><trkpt lon="5.629491" lat="50.988634"><ele>94.6</ele><time>2022-05-15T08:21:29.000Z</time></trkpt><trkpt lon="5.629409" lat="50.988684"><ele>94.8</ele><time>2022-05-15T08:21:30.000Z</time></trkpt><trkpt lon="5.629314" lat="50.988737"><ele>94.8</ele><time>2022-05-15T08:21:31.000Z</time></trkpt><trkpt lon="5.629231" lat="50.988783"><ele>94.8</ele><time>2022-05-15T08:21:32.000Z</time></trkpt><trkpt lon="5.629152" lat="50.988826"><ele>94.8</ele><time>2022-05-15T08:21:33.000Z</time></trkpt><trkpt lon="5.629071" lat="50.988864"><ele>94.8</ele><time>2022-05-15T08:21:34.000Z</time></trkpt><trkpt lon="5.628979" lat="50.98889"><ele>95</ele><time>2022-05-15T08:21:35.000Z</time></trkpt><trkpt lon="5.628884" lat="50.988916"><ele>95</ele><time>2022-05-15T08:21:36.000Z</time></trkpt><trkpt lon="5.628794" lat="50.988962"><ele>94.8</ele><time>2022-05-15T08:21:37.000Z</time></trkpt><trkpt lon="5.628716" lat="50.989006"><ele>94.8</ele><time>2022-05-15T08:21:38.000Z</time></trkpt><trkpt lon="5.628628" lat="50.989061"><ele>94.6</ele><time>2022-05-15T08:21:39.000Z</time></trkpt><trkpt lon="5.628546" lat="50.989107"><ele>94.6</ele><time>2022-05-15T08:21:40.000Z</time></trkpt><trkpt lon="5.628459" lat="50.98916"><ele>94.6</ele><time>2022-05-15T08:21:41.000Z</time></trkpt><trkpt lon="5.628358" lat="50.989222"><ele>94.6</ele><time>2022-05-15T08:21:42.000Z</time></trkpt><trkpt lon="5.628257" lat="50.989279"><ele>94.4</ele><time>2022-05-15T08:21:43.000Z</time></trkpt><trkpt lon="5.628159" lat="50.989336"><ele>94.2</ele><time>2022-05-15T08:21:44.000Z</time></trkpt><trkpt lon="5.628067" lat="50.989394"><ele>94</ele><time>2022-05-15T08:21:45.000Z</time></trkpt><trkpt lon="5.627971" lat="50.989454"><ele>94</ele><time>2022-05-15T08:21:46.000Z</time></trkpt><trkpt lon="5.627882" lat="50.989508"><ele>94</ele><time>2022-05-15T08:21:47.000Z</time></trkpt><trkpt lon="5.627794" lat="50.989564"><ele>93.8</ele><time>2022-05-15T08:21:48.000Z</time></trkpt><trkpt lon="5.627702" lat="50.989625"><ele>93.8</ele><time>2022-05-15T08:21:49.000Z</time></trkpt><trkpt lon="5.627613" lat="50.989687"><ele>93.6</ele><time>2022-05-15T08:21:50.000Z</time></trkpt><trkpt lon="5.627526" lat="50.989741"><ele>93.6</ele><time>2022-05-15T08:21:51.000Z</time></trkpt><trkpt lon="5.627438" lat="50.989801"><ele>93.6</ele><time>2022-05-15T08:21:52.000Z</time></trkpt><trkpt lon="5.62735" lat="50.989855"><ele>93.6</ele><time>2022-05-15T08:21:53.000Z</time></trkpt><trkpt lon="5.627263" lat="50.989912"><ele>93.8</ele><time>2022-05-15T08:21:54.000Z</time></trkpt><trkpt lon="5.627174" lat="50.989973"><ele>93.6</ele><time>2022-05-15T08:21:55.000Z</time></trkpt><trkpt lon="5.627088" lat="50.99003"><ele>93.6</ele><time>2022-05-15T08:21:56.000Z</time></trkpt><trkpt lon="5.627005" lat="50.990086"><ele>93.4</ele><time>2022-05-15T08:21:57.000Z</time></trkpt><trkpt lon="5.626921" lat="50.990145"><ele>93.2</ele><time>2022-05-15T08:21:58.000Z</time></trkpt><trkpt lon="5.626838" lat="50.990202"><ele>93</ele><time>2022-05-15T08:21:59.000Z</time></trkpt><trkpt lon="5.626753" lat="50.990259"><ele>92.8</ele><time>2022-05-15T08:22:00.000Z</time></trkpt><trkpt lon="5.626669" lat="50.990316"><ele>92.6</ele><time>2022-05-15T08:22:01.000Z</time></trkpt><trkpt lon="5.626584" lat="50.99037"><ele>92.6</ele><time>2022-05-15T08:22:02.000Z</time></trkpt><trkpt lon="5.626502" lat="50.990424"><ele>92.6</ele><time>2022-05-15T08:22:03.000Z</time></trkpt><trkpt lon="5.626426" lat="50.990477"><ele>92.4</ele><time>2022-05-15T08:22:04.000Z</time></trkpt><trkpt lon="5.626339" lat="50.990534"><ele>92.6</ele><time>2022-05-15T08:22:05.000Z</time></trkpt><trkpt lon="5.626263" lat="50.990585"><ele>92.6</ele><time>2022-05-15T08:22:06.000Z</time></trkpt><trkpt lon="5.626177" lat="50.990641"><ele>92.6</ele><time>2022-05-15T08:22:07.000Z</time></trkpt><trkpt lon="5.626099" lat="50.990693"><ele>92.4</ele><time>2022-05-15T08:22:08.000Z</time></trkpt><trkpt lon="5.626015" lat="50.990752"><ele>92.4</ele><time>2022-05-15T08:22:09.000Z</time></trkpt><trkpt lon="5.625937" lat="50.990804"><ele>92.4</ele><time>2022-05-15T08:22:10.000Z</time></trkpt><trkpt lon="5.625856" lat="50.990858"><ele>92.4</ele><time>2022-05-15T08:22:11.000Z</time></trkpt><trkpt lon="5.625776" lat="50.990911"><ele>92.4</ele><time>2022-05-15T08:22:12.000Z</time></trkpt><trkpt lon="5.625694" lat="50.990965"><ele>92.4</ele><time>2022-05-15T08:22:13.000Z</time></trkpt><trkpt lon="5.625616" lat="50.991019"><ele>92.6</ele><time>2022-05-15T08:22:14.000Z</time></trkpt><trkpt lon="5.625535" lat="50.99108"><ele>92.6</ele><time>2022-05-15T08:22:15.000Z</time></trkpt><trkpt lon="5.62546" lat="50.991133"><ele>92.6</ele><time>2022-05-15T08:22:16.000Z</time></trkpt><trkpt lon="5.625387" lat="50.99119"><ele>92.6</ele><time>2022-05-15T08:22:17.000Z</time></trkpt><trkpt lon="5.625312" lat="50.991243"><ele>92.6</ele><time>2022-05-15T08:22:18.000Z</time></trkpt><trkpt lon="5.625231" lat="50.9913"><ele>92.4</ele><time>2022-05-15T08:22:19.000Z</time></trkpt><trkpt lon="5.62515" lat="50.991358"><ele>92.4</ele><time>2022-05-15T08:22:20.000Z</time></trkpt><trkpt lon="5.625069" lat="50.991407"><ele>92.4</ele><time>2022-05-15T08:22:21.000Z</time></trkpt><trkpt lon="5.624986" lat="50.991454"><ele>92.4</ele><time>2022-05-15T08:22:22.000Z</time></trkpt><trkpt lon="5.624904" lat="50.991507"><ele>92.6</ele><time>2022-05-15T08:22:23.000Z</time></trkpt><trkpt lon="5.624823" lat="50.99156"><ele>92.6</ele><time>2022-05-15T08:22:24.000Z</time></trkpt><trkpt lon="5.624743" lat="50.99161"><ele>92.8</ele><time>2022-05-15T08:22:25.000Z</time></trkpt><trkpt lon="5.624666" lat="50.991663"><ele>93</ele><time>2022-05-15T08:22:26.000Z</time></trkpt><trkpt lon="5.624586" lat="50.991709"><ele>92.8</ele><time>2022-05-15T08:22:27.000Z</time></trkpt><trkpt lon="5.624506" lat="50.991759"><ele>92.8</ele><time>2022-05-15T08:22:28.000Z</time></trkpt><trkpt lon="5.624427" lat="50.991808"><ele>92.6</ele><time>2022-05-15T08:22:29.000Z</time></trkpt><trkpt lon="5.624346" lat="50.991854"><ele>92.4</ele><time>2022-05-15T08:22:30.000Z</time></trkpt><trkpt lon="5.624271" lat="50.991901"><ele>92.4</ele><time>2022-05-15T08:22:31.000Z</time></trkpt><trkpt lon="5.624189" lat="50.991954"><ele>92.6</ele><time>2022-05-15T08:22:32.000Z</time></trkpt><trkpt lon="5.624111" lat="50.992006"><ele>92.6</ele><time>2022-05-15T08:22:33.000Z</time></trkpt><trkpt lon="5.624031" lat="50.992052"><ele>92.8</ele><time>2022-05-15T08:22:34.000Z</time></trkpt><trkpt lon="5.623951" lat="50.992106"><ele>92.8</ele><time>2022-05-15T08:22:35.000Z</time></trkpt><trkpt lon="5.623871" lat="50.992159"><ele>93</ele><time>2022-05-15T08:22:36.000Z</time></trkpt><trkpt lon="5.623792" lat="50.992211"><ele>93</ele><time>2022-05-15T08:22:37.000Z</time></trkpt><trkpt lon="5.623709" lat="50.99227"><ele>93</ele><time>2022-05-15T08:22:38.000Z</time></trkpt><trkpt lon="5.623627" lat="50.992323"><ele>93</ele><time>2022-05-15T08:22:39.000Z</time></trkpt><trkpt lon="5.623546" lat="50.99238"><ele>93</ele><time>2022-05-15T08:22:40.000Z</time></trkpt><trkpt lon="5.623464" lat="50.992433"><ele>93</ele><time>2022-05-15T08:22:41.000Z</time></trkpt><trkpt lon="5.62338" lat="50.992483"><ele>93.2</ele><time>2022-05-15T08:22:42.000Z</time></trkpt><trkpt lon="5.623298" lat="50.992537"><ele>93.2</ele><time>2022-05-15T08:22:43.000Z</time></trkpt><trkpt lon="5.623214" lat="50.992587"><ele>93.2</ele><time>2022-05-15T08:22:44.000Z</time></trkpt><trkpt lon="5.623132" lat="50.992635"><ele>93.2</ele><time>2022-05-15T08:22:45.000Z</time></trkpt><trkpt lon="5.623048" lat="50.992685"><ele>93.2</ele><time>2022-05-15T08:22:46.000Z</time></trkpt><trkpt lon="5.62296" lat="50.992735"><ele>93</ele><time>2022-05-15T08:22:47.000Z</time></trkpt><trkpt lon="5.622869" lat="50.992785"><ele>93.2</ele><time>2022-05-15T08:22:48.000Z</time></trkpt><trkpt lon="5.622779" lat="50.992827"><ele>92.8</ele><time>2022-05-15T08:22:49.000Z</time></trkpt><trkpt lon="5.622689" lat="50.992876"><ele>93</ele><time>2022-05-15T08:22:50.000Z</time></trkpt><trkpt lon="5.622594" lat="50.992919"><ele>93</ele><time>2022-05-15T08:22:51.000Z</time></trkpt><trkpt lon="5.622502" lat="50.992965"><ele>93</ele><time>2022-05-15T08:22:52.000Z</time></trkpt><trkpt lon="5.62241" lat="50.993006"><ele>93</ele><time>2022-05-15T08:22:53.000Z</time></trkpt><trkpt lon="5.622313" lat="50.993052"><ele>93</ele><time>2022-05-15T08:22:54.000Z</time></trkpt><trkpt lon="5.622224" lat="50.993096"><ele>92.8</ele><time>2022-05-15T08:22:55.000Z</time></trkpt><trkpt lon="5.622128" lat="50.993136"><ele>92.8</ele><time>2022-05-15T08:22:56.000Z</time></trkpt><trkpt lon="5.622039" lat="50.993178"><ele>92.8</ele><time>2022-05-15T08:22:57.000Z</time></trkpt><trkpt lon="5.621951" lat="50.99322"><ele>92.6</ele><time>2022-05-15T08:22:58.000Z</time></trkpt><trkpt lon="5.621872" lat="50.993255"><ele>92.6</ele><time>2022-05-15T08:22:59.000Z</time></trkpt><trkpt lon="5.621776" lat="50.9933"><ele>92.4</ele><time>2022-05-15T08:23:00.000Z</time></trkpt><trkpt lon="5.621687" lat="50.993338"><ele>92.2</ele><time>2022-05-15T08:23:01.000Z</time></trkpt><trkpt lon="5.621603" lat="50.993381"><ele>92.2</ele><time>2022-05-15T08:23:02.000Z</time></trkpt><trkpt lon="5.62151" lat="50.993433"><ele>92</ele><time>2022-05-15T08:23:03.000Z</time></trkpt><trkpt lon="5.621427" lat="50.993486"><ele>91.8</ele><time>2022-05-15T08:23:04.000Z</time></trkpt><trkpt lon="5.621344" lat="50.993536"><ele>91.8</ele><time>2022-05-15T08:23:05.000Z</time></trkpt><trkpt lon="5.621255" lat="50.993582"><ele>91.6</ele><time>2022-05-15T08:23:06.000Z</time></trkpt><trkpt lon="5.621161" lat="50.993628"><ele>91.6</ele><time>2022-05-15T08:23:07.000Z</time></trkpt><trkpt lon="5.621069" lat="50.993673"><ele>91.6</ele><time>2022-05-15T08:23:08.000Z</time></trkpt><trkpt lon="5.62098" lat="50.993719"><ele>91.8</ele><time>2022-05-15T08:23:09.000Z</time></trkpt><trkpt lon="5.620889" lat="50.993765"><ele>92</ele><time>2022-05-15T08:23:10.000Z</time></trkpt><trkpt lon="5.620797" lat="50.993811"><ele>92</ele><time>2022-05-15T08:23:11.000Z</time></trkpt><trkpt lon="5.620713" lat="50.993853"><ele>92.2</ele><time>2022-05-15T08:23:12.000Z</time></trkpt><trkpt lon="5.620636" lat="50.993895"><ele>92</ele><time>2022-05-15T08:23:13.000Z</time></trkpt><trkpt lon="5.620556" lat="50.993933"><ele>92</ele><time>2022-05-15T08:23:14.000Z</time></trkpt><trkpt lon="5.620474" lat="50.993972"><ele>92.2</ele><time>2022-05-15T08:23:15.000Z</time></trkpt><trkpt lon="5.620393" lat="50.994013"><ele>92.2</ele><time>2022-05-15T08:23:16.000Z</time></trkpt><trkpt lon="5.620311" lat="50.994054"><ele>92.4</ele><time>2022-05-15T08:23:17.000Z</time></trkpt><trkpt lon="5.62023" lat="50.994093"><ele>92.4</ele><time>2022-05-15T08:23:18.000Z</time></trkpt><trkpt lon="5.62015" lat="50.994135"><ele>92.4</ele><time>2022-05-15T08:23:19.000Z</time></trkpt><trkpt lon="5.620066" lat="50.994174"><ele>92.4</ele><time>2022-05-15T08:23:20.000Z</time></trkpt><trkpt lon="5.619983" lat="50.994215"><ele>92.2</ele><time>2022-05-15T08:23:21.000Z</time></trkpt><trkpt lon="5.619895" lat="50.99426"><ele>92.2</ele><time>2022-05-15T08:23:22.000Z</time></trkpt><trkpt lon="5.619798" lat="50.994307"><ele>92.2</ele><time>2022-05-15T08:23:23.000Z</time></trkpt><trkpt lon="5.619702" lat="50.994349"><ele>92.2</ele><time>2022-05-15T08:23:24.000Z</time></trkpt><trkpt lon="5.619608" lat="50.994391"><ele>92</ele><time>2022-05-15T08:23:25.000Z</time></trkpt><trkpt lon="5.61952" lat="50.994436"><ele>92.2</ele><time>2022-05-15T08:23:26.000Z</time></trkpt><trkpt lon="5.619435" lat="50.994479"><ele>92.2</ele><time>2022-05-15T08:23:27.000Z</time></trkpt><trkpt lon="5.619365" lat="50.994521"><ele>92.2</ele><time>2022-05-15T08:23:28.000Z</time></trkpt><trkpt lon="5.619284" lat="50.994563"><ele>92.4</ele><time>2022-05-15T08:23:29.000Z</time></trkpt><trkpt lon="5.619211" lat="50.994605"><ele>92.4</ele><time>2022-05-15T08:23:30.000Z</time></trkpt><trkpt lon="5.619152" lat="50.994639"><ele>92.4</ele><time>2022-05-15T08:23:31.000Z</time></trkpt><trkpt lon="5.619076" lat="50.994677"><ele>92.6</ele><time>2022-05-15T08:23:32.000Z</time></trkpt><trkpt lon="5.618999" lat="50.994715"><ele>92.6</ele><time>2022-05-15T08:23:33.000Z</time></trkpt><trkpt lon="5.618929" lat="50.994749"><ele>92.8</ele><time>2022-05-15T08:23:34.000Z</time></trkpt><trkpt lon="5.618852" lat="50.994788"><ele>92.8</ele><time>2022-05-15T08:23:35.000Z</time></trkpt><trkpt lon="5.618777" lat="50.99483"><ele>92.8</ele><time>2022-05-15T08:23:36.000Z</time></trkpt><trkpt lon="5.618704" lat="50.994868"><ele>93</ele><time>2022-05-15T08:23:37.000Z</time></trkpt><trkpt lon="5.618632" lat="50.994902"><ele>93</ele><time>2022-05-15T08:23:38.000Z</time></trkpt><trkpt lon="5.618559" lat="50.99494"><ele>93.2</ele><time>2022-05-15T08:23:39.000Z</time></trkpt><trkpt lon="5.618477" lat="50.994977"><ele>93.2</ele><time>2022-05-15T08:23:40.000Z</time></trkpt><trkpt lon="5.618387" lat="50.99502"><ele>93.2</ele><time>2022-05-15T08:23:41.000Z</time></trkpt><trkpt lon="5.618306" lat="50.995059"><ele>93.2</ele><time>2022-05-15T08:23:42.000Z</time></trkpt><trkpt lon="5.618233" lat="50.995097"><ele>93.2</ele><time>2022-05-15T08:23:43.000Z</time></trkpt><trkpt lon="5.618156" lat="50.995138"><ele>93.2</ele><time>2022-05-15T08:23:44.000Z</time></trkpt><trkpt lon="5.618068" lat="50.995177"><ele>93.2</ele><time>2022-05-15T08:23:45.000Z</time></trkpt><trkpt lon="5.617976" lat="50.995219"><ele>93.2</ele><time>2022-05-15T08:23:46.000Z</time></trkpt><trkpt lon="5.617899" lat="50.99526"><ele>93.4</ele><time>2022-05-15T08:23:47.000Z</time></trkpt><trkpt lon="5.617814" lat="50.995307"><ele>93.4</ele><time>2022-05-15T08:23:48.000Z</time></trkpt><trkpt lon="5.617721" lat="50.995345"><ele>93.2</ele><time>2022-05-15T08:23:49.000Z</time></trkpt><trkpt lon="5.617634" lat="50.995386"><ele>93.2</ele><time>2022-05-15T08:23:50.000Z</time></trkpt><trkpt lon="5.617564" lat="50.995421"><ele>93.2</ele><time>2022-05-15T08:23:51.000Z</time></trkpt><trkpt lon="5.617492" lat="50.995459"><ele>93</ele><time>2022-05-15T08:23:52.000Z</time></trkpt><trkpt lon="5.617411" lat="50.995501"><ele>93.2</ele><time>2022-05-15T08:23:53.000Z</time></trkpt><trkpt lon="5.617327" lat="50.995543"><ele>93.2</ele><time>2022-05-15T08:23:54.000Z</time></trkpt><trkpt lon="5.617259" lat="50.995579"><ele>93.4</ele><time>2022-05-15T08:23:55.000Z</time></trkpt><trkpt lon="5.617168" lat="50.995623"><ele>93.4</ele><time>2022-05-15T08:23:56.000Z</time></trkpt><trkpt lon="5.617101" lat="50.995657"><ele>93.6</ele><time>2022-05-15T08:23:57.000Z</time></trkpt><trkpt lon="5.617019" lat="50.995696"><ele>93.6</ele><time>2022-05-15T08:23:58.000Z</time></trkpt><trkpt lon="5.616946" lat="50.995734"><ele>93.4</ele><time>2022-05-15T08:23:59.000Z</time></trkpt><trkpt lon="5.616851" lat="50.995781"><ele>93.4</ele><time>2022-05-15T08:24:00.000Z</time></trkpt><trkpt lon="5.616756" lat="50.995825"><ele>93.2</ele><time>2022-05-15T08:24:01.000Z</time></trkpt><trkpt lon="5.616671" lat="50.995867"><ele>93.2</ele><time>2022-05-15T08:24:02.000Z</time></trkpt><trkpt lon="5.616584" lat="50.995908"><ele>93.2</ele><time>2022-05-15T08:24:03.000Z</time></trkpt><trkpt lon="5.616466" lat="50.995959"><ele>93</ele><time>2022-05-15T08:24:04.000Z</time></trkpt><trkpt lon="5.616376" lat="50.995996"><ele>93</ele><time>2022-05-15T08:24:05.000Z</time></trkpt><trkpt lon="5.616284" lat="50.996036"><ele>93</ele><time>2022-05-15T08:24:06.000Z</time></trkpt><trkpt lon="5.616182" lat="50.996081"><ele>93</ele><time>2022-05-15T08:24:07.000Z</time></trkpt><trkpt lon="5.616095" lat="50.996126"><ele>93</ele><time>2022-05-15T08:24:08.000Z</time></trkpt><trkpt lon="5.616007" lat="50.996176"><ele>93</ele><time>2022-05-15T08:24:09.000Z</time></trkpt><trkpt lon="5.615913" lat="50.996222"><ele>93</ele><time>2022-05-15T08:24:10.000Z</time></trkpt><trkpt lon="5.61582" lat="50.996275"><ele>93</ele><time>2022-05-15T08:24:11.000Z</time></trkpt><trkpt lon="5.615728" lat="50.99632"><ele>93</ele><time>2022-05-15T08:24:12.000Z</time></trkpt><trkpt lon="5.615642" lat="50.99636"><ele>93</ele><time>2022-05-15T08:24:13.000Z</time></trkpt><trkpt lon="5.615556" lat="50.996401"><ele>93</ele><time>2022-05-15T08:24:14.000Z</time></trkpt><trkpt lon="5.615477" lat="50.996442"><ele>93</ele><time>2022-05-15T08:24:15.000Z</time></trkpt><trkpt lon="5.615393" lat="50.996485"><ele>93</ele><time>2022-05-15T08:24:16.000Z</time></trkpt><trkpt lon="5.61531" lat="50.996523"><ele>93</ele><time>2022-05-15T08:24:17.000Z</time></trkpt><trkpt lon="5.615221" lat="50.996569"><ele>93</ele><time>2022-05-15T08:24:18.000Z</time></trkpt><trkpt lon="5.615126" lat="50.996611"><ele>93</ele><time>2022-05-15T08:24:19.000Z</time></trkpt><trkpt lon="5.615026" lat="50.996656"><ele>93</ele><time>2022-05-15T08:24:20.000Z</time></trkpt><trkpt lon="5.614926" lat="50.996708"><ele>93</ele><time>2022-05-15T08:24:21.000Z</time></trkpt><trkpt lon="5.614828" lat="50.99676"><ele>92.8</ele><time>2022-05-15T08:24:22.000Z</time></trkpt><trkpt lon="5.614739" lat="50.996808"><ele>92.8</ele><time>2022-05-15T08:24:23.000Z</time></trkpt><trkpt lon="5.614644" lat="50.996862"><ele>92.8</ele><time>2022-05-15T08:24:24.000Z</time></trkpt><trkpt lon="5.614553" lat="50.996916"><ele>92.6</ele><time>2022-05-15T08:24:25.000Z</time></trkpt><trkpt lon="5.614463" lat="50.996977"><ele>92.6</ele><time>2022-05-15T08:24:26.000Z</time></trkpt><trkpt lon="5.614366" lat="50.997037"><ele>92.4</ele><time>2022-05-15T08:24:27.000Z</time></trkpt><trkpt lon="5.614288" lat="50.997101"><ele>92.4</ele><time>2022-05-15T08:24:28.000Z</time></trkpt><trkpt lon="5.614189" lat="50.997159"><ele>92.4</ele><time>2022-05-15T08:24:29.000Z</time></trkpt><trkpt lon="5.614083" lat="50.997214"><ele>92.4</ele><time>2022-05-15T08:24:30.000Z</time></trkpt><trkpt lon="5.613999" lat="50.99727"><ele>92.4</ele><time>2022-05-15T08:24:31.000Z</time></trkpt><trkpt lon="5.613927" lat="50.997324"><ele>92.4</ele><time>2022-05-15T08:24:32.000Z</time></trkpt><trkpt lon="5.613854" lat="50.99737"><ele>92.2</ele><time>2022-05-15T08:24:33.000Z</time></trkpt><trkpt lon="5.613782" lat="50.997423"><ele>92.2</ele><time>2022-05-15T08:24:34.000Z</time></trkpt><trkpt lon="5.61372" lat="50.997476"><ele>92</ele><time>2022-05-15T08:24:35.000Z</time></trkpt><trkpt lon="5.613652" lat="50.99753"><ele>92</ele><time>2022-05-15T08:24:36.000Z</time></trkpt><trkpt lon="5.613583" lat="50.997587"><ele>92</ele><time>2022-05-15T08:24:37.000Z</time></trkpt><trkpt lon="5.613513" lat="50.997652"><ele>92</ele><time>2022-05-15T08:24:38.000Z</time></trkpt><trkpt lon="5.613449" lat="50.997711"><ele>91.8</ele><time>2022-05-15T08:24:39.000Z</time></trkpt><trkpt lon="5.613385" lat="50.997773"><ele>91.8</ele><time>2022-05-15T08:24:40.000Z</time></trkpt><trkpt lon="5.613325" lat="50.997831"><ele>91.8</ele><time>2022-05-15T08:24:41.000Z</time></trkpt><trkpt lon="5.613265" lat="50.997894"><ele>91.6</ele><time>2022-05-15T08:24:42.000Z</time></trkpt><trkpt lon="5.613198" lat="50.997964"><ele>91.6</ele><time>2022-05-15T08:24:43.000Z</time></trkpt><trkpt lon="5.613133" lat="50.998025"><ele>91.6</ele><time>2022-05-15T08:24:44.000Z</time></trkpt><trkpt lon="5.613062" lat="50.998091"><ele>91.6</ele><time>2022-05-15T08:24:45.000Z</time></trkpt><trkpt lon="5.612991" lat="50.99816"><ele>91.4</ele><time>2022-05-15T08:24:46.000Z</time></trkpt><trkpt lon="5.612924" lat="50.998224"><ele>91.4</ele><time>2022-05-15T08:24:47.000Z</time></trkpt><trkpt lon="5.612853" lat="50.998292"><ele>91.4</ele><time>2022-05-15T08:24:48.000Z</time></trkpt><trkpt lon="5.612785" lat="50.998353"><ele>91.4</ele><time>2022-05-15T08:24:49.000Z</time></trkpt><trkpt lon="5.612717" lat="50.998415"><ele>91.4</ele><time>2022-05-15T08:24:50.000Z</time></trkpt><trkpt lon="5.612648" lat="50.998477"><ele>91.4</ele><time>2022-05-15T08:24:51.000Z</time></trkpt><trkpt lon="5.612583" lat="50.998536"><ele>91.4</ele><time>2022-05-15T08:24:52.000Z</time></trkpt><trkpt lon="5.612512" lat="50.998599"><ele>91.4</ele><time>2022-05-15T08:24:53.000Z</time></trkpt><trkpt lon="5.612454" lat="50.99865"><ele>91.4</ele><time>2022-05-15T08:24:54.000Z</time></trkpt><trkpt lon="5.612388" lat="50.99871"><ele>91.6</ele><time>2022-05-15T08:24:55.000Z</time></trkpt><trkpt lon="5.612334" lat="50.998758"><ele>91.6</ele><time>2022-05-15T08:24:56.000Z</time></trkpt><trkpt lon="5.612273" lat="50.998814"><ele>91.6</ele><time>2022-05-15T08:24:57.000Z</time></trkpt><trkpt lon="5.612215" lat="50.998873"><ele>91.4</ele><time>2022-05-15T08:24:58.000Z</time></trkpt><trkpt lon="5.612163" lat="50.998926"><ele>91.4</ele><time>2022-05-15T08:24:59.000Z</time></trkpt><trkpt lon="5.612106" lat="50.998979"><ele>91.2</ele><time>2022-05-15T08:25:00.000Z</time></trkpt><trkpt lon="5.612049" lat="50.999032"><ele>91.2</ele><time>2022-05-15T08:25:01.000Z</time></trkpt><trkpt lon="5.61199" lat="50.999083"><ele>91.2</ele><time>2022-05-15T08:25:02.000Z</time></trkpt><trkpt lon="5.611935" lat="50.999129"><ele>91.4</ele><time>2022-05-15T08:25:03.000Z</time></trkpt><trkpt lon="5.61188" lat="50.999182"><ele>91.2</ele><time>2022-05-15T08:25:04.000Z</time></trkpt><trkpt lon="5.611823" lat="50.999239"><ele>91.2</ele><time>2022-05-15T08:25:05.000Z</time></trkpt><trkpt lon="5.611766" lat="50.999303"><ele>91.2</ele><time>2022-05-15T08:25:06.000Z</time></trkpt><trkpt lon="5.611711" lat="50.99936"><ele>91.2</ele><time>2022-05-15T08:25:07.000Z</time></trkpt><trkpt lon="5.611654" lat="50.999418"><ele>91.2</ele><time>2022-05-15T08:25:08.000Z</time></trkpt><trkpt lon="5.611601" lat="50.999475"><ele>91.2</ele><time>2022-05-15T08:25:09.000Z</time></trkpt><trkpt lon="5.611546" lat="50.999536"><ele>91.4</ele><time>2022-05-15T08:25:10.000Z</time></trkpt><trkpt lon="5.611502" lat="50.999595"><ele>91.4</ele><time>2022-05-15T08:25:11.000Z</time></trkpt><trkpt lon="5.611443" lat="50.999666"><ele>91.4</ele><time>2022-05-15T08:25:12.000Z</time></trkpt><trkpt lon="5.611384" lat="50.999727"><ele>91.4</ele><time>2022-05-15T08:25:13.000Z</time></trkpt><trkpt lon="5.611335" lat="50.999777"><ele>91.4</ele><time>2022-05-15T08:25:14.000Z</time></trkpt><trkpt lon="5.611268" lat="50.999842"><ele>91.4</ele><time>2022-05-15T08:25:15.000Z</time></trkpt><trkpt lon="5.61121" lat="50.999903"><ele>91.4</ele><time>2022-05-15T08:25:16.000Z</time></trkpt><trkpt lon="5.61115" lat="50.999957"><ele>91.4</ele><time>2022-05-15T08:25:17.000Z</time></trkpt><trkpt lon="5.611101" lat="51.000005"><ele>91.6</ele><time>2022-05-15T08:25:18.000Z</time></trkpt><trkpt lon="5.611047" lat="51.000063"><ele>91.6</ele><time>2022-05-15T08:25:19.000Z</time></trkpt><trkpt lon="5.611" lat="51.00011"><ele>91.6</ele><time>2022-05-15T08:25:20.000Z</time></trkpt><trkpt lon="5.61093" lat="51.00017"><ele>91.6</ele><time>2022-05-15T08:25:21.000Z</time></trkpt><trkpt lon="5.610875" lat="51.000219"><ele>91.6</ele><time>2022-05-15T08:25:22.000Z</time></trkpt><trkpt lon="5.610822" lat="51.000269"><ele>91.6</ele><time>2022-05-15T08:25:23.000Z</time></trkpt><trkpt lon="5.610774" lat="51.000314"><ele>91.4</ele><time>2022-05-15T08:25:24.000Z</time></trkpt><trkpt lon="5.610726" lat="51.00038"><ele>91.4</ele><time>2022-05-15T08:25:25.000Z</time></trkpt><trkpt lon="5.61068" lat="51.000432"><ele>91.4</ele><time>2022-05-15T08:25:26.000Z</time></trkpt><trkpt lon="5.610615" lat="51.000498"><ele>91.6</ele><time>2022-05-15T08:25:27.000Z</time></trkpt><trkpt lon="5.610556" lat="51.000555"><ele>91.6</ele><time>2022-05-15T08:25:28.000Z</time></trkpt><trkpt lon="5.610501" lat="51.000608"><ele>91.6</ele><time>2022-05-15T08:25:29.000Z</time></trkpt><trkpt lon="5.610441" lat="51.000676"><ele>91.4</ele><time>2022-05-15T08:25:30.000Z</time></trkpt><trkpt lon="5.610384" lat="51.000738"><ele>91.4</ele><time>2022-05-15T08:25:31.000Z</time></trkpt><trkpt lon="5.610328" lat="51.000795"><ele>91.4</ele><time>2022-05-15T08:25:32.000Z</time></trkpt><trkpt lon="5.610271" lat="51.000851"><ele>91.4</ele><time>2022-05-15T08:25:33.000Z</time></trkpt><trkpt lon="5.610218" lat="51.000906"><ele>91.4</ele><time>2022-05-15T08:25:34.000Z</time></trkpt><trkpt lon="5.610162" lat="51.00097"><ele>91.4</ele><time>2022-05-15T08:25:35.000Z</time></trkpt><trkpt lon="5.610105" lat="51.001039"><ele>91.4</ele><time>2022-05-15T08:25:36.000Z</time></trkpt><trkpt lon="5.610044" lat="51.001106"><ele>91.4</ele><time>2022-05-15T08:25:37.000Z</time></trkpt><trkpt lon="5.609985" lat="51.001178"><ele>91.4</ele><time>2022-05-15T08:25:38.000Z</time></trkpt><trkpt lon="5.60992" lat="51.001246"><ele>91.4</ele><time>2022-05-15T08:25:39.000Z</time></trkpt><trkpt lon="5.609848" lat="51.001317"><ele>91.4</ele><time>2022-05-15T08:25:40.000Z</time></trkpt><trkpt lon="5.60979" lat="51.001386"><ele>91.6</ele><time>2022-05-15T08:25:41.000Z</time></trkpt><trkpt lon="5.609732" lat="51.00145"><ele>91.6</ele><time>2022-05-15T08:25:42.000Z</time></trkpt><trkpt lon="5.609673" lat="51.001516"><ele>91.6</ele><time>2022-05-15T08:25:43.000Z</time></trkpt><trkpt lon="5.609619" lat="51.00157"><ele>91.6</ele><time>2022-05-15T08:25:44.000Z</time></trkpt><trkpt lon="5.609553" lat="51.001634"><ele>91.6</ele><time>2022-05-15T08:25:45.000Z</time></trkpt><trkpt lon="5.609492" lat="51.001696"><ele>91.6</ele><time>2022-05-15T08:25:46.000Z</time></trkpt><trkpt lon="5.609433" lat="51.001757"><ele>91.6</ele><time>2022-05-15T08:25:47.000Z</time></trkpt><trkpt lon="5.609376" lat="51.00182"><ele>91.6</ele><time>2022-05-15T08:25:48.000Z</time></trkpt><trkpt lon="5.609317" lat="51.001886"><ele>91.6</ele><time>2022-05-15T08:25:49.000Z</time></trkpt><trkpt lon="5.609254" lat="51.001954"><ele>91.6</ele><time>2022-05-15T08:25:50.000Z</time></trkpt><trkpt lon="5.609194" lat="51.002016"><ele>91.6</ele><time>2022-05-15T08:25:51.000Z</time></trkpt><trkpt lon="5.609133" lat="51.002079"><ele>91.4</ele><time>2022-05-15T08:25:52.000Z</time></trkpt><trkpt lon="5.609072" lat="51.002136"><ele>91.2</ele><time>2022-05-15T08:25:53.000Z</time></trkpt><trkpt lon="5.60901" lat="51.002192"><ele>91</ele><time>2022-05-15T08:25:54.000Z</time></trkpt><trkpt lon="5.608957" lat="51.002248"><ele>90.8</ele><time>2022-05-15T08:25:55.000Z</time></trkpt><trkpt lon="5.608901" lat="51.002306"><ele>90.8</ele><time>2022-05-15T08:25:56.000Z</time></trkpt><trkpt lon="5.608852" lat="51.002367"><ele>90.8</ele><time>2022-05-15T08:25:57.000Z</time></trkpt><trkpt lon="5.608799" lat="51.002423"><ele>91</ele><time>2022-05-15T08:25:58.000Z</time></trkpt><trkpt lon="5.608746" lat="51.002477"><ele>91</ele><time>2022-05-15T08:25:59.000Z</time></trkpt><trkpt lon="5.608694" lat="51.002534"><ele>91</ele><time>2022-05-15T08:26:00.000Z</time></trkpt><trkpt lon="5.60865" lat="51.002589"><ele>91</ele><time>2022-05-15T08:26:01.000Z</time></trkpt><trkpt lon="5.60861" lat="51.002641"><ele>91</ele><time>2022-05-15T08:26:02.000Z</time></trkpt><trkpt lon="5.608569" lat="51.002692"><ele>91</ele><time>2022-05-15T08:26:03.000Z</time></trkpt><trkpt lon="5.608522" lat="51.002739"><ele>91</ele><time>2022-05-15T08:26:04.000Z</time></trkpt><trkpt lon="5.608473" lat="51.00279"><ele>91</ele><time>2022-05-15T08:26:05.000Z</time></trkpt><trkpt lon="5.608407" lat="51.002863"><ele>91</ele><time>2022-05-15T08:26:06.000Z</time></trkpt><trkpt lon="5.608347" lat="51.002924"><ele>91.2</ele><time>2022-05-15T08:26:07.000Z</time></trkpt><trkpt lon="5.608291" lat="51.002984"><ele>91.2</ele><time>2022-05-15T08:26:08.000Z</time></trkpt><trkpt lon="5.608239" lat="51.003041"><ele>91.2</ele><time>2022-05-15T08:26:09.000Z</time></trkpt><trkpt lon="5.60819" lat="51.003092"><ele>91.2</ele><time>2022-05-15T08:26:10.000Z</time></trkpt><trkpt lon="5.608148" lat="51.003141"><ele>91.2</ele><time>2022-05-15T08:26:11.000Z</time></trkpt><trkpt lon="5.608104" lat="51.00319"><ele>91.2</ele><time>2022-05-15T08:26:12.000Z</time></trkpt><trkpt lon="5.608055" lat="51.003242"><ele>91.2</ele><time>2022-05-15T08:26:13.000Z</time></trkpt><trkpt lon="5.608014" lat="51.003285"><ele>91.2</ele><time>2022-05-15T08:26:14.000Z</time></trkpt><trkpt lon="5.607969" lat="51.003329"><ele>91.2</ele><time>2022-05-15T08:26:15.000Z</time></trkpt><trkpt lon="5.60794" lat="51.003361"><ele>91.2</ele><time>2022-05-15T08:26:16.000Z</time></trkpt><trkpt lon="5.607913" lat="51.003396"><ele>91.2</ele><time>2022-05-15T08:26:17.000Z</time></trkpt><trkpt lon="5.607886" lat="51.003432"><ele>91.2</ele><time>2022-05-15T08:26:18.000Z</time></trkpt><trkpt lon="5.607858" lat="51.003451"><ele>91.4</ele><time>2022-05-15T08:26:19.000Z</time></trkpt><trkpt lon="5.607813" lat="51.003478"><ele>91.4</ele><time>2022-05-15T08:26:20.000Z</time></trkpt><trkpt lon="5.607762" lat="51.00349"><ele>91.4</ele><time>2022-05-15T08:26:21.000Z</time></trkpt><trkpt lon="5.607707" lat="51.003498"><ele>91.2</ele><time>2022-05-15T08:26:22.000Z</time></trkpt><trkpt lon="5.607658" lat="51.003498"><ele>91.2</ele><time>2022-05-15T08:26:23.000Z</time></trkpt><trkpt lon="5.60761" lat="51.003513"><ele>91.4</ele><time>2022-05-15T08:26:24.000Z</time></trkpt><trkpt lon="5.607575" lat="51.003535"><ele>91.4</ele><time>2022-05-15T08:26:25.000Z</time></trkpt><trkpt lon="5.607533" lat="51.003566"><ele>91.4</ele><time>2022-05-15T08:26:26.000Z</time></trkpt><trkpt lon="5.607487" lat="51.003585"><ele>91.2</ele><time>2022-05-15T08:26:27.000Z</time></trkpt><trkpt lon="5.607434" lat="51.00359"><ele>91.2</ele><time>2022-05-15T08:26:28.000Z</time></trkpt><trkpt lon="5.607377" lat="51.003582"><ele>91.2</ele><time>2022-05-15T08:26:29.000Z</time></trkpt><trkpt lon="5.607308" lat="51.003567"><ele>91.2</ele><time>2022-05-15T08:26:30.000Z</time></trkpt><trkpt lon="5.607232" lat="51.003545"><ele>91.2</ele><time>2022-05-15T08:26:31.000Z</time></trkpt><trkpt lon="5.607153" lat="51.003516"><ele>91.2</ele><time>2022-05-15T08:26:32.000Z</time></trkpt><trkpt lon="5.607062" lat="51.003487"><ele>91.2</ele><time>2022-05-15T08:26:33.000Z</time></trkpt><trkpt lon="5.606976" lat="51.003457"><ele>91.2</ele><time>2022-05-15T08:26:34.000Z</time></trkpt><trkpt lon="5.60689" lat="51.003431"><ele>91.4</ele><time>2022-05-15T08:26:35.000Z</time></trkpt><trkpt lon="5.606791" lat="51.003411"><ele>91.4</ele><time>2022-05-15T08:26:36.000Z</time></trkpt><trkpt lon="5.606698" lat="51.003396"><ele>91.4</ele><time>2022-05-15T08:26:37.000Z</time></trkpt><trkpt lon="5.606597" lat="51.003384"><ele>91.6</ele><time>2022-05-15T08:26:38.000Z</time></trkpt><trkpt lon="5.606495" lat="51.00338"><ele>91.8</ele><time>2022-05-15T08:26:39.000Z</time></trkpt><trkpt lon="5.606402" lat="51.003376"><ele>91.8</ele><time>2022-05-15T08:26:40.000Z</time></trkpt><trkpt lon="5.606293" lat="51.003376"><ele>92</ele><time>2022-05-15T08:26:41.000Z</time></trkpt><trkpt lon="5.606195" lat="51.003383"><ele>92</ele><time>2022-05-15T08:26:42.000Z</time></trkpt><trkpt lon="5.606073" lat="51.003395"><ele>92.2</ele><time>2022-05-15T08:26:43.000Z</time></trkpt><trkpt lon="5.605962" lat="51.003406"><ele>92.2</ele><time>2022-05-15T08:26:44.000Z</time></trkpt><trkpt lon="5.605865" lat="51.003423"><ele>92.2</ele><time>2022-05-15T08:26:45.000Z</time></trkpt><trkpt lon="5.60575" lat="51.003448"><ele>92</ele><time>2022-05-15T08:26:46.000Z</time></trkpt><trkpt lon="5.605632" lat="51.003474"><ele>92</ele><time>2022-05-15T08:26:47.000Z</time></trkpt><trkpt lon="5.605521" lat="51.003497"><ele>92</ele><time>2022-05-15T08:26:48.000Z</time></trkpt><trkpt lon="5.605419" lat="51.003523"><ele>92.2</ele><time>2022-05-15T08:26:49.000Z</time></trkpt><trkpt lon="5.605312" lat="51.003549"><ele>92.2</ele><time>2022-05-15T08:26:50.000Z</time></trkpt><trkpt lon="5.605199" lat="51.003581"><ele>92</ele><time>2022-05-15T08:26:51.000Z</time></trkpt><trkpt lon="5.605093" lat="51.003607"><ele>92</ele><time>2022-05-15T08:26:52.000Z</time></trkpt><trkpt lon="5.604981" lat="51.003631"><ele>91.8</ele><time>2022-05-15T08:26:53.000Z</time></trkpt><trkpt lon="5.604872" lat="51.003657"><ele>91.6</ele><time>2022-05-15T08:26:54.000Z</time></trkpt><trkpt lon="5.604766" lat="51.003681"><ele>91.6</ele><time>2022-05-15T08:26:55.000Z</time></trkpt><trkpt lon="5.604663" lat="51.003706"><ele>91.4</ele><time>2022-05-15T08:26:56.000Z</time></trkpt><trkpt lon="5.604553" lat="51.003734"><ele>91.4</ele><time>2022-05-15T08:26:57.000Z</time></trkpt><trkpt lon="5.604453" lat="51.003756"><ele>91.4</ele><time>2022-05-15T08:26:58.000Z</time></trkpt><trkpt lon="5.604364" lat="51.00378"><ele>91.2</ele><time>2022-05-15T08:26:59.000Z</time></trkpt><trkpt lon="5.604251" lat="51.003818"><ele>91.2</ele><time>2022-05-15T08:27:00.000Z</time></trkpt><trkpt lon="5.604154" lat="51.003844"><ele>91.4</ele><time>2022-05-15T08:27:01.000Z</time></trkpt><trkpt lon="5.604054" lat="51.003874"><ele>91.6</ele><time>2022-05-15T08:27:02.000Z</time></trkpt><trkpt lon="5.603955" lat="51.003898"><ele>91.6</ele><time>2022-05-15T08:27:03.000Z</time></trkpt><trkpt lon="5.603863" lat="51.003917"><ele>92</ele><time>2022-05-15T08:27:04.000Z</time></trkpt><trkpt lon="5.603765" lat="51.00394"><ele>92.2</ele><time>2022-05-15T08:27:05.000Z</time></trkpt><trkpt lon="5.603668" lat="51.003963"><ele>92.4</ele><time>2022-05-15T08:27:06.000Z</time></trkpt><trkpt lon="5.603578" lat="51.003985"><ele>92.6</ele><time>2022-05-15T08:27:07.000Z</time></trkpt><trkpt lon="5.603494" lat="51.004002"><ele>92.8</ele><time>2022-05-15T08:27:08.000Z</time></trkpt><trkpt lon="5.603391" lat="51.004028"><ele>93.2</ele><time>2022-05-15T08:27:09.000Z</time></trkpt><trkpt lon="5.603317" lat="51.004047"><ele>93.2</ele><time>2022-05-15T08:27:10.000Z</time></trkpt><trkpt lon="5.603223" lat="51.004077"><ele>93.4</ele><time>2022-05-15T08:27:11.000Z</time></trkpt><trkpt lon="5.603142" lat="51.004115"><ele>93.6</ele><time>2022-05-15T08:27:12.000Z</time></trkpt><trkpt lon="5.603068" lat="51.004156"><ele>93.6</ele><time>2022-05-15T08:27:13.000Z</time></trkpt><trkpt lon="5.603006" lat="51.004204"><ele>94</ele><time>2022-05-15T08:27:14.000Z</time></trkpt><trkpt lon="5.602949" lat="51.004264"><ele>94</ele><time>2022-05-15T08:27:15.000Z</time></trkpt><trkpt lon="5.602906" lat="51.004324"><ele>93.8</ele><time>2022-05-15T08:27:16.000Z</time></trkpt><trkpt lon="5.602874" lat="51.004385"><ele>93.6</ele><time>2022-05-15T08:27:17.000Z</time></trkpt><trkpt lon="5.602856" lat="51.004449"><ele>93.2</ele><time>2022-05-15T08:27:18.000Z</time></trkpt><trkpt lon="5.602849" lat="51.00451"><ele>92.8</ele><time>2022-05-15T08:27:19.000Z</time></trkpt><trkpt lon="5.602856" lat="51.004568"><ele>92.6</ele><time>2022-05-15T08:27:20.000Z</time></trkpt><trkpt lon="5.602875" lat="51.00463"><ele>92.4</ele><time>2022-05-15T08:27:21.000Z</time></trkpt><trkpt lon="5.602902" lat="51.004686"><ele>92.6</ele><time>2022-05-15T08:27:22.000Z</time></trkpt><trkpt lon="5.60294" lat="51.004746"><ele>92.6</ele><time>2022-05-15T08:27:23.000Z</time></trkpt><trkpt lon="5.602994" lat="51.004803"><ele>92.8</ele><time>2022-05-15T08:27:24.000Z</time></trkpt><trkpt lon="5.603067" lat="51.004853"><ele>92.8</ele><time>2022-05-15T08:27:25.000Z</time></trkpt><trkpt lon="5.603156" lat="51.004901"><ele>92.6</ele><time>2022-05-15T08:27:26.000Z</time></trkpt><trkpt lon="5.603253" lat="51.004934"><ele>92.6</ele><time>2022-05-15T08:27:27.000Z</time></trkpt><trkpt lon="5.60336" lat="51.004958"><ele>92.4</ele><time>2022-05-15T08:27:28.000Z</time></trkpt><trkpt lon="5.603472" lat="51.004977"><ele>92.2</ele><time>2022-05-15T08:27:29.000Z</time></trkpt><trkpt lon="5.603581" lat="51.004989"><ele>92.2</ele><time>2022-05-15T08:27:30.000Z</time></trkpt><trkpt lon="5.603687" lat="51.005001"><ele>92</ele><time>2022-05-15T08:27:31.000Z</time></trkpt><trkpt lon="5.603784" lat="51.005012"><ele>91.8</ele><time>2022-05-15T08:27:32.000Z</time></trkpt><trkpt lon="5.603873" lat="51.005024"><ele>91.6</ele><time>2022-05-15T08:27:33.000Z</time></trkpt><trkpt lon="5.603959" lat="51.005042"><ele>91.4</ele><time>2022-05-15T08:27:34.000Z</time></trkpt><trkpt lon="5.604029" lat="51.005072"><ele>91.2</ele><time>2022-05-15T08:27:35.000Z</time></trkpt><trkpt lon="5.60408" lat="51.005118"><ele>91</ele><time>2022-05-15T08:27:36.000Z</time></trkpt><trkpt lon="5.604108" lat="51.005173"><ele>90.6</ele><time>2022-05-15T08:27:37.000Z</time></trkpt><trkpt lon="5.604109" lat="51.00522"><ele>90</ele><time>2022-05-15T08:27:38.000Z</time></trkpt><trkpt lon="5.604056" lat="51.005285"><ele>89.6</ele><time>2022-05-15T08:27:39.000Z</time></trkpt><trkpt lon="5.60398" lat="51.005333"><ele>89</ele><time>2022-05-15T08:27:40.000Z</time></trkpt><trkpt lon="5.603902" lat="51.005385"><ele>88.6</ele><time>2022-05-15T08:27:41.000Z</time></trkpt><trkpt lon="5.603843" lat="51.00543"><ele>88.4</ele><time>2022-05-15T08:27:42.000Z</time></trkpt><trkpt lon="5.603803" lat="51.005488"><ele>88</ele><time>2022-05-15T08:27:43.000Z</time></trkpt><trkpt lon="5.603802" lat="51.005535"><ele>87.8</ele><time>2022-05-15T08:27:44.000Z</time></trkpt><trkpt lon="5.603822" lat="51.005598"><ele>87.6</ele><time>2022-05-15T08:27:45.000Z</time></trkpt><trkpt lon="5.603849" lat="51.005666"><ele>87.6</ele><time>2022-05-15T08:27:46.000Z</time></trkpt><trkpt lon="5.603882" lat="51.005719"><ele>87.8</ele><time>2022-05-15T08:27:47.000Z</time></trkpt><trkpt lon="5.603903" lat="51.005767"><ele>88</ele><time>2022-05-15T08:27:48.000Z</time></trkpt><trkpt lon="5.603907" lat="51.005815"><ele>88.2</ele><time>2022-05-15T08:27:49.000Z</time></trkpt><trkpt lon="5.603883" lat="51.00585"><ele>88.4</ele><time>2022-05-15T08:27:50.000Z</time></trkpt><trkpt lon="5.603841" lat="51.005863"><ele>88.4</ele><time>2022-05-15T08:27:51.000Z</time></trkpt><trkpt lon="5.603792" lat="51.005863"><ele>88.6</ele><time>2022-05-15T08:27:52.000Z</time></trkpt><trkpt lon="5.60374" lat="51.005856"><ele>88.6</ele><time>2022-05-15T08:27:53.000Z</time></trkpt><trkpt lon="5.603692" lat="51.005852"><ele>88.8</ele><time>2022-05-15T08:27:54.000Z</time></trkpt><trkpt lon="5.603645" lat="51.005852"><ele>88.8</ele><time>2022-05-15T08:27:55.000Z</time></trkpt><trkpt lon="5.6036" lat="51.005848"><ele>88.8</ele><time>2022-05-15T08:27:56.000Z</time></trkpt><trkpt lon="5.603568" lat="51.005852"><ele>88.8</ele><time>2022-05-15T08:27:57.000Z</time></trkpt><trkpt lon="5.603547" lat="51.005866"><ele>88.8</ele><time>2022-05-15T08:27:58.000Z</time></trkpt><trkpt lon="5.603542" lat="51.005889"><ele>88.8</ele><time>2022-05-15T08:27:59.000Z</time></trkpt><trkpt lon="5.603556" lat="51.005904"><ele>88.8</ele><time>2022-05-15T08:28:00.000Z</time></trkpt><trkpt lon="5.603585" lat="51.005916"><ele>88.8</ele><time>2022-05-15T08:28:01.000Z</time></trkpt><trkpt lon="5.603617" lat="51.005924"><ele>88.8</ele><time>2022-05-15T08:28:02.000Z</time></trkpt><trkpt lon="5.603647" lat="51.005932"><ele>88.8</ele><time>2022-05-15T08:28:03.000Z</time></trkpt><trkpt lon="5.603664" lat="51.00595"><ele>88.8</ele><time>2022-05-15T08:28:04.000Z</time></trkpt><trkpt lon="5.603675" lat="51.005969"><ele>88.8</ele><time>2022-05-15T08:28:05.000Z</time></trkpt><trkpt lon="5.603699" lat="51.005984"><ele>88.8</ele><time>2022-05-15T08:28:06.000Z</time></trkpt><trkpt lon="5.60374" lat="51.005993"><ele>88.8</ele><time>2022-05-15T08:28:07.000Z</time></trkpt><trkpt lon="5.603791" lat="51.005997"><ele>88.8</ele><time>2022-05-15T08:28:08.000Z</time></trkpt><trkpt lon="5.603846" lat="51.006007"><ele>88.8</ele><time>2022-05-15T08:28:09.000Z</time></trkpt><trkpt lon="5.603909" lat="51.006026"><ele>88.6</ele><time>2022-05-15T08:28:10.000Z</time></trkpt><trkpt lon="5.603974" lat="51.006051"><ele>88.4</ele><time>2022-05-15T08:28:11.000Z</time></trkpt><trkpt lon="5.604056" lat="51.006087"><ele>88.2</ele><time>2022-05-15T08:28:12.000Z</time></trkpt><trkpt lon="5.604132" lat="51.006117"><ele>88.2</ele><time>2022-05-15T08:28:13.000Z</time></trkpt><trkpt lon="5.604211" lat="51.006152"><ele>88.2</ele><time>2022-05-15T08:28:14.000Z</time></trkpt><trkpt lon="5.604286" lat="51.006189"><ele>88.2</ele><time>2022-05-15T08:28:15.000Z</time></trkpt><trkpt lon="5.604363" lat="51.006228"><ele>88.2</ele><time>2022-05-15T08:28:16.000Z</time></trkpt><trkpt lon="5.604441" lat="51.006263"><ele>88.4</ele><time>2022-05-15T08:28:17.000Z</time></trkpt><trkpt lon="5.604521" lat="51.006296"><ele>88.4</ele><time>2022-05-15T08:28:18.000Z</time></trkpt><trkpt lon="5.604599" lat="51.006327"><ele>88.6</ele><time>2022-05-15T08:28:19.000Z</time></trkpt><trkpt lon="5.604677" lat="51.006357"><ele>88.8</ele><time>2022-05-15T08:28:20.000Z</time></trkpt><trkpt lon="5.604756" lat="51.006385"><ele>88.6</ele><time>2022-05-15T08:28:21.000Z</time></trkpt><trkpt lon="5.604831" lat="51.006415"><ele>88.6</ele><time>2022-05-15T08:28:22.000Z</time></trkpt><trkpt lon="5.604904" lat="51.006446"><ele>88.8</ele><time>2022-05-15T08:28:23.000Z</time></trkpt><trkpt lon="5.60498" lat="51.006476"><ele>88.8</ele><time>2022-05-15T08:28:24.000Z</time></trkpt><trkpt lon="5.605055" lat="51.0065"><ele>88.8</ele><time>2022-05-15T08:28:25.000Z</time></trkpt><trkpt lon="5.605147" lat="51.006537"><ele>88.8</ele><time>2022-05-15T08:28:26.000Z</time></trkpt><trkpt lon="5.605229" lat="51.006568"><ele>88.6</ele><time>2022-05-15T08:28:27.000Z</time></trkpt><trkpt lon="5.605312" lat="51.006602"><ele>88.4</ele><time>2022-05-15T08:28:28.000Z</time></trkpt><trkpt lon="5.60539" lat="51.006632"><ele>88.4</ele><time>2022-05-15T08:28:29.000Z</time></trkpt><trkpt lon="5.605461" lat="51.006666"><ele>88.4</ele><time>2022-05-15T08:28:30.000Z</time></trkpt><trkpt lon="5.605528" lat="51.0067"><ele>88.6</ele><time>2022-05-15T08:28:31.000Z</time></trkpt><trkpt lon="5.605584" lat="51.006731"><ele>88.8</ele><time>2022-05-15T08:28:32.000Z</time></trkpt><trkpt lon="5.605655" lat="51.006772"><ele>89</ele><time>2022-05-15T08:28:33.000Z</time></trkpt><trkpt lon="5.605712" lat="51.006811"><ele>89.2</ele><time>2022-05-15T08:28:34.000Z</time></trkpt><trkpt lon="5.605775" lat="51.006846"><ele>89.4</ele><time>2022-05-15T08:28:35.000Z</time></trkpt><trkpt lon="5.605832" lat="51.006877"><ele>89.6</ele><time>2022-05-15T08:28:36.000Z</time></trkpt><trkpt lon="5.60589" lat="51.006907"><ele>89.8</ele><time>2022-05-15T08:28:37.000Z</time></trkpt><trkpt lon="5.605946" lat="51.006938"><ele>90</ele><time>2022-05-15T08:28:38.000Z</time></trkpt><trkpt lon="5.606002" lat="51.006965"><ele>90</ele><time>2022-05-15T08:28:39.000Z</time></trkpt><trkpt lon="5.606058" lat="51.006995"><ele>90.2</ele><time>2022-05-15T08:28:40.000Z</time></trkpt><trkpt lon="5.606114" lat="51.00702"><ele>90.2</ele><time>2022-05-15T08:28:41.000Z</time></trkpt><trkpt lon="5.606177" lat="51.007048"><ele>90.2</ele><time>2022-05-15T08:28:42.000Z</time></trkpt><trkpt lon="5.606231" lat="51.007075"><ele>90.4</ele><time>2022-05-15T08:28:43.000Z</time></trkpt><trkpt lon="5.606288" lat="51.007095"><ele>90.4</ele><time>2022-05-15T08:28:44.000Z</time></trkpt><trkpt lon="5.606343" lat="51.007117"><ele>90.4</ele><time>2022-05-15T08:28:45.000Z</time></trkpt><trkpt lon="5.606416" lat="51.00714"><ele>90.4</ele><time>2022-05-15T08:28:46.000Z</time></trkpt><trkpt lon="5.606487" lat="51.007163"><ele>90.4</ele><time>2022-05-15T08:28:47.000Z</time></trkpt><trkpt lon="5.606555" lat="51.007186"><ele>90.4</ele><time>2022-05-15T08:28:48.000Z</time></trkpt><trkpt lon="5.606626" lat="51.007216"><ele>90.6</ele><time>2022-05-15T08:28:49.000Z</time></trkpt><trkpt lon="5.606709" lat="51.00725"><ele>90.6</ele><time>2022-05-15T08:28:50.000Z</time></trkpt><trkpt lon="5.606794" lat="51.007289"><ele>90.6</ele><time>2022-05-15T08:28:51.000Z</time></trkpt><trkpt lon="5.606874" lat="51.007327"><ele>90.6</ele><time>2022-05-15T08:28:52.000Z</time></trkpt><trkpt lon="5.606945" lat="51.007357"><ele>90.6</ele><time>2022-05-15T08:28:53.000Z</time></trkpt><trkpt lon="5.607008" lat="51.007384"><ele>90.6</ele><time>2022-05-15T08:28:54.000Z</time></trkpt><trkpt lon="5.607072" lat="51.007415"><ele>90.6</ele><time>2022-05-15T08:28:55.000Z</time></trkpt><trkpt lon="5.607125" lat="51.007445"><ele>90.8</ele><time>2022-05-15T08:28:56.000Z</time></trkpt><trkpt lon="5.607186" lat="51.007473"><ele>90.8</ele><time>2022-05-15T08:28:57.000Z</time></trkpt><trkpt lon="5.607255" lat="51.007508"><ele>90.8</ele><time>2022-05-15T08:28:58.000Z</time></trkpt><trkpt lon="5.607328" lat="51.00755"><ele>91</ele><time>2022-05-15T08:28:59.000Z</time></trkpt><trkpt lon="5.607405" lat="51.007594"><ele>91</ele><time>2022-05-15T08:29:00.000Z</time></trkpt><trkpt lon="5.607468" lat="51.007621"><ele>91</ele><time>2022-05-15T08:29:01.000Z</time></trkpt><trkpt lon="5.607527" lat="51.007651"><ele>91.2</ele><time>2022-05-15T08:29:02.000Z</time></trkpt><trkpt lon="5.607592" lat="51.007689"><ele>91.2</ele><time>2022-05-15T08:29:03.000Z</time></trkpt><trkpt lon="5.60766" lat="51.007723"><ele>91.2</ele><time>2022-05-15T08:29:04.000Z</time></trkpt><trkpt lon="5.607724" lat="51.007765"><ele>91.4</ele><time>2022-05-15T08:29:05.000Z</time></trkpt><trkpt lon="5.607785" lat="51.007796"><ele>91.4</ele><time>2022-05-15T08:29:06.000Z</time></trkpt><trkpt lon="5.607852" lat="51.00783"><ele>91.2</ele><time>2022-05-15T08:29:07.000Z</time></trkpt><trkpt lon="5.607922" lat="51.007875"><ele>91.2</ele><time>2022-05-15T08:29:08.000Z</time></trkpt><trkpt lon="5.607999" lat="51.007918"><ele>91.2</ele><time>2022-05-15T08:29:09.000Z</time></trkpt><trkpt lon="5.608073" lat="51.007961"><ele>91.2</ele><time>2022-05-15T08:29:10.000Z</time></trkpt><trkpt lon="5.608148" lat="51.008001"><ele>91.2</ele><time>2022-05-15T08:29:11.000Z</time></trkpt><trkpt lon="5.608218" lat="51.008036"><ele>91.4</ele><time>2022-05-15T08:29:12.000Z</time></trkpt><trkpt lon="5.608287" lat="51.00807"><ele>91.4</ele><time>2022-05-15T08:29:13.000Z</time></trkpt><trkpt lon="5.60837" lat="51.008109"><ele>91.4</ele><time>2022-05-15T08:29:14.000Z</time></trkpt><trkpt lon="5.608442" lat="51.008137"><ele>91.2</ele><time>2022-05-15T08:29:15.000Z</time></trkpt><trkpt lon="5.608536" lat="51.008184"><ele>91.2</ele><time>2022-05-15T08:29:16.000Z</time></trkpt><trkpt lon="5.608613" lat="51.008222"><ele>91.2</ele><time>2022-05-15T08:29:17.000Z</time></trkpt><trkpt lon="5.608687" lat="51.008261"><ele>91.4</ele><time>2022-05-15T08:29:18.000Z</time></trkpt><trkpt lon="5.608757" lat="51.00831"><ele>91.4</ele><time>2022-05-15T08:29:19.000Z</time></trkpt><trkpt lon="5.608827" lat="51.00836"><ele>91.4</ele><time>2022-05-15T08:29:20.000Z</time></trkpt><trkpt lon="5.608896" lat="51.008399"><ele>91.6</ele><time>2022-05-15T08:29:21.000Z</time></trkpt><trkpt lon="5.608956" lat="51.008432"><ele>91.6</ele><time>2022-05-15T08:29:22.000Z</time></trkpt><trkpt lon="5.609023" lat="51.008476"><ele>91.6</ele><time>2022-05-15T08:29:23.000Z</time></trkpt><trkpt lon="5.609111" lat="51.008521"><ele>91.6</ele><time>2022-05-15T08:29:24.000Z</time></trkpt><trkpt lon="5.609195" lat="51.008559"><ele>91.6</ele><time>2022-05-15T08:29:25.000Z</time></trkpt><trkpt lon="5.609267" lat="51.008597"><ele>91.6</ele><time>2022-05-15T08:29:26.000Z</time></trkpt><trkpt lon="5.609339" lat="51.008635"><ele>91.4</ele><time>2022-05-15T08:29:27.000Z</time></trkpt><trkpt lon="5.609407" lat="51.008673"><ele>91.4</ele><time>2022-05-15T08:29:28.000Z</time></trkpt><trkpt lon="5.60948" lat="51.008715"><ele>91.4</ele><time>2022-05-15T08:29:29.000Z</time></trkpt><trkpt lon="5.609557" lat="51.008761"><ele>91.4</ele><time>2022-05-15T08:29:30.000Z</time></trkpt><trkpt lon="5.609626" lat="51.008798"><ele>91.6</ele><time>2022-05-15T08:29:31.000Z</time></trkpt><trkpt lon="5.609704" lat="51.008848"><ele>91.6</ele><time>2022-05-15T08:29:32.000Z</time></trkpt><trkpt lon="5.60978" lat="51.008898"><ele>91.6</ele><time>2022-05-15T08:29:33.000Z</time></trkpt><trkpt lon="5.60986" lat="51.008946"><ele>91.6</ele><time>2022-05-15T08:29:34.000Z</time></trkpt><trkpt lon="5.609937" lat="51.00898"><ele>91.8</ele><time>2022-05-15T08:29:35.000Z</time></trkpt><trkpt lon="5.610044" lat="51.009031"><ele>91.8</ele><time>2022-05-15T08:29:36.000Z</time></trkpt><trkpt lon="5.610125" lat="51.009088"><ele>91.8</ele><time>2022-05-15T08:29:37.000Z</time></trkpt><trkpt lon="5.610224" lat="51.009131"><ele>91.8</ele><time>2022-05-15T08:29:38.000Z</time></trkpt><trkpt lon="5.610308" lat="51.00918"><ele>91.8</ele><time>2022-05-15T08:29:39.000Z</time></trkpt><trkpt lon="5.610399" lat="51.009229"><ele>91.8</ele><time>2022-05-15T08:29:40.000Z</time></trkpt><trkpt lon="5.61049" lat="51.009276"><ele>91.8</ele><time>2022-05-15T08:29:41.000Z</time></trkpt><trkpt lon="5.610583" lat="51.009318"><ele>91.8</ele><time>2022-05-15T08:29:42.000Z</time></trkpt><trkpt lon="5.610665" lat="51.00936"><ele>91.8</ele><time>2022-05-15T08:29:43.000Z</time></trkpt><trkpt lon="5.610738" lat="51.009394"><ele>91.8</ele><time>2022-05-15T08:29:44.000Z</time></trkpt><trkpt lon="5.61081" lat="51.009438"><ele>91.8</ele><time>2022-05-15T08:29:45.000Z</time></trkpt><trkpt lon="5.610894" lat="51.009489"><ele>92</ele><time>2022-05-15T08:29:46.000Z</time></trkpt><trkpt lon="5.610988" lat="51.009531"><ele>92</ele><time>2022-05-15T08:29:47.000Z</time></trkpt><trkpt lon="5.611076" lat="51.009574"><ele>92</ele><time>2022-05-15T08:29:48.000Z</time></trkpt><trkpt lon="5.611147" lat="51.009604"><ele>92</ele><time>2022-05-15T08:29:49.000Z</time></trkpt><trkpt lon="5.611243" lat="51.009657"><ele>92.2</ele><time>2022-05-15T08:29:50.000Z</time></trkpt><trkpt lon="5.611318" lat="51.009701"><ele>92.2</ele><time>2022-05-15T08:29:51.000Z</time></trkpt><trkpt lon="5.611397" lat="51.009741"><ele>92</ele><time>2022-05-15T08:29:52.000Z</time></trkpt><trkpt lon="5.611467" lat="51.009787"><ele>92.2</ele><time>2022-05-15T08:29:53.000Z</time></trkpt><trkpt lon="5.611539" lat="51.009821"><ele>92.2</ele><time>2022-05-15T08:29:54.000Z</time></trkpt><trkpt lon="5.61162" lat="51.009859"><ele>92.2</ele><time>2022-05-15T08:29:55.000Z</time></trkpt><trkpt lon="5.611703" lat="51.009898"><ele>92.2</ele><time>2022-05-15T08:29:56.000Z</time></trkpt><trkpt lon="5.611788" lat="51.009939"><ele>92.2</ele><time>2022-05-15T08:29:57.000Z</time></trkpt><trkpt lon="5.611869" lat="51.009989"><ele>92.2</ele><time>2022-05-15T08:29:58.000Z</time></trkpt><trkpt lon="5.611946" lat="51.010034"><ele>92</ele><time>2022-05-15T08:29:59.000Z</time></trkpt><trkpt lon="5.612042" lat="51.010087"><ele>92</ele><time>2022-05-15T08:30:00.000Z</time></trkpt><trkpt lon="5.612127" lat="51.01013"><ele>92</ele><time>2022-05-15T08:30:01.000Z</time></trkpt><trkpt lon="5.61221" lat="51.010168"><ele>92</ele><time>2022-05-15T08:30:02.000Z</time></trkpt><trkpt lon="5.612304" lat="51.010211"><ele>92</ele><time>2022-05-15T08:30:03.000Z</time></trkpt><trkpt lon="5.612407" lat="51.010263"><ele>92</ele><time>2022-05-15T08:30:04.000Z</time></trkpt><trkpt lon="5.612505" lat="51.010306"><ele>92.2</ele><time>2022-05-15T08:30:05.000Z</time></trkpt><trkpt lon="5.612604" lat="51.010352"><ele>92.2</ele><time>2022-05-15T08:30:06.000Z</time></trkpt><trkpt lon="5.612705" lat="51.010404"><ele>92.2</ele><time>2022-05-15T08:30:07.000Z</time></trkpt><trkpt lon="5.612798" lat="51.01045"><ele>92.4</ele><time>2022-05-15T08:30:08.000Z</time></trkpt><trkpt lon="5.612889" lat="51.010497"><ele>92.4</ele><time>2022-05-15T08:30:09.000Z</time></trkpt><trkpt lon="5.61297" lat="51.010536"><ele>92.4</ele><time>2022-05-15T08:30:10.000Z</time></trkpt><trkpt lon="5.613073" lat="51.010575"><ele>92.4</ele><time>2022-05-15T08:30:11.000Z</time></trkpt><trkpt lon="5.613161" lat="51.010621"><ele>92.6</ele><time>2022-05-15T08:30:12.000Z</time></trkpt><trkpt lon="5.613244" lat="51.010657"><ele>92.6</ele><time>2022-05-15T08:30:13.000Z</time></trkpt><trkpt lon="5.613323" lat="51.010699"><ele>92.6</ele><time>2022-05-15T08:30:14.000Z</time></trkpt><trkpt lon="5.613402" lat="51.01074"><ele>92.6</ele><time>2022-05-15T08:30:15.000Z</time></trkpt><trkpt lon="5.613481" lat="51.010779"><ele>92.6</ele><time>2022-05-15T08:30:16.000Z</time></trkpt><trkpt lon="5.613576" lat="51.010836"><ele>92.6</ele><time>2022-05-15T08:30:17.000Z</time></trkpt><trkpt lon="5.613648" lat="51.010874"><ele>92.6</ele><time>2022-05-15T08:30:18.000Z</time></trkpt><trkpt lon="5.613745" lat="51.010927"><ele>92.6</ele><time>2022-05-15T08:30:19.000Z</time></trkpt><trkpt lon="5.613832" lat="51.010966"><ele>92.6</ele><time>2022-05-15T08:30:20.000Z</time></trkpt><trkpt lon="5.613906" lat="51.011004"><ele>92.8</ele><time>2022-05-15T08:30:21.000Z</time></trkpt><trkpt lon="5.613985" lat="51.011038"><ele>92.8</ele><time>2022-05-15T08:30:22.000Z</time></trkpt><trkpt lon="5.614064" lat="51.01108"><ele>92.8</ele><time>2022-05-15T08:30:23.000Z</time></trkpt><trkpt lon="5.61413" lat="51.011115"><ele>92.8</ele><time>2022-05-15T08:30:24.000Z</time></trkpt><trkpt lon="5.614192" lat="51.011145"><ele>92.6</ele><time>2022-05-15T08:30:25.000Z</time></trkpt><trkpt lon="5.614274" lat="51.011191"><ele>92.6</ele><time>2022-05-15T08:30:26.000Z</time></trkpt><trkpt lon="5.614338" lat="51.011221"><ele>92.6</ele><time>2022-05-15T08:30:27.000Z</time></trkpt><trkpt lon="5.614407" lat="51.011248"><ele>92.6</ele><time>2022-05-15T08:30:28.000Z</time></trkpt><trkpt lon="5.614468" lat="51.011278"><ele>92.6</ele><time>2022-05-15T08:30:29.000Z</time></trkpt><trkpt lon="5.61452" lat="51.011305"><ele>92.6</ele><time>2022-05-15T08:30:30.000Z</time></trkpt><trkpt lon="5.614569" lat="51.011328"><ele>92.8</ele><time>2022-05-15T08:30:31.000Z</time></trkpt><trkpt lon="5.614617" lat="51.011344"><ele>92.8</ele><time>2022-05-15T08:30:32.000Z</time></trkpt><trkpt lon="5.614661" lat="51.011367"><ele>93</ele><time>2022-05-15T08:30:33.000Z</time></trkpt><trkpt lon="5.614692" lat="51.011382"><ele>93</ele><time>2022-05-15T08:30:34.000Z</time></trkpt><trkpt lon="5.614724" lat="51.011398"><ele>93.2</ele><time>2022-05-15T08:30:35.000Z</time></trkpt><trkpt lon="5.61483" lat="51.011455"><ele>93.4</ele><time>2022-05-15T08:30:46.000Z</time></trkpt><trkpt lon="5.614854" lat="51.01147"><ele>93.4</ele><time>2022-05-15T08:30:47.000Z</time></trkpt><trkpt lon="5.614881" lat="51.011493"><ele>93.4</ele><time>2022-05-15T08:30:48.000Z</time></trkpt><trkpt lon="5.614918" lat="51.011519"><ele>93.2</ele><time>2022-05-15T08:30:49.000Z</time></trkpt><trkpt lon="5.614968" lat="51.011542"><ele>93.2</ele><time>2022-05-15T08:30:50.000Z</time></trkpt><trkpt lon="5.615023" lat="51.011577"><ele>93</ele><time>2022-05-15T08:30:51.000Z</time></trkpt><trkpt lon="5.615077" lat="51.01161"><ele>93</ele><time>2022-05-15T08:30:52.000Z</time></trkpt><trkpt lon="5.615147" lat="51.011647"><ele>92.8</ele><time>2022-05-15T08:30:53.000Z</time></trkpt><trkpt lon="5.615226" lat="51.011676"><ele>92.8</ele><time>2022-05-15T08:30:54.000Z</time></trkpt><trkpt lon="5.615297" lat="51.011705"><ele>92.8</ele><time>2022-05-15T08:30:55.000Z</time></trkpt><trkpt lon="5.615372" lat="51.011733"><ele>92.6</ele><time>2022-05-15T08:30:56.000Z</time></trkpt><trkpt lon="5.615436" lat="51.011767"><ele>92.4</ele><time>2022-05-15T08:30:57.000Z</time></trkpt><trkpt lon="5.615495" lat="51.011801"><ele>92.4</ele><time>2022-05-15T08:30:58.000Z</time></trkpt><trkpt lon="5.61555" lat="51.011832"><ele>92.2</ele><time>2022-05-15T08:30:59.000Z</time></trkpt><trkpt lon="5.615618" lat="51.01187"><ele>92.2</ele><time>2022-05-15T08:31:00.000Z</time></trkpt><trkpt lon="5.615682" lat="51.0119"><ele>92.2</ele><time>2022-05-15T08:31:01.000Z</time></trkpt><trkpt lon="5.61575" lat="51.01193"><ele>92</ele><time>2022-05-15T08:31:02.000Z</time></trkpt><trkpt lon="5.615828" lat="51.011962"><ele>92</ele><time>2022-05-15T08:31:03.000Z</time></trkpt><trkpt lon="5.615913" lat="51.011996"><ele>91.8</ele><time>2022-05-15T08:31:04.000Z</time></trkpt><trkpt lon="5.615993" lat="51.012029"><ele>91.8</ele><time>2022-05-15T08:31:05.000Z</time></trkpt><trkpt lon="5.616077" lat="51.012061"><ele>91.8</ele><time>2022-05-15T08:31:06.000Z</time></trkpt><trkpt lon="5.616152" lat="51.012094"><ele>91.6</ele><time>2022-05-15T08:31:07.000Z</time></trkpt><trkpt lon="5.616231" lat="51.01213"><ele>91.6</ele><time>2022-05-15T08:31:08.000Z</time></trkpt><trkpt lon="5.616314" lat="51.012167"><ele>91.6</ele><time>2022-05-15T08:31:09.000Z</time></trkpt><trkpt lon="5.616399" lat="51.012209"><ele>91.6</ele><time>2022-05-15T08:31:10.000Z</time></trkpt><trkpt lon="5.616482" lat="51.012247"><ele>91.4</ele><time>2022-05-15T08:31:11.000Z</time></trkpt><trkpt lon="5.616568" lat="51.012293"><ele>91.6</ele><time>2022-05-15T08:31:12.000Z</time></trkpt><trkpt lon="5.616648" lat="51.012327"><ele>91.6</ele><time>2022-05-15T08:31:13.000Z</time></trkpt><trkpt lon="5.616728" lat="51.012365"><ele>91.8</ele><time>2022-05-15T08:31:14.000Z</time></trkpt><trkpt lon="5.61681" lat="51.0124"><ele>92</ele><time>2022-05-15T08:31:15.000Z</time></trkpt><trkpt lon="5.616893" lat="51.012431"><ele>92.2</ele><time>2022-05-15T08:31:16.000Z</time></trkpt><trkpt lon="5.616991" lat="51.012462"><ele>92.2</ele><time>2022-05-15T08:31:17.000Z</time></trkpt><trkpt lon="5.617083" lat="51.012496"><ele>92</ele><time>2022-05-15T08:31:18.000Z</time></trkpt><trkpt lon="5.617186" lat="51.012534"><ele>92</ele><time>2022-05-15T08:31:19.000Z</time></trkpt><trkpt lon="5.617268" lat="51.012568"><ele>92</ele><time>2022-05-15T08:31:20.000Z</time></trkpt><trkpt lon="5.617352" lat="51.01261"><ele>92</ele><time>2022-05-15T08:31:21.000Z</time></trkpt><trkpt lon="5.617436" lat="51.01266"><ele>91.8</ele><time>2022-05-15T08:31:22.000Z</time></trkpt><trkpt lon="5.61752" lat="51.012697"><ele>91.8</ele><time>2022-05-15T08:31:23.000Z</time></trkpt><trkpt lon="5.617604" lat="51.012744"><ele>91.6</ele><time>2022-05-15T08:31:24.000Z</time></trkpt><trkpt lon="5.61768" lat="51.012781"><ele>91.6</ele><time>2022-05-15T08:31:25.000Z</time></trkpt><trkpt lon="5.617791" lat="51.01282"><ele>91.4</ele><time>2022-05-15T08:31:26.000Z</time></trkpt><trkpt lon="5.617876" lat="51.012857"><ele>91.4</ele><time>2022-05-15T08:31:27.000Z</time></trkpt><trkpt lon="5.617954" lat="51.012896"><ele>91.4</ele><time>2022-05-15T08:31:28.000Z</time></trkpt><trkpt lon="5.618022" lat="51.012934"><ele>91.4</ele><time>2022-05-15T08:31:29.000Z</time></trkpt><trkpt lon="5.618101" lat="51.012987"><ele>91.4</ele><time>2022-05-15T08:31:30.000Z</time></trkpt><trkpt lon="5.618185" lat="51.01303"><ele>91.2</ele><time>2022-05-15T08:31:31.000Z</time></trkpt><trkpt lon="5.618282" lat="51.013068"><ele>91.2</ele><time>2022-05-15T08:31:32.000Z</time></trkpt><trkpt lon="5.618395" lat="51.013123"><ele>91.4</ele><time>2022-05-15T08:31:33.000Z</time></trkpt><trkpt lon="5.618487" lat="51.013163"><ele>91.4</ele><time>2022-05-15T08:31:34.000Z</time></trkpt><trkpt lon="5.618594" lat="51.013208"><ele>91.2</ele><time>2022-05-15T08:31:35.000Z</time></trkpt><trkpt lon="5.6187" lat="51.013255"><ele>91.2</ele><time>2022-05-15T08:31:36.000Z</time></trkpt><trkpt lon="5.618816" lat="51.0133"><ele>91.2</ele><time>2022-05-15T08:31:37.000Z</time></trkpt><trkpt lon="5.618916" lat="51.013339"><ele>91.4</ele><time>2022-05-15T08:31:38.000Z</time></trkpt><trkpt lon="5.619003" lat="51.013373"><ele>91.4</ele><time>2022-05-15T08:31:39.000Z</time></trkpt><trkpt lon="5.619099" lat="51.013417"><ele>91.6</ele><time>2022-05-15T08:31:40.000Z</time></trkpt><trkpt lon="5.619185" lat="51.013453"><ele>91.8</ele><time>2022-05-15T08:31:41.000Z</time></trkpt><trkpt lon="5.619267" lat="51.013491"><ele>91.8</ele><time>2022-05-15T08:31:42.000Z</time></trkpt><trkpt lon="5.619344" lat="51.013526"><ele>91.8</ele><time>2022-05-15T08:31:43.000Z</time></trkpt><trkpt lon="5.619418" lat="51.013567"><ele>91.8</ele><time>2022-05-15T08:31:44.000Z</time></trkpt><trkpt lon="5.619488" lat="51.013602"><ele>92</ele><time>2022-05-15T08:31:45.000Z</time></trkpt><trkpt lon="5.619569" lat="51.013647"><ele>92</ele><time>2022-05-15T08:31:46.000Z</time></trkpt><trkpt lon="5.619641" lat="51.013686"><ele>92</ele><time>2022-05-15T08:31:47.000Z</time></trkpt><trkpt lon="5.619716" lat="51.013731"><ele>92.2</ele><time>2022-05-15T08:31:48.000Z</time></trkpt><trkpt lon="5.619795" lat="51.01378"><ele>92.2</ele><time>2022-05-15T08:31:49.000Z</time></trkpt><trkpt lon="5.619869" lat="51.013816"><ele>92.2</ele><time>2022-05-15T08:31:50.000Z</time></trkpt><trkpt lon="5.619941" lat="51.013846"><ele>92.2</ele><time>2022-05-15T08:31:51.000Z</time></trkpt><trkpt lon="5.620014" lat="51.013876"><ele>92.2</ele><time>2022-05-15T08:31:52.000Z</time></trkpt><trkpt lon="5.620103" lat="51.013911"><ele>92.2</ele><time>2022-05-15T08:31:53.000Z</time></trkpt><trkpt lon="5.620199" lat="51.013945"><ele>92.2</ele><time>2022-05-15T08:31:54.000Z</time></trkpt><trkpt lon="5.620283" lat="51.013984"><ele>92.2</ele><time>2022-05-15T08:31:55.000Z</time></trkpt><trkpt lon="5.620373" lat="51.014026"><ele>92.2</ele><time>2022-05-15T08:31:56.000Z</time></trkpt><trkpt lon="5.620476" lat="51.014073"><ele>92.2</ele><time>2022-05-15T08:31:57.000Z</time></trkpt><trkpt lon="5.620572" lat="51.014112"><ele>92.2</ele><time>2022-05-15T08:31:58.000Z</time></trkpt><trkpt lon="5.620672" lat="51.014164"><ele>92.2</ele><time>2022-05-15T08:31:59.000Z</time></trkpt><trkpt lon="5.620767" lat="51.014216"><ele>92.2</ele><time>2022-05-15T08:32:00.000Z</time></trkpt><trkpt lon="5.620849" lat="51.014254"><ele>92</ele><time>2022-05-15T08:32:01.000Z</time></trkpt><trkpt lon="5.620965" lat="51.014324"><ele>92</ele><time>2022-05-15T08:32:02.000Z</time></trkpt><trkpt lon="5.621061" lat="51.014365"><ele>92</ele><time>2022-05-15T08:32:03.000Z</time></trkpt><trkpt lon="5.621138" lat="51.014402"><ele>92</ele><time>2022-05-15T08:32:04.000Z</time></trkpt><trkpt lon="5.62124" lat="51.014456"><ele>92</ele><time>2022-05-15T08:32:05.000Z</time></trkpt><trkpt lon="5.621328" lat="51.014509"><ele>92</ele><time>2022-05-15T08:32:06.000Z</time></trkpt><trkpt lon="5.621406" lat="51.014562"><ele>92</ele><time>2022-05-15T08:32:07.000Z</time></trkpt><trkpt lon="5.621494" lat="51.014645"><ele>92</ele><time>2022-05-15T08:32:08.000Z</time></trkpt><trkpt lon="5.621582" lat="51.014704"><ele>92</ele><time>2022-05-15T08:32:09.000Z</time></trkpt><trkpt lon="5.621664" lat="51.014753"><ele>92</ele><time>2022-05-15T08:32:10.000Z</time></trkpt><trkpt lon="5.621747" lat="51.014795"><ele>92.2</ele><time>2022-05-15T08:32:11.000Z</time></trkpt><trkpt lon="5.621826" lat="51.014843"><ele>92.2</ele><time>2022-05-15T08:32:12.000Z</time></trkpt><trkpt lon="5.621904" lat="51.014889"><ele>92.2</ele><time>2022-05-15T08:32:13.000Z</time></trkpt><trkpt lon="5.62198" lat="51.014928"><ele>92.2</ele><time>2022-05-15T08:32:14.000Z</time></trkpt><trkpt lon="5.622059" lat="51.014957"><ele>92.2</ele><time>2022-05-15T08:32:15.000Z</time></trkpt><trkpt lon="5.62217" lat="51.015007"><ele>92.2</ele><time>2022-05-15T08:32:16.000Z</time></trkpt><trkpt lon="5.622271" lat="51.015058"><ele>92</ele><time>2022-05-15T08:32:17.000Z</time></trkpt><trkpt lon="5.622355" lat="51.015096"><ele>92</ele><time>2022-05-15T08:32:18.000Z</time></trkpt><trkpt lon="5.622465" lat="51.015161"><ele>92</ele><time>2022-05-15T08:32:19.000Z</time></trkpt><trkpt lon="5.622565" lat="51.015213"><ele>92</ele><time>2022-05-15T08:32:20.000Z</time></trkpt><trkpt lon="5.622654" lat="51.015261"><ele>92</ele><time>2022-05-15T08:32:21.000Z</time></trkpt><trkpt lon="5.622736" lat="51.015306"><ele>92</ele><time>2022-05-15T08:32:22.000Z</time></trkpt><trkpt lon="5.622819" lat="51.015351"><ele>92</ele><time>2022-05-15T08:32:23.000Z</time></trkpt><trkpt lon="5.622917" lat="51.015402"><ele>92</ele><time>2022-05-15T08:32:24.000Z</time></trkpt><trkpt lon="5.622988" lat="51.01544"><ele>92</ele><time>2022-05-15T08:32:25.000Z</time></trkpt><trkpt lon="5.623099" lat="51.015507"><ele>92</ele><time>2022-05-15T08:32:26.000Z</time></trkpt><trkpt lon="5.623184" lat="51.015555"><ele>92</ele><time>2022-05-15T08:32:27.000Z</time></trkpt><trkpt lon="5.623281" lat="51.015618"><ele>92</ele><time>2022-05-15T08:32:28.000Z</time></trkpt><trkpt lon="5.623366" lat="51.015677"><ele>92</ele><time>2022-05-15T08:32:29.000Z</time></trkpt><trkpt lon="5.623455" lat="51.015741"><ele>92</ele><time>2022-05-15T08:32:30.000Z</time></trkpt><trkpt lon="5.623546" lat="51.015795"><ele>92</ele><time>2022-05-15T08:32:31.000Z</time></trkpt><trkpt lon="5.623635" lat="51.015847"><ele>92</ele><time>2022-05-15T08:32:32.000Z</time></trkpt><trkpt lon="5.623718" lat="51.015905"><ele>91.8</ele><time>2022-05-15T08:32:33.000Z</time></trkpt><trkpt lon="5.623795" lat="51.015958"><ele>91.8</ele><time>2022-05-15T08:32:34.000Z</time></trkpt><trkpt lon="5.623873" lat="51.016006"><ele>91.8</ele><time>2022-05-15T08:32:35.000Z</time></trkpt><trkpt lon="5.623961" lat="51.016064"><ele>91.8</ele><time>2022-05-15T08:32:36.000Z</time></trkpt><trkpt lon="5.624073" lat="51.016124"><ele>91.8</ele><time>2022-05-15T08:32:37.000Z</time></trkpt><trkpt lon="5.624168" lat="51.016174"><ele>91.8</ele><time>2022-05-15T08:32:38.000Z</time></trkpt><trkpt lon="5.624267" lat="51.016226"><ele>91.8</ele><time>2022-05-15T08:32:39.000Z</time></trkpt><trkpt lon="5.624364" lat="51.016285"><ele>91.8</ele><time>2022-05-15T08:32:40.000Z</time></trkpt><trkpt lon="5.624473" lat="51.016355"><ele>91.8</ele><time>2022-05-15T08:32:41.000Z</time></trkpt><trkpt lon="5.624583" lat="51.016402"><ele>91.6</ele><time>2022-05-15T08:32:42.000Z</time></trkpt><trkpt lon="5.624676" lat="51.016472"><ele>91.6</ele><time>2022-05-15T08:32:43.000Z</time></trkpt><trkpt lon="5.624774" lat="51.016531"><ele>91.4</ele><time>2022-05-15T08:32:44.000Z</time></trkpt><trkpt lon="5.624867" lat="51.016577"><ele>91.4</ele><time>2022-05-15T08:32:45.000Z</time></trkpt><trkpt lon="5.624966" lat="51.016637"><ele>91.4</ele><time>2022-05-15T08:32:46.000Z</time></trkpt><trkpt lon="5.625059" lat="51.016695"><ele>91.4</ele><time>2022-05-15T08:32:47.000Z</time></trkpt><trkpt lon="5.625142" lat="51.016752"><ele>91.4</ele><time>2022-05-15T08:32:48.000Z</time></trkpt><trkpt lon="5.625226" lat="51.016798"><ele>91.6</ele><time>2022-05-15T08:32:49.000Z</time></trkpt><trkpt lon="5.625322" lat="51.016851"><ele>91.6</ele><time>2022-05-15T08:32:50.000Z</time></trkpt><trkpt lon="5.625403" lat="51.016894"><ele>91.6</ele><time>2022-05-15T08:32:51.000Z</time></trkpt><trkpt lon="5.625489" lat="51.016932"><ele>91.6</ele><time>2022-05-15T08:32:52.000Z</time></trkpt><trkpt lon="5.625575" lat="51.01697"><ele>91.6</ele><time>2022-05-15T08:32:53.000Z</time></trkpt><trkpt lon="5.625659" lat="51.017012"><ele>91.4</ele><time>2022-05-15T08:32:54.000Z</time></trkpt><trkpt lon="5.625731" lat="51.017051"><ele>91.4</ele><time>2022-05-15T08:32:55.000Z</time></trkpt><trkpt lon="5.625814" lat="51.017099"><ele>91.4</ele><time>2022-05-15T08:32:56.000Z</time></trkpt><trkpt lon="5.625885" lat="51.017141"><ele>91.2</ele><time>2022-05-15T08:32:57.000Z</time></trkpt><trkpt lon="5.625961" lat="51.017183"><ele>91.2</ele><time>2022-05-15T08:32:58.000Z</time></trkpt><trkpt lon="5.626036" lat="51.017229"><ele>91.2</ele><time>2022-05-15T08:32:59.000Z</time></trkpt><trkpt lon="5.626114" lat="51.017271"><ele>91.2</ele><time>2022-05-15T08:33:00.000Z</time></trkpt><trkpt lon="5.626186" lat="51.01731"><ele>91.2</ele><time>2022-05-15T08:33:01.000Z</time></trkpt><trkpt lon="5.626257" lat="51.01734"><ele>91.2</ele><time>2022-05-15T08:33:02.000Z</time></trkpt><trkpt lon="5.626331" lat="51.017382"><ele>91.2</ele><time>2022-05-15T08:33:03.000Z</time></trkpt><trkpt lon="5.626392" lat="51.017409"><ele>91.2</ele><time>2022-05-15T08:33:04.000Z</time></trkpt><trkpt lon="5.626455" lat="51.017431"><ele>91.2</ele><time>2022-05-15T08:33:05.000Z</time></trkpt><trkpt lon="5.626519" lat="51.017459"><ele>91.2</ele><time>2022-05-15T08:33:06.000Z</time></trkpt><trkpt lon="5.626582" lat="51.017485"><ele>91.4</ele><time>2022-05-15T08:33:07.000Z</time></trkpt><trkpt lon="5.626658" lat="51.017512"><ele>91.4</ele><time>2022-05-15T08:33:08.000Z</time></trkpt><trkpt lon="5.626723" lat="51.017539"><ele>91.6</ele><time>2022-05-15T08:33:09.000Z</time></trkpt><trkpt lon="5.626789" lat="51.017564"><ele>91.6</ele><time>2022-05-15T08:33:10.000Z</time></trkpt><trkpt lon="5.626857" lat="51.017591"><ele>91.6</ele><time>2022-05-15T08:33:11.000Z</time></trkpt><trkpt lon="5.626942" lat="51.017629"><ele>91.6</ele><time>2022-05-15T08:33:12.000Z</time></trkpt><trkpt lon="5.627018" lat="51.017656"><ele>91.6</ele><time>2022-05-15T08:33:13.000Z</time></trkpt><trkpt lon="5.627103" lat="51.017695"><ele>91.6</ele><time>2022-05-15T08:33:14.000Z</time></trkpt><trkpt lon="5.627186" lat="51.017736"><ele>91.6</ele><time>2022-05-15T08:33:15.000Z</time></trkpt><trkpt lon="5.627267" lat="51.017782"><ele>91.8</ele><time>2022-05-15T08:33:16.000Z</time></trkpt><trkpt lon="5.627348" lat="51.017825"><ele>91.6</ele><time>2022-05-15T08:33:17.000Z</time></trkpt><trkpt lon="5.627427" lat="51.017863"><ele>91.6</ele><time>2022-05-15T08:33:18.000Z</time></trkpt><trkpt lon="5.627519" lat="51.017916"><ele>91.6</ele><time>2022-05-15T08:33:19.000Z</time></trkpt><trkpt lon="5.627614" lat="51.017962"><ele>91.6</ele><time>2022-05-15T08:33:20.000Z</time></trkpt><trkpt lon="5.627703" lat="51.018008"><ele>91.6</ele><time>2022-05-15T08:33:21.000Z</time></trkpt><trkpt lon="5.627803" lat="51.018054"><ele>91.4</ele><time>2022-05-15T08:33:22.000Z</time></trkpt><trkpt lon="5.627894" lat="51.018103"><ele>91.4</ele><time>2022-05-15T08:33:23.000Z</time></trkpt><trkpt lon="5.627983" lat="51.01816"><ele>91.2</ele><time>2022-05-15T08:33:24.000Z</time></trkpt><trkpt lon="5.628082" lat="51.018213"><ele>91.2</ele><time>2022-05-15T08:33:25.000Z</time></trkpt><trkpt lon="5.628176" lat="51.018266"><ele>91.2</ele><time>2022-05-15T08:33:26.000Z</time></trkpt><trkpt lon="5.628276" lat="51.018317"><ele>91.2</ele><time>2022-05-15T08:33:27.000Z</time></trkpt><trkpt lon="5.628376" lat="51.018366"><ele>91.2</ele><time>2022-05-15T08:33:28.000Z</time></trkpt><trkpt lon="5.628469" lat="51.018419"><ele>91.2</ele><time>2022-05-15T08:33:29.000Z</time></trkpt><trkpt lon="5.628571" lat="51.01848"><ele>91.2</ele><time>2022-05-15T08:33:30.000Z</time></trkpt><trkpt lon="5.628671" lat="51.018534"><ele>91.2</ele><time>2022-05-15T08:33:31.000Z</time></trkpt><trkpt lon="5.628775" lat="51.018587"><ele>91.2</ele><time>2022-05-15T08:33:32.000Z</time></trkpt><trkpt lon="5.628875" lat="51.018637"><ele>91.2</ele><time>2022-05-15T08:33:33.000Z</time></trkpt><trkpt lon="5.628978" lat="51.01869"><ele>91.2</ele><time>2022-05-15T08:33:34.000Z</time></trkpt><trkpt lon="5.62908" lat="51.018751"><ele>91.2</ele><time>2022-05-15T08:33:35.000Z</time></trkpt><trkpt lon="5.629179" lat="51.018805"><ele>91</ele><time>2022-05-15T08:33:36.000Z</time></trkpt><trkpt lon="5.629272" lat="51.018855"><ele>91</ele><time>2022-05-15T08:33:37.000Z</time></trkpt><trkpt lon="5.629364" lat="51.018904"><ele>91</ele><time>2022-05-15T08:33:38.000Z</time></trkpt><trkpt lon="5.629453" lat="51.018946"><ele>91</ele><time>2022-05-15T08:33:39.000Z</time></trkpt><trkpt lon="5.629543" lat="51.018988"><ele>91</ele><time>2022-05-15T08:33:40.000Z</time></trkpt><trkpt lon="5.62963" lat="51.01903"><ele>91</ele><time>2022-05-15T08:33:41.000Z</time></trkpt><trkpt lon="5.629711" lat="51.019072"><ele>91</ele><time>2022-05-15T08:33:42.000Z</time></trkpt><trkpt lon="5.629797" lat="51.01911"><ele>91</ele><time>2022-05-15T08:33:43.000Z</time></trkpt><trkpt lon="5.629882" lat="51.019152"><ele>91</ele><time>2022-05-15T08:33:44.000Z</time></trkpt><trkpt lon="5.629963" lat="51.019187"><ele>91</ele><time>2022-05-15T08:33:45.000Z</time></trkpt><trkpt lon="5.630048" lat="51.019225"><ele>91.2</ele><time>2022-05-15T08:33:46.000Z</time></trkpt><trkpt lon="5.630133" lat="51.019263"><ele>91.2</ele><time>2022-05-15T08:33:47.000Z</time></trkpt><trkpt lon="5.630219" lat="51.019308"><ele>91.2</ele><time>2022-05-15T08:33:48.000Z</time></trkpt><trkpt lon="5.6303" lat="51.01935"><ele>91.2</ele><time>2022-05-15T08:33:49.000Z</time></trkpt><trkpt lon="5.630372" lat="51.019392"><ele>91.2</ele><time>2022-05-15T08:33:50.000Z</time></trkpt><trkpt lon="5.630441" lat="51.019427"><ele>91.4</ele><time>2022-05-15T08:33:51.000Z</time></trkpt><trkpt lon="5.630521" lat="51.019469"><ele>91.4</ele><time>2022-05-15T08:33:52.000Z</time></trkpt><trkpt lon="5.630596" lat="51.0195"><ele>91.4</ele><time>2022-05-15T08:33:53.000Z</time></trkpt><trkpt lon="5.630668" lat="51.019538"><ele>91.4</ele><time>2022-05-15T08:33:54.000Z</time></trkpt><trkpt lon="5.630741" lat="51.019579"><ele>91.4</ele><time>2022-05-15T08:33:55.000Z</time></trkpt><trkpt lon="5.630814" lat="51.019624"><ele>91.4</ele><time>2022-05-15T08:33:56.000Z</time></trkpt><trkpt lon="5.63089" lat="51.019678"><ele>91.4</ele><time>2022-05-15T08:33:57.000Z</time></trkpt><trkpt lon="5.630963" lat="51.01972"><ele>91.6</ele><time>2022-05-15T08:33:58.000Z</time></trkpt><trkpt lon="5.631033" lat="51.019763"><ele>91.6</ele><time>2022-05-15T08:33:59.000Z</time></trkpt><trkpt lon="5.631104" lat="51.019801"><ele>91.6</ele><time>2022-05-15T08:34:00.000Z</time></trkpt><trkpt lon="5.631187" lat="51.019843"><ele>91.6</ele><time>2022-05-15T08:34:01.000Z</time></trkpt><trkpt lon="5.631267" lat="51.019884"><ele>91.6</ele><time>2022-05-15T08:34:02.000Z</time></trkpt><trkpt lon="5.631348" lat="51.019923"><ele>91.8</ele><time>2022-05-15T08:34:03.000Z</time></trkpt><trkpt lon="5.631422" lat="51.019965"><ele>91.8</ele><time>2022-05-15T08:34:04.000Z</time></trkpt><trkpt lon="5.631509" lat="51.020007"><ele>91.8</ele><time>2022-05-15T08:34:05.000Z</time></trkpt><trkpt lon="5.631587" lat="51.020048"><ele>91.8</ele><time>2022-05-15T08:34:06.000Z</time></trkpt><trkpt lon="5.631666" lat="51.020079"><ele>91.8</ele><time>2022-05-15T08:34:07.000Z</time></trkpt><trkpt lon="5.631745" lat="51.020118"><ele>91.8</ele><time>2022-05-15T08:34:08.000Z</time></trkpt><trkpt lon="5.631826" lat="51.020155"><ele>91.8</ele><time>2022-05-15T08:34:09.000Z</time></trkpt><trkpt lon="5.631911" lat="51.020193"><ele>91.6</ele><time>2022-05-15T08:34:10.000Z</time></trkpt><trkpt lon="5.63199" lat="51.020239"><ele>91.6</ele><time>2022-05-15T08:34:11.000Z</time></trkpt><trkpt lon="5.632065" lat="51.020272"><ele>91.4</ele><time>2022-05-15T08:34:12.000Z</time></trkpt><trkpt lon="5.632136" lat="51.020311"><ele>91.4</ele><time>2022-05-15T08:34:13.000Z</time></trkpt><trkpt lon="5.632233" lat="51.020365"><ele>91.2</ele><time>2022-05-15T08:34:14.000Z</time></trkpt><trkpt lon="5.632319" lat="51.020411"><ele>91.2</ele><time>2022-05-15T08:34:15.000Z</time></trkpt><trkpt lon="5.632398" lat="51.020453"><ele>91.4</ele><time>2022-05-15T08:34:16.000Z</time></trkpt><trkpt lon="5.632481" lat="51.020499"><ele>91.4</ele><time>2022-05-15T08:34:17.000Z</time></trkpt><trkpt lon="5.632557" lat="51.020537"><ele>91.4</ele><time>2022-05-15T08:34:18.000Z</time></trkpt><trkpt lon="5.63264" lat="51.020575"><ele>91.4</ele><time>2022-05-15T08:34:19.000Z</time></trkpt><trkpt lon="5.632724" lat="51.020617"><ele>91.4</ele><time>2022-05-15T08:34:20.000Z</time></trkpt><trkpt lon="5.632808" lat="51.020674"><ele>91.4</ele><time>2022-05-15T08:34:21.000Z</time></trkpt><trkpt lon="5.632892" lat="51.020716"><ele>91.4</ele><time>2022-05-15T08:34:22.000Z</time></trkpt><trkpt lon="5.632972" lat="51.020766"><ele>91.4</ele><time>2022-05-15T08:34:23.000Z</time></trkpt><trkpt lon="5.633052" lat="51.020811"><ele>91.4</ele><time>2022-05-15T08:34:24.000Z</time></trkpt><trkpt lon="5.633122" lat="51.020853"><ele>91.2</ele><time>2022-05-15T08:34:25.000Z</time></trkpt><trkpt lon="5.633189" lat="51.020892"><ele>91.2</ele><time>2022-05-15T08:34:26.000Z</time></trkpt><trkpt lon="5.633269" lat="51.02093"><ele>91</ele><time>2022-05-15T08:34:27.000Z</time></trkpt><trkpt lon="5.633344" lat="51.020968"><ele>91</ele><time>2022-05-15T08:34:28.000Z</time></trkpt><trkpt lon="5.633414" lat="51.02101"><ele>91</ele><time>2022-05-15T08:34:29.000Z</time></trkpt><trkpt lon="5.633481" lat="51.021052"><ele>91</ele><time>2022-05-15T08:34:30.000Z</time></trkpt><trkpt lon="5.633555" lat="51.021093"><ele>91</ele><time>2022-05-15T08:34:31.000Z</time></trkpt><trkpt lon="5.633632" lat="51.021128"><ele>91</ele><time>2022-05-15T08:34:32.000Z</time></trkpt><trkpt lon="5.633705" lat="51.021159"><ele>90.8</ele><time>2022-05-15T08:34:33.000Z</time></trkpt><trkpt lon="5.633784" lat="51.021204"><ele>91</ele><time>2022-05-15T08:34:34.000Z</time></trkpt><trkpt lon="5.633862" lat="51.021246"><ele>91</ele><time>2022-05-15T08:34:35.000Z</time></trkpt><trkpt lon="5.633941" lat="51.021285"><ele>91</ele><time>2022-05-15T08:34:36.000Z</time></trkpt><trkpt lon="5.634019" lat="51.021334"><ele>91</ele><time>2022-05-15T08:34:37.000Z</time></trkpt><trkpt lon="5.634099" lat="51.021384"><ele>91.2</ele><time>2022-05-15T08:34:38.000Z</time></trkpt><trkpt lon="5.634177" lat="51.021433"><ele>91.4</ele><time>2022-05-15T08:34:39.000Z</time></trkpt><trkpt lon="5.634248" lat="51.021471"><ele>91.4</ele><time>2022-05-15T08:34:40.000Z</time></trkpt><trkpt lon="5.63434" lat="51.021532"><ele>91.4</ele><time>2022-05-15T08:34:41.000Z</time></trkpt><trkpt lon="5.634426" lat="51.021582"><ele>91.4</ele><time>2022-05-15T08:34:42.000Z</time></trkpt><trkpt lon="5.634506" lat="51.021631"><ele>91.6</ele><time>2022-05-15T08:34:43.000Z</time></trkpt><trkpt lon="5.634581" lat="51.021681"><ele>91.6</ele><time>2022-05-15T08:34:44.000Z</time></trkpt><trkpt lon="5.634652" lat="51.021723"><ele>91.6</ele><time>2022-05-15T08:34:45.000Z</time></trkpt><trkpt lon="5.634737" lat="51.021758"><ele>91.6</ele><time>2022-05-15T08:34:46.000Z</time></trkpt><trkpt lon="5.634824" lat="51.021803"><ele>91.4</ele><time>2022-05-15T08:34:47.000Z</time></trkpt><trkpt lon="5.634919" lat="51.021838"><ele>91.4</ele><time>2022-05-15T08:34:48.000Z</time></trkpt><trkpt lon="5.63501" lat="51.021872"><ele>91.4</ele><time>2022-05-15T08:34:49.000Z</time></trkpt><trkpt lon="5.635105" lat="51.021903"><ele>91.4</ele><time>2022-05-15T08:34:50.000Z</time></trkpt><trkpt lon="5.635208" lat="51.021943"><ele>91.2</ele><time>2022-05-15T08:34:51.000Z</time></trkpt><trkpt lon="5.635325" lat="51.02199"><ele>91.2</ele><time>2022-05-15T08:34:52.000Z</time></trkpt><trkpt lon="5.635421" lat="51.022036"><ele>91</ele><time>2022-05-15T08:34:53.000Z</time></trkpt><trkpt lon="5.635519" lat="51.022071"><ele>91</ele><time>2022-05-15T08:34:54.000Z</time></trkpt><trkpt lon="5.635621" lat="51.022112"><ele>90.8</ele><time>2022-05-15T08:34:55.000Z</time></trkpt><trkpt lon="5.635707" lat="51.022154"><ele>90.8</ele><time>2022-05-15T08:34:56.000Z</time></trkpt><trkpt lon="5.635803" lat="51.022196"><ele>90.8</ele><time>2022-05-15T08:34:57.000Z</time></trkpt><trkpt lon="5.635899" lat="51.022238"><ele>90.8</ele><time>2022-05-15T08:34:58.000Z</time></trkpt><trkpt lon="5.635984" lat="51.022288"><ele>90.8</ele><time>2022-05-15T08:34:59.000Z</time></trkpt><trkpt lon="5.636075" lat="51.022341"><ele>90.8</ele><time>2022-05-15T08:35:00.000Z</time></trkpt><trkpt lon="5.636172" lat="51.022387"><ele>90.8</ele><time>2022-05-15T08:35:01.000Z</time></trkpt><trkpt lon="5.636269" lat="51.022439"><ele>90.8</ele><time>2022-05-15T08:35:02.000Z</time></trkpt><trkpt lon="5.636365" lat="51.022486"><ele>90.6</ele><time>2022-05-15T08:35:03.000Z</time></trkpt><trkpt lon="5.63646" lat="51.022532"><ele>90.6</ele><time>2022-05-15T08:35:04.000Z</time></trkpt><trkpt lon="5.636554" lat="51.022578"><ele>90.8</ele><time>2022-05-15T08:35:05.000Z</time></trkpt><trkpt lon="5.636651" lat="51.022624"><ele>90.8</ele><time>2022-05-15T08:35:06.000Z</time></trkpt><trkpt lon="5.636735" lat="51.022665"><ele>90.8</ele><time>2022-05-15T08:35:07.000Z</time></trkpt><trkpt lon="5.63682" lat="51.022707"><ele>90.8</ele><time>2022-05-15T08:35:08.000Z</time></trkpt><trkpt lon="5.636909" lat="51.022756"><ele>90.8</ele><time>2022-05-15T08:35:09.000Z</time></trkpt><trkpt lon="5.636997" lat="51.022806"><ele>90.8</ele><time>2022-05-15T08:35:10.000Z</time></trkpt><trkpt lon="5.637082" lat="51.022856"><ele>90.8</ele><time>2022-05-15T08:35:11.000Z</time></trkpt><trkpt lon="5.637173" lat="51.022902"><ele>90.8</ele><time>2022-05-15T08:35:12.000Z</time></trkpt><trkpt lon="5.637265" lat="51.022951"><ele>90.8</ele><time>2022-05-15T08:35:13.000Z</time></trkpt><trkpt lon="5.637357" lat="51.023001"><ele>90.8</ele><time>2022-05-15T08:35:14.000Z</time></trkpt><trkpt lon="5.637427" lat="51.023042"><ele>91</ele><time>2022-05-15T08:35:15.000Z</time></trkpt><trkpt lon="5.637527" lat="51.023093"><ele>90.8</ele><time>2022-05-15T08:35:16.000Z</time></trkpt><trkpt lon="5.637617" lat="51.023139"><ele>91</ele><time>2022-05-15T08:35:17.000Z</time></trkpt><trkpt lon="5.637704" lat="51.023177"><ele>91</ele><time>2022-05-15T08:35:18.000Z</time></trkpt><trkpt lon="5.63779" lat="51.023222"><ele>91</ele><time>2022-05-15T08:35:19.000Z</time></trkpt><trkpt lon="5.637872" lat="51.023264"><ele>91</ele><time>2022-05-15T08:35:20.000Z</time></trkpt><trkpt lon="5.637956" lat="51.02331"><ele>91.2</ele><time>2022-05-15T08:35:21.000Z</time></trkpt><trkpt lon="5.63804" lat="51.023352"><ele>91.2</ele><time>2022-05-15T08:35:22.000Z</time></trkpt><trkpt lon="5.638122" lat="51.023401"><ele>91.2</ele><time>2022-05-15T08:35:23.000Z</time></trkpt><trkpt lon="5.638202" lat="51.023444"><ele>91.2</ele><time>2022-05-15T08:35:24.000Z</time></trkpt><trkpt lon="5.638284" lat="51.023489"><ele>91.4</ele><time>2022-05-15T08:35:25.000Z</time></trkpt><trkpt lon="5.638367" lat="51.023531"><ele>91.4</ele><time>2022-05-15T08:35:26.000Z</time></trkpt><trkpt lon="5.638439" lat="51.023577"><ele>91.4</ele><time>2022-05-15T08:35:27.000Z</time></trkpt><trkpt lon="5.638511" lat="51.023627"><ele>91.4</ele><time>2022-05-15T08:35:28.000Z</time></trkpt><trkpt lon="5.638587" lat="51.023672"><ele>91.4</ele><time>2022-05-15T08:35:29.000Z</time></trkpt><trkpt lon="5.638664" lat="51.023718"><ele>91.4</ele><time>2022-05-15T08:35:30.000Z</time></trkpt><trkpt lon="5.638734" lat="51.02376"><ele>91.4</ele><time>2022-05-15T08:35:31.000Z</time></trkpt><trkpt lon="5.638804" lat="51.023795"><ele>91.4</ele><time>2022-05-15T08:35:32.000Z</time></trkpt><trkpt lon="5.63887" lat="51.023829"><ele>91.4</ele><time>2022-05-15T08:35:33.000Z</time></trkpt><trkpt lon="5.638941" lat="51.023867"><ele>91.4</ele><time>2022-05-15T08:35:34.000Z</time></trkpt><trkpt lon="5.639009" lat="51.023905"><ele>91.6</ele><time>2022-05-15T08:35:35.000Z</time></trkpt><trkpt lon="5.639072" lat="51.02394"><ele>91.6</ele><time>2022-05-15T08:35:36.000Z</time></trkpt><trkpt lon="5.63913" lat="51.023982"><ele>91.6</ele><time>2022-05-15T08:35:37.000Z</time></trkpt><trkpt lon="5.63919" lat="51.024026"><ele>91.6</ele><time>2022-05-15T08:35:38.000Z</time></trkpt><trkpt lon="5.639262" lat="51.024069"><ele>91.6</ele><time>2022-05-15T08:35:39.000Z</time></trkpt><trkpt lon="5.639339" lat="51.024115"><ele>91.6</ele><time>2022-05-15T08:35:40.000Z</time></trkpt><trkpt lon="5.639413" lat="51.024163"><ele>91.6</ele><time>2022-05-15T08:35:41.000Z</time></trkpt><trkpt lon="5.639501" lat="51.02421"><ele>91.6</ele><time>2022-05-15T08:35:42.000Z</time></trkpt><trkpt lon="5.639584" lat="51.024252"><ele>91.6</ele><time>2022-05-15T08:35:43.000Z</time></trkpt><trkpt lon="5.639664" lat="51.024291"><ele>91.6</ele><time>2022-05-15T08:35:44.000Z</time></trkpt><trkpt lon="5.639737" lat="51.024332"><ele>91.6</ele><time>2022-05-15T08:35:45.000Z</time></trkpt><trkpt lon="5.639819" lat="51.024363"><ele>91.8</ele><time>2022-05-15T08:35:46.000Z</time></trkpt><trkpt lon="5.639896" lat="51.024401"><ele>91.6</ele><time>2022-05-15T08:35:47.000Z</time></trkpt><trkpt lon="5.63997" lat="51.024436"><ele>91.6</ele><time>2022-05-15T08:35:48.000Z</time></trkpt><trkpt lon="5.640036" lat="51.024474"><ele>91.6</ele><time>2022-05-15T08:35:49.000Z</time></trkpt><trkpt lon="5.640111" lat="51.024501"><ele>91.8</ele><time>2022-05-15T08:35:50.000Z</time></trkpt><trkpt lon="5.640181" lat="51.024535"><ele>91.8</ele><time>2022-05-15T08:35:51.000Z</time></trkpt><trkpt lon="5.640241" lat="51.024568"><ele>91.8</ele><time>2022-05-15T08:35:52.000Z</time></trkpt><trkpt lon="5.640319" lat="51.024604"><ele>91.8</ele><time>2022-05-15T08:35:53.000Z</time></trkpt><trkpt lon="5.640391" lat="51.02463"><ele>91.8</ele><time>2022-05-15T08:35:54.000Z</time></trkpt><trkpt lon="5.640479" lat="51.024669"><ele>91.8</ele><time>2022-05-15T08:35:55.000Z</time></trkpt><trkpt lon="5.640564" lat="51.024707"><ele>91.8</ele><time>2022-05-15T08:35:56.000Z</time></trkpt><trkpt lon="5.640649" lat="51.024752"><ele>91.8</ele><time>2022-05-15T08:35:57.000Z</time></trkpt><trkpt lon="5.640736" lat="51.024787"><ele>91.8</ele><time>2022-05-15T08:35:58.000Z</time></trkpt><trkpt lon="5.640815" lat="51.024832"><ele>91.8</ele><time>2022-05-15T08:35:59.000Z</time></trkpt><trkpt lon="5.640892" lat="51.02487"><ele>91.8</ele><time>2022-05-15T08:36:00.000Z</time></trkpt><trkpt lon="5.64097" lat="51.024905"><ele>91.8</ele><time>2022-05-15T08:36:01.000Z</time></trkpt><trkpt lon="5.641047" lat="51.024947"><ele>91.8</ele><time>2022-05-15T08:36:02.000Z</time></trkpt><trkpt lon="5.641129" lat="51.025"><ele>91.8</ele><time>2022-05-15T08:36:03.000Z</time></trkpt><trkpt lon="5.641203" lat="51.025049"><ele>92</ele><time>2022-05-15T08:36:04.000Z</time></trkpt><trkpt lon="5.641272" lat="51.025084"><ele>92</ele><time>2022-05-15T08:36:05.000Z</time></trkpt><trkpt lon="5.641344" lat="51.025118"><ele>92</ele><time>2022-05-15T08:36:06.000Z</time></trkpt><trkpt lon="5.641415" lat="51.025156"><ele>92</ele><time>2022-05-15T08:36:07.000Z</time></trkpt><trkpt lon="5.641478" lat="51.025187"><ele>92</ele><time>2022-05-15T08:36:08.000Z</time></trkpt><trkpt lon="5.641547" lat="51.025218"><ele>92.2</ele><time>2022-05-15T08:36:09.000Z</time></trkpt><trkpt lon="5.641619" lat="51.025267"><ele>92.2</ele><time>2022-05-15T08:36:10.000Z</time></trkpt><trkpt lon="5.641711" lat="51.025298"><ele>92.2</ele><time>2022-05-15T08:36:11.000Z</time></trkpt><trkpt lon="5.641795" lat="51.025332"><ele>92.2</ele><time>2022-05-15T08:36:12.000Z</time></trkpt><trkpt lon="5.64189" lat="51.025363"><ele>92</ele><time>2022-05-15T08:36:13.000Z</time></trkpt><trkpt lon="5.641969" lat="51.025401"><ele>92</ele><time>2022-05-15T08:36:14.000Z</time></trkpt><trkpt lon="5.642053" lat="51.025439"><ele>91.8</ele><time>2022-05-15T08:36:15.000Z</time></trkpt><trkpt lon="5.64215" lat="51.025477"><ele>91.8</ele><time>2022-05-15T08:36:16.000Z</time></trkpt><trkpt lon="5.642225" lat="51.025515"><ele>91.8</ele><time>2022-05-15T08:36:17.000Z</time></trkpt><trkpt lon="5.642319" lat="51.025568"><ele>91.8</ele><time>2022-05-15T08:36:18.000Z</time></trkpt><trkpt lon="5.642409" lat="51.025599"><ele>91.8</ele><time>2022-05-15T08:36:19.000Z</time></trkpt><trkpt lon="5.642502" lat="51.025634"><ele>91.8</ele><time>2022-05-15T08:36:20.000Z</time></trkpt><trkpt lon="5.642585" lat="51.025668"><ele>91.8</ele><time>2022-05-15T08:36:21.000Z</time></trkpt><trkpt lon="5.642662" lat="51.025713"><ele>91.8</ele><time>2022-05-15T08:36:22.000Z</time></trkpt><trkpt lon="5.642747" lat="51.025763"><ele>91.8</ele><time>2022-05-15T08:36:23.000Z</time></trkpt><trkpt lon="5.642839" lat="51.025827"><ele>91.6</ele><time>2022-05-15T08:36:24.000Z</time></trkpt><trkpt lon="5.642932" lat="51.025887"><ele>91.6</ele><time>2022-05-15T08:36:25.000Z</time></trkpt><trkpt lon="5.64302" lat="51.025938"><ele>91.6</ele><time>2022-05-15T08:36:26.000Z</time></trkpt><trkpt lon="5.643094" lat="51.025991"><ele>91.6</ele><time>2022-05-15T08:36:27.000Z</time></trkpt><trkpt lon="5.643174" lat="51.026045"><ele>91.6</ele><time>2022-05-15T08:36:28.000Z</time></trkpt><trkpt lon="5.643252" lat="51.026094"><ele>91.6</ele><time>2022-05-15T08:36:29.000Z</time></trkpt><trkpt lon="5.643347" lat="51.026159"><ele>91.6</ele><time>2022-05-15T08:36:30.000Z</time></trkpt><trkpt lon="5.643445" lat="51.026208"><ele>91.6</ele><time>2022-05-15T08:36:31.000Z</time></trkpt><trkpt lon="5.643544" lat="51.026258"><ele>91.6</ele><time>2022-05-15T08:36:32.000Z</time></trkpt><trkpt lon="5.643632" lat="51.026297"><ele>91.6</ele><time>2022-05-15T08:36:33.000Z</time></trkpt><trkpt lon="5.643738" lat="51.026328"><ele>91.6</ele><time>2022-05-15T08:36:34.000Z</time></trkpt><trkpt lon="5.643827" lat="51.02637"><ele>91.6</ele><time>2022-05-15T08:36:35.000Z</time></trkpt><trkpt lon="5.643916" lat="51.026411"><ele>91.6</ele><time>2022-05-15T08:36:36.000Z</time></trkpt><trkpt lon="5.644004" lat="51.026454"><ele>91.8</ele><time>2022-05-15T08:36:37.000Z</time></trkpt><trkpt lon="5.644089" lat="51.026495"><ele>91.8</ele><time>2022-05-15T08:36:38.000Z</time></trkpt><trkpt lon="5.644178" lat="51.026567"><ele>91.8</ele><time>2022-05-15T08:36:39.000Z</time></trkpt><trkpt lon="5.644272" lat="51.026625"><ele>91.8</ele><time>2022-05-15T08:36:40.000Z</time></trkpt><trkpt lon="5.644366" lat="51.026677"><ele>91.8</ele><time>2022-05-15T08:36:41.000Z</time></trkpt><trkpt lon="5.644471" lat="51.026742"><ele>91.8</ele><time>2022-05-15T08:36:42.000Z</time></trkpt><trkpt lon="5.644578" lat="51.026793"><ele>91.6</ele><time>2022-05-15T08:36:43.000Z</time></trkpt><trkpt lon="5.644694" lat="51.026831"><ele>91.6</ele><time>2022-05-15T08:36:44.000Z</time></trkpt><trkpt lon="5.644797" lat="51.026877"><ele>91.6</ele><time>2022-05-15T08:36:45.000Z</time></trkpt><trkpt lon="5.644894" lat="51.026923"><ele>91.6</ele><time>2022-05-15T08:36:46.000Z</time></trkpt><trkpt lon="5.644992" lat="51.026971"><ele>91.6</ele><time>2022-05-15T08:36:47.000Z</time></trkpt><trkpt lon="5.645081" lat="51.027028"><ele>91.6</ele><time>2022-05-15T08:36:48.000Z</time></trkpt><trkpt lon="5.645178" lat="51.027079"><ele>91.4</ele><time>2022-05-15T08:36:49.000Z</time></trkpt><trkpt lon="5.645274" lat="51.027125"><ele>91.4</ele><time>2022-05-15T08:36:50.000Z</time></trkpt><trkpt lon="5.645369" lat="51.02717"><ele>91.4</ele><time>2022-05-15T08:36:51.000Z</time></trkpt><trkpt lon="5.645463" lat="51.027215"><ele>91.2</ele><time>2022-05-15T08:36:52.000Z</time></trkpt><trkpt lon="5.645552" lat="51.027258"><ele>91</ele><time>2022-05-15T08:36:53.000Z</time></trkpt><trkpt lon="5.645644" lat="51.027285"><ele>91.2</ele><time>2022-05-15T08:36:54.000Z</time></trkpt><trkpt lon="5.645732" lat="51.027312"><ele>91.2</ele><time>2022-05-15T08:36:55.000Z</time></trkpt><trkpt lon="5.645809" lat="51.027343"><ele>91.2</ele><time>2022-05-15T08:36:56.000Z</time></trkpt><trkpt lon="5.64589" lat="51.027369"><ele>91</ele><time>2022-05-15T08:36:57.000Z</time></trkpt><trkpt lon="5.645969" lat="51.0274"><ele>91</ele><time>2022-05-15T08:36:58.000Z</time></trkpt><trkpt lon="5.646045" lat="51.027434"><ele>91</ele><time>2022-05-15T08:36:59.000Z</time></trkpt><trkpt lon="5.64612" lat="51.027465"><ele>90.8</ele><time>2022-05-15T08:37:00.000Z</time></trkpt><trkpt lon="5.646198" lat="51.027495"><ele>91</ele><time>2022-05-15T08:37:01.000Z</time></trkpt><trkpt lon="5.646292" lat="51.027525"><ele>91</ele><time>2022-05-15T08:37:02.000Z</time></trkpt><trkpt lon="5.646382" lat="51.027553"><ele>91</ele><time>2022-05-15T08:37:03.000Z</time></trkpt><trkpt lon="5.646475" lat="51.027579"><ele>91</ele><time>2022-05-15T08:37:04.000Z</time></trkpt><trkpt lon="5.646564" lat="51.027632"><ele>91</ele><time>2022-05-15T08:37:05.000Z</time></trkpt><trkpt lon="5.646659" lat="51.027671"><ele>91</ele><time>2022-05-15T08:37:06.000Z</time></trkpt><trkpt lon="5.646745" lat="51.027701"><ele>91</ele><time>2022-05-15T08:37:07.000Z</time></trkpt><trkpt lon="5.64683" lat="51.027732"><ele>91.2</ele><time>2022-05-15T08:37:08.000Z</time></trkpt><trkpt lon="5.646922" lat="51.027766"><ele>91</ele><time>2022-05-15T08:37:09.000Z</time></trkpt><trkpt lon="5.647035" lat="51.027814"><ele>91</ele><time>2022-05-15T08:37:10.000Z</time></trkpt><trkpt lon="5.647168" lat="51.027879"><ele>90.8</ele><time>2022-05-15T08:37:11.000Z</time></trkpt><trkpt lon="5.647278" lat="51.027933"><ele>90.8</ele><time>2022-05-15T08:37:12.000Z</time></trkpt><trkpt lon="5.647374" lat="51.027975"><ele>90.8</ele><time>2022-05-15T08:37:13.000Z</time></trkpt><trkpt lon="5.647474" lat="51.028032"><ele>90.6</ele><time>2022-05-15T08:37:14.000Z</time></trkpt><trkpt lon="5.647567" lat="51.028078"><ele>90.6</ele><time>2022-05-15T08:37:15.000Z</time></trkpt><trkpt lon="5.64767" lat="51.02811"><ele>90.6</ele><time>2022-05-15T08:37:16.000Z</time></trkpt><trkpt lon="5.647778" lat="51.028144"><ele>90.6</ele><time>2022-05-15T08:37:17.000Z</time></trkpt><trkpt lon="5.647876" lat="51.028193"><ele>90.6</ele><time>2022-05-15T08:37:18.000Z</time></trkpt><trkpt lon="5.647986" lat="51.028234"><ele>90.6</ele><time>2022-05-15T08:37:19.000Z</time></trkpt><trkpt lon="5.648105" lat="51.028281"><ele>90.6</ele><time>2022-05-15T08:37:20.000Z</time></trkpt><trkpt lon="5.648219" lat="51.028315"><ele>90.6</ele><time>2022-05-15T08:37:21.000Z</time></trkpt><trkpt lon="5.648331" lat="51.028357"><ele>90.6</ele><time>2022-05-15T08:37:22.000Z</time></trkpt><trkpt lon="5.648433" lat="51.028392"><ele>90.6</ele><time>2022-05-15T08:37:23.000Z</time></trkpt><trkpt lon="5.648543" lat="51.028433"><ele>90.4</ele><time>2022-05-15T08:37:24.000Z</time></trkpt><trkpt lon="5.648644" lat="51.028479"><ele>90.4</ele><time>2022-05-15T08:37:25.000Z</time></trkpt><trkpt lon="5.648748" lat="51.028525"><ele>90.4</ele><time>2022-05-15T08:37:26.000Z</time></trkpt><trkpt lon="5.648847" lat="51.028559"><ele>90.2</ele><time>2022-05-15T08:37:27.000Z</time></trkpt><trkpt lon="5.648934" lat="51.028605"><ele>90.2</ele><time>2022-05-15T08:37:28.000Z</time></trkpt><trkpt lon="5.649015" lat="51.02865"><ele>90.2</ele><time>2022-05-15T08:37:29.000Z</time></trkpt><trkpt lon="5.649113" lat="51.028685"><ele>90.2</ele><time>2022-05-15T08:37:30.000Z</time></trkpt><trkpt lon="5.649218" lat="51.028738"><ele>90.2</ele><time>2022-05-15T08:37:31.000Z</time></trkpt><trkpt lon="5.649325" lat="51.028769"><ele>90</ele><time>2022-05-15T08:37:32.000Z</time></trkpt><trkpt lon="5.649416" lat="51.028802"><ele>90</ele><time>2022-05-15T08:37:33.000Z</time></trkpt><trkpt lon="5.649516" lat="51.028845"><ele>90</ele><time>2022-05-15T08:37:34.000Z</time></trkpt><trkpt lon="5.649611" lat="51.028876"><ele>90</ele><time>2022-05-15T08:37:35.000Z</time></trkpt><trkpt lon="5.649714" lat="51.028918"><ele>90</ele><time>2022-05-15T08:37:36.000Z</time></trkpt><trkpt lon="5.649812" lat="51.028964"><ele>90</ele><time>2022-05-15T08:37:37.000Z</time></trkpt><trkpt lon="5.649904" lat="51.029006"><ele>90</ele><time>2022-05-15T08:37:38.000Z</time></trkpt><trkpt lon="5.650005" lat="51.029036"><ele>90</ele><time>2022-05-15T08:37:39.000Z</time></trkpt><trkpt lon="5.650095" lat="51.029071"><ele>90</ele><time>2022-05-15T08:37:40.000Z</time></trkpt><trkpt lon="5.650186" lat="51.029101"><ele>90</ele><time>2022-05-15T08:37:41.000Z</time></trkpt><trkpt lon="5.65027" lat="51.029132"><ele>90.2</ele><time>2022-05-15T08:37:42.000Z</time></trkpt><trkpt lon="5.650356" lat="51.029162"><ele>90.2</ele><time>2022-05-15T08:37:43.000Z</time></trkpt><trkpt lon="5.650444" lat="51.0292"><ele>90.2</ele><time>2022-05-15T08:37:44.000Z</time></trkpt><trkpt lon="5.650529" lat="51.029231"><ele>90.2</ele><time>2022-05-15T08:37:45.000Z</time></trkpt><trkpt lon="5.650616" lat="51.029265"><ele>90.2</ele><time>2022-05-15T08:37:46.000Z</time></trkpt><trkpt lon="5.650699" lat="51.0293"><ele>90.2</ele><time>2022-05-15T08:37:47.000Z</time></trkpt><trkpt lon="5.650801" lat="51.029326"><ele>90</ele><time>2022-05-15T08:37:48.000Z</time></trkpt><trkpt lon="5.6509" lat="51.029349"><ele>90</ele><time>2022-05-15T08:37:49.000Z</time></trkpt><trkpt lon="5.650997" lat="51.029372"><ele>90</ele><time>2022-05-15T08:37:50.000Z</time></trkpt><trkpt lon="5.651085" lat="51.029406"><ele>90</ele><time>2022-05-15T08:37:51.000Z</time></trkpt><trkpt lon="5.65117" lat="51.029444"><ele>90</ele><time>2022-05-15T08:37:52.000Z</time></trkpt><trkpt lon="5.651266" lat="51.029477"><ele>90</ele><time>2022-05-15T08:37:53.000Z</time></trkpt><trkpt lon="5.651368" lat="51.029506"><ele>90</ele><time>2022-05-15T08:37:54.000Z</time></trkpt><trkpt lon="5.651464" lat="51.029543"><ele>90</ele><time>2022-05-15T08:37:55.000Z</time></trkpt><trkpt lon="5.651563" lat="51.02957"><ele>90</ele><time>2022-05-15T08:37:56.000Z</time></trkpt><trkpt lon="5.651666" lat="51.029601"><ele>90</ele><time>2022-05-15T08:37:57.000Z</time></trkpt><trkpt lon="5.651766" lat="51.029646"><ele>90</ele><time>2022-05-15T08:37:58.000Z</time></trkpt><trkpt lon="5.651866" lat="51.029677"><ele>90</ele><time>2022-05-15T08:37:59.000Z</time></trkpt><trkpt lon="5.651967" lat="51.029704"><ele>89.8</ele><time>2022-05-15T08:38:00.000Z</time></trkpt><trkpt lon="5.652055" lat="51.029746"><ele>89.8</ele><time>2022-05-15T08:38:01.000Z</time></trkpt><trkpt lon="5.652142" lat="51.029784"><ele>89.8</ele><time>2022-05-15T08:38:02.000Z</time></trkpt><trkpt lon="5.652221" lat="51.029825"><ele>89.8</ele><time>2022-05-15T08:38:03.000Z</time></trkpt><trkpt lon="5.652293" lat="51.02986"><ele>89.8</ele><time>2022-05-15T08:38:04.000Z</time></trkpt><trkpt lon="5.652385" lat="51.029895"><ele>89.6</ele><time>2022-05-15T08:38:05.000Z</time></trkpt><trkpt lon="5.652482" lat="51.029936"><ele>89.8</ele><time>2022-05-15T08:38:06.000Z</time></trkpt><trkpt lon="5.65257" lat="51.029982"><ele>89.6</ele><time>2022-05-15T08:38:07.000Z</time></trkpt><trkpt lon="5.652675" lat="51.03002"><ele>89.6</ele><time>2022-05-15T08:38:08.000Z</time></trkpt><trkpt lon="5.652775" lat="51.030051"><ele>89.6</ele><time>2022-05-15T08:38:09.000Z</time></trkpt><trkpt lon="5.652874" lat="51.030089"><ele>89.6</ele><time>2022-05-15T08:38:10.000Z</time></trkpt><trkpt lon="5.652971" lat="51.030127"><ele>89.6</ele><time>2022-05-15T08:38:11.000Z</time></trkpt><trkpt lon="5.653058" lat="51.030165"><ele>89.6</ele><time>2022-05-15T08:38:12.000Z</time></trkpt><trkpt lon="5.653143" lat="51.030214"><ele>89.6</ele><time>2022-05-15T08:38:13.000Z</time></trkpt><trkpt lon="5.653229" lat="51.030249"><ele>89.6</ele><time>2022-05-15T08:38:14.000Z</time></trkpt><trkpt lon="5.653316" lat="51.030287"><ele>89.4</ele><time>2022-05-15T08:38:15.000Z</time></trkpt><trkpt lon="5.65342" lat="51.030322"><ele>89.4</ele><time>2022-05-15T08:38:16.000Z</time></trkpt><trkpt lon="5.65353" lat="51.030356"><ele>89.4</ele><time>2022-05-15T08:38:17.000Z</time></trkpt><trkpt lon="5.653628" lat="51.03039"><ele>89.4</ele><time>2022-05-15T08:38:18.000Z</time></trkpt><trkpt lon="5.653725" lat="51.030421"><ele>89.2</ele><time>2022-05-15T08:38:19.000Z</time></trkpt><trkpt lon="5.653818" lat="51.030458"><ele>89</ele><time>2022-05-15T08:38:20.000Z</time></trkpt><trkpt lon="5.653906" lat="51.0305"><ele>89</ele><time>2022-05-15T08:38:21.000Z</time></trkpt><trkpt lon="5.653999" lat="51.030532"><ele>88.8</ele><time>2022-05-15T08:38:22.000Z</time></trkpt><trkpt lon="5.654087" lat="51.030566"><ele>88.8</ele><time>2022-05-15T08:38:23.000Z</time></trkpt><trkpt lon="5.654174" lat="51.030596"><ele>88.8</ele><time>2022-05-15T08:38:24.000Z</time></trkpt><trkpt lon="5.65427" lat="51.030623"><ele>89</ele><time>2022-05-15T08:38:25.000Z</time></trkpt><trkpt lon="5.654366" lat="51.030643"><ele>89</ele><time>2022-05-15T08:38:26.000Z</time></trkpt><trkpt lon="5.654449" lat="51.030676"><ele>89.2</ele><time>2022-05-15T08:38:27.000Z</time></trkpt><trkpt lon="5.654529" lat="51.030704"><ele>89.2</ele><time>2022-05-15T08:38:28.000Z</time></trkpt><trkpt lon="5.654621" lat="51.030723"><ele>89.2</ele><time>2022-05-15T08:38:29.000Z</time></trkpt><trkpt lon="5.654705" lat="51.030746"><ele>89.4</ele><time>2022-05-15T08:38:30.000Z</time></trkpt><trkpt lon="5.65481" lat="51.030765"><ele>89.4</ele><time>2022-05-15T08:38:31.000Z</time></trkpt><trkpt lon="5.654892" lat="51.03079"><ele>89.6</ele><time>2022-05-15T08:38:32.000Z</time></trkpt><trkpt lon="5.655025" lat="51.030836"><ele>89.4</ele><time>2022-05-15T08:38:33.000Z</time></trkpt><trkpt lon="5.655154" lat="51.030882"><ele>89.4</ele><time>2022-05-15T08:38:34.000Z</time></trkpt><trkpt lon="5.655269" lat="51.030928"><ele>89.2</ele><time>2022-05-15T08:38:35.000Z</time></trkpt><trkpt lon="5.655376" lat="51.030966"><ele>89.2</ele><time>2022-05-15T08:38:36.000Z</time></trkpt><trkpt lon="5.655482" lat="51.030997"><ele>89.2</ele><time>2022-05-15T08:38:37.000Z</time></trkpt><trkpt lon="5.655607" lat="51.03105"><ele>89.2</ele><time>2022-05-15T08:38:38.000Z</time></trkpt><trkpt lon="5.655711" lat="51.031088"><ele>89.2</ele><time>2022-05-15T08:38:39.000Z</time></trkpt><trkpt lon="5.655815" lat="51.031127"><ele>89.2</ele><time>2022-05-15T08:38:40.000Z</time></trkpt><trkpt lon="5.655943" lat="51.031183"><ele>89.2</ele><time>2022-05-15T08:38:41.000Z</time></trkpt><trkpt lon="5.656069" lat="51.031229"><ele>89.2</ele><time>2022-05-15T08:38:42.000Z</time></trkpt><trkpt lon="5.656184" lat="51.031274"><ele>89.4</ele><time>2022-05-15T08:38:43.000Z</time></trkpt><trkpt lon="5.656299" lat="51.031314"><ele>89.4</ele><time>2022-05-15T08:38:44.000Z</time></trkpt><trkpt lon="5.656401" lat="51.031355"><ele>89.6</ele><time>2022-05-15T08:38:45.000Z</time></trkpt><trkpt lon="5.656501" lat="51.031386"><ele>89.6</ele><time>2022-05-15T08:38:46.000Z</time></trkpt><trkpt lon="5.656598" lat="51.03142"><ele>89.6</ele><time>2022-05-15T08:38:47.000Z</time></trkpt><trkpt lon="5.656695" lat="51.031458"><ele>89.6</ele><time>2022-05-15T08:38:48.000Z</time></trkpt><trkpt lon="5.65679" lat="51.031492"><ele>89.6</ele><time>2022-05-15T08:38:49.000Z</time></trkpt><trkpt lon="5.656883" lat="51.031534"><ele>89.6</ele><time>2022-05-15T08:38:50.000Z</time></trkpt><trkpt lon="5.656978" lat="51.031568"><ele>89.6</ele><time>2022-05-15T08:38:51.000Z</time></trkpt><trkpt lon="5.657073" lat="51.031605"><ele>89.6</ele><time>2022-05-15T08:38:52.000Z</time></trkpt><trkpt lon="5.65718" lat="51.031649"><ele>89.6</ele><time>2022-05-15T08:38:53.000Z</time></trkpt><trkpt lon="5.657278" lat="51.031695"><ele>89.6</ele><time>2022-05-15T08:38:54.000Z</time></trkpt><trkpt lon="5.657371" lat="51.031737"><ele>89.6</ele><time>2022-05-15T08:38:55.000Z</time></trkpt><trkpt lon="5.657463" lat="51.031779"><ele>89.6</ele><time>2022-05-15T08:38:56.000Z</time></trkpt><trkpt lon="5.657557" lat="51.031817"><ele>89.4</ele><time>2022-05-15T08:38:57.000Z</time></trkpt><trkpt lon="5.657653" lat="51.031859"><ele>89.4</ele><time>2022-05-15T08:38:58.000Z</time></trkpt><trkpt lon="5.65775" lat="51.031897"><ele>89.4</ele><time>2022-05-15T08:38:59.000Z</time></trkpt><trkpt lon="5.657848" lat="51.031928"><ele>89.2</ele><time>2022-05-15T08:39:00.000Z</time></trkpt><trkpt lon="5.657951" lat="51.031969"><ele>89</ele><time>2022-05-15T08:39:01.000Z</time></trkpt><trkpt lon="5.658056" lat="51.032004"><ele>89</ele><time>2022-05-15T08:39:02.000Z</time></trkpt><trkpt lon="5.658157" lat="51.032042"><ele>89</ele><time>2022-05-15T08:39:03.000Z</time></trkpt><trkpt lon="5.658261" lat="51.032084"><ele>89</ele><time>2022-05-15T08:39:04.000Z</time></trkpt><trkpt lon="5.658361" lat="51.032118"><ele>89</ele><time>2022-05-15T08:39:05.000Z</time></trkpt><trkpt lon="5.658461" lat="51.032153"><ele>89</ele><time>2022-05-15T08:39:06.000Z</time></trkpt><trkpt lon="5.658562" lat="51.032184"><ele>88.8</ele><time>2022-05-15T08:39:07.000Z</time></trkpt><trkpt lon="5.658665" lat="51.032218"><ele>88.8</ele><time>2022-05-15T08:39:08.000Z</time></trkpt><trkpt lon="5.658758" lat="51.032252"><ele>88.6</ele><time>2022-05-15T08:39:09.000Z</time></trkpt><trkpt lon="5.658845" lat="51.032286"><ele>88.6</ele><time>2022-05-15T08:39:10.000Z</time></trkpt><trkpt lon="5.658927" lat="51.032321"><ele>88.6</ele><time>2022-05-15T08:39:11.000Z</time></trkpt><trkpt lon="5.659011" lat="51.032351"><ele>88.4</ele><time>2022-05-15T08:39:12.000Z</time></trkpt><trkpt lon="5.659098" lat="51.032382"><ele>88.4</ele><time>2022-05-15T08:39:13.000Z</time></trkpt><trkpt lon="5.659185" lat="51.032409"><ele>88.6</ele><time>2022-05-15T08:39:14.000Z</time></trkpt><trkpt lon="5.659265" lat="51.032438"><ele>88.6</ele><time>2022-05-15T08:39:15.000Z</time></trkpt><trkpt lon="5.659351" lat="51.032477"><ele>88.6</ele><time>2022-05-15T08:39:16.000Z</time></trkpt><trkpt lon="5.659436" lat="51.032515"><ele>88.8</ele><time>2022-05-15T08:39:17.000Z</time></trkpt><trkpt lon="5.659526" lat="51.032549"><ele>88.8</ele><time>2022-05-15T08:39:18.000Z</time></trkpt><trkpt lon="5.659615" lat="51.03258"><ele>88.8</ele><time>2022-05-15T08:39:19.000Z</time></trkpt><trkpt lon="5.659706" lat="51.032611"><ele>88.8</ele><time>2022-05-15T08:39:20.000Z</time></trkpt><trkpt lon="5.659797" lat="51.032649"><ele>88.8</ele><time>2022-05-15T08:39:21.000Z</time></trkpt><trkpt lon="5.659891" lat="51.032687"><ele>88.6</ele><time>2022-05-15T08:39:22.000Z</time></trkpt><trkpt lon="5.659978" lat="51.032721"><ele>88.6</ele><time>2022-05-15T08:39:23.000Z</time></trkpt><trkpt lon="5.660063" lat="51.032763"><ele>88.4</ele><time>2022-05-15T08:39:24.000Z</time></trkpt><trkpt lon="5.660145" lat="51.032809"><ele>88.4</ele><time>2022-05-15T08:39:25.000Z</time></trkpt><trkpt lon="5.660232" lat="51.032847"><ele>88.4</ele><time>2022-05-15T08:39:26.000Z</time></trkpt><trkpt lon="5.660317" lat="51.032884"><ele>88.4</ele><time>2022-05-15T08:39:27.000Z</time></trkpt><trkpt lon="5.66041" lat="51.03292"><ele>88.6</ele><time>2022-05-15T08:39:28.000Z</time></trkpt><trkpt lon="5.660499" lat="51.032965"><ele>88.6</ele><time>2022-05-15T08:39:29.000Z</time></trkpt><trkpt lon="5.660584" lat="51.033003"><ele>88.4</ele><time>2022-05-15T08:39:30.000Z</time></trkpt><trkpt lon="5.66067" lat="51.033042"><ele>88.4</ele><time>2022-05-15T08:39:31.000Z</time></trkpt><trkpt lon="5.660765" lat="51.033076"><ele>88.4</ele><time>2022-05-15T08:39:32.000Z</time></trkpt><trkpt lon="5.660857" lat="51.033114"><ele>88.4</ele><time>2022-05-15T08:39:33.000Z</time></trkpt><trkpt lon="5.66095" lat="51.033156"><ele>88.4</ele><time>2022-05-15T08:39:34.000Z</time></trkpt><trkpt lon="5.661047" lat="51.033198"><ele>88.4</ele><time>2022-05-15T08:39:35.000Z</time></trkpt><trkpt lon="5.661139" lat="51.033233"><ele>88.4</ele><time>2022-05-15T08:39:36.000Z</time></trkpt><trkpt lon="5.661215" lat="51.033267"><ele>88.4</ele><time>2022-05-15T08:39:37.000Z</time></trkpt><trkpt lon="5.661295" lat="51.033301"><ele>88.6</ele><time>2022-05-15T08:39:38.000Z</time></trkpt><trkpt lon="5.661377" lat="51.033335"><ele>88.8</ele><time>2022-05-15T08:39:39.000Z</time></trkpt><trkpt lon="5.661459" lat="51.033366"><ele>88.8</ele><time>2022-05-15T08:39:40.000Z</time></trkpt><trkpt lon="5.661548" lat="51.0334"><ele>88.8</ele><time>2022-05-15T08:39:41.000Z</time></trkpt><trkpt lon="5.66165" lat="51.033427"><ele>88.8</ele><time>2022-05-15T08:39:42.000Z</time></trkpt><trkpt lon="5.661735" lat="51.033457"><ele>89</ele><time>2022-05-15T08:39:43.000Z</time></trkpt><trkpt lon="5.661823" lat="51.033484"><ele>89</ele><time>2022-05-15T08:39:44.000Z</time></trkpt><trkpt lon="5.661903" lat="51.033515"><ele>89</ele><time>2022-05-15T08:39:45.000Z</time></trkpt><trkpt lon="5.661983" lat="51.033545"><ele>89</ele><time>2022-05-15T08:39:46.000Z</time></trkpt><trkpt lon="5.662089" lat="51.033587"><ele>89</ele><time>2022-05-15T08:39:47.000Z</time></trkpt><trkpt lon="5.662179" lat="51.033625"><ele>89</ele><time>2022-05-15T08:39:48.000Z</time></trkpt><trkpt lon="5.662296" lat="51.033663"><ele>89</ele><time>2022-05-15T08:39:49.000Z</time></trkpt><trkpt lon="5.662389" lat="51.033698"><ele>89</ele><time>2022-05-15T08:39:50.000Z</time></trkpt><trkpt lon="5.662475" lat="51.033732"><ele>89</ele><time>2022-05-15T08:39:51.000Z</time></trkpt><trkpt lon="5.662568" lat="51.033766"><ele>89</ele><time>2022-05-15T08:39:52.000Z</time></trkpt><trkpt lon="5.662657" lat="51.033812"><ele>89</ele><time>2022-05-15T08:39:53.000Z</time></trkpt><trkpt lon="5.662746" lat="51.033843"><ele>89</ele><time>2022-05-15T08:39:54.000Z</time></trkpt><trkpt lon="5.66284" lat="51.033866"><ele>89</ele><time>2022-05-15T08:39:55.000Z</time></trkpt><trkpt lon="5.662944" lat="51.033889"><ele>89.2</ele><time>2022-05-15T08:39:56.000Z</time></trkpt><trkpt lon="5.663031" lat="51.033923"><ele>89.2</ele><time>2022-05-15T08:39:57.000Z</time></trkpt><trkpt lon="5.663118" lat="51.033953"><ele>89.2</ele><time>2022-05-15T08:39:58.000Z</time></trkpt><trkpt lon="5.663223" lat="51.03398"><ele>89.2</ele><time>2022-05-15T08:39:59.000Z</time></trkpt><trkpt lon="5.663327" lat="51.034007"><ele>89.2</ele><time>2022-05-15T08:40:00.000Z</time></trkpt><trkpt lon="5.663415" lat="51.034045"><ele>89.2</ele><time>2022-05-15T08:40:01.000Z</time></trkpt><trkpt lon="5.663522" lat="51.034068"><ele>89.2</ele><time>2022-05-15T08:40:02.000Z</time></trkpt><trkpt lon="5.663646" lat="51.034113"><ele>89.2</ele><time>2022-05-15T08:40:03.000Z</time></trkpt><trkpt lon="5.663754" lat="51.034155"><ele>89.2</ele><time>2022-05-15T08:40:04.000Z</time></trkpt><trkpt lon="5.663847" lat="51.03419"><ele>89.2</ele><time>2022-05-15T08:40:05.000Z</time></trkpt><trkpt lon="5.663934" lat="51.034221"><ele>89.2</ele><time>2022-05-15T08:40:06.000Z</time></trkpt><trkpt lon="5.664027" lat="51.034258"><ele>89</ele><time>2022-05-15T08:40:07.000Z</time></trkpt><trkpt lon="5.664127" lat="51.034293"><ele>89</ele><time>2022-05-15T08:40:08.000Z</time></trkpt><trkpt lon="5.664207" lat="51.034326"><ele>89</ele><time>2022-05-15T08:40:09.000Z</time></trkpt><trkpt lon="5.664295" lat="51.034365"><ele>89</ele><time>2022-05-15T08:40:10.000Z</time></trkpt><trkpt lon="5.66438" lat="51.034402"><ele>89</ele><time>2022-05-15T08:40:11.000Z</time></trkpt><trkpt lon="5.664478" lat="51.034436"><ele>89</ele><time>2022-05-15T08:40:12.000Z</time></trkpt><trkpt lon="5.664583" lat="51.034472"><ele>89</ele><time>2022-05-15T08:40:13.000Z</time></trkpt><trkpt lon="5.664694" lat="51.03451"><ele>89.2</ele><time>2022-05-15T08:40:14.000Z</time></trkpt><trkpt lon="5.664798" lat="51.034552"><ele>89.2</ele><time>2022-05-15T08:40:15.000Z</time></trkpt><trkpt lon="5.664903" lat="51.03459"><ele>89.2</ele><time>2022-05-15T08:40:16.000Z</time></trkpt><trkpt lon="5.665003" lat="51.034628"><ele>89.2</ele><time>2022-05-15T08:40:17.000Z</time></trkpt><trkpt lon="5.665108" lat="51.034667"><ele>89</ele><time>2022-05-15T08:40:18.000Z</time></trkpt><trkpt lon="5.665205" lat="51.034694"><ele>89</ele><time>2022-05-15T08:40:19.000Z</time></trkpt><trkpt lon="5.665303" lat="51.03472"><ele>89</ele><time>2022-05-15T08:40:20.000Z</time></trkpt><trkpt lon="5.665385" lat="51.034747"><ele>89</ele><time>2022-05-15T08:40:21.000Z</time></trkpt><trkpt lon="5.665465" lat="51.03477"><ele>89</ele><time>2022-05-15T08:40:22.000Z</time></trkpt><trkpt lon="5.665545" lat="51.034793"><ele>89</ele><time>2022-05-15T08:40:23.000Z</time></trkpt><trkpt lon="5.665619" lat="51.034823"><ele>89</ele><time>2022-05-15T08:40:24.000Z</time></trkpt><trkpt lon="5.665703" lat="51.034876"><ele>89</ele><time>2022-05-15T08:40:25.000Z</time></trkpt><trkpt lon="5.66578" lat="51.034922"><ele>88.8</ele><time>2022-05-15T08:40:26.000Z</time></trkpt><trkpt lon="5.665856" lat="51.034964"><ele>88.8</ele><time>2022-05-15T08:40:27.000Z</time></trkpt><trkpt lon="5.665935" lat="51.034991"><ele>88.8</ele><time>2022-05-15T08:40:28.000Z</time></trkpt><trkpt lon="5.666025" lat="51.035025"><ele>88.6</ele><time>2022-05-15T08:40:29.000Z</time></trkpt><trkpt lon="5.666102" lat="51.035049"><ele>88.8</ele><time>2022-05-15T08:40:30.000Z</time></trkpt><trkpt lon="5.666166" lat="51.035075"><ele>88.8</ele><time>2022-05-15T08:40:31.000Z</time></trkpt><trkpt lon="5.666226" lat="51.035094"><ele>88.8</ele><time>2022-05-15T08:40:32.000Z</time></trkpt><trkpt lon="5.666299" lat="51.03511"><ele>88.8</ele><time>2022-05-15T08:40:33.000Z</time></trkpt><trkpt lon="5.666364" lat="51.035121"><ele>88.6</ele><time>2022-05-15T08:40:34.000Z</time></trkpt><trkpt lon="5.666425" lat="51.035145"><ele>88.6</ele><time>2022-05-15T08:40:35.000Z</time></trkpt><trkpt lon="5.666489" lat="51.035171"><ele>88.6</ele><time>2022-05-15T08:40:36.000Z</time></trkpt><trkpt lon="5.666543" lat="51.035194"><ele>88.6</ele><time>2022-05-15T08:40:37.000Z</time></trkpt><trkpt lon="5.66657" lat="51.035216"><ele>88.6</ele><time>2022-05-15T08:40:38.000Z</time></trkpt><trkpt lon="5.666583" lat="51.035247"><ele>88.6</ele><time>2022-05-15T08:40:39.000Z</time></trkpt><trkpt lon="5.666569" lat="51.035274"><ele>88.4</ele><time>2022-05-15T08:40:40.000Z</time></trkpt><trkpt lon="5.666533" lat="51.035308"><ele>88.4</ele><time>2022-05-15T08:40:41.000Z</time></trkpt><trkpt lon="5.666483" lat="51.035335"><ele>88.4</ele><time>2022-05-15T08:40:42.000Z</time></trkpt><trkpt lon="5.66643" lat="51.035369"><ele>88.6</ele><time>2022-05-15T08:40:43.000Z</time></trkpt><trkpt lon="5.666377" lat="51.035399"><ele>88.6</ele><time>2022-05-15T08:40:44.000Z</time></trkpt><trkpt lon="5.666333" lat="51.035436"><ele>88.6</ele><time>2022-05-15T08:40:45.000Z</time></trkpt><trkpt lon="5.666277" lat="51.035468"><ele>88.4</ele><time>2022-05-15T08:40:46.000Z</time></trkpt><trkpt lon="5.666216" lat="51.035495"><ele>88.4</ele><time>2022-05-15T08:40:47.000Z</time></trkpt><trkpt lon="5.66616" lat="51.035525"><ele>88.2</ele><time>2022-05-15T08:40:48.000Z</time></trkpt><trkpt lon="5.666103" lat="51.035563"><ele>88.2</ele><time>2022-05-15T08:40:49.000Z</time></trkpt><trkpt lon="5.666047" lat="51.035608"><ele>88.2</ele><time>2022-05-15T08:40:50.000Z</time></trkpt><trkpt lon="5.665979" lat="51.035647"><ele>88</ele><time>2022-05-15T08:40:51.000Z</time></trkpt><trkpt lon="5.665912" lat="51.035685"><ele>88.2</ele><time>2022-05-15T08:40:52.000Z</time></trkpt><trkpt lon="5.665844" lat="51.035724"><ele>88.2</ele><time>2022-05-15T08:40:53.000Z</time></trkpt><trkpt lon="5.665777" lat="51.035762"><ele>88.2</ele><time>2022-05-15T08:40:54.000Z</time></trkpt><trkpt lon="5.665714" lat="51.0358"><ele>88.2</ele><time>2022-05-15T08:40:55.000Z</time></trkpt><trkpt lon="5.665652" lat="51.035838"><ele>88.4</ele><time>2022-05-15T08:40:56.000Z</time></trkpt><trkpt lon="5.665586" lat="51.035875"><ele>88.4</ele><time>2022-05-15T08:40:57.000Z</time></trkpt><trkpt lon="5.665518" lat="51.035917"><ele>88.4</ele><time>2022-05-15T08:40:58.000Z</time></trkpt><trkpt lon="5.66545" lat="51.035956"><ele>88.6</ele><time>2022-05-15T08:40:59.000Z</time></trkpt><trkpt lon="5.665384" lat="51.035987"><ele>88.6</ele><time>2022-05-15T08:41:00.000Z</time></trkpt><trkpt lon="5.665317" lat="51.036021"><ele>88.8</ele><time>2022-05-15T08:41:01.000Z</time></trkpt><trkpt lon="5.665246" lat="51.036055"><ele>88.8</ele><time>2022-05-15T08:41:02.000Z</time></trkpt><trkpt lon="5.665179" lat="51.036093"><ele>89</ele><time>2022-05-15T08:41:03.000Z</time></trkpt><trkpt lon="5.665111" lat="51.036131"><ele>89</ele><time>2022-05-15T08:41:04.000Z</time></trkpt><trkpt lon="5.665047" lat="51.036166"><ele>89.2</ele><time>2022-05-15T08:41:05.000Z</time></trkpt><trkpt lon="5.66498" lat="51.036197"><ele>89.2</ele><time>2022-05-15T08:41:06.000Z</time></trkpt><trkpt lon="5.664907" lat="51.036224"><ele>89.4</ele><time>2022-05-15T08:41:07.000Z</time></trkpt><trkpt lon="5.664826" lat="51.03625"><ele>89.4</ele><time>2022-05-15T08:41:08.000Z</time></trkpt><trkpt lon="5.664747" lat="51.036277"><ele>89.4</ele><time>2022-05-15T08:41:09.000Z</time></trkpt><trkpt lon="5.664672" lat="51.036296"><ele>89.6</ele><time>2022-05-15T08:41:10.000Z</time></trkpt><trkpt lon="5.664598" lat="51.036318"><ele>89.6</ele><time>2022-05-15T08:41:11.000Z</time></trkpt><trkpt lon="5.66452" lat="51.036341"><ele>89.6</ele><time>2022-05-15T08:41:12.000Z</time></trkpt><trkpt lon="5.664434" lat="51.036365"><ele>89.6</ele><time>2022-05-15T08:41:13.000Z</time></trkpt><trkpt lon="5.664354" lat="51.036388"><ele>89.6</ele><time>2022-05-15T08:41:14.000Z</time></trkpt><trkpt lon="5.664279" lat="51.036411"><ele>89.6</ele><time>2022-05-15T08:41:15.000Z</time></trkpt><trkpt lon="5.664203" lat="51.03643"><ele>89.6</ele><time>2022-05-15T08:41:16.000Z</time></trkpt><trkpt lon="5.66413" lat="51.036449"><ele>89.6</ele><time>2022-05-15T08:41:17.000Z</time></trkpt><trkpt lon="5.664061" lat="51.036468"><ele>89.4</ele><time>2022-05-15T08:41:18.000Z</time></trkpt><trkpt lon="5.66398" lat="51.03648"><ele>89.4</ele><time>2022-05-15T08:41:19.000Z</time></trkpt><trkpt lon="5.663885" lat="51.036495"><ele>89.4</ele><time>2022-05-15T08:41:20.000Z</time></trkpt><trkpt lon="5.66379" lat="51.036517"><ele>89.4</ele><time>2022-05-15T08:41:21.000Z</time></trkpt><trkpt lon="5.663694" lat="51.036544"><ele>89.4</ele><time>2022-05-15T08:41:22.000Z</time></trkpt><trkpt lon="5.663579" lat="51.036574"><ele>89.4</ele><time>2022-05-15T08:41:23.000Z</time></trkpt><trkpt lon="5.663468" lat="51.036601"><ele>89.4</ele><time>2022-05-15T08:41:24.000Z</time></trkpt><trkpt lon="5.663367" lat="51.036628"><ele>89.4</ele><time>2022-05-15T08:41:25.000Z</time></trkpt><trkpt lon="5.663259" lat="51.036651"><ele>89.4</ele><time>2022-05-15T08:41:26.000Z</time></trkpt><trkpt lon="5.663123" lat="51.036662"><ele>89.2</ele><time>2022-05-15T08:41:27.000Z</time></trkpt><trkpt lon="5.663004" lat="51.036678"><ele>89.2</ele><time>2022-05-15T08:41:28.000Z</time></trkpt><trkpt lon="5.662876" lat="51.036708"><ele>89.2</ele><time>2022-05-15T08:41:29.000Z</time></trkpt><trkpt lon="5.662756" lat="51.036727"><ele>89</ele><time>2022-05-15T08:41:30.000Z</time></trkpt><trkpt lon="5.662641" lat="51.036743"><ele>88.8</ele><time>2022-05-15T08:41:31.000Z</time></trkpt><trkpt lon="5.662505" lat="51.036747"><ele>88.8</ele><time>2022-05-15T08:41:32.000Z</time></trkpt><trkpt lon="5.662377" lat="51.036762"><ele>88.6</ele><time>2022-05-15T08:41:33.000Z</time></trkpt><trkpt lon="5.66226" lat="51.036777"><ele>88.6</ele><time>2022-05-15T08:41:34.000Z</time></trkpt><trkpt lon="5.662149" lat="51.036799"><ele>88.6</ele><time>2022-05-15T08:41:35.000Z</time></trkpt><trkpt lon="5.662047" lat="51.036819"><ele>88.6</ele><time>2022-05-15T08:41:36.000Z</time></trkpt><trkpt lon="5.661944" lat="51.036838"><ele>88.4</ele><time>2022-05-15T08:41:37.000Z</time></trkpt><trkpt lon="5.661852" lat="51.036857"><ele>88.4</ele><time>2022-05-15T08:41:38.000Z</time></trkpt><trkpt lon="5.661759" lat="51.036876"><ele>88.4</ele><time>2022-05-15T08:41:39.000Z</time></trkpt><trkpt lon="5.661659" lat="51.036895"><ele>88.2</ele><time>2022-05-15T08:41:40.000Z</time></trkpt><trkpt lon="5.661553" lat="51.036903"><ele>88.2</ele><time>2022-05-15T08:41:41.000Z</time></trkpt><trkpt lon="5.661454" lat="51.036914"><ele>88.2</ele><time>2022-05-15T08:41:42.000Z</time></trkpt><trkpt lon="5.661365" lat="51.036926"><ele>88.4</ele><time>2022-05-15T08:41:43.000Z</time></trkpt><trkpt lon="5.66127" lat="51.036941"><ele>88.6</ele><time>2022-05-15T08:41:44.000Z</time></trkpt><trkpt lon="5.661175" lat="51.036956"><ele>88.6</ele><time>2022-05-15T08:41:45.000Z</time></trkpt><trkpt lon="5.661078" lat="51.036972"><ele>88.6</ele><time>2022-05-15T08:41:46.000Z</time></trkpt><trkpt lon="5.660987" lat="51.036987"><ele>88.6</ele><time>2022-05-15T08:41:47.000Z</time></trkpt><trkpt lon="5.660888" lat="51.036998"><ele>88.4</ele><time>2022-05-15T08:41:48.000Z</time></trkpt><trkpt lon="5.660798" lat="51.037014"><ele>88.4</ele><time>2022-05-15T08:41:49.000Z</time></trkpt><trkpt lon="5.660705" lat="51.037032"><ele>88.2</ele><time>2022-05-15T08:41:50.000Z</time></trkpt><trkpt lon="5.660603" lat="51.037066"><ele>88</ele><time>2022-05-15T08:41:51.000Z</time></trkpt><trkpt lon="5.660513" lat="51.037088"><ele>88</ele><time>2022-05-15T08:41:52.000Z</time></trkpt><trkpt lon="5.660389" lat="51.037138"><ele>87.8</ele><time>2022-05-15T08:41:53.000Z</time></trkpt><trkpt lon="5.660259" lat="51.037202"><ele>87.8</ele><time>2022-05-15T08:41:54.000Z</time></trkpt><trkpt lon="5.660126" lat="51.037237"><ele>88</ele><time>2022-05-15T08:41:55.000Z</time></trkpt><trkpt lon="5.659993" lat="51.037257"><ele>88.2</ele><time>2022-05-15T08:41:56.000Z</time></trkpt><trkpt lon="5.659877" lat="51.037262"><ele>88.2</ele><time>2022-05-15T08:41:57.000Z</time></trkpt><trkpt lon="5.659735" lat="51.037248"><ele>88</ele><time>2022-05-15T08:41:58.000Z</time></trkpt><trkpt lon="5.659575" lat="51.037261"><ele>88</ele><time>2022-05-15T08:41:59.000Z</time></trkpt><trkpt lon="5.659439" lat="51.037273"><ele>88</ele><time>2022-05-15T08:42:00.000Z</time></trkpt><trkpt lon="5.659304" lat="51.037281"><ele>88.2</ele><time>2022-05-15T08:42:01.000Z</time></trkpt><trkpt lon="5.659164" lat="51.037274"><ele>88</ele><time>2022-05-15T08:42:02.000Z</time></trkpt><trkpt lon="5.65902" lat="51.037273"><ele>88</ele><time>2022-05-15T08:42:03.000Z</time></trkpt><trkpt lon="5.658892" lat="51.037273"><ele>88</ele><time>2022-05-15T08:42:04.000Z</time></trkpt><trkpt lon="5.658768" lat="51.037262"><ele>88.2</ele><time>2022-05-15T08:42:05.000Z</time></trkpt><trkpt lon="5.658644" lat="51.037258"><ele>88.2</ele><time>2022-05-15T08:42:06.000Z</time></trkpt><trkpt lon="5.658525" lat="51.037251"><ele>88.4</ele><time>2022-05-15T08:42:07.000Z</time></trkpt><trkpt lon="5.658405" lat="51.037239"><ele>88.4</ele><time>2022-05-15T08:42:08.000Z</time></trkpt><trkpt lon="5.658288" lat="51.03722"><ele>88.6</ele><time>2022-05-15T08:42:09.000Z</time></trkpt><trkpt lon="5.658176" lat="51.037209"><ele>88.4</ele><time>2022-05-15T08:42:10.000Z</time></trkpt><trkpt lon="5.658068" lat="51.037201"><ele>88.4</ele><time>2022-05-15T08:42:11.000Z</time></trkpt><trkpt lon="5.657965" lat="51.037194"><ele>88.4</ele><time>2022-05-15T08:42:12.000Z</time></trkpt><trkpt lon="5.657844" lat="51.037186"><ele>88.4</ele><time>2022-05-15T08:42:13.000Z</time></trkpt><trkpt lon="5.657712" lat="51.037178"><ele>88.4</ele><time>2022-05-15T08:42:14.000Z</time></trkpt><trkpt lon="5.657591" lat="51.037171"><ele>88.4</ele><time>2022-05-15T08:42:15.000Z</time></trkpt><trkpt lon="5.657475" lat="51.037163"><ele>88.4</ele><time>2022-05-15T08:42:16.000Z</time></trkpt><trkpt lon="5.657346" lat="51.037155"><ele>88.4</ele><time>2022-05-15T08:42:17.000Z</time></trkpt><trkpt lon="5.65722" lat="51.037148"><ele>88.4</ele><time>2022-05-15T08:42:18.000Z</time></trkpt><trkpt lon="5.657086" lat="51.037136"><ele>88.4</ele><time>2022-05-15T08:42:19.000Z</time></trkpt><trkpt lon="5.656966" lat="51.037129"><ele>88.4</ele><time>2022-05-15T08:42:20.000Z</time></trkpt><trkpt lon="5.656846" lat="51.037125"><ele>88.4</ele><time>2022-05-15T08:42:21.000Z</time></trkpt><trkpt lon="5.656713" lat="51.037114"><ele>88.4</ele><time>2022-05-15T08:42:22.000Z</time></trkpt><trkpt lon="5.65658" lat="51.03711"><ele>88.2</ele><time>2022-05-15T08:42:23.000Z</time></trkpt><trkpt lon="5.656469" lat="51.037097"><ele>88.2</ele><time>2022-05-15T08:42:24.000Z</time></trkpt><trkpt lon="5.656325" lat="51.037084"><ele>88</ele><time>2022-05-15T08:42:25.000Z</time></trkpt><trkpt lon="5.656194" lat="51.037072"><ele>88</ele><time>2022-05-15T08:42:26.000Z</time></trkpt><trkpt lon="5.656069" lat="51.037064"><ele>88</ele><time>2022-05-15T08:42:27.000Z</time></trkpt><trkpt lon="5.655949" lat="51.037053"><ele>88</ele><time>2022-05-15T08:42:28.000Z</time></trkpt><trkpt lon="5.655823" lat="51.037041"><ele>88.2</ele><time>2022-05-15T08:42:29.000Z</time></trkpt><trkpt lon="5.655699" lat="51.037033"><ele>88</ele><time>2022-05-15T08:42:30.000Z</time></trkpt><trkpt lon="5.655573" lat="51.037029"><ele>88</ele><time>2022-05-15T08:42:31.000Z</time></trkpt><trkpt lon="5.655454" lat="51.037022"><ele>88.4</ele><time>2022-05-15T08:42:32.000Z</time></trkpt><trkpt lon="5.655332" lat="51.037014"><ele>88.4</ele><time>2022-05-15T08:42:33.000Z</time></trkpt><trkpt lon="5.655211" lat="51.037007"><ele>88.4</ele><time>2022-05-15T08:42:34.000Z</time></trkpt><trkpt lon="5.655081" lat="51.037003"><ele>88.4</ele><time>2022-05-15T08:42:35.000Z</time></trkpt><trkpt lon="5.654951" lat="51.036995"><ele>88.4</ele><time>2022-05-15T08:42:36.000Z</time></trkpt><trkpt lon="5.654823" lat="51.036991"><ele>88.4</ele><time>2022-05-15T08:42:37.000Z</time></trkpt><trkpt lon="5.654696" lat="51.036984"><ele>88.4</ele><time>2022-05-15T08:42:38.000Z</time></trkpt><trkpt lon="5.654568" lat="51.03698"><ele>88.2</ele><time>2022-05-15T08:42:39.000Z</time></trkpt><trkpt lon="5.654441" lat="51.036972"><ele>88.2</ele><time>2022-05-15T08:42:40.000Z</time></trkpt><trkpt lon="5.654313" lat="51.036965"><ele>88</ele><time>2022-05-15T08:42:41.000Z</time></trkpt><trkpt lon="5.654186" lat="51.036961"><ele>87.8</ele><time>2022-05-15T08:42:42.000Z</time></trkpt><trkpt lon="5.654058" lat="51.036953"><ele>87.6</ele><time>2022-05-15T08:42:43.000Z</time></trkpt><trkpt lon="5.65393" lat="51.036946"><ele>87.4</ele><time>2022-05-15T08:42:44.000Z</time></trkpt><trkpt lon="5.653802" lat="51.036938"><ele>87.4</ele><time>2022-05-15T08:42:45.000Z</time></trkpt><trkpt lon="5.653675" lat="51.036934"><ele>87.4</ele><time>2022-05-15T08:42:46.000Z</time></trkpt><trkpt lon="5.653552" lat="51.03693"><ele>87.6</ele><time>2022-05-15T08:42:47.000Z</time></trkpt><trkpt lon="5.653424" lat="51.036926"><ele>87.6</ele><time>2022-05-15T08:42:48.000Z</time></trkpt><trkpt lon="5.653301" lat="51.036919"><ele>87.6</ele><time>2022-05-15T08:42:49.000Z</time></trkpt><trkpt lon="5.653175" lat="51.036915"><ele>87.4</ele><time>2022-05-15T08:42:50.000Z</time></trkpt><trkpt lon="5.653048" lat="51.036907"><ele>87.2</ele><time>2022-05-15T08:42:51.000Z</time></trkpt><trkpt lon="5.652923" lat="51.0369"><ele>87.2</ele><time>2022-05-15T08:42:52.000Z</time></trkpt><trkpt lon="5.652803" lat="51.036896"><ele>87.2</ele><time>2022-05-15T08:42:53.000Z</time></trkpt><trkpt lon="5.652668" lat="51.036888"><ele>87</ele><time>2022-05-15T08:42:54.000Z</time></trkpt><trkpt lon="5.652543" lat="51.036881"><ele>87</ele><time>2022-05-15T08:42:55.000Z</time></trkpt><trkpt lon="5.652416" lat="51.036873"><ele>86.8</ele><time>2022-05-15T08:42:56.000Z</time></trkpt><trkpt lon="5.652291" lat="51.036866"><ele>86.6</ele><time>2022-05-15T08:42:57.000Z</time></trkpt><trkpt lon="5.652168" lat="51.036858"><ele>86.6</ele><time>2022-05-15T08:42:58.000Z</time></trkpt><trkpt lon="5.652047" lat="51.03685"><ele>86.6</ele><time>2022-05-15T08:42:59.000Z</time></trkpt><trkpt lon="5.651927" lat="51.036843"><ele>86.8</ele><time>2022-05-15T08:43:00.000Z</time></trkpt><trkpt lon="5.651809" lat="51.036839"><ele>86.8</ele><time>2022-05-15T08:43:01.000Z</time></trkpt><trkpt lon="5.651692" lat="51.036839"><ele>87</ele><time>2022-05-15T08:43:02.000Z</time></trkpt><trkpt lon="5.651575" lat="51.036831"><ele>87.2</ele><time>2022-05-15T08:43:03.000Z</time></trkpt><trkpt lon="5.651464" lat="51.036824"><ele>87.2</ele><time>2022-05-15T08:43:04.000Z</time></trkpt><trkpt lon="5.651345" lat="51.036816"><ele>87.2</ele><time>2022-05-15T08:43:05.000Z</time></trkpt><trkpt lon="5.651227" lat="51.036808"><ele>87.4</ele><time>2022-05-15T08:43:06.000Z</time></trkpt><trkpt lon="5.651114" lat="51.036801"><ele>87.4</ele><time>2022-05-15T08:43:07.000Z</time></trkpt><trkpt lon="5.650995" lat="51.036793"><ele>87.4</ele><time>2022-05-15T08:43:08.000Z</time></trkpt><trkpt lon="5.650879" lat="51.036782"><ele>87.4</ele><time>2022-05-15T08:43:09.000Z</time></trkpt><trkpt lon="5.650767" lat="51.03677"><ele>87.4</ele><time>2022-05-15T08:43:10.000Z</time></trkpt><trkpt lon="5.650662" lat="51.036766"><ele>87.2</ele><time>2022-05-15T08:43:11.000Z</time></trkpt><trkpt lon="5.650554" lat="51.036759"><ele>87.2</ele><time>2022-05-15T08:43:12.000Z</time></trkpt><trkpt lon="5.650449" lat="51.036751"><ele>87.4</ele><time>2022-05-15T08:43:13.000Z</time></trkpt><trkpt lon="5.650345" lat="51.03674"><ele>87.4</ele><time>2022-05-15T08:43:14.000Z</time></trkpt><trkpt lon="5.65024" lat="51.036732"><ele>87.6</ele><time>2022-05-15T08:43:15.000Z</time></trkpt><trkpt lon="5.650131" lat="51.036717"><ele>87.6</ele><time>2022-05-15T08:43:16.000Z</time></trkpt><trkpt lon="5.650017" lat="51.036709"><ele>87.6</ele><time>2022-05-15T08:43:17.000Z</time></trkpt><trkpt lon="5.649903" lat="51.036701"><ele>87.6</ele><time>2022-05-15T08:43:18.000Z</time></trkpt><trkpt lon="5.64979" lat="51.036694"><ele>87.6</ele><time>2022-05-15T08:43:19.000Z</time></trkpt><trkpt lon="5.649675" lat="51.036686"><ele>87.8</ele><time>2022-05-15T08:43:20.000Z</time></trkpt><trkpt lon="5.649561" lat="51.036682"><ele>88</ele><time>2022-05-15T08:43:21.000Z</time></trkpt><trkpt lon="5.649444" lat="51.036678"><ele>88</ele><time>2022-05-15T08:43:22.000Z</time></trkpt><trkpt lon="5.649332" lat="51.036667"><ele>88</ele><time>2022-05-15T08:43:23.000Z</time></trkpt><trkpt lon="5.649216" lat="51.036659"><ele>88</ele><time>2022-05-15T08:43:24.000Z</time></trkpt><trkpt lon="5.649101" lat="51.036652"><ele>88.2</ele><time>2022-05-15T08:43:25.000Z</time></trkpt><trkpt lon="5.648991" lat="51.036644"><ele>88.2</ele><time>2022-05-15T08:43:26.000Z</time></trkpt><trkpt lon="5.648881" lat="51.036633"><ele>88.4</ele><time>2022-05-15T08:43:27.000Z</time></trkpt><trkpt lon="5.648776" lat="51.036622"><ele>88.4</ele><time>2022-05-15T08:43:28.000Z</time></trkpt><trkpt lon="5.648671" lat="51.036617"><ele>88.4</ele><time>2022-05-15T08:43:29.000Z</time></trkpt><trkpt lon="5.648567" lat="51.036614"><ele>88.4</ele><time>2022-05-15T08:43:30.000Z</time></trkpt><trkpt lon="5.64847" lat="51.036606"><ele>88.4</ele><time>2022-05-15T08:43:31.000Z</time></trkpt><trkpt lon="5.64838" lat="51.036598"><ele>88.6</ele><time>2022-05-15T08:43:32.000Z</time></trkpt><trkpt lon="5.648291" lat="51.036591"><ele>88.6</ele><time>2022-05-15T08:43:33.000Z</time></trkpt><trkpt lon="5.6482" lat="51.036583"><ele>88.6</ele><time>2022-05-15T08:43:34.000Z</time></trkpt><trkpt lon="5.648109" lat="51.036576"><ele>88.8</ele><time>2022-05-15T08:43:35.000Z</time></trkpt><trkpt lon="5.648017" lat="51.036568"><ele>89</ele><time>2022-05-15T08:43:36.000Z</time></trkpt><trkpt lon="5.647927" lat="51.036557"><ele>89</ele><time>2022-05-15T08:43:37.000Z</time></trkpt><trkpt lon="5.64784" lat="51.036553"><ele>89.2</ele><time>2022-05-15T08:43:38.000Z</time></trkpt><trkpt lon="5.647763" lat="51.036556"><ele>89.2</ele><time>2022-05-15T08:43:39.000Z</time></trkpt><trkpt lon="5.647688" lat="51.036575"><ele>89.2</ele><time>2022-05-15T08:43:40.000Z</time></trkpt><trkpt lon="5.647634" lat="51.036597"><ele>89.2</ele><time>2022-05-15T08:43:41.000Z</time></trkpt><trkpt lon="5.647622" lat="51.036646"><ele>88.8</ele><time>2022-05-15T08:43:42.000Z</time></trkpt><trkpt lon="5.647636" lat="51.036692"><ele>88.4</ele><time>2022-05-15T08:43:43.000Z</time></trkpt><trkpt lon="5.647674" lat="51.036734"><ele>88.2</ele><time>2022-05-15T08:43:44.000Z</time></trkpt><trkpt lon="5.647723" lat="51.036776"><ele>88</ele><time>2022-05-15T08:43:45.000Z</time></trkpt><trkpt lon="5.647774" lat="51.036818"><ele>87.8</ele><time>2022-05-15T08:43:46.000Z</time></trkpt><trkpt lon="5.647822" lat="51.036859"><ele>87.6</ele><time>2022-05-15T08:43:47.000Z</time></trkpt><trkpt lon="5.647874" lat="51.036902"><ele>87.6</ele><time>2022-05-15T08:43:48.000Z</time></trkpt><trkpt lon="5.647926" lat="51.036951"><ele>87.2</ele><time>2022-05-15T08:43:49.000Z</time></trkpt><trkpt lon="5.64798" lat="51.036997"><ele>87</ele><time>2022-05-15T08:43:50.000Z</time></trkpt><trkpt lon="5.648033" lat="51.037046"><ele>86.8</ele><time>2022-05-15T08:43:51.000Z</time></trkpt><trkpt lon="5.648088" lat="51.037096"><ele>86.8</ele><time>2022-05-15T08:43:52.000Z</time></trkpt><trkpt lon="5.648145" lat="51.037146"><ele>86.8</ele><time>2022-05-15T08:43:53.000Z</time></trkpt><trkpt lon="5.648202" lat="51.037196"><ele>86.8</ele><time>2022-05-15T08:43:54.000Z</time></trkpt><trkpt lon="5.648258" lat="51.037245"><ele>86.4</ele><time>2022-05-15T08:43:55.000Z</time></trkpt><trkpt lon="5.648319" lat="51.037298"><ele>86.6</ele><time>2022-05-15T08:43:56.000Z</time></trkpt><trkpt lon="5.648378" lat="51.037348"><ele>86.4</ele><time>2022-05-15T08:43:57.000Z</time></trkpt><trkpt lon="5.648438" lat="51.037401"><ele>86.2</ele><time>2022-05-15T08:43:58.000Z</time></trkpt><trkpt lon="5.6485" lat="51.037455"><ele>86.2</ele><time>2022-05-15T08:43:59.000Z</time></trkpt><trkpt lon="5.648562" lat="51.037511"><ele>86</ele><time>2022-05-15T08:44:00.000Z</time></trkpt><trkpt lon="5.648625" lat="51.037564"><ele>86</ele><time>2022-05-15T08:44:01.000Z</time></trkpt><trkpt lon="5.648688" lat="51.037622"><ele>85.8</ele><time>2022-05-15T08:44:02.000Z</time></trkpt><trkpt lon="5.64875" lat="51.03768"><ele>85.8</ele><time>2022-05-15T08:44:03.000Z</time></trkpt><trkpt lon="5.648813" lat="51.037737"><ele>85.6</ele><time>2022-05-15T08:44:04.000Z</time></trkpt><trkpt lon="5.648875" lat="51.037794"><ele>85.4</ele><time>2022-05-15T08:44:05.000Z</time></trkpt><trkpt lon="5.648941" lat="51.037851"><ele>85.2</ele><time>2022-05-15T08:44:06.000Z</time></trkpt><trkpt lon="5.649007" lat="51.037904"><ele>85.2</ele><time>2022-05-15T08:44:07.000Z</time></trkpt><trkpt lon="5.649073" lat="51.037962"><ele>85.2</ele><time>2022-05-15T08:44:08.000Z</time></trkpt><trkpt lon="5.649137" lat="51.038019"><ele>85.4</ele><time>2022-05-15T08:44:09.000Z</time></trkpt><trkpt lon="5.649203" lat="51.038076"><ele>85.2</ele><time>2022-05-15T08:44:10.000Z</time></trkpt><trkpt lon="5.649267" lat="51.038137"><ele>85.2</ele><time>2022-05-15T08:44:11.000Z</time></trkpt><trkpt lon="5.649331" lat="51.038195"><ele>85</ele><time>2022-05-15T08:44:12.000Z</time></trkpt><trkpt lon="5.649396" lat="51.038252"><ele>85</ele><time>2022-05-15T08:44:13.000Z</time></trkpt><trkpt lon="5.649456" lat="51.038304"><ele>85</ele><time>2022-05-15T08:44:14.000Z</time></trkpt><trkpt lon="5.649519" lat="51.038362"><ele>85</ele><time>2022-05-15T08:44:15.000Z</time></trkpt><trkpt lon="5.649584" lat="51.038419"><ele>84.8</ele><time>2022-05-15T08:44:16.000Z</time></trkpt><trkpt lon="5.649648" lat="51.038477"><ele>85</ele><time>2022-05-15T08:44:17.000Z</time></trkpt><trkpt lon="5.649708" lat="51.038534"><ele>84.8</ele><time>2022-05-15T08:44:18.000Z</time></trkpt><trkpt lon="5.649769" lat="51.038591"><ele>84.6</ele><time>2022-05-15T08:44:19.000Z</time></trkpt><trkpt lon="5.649828" lat="51.038648"><ele>84.4</ele><time>2022-05-15T08:44:20.000Z</time></trkpt><trkpt lon="5.649889" lat="51.038705"><ele>84.4</ele><time>2022-05-15T08:44:21.000Z</time></trkpt><trkpt lon="5.649948" lat="51.038763"><ele>84.6</ele><time>2022-05-15T08:44:22.000Z</time></trkpt><trkpt lon="5.650008" lat="51.03882"><ele>84.8</ele><time>2022-05-15T08:44:23.000Z</time></trkpt><trkpt lon="5.650068" lat="51.038874"><ele>84.6</ele><time>2022-05-15T08:44:24.000Z</time></trkpt><trkpt lon="5.650126" lat="51.03893"><ele>84.6</ele><time>2022-05-15T08:44:25.000Z</time></trkpt><trkpt lon="5.650184" lat="51.038984"><ele>84.6</ele><time>2022-05-15T08:44:26.000Z</time></trkpt><trkpt lon="5.65024" lat="51.039041"><ele>84.6</ele><time>2022-05-15T08:44:27.000Z</time></trkpt><trkpt lon="5.650291" lat="51.039095"><ele>84.6</ele><time>2022-05-15T08:44:28.000Z</time></trkpt><trkpt lon="5.650345" lat="51.039148"><ele>84.8</ele><time>2022-05-15T08:44:29.000Z</time></trkpt><trkpt lon="5.650398" lat="51.039198"><ele>84.8</ele><time>2022-05-15T08:44:30.000Z</time></trkpt><trkpt lon="5.650451" lat="51.03925"><ele>85</ele><time>2022-05-15T08:44:31.000Z</time></trkpt><trkpt lon="5.650508" lat="51.039301"><ele>85.2</ele><time>2022-05-15T08:44:32.000Z</time></trkpt><trkpt lon="5.650567" lat="51.039351"><ele>85.6</ele><time>2022-05-15T08:44:33.000Z</time></trkpt><trkpt lon="5.650625" lat="51.039404"><ele>85.8</ele><time>2022-05-15T08:44:34.000Z</time></trkpt><trkpt lon="5.650684" lat="51.039457"><ele>86.2</ele><time>2022-05-15T08:44:35.000Z</time></trkpt><trkpt lon="5.650746" lat="51.039507"><ele>86.4</ele><time>2022-05-15T08:44:36.000Z</time></trkpt><trkpt lon="5.650809" lat="51.03956"><ele>86.4</ele><time>2022-05-15T08:44:37.000Z</time></trkpt><trkpt lon="5.650873" lat="51.03961"><ele>86.4</ele><time>2022-05-15T08:44:38.000Z</time></trkpt><trkpt lon="5.650933" lat="51.039663"><ele>86.4</ele><time>2022-05-15T08:44:39.000Z</time></trkpt><trkpt lon="5.650994" lat="51.039717"><ele>86.2</ele><time>2022-05-15T08:44:40.000Z</time></trkpt><trkpt lon="5.651053" lat="51.039769"><ele>86</ele><time>2022-05-15T08:44:41.000Z</time></trkpt><trkpt lon="5.651107" lat="51.039819"><ele>86</ele><time>2022-05-15T08:44:42.000Z</time></trkpt><trkpt lon="5.651178" lat="51.039877"><ele>86.2</ele><time>2022-05-15T08:44:43.000Z</time></trkpt><trkpt lon="5.651236" lat="51.03993"><ele>86.2</ele><time>2022-05-15T08:44:44.000Z</time></trkpt><trkpt lon="5.651294" lat="51.039987"><ele>86</ele><time>2022-05-15T08:44:45.000Z</time></trkpt><trkpt lon="5.651352" lat="51.040041"><ele>86</ele><time>2022-05-15T08:44:46.000Z</time></trkpt><trkpt lon="5.651409" lat="51.040099"><ele>86</ele><time>2022-05-15T08:44:47.000Z</time></trkpt><trkpt lon="5.651465" lat="51.040152"><ele>86.2</ele><time>2022-05-15T08:44:48.000Z</time></trkpt><trkpt lon="5.651521" lat="51.040205"><ele>86.4</ele><time>2022-05-15T08:44:49.000Z</time></trkpt><trkpt lon="5.651578" lat="51.040259"><ele>86.6</ele><time>2022-05-15T08:44:50.000Z</time></trkpt><trkpt lon="5.651634" lat="51.040308"><ele>86.8</ele><time>2022-05-15T08:44:51.000Z</time></trkpt><trkpt lon="5.651686" lat="51.040358"><ele>87</ele><time>2022-05-15T08:44:52.000Z</time></trkpt><trkpt lon="5.651739" lat="51.040404"><ele>87.4</ele><time>2022-05-15T08:44:53.000Z</time></trkpt><trkpt lon="5.651785" lat="51.040445"><ele>87.6</ele><time>2022-05-15T08:44:54.000Z</time></trkpt><trkpt lon="5.651822" lat="51.040487"><ele>88</ele><time>2022-05-15T08:44:55.000Z</time></trkpt><trkpt lon="5.651838" lat="51.04053"><ele>88.2</ele><time>2022-05-15T08:44:56.000Z</time></trkpt><trkpt lon="5.651834" lat="51.040572"><ele>88.4</ele><time>2022-05-15T08:44:57.000Z</time></trkpt><trkpt lon="5.651809" lat="51.040614"><ele>88.6</ele><time>2022-05-15T08:44:58.000Z</time></trkpt><trkpt lon="5.65177" lat="51.040652"><ele>88.8</ele><time>2022-05-15T08:44:59.000Z</time></trkpt><trkpt lon="5.651722" lat="51.040679"><ele>89</ele><time>2022-05-15T08:45:00.000Z</time></trkpt><trkpt lon="5.651669" lat="51.040702"><ele>89</ele><time>2022-05-15T08:45:01.000Z</time></trkpt><trkpt lon="5.651607" lat="51.040725"><ele>89.2</ele><time>2022-05-15T08:45:02.000Z</time></trkpt><trkpt lon="5.65154" lat="51.040755"><ele>89.2</ele><time>2022-05-15T08:45:03.000Z</time></trkpt><trkpt lon="5.651465" lat="51.040785"><ele>89.2</ele><time>2022-05-15T08:45:04.000Z</time></trkpt><trkpt lon="5.65139" lat="51.040816"><ele>89.2</ele><time>2022-05-15T08:45:05.000Z</time></trkpt><trkpt lon="5.651312" lat="51.04085"><ele>89.2</ele><time>2022-05-15T08:45:06.000Z</time></trkpt><trkpt lon="5.651237" lat="51.040884"><ele>89.2</ele><time>2022-05-15T08:45:07.000Z</time></trkpt><trkpt lon="5.651153" lat="51.040919"><ele>89.2</ele><time>2022-05-15T08:45:08.000Z</time></trkpt><trkpt lon="5.651069" lat="51.040956"><ele>89.2</ele><time>2022-05-15T08:45:09.000Z</time></trkpt><trkpt lon="5.650985" lat="51.040991"><ele>89</ele><time>2022-05-15T08:45:10.000Z</time></trkpt><trkpt lon="5.650907" lat="51.041026"><ele>89</ele><time>2022-05-15T08:45:11.000Z</time></trkpt><trkpt lon="5.650822" lat="51.041064"><ele>89</ele><time>2022-05-15T08:45:12.000Z</time></trkpt><trkpt lon="5.650735" lat="51.041102"><ele>89</ele><time>2022-05-15T08:45:13.000Z</time></trkpt><trkpt lon="5.650647" lat="51.04114"><ele>89</ele><time>2022-05-15T08:45:14.000Z</time></trkpt><trkpt lon="5.650565" lat="51.041171"><ele>89.2</ele><time>2022-05-15T08:45:15.000Z</time></trkpt><trkpt lon="5.650482" lat="51.041201"><ele>89.2</ele><time>2022-05-15T08:45:16.000Z</time></trkpt><trkpt lon="5.650405" lat="51.041235"><ele>89.2</ele><time>2022-05-15T08:45:17.000Z</time></trkpt><trkpt lon="5.650325" lat="51.04127"><ele>89.2</ele><time>2022-05-15T08:45:18.000Z</time></trkpt><trkpt lon="5.650235" lat="51.041312"><ele>89</ele><time>2022-05-15T08:45:19.000Z</time></trkpt><trkpt lon="5.650134" lat="51.041357"><ele>89</ele><time>2022-05-15T08:45:20.000Z</time></trkpt><trkpt lon="5.650034" lat="51.041399"><ele>89</ele><time>2022-05-15T08:45:21.000Z</time></trkpt><trkpt lon="5.649949" lat="51.041434"><ele>88.8</ele><time>2022-05-15T08:45:22.000Z</time></trkpt><trkpt lon="5.649876" lat="51.041465"><ele>88.8</ele><time>2022-05-15T08:45:23.000Z</time></trkpt><trkpt lon="5.649785" lat="51.041499"><ele>88.8</ele><time>2022-05-15T08:45:24.000Z</time></trkpt><trkpt lon="5.649701" lat="51.041536"><ele>88.8</ele><time>2022-05-15T08:45:25.000Z</time></trkpt><trkpt lon="5.649617" lat="51.041571"><ele>88.8</ele><time>2022-05-15T08:45:26.000Z</time></trkpt><trkpt lon="5.649538" lat="51.041605"><ele>88.8</ele><time>2022-05-15T08:45:27.000Z</time></trkpt><trkpt lon="5.649458" lat="51.041636"><ele>88.8</ele><time>2022-05-15T08:45:28.000Z</time></trkpt><trkpt lon="5.64938" lat="51.041667"><ele>88.8</ele><time>2022-05-15T08:45:29.000Z</time></trkpt><trkpt lon="5.649296" lat="51.041708"><ele>88.6</ele><time>2022-05-15T08:45:30.000Z</time></trkpt><trkpt lon="5.649217" lat="51.041746"><ele>88.6</ele><time>2022-05-15T08:45:31.000Z</time></trkpt><trkpt lon="5.649123" lat="51.041781"><ele>88.6</ele><time>2022-05-15T08:45:32.000Z</time></trkpt><trkpt lon="5.649032" lat="51.041819"><ele>88.6</ele><time>2022-05-15T08:45:33.000Z</time></trkpt><trkpt lon="5.648932" lat="51.041865"><ele>88.6</ele><time>2022-05-15T08:45:34.000Z</time></trkpt><trkpt lon="5.64883" lat="51.041907"><ele>88.6</ele><time>2022-05-15T08:45:35.000Z</time></trkpt><trkpt lon="5.648736" lat="51.041949"><ele>88.8</ele><time>2022-05-15T08:45:36.000Z</time></trkpt><trkpt lon="5.648641" lat="51.041986"><ele>88.8</ele><time>2022-05-15T08:45:37.000Z</time></trkpt><trkpt lon="5.64854" lat="51.042036"><ele>88.6</ele><time>2022-05-15T08:45:38.000Z</time></trkpt><trkpt lon="5.648431" lat="51.042086"><ele>88.6</ele><time>2022-05-15T08:45:39.000Z</time></trkpt><trkpt lon="5.648341" lat="51.042128"><ele>88.6</ele><time>2022-05-15T08:45:40.000Z</time></trkpt><trkpt lon="5.648262" lat="51.042162"><ele>88.8</ele><time>2022-05-15T08:45:41.000Z</time></trkpt><trkpt lon="5.648186" lat="51.042208"><ele>88.8</ele><time>2022-05-15T08:45:42.000Z</time></trkpt><trkpt lon="5.648108" lat="51.042243"><ele>89</ele><time>2022-05-15T08:45:43.000Z</time></trkpt><trkpt lon="5.648032" lat="51.042284"><ele>89</ele><time>2022-05-15T08:45:44.000Z</time></trkpt><trkpt lon="5.647979" lat="51.042337"><ele>89.2</ele><time>2022-05-15T08:45:45.000Z</time></trkpt><trkpt lon="5.647942" lat="51.042393"><ele>89.2</ele><time>2022-05-15T08:45:46.000Z</time></trkpt><trkpt lon="5.64794" lat="51.042433"><ele>89.2</ele><time>2022-05-15T08:45:47.000Z</time></trkpt><trkpt lon="5.647959" lat="51.042464"><ele>89.2</ele><time>2022-05-15T08:45:48.000Z</time></trkpt><trkpt lon="5.647996" lat="51.042487"><ele>89.2</ele><time>2022-05-15T08:45:49.000Z</time></trkpt><trkpt lon="5.648047" lat="51.042518"><ele>89.2</ele><time>2022-05-15T08:45:50.000Z</time></trkpt><trkpt lon="5.648108" lat="51.042552"><ele>89.2</ele><time>2022-05-15T08:45:51.000Z</time></trkpt><trkpt lon="5.648169" lat="51.042585"><ele>89.2</ele><time>2022-05-15T08:45:52.000Z</time></trkpt><trkpt lon="5.648244" lat="51.042624"><ele>89.4</ele><time>2022-05-15T08:45:53.000Z</time></trkpt><trkpt lon="5.648327" lat="51.042673"><ele>89.4</ele><time>2022-05-15T08:45:54.000Z</time></trkpt><trkpt lon="5.64841" lat="51.042724"><ele>89.6</ele><time>2022-05-15T08:45:55.000Z</time></trkpt><trkpt lon="5.648494" lat="51.04278"><ele>89.6</ele><time>2022-05-15T08:45:56.000Z</time></trkpt><trkpt lon="5.648569" lat="51.04283"><ele>89.6</ele><time>2022-05-15T08:45:57.000Z</time></trkpt><trkpt lon="5.648646" lat="51.042871"><ele>89.6</ele><time>2022-05-15T08:45:58.000Z</time></trkpt><trkpt lon="5.648733" lat="51.042914"><ele>89.4</ele><time>2022-05-15T08:45:59.000Z</time></trkpt><trkpt lon="5.648822" lat="51.042963"><ele>89</ele><time>2022-05-15T08:46:00.000Z</time></trkpt><trkpt lon="5.648908" lat="51.043013"><ele>88.8</ele><time>2022-05-15T08:46:01.000Z</time></trkpt><trkpt lon="5.648997" lat="51.043062"><ele>88.6</ele><time>2022-05-15T08:46:02.000Z</time></trkpt><trkpt lon="5.649092" lat="51.04312"><ele>88.4</ele><time>2022-05-15T08:46:03.000Z</time></trkpt><trkpt lon="5.649181" lat="51.043168"><ele>88.4</ele><time>2022-05-15T08:46:04.000Z</time></trkpt><trkpt lon="5.649273" lat="51.043222"><ele>88.2</ele><time>2022-05-15T08:46:05.000Z</time></trkpt><trkpt lon="5.649383" lat="51.043283"><ele>88.2</ele><time>2022-05-15T08:46:06.000Z</time></trkpt><trkpt lon="5.649482" lat="51.043336"><ele>88.2</ele><time>2022-05-15T08:46:07.000Z</time></trkpt><trkpt lon="5.64958" lat="51.043394"><ele>88.2</ele><time>2022-05-15T08:46:08.000Z</time></trkpt><trkpt lon="5.649673" lat="51.043444"><ele>88.2</ele><time>2022-05-15T08:46:09.000Z</time></trkpt><trkpt lon="5.64977" lat="51.043497"><ele>88</ele><time>2022-05-15T08:46:10.000Z</time></trkpt><trkpt lon="5.649863" lat="51.043546"><ele>88</ele><time>2022-05-15T08:46:11.000Z</time></trkpt><trkpt lon="5.649957" lat="51.0436"><ele>88</ele><time>2022-05-15T08:46:12.000Z</time></trkpt><trkpt lon="5.650047" lat="51.04365"><ele>87.8</ele><time>2022-05-15T08:46:13.000Z</time></trkpt><trkpt lon="5.650138" lat="51.043695"><ele>87.8</ele><time>2022-05-15T08:46:14.000Z</time></trkpt><trkpt lon="5.650217" lat="51.043737"><ele>88</ele><time>2022-05-15T08:46:15.000Z</time></trkpt><trkpt lon="5.650313" lat="51.043794"><ele>88.2</ele><time>2022-05-15T08:46:16.000Z</time></trkpt><trkpt lon="5.650401" lat="51.043845"><ele>88.2</ele><time>2022-05-15T08:46:17.000Z</time></trkpt><trkpt lon="5.65049" lat="51.04389"><ele>88.4</ele><time>2022-05-15T08:46:18.000Z</time></trkpt><trkpt lon="5.650577" lat="51.04394"><ele>88.4</ele><time>2022-05-15T08:46:19.000Z</time></trkpt><trkpt lon="5.650664" lat="51.043989"><ele>88.4</ele><time>2022-05-15T08:46:20.000Z</time></trkpt><trkpt lon="5.650748" lat="51.044034"><ele>88.2</ele><time>2022-05-15T08:46:21.000Z</time></trkpt><trkpt lon="5.650835" lat="51.044081"><ele>88.4</ele><time>2022-05-15T08:46:22.000Z</time></trkpt><trkpt lon="5.650919" lat="51.044127"><ele>88.6</ele><time>2022-05-15T08:46:23.000Z</time></trkpt><trkpt lon="5.651003" lat="51.044176"><ele>88.6</ele><time>2022-05-15T08:46:24.000Z</time></trkpt><trkpt lon="5.651087" lat="51.044218"><ele>88.6</ele><time>2022-05-15T08:46:25.000Z</time></trkpt><trkpt lon="5.651174" lat="51.044264"><ele>88.4</ele><time>2022-05-15T08:46:26.000Z</time></trkpt><trkpt lon="5.651255" lat="51.044308"><ele>88.2</ele><time>2022-05-15T08:46:27.000Z</time></trkpt><trkpt lon="5.651343" lat="51.044356"><ele>88</ele><time>2022-05-15T08:46:28.000Z</time></trkpt><trkpt lon="5.651429" lat="51.044401"><ele>88</ele><time>2022-05-15T08:46:29.000Z</time></trkpt><trkpt lon="5.651509" lat="51.044446"><ele>87.8</ele><time>2022-05-15T08:46:30.000Z</time></trkpt><trkpt lon="5.651594" lat="51.044489"><ele>88</ele><time>2022-05-15T08:46:31.000Z</time></trkpt><trkpt lon="5.651675" lat="51.044535"><ele>88.2</ele><time>2022-05-15T08:46:32.000Z</time></trkpt><trkpt lon="5.651756" lat="51.04458"><ele>88.6</ele><time>2022-05-15T08:46:33.000Z</time></trkpt><trkpt lon="5.651839" lat="51.044626"><ele>88.6</ele><time>2022-05-15T08:46:34.000Z</time></trkpt><trkpt lon="5.651919" lat="51.044671"><ele>88.6</ele><time>2022-05-15T08:46:35.000Z</time></trkpt><trkpt lon="5.652002" lat="51.044714"><ele>88.4</ele><time>2022-05-15T08:46:36.000Z</time></trkpt><trkpt lon="5.652085" lat="51.04476"><ele>88.2</ele><time>2022-05-15T08:46:37.000Z</time></trkpt><trkpt lon="5.652167" lat="51.044805"><ele>87.6</ele><time>2022-05-15T08:46:38.000Z</time></trkpt><trkpt lon="5.652247" lat="51.044846"><ele>87.4</ele><time>2022-05-15T08:46:39.000Z</time></trkpt><trkpt lon="5.65233" lat="51.044889"><ele>87.2</ele><time>2022-05-15T08:46:40.000Z</time></trkpt><trkpt lon="5.652412" lat="51.044932"><ele>87.2</ele><time>2022-05-15T08:46:41.000Z</time></trkpt><trkpt lon="5.652493" lat="51.044977"><ele>87.2</ele><time>2022-05-15T08:46:42.000Z</time></trkpt><trkpt lon="5.652575" lat="51.045023"><ele>87.2</ele><time>2022-05-15T08:46:43.000Z</time></trkpt><trkpt lon="5.652661" lat="51.045066"><ele>87.2</ele><time>2022-05-15T08:46:44.000Z</time></trkpt><trkpt lon="5.652743" lat="51.045111"><ele>87.2</ele><time>2022-05-15T08:46:45.000Z</time></trkpt><trkpt lon="5.65283" lat="51.045157"><ele>87</ele><time>2022-05-15T08:46:46.000Z</time></trkpt><trkpt lon="5.652919" lat="51.045199"><ele>86.8</ele><time>2022-05-15T08:46:47.000Z</time></trkpt><trkpt lon="5.653012" lat="51.045237"><ele>86.8</ele><time>2022-05-15T08:46:48.000Z</time></trkpt><trkpt lon="5.65311" lat="51.045272"><ele>86.6</ele><time>2022-05-15T08:46:49.000Z</time></trkpt><trkpt lon="5.653213" lat="51.045299"><ele>86.6</ele><time>2022-05-15T08:46:50.000Z</time></trkpt><trkpt lon="5.653314" lat="51.045317"><ele>86.8</ele><time>2022-05-15T08:46:51.000Z</time></trkpt><trkpt lon="5.653431" lat="51.045333"><ele>86.8</ele><time>2022-05-15T08:46:52.000Z</time></trkpt><trkpt lon="5.653544" lat="51.045345"><ele>87</ele><time>2022-05-15T08:46:53.000Z</time></trkpt><trkpt lon="5.653656" lat="51.04536"><ele>87.2</ele><time>2022-05-15T08:46:54.000Z</time></trkpt><trkpt lon="5.653764" lat="51.045368"><ele>87.2</ele><time>2022-05-15T08:46:55.000Z</time></trkpt><trkpt lon="5.653878" lat="51.045383"><ele>87.2</ele><time>2022-05-15T08:46:56.000Z</time></trkpt><trkpt lon="5.653989" lat="51.045395"><ele>87.4</ele><time>2022-05-15T08:46:57.000Z</time></trkpt><trkpt lon="5.6541" lat="51.045413"><ele>87.6</ele><time>2022-05-15T08:46:58.000Z</time></trkpt><trkpt lon="5.654203" lat="51.045434"><ele>87.8</ele><time>2022-05-15T08:46:59.000Z</time></trkpt><trkpt lon="5.654314" lat="51.04547"><ele>88</ele><time>2022-05-15T08:47:00.000Z</time></trkpt><trkpt lon="5.654416" lat="51.045504"><ele>88.2</ele><time>2022-05-15T08:47:01.000Z</time></trkpt><trkpt lon="5.654511" lat="51.045542"><ele>88.2</ele><time>2022-05-15T08:47:02.000Z</time></trkpt><trkpt lon="5.654601" lat="51.045584"><ele>88.2</ele><time>2022-05-15T08:47:03.000Z</time></trkpt><trkpt lon="5.654682" lat="51.045629"><ele>88.2</ele><time>2022-05-15T08:47:04.000Z</time></trkpt><trkpt lon="5.654764" lat="51.045678"><ele>88.2</ele><time>2022-05-15T08:47:05.000Z</time></trkpt><trkpt lon="5.654845" lat="51.045725"><ele>88</ele><time>2022-05-15T08:47:06.000Z</time></trkpt><trkpt lon="5.654927" lat="51.045775"><ele>88</ele><time>2022-05-15T08:47:07.000Z</time></trkpt><trkpt lon="5.65501" lat="51.045817"><ele>88</ele><time>2022-05-15T08:47:08.000Z</time></trkpt><trkpt lon="5.655095" lat="51.045862"><ele>88</ele><time>2022-05-15T08:47:09.000Z</time></trkpt><trkpt lon="5.65518" lat="51.045908"><ele>88</ele><time>2022-05-15T08:47:10.000Z</time></trkpt><trkpt lon="5.655265" lat="51.045954"><ele>88</ele><time>2022-05-15T08:47:11.000Z</time></trkpt><trkpt lon="5.655352" lat="51.046"><ele>87.8</ele><time>2022-05-15T08:47:12.000Z</time></trkpt><trkpt lon="5.655439" lat="51.046053"><ele>87.6</ele><time>2022-05-15T08:47:13.000Z</time></trkpt><trkpt lon="5.655526" lat="51.046099"><ele>87.4</ele><time>2022-05-15T08:47:14.000Z</time></trkpt><trkpt lon="5.655609" lat="51.046144"><ele>87.2</ele><time>2022-05-15T08:47:15.000Z</time></trkpt><trkpt lon="5.655694" lat="51.046191"><ele>87</ele><time>2022-05-15T08:47:16.000Z</time></trkpt><trkpt lon="5.655777" lat="51.046236"><ele>86.8</ele><time>2022-05-15T08:47:17.000Z</time></trkpt><trkpt lon="5.655861" lat="51.046282"><ele>86.8</ele><time>2022-05-15T08:47:18.000Z</time></trkpt><trkpt lon="5.655946" lat="51.046332"><ele>86.6</ele><time>2022-05-15T08:47:19.000Z</time></trkpt><trkpt lon="5.656026" lat="51.046377"><ele>86.6</ele><time>2022-05-15T08:47:20.000Z</time></trkpt><trkpt lon="5.656107" lat="51.046427"><ele>86.6</ele><time>2022-05-15T08:47:21.000Z</time></trkpt><trkpt lon="5.656186" lat="51.046473"><ele>86.6</ele><time>2022-05-15T08:47:22.000Z</time></trkpt><trkpt lon="5.656268" lat="51.046515"><ele>86.6</ele><time>2022-05-15T08:47:23.000Z</time></trkpt><trkpt lon="5.656348" lat="51.046557"><ele>86.8</ele><time>2022-05-15T08:47:24.000Z</time></trkpt><trkpt lon="5.656426" lat="51.046594"><ele>87</ele><time>2022-05-15T08:47:25.000Z</time></trkpt><trkpt lon="5.656512" lat="51.046641"><ele>87</ele><time>2022-05-15T08:47:26.000Z</time></trkpt><trkpt lon="5.656589" lat="51.046683"><ele>87</ele><time>2022-05-15T08:47:27.000Z</time></trkpt><trkpt lon="5.656677" lat="51.046732"><ele>87</ele><time>2022-05-15T08:47:28.000Z</time></trkpt><trkpt lon="5.656764" lat="51.046774"><ele>87</ele><time>2022-05-15T08:47:29.000Z</time></trkpt><trkpt lon="5.656848" lat="51.046816"><ele>86.8</ele><time>2022-05-15T08:47:30.000Z</time></trkpt><trkpt lon="5.656939" lat="51.046862"><ele>86.8</ele><time>2022-05-15T08:47:31.000Z</time></trkpt><trkpt lon="5.657027" lat="51.046904"><ele>86.6</ele><time>2022-05-15T08:47:32.000Z</time></trkpt><trkpt lon="5.657114" lat="51.04695"><ele>86.6</ele><time>2022-05-15T08:47:33.000Z</time></trkpt><trkpt lon="5.6572" lat="51.046995"><ele>86.4</ele><time>2022-05-15T08:47:34.000Z</time></trkpt><trkpt lon="5.657277" lat="51.047037"><ele>86.4</ele><time>2022-05-15T08:47:35.000Z</time></trkpt><trkpt lon="5.657369" lat="51.047086"><ele>86.2</ele><time>2022-05-15T08:47:36.000Z</time></trkpt><trkpt lon="5.657459" lat="51.047137"><ele>86.2</ele><time>2022-05-15T08:47:37.000Z</time></trkpt><trkpt lon="5.657542" lat="51.047186"><ele>86.2</ele><time>2022-05-15T08:47:38.000Z</time></trkpt><trkpt lon="5.65763" lat="51.047239"><ele>86.2</ele><time>2022-05-15T08:47:39.000Z</time></trkpt><trkpt lon="5.657713" lat="51.047289"><ele>86.2</ele><time>2022-05-15T08:47:40.000Z</time></trkpt><trkpt lon="5.657792" lat="51.047342"><ele>86</ele><time>2022-05-15T08:47:41.000Z</time></trkpt><trkpt lon="5.657864" lat="51.047392"><ele>86</ele><time>2022-05-15T08:47:42.000Z</time></trkpt><trkpt lon="5.657936" lat="51.047442"><ele>85.8</ele><time>2022-05-15T08:47:43.000Z</time></trkpt><trkpt lon="5.65801" lat="51.047483"><ele>85.6</ele><time>2022-05-15T08:47:44.000Z</time></trkpt><trkpt lon="5.658082" lat="51.047522"><ele>85.4</ele><time>2022-05-15T08:47:45.000Z</time></trkpt><trkpt lon="5.658173" lat="51.047568"><ele>85.4</ele><time>2022-05-15T08:47:46.000Z</time></trkpt><trkpt lon="5.658248" lat="51.047607"><ele>85.6</ele><time>2022-05-15T08:47:47.000Z</time></trkpt><trkpt lon="5.658328" lat="51.047652"><ele>85.6</ele><time>2022-05-15T08:47:48.000Z</time></trkpt><trkpt lon="5.658409" lat="51.047701"><ele>85.6</ele><time>2022-05-15T08:47:49.000Z</time></trkpt><trkpt lon="5.658491" lat="51.047751"><ele>85.4</ele><time>2022-05-15T08:47:50.000Z</time></trkpt><trkpt lon="5.658573" lat="51.047804"><ele>85</ele><time>2022-05-15T08:47:51.000Z</time></trkpt><trkpt lon="5.658655" lat="51.047857"><ele>84.2</ele><time>2022-05-15T08:47:52.000Z</time></trkpt><trkpt lon="5.658736" lat="51.047907"><ele>83.6</ele><time>2022-05-15T08:47:53.000Z</time></trkpt><trkpt lon="5.65881" lat="51.04795"><ele>84.2</ele><time>2022-05-15T08:47:54.000Z</time></trkpt><trkpt lon="5.658893" lat="51.047999"><ele>84.2</ele><time>2022-05-15T08:47:55.000Z</time></trkpt><trkpt lon="5.659" lat="51.048056"><ele>84.2</ele><time>2022-05-15T08:47:56.000Z</time></trkpt><trkpt lon="5.659092" lat="51.048107"><ele>84</ele><time>2022-05-15T08:47:57.000Z</time></trkpt><trkpt lon="5.659184" lat="51.048162"><ele>84.2</ele><time>2022-05-15T08:47:58.000Z</time></trkpt><trkpt lon="5.659269" lat="51.048214"><ele>84.2</ele><time>2022-05-15T08:47:59.000Z</time></trkpt><trkpt lon="5.659368" lat="51.048276"><ele>84</ele><time>2022-05-15T08:48:00.000Z</time></trkpt><trkpt lon="5.659456" lat="51.048324"><ele>83.8</ele><time>2022-05-15T08:48:01.000Z</time></trkpt><trkpt lon="5.659553" lat="51.04838"><ele>83.8</ele><time>2022-05-15T08:48:02.000Z</time></trkpt><trkpt lon="5.659641" lat="51.048431"><ele>83.6</ele><time>2022-05-15T08:48:03.000Z</time></trkpt><trkpt lon="5.659734" lat="51.048497"><ele>83.4</ele><time>2022-05-15T08:48:04.000Z</time></trkpt><trkpt lon="5.659807" lat="51.048551"><ele>83.4</ele><time>2022-05-15T08:48:05.000Z</time></trkpt><trkpt lon="5.659892" lat="51.048615"><ele>82.8</ele><time>2022-05-15T08:48:06.000Z</time></trkpt><trkpt lon="5.659967" lat="51.04867"><ele>82.4</ele><time>2022-05-15T08:48:07.000Z</time></trkpt><trkpt lon="5.660068" lat="51.048719"><ele>82.2</ele><time>2022-05-15T08:48:08.000Z</time></trkpt><trkpt lon="5.660175" lat="51.048757"><ele>81.8</ele><time>2022-05-15T08:48:09.000Z</time></trkpt><trkpt lon="5.660291" lat="51.048789"><ele>81.8</ele><time>2022-05-15T08:48:10.000Z</time></trkpt><trkpt lon="5.660403" lat="51.048818"><ele>81.8</ele><time>2022-05-15T08:48:11.000Z</time></trkpt><trkpt lon="5.660524" lat="51.048854"><ele>81.6</ele><time>2022-05-15T08:48:12.000Z</time></trkpt><trkpt lon="5.660629" lat="51.048882"><ele>81.4</ele><time>2022-05-15T08:48:13.000Z</time></trkpt><trkpt lon="5.660744" lat="51.048914"><ele>81.6</ele><time>2022-05-15T08:48:14.000Z</time></trkpt><trkpt lon="5.660843" lat="51.048943"><ele>82</ele><time>2022-05-15T08:48:15.000Z</time></trkpt><trkpt lon="5.660943" lat="51.048972"><ele>82.4</ele><time>2022-05-15T08:48:16.000Z</time></trkpt><trkpt lon="5.661032" lat="51.048998"><ele>82.8</ele><time>2022-05-15T08:48:17.000Z</time></trkpt><trkpt lon="5.661124" lat="51.049025"><ele>83.4</ele><time>2022-05-15T08:48:18.000Z</time></trkpt><trkpt lon="5.66121" lat="51.049051"><ele>83.6</ele><time>2022-05-15T08:48:19.000Z</time></trkpt><trkpt lon="5.661305" lat="51.049079"><ele>83.8</ele><time>2022-05-15T08:48:20.000Z</time></trkpt><trkpt lon="5.661394" lat="51.049104"><ele>83.8</ele><time>2022-05-15T08:48:21.000Z</time></trkpt><trkpt lon="5.661492" lat="51.049128"><ele>84</ele><time>2022-05-15T08:48:22.000Z</time></trkpt><trkpt lon="5.661582" lat="51.04915"><ele>84.2</ele><time>2022-05-15T08:48:23.000Z</time></trkpt><trkpt lon="5.661676" lat="51.049177"><ele>84.4</ele><time>2022-05-15T08:48:24.000Z</time></trkpt><trkpt lon="5.661766" lat="51.049202"><ele>84.4</ele><time>2022-05-15T08:48:25.000Z</time></trkpt><trkpt lon="5.661871" lat="51.049231"><ele>84.6</ele><time>2022-05-15T08:48:26.000Z</time></trkpt><trkpt lon="5.661963" lat="51.049256"><ele>84.6</ele><time>2022-05-15T08:48:27.000Z</time></trkpt><trkpt lon="5.662067" lat="51.049285"><ele>84.8</ele><time>2022-05-15T08:48:28.000Z</time></trkpt><trkpt lon="5.662162" lat="51.04931"><ele>85</ele><time>2022-05-15T08:48:29.000Z</time></trkpt><trkpt lon="5.662266" lat="51.049335"><ele>85.2</ele><time>2022-05-15T08:48:30.000Z</time></trkpt><trkpt lon="5.662358" lat="51.049359"><ele>85.4</ele><time>2022-05-15T08:48:31.000Z</time></trkpt><trkpt lon="5.662461" lat="51.049384"><ele>85.6</ele><time>2022-05-15T08:48:32.000Z</time></trkpt><trkpt lon="5.662555" lat="51.049409"><ele>85.6</ele><time>2022-05-15T08:48:33.000Z</time></trkpt><trkpt lon="5.662655" lat="51.049437"><ele>85.6</ele><time>2022-05-15T08:48:34.000Z</time></trkpt><trkpt lon="5.662742" lat="51.049461"><ele>85.6</ele><time>2022-05-15T08:48:35.000Z</time></trkpt><trkpt lon="5.662848" lat="51.049491"><ele>85.6</ele><time>2022-05-15T08:48:36.000Z</time></trkpt><trkpt lon="5.662937" lat="51.049512"><ele>85.6</ele><time>2022-05-15T08:48:37.000Z</time></trkpt><trkpt lon="5.66304" lat="51.049536"><ele>85.6</ele><time>2022-05-15T08:48:38.000Z</time></trkpt><trkpt lon="5.663134" lat="51.049559"><ele>85.4</ele><time>2022-05-15T08:48:39.000Z</time></trkpt><trkpt lon="5.66323" lat="51.049582"><ele>85.4</ele><time>2022-05-15T08:48:40.000Z</time></trkpt><trkpt lon="5.663319" lat="51.049604"><ele>85.6</ele><time>2022-05-15T08:48:41.000Z</time></trkpt><trkpt lon="5.663421" lat="51.049621"><ele>85.8</ele><time>2022-05-15T08:48:42.000Z</time></trkpt><trkpt lon="5.663515" lat="51.049631"><ele>86</ele><time>2022-05-15T08:48:43.000Z</time></trkpt><trkpt lon="5.663622" lat="51.049637"><ele>86.4</ele><time>2022-05-15T08:48:44.000Z</time></trkpt><trkpt lon="5.663722" lat="51.049637"><ele>86.6</ele><time>2022-05-15T08:48:45.000Z</time></trkpt><trkpt lon="5.663823" lat="51.049637"><ele>86.8</ele><time>2022-05-15T08:48:46.000Z</time></trkpt><trkpt lon="5.663938" lat="51.04963"><ele>86.8</ele><time>2022-05-15T08:48:47.000Z</time></trkpt><trkpt lon="5.664045" lat="51.049622"><ele>86.8</ele><time>2022-05-15T08:48:48.000Z</time></trkpt><trkpt lon="5.664147" lat="51.049618"><ele>86.8</ele><time>2022-05-15T08:48:49.000Z</time></trkpt><trkpt lon="5.664255" lat="51.049611"><ele>87</ele><time>2022-05-15T08:48:50.000Z</time></trkpt><trkpt lon="5.664355" lat="51.049603"><ele>87</ele><time>2022-05-15T08:48:51.000Z</time></trkpt><trkpt lon="5.664465" lat="51.049599"><ele>87.2</ele><time>2022-05-15T08:48:52.000Z</time></trkpt><trkpt lon="5.664569" lat="51.049595"><ele>87</ele><time>2022-05-15T08:48:53.000Z</time></trkpt><trkpt lon="5.664676" lat="51.049588"><ele>87</ele><time>2022-05-15T08:48:54.000Z</time></trkpt><trkpt lon="5.664781" lat="51.049584"><ele>87</ele><time>2022-05-15T08:48:55.000Z</time></trkpt><trkpt lon="5.664895" lat="51.04958"><ele>87</ele><time>2022-05-15T08:48:56.000Z</time></trkpt><trkpt lon="5.664997" lat="51.049573"><ele>87</ele><time>2022-05-15T08:48:57.000Z</time></trkpt><trkpt lon="5.665109" lat="51.049568"><ele>86.8</ele><time>2022-05-15T08:48:58.000Z</time></trkpt><trkpt lon="5.665213" lat="51.049561"><ele>86.8</ele><time>2022-05-15T08:48:59.000Z</time></trkpt><trkpt lon="5.665325" lat="51.049553"><ele>87</ele><time>2022-05-15T08:49:00.000Z</time></trkpt><trkpt lon="5.665425" lat="51.049542"><ele>87</ele><time>2022-05-15T08:49:01.000Z</time></trkpt><trkpt lon="5.665534" lat="51.049534"><ele>87</ele><time>2022-05-15T08:49:02.000Z</time></trkpt><trkpt lon="5.665636" lat="51.049523"><ele>86.8</ele><time>2022-05-15T08:49:03.000Z</time></trkpt><trkpt lon="5.665741" lat="51.049508"><ele>86.8</ele><time>2022-05-15T08:49:04.000Z</time></trkpt><trkpt lon="5.665835" lat="51.049497"><ele>86.8</ele><time>2022-05-15T08:49:05.000Z</time></trkpt><trkpt lon="5.665946" lat="51.049485"><ele>87</ele><time>2022-05-15T08:49:06.000Z</time></trkpt><trkpt lon="5.666043" lat="51.049474"><ele>86.8</ele><time>2022-05-15T08:49:07.000Z</time></trkpt><trkpt lon="5.666154" lat="51.049466"><ele>86.6</ele><time>2022-05-15T08:49:08.000Z</time></trkpt><trkpt lon="5.666254" lat="51.049458"><ele>86.6</ele><time>2022-05-15T08:49:09.000Z</time></trkpt><trkpt lon="5.666359" lat="51.04945"><ele>86.8</ele><time>2022-05-15T08:49:10.000Z</time></trkpt><trkpt lon="5.666458" lat="51.049439"><ele>86.8</ele><time>2022-05-15T08:49:11.000Z</time></trkpt><trkpt lon="5.666561" lat="51.049431"><ele>87</ele><time>2022-05-15T08:49:12.000Z</time></trkpt><trkpt lon="5.666661" lat="51.04942"><ele>87</ele><time>2022-05-15T08:49:13.000Z</time></trkpt><trkpt lon="5.666758" lat="51.049406"><ele>87</ele><time>2022-05-15T08:49:14.000Z</time></trkpt><trkpt lon="5.666854" lat="51.049394"><ele>87</ele><time>2022-05-15T08:49:15.000Z</time></trkpt><trkpt lon="5.666959" lat="51.049375"><ele>87</ele><time>2022-05-15T08:49:16.000Z</time></trkpt><trkpt lon="5.667051" lat="51.049363"><ele>87.2</ele><time>2022-05-15T08:49:17.000Z</time></trkpt><trkpt lon="5.667151" lat="51.049344"><ele>87.2</ele><time>2022-05-15T08:49:18.000Z</time></trkpt><trkpt lon="5.667244" lat="51.049329"><ele>87.2</ele><time>2022-05-15T08:49:19.000Z</time></trkpt><trkpt lon="5.667344" lat="51.049307"><ele>87.4</ele><time>2022-05-15T08:49:20.000Z</time></trkpt><trkpt lon="5.667437" lat="51.049292"><ele>87.2</ele><time>2022-05-15T08:49:21.000Z</time></trkpt><trkpt lon="5.667539" lat="51.049272"><ele>87</ele><time>2022-05-15T08:49:22.000Z</time></trkpt><trkpt lon="5.667628" lat="51.049254"><ele>86.8</ele><time>2022-05-15T08:49:23.000Z</time></trkpt><trkpt lon="5.667726" lat="51.049234"><ele>86.6</ele><time>2022-05-15T08:49:24.000Z</time></trkpt><trkpt lon="5.66781" lat="51.049217"><ele>86.6</ele><time>2022-05-15T08:49:25.000Z</time></trkpt><trkpt lon="5.667917" lat="51.049199"><ele>86.6</ele><time>2022-05-15T08:49:26.000Z</time></trkpt><trkpt lon="5.668012" lat="51.049181"><ele>86.6</ele><time>2022-05-15T08:49:27.000Z</time></trkpt><trkpt lon="5.668115" lat="51.049161"><ele>86.6</ele><time>2022-05-15T08:49:28.000Z</time></trkpt><trkpt lon="5.668203" lat="51.049147"><ele>86.6</ele><time>2022-05-15T08:49:29.000Z</time></trkpt><trkpt lon="5.668306" lat="51.049127"><ele>86.6</ele><time>2022-05-15T08:49:30.000Z</time></trkpt><trkpt lon="5.668391" lat="51.049112"><ele>86.6</ele><time>2022-05-15T08:49:31.000Z</time></trkpt><trkpt lon="5.668486" lat="51.049093"><ele>86.6</ele><time>2022-05-15T08:49:32.000Z</time></trkpt><trkpt lon="5.668574" lat="51.049078"><ele>86.6</ele><time>2022-05-15T08:49:33.000Z</time></trkpt><trkpt lon="5.668676" lat="51.049058"><ele>86.6</ele><time>2022-05-15T08:49:34.000Z</time></trkpt><trkpt lon="5.668783" lat="51.049037"><ele>86.6</ele><time>2022-05-15T08:49:35.000Z</time></trkpt><trkpt lon="5.668889" lat="51.049016"><ele>86.8</ele><time>2022-05-15T08:49:36.000Z</time></trkpt><trkpt lon="5.66899" lat="51.048997"><ele>86.8</ele><time>2022-05-15T08:49:37.000Z</time></trkpt><trkpt lon="5.6691" lat="51.048974"><ele>87</ele><time>2022-05-15T08:49:38.000Z</time></trkpt><trkpt lon="5.669208" lat="51.048951"><ele>87.2</ele><time>2022-05-15T08:49:39.000Z</time></trkpt><trkpt lon="5.669316" lat="51.048928"><ele>87.4</ele><time>2022-05-15T08:49:40.000Z</time></trkpt><trkpt lon="5.669422" lat="51.048909"><ele>87.4</ele><time>2022-05-15T08:49:41.000Z</time></trkpt><trkpt lon="5.669527" lat="51.048887"><ele>87.6</ele><time>2022-05-15T08:49:42.000Z</time></trkpt><trkpt lon="5.669635" lat="51.048864"><ele>87.8</ele><time>2022-05-15T08:49:43.000Z</time></trkpt><trkpt lon="5.669743" lat="51.04884"><ele>87.8</ele><time>2022-05-15T08:49:44.000Z</time></trkpt><trkpt lon="5.669848" lat="51.048818"><ele>88</ele><time>2022-05-15T08:49:45.000Z</time></trkpt><trkpt lon="5.670033" lat="51.048786"><ele>88</ele><time>2022-05-15T08:49:46.000Z</time></trkpt><trkpt lon="5.670221" lat="51.048755"><ele>88</ele><time>2022-05-15T08:49:47.000Z</time></trkpt><trkpt lon="5.670378" lat="51.048733"><ele>88</ele><time>2022-05-15T08:49:48.000Z</time></trkpt><trkpt lon="5.670469" lat="51.048725"><ele>88</ele><time>2022-05-15T08:49:49.000Z</time></trkpt><trkpt lon="5.670569" lat="51.048699"><ele>88</ele><time>2022-05-15T08:49:50.000Z</time></trkpt><trkpt lon="5.67067" lat="51.048684"><ele>88.2</ele><time>2022-05-15T08:49:51.000Z</time></trkpt><trkpt lon="5.670774" lat="51.048661"><ele>88.2</ele><time>2022-05-15T08:49:52.000Z</time></trkpt><trkpt lon="5.670876" lat="51.048638"><ele>88.2</ele><time>2022-05-15T08:49:53.000Z</time></trkpt><trkpt lon="5.670976" lat="51.048622"><ele>88.2</ele><time>2022-05-15T08:49:54.000Z</time></trkpt><trkpt lon="5.671074" lat="51.0486"><ele>88.2</ele><time>2022-05-15T08:49:55.000Z</time></trkpt><trkpt lon="5.671171" lat="51.048584"><ele>88.2</ele><time>2022-05-15T08:49:56.000Z</time></trkpt><trkpt lon="5.671299" lat="51.048584"><ele>88.2</ele><time>2022-05-15T08:49:57.000Z</time></trkpt><trkpt lon="5.671399" lat="51.048533"><ele>88.4</ele><time>2022-05-15T08:49:58.000Z</time></trkpt><trkpt lon="5.671489" lat="51.048512"><ele>88.4</ele><time>2022-05-15T08:49:59.000Z</time></trkpt><trkpt lon="5.671584" lat="51.0485"><ele>88.4</ele><time>2022-05-15T08:50:00.000Z</time></trkpt><trkpt lon="5.671676" lat="51.048481"><ele>88.4</ele><time>2022-05-15T08:50:01.000Z</time></trkpt><trkpt lon="5.671761" lat="51.048463"><ele>88.6</ele><time>2022-05-15T08:50:02.000Z</time></trkpt><trkpt lon="5.671847" lat="51.048458"><ele>88.6</ele><time>2022-05-15T08:50:03.000Z</time></trkpt><trkpt lon="5.671931" lat="51.048447"><ele>88.8</ele><time>2022-05-15T08:50:04.000Z</time></trkpt><trkpt lon="5.672014" lat="51.048439"><ele>88.8</ele><time>2022-05-15T08:50:05.000Z</time></trkpt><trkpt lon="5.672105" lat="51.048435"><ele>88.8</ele><time>2022-05-15T08:50:06.000Z</time></trkpt><trkpt lon="5.672192" lat="51.048424"><ele>89</ele><time>2022-05-15T08:50:07.000Z</time></trkpt><trkpt lon="5.672272" lat="51.048413"><ele>89</ele><time>2022-05-15T08:50:08.000Z</time></trkpt><trkpt lon="5.672344" lat="51.048409"><ele>89.2</ele><time>2022-05-15T08:50:09.000Z</time></trkpt><trkpt lon="5.672418" lat="51.048397"><ele>89.2</ele><time>2022-05-15T08:50:10.000Z</time></trkpt><trkpt lon="5.672488" lat="51.048393"><ele>89.4</ele><time>2022-05-15T08:50:11.000Z</time></trkpt><trkpt lon="5.672567" lat="51.048382"><ele>89.4</ele><time>2022-05-15T08:50:12.000Z</time></trkpt><trkpt lon="5.672654" lat="51.048375"><ele>89.4</ele><time>2022-05-15T08:50:13.000Z</time></trkpt><trkpt lon="5.672744" lat="51.048363"><ele>89.4</ele><time>2022-05-15T08:50:14.000Z</time></trkpt><trkpt lon="5.672829" lat="51.048348"><ele>89.4</ele><time>2022-05-15T08:50:15.000Z</time></trkpt><trkpt lon="5.672915" lat="51.048333"><ele>89.6</ele><time>2022-05-15T08:50:16.000Z</time></trkpt><trkpt lon="5.673006" lat="51.048321"><ele>89.6</ele><time>2022-05-15T08:50:17.000Z</time></trkpt><trkpt lon="5.673098" lat="51.048314"><ele>89.6</ele><time>2022-05-15T08:50:18.000Z</time></trkpt><trkpt lon="5.673197" lat="51.048295"><ele>89.6</ele><time>2022-05-15T08:50:19.000Z</time></trkpt><trkpt lon="5.673286" lat="51.048283"><ele>89.6</ele><time>2022-05-15T08:50:20.000Z</time></trkpt><trkpt lon="5.673376" lat="51.048264"><ele>89.6</ele><time>2022-05-15T08:50:21.000Z</time></trkpt><trkpt lon="5.673467" lat="51.048245"><ele>89.4</ele><time>2022-05-15T08:50:22.000Z</time></trkpt><trkpt lon="5.673556" lat="51.048233"><ele>89.4</ele><time>2022-05-15T08:50:23.000Z</time></trkpt><trkpt lon="5.673646" lat="51.048214"><ele>89.2</ele><time>2022-05-15T08:50:24.000Z</time></trkpt><trkpt lon="5.673742" lat="51.048195"><ele>89</ele><time>2022-05-15T08:50:25.000Z</time></trkpt><trkpt lon="5.673851" lat="51.048176"><ele>89</ele><time>2022-05-15T08:50:26.000Z</time></trkpt><trkpt lon="5.673949" lat="51.048157"><ele>88.6</ele><time>2022-05-15T08:50:27.000Z</time></trkpt><trkpt lon="5.674042" lat="51.048146"><ele>88.2</ele><time>2022-05-15T08:50:28.000Z</time></trkpt><trkpt lon="5.674139" lat="51.048123"><ele>88</ele><time>2022-05-15T08:50:29.000Z</time></trkpt><trkpt lon="5.674237" lat="51.048104"><ele>88</ele><time>2022-05-15T08:50:30.000Z</time></trkpt><trkpt lon="5.674339" lat="51.048081"><ele>88</ele><time>2022-05-15T08:50:31.000Z</time></trkpt><trkpt lon="5.674446" lat="51.048058"><ele>88</ele><time>2022-05-15T08:50:32.000Z</time></trkpt><trkpt lon="5.674568" lat="51.048039"><ele>87.8</ele><time>2022-05-15T08:50:33.000Z</time></trkpt><trkpt lon="5.674696" lat="51.048013"><ele>87.8</ele><time>2022-05-15T08:50:34.000Z</time></trkpt><trkpt lon="5.674809" lat="51.047986"><ele>87.6</ele><time>2022-05-15T08:50:35.000Z</time></trkpt><trkpt lon="5.674931" lat="51.047952"><ele>87.6</ele><time>2022-05-15T08:50:36.000Z</time></trkpt><trkpt lon="5.675055" lat="51.047928"><ele>87.4</ele><time>2022-05-15T08:50:37.000Z</time></trkpt><trkpt lon="5.675173" lat="51.047906"><ele>87.4</ele><time>2022-05-15T08:50:38.000Z</time></trkpt><trkpt lon="5.675303" lat="51.047875"><ele>87.4</ele><time>2022-05-15T08:50:39.000Z</time></trkpt><trkpt lon="5.675421" lat="51.047852"><ele>87.4</ele><time>2022-05-15T08:50:40.000Z</time></trkpt><trkpt lon="5.675541" lat="51.047825"><ele>87.4</ele><time>2022-05-15T08:50:41.000Z</time></trkpt><trkpt lon="5.675654" lat="51.047795"><ele>87.4</ele><time>2022-05-15T08:50:42.000Z</time></trkpt><trkpt lon="5.675752" lat="51.047772"><ele>87.6</ele><time>2022-05-15T08:50:43.000Z</time></trkpt><trkpt lon="5.675851" lat="51.047753"><ele>87.8</ele><time>2022-05-15T08:50:44.000Z</time></trkpt><trkpt lon="5.675952" lat="51.047734"><ele>87.8</ele><time>2022-05-15T08:50:45.000Z</time></trkpt><trkpt lon="5.676063" lat="51.0477"><ele>88</ele><time>2022-05-15T08:50:46.000Z</time></trkpt><trkpt lon="5.676174" lat="51.047673"><ele>88.2</ele><time>2022-05-15T08:50:47.000Z</time></trkpt><trkpt lon="5.676287" lat="51.047646"><ele>88.4</ele><time>2022-05-15T08:50:48.000Z</time></trkpt><trkpt lon="5.676401" lat="51.047617"><ele>88.4</ele><time>2022-05-15T08:50:49.000Z</time></trkpt><trkpt lon="5.676509" lat="51.047593"><ele>88.2</ele><time>2022-05-15T08:50:50.000Z</time></trkpt><trkpt lon="5.676614" lat="51.047574"><ele>88.4</ele><time>2022-05-15T08:50:51.000Z</time></trkpt><trkpt lon="5.676728" lat="51.047544"><ele>88.6</ele><time>2022-05-15T08:50:52.000Z</time></trkpt><trkpt lon="5.676832" lat="51.04752"><ele>88.8</ele><time>2022-05-15T08:50:53.000Z</time></trkpt><trkpt lon="5.676936" lat="51.047498"><ele>89</ele><time>2022-05-15T08:50:54.000Z</time></trkpt><trkpt lon="5.677041" lat="51.047474"><ele>89</ele><time>2022-05-15T08:50:55.000Z</time></trkpt><trkpt lon="5.677145" lat="51.047452"><ele>89.2</ele><time>2022-05-15T08:50:56.000Z</time></trkpt><trkpt lon="5.677252" lat="51.047429"><ele>89</ele><time>2022-05-15T08:50:57.000Z</time></trkpt><trkpt lon="5.677357" lat="51.047406"><ele>89</ele><time>2022-05-15T08:50:58.000Z</time></trkpt><trkpt lon="5.67746" lat="51.047383"><ele>89.2</ele><time>2022-05-15T08:50:59.000Z</time></trkpt><trkpt lon="5.677563" lat="51.047364"><ele>89.2</ele><time>2022-05-15T08:51:00.000Z</time></trkpt><trkpt lon="5.677668" lat="51.047337"><ele>89.4</ele><time>2022-05-15T08:51:01.000Z</time></trkpt><trkpt lon="5.67777" lat="51.047318"><ele>89.4</ele><time>2022-05-15T08:51:02.000Z</time></trkpt><trkpt lon="5.677876" lat="51.047291"><ele>89.6</ele><time>2022-05-15T08:51:03.000Z</time></trkpt><trkpt lon="5.677977" lat="51.047269"><ele>89.6</ele><time>2022-05-15T08:51:04.000Z</time></trkpt><trkpt lon="5.678076" lat="51.047242"><ele>89.6</ele><time>2022-05-15T08:51:05.000Z</time></trkpt><trkpt lon="5.678174" lat="51.047223"><ele>89.6</ele><time>2022-05-15T08:51:06.000Z</time></trkpt><trkpt lon="5.678277" lat="51.047211"><ele>89.6</ele><time>2022-05-15T08:51:07.000Z</time></trkpt><trkpt lon="5.678378" lat="51.047207"><ele>89.4</ele><time>2022-05-15T08:51:08.000Z</time></trkpt><trkpt lon="5.678481" lat="51.047211"><ele>89.4</ele><time>2022-05-15T08:51:09.000Z</time></trkpt><trkpt lon="5.678581" lat="51.047218"><ele>89.4</ele><time>2022-05-15T08:51:10.000Z</time></trkpt><trkpt lon="5.678673" lat="51.047229"><ele>89.4</ele><time>2022-05-15T08:51:11.000Z</time></trkpt><trkpt lon="5.678752" lat="51.047244"><ele>89.4</ele><time>2022-05-15T08:51:12.000Z</time></trkpt><trkpt lon="5.678826" lat="51.04726"><ele>89.6</ele><time>2022-05-15T08:51:13.000Z</time></trkpt><trkpt lon="5.678888" lat="51.047271"><ele>89.6</ele><time>2022-05-15T08:51:14.000Z</time></trkpt><trkpt lon="5.678941" lat="51.047283"><ele>89.6</ele><time>2022-05-15T08:51:15.000Z</time></trkpt><trkpt lon="5.678982" lat="51.047298"><ele>89.6</ele><time>2022-05-15T08:51:16.000Z</time></trkpt><trkpt lon="5.679009" lat="51.047302"><ele>89.6</ele><time>2022-05-15T08:51:17.000Z</time></trkpt><trkpt lon="5.679028" lat="51.047306"><ele>89.6</ele><time>2022-05-15T08:51:18.000Z</time></trkpt><trkpt lon="5.679086" lat="51.04732"><ele>89.8</ele><time>2022-05-15T08:51:24.000Z</time></trkpt><trkpt lon="5.679109" lat="51.047336"><ele>89.8</ele><time>2022-05-15T08:51:25.000Z</time></trkpt><trkpt lon="5.67912" lat="51.047366"><ele>89.8</ele><time>2022-05-15T08:51:26.000Z</time></trkpt><trkpt lon="5.679115" lat="51.047407"><ele>89.8</ele><time>2022-05-15T08:51:27.000Z</time></trkpt><trkpt lon="5.679094" lat="51.04745"><ele>89.6</ele><time>2022-05-15T08:51:28.000Z</time></trkpt><trkpt lon="5.679061" lat="51.047491"><ele>89.6</ele><time>2022-05-15T08:51:29.000Z</time></trkpt><trkpt lon="5.679027" lat="51.047533"><ele>89.6</ele><time>2022-05-15T08:51:30.000Z</time></trkpt><trkpt lon="5.678989" lat="51.047583"><ele>89.4</ele><time>2022-05-15T08:51:31.000Z</time></trkpt><trkpt lon="5.678949" lat="51.047637"><ele>89.4</ele><time>2022-05-15T08:51:32.000Z</time></trkpt><trkpt lon="5.678908" lat="51.04769"><ele>89.4</ele><time>2022-05-15T08:51:33.000Z</time></trkpt><trkpt lon="5.678865" lat="51.047747"><ele>89.2</ele><time>2022-05-15T08:51:34.000Z</time></trkpt><trkpt lon="5.67882" lat="51.047804"><ele>89.2</ele><time>2022-05-15T08:51:35.000Z</time></trkpt><trkpt lon="5.678776" lat="51.047861"><ele>89</ele><time>2022-05-15T08:51:36.000Z</time></trkpt><trkpt lon="5.678732" lat="51.047918"><ele>89</ele><time>2022-05-15T08:51:37.000Z</time></trkpt><trkpt lon="5.678688" lat="51.047978"><ele>89</ele><time>2022-05-15T08:51:38.000Z</time></trkpt><trkpt lon="5.678643" lat="51.048037"><ele>89</ele><time>2022-05-15T08:51:39.000Z</time></trkpt><trkpt lon="5.678598" lat="51.048094"><ele>89</ele><time>2022-05-15T08:51:40.000Z</time></trkpt><trkpt lon="5.678554" lat="51.048155"><ele>89</ele><time>2022-05-15T08:51:41.000Z</time></trkpt><trkpt lon="5.67851" lat="51.048212"><ele>89.2</ele><time>2022-05-15T08:51:42.000Z</time></trkpt><trkpt lon="5.678464" lat="51.048276"><ele>89.4</ele><time>2022-05-15T08:51:43.000Z</time></trkpt><trkpt lon="5.678415" lat="51.048338"><ele>89.4</ele><time>2022-05-15T08:51:44.000Z</time></trkpt><trkpt lon="5.67837" lat="51.048402"><ele>89.4</ele><time>2022-05-15T08:51:45.000Z</time></trkpt><trkpt lon="5.678323" lat="51.048468"><ele>89.6</ele><time>2022-05-15T08:51:46.000Z</time></trkpt><trkpt lon="5.678274" lat="51.048528"><ele>89.6</ele><time>2022-05-15T08:51:47.000Z</time></trkpt><trkpt lon="5.678226" lat="51.04859"><ele>89.8</ele><time>2022-05-15T08:51:48.000Z</time></trkpt><trkpt lon="5.67818" lat="51.048651"><ele>89.8</ele><time>2022-05-15T08:51:49.000Z</time></trkpt><trkpt lon="5.678132" lat="51.048711"><ele>89.8</ele><time>2022-05-15T08:51:50.000Z</time></trkpt><trkpt lon="5.678085" lat="51.048769"><ele>89.8</ele><time>2022-05-15T08:51:51.000Z</time></trkpt><trkpt lon="5.678036" lat="51.04883"><ele>89.8</ele><time>2022-05-15T08:51:52.000Z</time></trkpt><trkpt lon="5.677989" lat="51.04889"><ele>89.6</ele><time>2022-05-15T08:51:53.000Z</time></trkpt><trkpt lon="5.677938" lat="51.048952"><ele>89.6</ele><time>2022-05-15T08:51:54.000Z</time></trkpt><trkpt lon="5.677886" lat="51.049013"><ele>89.8</ele><time>2022-05-15T08:51:55.000Z</time></trkpt><trkpt lon="5.677838" lat="51.049074"><ele>89.8</ele><time>2022-05-15T08:51:56.000Z</time></trkpt><trkpt lon="5.677792" lat="51.049135"><ele>89.6</ele><time>2022-05-15T08:51:57.000Z</time></trkpt><trkpt lon="5.677745" lat="51.049196"><ele>89.6</ele><time>2022-05-15T08:51:58.000Z</time></trkpt><trkpt lon="5.6777" lat="51.049261"><ele>89.6</ele><time>2022-05-15T08:51:59.000Z</time></trkpt><trkpt lon="5.677653" lat="51.049322"><ele>89.6</ele><time>2022-05-15T08:52:00.000Z</time></trkpt><trkpt lon="5.677605" lat="51.04938"><ele>89.6</ele><time>2022-05-15T08:52:01.000Z</time></trkpt><trkpt lon="5.677557" lat="51.049436"><ele>89.6</ele><time>2022-05-15T08:52:02.000Z</time></trkpt><trkpt lon="5.677511" lat="51.049498"><ele>89.6</ele><time>2022-05-15T08:52:03.000Z</time></trkpt><trkpt lon="5.677466" lat="51.049555"><ele>89.6</ele><time>2022-05-15T08:52:04.000Z</time></trkpt><trkpt lon="5.677423" lat="51.049612"><ele>89.6</ele><time>2022-05-15T08:52:05.000Z</time></trkpt><trkpt lon="5.677381" lat="51.049673"><ele>89.6</ele><time>2022-05-15T08:52:06.000Z</time></trkpt><trkpt lon="5.677339" lat="51.04973"><ele>89.6</ele><time>2022-05-15T08:52:07.000Z</time></trkpt><trkpt lon="5.677298" lat="51.049784"><ele>89.6</ele><time>2022-05-15T08:52:08.000Z</time></trkpt><trkpt lon="5.677256" lat="51.049837"><ele>89.6</ele><time>2022-05-15T08:52:09.000Z</time></trkpt><trkpt lon="5.677218" lat="51.049891"><ele>89.6</ele><time>2022-05-15T08:52:10.000Z</time></trkpt><trkpt lon="5.67718" lat="51.049937"><ele>89.6</ele><time>2022-05-15T08:52:11.000Z</time></trkpt><trkpt lon="5.67715" lat="51.049986"><ele>89.6</ele><time>2022-05-15T08:52:12.000Z</time></trkpt><trkpt lon="5.677134" lat="51.050025"><ele>89.6</ele><time>2022-05-15T08:52:13.000Z</time></trkpt><trkpt lon="5.677146" lat="51.050055"><ele>89.6</ele><time>2022-05-15T08:52:14.000Z</time></trkpt><trkpt lon="5.677182" lat="51.05009"><ele>89.4</ele><time>2022-05-15T08:52:15.000Z</time></trkpt><trkpt lon="5.677262" lat="51.050124"><ele>89.4</ele><time>2022-05-15T08:52:16.000Z</time></trkpt><trkpt lon="5.677358" lat="51.050157"><ele>89.4</ele><time>2022-05-15T08:52:17.000Z</time></trkpt><trkpt lon="5.677454" lat="51.050189"><ele>89.2</ele><time>2022-05-15T08:52:18.000Z</time></trkpt><trkpt lon="5.677554" lat="51.050223"><ele>89.2</ele><time>2022-05-15T08:52:19.000Z</time></trkpt><trkpt lon="5.677657" lat="51.050258"><ele>89.2</ele><time>2022-05-15T08:52:20.000Z</time></trkpt><trkpt lon="5.677755" lat="51.050296"><ele>89.4</ele><time>2022-05-15T08:52:21.000Z</time></trkpt><trkpt lon="5.677854" lat="51.050334"><ele>89.4</ele><time>2022-05-15T08:52:22.000Z</time></trkpt><trkpt lon="5.677956" lat="51.050368"><ele>89.4</ele><time>2022-05-15T08:52:23.000Z</time></trkpt><trkpt lon="5.678059" lat="51.050399"><ele>89.4</ele><time>2022-05-15T08:52:24.000Z</time></trkpt><trkpt lon="5.678155" lat="51.05044"><ele>89.4</ele><time>2022-05-15T08:52:25.000Z</time></trkpt><trkpt lon="5.678255" lat="51.050468"><ele>89.2</ele><time>2022-05-15T08:52:26.000Z</time></trkpt><trkpt lon="5.678359" lat="51.050498"><ele>89.2</ele><time>2022-05-15T08:52:27.000Z</time></trkpt><trkpt lon="5.678461" lat="51.050533"><ele>89</ele><time>2022-05-15T08:52:28.000Z</time></trkpt><trkpt lon="5.678556" lat="51.050562"><ele>89</ele><time>2022-05-15T08:52:29.000Z</time></trkpt><trkpt lon="5.67866" lat="51.050597"><ele>88.8</ele><time>2022-05-15T08:52:30.000Z</time></trkpt><trkpt lon="5.678765" lat="51.050628"><ele>88.6</ele><time>2022-05-15T08:52:31.000Z</time></trkpt><trkpt lon="5.67887" lat="51.050662"><ele>88.6</ele><time>2022-05-15T08:52:32.000Z</time></trkpt><trkpt lon="5.678978" lat="51.050693"><ele>88.4</ele><time>2022-05-15T08:52:33.000Z</time></trkpt><trkpt lon="5.679089" lat="51.05073"><ele>88.2</ele><time>2022-05-15T08:52:34.000Z</time></trkpt><trkpt lon="5.679204" lat="51.050772"><ele>88</ele><time>2022-05-15T08:52:35.000Z</time></trkpt><trkpt lon="5.679315" lat="51.050813"><ele>87.8</ele><time>2022-05-15T08:52:36.000Z</time></trkpt><trkpt lon="5.679437" lat="51.050856"><ele>87.6</ele><time>2022-05-15T08:52:37.000Z</time></trkpt><trkpt lon="5.679551" lat="51.050894"><ele>87.4</ele><time>2022-05-15T08:52:38.000Z</time></trkpt><trkpt lon="5.679664" lat="51.050929"><ele>87</ele><time>2022-05-15T08:52:39.000Z</time></trkpt><trkpt lon="5.679779" lat="51.050967"><ele>86.8</ele><time>2022-05-15T08:52:40.000Z</time></trkpt><trkpt lon="5.679896" lat="51.051009"><ele>86.4</ele><time>2022-05-15T08:52:41.000Z</time></trkpt><trkpt lon="5.680013" lat="51.051047"><ele>86.2</ele><time>2022-05-15T08:52:42.000Z</time></trkpt><trkpt lon="5.680126" lat="51.051081"><ele>86.2</ele><time>2022-05-15T08:52:43.000Z</time></trkpt><trkpt lon="5.680241" lat="51.051119"><ele>85.8</ele><time>2022-05-15T08:52:44.000Z</time></trkpt><trkpt lon="5.680356" lat="51.051158"><ele>85.4</ele><time>2022-05-15T08:52:45.000Z</time></trkpt><trkpt lon="5.680473" lat="51.051199"><ele>85.2</ele><time>2022-05-15T08:52:46.000Z</time></trkpt><trkpt lon="5.680591" lat="51.051242"><ele>84.8</ele><time>2022-05-15T08:52:47.000Z</time></trkpt><trkpt lon="5.680709" lat="51.05128"><ele>84.4</ele><time>2022-05-15T08:52:48.000Z</time></trkpt><trkpt lon="5.680827" lat="51.051314"><ele>84</ele><time>2022-05-15T08:52:49.000Z</time></trkpt><trkpt lon="5.680946" lat="51.051352"><ele>83.8</ele><time>2022-05-15T08:52:50.000Z</time></trkpt><trkpt lon="5.681063" lat="51.051386"><ele>83.4</ele><time>2022-05-15T08:52:51.000Z</time></trkpt><trkpt lon="5.681182" lat="51.051425"><ele>83</ele><time>2022-05-15T08:52:52.000Z</time></trkpt><trkpt lon="5.681304" lat="51.051463"><ele>82.8</ele><time>2022-05-15T08:52:53.000Z</time></trkpt><trkpt lon="5.681426" lat="51.051508"><ele>82.4</ele><time>2022-05-15T08:52:54.000Z</time></trkpt><trkpt lon="5.681547" lat="51.051547"><ele>81.8</ele><time>2022-05-15T08:52:55.000Z</time></trkpt><trkpt lon="5.68167" lat="51.051588"><ele>81.4</ele><time>2022-05-15T08:52:56.000Z</time></trkpt><trkpt lon="5.681794" lat="51.051623"><ele>81</ele><time>2022-05-15T08:52:57.000Z</time></trkpt><trkpt lon="5.68192" lat="51.051665"><ele>80.6</ele><time>2022-05-15T08:52:58.000Z</time></trkpt><trkpt lon="5.682045" lat="51.051703"><ele>80.2</ele><time>2022-05-15T08:52:59.000Z</time></trkpt><trkpt lon="5.682172" lat="51.051745"><ele>79.8</ele><time>2022-05-15T08:53:00.000Z</time></trkpt><trkpt lon="5.682296" lat="51.051783"><ele>79.4</ele><time>2022-05-15T08:53:01.000Z</time></trkpt><trkpt lon="5.682417" lat="51.051825"><ele>79</ele><time>2022-05-15T08:53:02.000Z</time></trkpt><trkpt lon="5.682542" lat="51.051863"><ele>78.6</ele><time>2022-05-15T08:53:03.000Z</time></trkpt><trkpt lon="5.682667" lat="51.051905"><ele>78.2</ele><time>2022-05-15T08:53:04.000Z</time></trkpt><trkpt lon="5.682791" lat="51.051947"><ele>77.8</ele><time>2022-05-15T08:53:05.000Z</time></trkpt><trkpt lon="5.682916" lat="51.051989"><ele>77.6</ele><time>2022-05-15T08:53:06.000Z</time></trkpt><trkpt lon="5.68304" lat="51.052035"><ele>77.2</ele><time>2022-05-15T08:53:07.000Z</time></trkpt><trkpt lon="5.68317" lat="51.052077"><ele>76.8</ele><time>2022-05-15T08:53:08.000Z</time></trkpt><trkpt lon="5.683301" lat="51.052119"><ele>76.4</ele><time>2022-05-15T08:53:09.000Z</time></trkpt><trkpt lon="5.683429" lat="51.05216"><ele>76</ele><time>2022-05-15T08:53:10.000Z</time></trkpt><trkpt lon="5.683561" lat="51.052203"><ele>75.4</ele><time>2022-05-15T08:53:11.000Z</time></trkpt><trkpt lon="5.683689" lat="51.052248"><ele>75</ele><time>2022-05-15T08:53:12.000Z</time></trkpt><trkpt lon="5.683815" lat="51.05229"><ele>74.6</ele><time>2022-05-15T08:53:13.000Z</time></trkpt><trkpt lon="5.683948" lat="51.052333"><ele>74.4</ele><time>2022-05-15T08:53:14.000Z</time></trkpt><trkpt lon="5.684082" lat="51.052374"><ele>74</ele><time>2022-05-15T08:53:15.000Z</time></trkpt><trkpt lon="5.684219" lat="51.05242"><ele>73.6</ele><time>2022-05-15T08:53:16.000Z</time></trkpt><trkpt lon="5.684353" lat="51.052465"><ele>73.4</ele><time>2022-05-15T08:53:17.000Z</time></trkpt><trkpt lon="5.684491" lat="51.052504"><ele>73</ele><time>2022-05-15T08:53:18.000Z</time></trkpt><trkpt lon="5.684627" lat="51.052546"><ele>72.4</ele><time>2022-05-15T08:53:19.000Z</time></trkpt><trkpt lon="5.684763" lat="51.052591"><ele>72</ele><time>2022-05-15T08:53:20.000Z</time></trkpt><trkpt lon="5.684896" lat="51.052636"><ele>71.6</ele><time>2022-05-15T08:53:21.000Z</time></trkpt><trkpt lon="5.685035" lat="51.052679"><ele>71.2</ele><time>2022-05-15T08:53:22.000Z</time></trkpt><trkpt lon="5.685174" lat="51.052722"><ele>71</ele><time>2022-05-15T08:53:23.000Z</time></trkpt><trkpt lon="5.68531" lat="51.052763"><ele>70.6</ele><time>2022-05-15T08:53:24.000Z</time></trkpt><trkpt lon="5.685448" lat="51.052809"><ele>70.2</ele><time>2022-05-15T08:53:25.000Z</time></trkpt><trkpt lon="5.685585" lat="51.052851"><ele>69.8</ele><time>2022-05-15T08:53:26.000Z</time></trkpt><trkpt lon="5.685721" lat="51.052897"><ele>69.4</ele><time>2022-05-15T08:53:27.000Z</time></trkpt><trkpt lon="5.685857" lat="51.052939"><ele>69</ele><time>2022-05-15T08:53:28.000Z</time></trkpt><trkpt lon="5.685991" lat="51.052985"><ele>68.6</ele><time>2022-05-15T08:53:29.000Z</time></trkpt><trkpt lon="5.686121" lat="51.053023"><ele>68</ele><time>2022-05-15T08:53:30.000Z</time></trkpt><trkpt lon="5.686249" lat="51.053068"><ele>67.8</ele><time>2022-05-15T08:53:31.000Z</time></trkpt><trkpt lon="5.686372" lat="51.05311"><ele>67.6</ele><time>2022-05-15T08:53:32.000Z</time></trkpt><trkpt lon="5.686497" lat="51.053152"><ele>67.4</ele><time>2022-05-15T08:53:33.000Z</time></trkpt><trkpt lon="5.686626" lat="51.053195"><ele>67.2</ele><time>2022-05-15T08:53:34.000Z</time></trkpt><trkpt lon="5.686754" lat="51.053236"><ele>67</ele><time>2022-05-15T08:53:35.000Z</time></trkpt><trkpt lon="5.686879" lat="51.053278"><ele>66.8</ele><time>2022-05-15T08:53:36.000Z</time></trkpt><trkpt lon="5.687004" lat="51.053317"><ele>66.6</ele><time>2022-05-15T08:53:37.000Z</time></trkpt><trkpt lon="5.687131" lat="51.053355"><ele>66.2</ele><time>2022-05-15T08:53:38.000Z</time></trkpt><trkpt lon="5.687253" lat="51.053397"><ele>65.8</ele><time>2022-05-15T08:53:39.000Z</time></trkpt><trkpt lon="5.687378" lat="51.053431"><ele>65.8</ele><time>2022-05-15T08:53:40.000Z</time></trkpt><trkpt lon="5.687503" lat="51.053469"><ele>65.6</ele><time>2022-05-15T08:53:41.000Z</time></trkpt><trkpt lon="5.687625" lat="51.053509"><ele>65.2</ele><time>2022-05-15T08:53:42.000Z</time></trkpt><trkpt lon="5.687754" lat="51.053549"><ele>65</ele><time>2022-05-15T08:53:43.000Z</time></trkpt><trkpt lon="5.687877" lat="51.053591"><ele>65</ele><time>2022-05-15T08:53:44.000Z</time></trkpt><trkpt lon="5.687997" lat="51.053629"><ele>65</ele><time>2022-05-15T08:53:45.000Z</time></trkpt><trkpt lon="5.688117" lat="51.053668"><ele>64.8</ele><time>2022-05-15T08:53:46.000Z</time></trkpt><trkpt lon="5.688233" lat="51.053702"><ele>64.8</ele><time>2022-05-15T08:53:47.000Z</time></trkpt><trkpt lon="5.688351" lat="51.05374"><ele>64.6</ele><time>2022-05-15T08:53:48.000Z</time></trkpt><trkpt lon="5.688463" lat="51.053781"><ele>64.6</ele><time>2022-05-15T08:53:49.000Z</time></trkpt><trkpt lon="5.688576" lat="51.053824"><ele>64.4</ele><time>2022-05-15T08:53:50.000Z</time></trkpt><trkpt lon="5.688684" lat="51.053866"><ele>64.4</ele><time>2022-05-15T08:53:51.000Z</time></trkpt><trkpt lon="5.688786" lat="51.053909"><ele>64.4</ele><time>2022-05-15T08:53:52.000Z</time></trkpt><trkpt lon="5.688896" lat="51.053961"><ele>64.4</ele><time>2022-05-15T08:53:53.000Z</time></trkpt><trkpt lon="5.689006" lat="51.054011"><ele>64.4</ele><time>2022-05-15T08:53:54.000Z</time></trkpt><trkpt lon="5.689116" lat="51.05406"><ele>64.4</ele><time>2022-05-15T08:53:55.000Z</time></trkpt><trkpt lon="5.689227" lat="51.05411"><ele>64.2</ele><time>2022-05-15T08:53:56.000Z</time></trkpt><trkpt lon="5.689337" lat="51.054156"><ele>64.2</ele><time>2022-05-15T08:53:57.000Z</time></trkpt><trkpt lon="5.689446" lat="51.054205"><ele>64</ele><time>2022-05-15T08:53:58.000Z</time></trkpt><trkpt lon="5.689555" lat="51.054255"><ele>63.8</ele><time>2022-05-15T08:53:59.000Z</time></trkpt><trkpt lon="5.689664" lat="51.054304"><ele>63.6</ele><time>2022-05-15T08:54:00.000Z</time></trkpt><trkpt lon="5.689775" lat="51.054354"><ele>63.6</ele><time>2022-05-15T08:54:01.000Z</time></trkpt><trkpt lon="5.689876" lat="51.054403"><ele>63.4</ele><time>2022-05-15T08:54:02.000Z</time></trkpt><trkpt lon="5.689983" lat="51.05445"><ele>63.4</ele><time>2022-05-15T08:54:03.000Z</time></trkpt><trkpt lon="5.69009" lat="51.054495"><ele>63.2</ele><time>2022-05-15T08:54:04.000Z</time></trkpt><trkpt lon="5.690196" lat="51.054541"><ele>63</ele><time>2022-05-15T08:54:05.000Z</time></trkpt><trkpt lon="5.690301" lat="51.054586"><ele>63</ele><time>2022-05-15T08:54:06.000Z</time></trkpt><trkpt lon="5.690408" lat="51.054632"><ele>62.8</ele><time>2022-05-15T08:54:07.000Z</time></trkpt><trkpt lon="5.690514" lat="51.054678"><ele>62.6</ele><time>2022-05-15T08:54:08.000Z</time></trkpt><trkpt lon="5.690619" lat="51.054724"><ele>62.4</ele><time>2022-05-15T08:54:09.000Z</time></trkpt><trkpt lon="5.690724" lat="51.054768"><ele>62.2</ele><time>2022-05-15T08:54:10.000Z</time></trkpt><trkpt lon="5.690839" lat="51.054816"><ele>62</ele><time>2022-05-15T08:54:11.000Z</time></trkpt><trkpt lon="5.690949" lat="51.054861"><ele>61.8</ele><time>2022-05-15T08:54:12.000Z</time></trkpt><trkpt lon="5.691057" lat="51.054907"><ele>61.6</ele><time>2022-05-15T08:54:13.000Z</time></trkpt><trkpt lon="5.691166" lat="51.054957"><ele>61.2</ele><time>2022-05-15T08:54:14.000Z</time></trkpt><trkpt lon="5.691275" lat="51.054998"><ele>61</ele><time>2022-05-15T08:54:15.000Z</time></trkpt><trkpt lon="5.691389" lat="51.055048"><ele>60.6</ele><time>2022-05-15T08:54:16.000Z</time></trkpt><trkpt lon="5.6915" lat="51.055101"><ele>60</ele><time>2022-05-15T08:54:17.000Z</time></trkpt><trkpt lon="5.691612" lat="51.055152"><ele>59.8</ele><time>2022-05-15T08:54:18.000Z</time></trkpt><trkpt lon="5.691718" lat="51.055205"><ele>59.6</ele><time>2022-05-15T08:54:19.000Z</time></trkpt><trkpt lon="5.691828" lat="51.055254"><ele>59.4</ele><time>2022-05-15T08:54:20.000Z</time></trkpt><trkpt lon="5.69194" lat="51.0553"><ele>59.2</ele><time>2022-05-15T08:54:21.000Z</time></trkpt><trkpt lon="5.692056" lat="51.055349"><ele>58.8</ele><time>2022-05-15T08:54:22.000Z</time></trkpt><trkpt lon="5.692171" lat="51.055395"><ele>58.6</ele><time>2022-05-15T08:54:23.000Z</time></trkpt><trkpt lon="5.692288" lat="51.055445"><ele>58.4</ele><time>2022-05-15T08:54:24.000Z</time></trkpt><trkpt lon="5.692404" lat="51.05549"><ele>58</ele><time>2022-05-15T08:54:25.000Z</time></trkpt><trkpt lon="5.692527" lat="51.055541"><ele>57.8</ele><time>2022-05-15T08:54:26.000Z</time></trkpt><trkpt lon="5.692646" lat="51.055593"><ele>57.4</ele><time>2022-05-15T08:54:27.000Z</time></trkpt><trkpt lon="5.692767" lat="51.055644"><ele>57.2</ele><time>2022-05-15T08:54:28.000Z</time></trkpt><trkpt lon="5.692889" lat="51.055693"><ele>57</ele><time>2022-05-15T08:54:29.000Z</time></trkpt><trkpt lon="5.693012" lat="51.055739"><ele>56.6</ele><time>2022-05-15T08:54:30.000Z</time></trkpt><trkpt lon="5.693138" lat="51.055784"><ele>56.2</ele><time>2022-05-15T08:54:31.000Z</time></trkpt><trkpt lon="5.69327" lat="51.055826"><ele>55.8</ele><time>2022-05-15T08:54:32.000Z</time></trkpt><trkpt lon="5.693403" lat="51.055868"><ele>55.4</ele><time>2022-05-15T08:54:33.000Z</time></trkpt><trkpt lon="5.693538" lat="51.055907"><ele>54.8</ele><time>2022-05-15T08:54:34.000Z</time></trkpt><trkpt lon="5.693673" lat="51.055941"><ele>54.4</ele><time>2022-05-15T08:54:35.000Z</time></trkpt><trkpt lon="5.693812" lat="51.05598"><ele>54</ele><time>2022-05-15T08:54:36.000Z</time></trkpt><trkpt lon="5.69395" lat="51.056014"><ele>53.8</ele><time>2022-05-15T08:54:37.000Z</time></trkpt><trkpt lon="5.694085" lat="51.056045"><ele>53.4</ele><time>2022-05-15T08:54:38.000Z</time></trkpt><trkpt lon="5.694219" lat="51.056079"><ele>53</ele><time>2022-05-15T08:54:39.000Z</time></trkpt><trkpt lon="5.69435" lat="51.056109"><ele>52.8</ele><time>2022-05-15T08:54:40.000Z</time></trkpt><trkpt lon="5.694481" lat="51.056143"><ele>52.4</ele><time>2022-05-15T08:54:41.000Z</time></trkpt><trkpt lon="5.694602" lat="51.056172"><ele>52.2</ele><time>2022-05-15T08:54:42.000Z</time></trkpt><trkpt lon="5.694736" lat="51.056204"><ele>52</ele><time>2022-05-15T08:54:43.000Z</time></trkpt><trkpt lon="5.694862" lat="51.056235"><ele>51.8</ele><time>2022-05-15T08:54:44.000Z</time></trkpt><trkpt lon="5.694987" lat="51.056266"><ele>51.8</ele><time>2022-05-15T08:54:45.000Z</time></trkpt><trkpt lon="5.695113" lat="51.056296"><ele>51.6</ele><time>2022-05-15T08:54:46.000Z</time></trkpt><trkpt lon="5.695233" lat="51.056326"><ele>51.4</ele><time>2022-05-15T08:54:47.000Z</time></trkpt><trkpt lon="5.695362" lat="51.056357"><ele>51.4</ele><time>2022-05-15T08:54:48.000Z</time></trkpt><trkpt lon="5.69549" lat="51.056384"><ele>51.2</ele><time>2022-05-15T08:54:49.000Z</time></trkpt><trkpt lon="5.695616" lat="51.056414"><ele>51.2</ele><time>2022-05-15T08:54:50.000Z</time></trkpt><trkpt lon="5.695744" lat="51.056448"><ele>51</ele><time>2022-05-15T08:54:51.000Z</time></trkpt><trkpt lon="5.695877" lat="51.056475"><ele>50.8</ele><time>2022-05-15T08:54:52.000Z</time></trkpt><trkpt lon="5.69601" lat="51.056506"><ele>50.6</ele><time>2022-05-15T08:54:53.000Z</time></trkpt><trkpt lon="5.696142" lat="51.056537"><ele>50.4</ele><time>2022-05-15T08:54:54.000Z</time></trkpt><trkpt lon="5.696273" lat="51.056567"><ele>50.4</ele><time>2022-05-15T08:54:55.000Z</time></trkpt><trkpt lon="5.696407" lat="51.056598"><ele>50.2</ele><time>2022-05-15T08:54:56.000Z</time></trkpt><trkpt lon="5.696539" lat="51.056631"><ele>50</ele><time>2022-05-15T08:54:57.000Z</time></trkpt><trkpt lon="5.696671" lat="51.056663"><ele>50</ele><time>2022-05-15T08:54:58.000Z</time></trkpt><trkpt lon="5.696798" lat="51.056693"><ele>49.8</ele><time>2022-05-15T08:54:59.000Z</time></trkpt><trkpt lon="5.696925" lat="51.056727"><ele>49.6</ele><time>2022-05-15T08:55:00.000Z</time></trkpt><trkpt lon="5.69705" lat="51.056761"><ele>49.6</ele><time>2022-05-15T08:55:01.000Z</time></trkpt><trkpt lon="5.697178" lat="51.056796"><ele>49.4</ele><time>2022-05-15T08:55:02.000Z</time></trkpt><trkpt lon="5.697299" lat="51.056837"><ele>49.4</ele><time>2022-05-15T08:55:03.000Z</time></trkpt><trkpt lon="5.697421" lat="51.056879"><ele>49</ele><time>2022-05-15T08:55:04.000Z</time></trkpt><trkpt lon="5.697544" lat="51.056918"><ele>48.8</ele><time>2022-05-15T08:55:05.000Z</time></trkpt><trkpt lon="5.697664" lat="51.05696"><ele>48.6</ele><time>2022-05-15T08:55:06.000Z</time></trkpt><trkpt lon="5.697782" lat="51.057005"><ele>48.4</ele><time>2022-05-15T08:55:07.000Z</time></trkpt><trkpt lon="5.697899" lat="51.057047"><ele>48.4</ele><time>2022-05-15T08:55:08.000Z</time></trkpt><trkpt lon="5.698014" lat="51.057093"><ele>48.4</ele><time>2022-05-15T08:55:09.000Z</time></trkpt><trkpt lon="5.698119" lat="51.057135"><ele>48.6</ele><time>2022-05-15T08:55:10.000Z</time></trkpt><trkpt lon="5.698224" lat="51.057177"><ele>48.8</ele><time>2022-05-15T08:55:11.000Z</time></trkpt><trkpt lon="5.698329" lat="51.057218"><ele>49</ele><time>2022-05-15T08:55:12.000Z</time></trkpt><trkpt lon="5.698436" lat="51.057261"><ele>49.4</ele><time>2022-05-15T08:55:13.000Z</time></trkpt><trkpt lon="5.698541" lat="51.0573"><ele>49.6</ele><time>2022-05-15T08:55:14.000Z</time></trkpt><trkpt lon="5.698643" lat="51.057337"><ele>50</ele><time>2022-05-15T08:55:15.000Z</time></trkpt><trkpt lon="5.698747" lat="51.057376"><ele>50.2</ele><time>2022-05-15T08:55:16.000Z</time></trkpt><trkpt lon="5.698848" lat="51.057403"><ele>50.4</ele><time>2022-05-15T08:55:17.000Z</time></trkpt><trkpt lon="5.698947" lat="51.05743"><ele>50.8</ele><time>2022-05-15T08:55:18.000Z</time></trkpt><trkpt lon="5.699049" lat="51.057452"><ele>51</ele><time>2022-05-15T08:55:19.000Z</time></trkpt><trkpt lon="5.699147" lat="51.057475"><ele>51.2</ele><time>2022-05-15T08:55:20.000Z</time></trkpt><trkpt lon="5.69925" lat="51.057495"><ele>51.6</ele><time>2022-05-15T08:55:21.000Z</time></trkpt><trkpt lon="5.699351" lat="51.05751"><ele>51.8</ele><time>2022-05-15T08:55:22.000Z</time></trkpt><trkpt lon="5.699453" lat="51.057525"><ele>52</ele><time>2022-05-15T08:55:23.000Z</time></trkpt><trkpt lon="5.699553" lat="51.057537"><ele>52.4</ele><time>2022-05-15T08:55:24.000Z</time></trkpt><trkpt lon="5.699653" lat="51.057548"><ele>52.8</ele><time>2022-05-15T08:55:25.000Z</time></trkpt><trkpt lon="5.699752" lat="51.057556"><ele>53.4</ele><time>2022-05-15T08:55:26.000Z</time></trkpt><trkpt lon="5.699851" lat="51.057563"><ele>53.8</ele><time>2022-05-15T08:55:27.000Z</time></trkpt><trkpt lon="5.699953" lat="51.057571"><ele>54</ele><time>2022-05-15T08:55:28.000Z</time></trkpt><trkpt lon="5.70006" lat="51.057579"><ele>54</ele><time>2022-05-15T08:55:29.000Z</time></trkpt><trkpt lon="5.700163" lat="51.057586"><ele>54.2</ele><time>2022-05-15T08:55:30.000Z</time></trkpt><trkpt lon="5.700267" lat="51.057594"><ele>54.2</ele><time>2022-05-15T08:55:31.000Z</time></trkpt><trkpt lon="5.700369" lat="51.057602"><ele>54.2</ele><time>2022-05-15T08:55:32.000Z</time></trkpt><trkpt lon="5.700475" lat="51.057609"><ele>54.2</ele><time>2022-05-15T08:55:33.000Z</time></trkpt><trkpt lon="5.700577" lat="51.057617"><ele>54</ele><time>2022-05-15T08:55:34.000Z</time></trkpt><trkpt lon="5.700679" lat="51.057625"><ele>53.8</ele><time>2022-05-15T08:55:35.000Z</time></trkpt><trkpt lon="5.700778" lat="51.057632"><ele>53.6</ele><time>2022-05-15T08:55:36.000Z</time></trkpt><trkpt lon="5.700877" lat="51.05764"><ele>53.4</ele><time>2022-05-15T08:55:37.000Z</time></trkpt><trkpt lon="5.700974" lat="51.057651"><ele>53.4</ele><time>2022-05-15T08:55:38.000Z</time></trkpt><trkpt lon="5.701081" lat="51.057659"><ele>53.4</ele><time>2022-05-15T08:55:39.000Z</time></trkpt><trkpt lon="5.701186" lat="51.057667"><ele>53.2</ele><time>2022-05-15T08:55:40.000Z</time></trkpt><trkpt lon="5.701291" lat="51.057674"><ele>53.2</ele><time>2022-05-15T08:55:41.000Z</time></trkpt><trkpt lon="5.701401" lat="51.057682"><ele>53</ele><time>2022-05-15T08:55:42.000Z</time></trkpt><trkpt lon="5.70151" lat="51.057693"><ele>53</ele><time>2022-05-15T08:55:43.000Z</time></trkpt><trkpt lon="5.70162" lat="51.057705"><ele>52.8</ele><time>2022-05-15T08:55:44.000Z</time></trkpt><trkpt lon="5.701731" lat="51.057712"><ele>52.6</ele><time>2022-05-15T08:55:45.000Z</time></trkpt><trkpt lon="5.701844" lat="51.057724"><ele>52.6</ele><time>2022-05-15T08:55:46.000Z</time></trkpt><trkpt lon="5.701964" lat="51.057735"><ele>52.6</ele><time>2022-05-15T08:55:47.000Z</time></trkpt><trkpt lon="5.702085" lat="51.057742"><ele>52.4</ele><time>2022-05-15T08:55:48.000Z</time></trkpt><trkpt lon="5.702219" lat="51.057747"><ele>52</ele><time>2022-05-15T08:55:49.000Z</time></trkpt><trkpt lon="5.702347" lat="51.057754"><ele>51.6</ele><time>2022-05-15T08:55:50.000Z</time></trkpt><trkpt lon="5.702479" lat="51.057758"><ele>51.2</ele><time>2022-05-15T08:55:51.000Z</time></trkpt><trkpt lon="5.702606" lat="51.057762"><ele>50.8</ele><time>2022-05-15T08:55:52.000Z</time></trkpt><trkpt lon="5.702742" lat="51.057766"><ele>50.2</ele><time>2022-05-15T08:55:53.000Z</time></trkpt><trkpt lon="5.702875" lat="51.057766"><ele>49.6</ele><time>2022-05-15T08:55:54.000Z</time></trkpt><trkpt lon="5.703008" lat="51.05777"><ele>49.2</ele><time>2022-05-15T08:55:55.000Z</time></trkpt><trkpt lon="5.703142" lat="51.057774"><ele>48.8</ele><time>2022-05-15T08:55:56.000Z</time></trkpt><trkpt lon="5.70327" lat="51.057781"><ele>48.4</ele><time>2022-05-15T08:55:57.000Z</time></trkpt><trkpt lon="5.703396" lat="51.057781"><ele>48.2</ele><time>2022-05-15T08:55:58.000Z</time></trkpt><trkpt lon="5.703513" lat="51.057781"><ele>48</ele><time>2022-05-15T08:55:59.000Z</time></trkpt><trkpt lon="5.703628" lat="51.057781"><ele>47.8</ele><time>2022-05-15T08:56:00.000Z</time></trkpt><trkpt lon="5.703744" lat="51.057778"><ele>47.8</ele><time>2022-05-15T08:56:01.000Z</time></trkpt><trkpt lon="5.703864" lat="51.057774"><ele>47.6</ele><time>2022-05-15T08:56:02.000Z</time></trkpt><trkpt lon="5.703983" lat="51.05777"><ele>47.4</ele><time>2022-05-15T08:56:03.000Z</time></trkpt><trkpt lon="5.704103" lat="51.057766"><ele>47.2</ele><time>2022-05-15T08:56:04.000Z</time></trkpt><trkpt lon="5.704213" lat="51.057762"><ele>47</ele><time>2022-05-15T08:56:05.000Z</time></trkpt><trkpt lon="5.704323" lat="51.057758"><ele>47</ele><time>2022-05-15T08:56:06.000Z</time></trkpt><trkpt lon="5.704439" lat="51.057758"><ele>46.8</ele><time>2022-05-15T08:56:07.000Z</time></trkpt><trkpt lon="5.704556" lat="51.057758"><ele>46.8</ele><time>2022-05-15T08:56:08.000Z</time></trkpt><trkpt lon="5.704683" lat="51.057758"><ele>46.6</ele><time>2022-05-15T08:56:09.000Z</time></trkpt><trkpt lon="5.704811" lat="51.057758"><ele>46.4</ele><time>2022-05-15T08:56:10.000Z</time></trkpt><trkpt lon="5.704939" lat="51.057758"><ele>46.2</ele><time>2022-05-15T08:56:11.000Z</time></trkpt><trkpt lon="5.70507" lat="51.057762"><ele>45.8</ele><time>2022-05-15T08:56:12.000Z</time></trkpt><trkpt lon="5.705203" lat="51.057758"><ele>45.6</ele><time>2022-05-15T08:56:13.000Z</time></trkpt><trkpt lon="5.705335" lat="51.057762"><ele>45.4</ele><time>2022-05-15T08:56:14.000Z</time></trkpt><trkpt lon="5.705464" lat="51.057762"><ele>45</ele><time>2022-05-15T08:56:15.000Z</time></trkpt><trkpt lon="5.705587" lat="51.057769"><ele>44.8</ele><time>2022-05-15T08:56:16.000Z</time></trkpt><trkpt lon="5.705712" lat="51.05777"><ele>44.4</ele><time>2022-05-15T08:56:17.000Z</time></trkpt><trkpt lon="5.705831" lat="51.057777"><ele>44</ele><time>2022-05-15T08:56:18.000Z</time></trkpt><trkpt lon="5.705957" lat="51.057781"><ele>43.4</ele><time>2022-05-15T08:56:19.000Z</time></trkpt><trkpt lon="5.706083" lat="51.057778"><ele>43</ele><time>2022-05-15T08:56:20.000Z</time></trkpt><trkpt lon="5.706215" lat="51.05777"><ele>42.6</ele><time>2022-05-15T08:56:21.000Z</time></trkpt><trkpt lon="5.706348" lat="51.057762"><ele>42.4</ele><time>2022-05-15T08:56:22.000Z</time></trkpt><trkpt lon="5.706477" lat="51.057751"><ele>42.4</ele><time>2022-05-15T08:56:23.000Z</time></trkpt><trkpt lon="5.706607" lat="51.057743"><ele>42.4</ele><time>2022-05-15T08:56:24.000Z</time></trkpt><trkpt lon="5.706735" lat="51.057743"><ele>42.4</ele><time>2022-05-15T08:56:25.000Z</time></trkpt><trkpt lon="5.70686" lat="51.057739"><ele>42.4</ele><time>2022-05-15T08:56:26.000Z</time></trkpt><trkpt lon="5.706995" lat="51.057747"><ele>42.2</ele><time>2022-05-15T08:56:27.000Z</time></trkpt><trkpt lon="5.707126" lat="51.057754"><ele>42.2</ele><time>2022-05-15T08:56:28.000Z</time></trkpt><trkpt lon="5.707263" lat="51.057762"><ele>42.2</ele><time>2022-05-15T08:56:29.000Z</time></trkpt><trkpt lon="5.707403" lat="51.057773"><ele>42</ele><time>2022-05-15T08:56:30.000Z</time></trkpt><trkpt lon="5.707533" lat="51.057777"><ele>41.8</ele><time>2022-05-15T08:56:31.000Z</time></trkpt><trkpt lon="5.707667" lat="51.057774"><ele>41.4</ele><time>2022-05-15T08:56:32.000Z</time></trkpt><trkpt lon="5.707799" lat="51.05777"><ele>41</ele><time>2022-05-15T08:56:33.000Z</time></trkpt><trkpt lon="5.707937" lat="51.057777"><ele>40.8</ele><time>2022-05-15T08:56:34.000Z</time></trkpt><trkpt lon="5.708071" lat="51.057785"><ele>40.6</ele><time>2022-05-15T08:56:35.000Z</time></trkpt><trkpt lon="5.708196" lat="51.057785"><ele>40.8</ele><time>2022-05-15T08:56:36.000Z</time></trkpt><trkpt lon="5.708314" lat="51.057785"><ele>41</ele><time>2022-05-15T08:56:37.000Z</time></trkpt><trkpt lon="5.708435" lat="51.057789"><ele>41</ele><time>2022-05-15T08:56:38.000Z</time></trkpt><trkpt lon="5.708565" lat="51.057785"><ele>41.2</ele><time>2022-05-15T08:56:39.000Z</time></trkpt><trkpt lon="5.708681" lat="51.057789"><ele>41.4</ele><time>2022-05-15T08:56:40.000Z</time></trkpt><trkpt lon="5.708794" lat="51.057793"><ele>41.6</ele><time>2022-05-15T08:56:41.000Z</time></trkpt><trkpt lon="5.708906" lat="51.057793"><ele>41.6</ele><time>2022-05-15T08:56:42.000Z</time></trkpt><trkpt lon="5.709017" lat="51.057793"><ele>41.8</ele><time>2022-05-15T08:56:43.000Z</time></trkpt><trkpt lon="5.709125" lat="51.057785"><ele>41.8</ele><time>2022-05-15T08:56:44.000Z</time></trkpt><trkpt lon="5.709223" lat="51.057785"><ele>41.8</ele><time>2022-05-15T08:56:45.000Z</time></trkpt><trkpt lon="5.709317" lat="51.057789"><ele>41.8</ele><time>2022-05-15T08:56:46.000Z</time></trkpt><trkpt lon="5.70939" lat="51.057792"><ele>41.6</ele><time>2022-05-15T08:56:47.000Z</time></trkpt><trkpt lon="5.709485" lat="51.057786"><ele>41.4</ele><time>2022-05-15T08:56:48.000Z</time></trkpt><trkpt lon="5.709587" lat="51.057778"><ele>41.4</ele><time>2022-05-15T08:56:49.000Z</time></trkpt><trkpt lon="5.709653" lat="51.05774"><ele>41.4</ele><time>2022-05-15T08:56:50.000Z</time></trkpt><trkpt lon="5.709702" lat="51.057689"><ele>41.6</ele><time>2022-05-15T08:56:51.000Z</time></trkpt><trkpt lon="5.709758" lat="51.057631"><ele>41.6</ele><time>2022-05-15T08:56:52.000Z</time></trkpt><trkpt lon="5.709816" lat="51.05757"><ele>41.8</ele><time>2022-05-15T08:56:53.000Z</time></trkpt><trkpt lon="5.709867" lat="51.057501"><ele>41.8</ele><time>2022-05-15T08:56:54.000Z</time></trkpt><trkpt lon="5.709913" lat="51.057437"><ele>41.8</ele><time>2022-05-15T08:56:55.000Z</time></trkpt><trkpt lon="5.709961" lat="51.057372"><ele>41.8</ele><time>2022-05-15T08:56:56.000Z</time></trkpt><trkpt lon="5.710007" lat="51.05731"><ele>41.8</ele><time>2022-05-15T08:56:57.000Z</time></trkpt><trkpt lon="5.710059" lat="51.05725"><ele>41.8</ele><time>2022-05-15T08:56:58.000Z</time></trkpt><trkpt lon="5.710108" lat="51.057188"><ele>41.8</ele><time>2022-05-15T08:56:59.000Z</time></trkpt><trkpt lon="5.710156" lat="51.057125"><ele>41.8</ele><time>2022-05-15T08:57:00.000Z</time></trkpt><trkpt lon="5.7102" lat="51.057059"><ele>41.8</ele><time>2022-05-15T08:57:01.000Z</time></trkpt><trkpt lon="5.710247" lat="51.056997"><ele>41.8</ele><time>2022-05-15T08:57:02.000Z</time></trkpt><trkpt lon="5.710297" lat="51.056933"><ele>42</ele><time>2022-05-15T08:57:03.000Z</time></trkpt><trkpt lon="5.710349" lat="51.056872"><ele>42</ele><time>2022-05-15T08:57:04.000Z</time></trkpt><trkpt lon="5.7104" lat="51.05681"><ele>42</ele><time>2022-05-15T08:57:05.000Z</time></trkpt><trkpt lon="5.710456" lat="51.056746"><ele>41.8</ele><time>2022-05-15T08:57:06.000Z</time></trkpt><trkpt lon="5.710508" lat="51.056684"><ele>41.8</ele><time>2022-05-15T08:57:07.000Z</time></trkpt><trkpt lon="5.71056" lat="51.056624"><ele>41.8</ele><time>2022-05-15T08:57:08.000Z</time></trkpt><trkpt lon="5.71061" lat="51.056559"><ele>42</ele><time>2022-05-15T08:57:09.000Z</time></trkpt><trkpt lon="5.710662" lat="51.056494"><ele>42</ele><time>2022-05-15T08:57:10.000Z</time></trkpt><trkpt lon="5.710709" lat="51.056431"><ele>42</ele><time>2022-05-15T08:57:11.000Z</time></trkpt><trkpt lon="5.710758" lat="51.056365"><ele>42</ele><time>2022-05-15T08:57:12.000Z</time></trkpt><trkpt lon="5.710808" lat="51.056303"><ele>42</ele><time>2022-05-15T08:57:13.000Z</time></trkpt><trkpt lon="5.710859" lat="51.056243"><ele>42</ele><time>2022-05-15T08:57:14.000Z</time></trkpt><trkpt lon="5.710911" lat="51.056178"><ele>42</ele><time>2022-05-15T08:57:15.000Z</time></trkpt><trkpt lon="5.710962" lat="51.056116"><ele>42</ele><time>2022-05-15T08:57:16.000Z</time></trkpt><trkpt lon="5.711011" lat="51.056055"><ele>42.2</ele><time>2022-05-15T08:57:17.000Z</time></trkpt><trkpt lon="5.711058" lat="51.055994"><ele>42</ele><time>2022-05-15T08:57:18.000Z</time></trkpt><trkpt lon="5.711102" lat="51.055933"><ele>42.2</ele><time>2022-05-15T08:57:19.000Z</time></trkpt><trkpt lon="5.711143" lat="51.055871"><ele>42.2</ele><time>2022-05-15T08:57:20.000Z</time></trkpt><trkpt lon="5.711182" lat="51.055807"><ele>42.2</ele><time>2022-05-15T08:57:21.000Z</time></trkpt><trkpt lon="5.71122" lat="51.05575"><ele>42.4</ele><time>2022-05-15T08:57:22.000Z</time></trkpt><trkpt lon="5.711263" lat="51.05569"><ele>42.2</ele><time>2022-05-15T08:57:23.000Z</time></trkpt><trkpt lon="5.711306" lat="51.055635"><ele>42.2</ele><time>2022-05-15T08:57:24.000Z</time></trkpt><trkpt lon="5.711345" lat="51.055578"><ele>42.2</ele><time>2022-05-15T08:57:25.000Z</time></trkpt><trkpt lon="5.711382" lat="51.055527"><ele>42.2</ele><time>2022-05-15T08:57:26.000Z</time></trkpt><trkpt lon="5.711419" lat="51.055468"><ele>42.2</ele><time>2022-05-15T08:57:27.000Z</time></trkpt><trkpt lon="5.711455" lat="51.055411"><ele>41.8</ele><time>2022-05-15T08:57:28.000Z</time></trkpt><trkpt lon="5.711495" lat="51.055353"><ele>41.8</ele><time>2022-05-15T08:57:29.000Z</time></trkpt><trkpt lon="5.711537" lat="51.055292"><ele>42</ele><time>2022-05-15T08:57:30.000Z</time></trkpt><trkpt lon="5.71158" lat="51.055232"><ele>42.4</ele><time>2022-05-15T08:57:31.000Z</time></trkpt><trkpt lon="5.711627" lat="51.055174"><ele>42.6</ele><time>2022-05-15T08:57:32.000Z</time></trkpt><trkpt lon="5.711674" lat="51.055117"><ele>42.6</ele><time>2022-05-15T08:57:33.000Z</time></trkpt><trkpt lon="5.711719" lat="51.055055"><ele>42.4</ele><time>2022-05-15T08:57:34.000Z</time></trkpt><trkpt lon="5.711765" lat="51.054991"><ele>42.6</ele><time>2022-05-15T08:57:35.000Z</time></trkpt><trkpt lon="5.711813" lat="51.054926"><ele>42.8</ele><time>2022-05-15T08:57:36.000Z</time></trkpt><trkpt lon="5.711862" lat="51.054862"><ele>42.8</ele><time>2022-05-15T08:57:37.000Z</time></trkpt><trkpt lon="5.711911" lat="51.054793"><ele>42.8</ele><time>2022-05-15T08:57:38.000Z</time></trkpt><trkpt lon="5.711965" lat="51.054724"><ele>42.8</ele><time>2022-05-15T08:57:39.000Z</time></trkpt><trkpt lon="5.712017" lat="51.054656"><ele>42.6</ele><time>2022-05-15T08:57:40.000Z</time></trkpt><trkpt lon="5.712067" lat="51.054587"><ele>42.6</ele><time>2022-05-15T08:57:41.000Z</time></trkpt><trkpt lon="5.712116" lat="51.054522"><ele>42.4</ele><time>2022-05-15T08:57:42.000Z</time></trkpt><trkpt lon="5.712165" lat="51.054456"><ele>42.4</ele><time>2022-05-15T08:57:43.000Z</time></trkpt><trkpt lon="5.71221" lat="51.054395"><ele>42.4</ele><time>2022-05-15T08:57:44.000Z</time></trkpt><trkpt lon="5.712263" lat="51.054324"><ele>42.6</ele><time>2022-05-15T08:57:45.000Z</time></trkpt><trkpt lon="5.712313" lat="51.054259"><ele>42.6</ele><time>2022-05-15T08:57:46.000Z</time></trkpt><trkpt lon="5.712361" lat="51.054195"><ele>42.6</ele><time>2022-05-15T08:57:47.000Z</time></trkpt><trkpt lon="5.712412" lat="51.054129"><ele>42.8</ele><time>2022-05-15T08:57:48.000Z</time></trkpt><trkpt lon="5.71246" lat="51.054062"><ele>42.8</ele><time>2022-05-15T08:57:49.000Z</time></trkpt><trkpt lon="5.712509" lat="51.053996"><ele>42.8</ele><time>2022-05-15T08:57:50.000Z</time></trkpt><trkpt lon="5.712558" lat="51.053927"><ele>42.8</ele><time>2022-05-15T08:57:51.000Z</time></trkpt><trkpt lon="5.712607" lat="51.053863"><ele>42.8</ele><time>2022-05-15T08:57:52.000Z</time></trkpt><trkpt lon="5.712657" lat="51.053793"><ele>42.6</ele><time>2022-05-15T08:57:53.000Z</time></trkpt><trkpt lon="5.712705" lat="51.053728"><ele>42.6</ele><time>2022-05-15T08:57:54.000Z</time></trkpt><trkpt lon="5.712751" lat="51.053664"><ele>42.6</ele><time>2022-05-15T08:57:55.000Z</time></trkpt><trkpt lon="5.712799" lat="51.053598"><ele>42.4</ele><time>2022-05-15T08:57:56.000Z</time></trkpt><trkpt lon="5.712847" lat="51.053534"><ele>42.4</ele><time>2022-05-15T08:57:57.000Z</time></trkpt><trkpt lon="5.712893" lat="51.053473"><ele>42.4</ele><time>2022-05-15T08:57:58.000Z</time></trkpt><trkpt lon="5.71294" lat="51.053412"><ele>42.2</ele><time>2022-05-15T08:57:59.000Z</time></trkpt><trkpt lon="5.712987" lat="51.053351"><ele>42.2</ele><time>2022-05-15T08:58:00.000Z</time></trkpt><trkpt lon="5.713032" lat="51.053286"><ele>42</ele><time>2022-05-15T08:58:01.000Z</time></trkpt><trkpt lon="5.713077" lat="51.053225"><ele>42.2</ele><time>2022-05-15T08:58:02.000Z</time></trkpt><trkpt lon="5.713122" lat="51.053164"><ele>42.2</ele><time>2022-05-15T08:58:03.000Z</time></trkpt><trkpt lon="5.713167" lat="51.053099"><ele>42.2</ele><time>2022-05-15T08:58:04.000Z</time></trkpt><trkpt lon="5.713212" lat="51.053034"><ele>42.2</ele><time>2022-05-15T08:58:05.000Z</time></trkpt><trkpt lon="5.713257" lat="51.052973"><ele>42</ele><time>2022-05-15T08:58:06.000Z</time></trkpt><trkpt lon="5.713303" lat="51.052912"><ele>41.8</ele><time>2022-05-15T08:58:07.000Z</time></trkpt><trkpt lon="5.713347" lat="51.052847"><ele>41.8</ele><time>2022-05-15T08:58:08.000Z</time></trkpt><trkpt lon="5.713392" lat="51.052786"><ele>41.8</ele><time>2022-05-15T08:58:09.000Z</time></trkpt><trkpt lon="5.71344" lat="51.052725"><ele>41.8</ele><time>2022-05-15T08:58:10.000Z</time></trkpt><trkpt lon="5.713486" lat="51.052664"><ele>41.8</ele><time>2022-05-15T08:58:11.000Z</time></trkpt><trkpt lon="5.713532" lat="51.052604"><ele>42</ele><time>2022-05-15T08:58:12.000Z</time></trkpt><trkpt lon="5.713582" lat="51.052539"><ele>42.2</ele><time>2022-05-15T08:58:13.000Z</time></trkpt><trkpt lon="5.713632" lat="51.052474"><ele>42</ele><time>2022-05-15T08:58:14.000Z</time></trkpt><trkpt lon="5.71368" lat="51.052405"><ele>42</ele><time>2022-05-15T08:58:15.000Z</time></trkpt><trkpt lon="5.713723" lat="51.05234"><ele>41.8</ele><time>2022-05-15T08:58:16.000Z</time></trkpt><trkpt lon="5.713762" lat="51.052284"><ele>41.6</ele><time>2022-05-15T08:58:17.000Z</time></trkpt><trkpt lon="5.713817" lat="51.05221"><ele>41.8</ele><time>2022-05-15T08:58:18.000Z</time></trkpt><trkpt lon="5.713862" lat="51.052145"><ele>41.8</ele><time>2022-05-15T08:58:19.000Z</time></trkpt><trkpt lon="5.713907" lat="51.052084"><ele>41.8</ele><time>2022-05-15T08:58:20.000Z</time></trkpt><trkpt lon="5.71395" lat="51.052023"><ele>41.8</ele><time>2022-05-15T08:58:21.000Z</time></trkpt><trkpt lon="5.713997" lat="51.051962"><ele>41.8</ele><time>2022-05-15T08:58:22.000Z</time></trkpt><trkpt lon="5.714043" lat="51.051897"><ele>41.8</ele><time>2022-05-15T08:58:23.000Z</time></trkpt><trkpt lon="5.71409" lat="51.051833"><ele>41.6</ele><time>2022-05-15T08:58:24.000Z</time></trkpt><trkpt lon="5.714134" lat="51.051771"><ele>41.6</ele><time>2022-05-15T08:58:25.000Z</time></trkpt><trkpt lon="5.714177" lat="51.05171"><ele>41.6</ele><time>2022-05-15T08:58:26.000Z</time></trkpt><trkpt lon="5.714224" lat="51.051649"><ele>41.6</ele><time>2022-05-15T08:58:27.000Z</time></trkpt><trkpt lon="5.714272" lat="51.051588"><ele>41.8</ele><time>2022-05-15T08:58:28.000Z</time></trkpt><trkpt lon="5.714322" lat="51.051531"><ele>42.2</ele><time>2022-05-15T08:58:29.000Z</time></trkpt><trkpt lon="5.714375" lat="51.051466"><ele>42.2</ele><time>2022-05-15T08:58:30.000Z</time></trkpt><trkpt lon="5.714427" lat="51.051404"><ele>42.4</ele><time>2022-05-15T08:58:31.000Z</time></trkpt><trkpt lon="5.714475" lat="51.05134"><ele>42.4</ele><time>2022-05-15T08:58:32.000Z</time></trkpt><trkpt lon="5.714519" lat="51.051276"><ele>42.4</ele><time>2022-05-15T08:58:33.000Z</time></trkpt><trkpt lon="5.714563" lat="51.051211"><ele>42.4</ele><time>2022-05-15T08:58:34.000Z</time></trkpt><trkpt lon="5.714612" lat="51.051138"><ele>42.4</ele><time>2022-05-15T08:58:35.000Z</time></trkpt><trkpt lon="5.714659" lat="51.051071"><ele>42.4</ele><time>2022-05-15T08:58:36.000Z</time></trkpt><trkpt lon="5.714711" lat="51.051004"><ele>42.4</ele><time>2022-05-15T08:58:37.000Z</time></trkpt><trkpt lon="5.714756" lat="51.050939"><ele>42.4</ele><time>2022-05-15T08:58:38.000Z</time></trkpt><trkpt lon="5.714808" lat="51.050871"><ele>42.4</ele><time>2022-05-15T08:58:39.000Z</time></trkpt><trkpt lon="5.714857" lat="51.050806"><ele>42.6</ele><time>2022-05-15T08:58:40.000Z</time></trkpt><trkpt lon="5.714903" lat="51.050741"><ele>42.6</ele><time>2022-05-15T08:58:41.000Z</time></trkpt><trkpt lon="5.71495" lat="51.05068"><ele>42.6</ele><time>2022-05-15T08:58:42.000Z</time></trkpt><trkpt lon="5.714997" lat="51.050616"><ele>42.6</ele><time>2022-05-15T08:58:43.000Z</time></trkpt><trkpt lon="5.715042" lat="51.050551"><ele>42.6</ele><time>2022-05-15T08:58:44.000Z</time></trkpt><trkpt lon="5.715081" lat="51.050495"><ele>42.8</ele><time>2022-05-15T08:58:45.000Z</time></trkpt><trkpt lon="5.715133" lat="51.050425"><ele>42.8</ele><time>2022-05-15T08:58:46.000Z</time></trkpt><trkpt lon="5.715176" lat="51.050366"><ele>42.8</ele><time>2022-05-15T08:58:47.000Z</time></trkpt><trkpt lon="5.715225" lat="51.050299"><ele>42.8</ele><time>2022-05-15T08:58:48.000Z</time></trkpt><trkpt lon="5.715273" lat="51.05023"><ele>42.8</ele><time>2022-05-15T08:58:49.000Z</time></trkpt><trkpt lon="5.715322" lat="51.050165"><ele>42.8</ele><time>2022-05-15T08:58:50.000Z</time></trkpt><trkpt lon="5.71537" lat="51.050104"><ele>42.8</ele><time>2022-05-15T08:58:51.000Z</time></trkpt><trkpt lon="5.715418" lat="51.050039"><ele>42.8</ele><time>2022-05-15T08:58:52.000Z</time></trkpt><trkpt lon="5.715465" lat="51.049979"><ele>42.8</ele><time>2022-05-15T08:58:53.000Z</time></trkpt><trkpt lon="5.715511" lat="51.049914"><ele>42.8</ele><time>2022-05-15T08:58:54.000Z</time></trkpt><trkpt lon="5.715558" lat="51.049856"><ele>43</ele><time>2022-05-15T08:58:55.000Z</time></trkpt><trkpt lon="5.715603" lat="51.049796"><ele>43.2</ele><time>2022-05-15T08:58:56.000Z</time></trkpt><trkpt lon="5.715647" lat="51.049734"><ele>43.2</ele><time>2022-05-15T08:58:57.000Z</time></trkpt><trkpt lon="5.715693" lat="51.049674"><ele>43.2</ele><time>2022-05-15T08:58:58.000Z</time></trkpt><trkpt lon="5.715741" lat="51.04961"><ele>43.2</ele><time>2022-05-15T08:58:59.000Z</time></trkpt><trkpt lon="5.715787" lat="51.04955"><ele>43.4</ele><time>2022-05-15T08:59:00.000Z</time></trkpt><trkpt lon="5.715835" lat="51.049486"><ele>43.4</ele><time>2022-05-15T08:59:01.000Z</time></trkpt><trkpt lon="5.715879" lat="51.049423"><ele>43.2</ele><time>2022-05-15T08:59:02.000Z</time></trkpt><trkpt lon="5.715927" lat="51.04936"><ele>43.4</ele><time>2022-05-15T08:59:03.000Z</time></trkpt><trkpt lon="5.715973" lat="51.049303"><ele>43.4</ele><time>2022-05-15T08:59:04.000Z</time></trkpt><trkpt lon="5.716016" lat="51.049247"><ele>43.4</ele><time>2022-05-15T08:59:05.000Z</time></trkpt><trkpt lon="5.716062" lat="51.049174"><ele>43.4</ele><time>2022-05-15T08:59:06.000Z</time></trkpt><trkpt lon="5.716103" lat="51.04911"><ele>43.2</ele><time>2022-05-15T08:59:07.000Z</time></trkpt><trkpt lon="5.716147" lat="51.049047"><ele>43.2</ele><time>2022-05-15T08:59:08.000Z</time></trkpt><trkpt lon="5.716192" lat="51.048987"><ele>43.2</ele><time>2022-05-15T08:59:09.000Z</time></trkpt><trkpt lon="5.716235" lat="51.048928"><ele>43.2</ele><time>2022-05-15T08:59:10.000Z</time></trkpt><trkpt lon="5.716281" lat="51.048865"><ele>43.2</ele><time>2022-05-15T08:59:11.000Z</time></trkpt><trkpt lon="5.716326" lat="51.048804"><ele>43.4</ele><time>2022-05-15T08:59:12.000Z</time></trkpt><trkpt lon="5.71637" lat="51.048743"><ele>43.6</ele><time>2022-05-15T08:59:13.000Z</time></trkpt><trkpt lon="5.716414" lat="51.048683"><ele>43.6</ele><time>2022-05-15T08:59:14.000Z</time></trkpt><trkpt lon="5.716459" lat="51.04862"><ele>43.6</ele><time>2022-05-15T08:59:15.000Z</time></trkpt><trkpt lon="5.716501" lat="51.048556"><ele>43.8</ele><time>2022-05-15T08:59:16.000Z</time></trkpt><trkpt lon="5.716545" lat="51.048495"><ele>43.8</ele><time>2022-05-15T08:59:17.000Z</time></trkpt><trkpt lon="5.716587" lat="51.048437"><ele>43.8</ele><time>2022-05-15T08:59:18.000Z</time></trkpt><trkpt lon="5.716629" lat="51.04838"><ele>44</ele><time>2022-05-15T08:59:19.000Z</time></trkpt><trkpt lon="5.716668" lat="51.048323"><ele>43.8</ele><time>2022-05-15T08:59:20.000Z</time></trkpt><trkpt lon="5.716708" lat="51.048269"><ele>43.8</ele><time>2022-05-15T08:59:21.000Z</time></trkpt><trkpt lon="5.71675" lat="51.048213"><ele>43.6</ele><time>2022-05-15T08:59:22.000Z</time></trkpt><trkpt lon="5.71679" lat="51.048152"><ele>43.6</ele><time>2022-05-15T08:59:23.000Z</time></trkpt><trkpt lon="5.716831" lat="51.048094"><ele>43.6</ele><time>2022-05-15T08:59:24.000Z</time></trkpt><trkpt lon="5.716875" lat="51.048034"><ele>43.6</ele><time>2022-05-15T08:59:25.000Z</time></trkpt><trkpt lon="5.716918" lat="51.047976"><ele>43.6</ele><time>2022-05-15T08:59:26.000Z</time></trkpt><trkpt lon="5.716961" lat="51.047919"><ele>43.6</ele><time>2022-05-15T08:59:27.000Z</time></trkpt><trkpt lon="5.717006" lat="51.047858"><ele>43.6</ele><time>2022-05-15T08:59:28.000Z</time></trkpt><trkpt lon="5.717052" lat="51.0478"><ele>43.8</ele><time>2022-05-15T08:59:29.000Z</time></trkpt><trkpt lon="5.717097" lat="51.047743"><ele>43.8</ele><time>2022-05-15T08:59:30.000Z</time></trkpt><trkpt lon="5.717145" lat="51.047682"><ele>43.8</ele><time>2022-05-15T08:59:31.000Z</time></trkpt><trkpt lon="5.71719" lat="51.047621"><ele>43.8</ele><time>2022-05-15T08:59:32.000Z</time></trkpt><trkpt lon="5.717235" lat="51.047557"><ele>43.8</ele><time>2022-05-15T08:59:33.000Z</time></trkpt><trkpt lon="5.717281" lat="51.047492"><ele>43.8</ele><time>2022-05-15T08:59:34.000Z</time></trkpt><trkpt lon="5.71733" lat="51.047427"><ele>43.8</ele><time>2022-05-15T08:59:35.000Z</time></trkpt><trkpt lon="5.717377" lat="51.047365"><ele>43.8</ele><time>2022-05-15T08:59:36.000Z</time></trkpt><trkpt lon="5.717423" lat="51.047303"><ele>43.8</ele><time>2022-05-15T08:59:37.000Z</time></trkpt><trkpt lon="5.717472" lat="51.04724"><ele>43.8</ele><time>2022-05-15T08:59:38.000Z</time></trkpt><trkpt lon="5.717518" lat="51.047179"><ele>43.8</ele><time>2022-05-15T08:59:39.000Z</time></trkpt><trkpt lon="5.71756" lat="51.047122"><ele>43.8</ele><time>2022-05-15T08:59:40.000Z</time></trkpt><trkpt lon="5.7176" lat="51.04706"><ele>43.8</ele><time>2022-05-15T08:59:41.000Z</time></trkpt><trkpt lon="5.717644" lat="51.047003"><ele>43.8</ele><time>2022-05-15T08:59:42.000Z</time></trkpt><trkpt lon="5.717685" lat="51.046946"><ele>44</ele><time>2022-05-15T08:59:43.000Z</time></trkpt><trkpt lon="5.717728" lat="51.046889"><ele>44</ele><time>2022-05-15T08:59:44.000Z</time></trkpt><trkpt lon="5.717773" lat="51.046828"><ele>44.2</ele><time>2022-05-15T08:59:45.000Z</time></trkpt><trkpt lon="5.717817" lat="51.04677"><ele>44.2</ele><time>2022-05-15T08:59:46.000Z</time></trkpt><trkpt lon="5.71786" lat="51.04671"><ele>44.2</ele><time>2022-05-15T08:59:47.000Z</time></trkpt><trkpt lon="5.717903" lat="51.046652"><ele>44.2</ele><time>2022-05-15T08:59:48.000Z</time></trkpt><trkpt lon="5.71795" lat="51.046591"><ele>44.2</ele><time>2022-05-15T08:59:49.000Z</time></trkpt><trkpt lon="5.717992" lat="51.04653"><ele>44.4</ele><time>2022-05-15T08:59:50.000Z</time></trkpt><trkpt lon="5.718035" lat="51.046469"><ele>44.6</ele><time>2022-05-15T08:59:51.000Z</time></trkpt><trkpt lon="5.718082" lat="51.046408"><ele>44.8</ele><time>2022-05-15T08:59:52.000Z</time></trkpt><trkpt lon="5.718126" lat="51.046344"><ele>44.8</ele><time>2022-05-15T08:59:53.000Z</time></trkpt><trkpt lon="5.718175" lat="51.046282"><ele>45</ele><time>2022-05-15T08:59:54.000Z</time></trkpt><trkpt lon="5.718223" lat="51.046222"><ele>45</ele><time>2022-05-15T08:59:55.000Z</time></trkpt><trkpt lon="5.71827" lat="51.04616"><ele>45</ele><time>2022-05-15T08:59:56.000Z</time></trkpt><trkpt lon="5.718313" lat="51.0461"><ele>45</ele><time>2022-05-15T08:59:57.000Z</time></trkpt><trkpt lon="5.718355" lat="51.046034"><ele>45.2</ele><time>2022-05-15T08:59:58.000Z</time></trkpt><trkpt lon="5.718398" lat="51.045973"><ele>45.2</ele><time>2022-05-15T08:59:59.000Z</time></trkpt><trkpt lon="5.718442" lat="51.045912"><ele>45.4</ele><time>2022-05-15T09:00:00.000Z</time></trkpt><trkpt lon="5.718487" lat="51.045851"><ele>45.4</ele><time>2022-05-15T09:00:01.000Z</time></trkpt><trkpt lon="5.718533" lat="51.045794"><ele>45.4</ele><time>2022-05-15T09:00:02.000Z</time></trkpt><trkpt lon="5.718577" lat="51.045733"><ele>45.4</ele><time>2022-05-15T09:00:03.000Z</time></trkpt><trkpt lon="5.718616" lat="51.045676"><ele>45.4</ele><time>2022-05-15T09:00:04.000Z</time></trkpt><trkpt lon="5.718653" lat="51.045627"><ele>45.4</ele><time>2022-05-15T09:00:05.000Z</time></trkpt><trkpt lon="5.718687" lat="51.045576"><ele>45.4</ele><time>2022-05-15T09:00:06.000Z</time></trkpt><trkpt lon="5.718719" lat="51.04553"><ele>45.4</ele><time>2022-05-15T09:00:07.000Z</time></trkpt><trkpt lon="5.718752" lat="51.045485"><ele>45.6</ele><time>2022-05-15T09:00:08.000Z</time></trkpt><trkpt lon="5.718795" lat="51.045438"><ele>45.6</ele><time>2022-05-15T09:00:09.000Z</time></trkpt><trkpt lon="5.718854" lat="51.045397"><ele>45.6</ele><time>2022-05-15T09:00:10.000Z</time></trkpt><trkpt lon="5.718929" lat="51.045358"><ele>45.6</ele><time>2022-05-15T09:00:11.000Z</time></trkpt><trkpt lon="5.719017" lat="51.045327"><ele>45.6</ele><time>2022-05-15T09:00:12.000Z</time></trkpt><trkpt lon="5.719115" lat="51.0453"><ele>45.6</ele><time>2022-05-15T09:00:13.000Z</time></trkpt><trkpt lon="5.719221" lat="51.045278"><ele>45.8</ele><time>2022-05-15T09:00:14.000Z</time></trkpt><trkpt lon="5.719327" lat="51.045258"><ele>45.8</ele><time>2022-05-15T09:00:15.000Z</time></trkpt><trkpt lon="5.719433" lat="51.045239"><ele>46</ele><time>2022-05-15T09:00:16.000Z</time></trkpt><trkpt lon="5.719529" lat="51.045221"><ele>46</ele><time>2022-05-15T09:00:17.000Z</time></trkpt><trkpt lon="5.719637" lat="51.045201"><ele>46</ele><time>2022-05-15T09:00:18.000Z</time></trkpt><trkpt lon="5.719745" lat="51.045189"><ele>46</ele><time>2022-05-15T09:00:19.000Z</time></trkpt><trkpt lon="5.719849" lat="51.045178"><ele>45.8</ele><time>2022-05-15T09:00:20.000Z</time></trkpt><trkpt lon="5.719955" lat="51.045163"><ele>45.8</ele><time>2022-05-15T09:00:21.000Z</time></trkpt><trkpt lon="5.720062" lat="51.045148"><ele>45.8</ele><time>2022-05-15T09:00:22.000Z</time></trkpt><trkpt lon="5.720169" lat="51.045132"><ele>45.8</ele><time>2022-05-15T09:00:23.000Z</time></trkpt><trkpt lon="5.720277" lat="51.045113"><ele>45.8</ele><time>2022-05-15T09:00:24.000Z</time></trkpt><trkpt lon="5.720382" lat="51.045098"><ele>45.8</ele><time>2022-05-15T09:00:25.000Z</time></trkpt><trkpt lon="5.720488" lat="51.045083"><ele>45.8</ele><time>2022-05-15T09:00:26.000Z</time></trkpt><trkpt lon="5.720593" lat="51.045068"><ele>45.6</ele><time>2022-05-15T09:00:27.000Z</time></trkpt><trkpt lon="5.720701" lat="51.045052"><ele>45.2</ele><time>2022-05-15T09:00:28.000Z</time></trkpt><trkpt lon="5.720809" lat="51.045034"><ele>45</ele><time>2022-05-15T09:00:29.000Z</time></trkpt><trkpt lon="5.72092" lat="51.045018"><ele>45</ele><time>2022-05-15T09:00:30.000Z</time></trkpt><trkpt lon="5.721028" lat="51.044999"><ele>45.2</ele><time>2022-05-15T09:00:31.000Z</time></trkpt><trkpt lon="5.721135" lat="51.04498"><ele>45.2</ele><time>2022-05-15T09:00:32.000Z</time></trkpt><trkpt lon="5.721244" lat="51.044964"><ele>45.2</ele><time>2022-05-15T09:00:33.000Z</time></trkpt><trkpt lon="5.721353" lat="51.044945"><ele>45.2</ele><time>2022-05-15T09:00:34.000Z</time></trkpt><trkpt lon="5.721458" lat="51.044923"><ele>45.2</ele><time>2022-05-15T09:00:35.000Z</time></trkpt><trkpt lon="5.721561" lat="51.044896"><ele>45</ele><time>2022-05-15T09:00:36.000Z</time></trkpt><trkpt lon="5.721663" lat="51.044866"><ele>44.8</ele><time>2022-05-15T09:00:37.000Z</time></trkpt><trkpt lon="5.721764" lat="51.044835"><ele>44.6</ele><time>2022-05-15T09:00:38.000Z</time></trkpt><trkpt lon="5.721866" lat="51.044805"><ele>44.6</ele><time>2022-05-15T09:00:39.000Z</time></trkpt><trkpt lon="5.721969" lat="51.044774"><ele>44.8</ele><time>2022-05-15T09:00:40.000Z</time></trkpt><trkpt lon="5.722072" lat="51.04474"><ele>44.8</ele><time>2022-05-15T09:00:41.000Z</time></trkpt><trkpt lon="5.722172" lat="51.044709"><ele>44.8</ele><time>2022-05-15T09:00:42.000Z</time></trkpt><trkpt lon="5.722271" lat="51.044679"><ele>44.6</ele><time>2022-05-15T09:00:43.000Z</time></trkpt><trkpt lon="5.722375" lat="51.044648"><ele>44.8</ele><time>2022-05-15T09:00:44.000Z</time></trkpt><trkpt lon="5.722476" lat="51.044621"><ele>44.8</ele><time>2022-05-15T09:00:45.000Z</time></trkpt><trkpt lon="5.722578" lat="51.044595"><ele>44.6</ele><time>2022-05-15T09:00:46.000Z</time></trkpt><trkpt lon="5.722682" lat="51.044568"><ele>44.6</ele><time>2022-05-15T09:00:47.000Z</time></trkpt><trkpt lon="5.722787" lat="51.044541"><ele>44.6</ele><time>2022-05-15T09:00:48.000Z</time></trkpt><trkpt lon="5.72289" lat="51.044518"><ele>44.6</ele><time>2022-05-15T09:00:49.000Z</time></trkpt><trkpt lon="5.722991" lat="51.044492"><ele>44.6</ele><time>2022-05-15T09:00:50.000Z</time></trkpt><trkpt lon="5.723092" lat="51.044469"><ele>44.6</ele><time>2022-05-15T09:00:51.000Z</time></trkpt><trkpt lon="5.723196" lat="51.044446"><ele>44.6</ele><time>2022-05-15T09:00:52.000Z</time></trkpt><trkpt lon="5.7233" lat="51.04442"><ele>44.4</ele><time>2022-05-15T09:00:53.000Z</time></trkpt><trkpt lon="5.723404" lat="51.044393"><ele>44.4</ele><time>2022-05-15T09:00:54.000Z</time></trkpt><trkpt lon="5.723507" lat="51.044371"><ele>44.2</ele><time>2022-05-15T09:00:55.000Z</time></trkpt><trkpt lon="5.723618" lat="51.044347"><ele>44</ele><time>2022-05-15T09:00:56.000Z</time></trkpt><trkpt lon="5.723724" lat="51.044324"><ele>43.4</ele><time>2022-05-15T09:00:57.000Z</time></trkpt><trkpt lon="5.723838" lat="51.044305"><ele>43.4</ele><time>2022-05-15T09:00:58.000Z</time></trkpt><trkpt lon="5.723949" lat="51.044286"><ele>43.2</ele><time>2022-05-15T09:00:59.000Z</time></trkpt><trkpt lon="5.724064" lat="51.044278"><ele>43</ele><time>2022-05-15T09:01:00.000Z</time></trkpt><trkpt lon="5.72418" lat="51.04427"><ele>43</ele><time>2022-05-15T09:01:01.000Z</time></trkpt><trkpt lon="5.724297" lat="51.044262"><ele>43</ele><time>2022-05-15T09:01:02.000Z</time></trkpt><trkpt lon="5.72441" lat="51.044258"><ele>43</ele><time>2022-05-15T09:01:03.000Z</time></trkpt><trkpt lon="5.724526" lat="51.044254"><ele>43</ele><time>2022-05-15T09:01:04.000Z</time></trkpt><trkpt lon="5.724637" lat="51.044251"><ele>43</ele><time>2022-05-15T09:01:05.000Z</time></trkpt><trkpt lon="5.724746" lat="51.044254"><ele>43.2</ele><time>2022-05-15T09:01:06.000Z</time></trkpt><trkpt lon="5.724855" lat="51.044258"><ele>43.2</ele><time>2022-05-15T09:01:07.000Z</time></trkpt><trkpt lon="5.72496" lat="51.044265"><ele>43.2</ele><time>2022-05-15T09:01:08.000Z</time></trkpt><trkpt lon="5.725067" lat="51.044277"><ele>43.2</ele><time>2022-05-15T09:01:09.000Z</time></trkpt><trkpt lon="5.72517" lat="51.044292"><ele>43</ele><time>2022-05-15T09:01:10.000Z</time></trkpt><trkpt lon="5.725273" lat="51.044311"><ele>43</ele><time>2022-05-15T09:01:11.000Z</time></trkpt><trkpt lon="5.725375" lat="51.044329"><ele>43</ele><time>2022-05-15T09:01:12.000Z</time></trkpt><trkpt lon="5.725481" lat="51.044345"><ele>42.8</ele><time>2022-05-15T09:01:13.000Z</time></trkpt><trkpt lon="5.725583" lat="51.04436"><ele>42.6</ele><time>2022-05-15T09:01:14.000Z</time></trkpt><trkpt lon="5.72569" lat="51.044368"><ele>42.8</ele><time>2022-05-15T09:01:15.000Z</time></trkpt><trkpt lon="5.725801" lat="51.044376"><ele>42.8</ele><time>2022-05-15T09:01:16.000Z</time></trkpt><trkpt lon="5.72591" lat="51.044376"><ele>42.8</ele><time>2022-05-15T09:01:17.000Z</time></trkpt><trkpt lon="5.726022" lat="51.044373"><ele>42.6</ele><time>2022-05-15T09:01:18.000Z</time></trkpt><trkpt lon="5.726132" lat="51.044373"><ele>42.6</ele><time>2022-05-15T09:01:19.000Z</time></trkpt><trkpt lon="5.726244" lat="51.044369"><ele>42.6</ele><time>2022-05-15T09:01:20.000Z</time></trkpt><trkpt lon="5.726355" lat="51.044369"><ele>42.4</ele><time>2022-05-15T09:01:21.000Z</time></trkpt><trkpt lon="5.726466" lat="51.044365"><ele>42.4</ele><time>2022-05-15T09:01:22.000Z</time></trkpt><trkpt lon="5.726577" lat="51.044361"><ele>42.4</ele><time>2022-05-15T09:01:23.000Z</time></trkpt><trkpt lon="5.726685" lat="51.044361"><ele>42.4</ele><time>2022-05-15T09:01:24.000Z</time></trkpt><trkpt lon="5.726792" lat="51.044358"><ele>42.4</ele><time>2022-05-15T09:01:25.000Z</time></trkpt><trkpt lon="5.726901" lat="51.044354"><ele>42.6</ele><time>2022-05-15T09:01:26.000Z</time></trkpt><trkpt lon="5.727004" lat="51.044353"><ele>42.6</ele><time>2022-05-15T09:01:27.000Z</time></trkpt><trkpt lon="5.727107" lat="51.04435"><ele>42.6</ele><time>2022-05-15T09:01:28.000Z</time></trkpt><trkpt lon="5.727216" lat="51.044346"><ele>42.8</ele><time>2022-05-15T09:01:29.000Z</time></trkpt><trkpt lon="5.72732" lat="51.044342"><ele>42.8</ele><time>2022-05-15T09:01:30.000Z</time></trkpt><trkpt lon="5.727423" lat="51.044338"><ele>43</ele><time>2022-05-15T09:01:31.000Z</time></trkpt><trkpt lon="5.727524" lat="51.044331"><ele>43</ele><time>2022-05-15T09:01:32.000Z</time></trkpt><trkpt lon="5.727624" lat="51.044323"><ele>43</ele><time>2022-05-15T09:01:33.000Z</time></trkpt><trkpt lon="5.727726" lat="51.044316"><ele>43</ele><time>2022-05-15T09:01:34.000Z</time></trkpt><trkpt lon="5.727829" lat="51.044308"><ele>43</ele><time>2022-05-15T09:01:35.000Z</time></trkpt><trkpt lon="5.72793" lat="51.044301"><ele>43</ele><time>2022-05-15T09:01:36.000Z</time></trkpt><trkpt lon="5.728036" lat="51.044289"><ele>43</ele><time>2022-05-15T09:01:37.000Z</time></trkpt><trkpt lon="5.728139" lat="51.044281"><ele>43</ele><time>2022-05-15T09:01:38.000Z</time></trkpt><trkpt lon="5.728242" lat="51.04427"><ele>43</ele><time>2022-05-15T09:01:39.000Z</time></trkpt><trkpt lon="5.728346" lat="51.044259"><ele>43</ele><time>2022-05-15T09:01:40.000Z</time></trkpt><trkpt lon="5.728448" lat="51.044247"><ele>42.8</ele><time>2022-05-15T09:01:41.000Z</time></trkpt><trkpt lon="5.728549" lat="51.044228"><ele>42.8</ele><time>2022-05-15T09:01:42.000Z</time></trkpt><trkpt lon="5.728649" lat="51.04421"><ele>43</ele><time>2022-05-15T09:01:43.000Z</time></trkpt><trkpt lon="5.72875" lat="51.044187"><ele>43</ele><time>2022-05-15T09:01:44.000Z</time></trkpt><trkpt lon="5.728849" lat="51.044164"><ele>43</ele><time>2022-05-15T09:01:45.000Z</time></trkpt><trkpt lon="5.728948" lat="51.044141"><ele>43.2</ele><time>2022-05-15T09:01:46.000Z</time></trkpt><trkpt lon="5.729043" lat="51.044118"><ele>43.4</ele><time>2022-05-15T09:01:47.000Z</time></trkpt><trkpt lon="5.729141" lat="51.044099"><ele>43.4</ele><time>2022-05-15T09:01:48.000Z</time></trkpt><trkpt lon="5.729236" lat="51.044083"><ele>43.4</ele><time>2022-05-15T09:01:49.000Z</time></trkpt><trkpt lon="5.729332" lat="51.044068"><ele>43.4</ele><time>2022-05-15T09:01:50.000Z</time></trkpt><trkpt lon="5.729428" lat="51.044053"><ele>43.6</ele><time>2022-05-15T09:01:51.000Z</time></trkpt><trkpt lon="5.729528" lat="51.044037"><ele>43.6</ele><time>2022-05-15T09:01:52.000Z</time></trkpt><trkpt lon="5.729628" lat="51.044022"><ele>43.6</ele><time>2022-05-15T09:01:53.000Z</time></trkpt><trkpt lon="5.729728" lat="51.044011"><ele>43.8</ele><time>2022-05-15T09:01:54.000Z</time></trkpt><trkpt lon="5.729829" lat="51.043995"><ele>43.8</ele><time>2022-05-15T09:01:55.000Z</time></trkpt><trkpt lon="5.729929" lat="51.043981"><ele>43.8</ele><time>2022-05-15T09:01:56.000Z</time></trkpt><trkpt lon="5.730031" lat="51.043965"><ele>43.8</ele><time>2022-05-15T09:01:57.000Z</time></trkpt><trkpt lon="5.730128" lat="51.04395"><ele>43.8</ele><time>2022-05-15T09:01:58.000Z</time></trkpt><trkpt lon="5.730231" lat="51.043931"><ele>43.8</ele><time>2022-05-15T09:01:59.000Z</time></trkpt><trkpt lon="5.730331" lat="51.043915"><ele>43.6</ele><time>2022-05-15T09:02:00.000Z</time></trkpt><trkpt lon="5.73043" lat="51.043893"><ele>43.6</ele><time>2022-05-15T09:02:01.000Z</time></trkpt><trkpt lon="5.730526" lat="51.043874"><ele>43.6</ele><time>2022-05-15T09:02:02.000Z</time></trkpt><trkpt lon="5.730623" lat="51.043851"><ele>43.8</ele><time>2022-05-15T09:02:03.000Z</time></trkpt><trkpt lon="5.730722" lat="51.043832"><ele>43.8</ele><time>2022-05-15T09:02:04.000Z</time></trkpt><trkpt lon="5.730821" lat="51.043812"><ele>44</ele><time>2022-05-15T09:02:05.000Z</time></trkpt><trkpt lon="5.730922" lat="51.043793"><ele>44</ele><time>2022-05-15T09:02:06.000Z</time></trkpt><trkpt lon="5.731025" lat="51.043771"><ele>44</ele><time>2022-05-15T09:02:07.000Z</time></trkpt><trkpt lon="5.731126" lat="51.043752"><ele>44.2</ele><time>2022-05-15T09:02:08.000Z</time></trkpt><trkpt lon="5.731226" lat="51.043732"><ele>44.2</ele><time>2022-05-15T09:02:09.000Z</time></trkpt><trkpt lon="5.731321" lat="51.043717"><ele>44.2</ele><time>2022-05-15T09:02:10.000Z</time></trkpt><trkpt lon="5.73141" lat="51.043698"><ele>44.2</ele><time>2022-05-15T09:02:11.000Z</time></trkpt><trkpt lon="5.731498" lat="51.043683"><ele>44</ele><time>2022-05-15T09:02:12.000Z</time></trkpt><trkpt lon="5.73159" lat="51.043664"><ele>44</ele><time>2022-05-15T09:02:13.000Z</time></trkpt><trkpt lon="5.731675" lat="51.043648"><ele>44</ele><time>2022-05-15T09:02:14.000Z</time></trkpt><trkpt lon="5.731754" lat="51.043633"><ele>44</ele><time>2022-05-15T09:02:15.000Z</time></trkpt><trkpt lon="5.731827" lat="51.043618"><ele>44</ele><time>2022-05-15T09:02:16.000Z</time></trkpt><trkpt lon="5.731892" lat="51.043607"><ele>44</ele><time>2022-05-15T09:02:17.000Z</time></trkpt><trkpt lon="5.731961" lat="51.043602"><ele>44.2</ele><time>2022-05-15T09:02:18.000Z</time></trkpt><trkpt lon="5.732027" lat="51.043606"><ele>44</ele><time>2022-05-15T09:02:19.000Z</time></trkpt><trkpt lon="5.732091" lat="51.043624"><ele>43.8</ele><time>2022-05-15T09:02:20.000Z</time></trkpt><trkpt lon="5.732145" lat="51.043661"><ele>43.8</ele><time>2022-05-15T09:02:21.000Z</time></trkpt><trkpt lon="5.732193" lat="51.043707"><ele>43.8</ele><time>2022-05-15T09:02:22.000Z</time></trkpt><trkpt lon="5.732237" lat="51.043767"><ele>43.8</ele><time>2022-05-15T09:02:23.000Z</time></trkpt><trkpt lon="5.732277" lat="51.043832"><ele>43.8</ele><time>2022-05-15T09:02:24.000Z</time></trkpt><trkpt lon="5.732316" lat="51.043899"><ele>43.8</ele><time>2022-05-15T09:02:25.000Z</time></trkpt><trkpt lon="5.732357" lat="51.043966"><ele>44</ele><time>2022-05-15T09:02:26.000Z</time></trkpt><trkpt lon="5.732397" lat="51.044031"><ele>44</ele><time>2022-05-15T09:02:27.000Z</time></trkpt><trkpt lon="5.732434" lat="51.044092"><ele>44</ele><time>2022-05-15T09:02:28.000Z</time></trkpt><trkpt lon="5.73247" lat="51.044153"><ele>44</ele><time>2022-05-15T09:02:29.000Z</time></trkpt><trkpt lon="5.732506" lat="51.044217"><ele>44.2</ele><time>2022-05-15T09:02:30.000Z</time></trkpt><trkpt lon="5.732542" lat="51.044275"><ele>44.2</ele><time>2022-05-15T09:02:31.000Z</time></trkpt><trkpt lon="5.732576" lat="51.044336"><ele>44.2</ele><time>2022-05-15T09:02:32.000Z</time></trkpt><trkpt lon="5.73261" lat="51.044393"><ele>44.2</ele><time>2022-05-15T09:02:33.000Z</time></trkpt><trkpt lon="5.732647" lat="51.044454"><ele>44.4</ele><time>2022-05-15T09:02:34.000Z</time></trkpt><trkpt lon="5.732683" lat="51.044518"><ele>44.4</ele><time>2022-05-15T09:02:35.000Z</time></trkpt><trkpt lon="5.73272" lat="51.04458"><ele>44.4</ele><time>2022-05-15T09:02:36.000Z</time></trkpt><trkpt lon="5.73276" lat="51.044641"><ele>44.4</ele><time>2022-05-15T09:02:37.000Z</time></trkpt><trkpt lon="5.7328" lat="51.044706"><ele>44.4</ele><time>2022-05-15T09:02:38.000Z</time></trkpt><trkpt lon="5.732838" lat="51.044767"><ele>44.4</ele><time>2022-05-15T09:02:39.000Z</time></trkpt><trkpt lon="5.732877" lat="51.044828"><ele>44.4</ele><time>2022-05-15T09:02:40.000Z</time></trkpt><trkpt lon="5.732914" lat="51.044893"><ele>44.4</ele><time>2022-05-15T09:02:41.000Z</time></trkpt><trkpt lon="5.73295" lat="51.044957"><ele>44.4</ele><time>2022-05-15T09:02:42.000Z</time></trkpt><trkpt lon="5.732988" lat="51.045018"><ele>44.4</ele><time>2022-05-15T09:02:43.000Z</time></trkpt><trkpt lon="5.733025" lat="51.045077"><ele>44.4</ele><time>2022-05-15T09:02:44.000Z</time></trkpt><trkpt lon="5.733065" lat="51.045141"><ele>44.4</ele><time>2022-05-15T09:02:45.000Z</time></trkpt><trkpt lon="5.733102" lat="51.045206"><ele>44.4</ele><time>2022-05-15T09:02:46.000Z</time></trkpt><trkpt lon="5.733136" lat="51.045262"><ele>44.4</ele><time>2022-05-15T09:02:47.000Z</time></trkpt><trkpt lon="5.733182" lat="51.045335"><ele>44.6</ele><time>2022-05-15T09:02:48.000Z</time></trkpt><trkpt lon="5.733222" lat="51.0454"><ele>44.6</ele><time>2022-05-15T09:02:49.000Z</time></trkpt><trkpt lon="5.733262" lat="51.045464"><ele>44.6</ele><time>2022-05-15T09:02:50.000Z</time></trkpt><trkpt lon="5.733301" lat="51.045529"><ele>44.6</ele><time>2022-05-15T09:02:51.000Z</time></trkpt><trkpt lon="5.733343" lat="51.045595"><ele>44.6</ele><time>2022-05-15T09:02:52.000Z</time></trkpt><trkpt lon="5.733382" lat="51.045657"><ele>44.6</ele><time>2022-05-15T09:02:53.000Z</time></trkpt><trkpt lon="5.733424" lat="51.045724"><ele>44.6</ele><time>2022-05-15T09:02:54.000Z</time></trkpt><trkpt lon="5.733464" lat="51.045793"><ele>44.4</ele><time>2022-05-15T09:02:55.000Z</time></trkpt><trkpt lon="5.733503" lat="51.045858"><ele>44.2</ele><time>2022-05-15T09:02:56.000Z</time></trkpt><trkpt lon="5.733543" lat="51.045923"><ele>44.2</ele><time>2022-05-15T09:02:57.000Z</time></trkpt><trkpt lon="5.733585" lat="51.045988"><ele>44.2</ele><time>2022-05-15T09:02:58.000Z</time></trkpt><trkpt lon="5.733625" lat="51.046053"><ele>44</ele><time>2022-05-15T09:02:59.000Z</time></trkpt><trkpt lon="5.733667" lat="51.046117"><ele>43.8</ele><time>2022-05-15T09:03:00.000Z</time></trkpt><trkpt lon="5.733707" lat="51.046182"><ele>43.4</ele><time>2022-05-15T09:03:01.000Z</time></trkpt><trkpt lon="5.733745" lat="51.046251"><ele>43.2</ele><time>2022-05-15T09:03:02.000Z</time></trkpt><trkpt lon="5.733785" lat="51.046316"><ele>43.4</ele><time>2022-05-15T09:03:03.000Z</time></trkpt><trkpt lon="5.733822" lat="51.046378"><ele>43.4</ele><time>2022-05-15T09:03:04.000Z</time></trkpt><trkpt lon="5.733862" lat="51.046444"><ele>43.4</ele><time>2022-05-15T09:03:05.000Z</time></trkpt><trkpt lon="5.733902" lat="51.04651"><ele>43.6</ele><time>2022-05-15T09:03:06.000Z</time></trkpt><trkpt lon="5.733941" lat="51.046574"><ele>43.6</ele><time>2022-05-15T09:03:07.000Z</time></trkpt><trkpt lon="5.733982" lat="51.046643"><ele>43.6</ele><time>2022-05-15T09:03:08.000Z</time></trkpt><trkpt lon="5.734023" lat="51.046712"><ele>43.6</ele><time>2022-05-15T09:03:09.000Z</time></trkpt><trkpt lon="5.734064" lat="51.04678"><ele>43.6</ele><time>2022-05-15T09:03:10.000Z</time></trkpt><trkpt lon="5.734108" lat="51.046849"><ele>43.6</ele><time>2022-05-15T09:03:11.000Z</time></trkpt><trkpt lon="5.734154" lat="51.046915"><ele>43.8</ele><time>2022-05-15T09:03:12.000Z</time></trkpt><trkpt lon="5.734197" lat="51.046983"><ele>43.8</ele><time>2022-05-15T09:03:13.000Z</time></trkpt><trkpt lon="5.734242" lat="51.047052"><ele>43.6</ele><time>2022-05-15T09:03:14.000Z</time></trkpt><trkpt lon="5.73429" lat="51.047117"><ele>43.6</ele><time>2022-05-15T09:03:15.000Z</time></trkpt><trkpt lon="5.734337" lat="51.047182"><ele>43.6</ele><time>2022-05-15T09:03:16.000Z</time></trkpt><trkpt lon="5.734383" lat="51.04725"><ele>43.6</ele><time>2022-05-15T09:03:17.000Z</time></trkpt><trkpt lon="5.734428" lat="51.047315"><ele>43.6</ele><time>2022-05-15T09:03:18.000Z</time></trkpt><trkpt lon="5.734472" lat="51.04738"><ele>43.6</ele><time>2022-05-15T09:03:19.000Z</time></trkpt><trkpt lon="5.734517" lat="51.047441"><ele>43.6</ele><time>2022-05-15T09:03:20.000Z</time></trkpt><trkpt lon="5.734557" lat="51.047504"><ele>43.6</ele><time>2022-05-15T09:03:21.000Z</time></trkpt><trkpt lon="5.734601" lat="51.047572"><ele>43.6</ele><time>2022-05-15T09:03:22.000Z</time></trkpt><trkpt lon="5.734645" lat="51.047639"><ele>43.6</ele><time>2022-05-15T09:03:23.000Z</time></trkpt><trkpt lon="5.734692" lat="51.047704"><ele>43.8</ele><time>2022-05-15T09:03:24.000Z</time></trkpt><trkpt lon="5.734738" lat="51.047769"><ele>43.8</ele><time>2022-05-15T09:03:25.000Z</time></trkpt><trkpt lon="5.734782" lat="51.047838"><ele>43.8</ele><time>2022-05-15T09:03:26.000Z</time></trkpt><trkpt lon="5.734828" lat="51.047902"><ele>43.6</ele><time>2022-05-15T09:03:27.000Z</time></trkpt><trkpt lon="5.734873" lat="51.047967"><ele>43.6</ele><time>2022-05-15T09:03:28.000Z</time></trkpt><trkpt lon="5.73492" lat="51.048032"><ele>43.4</ele><time>2022-05-15T09:03:29.000Z</time></trkpt><trkpt lon="5.734965" lat="51.048101"><ele>43.4</ele><time>2022-05-15T09:03:30.000Z</time></trkpt><trkpt lon="5.735011" lat="51.048165"><ele>43.6</ele><time>2022-05-15T09:03:31.000Z</time></trkpt><trkpt lon="5.735058" lat="51.048234"><ele>43.6</ele><time>2022-05-15T09:03:32.000Z</time></trkpt><trkpt lon="5.735106" lat="51.048299"><ele>43.6</ele><time>2022-05-15T09:03:33.000Z</time></trkpt><trkpt lon="5.735153" lat="51.048363"><ele>43.6</ele><time>2022-05-15T09:03:34.000Z</time></trkpt><trkpt lon="5.735198" lat="51.048433"><ele>43.8</ele><time>2022-05-15T09:03:35.000Z</time></trkpt><trkpt lon="5.735241" lat="51.048492"><ele>44</ele><time>2022-05-15T09:03:36.000Z</time></trkpt><trkpt lon="5.735291" lat="51.048562"><ele>44</ele><time>2022-05-15T09:03:37.000Z</time></trkpt><trkpt lon="5.735337" lat="51.048628"><ele>44.2</ele><time>2022-05-15T09:03:38.000Z</time></trkpt><trkpt lon="5.735383" lat="51.048695"><ele>44.2</ele><time>2022-05-15T09:03:39.000Z</time></trkpt><trkpt lon="5.735433" lat="51.048761"><ele>44</ele><time>2022-05-15T09:03:40.000Z</time></trkpt><trkpt lon="5.73548" lat="51.048829"><ele>44</ele><time>2022-05-15T09:03:41.000Z</time></trkpt><trkpt lon="5.735526" lat="51.048897"><ele>44</ele><time>2022-05-15T09:03:42.000Z</time></trkpt><trkpt lon="5.735575" lat="51.048964"><ele>44</ele><time>2022-05-15T09:03:43.000Z</time></trkpt><trkpt lon="5.735625" lat="51.049035"><ele>43.8</ele><time>2022-05-15T09:03:44.000Z</time></trkpt><trkpt lon="5.735672" lat="51.049104"><ele>43.8</ele><time>2022-05-15T09:03:45.000Z</time></trkpt><trkpt lon="5.735719" lat="51.049167"><ele>43.8</ele><time>2022-05-15T09:03:46.000Z</time></trkpt><trkpt lon="5.735765" lat="51.049237"><ele>43.8</ele><time>2022-05-15T09:03:47.000Z</time></trkpt><trkpt lon="5.735812" lat="51.049303"><ele>43.8</ele><time>2022-05-15T09:03:48.000Z</time></trkpt><trkpt lon="5.735856" lat="51.04937"><ele>43.8</ele><time>2022-05-15T09:03:49.000Z</time></trkpt><trkpt lon="5.735904" lat="51.04944"><ele>44</ele><time>2022-05-15T09:03:50.000Z</time></trkpt><trkpt lon="5.735948" lat="51.049505"><ele>43.8</ele><time>2022-05-15T09:03:51.000Z</time></trkpt><trkpt lon="5.735992" lat="51.049568"><ele>43.8</ele><time>2022-05-15T09:03:52.000Z</time></trkpt><trkpt lon="5.736039" lat="51.049638"><ele>43.8</ele><time>2022-05-15T09:03:53.000Z</time></trkpt><trkpt lon="5.736083" lat="51.049703"><ele>43.6</ele><time>2022-05-15T09:03:54.000Z</time></trkpt><trkpt lon="5.736129" lat="51.049768"><ele>43.6</ele><time>2022-05-15T09:03:55.000Z</time></trkpt><trkpt lon="5.736173" lat="51.049833"><ele>43.6</ele><time>2022-05-15T09:03:56.000Z</time></trkpt><trkpt lon="5.73622" lat="51.049901"><ele>43.6</ele><time>2022-05-15T09:03:57.000Z</time></trkpt><trkpt lon="5.736267" lat="51.049966"><ele>43.6</ele><time>2022-05-15T09:03:58.000Z</time></trkpt><trkpt lon="5.736315" lat="51.050031"><ele>43.6</ele><time>2022-05-15T09:03:59.000Z</time></trkpt><trkpt lon="5.73636" lat="51.050098"><ele>43.6</ele><time>2022-05-15T09:04:00.000Z</time></trkpt><trkpt lon="5.736406" lat="51.050164"><ele>43.6</ele><time>2022-05-15T09:04:01.000Z</time></trkpt><trkpt lon="5.736453" lat="51.050229"><ele>43.8</ele><time>2022-05-15T09:04:02.000Z</time></trkpt><trkpt lon="5.736498" lat="51.050294"><ele>43.8</ele><time>2022-05-15T09:04:03.000Z</time></trkpt><trkpt lon="5.736545" lat="51.050359"><ele>43.8</ele><time>2022-05-15T09:04:04.000Z</time></trkpt><trkpt lon="5.736592" lat="51.050424"><ele>43.8</ele><time>2022-05-15T09:04:05.000Z</time></trkpt><trkpt lon="5.736635" lat="51.050493"><ele>43.8</ele><time>2022-05-15T09:04:06.000Z</time></trkpt><trkpt lon="5.73668" lat="51.050557"><ele>43.8</ele><time>2022-05-15T09:04:07.000Z</time></trkpt><trkpt lon="5.736726" lat="51.050622"><ele>44</ele><time>2022-05-15T09:04:08.000Z</time></trkpt><trkpt lon="5.736773" lat="51.050691"><ele>44</ele><time>2022-05-15T09:04:09.000Z</time></trkpt><trkpt lon="5.73682" lat="51.050756"><ele>44.2</ele><time>2022-05-15T09:04:10.000Z</time></trkpt><trkpt lon="5.736865" lat="51.050817"><ele>44.2</ele><time>2022-05-15T09:04:11.000Z</time></trkpt><trkpt lon="5.736911" lat="51.050878"><ele>44.2</ele><time>2022-05-15T09:04:12.000Z</time></trkpt><trkpt lon="5.736955" lat="51.050939"><ele>43.8</ele><time>2022-05-15T09:04:13.000Z</time></trkpt><trkpt lon="5.736997" lat="51.051"><ele>43.8</ele><time>2022-05-15T09:04:14.000Z</time></trkpt><trkpt lon="5.737039" lat="51.051064"><ele>43.8</ele><time>2022-05-15T09:04:15.000Z</time></trkpt><trkpt lon="5.737084" lat="51.051124"><ele>43.8</ele><time>2022-05-15T09:04:16.000Z</time></trkpt><trkpt lon="5.73713" lat="51.051191"><ele>44</ele><time>2022-05-15T09:04:17.000Z</time></trkpt><trkpt lon="5.737175" lat="51.051252"><ele>44.2</ele><time>2022-05-15T09:04:18.000Z</time></trkpt><trkpt lon="5.737218" lat="51.051317"><ele>44.2</ele><time>2022-05-15T09:04:19.000Z</time></trkpt><trkpt lon="5.73726" lat="51.051377"><ele>44.4</ele><time>2022-05-15T09:04:20.000Z</time></trkpt><trkpt lon="5.737302" lat="51.051439"><ele>44.4</ele><time>2022-05-15T09:04:21.000Z</time></trkpt><trkpt lon="5.737345" lat="51.051496"><ele>44.4</ele><time>2022-05-15T09:04:22.000Z</time></trkpt><trkpt lon="5.737387" lat="51.05155"><ele>44.2</ele><time>2022-05-15T09:04:23.000Z</time></trkpt><trkpt lon="5.737428" lat="51.051603"><ele>44.2</ele><time>2022-05-15T09:04:24.000Z</time></trkpt><trkpt lon="5.737465" lat="51.05166"><ele>44.2</ele><time>2022-05-15T09:04:25.000Z</time></trkpt><trkpt lon="5.737504" lat="51.05171"><ele>44.2</ele><time>2022-05-15T09:04:26.000Z</time></trkpt><trkpt lon="5.737534" lat="51.051759"><ele>44.2</ele><time>2022-05-15T09:04:27.000Z</time></trkpt><trkpt lon="5.737561" lat="51.051802"><ele>44.4</ele><time>2022-05-15T09:04:28.000Z</time></trkpt><trkpt lon="5.737587" lat="51.051837"><ele>44.4</ele><time>2022-05-15T09:04:29.000Z</time></trkpt><trkpt lon="5.737606" lat="51.051867"><ele>44.4</ele><time>2022-05-15T09:04:30.000Z</time></trkpt><trkpt lon="5.737616" lat="51.05189"><ele>44.4</ele><time>2022-05-15T09:04:31.000Z</time></trkpt><trkpt lon="5.737623" lat="51.05191"><ele>44.4</ele><time>2022-05-15T09:04:32.000Z</time></trkpt><trkpt lon="5.737631" lat="51.051925"><ele>44.4</ele><time>2022-05-15T09:04:33.000Z</time></trkpt><trkpt lon="5.737643" lat="51.05194"><ele>44.4</ele><time>2022-05-15T09:04:34.000Z</time></trkpt><trkpt lon="5.737655" lat="51.051963"><ele>44.4</ele><time>2022-05-15T09:04:35.000Z</time></trkpt><trkpt lon="5.737672" lat="51.051989"><ele>44.2</ele><time>2022-05-15T09:04:36.000Z</time></trkpt><trkpt lon="5.737689" lat="51.052023"><ele>44.2</ele><time>2022-05-15T09:04:37.000Z</time></trkpt><trkpt lon="5.737713" lat="51.052062"><ele>44</ele><time>2022-05-15T09:04:38.000Z</time></trkpt><trkpt lon="5.737746" lat="51.0521"><ele>44</ele><time>2022-05-15T09:04:39.000Z</time></trkpt><trkpt lon="5.737779" lat="51.052145"><ele>44</ele><time>2022-05-15T09:04:40.000Z</time></trkpt><trkpt lon="5.737816" lat="51.052198"><ele>44</ele><time>2022-05-15T09:04:41.000Z</time></trkpt><trkpt lon="5.737857" lat="51.052252"><ele>44.2</ele><time>2022-05-15T09:04:42.000Z</time></trkpt><trkpt lon="5.737895" lat="51.05231"><ele>43.8</ele><time>2022-05-15T09:04:43.000Z</time></trkpt><trkpt lon="5.73794" lat="51.052374"><ele>44</ele><time>2022-05-15T09:04:44.000Z</time></trkpt><trkpt lon="5.737983" lat="51.052433"><ele>44</ele><time>2022-05-15T09:04:45.000Z</time></trkpt><trkpt lon="5.738028" lat="51.052488"><ele>44.2</ele><time>2022-05-15T09:04:46.000Z</time></trkpt><trkpt lon="5.738075" lat="51.052549"><ele>44.4</ele><time>2022-05-15T09:04:47.000Z</time></trkpt><trkpt lon="5.738123" lat="51.05261"><ele>44.4</ele><time>2022-05-15T09:04:48.000Z</time></trkpt><trkpt lon="5.738172" lat="51.052671"><ele>44.4</ele><time>2022-05-15T09:04:49.000Z</time></trkpt><trkpt lon="5.738216" lat="51.052735"><ele>44.4</ele><time>2022-05-15T09:04:50.000Z</time></trkpt><trkpt lon="5.738266" lat="51.052797"><ele>44.2</ele><time>2022-05-15T09:04:51.000Z</time></trkpt><trkpt lon="5.738315" lat="51.052862"><ele>44.2</ele><time>2022-05-15T09:04:52.000Z</time></trkpt><trkpt lon="5.738363" lat="51.052924"><ele>44.2</ele><time>2022-05-15T09:04:53.000Z</time></trkpt><trkpt lon="5.738407" lat="51.052989"><ele>44</ele><time>2022-05-15T09:04:54.000Z</time></trkpt><trkpt lon="5.738461" lat="51.053056"><ele>44.2</ele><time>2022-05-15T09:04:55.000Z</time></trkpt><trkpt lon="5.738513" lat="51.053121"><ele>44.2</ele><time>2022-05-15T09:04:56.000Z</time></trkpt><trkpt lon="5.738558" lat="51.053186"><ele>44</ele><time>2022-05-15T09:04:57.000Z</time></trkpt><trkpt lon="5.738604" lat="51.05325"><ele>43.8</ele><time>2022-05-15T09:04:58.000Z</time></trkpt><trkpt lon="5.738652" lat="51.053314"><ele>43.6</ele><time>2022-05-15T09:04:59.000Z</time></trkpt><trkpt lon="5.738703" lat="51.053384"><ele>43.6</ele><time>2022-05-15T09:05:00.000Z</time></trkpt><trkpt lon="5.738755" lat="51.053449"><ele>43.6</ele><time>2022-05-15T09:05:01.000Z</time></trkpt><trkpt lon="5.738805" lat="51.053517"><ele>43.8</ele><time>2022-05-15T09:05:02.000Z</time></trkpt><trkpt lon="5.73886" lat="51.05359"><ele>43.8</ele><time>2022-05-15T09:05:03.000Z</time></trkpt><trkpt lon="5.738913" lat="51.053662"><ele>44</ele><time>2022-05-15T09:05:04.000Z</time></trkpt><trkpt lon="5.738961" lat="51.053727"><ele>44</ele><time>2022-05-15T09:05:05.000Z</time></trkpt><trkpt lon="5.739008" lat="51.053796"><ele>44.2</ele><time>2022-05-15T09:05:06.000Z</time></trkpt><trkpt lon="5.739056" lat="51.05386"><ele>44.2</ele><time>2022-05-15T09:05:07.000Z</time></trkpt><trkpt lon="5.739102" lat="51.05393"><ele>44.2</ele><time>2022-05-15T09:05:08.000Z</time></trkpt><trkpt lon="5.739145" lat="51.053995"><ele>44.2</ele><time>2022-05-15T09:05:09.000Z</time></trkpt><trkpt lon="5.73919" lat="51.054059"><ele>44</ele><time>2022-05-15T09:05:10.000Z</time></trkpt><trkpt lon="5.739237" lat="51.054124"><ele>44</ele><time>2022-05-15T09:05:11.000Z</time></trkpt><trkpt lon="5.739282" lat="51.054185"><ele>44</ele><time>2022-05-15T09:05:12.000Z</time></trkpt><trkpt lon="5.739328" lat="51.05425"><ele>44</ele><time>2022-05-15T09:05:13.000Z</time></trkpt><trkpt lon="5.739377" lat="51.054317"><ele>44</ele><time>2022-05-15T09:05:14.000Z</time></trkpt><trkpt lon="5.739428" lat="51.054384"><ele>44</ele><time>2022-05-15T09:05:15.000Z</time></trkpt><trkpt lon="5.739478" lat="51.054448"><ele>44</ele><time>2022-05-15T09:05:16.000Z</time></trkpt><trkpt lon="5.739527" lat="51.054509"><ele>43.8</ele><time>2022-05-15T09:05:17.000Z</time></trkpt><trkpt lon="5.739578" lat="51.054573"><ele>44</ele><time>2022-05-15T09:05:18.000Z</time></trkpt><trkpt lon="5.739635" lat="51.054636"><ele>44</ele><time>2022-05-15T09:05:19.000Z</time></trkpt><trkpt lon="5.739685" lat="51.054699"><ele>44.2</ele><time>2022-05-15T09:05:20.000Z</time></trkpt><trkpt lon="5.739737" lat="51.054768"><ele>44</ele><time>2022-05-15T09:05:21.000Z</time></trkpt><trkpt lon="5.739787" lat="51.054833"><ele>44</ele><time>2022-05-15T09:05:22.000Z</time></trkpt><trkpt lon="5.739834" lat="51.054898"><ele>44.2</ele><time>2022-05-15T09:05:23.000Z</time></trkpt><trkpt lon="5.739884" lat="51.054967"><ele>44.2</ele><time>2022-05-15T09:05:24.000Z</time></trkpt><trkpt lon="5.739935" lat="51.055029"><ele>44.4</ele><time>2022-05-15T09:05:25.000Z</time></trkpt><trkpt lon="5.739983" lat="51.055097"><ele>44.4</ele><time>2022-05-15T09:05:26.000Z</time></trkpt><trkpt lon="5.740032" lat="51.055162"><ele>44.2</ele><time>2022-05-15T09:05:27.000Z</time></trkpt><trkpt lon="5.740075" lat="51.055223"><ele>44.2</ele><time>2022-05-15T09:05:28.000Z</time></trkpt><trkpt lon="5.74012" lat="51.055288"><ele>44</ele><time>2022-05-15T09:05:29.000Z</time></trkpt><trkpt lon="5.740166" lat="51.055352"><ele>44</ele><time>2022-05-15T09:05:30.000Z</time></trkpt><trkpt lon="5.740216" lat="51.05541"><ele>43.8</ele><time>2022-05-15T09:05:31.000Z</time></trkpt><trkpt lon="5.740268" lat="51.055471"><ele>43.8</ele><time>2022-05-15T09:05:32.000Z</time></trkpt><trkpt lon="5.740318" lat="51.055536"><ele>43.6</ele><time>2022-05-15T09:05:33.000Z</time></trkpt><trkpt lon="5.740368" lat="51.055604"><ele>43.6</ele><time>2022-05-15T09:05:34.000Z</time></trkpt><trkpt lon="5.740414" lat="51.055668"><ele>43.6</ele><time>2022-05-15T09:05:35.000Z</time></trkpt><trkpt lon="5.740461" lat="51.055734"><ele>43.6</ele><time>2022-05-15T09:05:36.000Z</time></trkpt><trkpt lon="5.74051" lat="51.055798"><ele>43.6</ele><time>2022-05-15T09:05:37.000Z</time></trkpt><trkpt lon="5.740553" lat="51.055856"><ele>43.8</ele><time>2022-05-15T09:05:38.000Z</time></trkpt><trkpt lon="5.740593" lat="51.055917"><ele>43.8</ele><time>2022-05-15T09:05:39.000Z</time></trkpt><trkpt lon="5.740633" lat="51.055978"><ele>43.8</ele><time>2022-05-15T09:05:40.000Z</time></trkpt><trkpt lon="5.740677" lat="51.056039"><ele>43.8</ele><time>2022-05-15T09:05:41.000Z</time></trkpt><trkpt lon="5.740707" lat="51.056096"><ele>43.6</ele><time>2022-05-15T09:05:42.000Z</time></trkpt><trkpt lon="5.740724" lat="51.056156"><ele>43.6</ele><time>2022-05-15T09:05:43.000Z</time></trkpt><trkpt lon="5.740709" lat="51.056211"><ele>43.6</ele><time>2022-05-15T09:05:44.000Z</time></trkpt><trkpt lon="5.74065" lat="51.056261"><ele>43.6</ele><time>2022-05-15T09:05:45.000Z</time></trkpt><trkpt lon="5.740569" lat="51.056299"><ele>43.4</ele><time>2022-05-15T09:05:46.000Z</time></trkpt><trkpt lon="5.740477" lat="51.056338"><ele>43.4</ele><time>2022-05-15T09:05:47.000Z</time></trkpt><trkpt lon="5.740378" lat="51.05638"><ele>43.4</ele><time>2022-05-15T09:05:48.000Z</time></trkpt><trkpt lon="5.740278" lat="51.056422"><ele>43.2</ele><time>2022-05-15T09:05:49.000Z</time></trkpt><trkpt lon="5.740178" lat="51.056464"><ele>43.2</ele><time>2022-05-15T09:05:50.000Z</time></trkpt><trkpt lon="5.740079" lat="51.056506"><ele>43.2</ele><time>2022-05-15T09:05:51.000Z</time></trkpt><trkpt lon="5.73998" lat="51.056547"><ele>43.4</ele><time>2022-05-15T09:05:52.000Z</time></trkpt><trkpt lon="5.73988" lat="51.056589"><ele>43.4</ele><time>2022-05-15T09:05:53.000Z</time></trkpt><trkpt lon="5.739782" lat="51.056628"><ele>43.4</ele><time>2022-05-15T09:05:54.000Z</time></trkpt><trkpt lon="5.739689" lat="51.056665"><ele>43.6</ele><time>2022-05-15T09:05:55.000Z</time></trkpt><trkpt lon="5.739592" lat="51.056704"><ele>43.6</ele><time>2022-05-15T09:05:56.000Z</time></trkpt><trkpt lon="5.739495" lat="51.056746"><ele>43.6</ele><time>2022-05-15T09:05:57.000Z</time></trkpt><trkpt lon="5.739401" lat="51.056784"><ele>43.6</ele><time>2022-05-15T09:05:58.000Z</time></trkpt><trkpt lon="5.739306" lat="51.056822"><ele>43.6</ele><time>2022-05-15T09:05:59.000Z</time></trkpt><trkpt lon="5.739214" lat="51.056864"><ele>43.8</ele><time>2022-05-15T09:06:00.000Z</time></trkpt><trkpt lon="5.739117" lat="51.056902"><ele>43.8</ele><time>2022-05-15T09:06:01.000Z</time></trkpt><trkpt lon="5.73902" lat="51.056944"><ele>43.8</ele><time>2022-05-15T09:06:02.000Z</time></trkpt><trkpt lon="5.738922" lat="51.056982"><ele>43.8</ele><time>2022-05-15T09:06:03.000Z</time></trkpt><trkpt lon="5.738824" lat="51.057021"><ele>43.8</ele><time>2022-05-15T09:06:04.000Z</time></trkpt><trkpt lon="5.738724" lat="51.057062"><ele>43.8</ele><time>2022-05-15T09:06:05.000Z</time></trkpt><trkpt lon="5.738625" lat="51.057104"><ele>43.8</ele><time>2022-05-15T09:06:06.000Z</time></trkpt><trkpt lon="5.738527" lat="51.057142"><ele>43.8</ele><time>2022-05-15T09:06:07.000Z</time></trkpt><trkpt lon="5.738425" lat="51.05718"><ele>43.8</ele><time>2022-05-15T09:06:08.000Z</time></trkpt><trkpt lon="5.738325" lat="51.057223"><ele>43.8</ele><time>2022-05-15T09:06:09.000Z</time></trkpt><trkpt lon="5.738228" lat="51.057261"><ele>43.8</ele><time>2022-05-15T09:06:10.000Z</time></trkpt><trkpt lon="5.738136" lat="51.057297"><ele>43.8</ele><time>2022-05-15T09:06:11.000Z</time></trkpt><trkpt lon="5.738037" lat="51.057337"><ele>43.8</ele><time>2022-05-15T09:06:12.000Z</time></trkpt><trkpt lon="5.73794" lat="51.057375"><ele>43.8</ele><time>2022-05-15T09:06:13.000Z</time></trkpt><trkpt lon="5.737841" lat="51.057414"><ele>43.8</ele><time>2022-05-15T09:06:14.000Z</time></trkpt><trkpt lon="5.737737" lat="51.057452"><ele>43.8</ele><time>2022-05-15T09:06:15.000Z</time></trkpt><trkpt lon="5.737632" lat="51.057482"><ele>43.8</ele><time>2022-05-15T09:06:16.000Z</time></trkpt><trkpt lon="5.737526" lat="51.057513"><ele>43.8</ele><time>2022-05-15T09:06:17.000Z</time></trkpt><trkpt lon="5.737415" lat="51.057539"><ele>43.8</ele><time>2022-05-15T09:06:18.000Z</time></trkpt><trkpt lon="5.7373" lat="51.057563"><ele>43.8</ele><time>2022-05-15T09:06:19.000Z</time></trkpt><trkpt lon="5.737191" lat="51.057582"><ele>43.8</ele><time>2022-05-15T09:06:20.000Z</time></trkpt><trkpt lon="5.73708" lat="51.057601"><ele>44</ele><time>2022-05-15T09:06:21.000Z</time></trkpt><trkpt lon="5.736973" lat="51.05762"><ele>44</ele><time>2022-05-15T09:06:22.000Z</time></trkpt><trkpt lon="5.736863" lat="51.057636"><ele>44</ele><time>2022-05-15T09:06:23.000Z</time></trkpt><trkpt lon="5.736749" lat="51.057651"><ele>44</ele><time>2022-05-15T09:06:24.000Z</time></trkpt><trkpt lon="5.736635" lat="51.057662"><ele>44</ele><time>2022-05-15T09:06:25.000Z</time></trkpt><trkpt lon="5.736519" lat="51.057674"><ele>44</ele><time>2022-05-15T09:06:26.000Z</time></trkpt><trkpt lon="5.736406" lat="51.057689"><ele>44</ele><time>2022-05-15T09:06:27.000Z</time></trkpt><trkpt lon="5.736289" lat="51.0577"><ele>44</ele><time>2022-05-15T09:06:28.000Z</time></trkpt><trkpt lon="5.736173" lat="51.057712"><ele>44</ele><time>2022-05-15T09:06:29.000Z</time></trkpt><trkpt lon="5.736057" lat="51.057723"><ele>44</ele><time>2022-05-15T09:06:30.000Z</time></trkpt><trkpt lon="5.735939" lat="51.057738"><ele>44</ele><time>2022-05-15T09:06:31.000Z</time></trkpt><trkpt lon="5.735817" lat="51.05775"><ele>44</ele><time>2022-05-15T09:06:32.000Z</time></trkpt><trkpt lon="5.735694" lat="51.057765"><ele>44</ele><time>2022-05-15T09:06:33.000Z</time></trkpt><trkpt lon="5.735573" lat="51.057781"><ele>44</ele><time>2022-05-15T09:06:34.000Z</time></trkpt><trkpt lon="5.735453" lat="51.057792"><ele>44</ele><time>2022-05-15T09:06:35.000Z</time></trkpt><trkpt lon="5.735332" lat="51.057807"><ele>43.8</ele><time>2022-05-15T09:06:36.000Z</time></trkpt><trkpt lon="5.735217" lat="51.057819"><ele>43.8</ele><time>2022-05-15T09:06:37.000Z</time></trkpt><trkpt lon="5.735104" lat="51.05783"><ele>43.8</ele><time>2022-05-15T09:06:38.000Z</time></trkpt><trkpt lon="5.734983" lat="51.057842"><ele>43.8</ele><time>2022-05-15T09:06:39.000Z</time></trkpt><trkpt lon="5.734871" lat="51.057857"><ele>43.8</ele><time>2022-05-15T09:06:40.000Z</time></trkpt><trkpt lon="5.734763" lat="51.057868"><ele>44</ele><time>2022-05-15T09:06:41.000Z</time></trkpt><trkpt lon="5.73465" lat="51.057883"><ele>44</ele><time>2022-05-15T09:06:42.000Z</time></trkpt><trkpt lon="5.734538" lat="51.057899"><ele>44</ele><time>2022-05-15T09:06:43.000Z</time></trkpt><trkpt lon="5.73443" lat="51.05791"><ele>44.2</ele><time>2022-05-15T09:06:44.000Z</time></trkpt><trkpt lon="5.734322" lat="51.057925"><ele>44.2</ele><time>2022-05-15T09:06:45.000Z</time></trkpt><trkpt lon="5.734212" lat="51.057937"><ele>44.2</ele><time>2022-05-15T09:06:46.000Z</time></trkpt><trkpt lon="5.734105" lat="51.057949"><ele>44.2</ele><time>2022-05-15T09:06:47.000Z</time></trkpt><trkpt lon="5.734" lat="51.05796"><ele>44.2</ele><time>2022-05-15T09:06:48.000Z</time></trkpt><trkpt lon="5.733889" lat="51.057971"><ele>44.2</ele><time>2022-05-15T09:06:49.000Z</time></trkpt><trkpt lon="5.733782" lat="51.057987"><ele>44.2</ele><time>2022-05-15T09:06:50.000Z</time></trkpt><trkpt lon="5.733677" lat="51.057998"><ele>44.4</ele><time>2022-05-15T09:06:51.000Z</time></trkpt><trkpt lon="5.733578" lat="51.058013"><ele>44.4</ele><time>2022-05-15T09:06:52.000Z</time></trkpt><trkpt lon="5.733475" lat="51.058028"><ele>44.2</ele><time>2022-05-15T09:06:53.000Z</time></trkpt><trkpt lon="5.733373" lat="51.058044"><ele>44.2</ele><time>2022-05-15T09:06:54.000Z</time></trkpt><trkpt lon="5.733272" lat="51.058055"><ele>44.4</ele><time>2022-05-15T09:06:55.000Z</time></trkpt><trkpt lon="5.733173" lat="51.058067"><ele>44.4</ele><time>2022-05-15T09:06:56.000Z</time></trkpt><trkpt lon="5.733077" lat="51.058078"><ele>44.4</ele><time>2022-05-15T09:06:57.000Z</time></trkpt><trkpt lon="5.732981" lat="51.05809"><ele>44.4</ele><time>2022-05-15T09:06:58.000Z</time></trkpt><trkpt lon="5.732883" lat="51.058105"><ele>44.2</ele><time>2022-05-15T09:06:59.000Z</time></trkpt><trkpt lon="5.732784" lat="51.058116"><ele>44.2</ele><time>2022-05-15T09:07:00.000Z</time></trkpt><trkpt lon="5.732688" lat="51.058128"><ele>44.2</ele><time>2022-05-15T09:07:01.000Z</time></trkpt><trkpt lon="5.732595" lat="51.058139"><ele>44.2</ele><time>2022-05-15T09:07:02.000Z</time></trkpt><trkpt lon="5.732511" lat="51.058151"><ele>44.2</ele><time>2022-05-15T09:07:03.000Z</time></trkpt><trkpt lon="5.732447" lat="51.058173"><ele>44.2</ele><time>2022-05-15T09:07:04.000Z</time></trkpt><trkpt lon="5.732402" lat="51.058207"><ele>44.2</ele><time>2022-05-15T09:07:05.000Z</time></trkpt><trkpt lon="5.732371" lat="51.05826"><ele>44</ele><time>2022-05-15T09:07:06.000Z</time></trkpt><trkpt lon="5.732348" lat="51.05832"><ele>44</ele><time>2022-05-15T09:07:07.000Z</time></trkpt><trkpt lon="5.732327" lat="51.058387"><ele>43.6</ele><time>2022-05-15T09:07:08.000Z</time></trkpt><trkpt lon="5.732304" lat="51.058464"><ele>43.6</ele><time>2022-05-15T09:07:09.000Z</time></trkpt><trkpt lon="5.732284" lat="51.05854"><ele>43.6</ele><time>2022-05-15T09:07:10.000Z</time></trkpt><trkpt lon="5.732261" lat="51.05862"><ele>43.6</ele><time>2022-05-15T09:07:11.000Z</time></trkpt><trkpt lon="5.732238" lat="51.058698"><ele>43.6</ele><time>2022-05-15T09:07:12.000Z</time></trkpt><trkpt lon="5.732214" lat="51.058777"><ele>43.6</ele><time>2022-05-15T09:07:13.000Z</time></trkpt><trkpt lon="5.732188" lat="51.05886"><ele>43.6</ele><time>2022-05-15T09:07:14.000Z</time></trkpt><trkpt lon="5.732163" lat="51.058945"><ele>43.6</ele><time>2022-05-15T09:07:15.000Z</time></trkpt><trkpt lon="5.732138" lat="51.059026"><ele>43.6</ele><time>2022-05-15T09:07:16.000Z</time></trkpt><trkpt lon="5.732114" lat="51.059107"><ele>43.6</ele><time>2022-05-15T09:07:17.000Z</time></trkpt><trkpt lon="5.732091" lat="51.059181"><ele>43.6</ele><time>2022-05-15T09:07:18.000Z</time></trkpt><trkpt lon="5.732068" lat="51.059261"><ele>43.6</ele><time>2022-05-15T09:07:19.000Z</time></trkpt><trkpt lon="5.732044" lat="51.059334"><ele>43.6</ele><time>2022-05-15T09:07:20.000Z</time></trkpt><trkpt lon="5.732021" lat="51.059402"><ele>43.8</ele><time>2022-05-15T09:07:21.000Z</time></trkpt><trkpt lon="5.731999" lat="51.059472"><ele>44</ele><time>2022-05-15T09:07:22.000Z</time></trkpt><trkpt lon="5.731977" lat="51.059544"><ele>44</ele><time>2022-05-15T09:07:23.000Z</time></trkpt><trkpt lon="5.731957" lat="51.059613"><ele>44</ele><time>2022-05-15T09:07:24.000Z</time></trkpt><trkpt lon="5.731936" lat="51.059682"><ele>44</ele><time>2022-05-15T09:07:25.000Z</time></trkpt><trkpt lon="5.731916" lat="51.05975"><ele>44</ele><time>2022-05-15T09:07:26.000Z</time></trkpt><trkpt lon="5.731893" lat="51.059822"><ele>44</ele><time>2022-05-15T09:07:27.000Z</time></trkpt><trkpt lon="5.731874" lat="51.059895"><ele>44</ele><time>2022-05-15T09:07:28.000Z</time></trkpt><trkpt lon="5.731853" lat="51.059963"><ele>44</ele><time>2022-05-15T09:07:29.000Z</time></trkpt><trkpt lon="5.731829" lat="51.060039"><ele>44</ele><time>2022-05-15T09:07:30.000Z</time></trkpt><trkpt lon="5.731808" lat="51.060112"><ele>44.2</ele><time>2022-05-15T09:07:31.000Z</time></trkpt><trkpt lon="5.731786" lat="51.060185"><ele>44.2</ele><time>2022-05-15T09:07:32.000Z</time></trkpt><trkpt lon="5.731765" lat="51.060252"><ele>44.2</ele><time>2022-05-15T09:07:33.000Z</time></trkpt><trkpt lon="5.731744" lat="51.060326"><ele>44</ele><time>2022-05-15T09:07:34.000Z</time></trkpt><trkpt lon="5.731724" lat="51.060395"><ele>44</ele><time>2022-05-15T09:07:35.000Z</time></trkpt><trkpt lon="5.731703" lat="51.060466"><ele>43.8</ele><time>2022-05-15T09:07:36.000Z</time></trkpt><trkpt lon="5.731683" lat="51.060534"><ele>43.8</ele><time>2022-05-15T09:07:37.000Z</time></trkpt><trkpt lon="5.731661" lat="51.060605"><ele>43.8</ele><time>2022-05-15T09:07:38.000Z</time></trkpt><trkpt lon="5.731641" lat="51.060677"><ele>43.8</ele><time>2022-05-15T09:07:39.000Z</time></trkpt><trkpt lon="5.731618" lat="51.060749"><ele>43.6</ele><time>2022-05-15T09:07:40.000Z</time></trkpt><trkpt lon="5.731593" lat="51.060818"><ele>43.6</ele><time>2022-05-15T09:07:41.000Z</time></trkpt><trkpt lon="5.731571" lat="51.060891"><ele>43.4</ele><time>2022-05-15T09:07:42.000Z</time></trkpt><trkpt lon="5.731549" lat="51.060963"><ele>43.6</ele><time>2022-05-15T09:07:43.000Z</time></trkpt><trkpt lon="5.731528" lat="51.061036"><ele>43.4</ele><time>2022-05-15T09:07:44.000Z</time></trkpt><trkpt lon="5.731506" lat="51.061112"><ele>43.2</ele><time>2022-05-15T09:07:45.000Z</time></trkpt><trkpt lon="5.731485" lat="51.061183"><ele>43</ele><time>2022-05-15T09:07:46.000Z</time></trkpt><trkpt lon="5.731463" lat="51.061257"><ele>43</ele><time>2022-05-15T09:07:47.000Z</time></trkpt><trkpt lon="5.731442" lat="51.061329"><ele>43</ele><time>2022-05-15T09:07:48.000Z</time></trkpt><trkpt lon="5.731421" lat="51.061403"><ele>43</ele><time>2022-05-15T09:07:49.000Z</time></trkpt><trkpt lon="5.731397" lat="51.061479"><ele>43.2</ele><time>2022-05-15T09:07:50.000Z</time></trkpt><trkpt lon="5.731376" lat="51.06155"><ele>43.2</ele><time>2022-05-15T09:07:51.000Z</time></trkpt><trkpt lon="5.731353" lat="51.061623"><ele>43.2</ele><time>2022-05-15T09:07:52.000Z</time></trkpt><trkpt lon="5.731331" lat="51.061698"><ele>43</ele><time>2022-05-15T09:07:53.000Z</time></trkpt><trkpt lon="5.731309" lat="51.061772"><ele>42.8</ele><time>2022-05-15T09:07:54.000Z</time></trkpt><trkpt lon="5.731289" lat="51.061841"><ele>42.8</ele><time>2022-05-15T09:07:55.000Z</time></trkpt><trkpt lon="5.731269" lat="51.061913"><ele>42.8</ele><time>2022-05-15T09:07:56.000Z</time></trkpt><trkpt lon="5.73125" lat="51.061981"><ele>42.8</ele><time>2022-05-15T09:07:57.000Z</time></trkpt><trkpt lon="5.731227" lat="51.062051"><ele>42.8</ele><time>2022-05-15T09:07:58.000Z</time></trkpt><trkpt lon="5.731209" lat="51.062124"><ele>42.6</ele><time>2022-05-15T09:07:59.000Z</time></trkpt><trkpt lon="5.731194" lat="51.062192"><ele>42.6</ele><time>2022-05-15T09:08:00.000Z</time></trkpt><trkpt lon="5.731179" lat="51.06226"><ele>42.6</ele><time>2022-05-15T09:08:01.000Z</time></trkpt><trkpt lon="5.731159" lat="51.062335"><ele>42.6</ele><time>2022-05-15T09:08:02.000Z</time></trkpt><trkpt lon="5.73114" lat="51.062407"><ele>42.6</ele><time>2022-05-15T09:08:03.000Z</time></trkpt><trkpt lon="5.731119" lat="51.062481"><ele>42.6</ele><time>2022-05-15T09:08:04.000Z</time></trkpt><trkpt lon="5.731101" lat="51.062549"><ele>42.8</ele><time>2022-05-15T09:08:05.000Z</time></trkpt><trkpt lon="5.731081" lat="51.062626"><ele>42.8</ele><time>2022-05-15T09:08:06.000Z</time></trkpt><trkpt lon="5.731063" lat="51.062695"><ele>42.8</ele><time>2022-05-15T09:08:07.000Z</time></trkpt><trkpt lon="5.731042" lat="51.062767"><ele>42.8</ele><time>2022-05-15T09:08:08.000Z</time></trkpt><trkpt lon="5.731024" lat="51.06284"><ele>42.8</ele><time>2022-05-15T09:08:09.000Z</time></trkpt><trkpt lon="5.731006" lat="51.062916"><ele>42.8</ele><time>2022-05-15T09:08:10.000Z</time></trkpt><trkpt lon="5.730987" lat="51.062989"><ele>43</ele><time>2022-05-15T09:08:11.000Z</time></trkpt><trkpt lon="5.730971" lat="51.063058"><ele>43.2</ele><time>2022-05-15T09:08:12.000Z</time></trkpt><trkpt lon="5.730954" lat="51.063127"><ele>43.4</ele><time>2022-05-15T09:08:13.000Z</time></trkpt><trkpt lon="5.730939" lat="51.063195"><ele>43.6</ele><time>2022-05-15T09:08:14.000Z</time></trkpt><trkpt lon="5.730923" lat="51.063267"><ele>43.8</ele><time>2022-05-15T09:08:15.000Z</time></trkpt><trkpt lon="5.730906" lat="51.06334"><ele>43.8</ele><time>2022-05-15T09:08:16.000Z</time></trkpt><trkpt lon="5.730889" lat="51.063412"><ele>44</ele><time>2022-05-15T09:08:17.000Z</time></trkpt><trkpt lon="5.73087" lat="51.063485"><ele>44</ele><time>2022-05-15T09:08:18.000Z</time></trkpt><trkpt lon="5.730852" lat="51.063558"><ele>44</ele><time>2022-05-15T09:08:19.000Z</time></trkpt><trkpt lon="5.730835" lat="51.063631"><ele>44</ele><time>2022-05-15T09:08:20.000Z</time></trkpt><trkpt lon="5.730819" lat="51.063705"><ele>44</ele><time>2022-05-15T09:08:21.000Z</time></trkpt><trkpt lon="5.730801" lat="51.063778"><ele>44</ele><time>2022-05-15T09:08:22.000Z</time></trkpt><trkpt lon="5.730783" lat="51.06385"><ele>44</ele><time>2022-05-15T09:08:23.000Z</time></trkpt><trkpt lon="5.730765" lat="51.063922"><ele>44.2</ele><time>2022-05-15T09:08:24.000Z</time></trkpt><trkpt lon="5.730746" lat="51.063999"><ele>44.2</ele><time>2022-05-15T09:08:25.000Z</time></trkpt><trkpt lon="5.730729" lat="51.064068"><ele>44.2</ele><time>2022-05-15T09:08:26.000Z</time></trkpt><trkpt lon="5.730713" lat="51.064136"><ele>44.2</ele><time>2022-05-15T09:08:27.000Z</time></trkpt><trkpt lon="5.730696" lat="51.064209"><ele>44</ele><time>2022-05-15T09:08:28.000Z</time></trkpt><trkpt lon="5.730678" lat="51.064281"><ele>43.8</ele><time>2022-05-15T09:08:29.000Z</time></trkpt><trkpt lon="5.730659" lat="51.064355"><ele>44</ele><time>2022-05-15T09:08:30.000Z</time></trkpt><trkpt lon="5.730641" lat="51.064427"><ele>43.8</ele><time>2022-05-15T09:08:31.000Z</time></trkpt><trkpt lon="5.730624" lat="51.064501"><ele>43.8</ele><time>2022-05-15T09:08:32.000Z</time></trkpt><trkpt lon="5.730606" lat="51.064571"><ele>44</ele><time>2022-05-15T09:08:33.000Z</time></trkpt><trkpt lon="5.730588" lat="51.064647"><ele>44.2</ele><time>2022-05-15T09:08:34.000Z</time></trkpt><trkpt lon="5.730568" lat="51.06472"><ele>44.2</ele><time>2022-05-15T09:08:35.000Z</time></trkpt><trkpt lon="5.730549" lat="51.064794"><ele>44.2</ele><time>2022-05-15T09:08:36.000Z</time></trkpt><trkpt lon="5.730532" lat="51.064862"><ele>44</ele><time>2022-05-15T09:08:37.000Z</time></trkpt><trkpt lon="5.730514" lat="51.064933"><ele>43.8</ele><time>2022-05-15T09:08:38.000Z</time></trkpt><trkpt lon="5.730496" lat="51.065004"><ele>43.8</ele><time>2022-05-15T09:08:39.000Z</time></trkpt><trkpt lon="5.730476" lat="51.065077"><ele>43.8</ele><time>2022-05-15T09:08:40.000Z</time></trkpt><trkpt lon="5.730459" lat="51.065148"><ele>43.8</ele><time>2022-05-15T09:08:41.000Z</time></trkpt><trkpt lon="5.730441" lat="51.065216"><ele>44</ele><time>2022-05-15T09:08:42.000Z</time></trkpt><trkpt lon="5.730422" lat="51.065289"><ele>44.2</ele><time>2022-05-15T09:08:43.000Z</time></trkpt><trkpt lon="5.730402" lat="51.065362"><ele>44.2</ele><time>2022-05-15T09:08:44.000Z</time></trkpt><trkpt lon="5.730384" lat="51.06543"><ele>44.4</ele><time>2022-05-15T09:08:45.000Z</time></trkpt><trkpt lon="5.730368" lat="51.065506"><ele>44.6</ele><time>2022-05-15T09:08:46.000Z</time></trkpt><trkpt lon="5.730349" lat="51.065573"><ele>44.8</ele><time>2022-05-15T09:08:47.000Z</time></trkpt><trkpt lon="5.730331" lat="51.065648"><ele>44.8</ele><time>2022-05-15T09:08:48.000Z</time></trkpt><trkpt lon="5.730313" lat="51.065721"><ele>45</ele><time>2022-05-15T09:08:49.000Z</time></trkpt><trkpt lon="5.73029" lat="51.065789"><ele>45</ele><time>2022-05-15T09:08:50.000Z</time></trkpt><trkpt lon="5.730268" lat="51.065857"><ele>45</ele><time>2022-05-15T09:08:51.000Z</time></trkpt><trkpt lon="5.730246" lat="51.06593"><ele>45</ele><time>2022-05-15T09:08:52.000Z</time></trkpt><trkpt lon="5.73022" lat="51.065998"><ele>44.8</ele><time>2022-05-15T09:08:53.000Z</time></trkpt><trkpt lon="5.730188" lat="51.066064"><ele>44.6</ele><time>2022-05-15T09:08:54.000Z</time></trkpt><trkpt lon="5.730143" lat="51.066128"><ele>44.6</ele><time>2022-05-15T09:08:55.000Z</time></trkpt><trkpt lon="5.730093" lat="51.066193"><ele>44.8</ele><time>2022-05-15T09:08:56.000Z</time></trkpt><trkpt lon="5.730038" lat="51.066254"><ele>45</ele><time>2022-05-15T09:08:57.000Z</time></trkpt><trkpt lon="5.729982" lat="51.066315"><ele>45</ele><time>2022-05-15T09:08:58.000Z</time></trkpt><trkpt lon="5.729924" lat="51.066372"><ele>45.2</ele><time>2022-05-15T09:08:59.000Z</time></trkpt><trkpt lon="5.729859" lat="51.066429"><ele>45.2</ele><time>2022-05-15T09:09:00.000Z</time></trkpt><trkpt lon="5.729798" lat="51.066485"><ele>45.2</ele><time>2022-05-15T09:09:01.000Z</time></trkpt><trkpt lon="5.729731" lat="51.06654"><ele>45.2</ele><time>2022-05-15T09:09:02.000Z</time></trkpt><trkpt lon="5.729664" lat="51.066598"><ele>45.2</ele><time>2022-05-15T09:09:03.000Z</time></trkpt><trkpt lon="5.729601" lat="51.066654"><ele>45.2</ele><time>2022-05-15T09:09:04.000Z</time></trkpt><trkpt lon="5.729536" lat="51.066711"><ele>45.2</ele><time>2022-05-15T09:09:05.000Z</time></trkpt><trkpt lon="5.72947" lat="51.066766"><ele>45.2</ele><time>2022-05-15T09:09:06.000Z</time></trkpt><trkpt lon="5.729407" lat="51.066821"><ele>45.2</ele><time>2022-05-15T09:09:07.000Z</time></trkpt><trkpt lon="5.729344" lat="51.066879"><ele>45.4</ele><time>2022-05-15T09:09:08.000Z</time></trkpt><trkpt lon="5.729283" lat="51.066936"><ele>45.4</ele><time>2022-05-15T09:09:09.000Z</time></trkpt><trkpt lon="5.729219" lat="51.066994"><ele>45.6</ele><time>2022-05-15T09:09:10.000Z</time></trkpt><trkpt lon="5.729154" lat="51.067051"><ele>45.4</ele><time>2022-05-15T09:09:11.000Z</time></trkpt><trkpt lon="5.729087" lat="51.067105"><ele>45.6</ele><time>2022-05-15T09:09:12.000Z</time></trkpt><trkpt lon="5.729023" lat="51.067158"><ele>45.6</ele><time>2022-05-15T09:09:13.000Z</time></trkpt><trkpt lon="5.728958" lat="51.067215"><ele>45.6</ele><time>2022-05-15T09:09:14.000Z</time></trkpt><trkpt lon="5.728892" lat="51.067276"><ele>45.6</ele><time>2022-05-15T09:09:15.000Z</time></trkpt><trkpt lon="5.728826" lat="51.06733"><ele>45.6</ele><time>2022-05-15T09:09:16.000Z</time></trkpt><trkpt lon="5.72876" lat="51.067386"><ele>45.6</ele><time>2022-05-15T09:09:17.000Z</time></trkpt><trkpt lon="5.72869" lat="51.067449"><ele>45.6</ele><time>2022-05-15T09:09:18.000Z</time></trkpt><trkpt lon="5.728623" lat="51.067506"><ele>45.6</ele><time>2022-05-15T09:09:19.000Z</time></trkpt><trkpt lon="5.728556" lat="51.067564"><ele>45.6</ele><time>2022-05-15T09:09:20.000Z</time></trkpt><trkpt lon="5.728488" lat="51.067621"><ele>45.4</ele><time>2022-05-15T09:09:21.000Z</time></trkpt><trkpt lon="5.728423" lat="51.067673"><ele>45.2</ele><time>2022-05-15T09:09:22.000Z</time></trkpt><trkpt lon="5.728354" lat="51.067725"><ele>45.2</ele><time>2022-05-15T09:09:23.000Z</time></trkpt><trkpt lon="5.728276" lat="51.067779"><ele>45.2</ele><time>2022-05-15T09:09:24.000Z</time></trkpt><trkpt lon="5.728199" lat="51.067829"><ele>45.2</ele><time>2022-05-15T09:09:25.000Z</time></trkpt><trkpt lon="5.728121" lat="51.067875"><ele>45.4</ele><time>2022-05-15T09:09:26.000Z</time></trkpt><trkpt lon="5.728038" lat="51.067925"><ele>45.4</ele><time>2022-05-15T09:09:27.000Z</time></trkpt><trkpt lon="5.727957" lat="51.067978"><ele>45.2</ele><time>2022-05-15T09:09:28.000Z</time></trkpt><trkpt lon="5.727883" lat="51.068023"><ele>45.2</ele><time>2022-05-15T09:09:29.000Z</time></trkpt><trkpt lon="5.727792" lat="51.06808"><ele>45.2</ele><time>2022-05-15T09:09:30.000Z</time></trkpt><trkpt lon="5.727707" lat="51.068134"><ele>45.2</ele><time>2022-05-15T09:09:31.000Z</time></trkpt><trkpt lon="5.727619" lat="51.068188"><ele>45.2</ele><time>2022-05-15T09:09:32.000Z</time></trkpt><trkpt lon="5.727532" lat="51.068242"><ele>45.2</ele><time>2022-05-15T09:09:33.000Z</time></trkpt><trkpt lon="5.727446" lat="51.068294"><ele>45.2</ele><time>2022-05-15T09:09:34.000Z</time></trkpt><trkpt lon="5.72736" lat="51.068351"><ele>45.2</ele><time>2022-05-15T09:09:35.000Z</time></trkpt><trkpt lon="5.727271" lat="51.068405"><ele>45.2</ele><time>2022-05-15T09:09:36.000Z</time></trkpt><trkpt lon="5.727182" lat="51.068458"><ele>45.2</ele><time>2022-05-15T09:09:37.000Z</time></trkpt><trkpt lon="5.727093" lat="51.068515"><ele>45.2</ele><time>2022-05-15T09:09:38.000Z</time></trkpt><trkpt lon="5.727007" lat="51.068569"><ele>45.2</ele><time>2022-05-15T09:09:39.000Z</time></trkpt><trkpt lon="5.72692" lat="51.068622"><ele>45</ele><time>2022-05-15T09:09:40.000Z</time></trkpt><trkpt lon="5.726833" lat="51.068676"><ele>45</ele><time>2022-05-15T09:09:41.000Z</time></trkpt><trkpt lon="5.726748" lat="51.068729"><ele>45</ele><time>2022-05-15T09:09:42.000Z</time></trkpt><trkpt lon="5.726665" lat="51.068783"><ele>45</ele><time>2022-05-15T09:09:43.000Z</time></trkpt><trkpt lon="5.726584" lat="51.068836"><ele>45</ele><time>2022-05-15T09:09:44.000Z</time></trkpt><trkpt lon="5.726503" lat="51.068886"><ele>44.8</ele><time>2022-05-15T09:09:45.000Z</time></trkpt><trkpt lon="5.726418" lat="51.068939"><ele>44.8</ele><time>2022-05-15T09:09:46.000Z</time></trkpt><trkpt lon="5.726332" lat="51.068992"><ele>44.8</ele><time>2022-05-15T09:09:47.000Z</time></trkpt><trkpt lon="5.726245" lat="51.069047"><ele>44.8</ele><time>2022-05-15T09:09:48.000Z</time></trkpt><trkpt lon="5.726158" lat="51.069101"><ele>44.8</ele><time>2022-05-15T09:09:49.000Z</time></trkpt><trkpt lon="5.726074" lat="51.069154"><ele>44.8</ele><time>2022-05-15T09:09:50.000Z</time></trkpt><trkpt lon="5.725991" lat="51.069207"><ele>44.8</ele><time>2022-05-15T09:09:51.000Z</time></trkpt><trkpt lon="5.725905" lat="51.069259"><ele>44.8</ele><time>2022-05-15T09:09:52.000Z</time></trkpt><trkpt lon="5.72582" lat="51.069312"><ele>44.8</ele><time>2022-05-15T09:09:53.000Z</time></trkpt><trkpt lon="5.725733" lat="51.069366"><ele>44.6</ele><time>2022-05-15T09:09:54.000Z</time></trkpt><trkpt lon="5.725648" lat="51.069424"><ele>44.4</ele><time>2022-05-15T09:09:55.000Z</time></trkpt><trkpt lon="5.725563" lat="51.069477"><ele>44.2</ele><time>2022-05-15T09:09:56.000Z</time></trkpt><trkpt lon="5.725482" lat="51.069528"><ele>44.2</ele><time>2022-05-15T09:09:57.000Z</time></trkpt><trkpt lon="5.725393" lat="51.069583"><ele>44.2</ele><time>2022-05-15T09:09:58.000Z</time></trkpt><trkpt lon="5.72531" lat="51.069633"><ele>44.4</ele><time>2022-05-15T09:09:59.000Z</time></trkpt><trkpt lon="5.725229" lat="51.069685"><ele>44.4</ele><time>2022-05-15T09:10:00.000Z</time></trkpt><trkpt lon="5.725144" lat="51.069736"><ele>44.2</ele><time>2022-05-15T09:10:01.000Z</time></trkpt><trkpt lon="5.725061" lat="51.069789"><ele>44.2</ele><time>2022-05-15T09:10:02.000Z</time></trkpt><trkpt lon="5.724977" lat="51.06984"><ele>44.2</ele><time>2022-05-15T09:10:03.000Z</time></trkpt><trkpt lon="5.724896" lat="51.069889"><ele>44.4</ele><time>2022-05-15T09:10:04.000Z</time></trkpt><trkpt lon="5.724812" lat="51.069939"><ele>44.4</ele><time>2022-05-15T09:10:05.000Z</time></trkpt><trkpt lon="5.724728" lat="51.069992"><ele>44.4</ele><time>2022-05-15T09:10:06.000Z</time></trkpt><trkpt lon="5.724646" lat="51.070043"><ele>44.2</ele><time>2022-05-15T09:10:07.000Z</time></trkpt><trkpt lon="5.724561" lat="51.070094"><ele>44.2</ele><time>2022-05-15T09:10:08.000Z</time></trkpt><trkpt lon="5.724475" lat="51.070148"><ele>44.2</ele><time>2022-05-15T09:10:09.000Z</time></trkpt><trkpt lon="5.724391" lat="51.070201"><ele>44.2</ele><time>2022-05-15T09:10:10.000Z</time></trkpt><trkpt lon="5.724307" lat="51.070255"><ele>44.2</ele><time>2022-05-15T09:10:11.000Z</time></trkpt><trkpt lon="5.724222" lat="51.070308"><ele>44.2</ele><time>2022-05-15T09:10:12.000Z</time></trkpt><trkpt lon="5.724135" lat="51.070362"><ele>44.2</ele><time>2022-05-15T09:10:13.000Z</time></trkpt><trkpt lon="5.724048" lat="51.070415"><ele>44.2</ele><time>2022-05-15T09:10:14.000Z</time></trkpt><trkpt lon="5.723964" lat="51.070469"><ele>44.2</ele><time>2022-05-15T09:10:15.000Z</time></trkpt><trkpt lon="5.72388" lat="51.070522"><ele>44.2</ele><time>2022-05-15T09:10:16.000Z</time></trkpt><trkpt lon="5.723795" lat="51.070576"><ele>44</ele><time>2022-05-15T09:10:17.000Z</time></trkpt><trkpt lon="5.723709" lat="51.070631"><ele>44</ele><time>2022-05-15T09:10:18.000Z</time></trkpt><trkpt lon="5.723626" lat="51.070683"><ele>44.2</ele><time>2022-05-15T09:10:19.000Z</time></trkpt><trkpt lon="5.723543" lat="51.070736"><ele>44</ele><time>2022-05-15T09:10:20.000Z</time></trkpt><trkpt lon="5.723456" lat="51.070789"><ele>44</ele><time>2022-05-15T09:10:21.000Z</time></trkpt><trkpt lon="5.723372" lat="51.070842"><ele>44</ele><time>2022-05-15T09:10:22.000Z</time></trkpt><trkpt lon="5.723289" lat="51.070899"><ele>44</ele><time>2022-05-15T09:10:23.000Z</time></trkpt><trkpt lon="5.723204" lat="51.070953"><ele>43.8</ele><time>2022-05-15T09:10:24.000Z</time></trkpt><trkpt lon="5.723118" lat="51.071011"><ele>43.8</ele><time>2022-05-15T09:10:25.000Z</time></trkpt><trkpt lon="5.723034" lat="51.071063"><ele>43.8</ele><time>2022-05-15T09:10:26.000Z</time></trkpt><trkpt lon="5.722948" lat="51.071117"><ele>43.8</ele><time>2022-05-15T09:10:27.000Z</time></trkpt><trkpt lon="5.722862" lat="51.071171"><ele>43.8</ele><time>2022-05-15T09:10:28.000Z</time></trkpt><trkpt lon="5.722779" lat="51.071223"><ele>43.8</ele><time>2022-05-15T09:10:29.000Z</time></trkpt><trkpt lon="5.722693" lat="51.071278"><ele>43.8</ele><time>2022-05-15T09:10:30.000Z</time></trkpt><trkpt lon="5.722606" lat="51.071331"><ele>43.8</ele><time>2022-05-15T09:10:31.000Z</time></trkpt><trkpt lon="5.722523" lat="51.071383"><ele>43.8</ele><time>2022-05-15T09:10:32.000Z</time></trkpt><trkpt lon="5.722436" lat="51.071438"><ele>43.6</ele><time>2022-05-15T09:10:33.000Z</time></trkpt><trkpt lon="5.72235" lat="51.071492"><ele>43.6</ele><time>2022-05-15T09:10:34.000Z</time></trkpt><trkpt lon="5.722267" lat="51.071544"><ele>43.4</ele><time>2022-05-15T09:10:35.000Z</time></trkpt><trkpt lon="5.722183" lat="51.071597"><ele>43.4</ele><time>2022-05-15T09:10:36.000Z</time></trkpt><trkpt lon="5.722098" lat="51.07165"><ele>43.6</ele><time>2022-05-15T09:10:37.000Z</time></trkpt><trkpt lon="5.722013" lat="51.071704"><ele>43.6</ele><time>2022-05-15T09:10:38.000Z</time></trkpt><trkpt lon="5.721928" lat="51.071758"><ele>43.6</ele><time>2022-05-15T09:10:39.000Z</time></trkpt><trkpt lon="5.721845" lat="51.071808"><ele>43.8</ele><time>2022-05-15T09:10:40.000Z</time></trkpt><trkpt lon="5.721759" lat="51.071861"><ele>43.8</ele><time>2022-05-15T09:10:41.000Z</time></trkpt><trkpt lon="5.721677" lat="51.071914"><ele>43.8</ele><time>2022-05-15T09:10:42.000Z</time></trkpt><trkpt lon="5.721594" lat="51.071967"><ele>44.2</ele><time>2022-05-15T09:10:43.000Z</time></trkpt><trkpt lon="5.721509" lat="51.072018"><ele>44.2</ele><time>2022-05-15T09:10:44.000Z</time></trkpt><trkpt lon="5.721426" lat="51.072071"><ele>44.4</ele><time>2022-05-15T09:10:45.000Z</time></trkpt><trkpt lon="5.72134" lat="51.072124"><ele>44.4</ele><time>2022-05-15T09:10:46.000Z</time></trkpt><trkpt lon="5.721254" lat="51.072177"><ele>44.6</ele><time>2022-05-15T09:10:47.000Z</time></trkpt><trkpt lon="5.721166" lat="51.072231"><ele>44.4</ele><time>2022-05-15T09:10:48.000Z</time></trkpt><trkpt lon="5.721077" lat="51.072289"><ele>44.4</ele><time>2022-05-15T09:10:49.000Z</time></trkpt><trkpt lon="5.720991" lat="51.072342"><ele>44.4</ele><time>2022-05-15T09:10:50.000Z</time></trkpt><trkpt lon="5.720904" lat="51.072399"><ele>44.4</ele><time>2022-05-15T09:10:51.000Z</time></trkpt><trkpt lon="5.720817" lat="51.072452"><ele>44.4</ele><time>2022-05-15T09:10:52.000Z</time></trkpt><trkpt lon="5.720733" lat="51.072507"><ele>44.4</ele><time>2022-05-15T09:10:53.000Z</time></trkpt><trkpt lon="5.720642" lat="51.072566"><ele>44.4</ele><time>2022-05-15T09:10:54.000Z</time></trkpt><trkpt lon="5.720552" lat="51.072623"><ele>44.4</ele><time>2022-05-15T09:10:55.000Z</time></trkpt><trkpt lon="5.720463" lat="51.072677"><ele>44.2</ele><time>2022-05-15T09:10:56.000Z</time></trkpt><trkpt lon="5.720373" lat="51.072734"><ele>44.2</ele><time>2022-05-15T09:10:57.000Z</time></trkpt><trkpt lon="5.720283" lat="51.072788"><ele>44.2</ele><time>2022-05-15T09:10:58.000Z</time></trkpt><trkpt lon="5.720193" lat="51.072845"><ele>44.2</ele><time>2022-05-15T09:10:59.000Z</time></trkpt><trkpt lon="5.720107" lat="51.072902"><ele>44.4</ele><time>2022-05-15T09:11:00.000Z</time></trkpt><trkpt lon="5.720019" lat="51.072956"><ele>44.4</ele><time>2022-05-15T09:11:01.000Z</time></trkpt><trkpt lon="5.719932" lat="51.073008"><ele>44.4</ele><time>2022-05-15T09:11:02.000Z</time></trkpt><trkpt lon="5.719843" lat="51.073063"><ele>44.6</ele><time>2022-05-15T09:11:03.000Z</time></trkpt><trkpt lon="5.719756" lat="51.073116"><ele>44.4</ele><time>2022-05-15T09:11:04.000Z</time></trkpt><trkpt lon="5.719671" lat="51.073169"><ele>44.4</ele><time>2022-05-15T09:11:05.000Z</time></trkpt><trkpt lon="5.719585" lat="51.073225"><ele>44.4</ele><time>2022-05-15T09:11:06.000Z</time></trkpt><trkpt lon="5.719494" lat="51.07328"><ele>44.6</ele><time>2022-05-15T09:11:07.000Z</time></trkpt><trkpt lon="5.719404" lat="51.07334"><ele>44.6</ele><time>2022-05-15T09:11:08.000Z</time></trkpt><trkpt lon="5.719312" lat="51.073394"><ele>44.8</ele><time>2022-05-15T09:11:09.000Z</time></trkpt><trkpt lon="5.719221" lat="51.073451"><ele>44.8</ele><time>2022-05-15T09:11:10.000Z</time></trkpt><trkpt lon="5.719129" lat="51.073512"><ele>45</ele><time>2022-05-15T09:11:11.000Z</time></trkpt><trkpt lon="5.719038" lat="51.073565"><ele>45.2</ele><time>2022-05-15T09:11:12.000Z</time></trkpt><trkpt lon="5.718947" lat="51.073626"><ele>45.2</ele><time>2022-05-15T09:11:13.000Z</time></trkpt><trkpt lon="5.718859" lat="51.07368"><ele>45.4</ele><time>2022-05-15T09:11:14.000Z</time></trkpt><trkpt lon="5.718772" lat="51.073737"><ele>45.6</ele><time>2022-05-15T09:11:15.000Z</time></trkpt><trkpt lon="5.718688" lat="51.07379"><ele>45.6</ele><time>2022-05-15T09:11:16.000Z</time></trkpt><trkpt lon="5.7186" lat="51.073846"><ele>45.6</ele><time>2022-05-15T09:11:17.000Z</time></trkpt><trkpt lon="5.718515" lat="51.073899"><ele>45.6</ele><time>2022-05-15T09:11:18.000Z</time></trkpt><trkpt lon="5.718432" lat="51.073952"><ele>45.6</ele><time>2022-05-15T09:11:19.000Z</time></trkpt><trkpt lon="5.71835" lat="51.074002"><ele>45.4</ele><time>2022-05-15T09:11:20.000Z</time></trkpt><trkpt lon="5.718273" lat="51.074052"><ele>45.4</ele><time>2022-05-15T09:11:21.000Z</time></trkpt><trkpt lon="5.718191" lat="51.074105"><ele>45.4</ele><time>2022-05-15T09:11:22.000Z</time></trkpt><trkpt lon="5.718114" lat="51.074157"><ele>45.4</ele><time>2022-05-15T09:11:23.000Z</time></trkpt><trkpt lon="5.718037" lat="51.074211"><ele>45.2</ele><time>2022-05-15T09:11:24.000Z</time></trkpt><trkpt lon="5.717964" lat="51.074259"><ele>45.2</ele><time>2022-05-15T09:11:25.000Z</time></trkpt><trkpt lon="5.717887" lat="51.07431"><ele>45</ele><time>2022-05-15T09:11:26.000Z</time></trkpt><trkpt lon="5.717818" lat="51.074364"><ele>45</ele><time>2022-05-15T09:11:27.000Z</time></trkpt><trkpt lon="5.717746" lat="51.074414"><ele>45</ele><time>2022-05-15T09:11:28.000Z</time></trkpt><trkpt lon="5.717677" lat="51.074466"><ele>44.8</ele><time>2022-05-15T09:11:29.000Z</time></trkpt><trkpt lon="5.717604" lat="51.07452"><ele>44.8</ele><time>2022-05-15T09:11:30.000Z</time></trkpt><trkpt lon="5.71753" lat="51.074574"><ele>44.8</ele><time>2022-05-15T09:11:31.000Z</time></trkpt><trkpt lon="5.717457" lat="51.074623"><ele>44.6</ele><time>2022-05-15T09:11:32.000Z</time></trkpt><trkpt lon="5.717384" lat="51.074676"><ele>44.4</ele><time>2022-05-15T09:11:33.000Z</time></trkpt><trkpt lon="5.717311" lat="51.074726"><ele>44.4</ele><time>2022-05-15T09:11:34.000Z</time></trkpt><trkpt lon="5.717237" lat="51.074778"><ele>44.4</ele><time>2022-05-15T09:11:35.000Z</time></trkpt><trkpt lon="5.717163" lat="51.074825"><ele>44.6</ele><time>2022-05-15T09:11:36.000Z</time></trkpt><trkpt lon="5.717089" lat="51.074871"><ele>44.6</ele><time>2022-05-15T09:11:37.000Z</time></trkpt><trkpt lon="5.717014" lat="51.074924"><ele>44.6</ele><time>2022-05-15T09:11:38.000Z</time></trkpt><trkpt lon="5.71694" lat="51.074973"><ele>44.4</ele><time>2022-05-15T09:11:39.000Z</time></trkpt><trkpt lon="5.716858" lat="51.075023"><ele>44.4</ele><time>2022-05-15T09:11:40.000Z</time></trkpt><trkpt lon="5.716777" lat="51.075069"><ele>44.4</ele><time>2022-05-15T09:11:41.000Z</time></trkpt><trkpt lon="5.716692" lat="51.075119"><ele>44.2</ele><time>2022-05-15T09:11:42.000Z</time></trkpt><trkpt lon="5.716606" lat="51.075165"><ele>44.2</ele><time>2022-05-15T09:11:43.000Z</time></trkpt><trkpt lon="5.716519" lat="51.075211"><ele>44.2</ele><time>2022-05-15T09:11:44.000Z</time></trkpt><trkpt lon="5.716435" lat="51.075256"><ele>44.2</ele><time>2022-05-15T09:11:45.000Z</time></trkpt><trkpt lon="5.716346" lat="51.075306"><ele>44.2</ele><time>2022-05-15T09:11:46.000Z</time></trkpt><trkpt lon="5.716261" lat="51.075349"><ele>44.2</ele><time>2022-05-15T09:11:47.000Z</time></trkpt><trkpt lon="5.71619" lat="51.075385"><ele>44.4</ele><time>2022-05-15T09:11:48.000Z</time></trkpt><trkpt lon="5.716094" lat="51.075432"><ele>44.4</ele><time>2022-05-15T09:11:49.000Z</time></trkpt><trkpt lon="5.716008" lat="51.075474"><ele>44.6</ele><time>2022-05-15T09:11:50.000Z</time></trkpt><trkpt lon="5.715918" lat="51.07552"><ele>44.4</ele><time>2022-05-15T09:11:51.000Z</time></trkpt><trkpt lon="5.715826" lat="51.075558"><ele>44.4</ele><time>2022-05-15T09:11:52.000Z</time></trkpt><trkpt lon="5.715728" lat="51.0756"><ele>44.6</ele><time>2022-05-15T09:11:53.000Z</time></trkpt><trkpt lon="5.715633" lat="51.075638"><ele>44.6</ele><time>2022-05-15T09:11:54.000Z</time></trkpt><trkpt lon="5.71554" lat="51.075679"><ele>44.6</ele><time>2022-05-15T09:11:55.000Z</time></trkpt><trkpt lon="5.715443" lat="51.075728"><ele>44.4</ele><time>2022-05-15T09:11:56.000Z</time></trkpt><trkpt lon="5.715351" lat="51.075774"><ele>44.4</ele><time>2022-05-15T09:11:57.000Z</time></trkpt><trkpt lon="5.715268" lat="51.075813"><ele>44.2</ele><time>2022-05-15T09:11:58.000Z</time></trkpt><trkpt lon="5.715175" lat="51.075861"><ele>44.2</ele><time>2022-05-15T09:11:59.000Z</time></trkpt><trkpt lon="5.715085" lat="51.075903"><ele>44.2</ele><time>2022-05-15T09:12:00.000Z</time></trkpt><trkpt lon="5.714995" lat="51.075949"><ele>44.2</ele><time>2022-05-15T09:12:01.000Z</time></trkpt><trkpt lon="5.714905" lat="51.075991"><ele>44.2</ele><time>2022-05-15T09:12:02.000Z</time></trkpt><trkpt lon="5.714823" lat="51.076034"><ele>44.2</ele><time>2022-05-15T09:12:03.000Z</time></trkpt><trkpt lon="5.714728" lat="51.076075"><ele>44.2</ele><time>2022-05-15T09:12:04.000Z</time></trkpt><trkpt lon="5.71464" lat="51.076121"><ele>44.4</ele><time>2022-05-15T09:12:05.000Z</time></trkpt><trkpt lon="5.71455" lat="51.076166"><ele>44.4</ele><time>2022-05-15T09:12:06.000Z</time></trkpt><trkpt lon="5.714467" lat="51.076207"><ele>44.4</ele><time>2022-05-15T09:12:07.000Z</time></trkpt><trkpt lon="5.714376" lat="51.07625"><ele>44.4</ele><time>2022-05-15T09:12:08.000Z</time></trkpt><trkpt lon="5.714288" lat="51.076296"><ele>44.4</ele><time>2022-05-15T09:12:09.000Z</time></trkpt><trkpt lon="5.714201" lat="51.076338"><ele>44.4</ele><time>2022-05-15T09:12:10.000Z</time></trkpt><trkpt lon="5.714115" lat="51.07638"><ele>44.6</ele><time>2022-05-15T09:12:11.000Z</time></trkpt><trkpt lon="5.714026" lat="51.076425"><ele>44.6</ele><time>2022-05-15T09:12:12.000Z</time></trkpt><trkpt lon="5.713937" lat="51.076468"><ele>44.8</ele><time>2022-05-15T09:12:13.000Z</time></trkpt><trkpt lon="5.713847" lat="51.076513"><ele>44.8</ele><time>2022-05-15T09:12:14.000Z</time></trkpt><trkpt lon="5.713758" lat="51.076556"><ele>44.8</ele><time>2022-05-15T09:12:15.000Z</time></trkpt><trkpt lon="5.713669" lat="51.076601"><ele>44.8</ele><time>2022-05-15T09:12:16.000Z</time></trkpt><trkpt lon="5.713578" lat="51.076643"><ele>44.8</ele><time>2022-05-15T09:12:17.000Z</time></trkpt><trkpt lon="5.7135" lat="51.076683"><ele>44.8</ele><time>2022-05-15T09:12:18.000Z</time></trkpt><trkpt lon="5.713397" lat="51.076735"><ele>44.8</ele><time>2022-05-15T09:12:19.000Z</time></trkpt><trkpt lon="5.713306" lat="51.076777"><ele>44.8</ele><time>2022-05-15T09:12:20.000Z</time></trkpt><trkpt lon="5.713214" lat="51.076823"><ele>44.8</ele><time>2022-05-15T09:12:21.000Z</time></trkpt><trkpt lon="5.713123" lat="51.076868"><ele>45</ele><time>2022-05-15T09:12:22.000Z</time></trkpt><trkpt lon="5.713033" lat="51.076914"><ele>45</ele><time>2022-05-15T09:12:23.000Z</time></trkpt><trkpt lon="5.71294" lat="51.07696"><ele>45</ele><time>2022-05-15T09:12:24.000Z</time></trkpt><trkpt lon="5.712847" lat="51.077006"><ele>45</ele><time>2022-05-15T09:12:25.000Z</time></trkpt><trkpt lon="5.712755" lat="51.077051"><ele>45.2</ele><time>2022-05-15T09:12:26.000Z</time></trkpt><trkpt lon="5.712665" lat="51.077094"><ele>45.2</ele><time>2022-05-15T09:12:27.000Z</time></trkpt><trkpt lon="5.712579" lat="51.077139"><ele>45.2</ele><time>2022-05-15T09:12:28.000Z</time></trkpt><trkpt lon="5.712491" lat="51.077181"><ele>45.4</ele><time>2022-05-15T09:12:29.000Z</time></trkpt><trkpt lon="5.712405" lat="51.077223"><ele>45.8</ele><time>2022-05-15T09:12:30.000Z</time></trkpt><trkpt lon="5.71232" lat="51.077264"><ele>45.8</ele><time>2022-05-15T09:12:31.000Z</time></trkpt><trkpt lon="5.712233" lat="51.077307"><ele>45.8</ele><time>2022-05-15T09:12:32.000Z</time></trkpt><trkpt lon="5.712146" lat="51.077353"><ele>45.8</ele><time>2022-05-15T09:12:33.000Z</time></trkpt><trkpt lon="5.71206" lat="51.077398"><ele>45.8</ele><time>2022-05-15T09:12:34.000Z</time></trkpt><trkpt lon="5.711968" lat="51.077441"><ele>45.8</ele><time>2022-05-15T09:12:35.000Z</time></trkpt><trkpt lon="5.711877" lat="51.077486"><ele>46</ele><time>2022-05-15T09:12:36.000Z</time></trkpt><trkpt lon="5.711785" lat="51.077536"><ele>46</ele><time>2022-05-15T09:12:37.000Z</time></trkpt><trkpt lon="5.711693" lat="51.077582"><ele>46</ele><time>2022-05-15T09:12:38.000Z</time></trkpt><trkpt lon="5.711602" lat="51.077627"><ele>46</ele><time>2022-05-15T09:12:39.000Z</time></trkpt><trkpt lon="5.711511" lat="51.077673"><ele>46</ele><time>2022-05-15T09:12:40.000Z</time></trkpt><trkpt lon="5.71142" lat="51.077719"><ele>46</ele><time>2022-05-15T09:12:41.000Z</time></trkpt><trkpt lon="5.711329" lat="51.077765"><ele>46.2</ele><time>2022-05-15T09:12:42.000Z</time></trkpt><trkpt lon="5.711246" lat="51.077806"><ele>46</ele><time>2022-05-15T09:12:43.000Z</time></trkpt><trkpt lon="5.711159" lat="51.077848"><ele>46</ele><time>2022-05-15T09:12:44.000Z</time></trkpt><trkpt lon="5.711071" lat="51.077887"><ele>46</ele><time>2022-05-15T09:12:45.000Z</time></trkpt><trkpt lon="5.710983" lat="51.077925"><ele>46.2</ele><time>2022-05-15T09:12:46.000Z</time></trkpt><trkpt lon="5.710895" lat="51.077963"><ele>46.2</ele><time>2022-05-15T09:12:47.000Z</time></trkpt><trkpt lon="5.710823" lat="51.077993"><ele>46.2</ele><time>2022-05-15T09:12:48.000Z</time></trkpt><trkpt lon="5.710738" lat="51.078032"><ele>46.4</ele><time>2022-05-15T09:12:49.000Z</time></trkpt><trkpt lon="5.710675" lat="51.07807"><ele>46.4</ele><time>2022-05-15T09:12:50.000Z</time></trkpt><trkpt lon="5.710644" lat="51.078124"><ele>46.2</ele><time>2022-05-15T09:12:51.000Z</time></trkpt><trkpt lon="5.710645" lat="51.078179"><ele>46</ele><time>2022-05-15T09:12:52.000Z</time></trkpt><trkpt lon="5.710664" lat="51.078237"><ele>45.8</ele><time>2022-05-15T09:12:53.000Z</time></trkpt><trkpt lon="5.710677" lat="51.078297"><ele>45.6</ele><time>2022-05-15T09:12:54.000Z</time></trkpt><trkpt lon="5.710677" lat="51.078359"><ele>45.6</ele><time>2022-05-15T09:12:55.000Z</time></trkpt><trkpt lon="5.710669" lat="51.078419"><ele>45.4</ele><time>2022-05-15T09:12:56.000Z</time></trkpt><trkpt lon="5.71066" lat="51.078485"><ele>45.4</ele><time>2022-05-15T09:12:57.000Z</time></trkpt><trkpt lon="5.710649" lat="51.07855"><ele>45.4</ele><time>2022-05-15T09:12:58.000Z</time></trkpt><trkpt lon="5.710636" lat="51.078616"><ele>45.4</ele><time>2022-05-15T09:12:59.000Z</time></trkpt><trkpt lon="5.710621" lat="51.07869"><ele>45.2</ele><time>2022-05-15T09:13:00.000Z</time></trkpt><trkpt lon="5.710607" lat="51.078758"><ele>45.4</ele><time>2022-05-15T09:13:01.000Z</time></trkpt><trkpt lon="5.710594" lat="51.078832"><ele>45.4</ele><time>2022-05-15T09:13:02.000Z</time></trkpt><trkpt lon="5.710577" lat="51.078901"><ele>45.6</ele><time>2022-05-15T09:13:03.000Z</time></trkpt><trkpt lon="5.710562" lat="51.078973"><ele>45.4</ele><time>2022-05-15T09:13:04.000Z</time></trkpt><trkpt lon="5.710547" lat="51.079042"><ele>45.4</ele><time>2022-05-15T09:13:05.000Z</time></trkpt><trkpt lon="5.710534" lat="51.079114"><ele>45.6</ele><time>2022-05-15T09:13:06.000Z</time></trkpt><trkpt lon="5.710519" lat="51.079186"><ele>45.6</ele><time>2022-05-15T09:13:07.000Z</time></trkpt><trkpt lon="5.710504" lat="51.079259"><ele>45.6</ele><time>2022-05-15T09:13:08.000Z</time></trkpt><trkpt lon="5.710487" lat="51.079328"><ele>45.6</ele><time>2022-05-15T09:13:09.000Z</time></trkpt><trkpt lon="5.710474" lat="51.0794"><ele>45.6</ele><time>2022-05-15T09:13:10.000Z</time></trkpt><trkpt lon="5.710461" lat="51.079472"><ele>45.4</ele><time>2022-05-15T09:13:11.000Z</time></trkpt><trkpt lon="5.710448" lat="51.079541"><ele>45.2</ele><time>2022-05-15T09:13:12.000Z</time></trkpt><trkpt lon="5.710431" lat="51.079618"><ele>45.2</ele><time>2022-05-15T09:13:13.000Z</time></trkpt><trkpt lon="5.710415" lat="51.07969"><ele>45.2</ele><time>2022-05-15T09:13:14.000Z</time></trkpt><trkpt lon="5.710399" lat="51.079759"><ele>45</ele><time>2022-05-15T09:13:15.000Z</time></trkpt><trkpt lon="5.710382" lat="51.079831"><ele>44.8</ele><time>2022-05-15T09:13:16.000Z</time></trkpt><trkpt lon="5.710367" lat="51.079904"><ele>44.8</ele><time>2022-05-15T09:13:17.000Z</time></trkpt><trkpt lon="5.710353" lat="51.079968"><ele>44.6</ele><time>2022-05-15T09:13:18.000Z</time></trkpt><trkpt lon="5.710337" lat="51.080045"><ele>44.6</ele><time>2022-05-15T09:13:19.000Z</time></trkpt><trkpt lon="5.710324" lat="51.080115"><ele>44.4</ele><time>2022-05-15T09:13:20.000Z</time></trkpt><trkpt lon="5.710309" lat="51.080186"><ele>44.4</ele><time>2022-05-15T09:13:21.000Z</time></trkpt><trkpt lon="5.710297" lat="51.080254"><ele>44.2</ele><time>2022-05-15T09:13:22.000Z</time></trkpt><trkpt lon="5.710284" lat="51.080327"><ele>44.2</ele><time>2022-05-15T09:13:23.000Z</time></trkpt><trkpt lon="5.710269" lat="51.080395"><ele>44.2</ele><time>2022-05-15T09:13:24.000Z</time></trkpt><trkpt lon="5.710256" lat="51.080469"><ele>44.4</ele><time>2022-05-15T09:13:25.000Z</time></trkpt><trkpt lon="5.710239" lat="51.080541"><ele>44.4</ele><time>2022-05-15T09:13:26.000Z</time></trkpt><trkpt lon="5.710226" lat="51.080614"><ele>44.4</ele><time>2022-05-15T09:13:27.000Z</time></trkpt><trkpt lon="5.710209" lat="51.080686"><ele>44.6</ele><time>2022-05-15T09:13:28.000Z</time></trkpt><trkpt lon="5.710194" lat="51.080755"><ele>44.6</ele><time>2022-05-15T09:13:29.000Z</time></trkpt><trkpt lon="5.710177" lat="51.080826"><ele>44.4</ele><time>2022-05-15T09:13:30.000Z</time></trkpt><trkpt lon="5.710165" lat="51.080896"><ele>44.4</ele><time>2022-05-15T09:13:31.000Z</time></trkpt><trkpt lon="5.71015" lat="51.080967"><ele>44.4</ele><time>2022-05-15T09:13:32.000Z</time></trkpt><trkpt lon="5.710135" lat="51.081041"><ele>44.4</ele><time>2022-05-15T09:13:33.000Z</time></trkpt><trkpt lon="5.710121" lat="51.081109"><ele>44.6</ele><time>2022-05-15T09:13:34.000Z</time></trkpt><trkpt lon="5.710105" lat="51.081182"><ele>44.8</ele><time>2022-05-15T09:13:35.000Z</time></trkpt><trkpt lon="5.710089" lat="51.081251"><ele>44.8</ele><time>2022-05-15T09:13:36.000Z</time></trkpt><trkpt lon="5.710072" lat="51.081319"><ele>44.8</ele><time>2022-05-15T09:13:37.000Z</time></trkpt><trkpt lon="5.710059" lat="51.081388"><ele>44.6</ele><time>2022-05-15T09:13:38.000Z</time></trkpt><trkpt lon="5.710049" lat="51.081456"><ele>44.4</ele><time>2022-05-15T09:13:39.000Z</time></trkpt><trkpt lon="5.710035" lat="51.081525"><ele>44.4</ele><time>2022-05-15T09:13:40.000Z</time></trkpt><trkpt lon="5.710021" lat="51.081595"><ele>44.8</ele><time>2022-05-15T09:13:41.000Z</time></trkpt><trkpt lon="5.710002" lat="51.08167"><ele>45</ele><time>2022-05-15T09:13:42.000Z</time></trkpt><trkpt lon="5.709985" lat="51.081743"><ele>45.2</ele><time>2022-05-15T09:13:43.000Z</time></trkpt><trkpt lon="5.709969" lat="51.081819"><ele>45.2</ele><time>2022-05-15T09:13:44.000Z</time></trkpt><trkpt lon="5.709956" lat="51.081892"><ele>45.2</ele><time>2022-05-15T09:13:45.000Z</time></trkpt><trkpt lon="5.709942" lat="51.081968"><ele>45</ele><time>2022-05-15T09:13:46.000Z</time></trkpt><trkpt lon="5.709926" lat="51.082037"><ele>44.8</ele><time>2022-05-15T09:13:47.000Z</time></trkpt><trkpt lon="5.709912" lat="51.082093"><ele>44.8</ele><time>2022-05-15T09:13:48.000Z</time></trkpt><trkpt lon="5.709894" lat="51.082167"><ele>45</ele><time>2022-05-15T09:13:49.000Z</time></trkpt><trkpt lon="5.709873" lat="51.082253"><ele>45.2</ele><time>2022-05-15T09:13:50.000Z</time></trkpt><trkpt lon="5.709856" lat="51.082326"><ele>45</ele><time>2022-05-15T09:13:51.000Z</time></trkpt><trkpt lon="5.70984" lat="51.082402"><ele>44.6</ele><time>2022-05-15T09:13:52.000Z</time></trkpt><trkpt lon="5.709827" lat="51.082473"><ele>44.6</ele><time>2022-05-15T09:13:53.000Z</time></trkpt><trkpt lon="5.709814" lat="51.082547"><ele>44.6</ele><time>2022-05-15T09:13:54.000Z</time></trkpt><trkpt lon="5.709802" lat="51.08262"><ele>44.6</ele><time>2022-05-15T09:13:55.000Z</time></trkpt><trkpt lon="5.709786" lat="51.082689"><ele>44.6</ele><time>2022-05-15T09:13:56.000Z</time></trkpt><trkpt lon="5.709771" lat="51.082757"><ele>44.6</ele><time>2022-05-15T09:13:57.000Z</time></trkpt><trkpt lon="5.709757" lat="51.082826"><ele>44.8</ele><time>2022-05-15T09:13:58.000Z</time></trkpt><trkpt lon="5.709741" lat="51.082892"><ele>44.8</ele><time>2022-05-15T09:13:59.000Z</time></trkpt><trkpt lon="5.709722" lat="51.082959"><ele>45</ele><time>2022-05-15T09:14:00.000Z</time></trkpt><trkpt lon="5.709706" lat="51.083024"><ele>45</ele><time>2022-05-15T09:14:01.000Z</time></trkpt><trkpt lon="5.709694" lat="51.083089"><ele>45.2</ele><time>2022-05-15T09:14:02.000Z</time></trkpt><trkpt lon="5.709685" lat="51.083152"><ele>45.4</ele><time>2022-05-15T09:14:03.000Z</time></trkpt><trkpt lon="5.709674" lat="51.083215"><ele>45.4</ele><time>2022-05-15T09:14:04.000Z</time></trkpt><trkpt lon="5.709664" lat="51.083269"><ele>45.6</ele><time>2022-05-15T09:14:05.000Z</time></trkpt><trkpt lon="5.709654" lat="51.083319"><ele>45.8</ele><time>2022-05-15T09:14:06.000Z</time></trkpt><trkpt lon="5.709647" lat="51.083361"><ele>45.8</ele><time>2022-05-15T09:14:07.000Z</time></trkpt><trkpt lon="5.709644" lat="51.083403"><ele>45.8</ele><time>2022-05-15T09:14:08.000Z</time></trkpt><trkpt lon="5.709643" lat="51.083444"><ele>45.6</ele><time>2022-05-15T09:14:09.000Z</time></trkpt><trkpt lon="5.709643" lat="51.083498"><ele>45.4</ele><time>2022-05-15T09:14:10.000Z</time></trkpt><trkpt lon="5.70964" lat="51.083551"><ele>45.4</ele><time>2022-05-15T09:14:11.000Z</time></trkpt><trkpt lon="5.709632" lat="51.083608"><ele>45.6</ele><time>2022-05-15T09:14:12.000Z</time></trkpt><trkpt lon="5.709619" lat="51.083677"><ele>45.6</ele><time>2022-05-15T09:14:13.000Z</time></trkpt><trkpt lon="5.709602" lat="51.083742"><ele>45.8</ele><time>2022-05-15T09:14:14.000Z</time></trkpt><trkpt lon="5.709584" lat="51.08381"><ele>45.8</ele><time>2022-05-15T09:14:15.000Z</time></trkpt><trkpt lon="5.709564" lat="51.083875"><ele>45.6</ele><time>2022-05-15T09:14:16.000Z</time></trkpt><trkpt lon="5.709544" lat="51.083944"><ele>45.4</ele><time>2022-05-15T09:14:17.000Z</time></trkpt><trkpt lon="5.70953" lat="51.083997"><ele>45.2</ele><time>2022-05-15T09:14:18.000Z</time></trkpt><trkpt lon="5.709509" lat="51.08408"><ele>45.4</ele><time>2022-05-15T09:14:19.000Z</time></trkpt><trkpt lon="5.70949" lat="51.08415"><ele>45.4</ele><time>2022-05-15T09:14:20.000Z</time></trkpt><trkpt lon="5.70947" lat="51.084215"><ele>45.6</ele><time>2022-05-15T09:14:21.000Z</time></trkpt><trkpt lon="5.709452" lat="51.084288"><ele>45.4</ele><time>2022-05-15T09:14:22.000Z</time></trkpt><trkpt lon="5.709438" lat="51.084355"><ele>45.4</ele><time>2022-05-15T09:14:23.000Z</time></trkpt><trkpt lon="5.709425" lat="51.084424"><ele>45.4</ele><time>2022-05-15T09:14:24.000Z</time></trkpt><trkpt lon="5.70942" lat="51.084497"><ele>45.2</ele><time>2022-05-15T09:14:25.000Z</time></trkpt><trkpt lon="5.709417" lat="51.084569"><ele>45</ele><time>2022-05-15T09:14:26.000Z</time></trkpt><trkpt lon="5.709415" lat="51.084637"><ele>44.8</ele><time>2022-05-15T09:14:27.000Z</time></trkpt><trkpt lon="5.709414" lat="51.084707"><ele>44.8</ele><time>2022-05-15T09:14:28.000Z</time></trkpt><trkpt lon="5.709412" lat="51.084774"><ele>44.8</ele><time>2022-05-15T09:14:29.000Z</time></trkpt><trkpt lon="5.709413" lat="51.08484"><ele>44.6</ele><time>2022-05-15T09:14:30.000Z</time></trkpt><trkpt lon="5.709412" lat="51.084905"><ele>44.6</ele><time>2022-05-15T09:14:31.000Z</time></trkpt><trkpt lon="5.709412" lat="51.084966"><ele>44.8</ele><time>2022-05-15T09:14:32.000Z</time></trkpt><trkpt lon="5.70941" lat="51.08502"><ele>44.8</ele><time>2022-05-15T09:14:33.000Z</time></trkpt><trkpt lon="5.709408" lat="51.08507"><ele>45</ele><time>2022-05-15T09:14:34.000Z</time></trkpt><trkpt lon="5.709407" lat="51.085112"><ele>45</ele><time>2022-05-15T09:14:35.000Z</time></trkpt><trkpt lon="5.709405" lat="51.085157"><ele>45</ele><time>2022-05-15T09:14:36.000Z</time></trkpt><trkpt lon="5.709405" lat="51.08521"><ele>45</ele><time>2022-05-15T09:14:37.000Z</time></trkpt><trkpt lon="5.709407" lat="51.08527"><ele>45</ele><time>2022-05-15T09:14:38.000Z</time></trkpt><trkpt lon="5.709407" lat="51.085333"><ele>45</ele><time>2022-05-15T09:14:39.000Z</time></trkpt><trkpt lon="5.709404" lat="51.085397"><ele>44.8</ele><time>2022-05-15T09:14:40.000Z</time></trkpt><trkpt lon="5.709397" lat="51.085466"><ele>44.8</ele><time>2022-05-15T09:14:41.000Z</time></trkpt><trkpt lon="5.709392" lat="51.085531"><ele>44.8</ele><time>2022-05-15T09:14:42.000Z</time></trkpt><trkpt lon="5.709385" lat="51.0856"><ele>44.8</ele><time>2022-05-15T09:14:43.000Z</time></trkpt><trkpt lon="5.709378" lat="51.085664"><ele>45</ele><time>2022-05-15T09:14:44.000Z</time></trkpt><trkpt lon="5.709372" lat="51.085729"><ele>45.2</ele><time>2022-05-15T09:14:45.000Z</time></trkpt><trkpt lon="5.709367" lat="51.085794"><ele>45.4</ele><time>2022-05-15T09:14:46.000Z</time></trkpt><trkpt lon="5.709362" lat="51.085855"><ele>45.4</ele><time>2022-05-15T09:14:47.000Z</time></trkpt><trkpt lon="5.709352" lat="51.08592"><ele>45.6</ele><time>2022-05-15T09:14:48.000Z</time></trkpt><trkpt lon="5.709335" lat="51.085985"><ele>45.6</ele><time>2022-05-15T09:14:49.000Z</time></trkpt><trkpt lon="5.709312" lat="51.08605"><ele>45.6</ele><time>2022-05-15T09:14:50.000Z</time></trkpt><trkpt lon="5.709284" lat="51.086115"><ele>45.6</ele><time>2022-05-15T09:14:51.000Z</time></trkpt><trkpt lon="5.709248" lat="51.086179"><ele>45.6</ele><time>2022-05-15T09:14:52.000Z</time></trkpt><trkpt lon="5.709209" lat="51.086247"><ele>45.6</ele><time>2022-05-15T09:14:53.000Z</time></trkpt><trkpt lon="5.709167" lat="51.086313"><ele>45.6</ele><time>2022-05-15T09:14:54.000Z</time></trkpt><trkpt lon="5.709124" lat="51.086377"><ele>45.8</ele><time>2022-05-15T09:14:55.000Z</time></trkpt><trkpt lon="5.709079" lat="51.086438"><ele>45.8</ele><time>2022-05-15T09:14:56.000Z</time></trkpt><trkpt lon="5.709032" lat="51.086496"><ele>45.8</ele><time>2022-05-15T09:14:57.000Z</time></trkpt><trkpt lon="5.708983" lat="51.086554"><ele>45.8</ele><time>2022-05-15T09:14:58.000Z</time></trkpt><trkpt lon="5.708937" lat="51.086607"><ele>45.8</ele><time>2022-05-15T09:14:59.000Z</time></trkpt><trkpt lon="5.708893" lat="51.086659"><ele>45.8</ele><time>2022-05-15T09:15:00.000Z</time></trkpt><trkpt lon="5.708847" lat="51.086717"><ele>45.8</ele><time>2022-05-15T09:15:01.000Z</time></trkpt><trkpt lon="5.708799" lat="51.086774"><ele>45.6</ele><time>2022-05-15T09:15:02.000Z</time></trkpt><trkpt lon="5.708745" lat="51.086835"><ele>45.6</ele><time>2022-05-15T09:15:03.000Z</time></trkpt><trkpt lon="5.708696" lat="51.086894"><ele>45.6</ele><time>2022-05-15T09:15:04.000Z</time></trkpt><trkpt lon="5.708641" lat="51.086956"><ele>45.6</ele><time>2022-05-15T09:15:05.000Z</time></trkpt><trkpt lon="5.708587" lat="51.087021"><ele>45.6</ele><time>2022-05-15T09:15:06.000Z</time></trkpt><trkpt lon="5.708533" lat="51.087086"><ele>45.8</ele><time>2022-05-15T09:15:07.000Z</time></trkpt><trkpt lon="5.708477" lat="51.087152"><ele>45.8</ele><time>2022-05-15T09:15:08.000Z</time></trkpt><trkpt lon="5.708424" lat="51.087212"><ele>45.8</ele><time>2022-05-15T09:15:09.000Z</time></trkpt><trkpt lon="5.708369" lat="51.087274"><ele>45.8</ele><time>2022-05-15T09:15:10.000Z</time></trkpt><trkpt lon="5.708314" lat="51.087339"><ele>45.8</ele><time>2022-05-15T09:15:11.000Z</time></trkpt><trkpt lon="5.70826" lat="51.087396"><ele>46</ele><time>2022-05-15T09:15:12.000Z</time></trkpt><trkpt lon="5.708205" lat="51.087457"><ele>46</ele><time>2022-05-15T09:15:13.000Z</time></trkpt><trkpt lon="5.708152" lat="51.087522"><ele>45.8</ele><time>2022-05-15T09:15:14.000Z</time></trkpt><trkpt lon="5.7081" lat="51.087583"><ele>46</ele><time>2022-05-15T09:15:15.000Z</time></trkpt><trkpt lon="5.708051" lat="51.087643"><ele>46</ele><time>2022-05-15T09:15:16.000Z</time></trkpt><trkpt lon="5.708002" lat="51.087712"><ele>46</ele><time>2022-05-15T09:15:17.000Z</time></trkpt><trkpt lon="5.707959" lat="51.087774"><ele>46</ele><time>2022-05-15T09:15:18.000Z</time></trkpt><trkpt lon="5.707921" lat="51.087839"><ele>45.8</ele><time>2022-05-15T09:15:19.000Z</time></trkpt><trkpt lon="5.707892" lat="51.087907"><ele>45.8</ele><time>2022-05-15T09:15:20.000Z</time></trkpt><trkpt lon="5.707871" lat="51.087976"><ele>45.4</ele><time>2022-05-15T09:15:21.000Z</time></trkpt><trkpt lon="5.707854" lat="51.088041"><ele>45.4</ele><time>2022-05-15T09:15:22.000Z</time></trkpt><trkpt lon="5.707842" lat="51.088108"><ele>45.4</ele><time>2022-05-15T09:15:23.000Z</time></trkpt><trkpt lon="5.707837" lat="51.088174"><ele>45.6</ele><time>2022-05-15T09:15:24.000Z</time></trkpt><trkpt lon="5.707833" lat="51.088239"><ele>45.8</ele><time>2022-05-15T09:15:25.000Z</time></trkpt><trkpt lon="5.70783" lat="51.088304"><ele>45.8</ele><time>2022-05-15T09:15:26.000Z</time></trkpt><trkpt lon="5.707825" lat="51.088362"><ele>45.6</ele><time>2022-05-15T09:15:27.000Z</time></trkpt><trkpt lon="5.70782" lat="51.088418"><ele>45.6</ele><time>2022-05-15T09:15:28.000Z</time></trkpt><trkpt lon="5.707817" lat="51.088475"><ele>45.8</ele><time>2022-05-15T09:15:29.000Z</time></trkpt><trkpt lon="5.707818" lat="51.088529"><ele>45.8</ele><time>2022-05-15T09:15:30.000Z</time></trkpt><trkpt lon="5.707823" lat="51.088585"><ele>46</ele><time>2022-05-15T09:15:31.000Z</time></trkpt><trkpt lon="5.707828" lat="51.08864"><ele>46</ele><time>2022-05-15T09:15:32.000Z</time></trkpt><trkpt lon="5.707833" lat="51.088689"><ele>46</ele><time>2022-05-15T09:15:33.000Z</time></trkpt><trkpt lon="5.707838" lat="51.088732"><ele>46</ele><time>2022-05-15T09:15:34.000Z</time></trkpt><trkpt lon="5.707845" lat="51.088767"><ele>46.2</ele><time>2022-05-15T09:15:35.000Z</time></trkpt><trkpt lon="5.707853" lat="51.088797"><ele>46.2</ele><time>2022-05-15T09:15:36.000Z</time></trkpt><trkpt lon="5.707857" lat="51.088832"><ele>46.2</ele><time>2022-05-15T09:15:37.000Z</time></trkpt><trkpt lon="5.707829" lat="51.08887"><ele>46.2</ele><time>2022-05-15T09:15:38.000Z</time></trkpt><trkpt lon="5.70778" lat="51.0889"><ele>46.2</ele><time>2022-05-15T09:15:39.000Z</time></trkpt><trkpt lon="5.70771" lat="51.088923"><ele>46.2</ele><time>2022-05-15T09:15:40.000Z</time></trkpt><trkpt lon="5.707626" lat="51.088946"><ele>46.2</ele><time>2022-05-15T09:15:41.000Z</time></trkpt><trkpt lon="5.707534" lat="51.088973"><ele>46.2</ele><time>2022-05-15T09:15:42.000Z</time></trkpt><trkpt lon="5.70744" lat="51.089003"><ele>46.2</ele><time>2022-05-15T09:15:43.000Z</time></trkpt><trkpt lon="5.707352" lat="51.089034"><ele>46.4</ele><time>2022-05-15T09:15:44.000Z</time></trkpt><trkpt lon="5.707273" lat="51.089061"><ele>46.4</ele><time>2022-05-15T09:15:45.000Z</time></trkpt><trkpt lon="5.707209" lat="51.089106"><ele>46.2</ele><time>2022-05-15T09:15:46.000Z</time></trkpt><trkpt lon="5.707173" lat="51.089163"><ele>46</ele><time>2022-05-15T09:15:47.000Z</time></trkpt><trkpt lon="5.707168" lat="51.089219"><ele>45.8</ele><time>2022-05-15T09:15:48.000Z</time></trkpt><trkpt lon="5.707181" lat="51.089281"><ele>45.4</ele><time>2022-05-15T09:15:49.000Z</time></trkpt><trkpt lon="5.707198" lat="51.089342"><ele>45.2</ele><time>2022-05-15T09:15:50.000Z</time></trkpt><trkpt lon="5.70721" lat="51.089403"><ele>45.2</ele><time>2022-05-15T09:15:51.000Z</time></trkpt><trkpt lon="5.70722" lat="51.089466"><ele>45.2</ele><time>2022-05-15T09:15:52.000Z</time></trkpt><trkpt lon="5.70723" lat="51.089532"><ele>45</ele><time>2022-05-15T09:15:53.000Z</time></trkpt><trkpt lon="5.70724" lat="51.089604"><ele>45.2</ele><time>2022-05-15T09:15:54.000Z</time></trkpt><trkpt lon="5.707253" lat="51.089672"><ele>45.2</ele><time>2022-05-15T09:15:55.000Z</time></trkpt><trkpt lon="5.707264" lat="51.089738"><ele>45.2</ele><time>2022-05-15T09:15:56.000Z</time></trkpt><trkpt lon="5.707273" lat="51.089807"><ele>45.2</ele><time>2022-05-15T09:15:57.000Z</time></trkpt><trkpt lon="5.707281" lat="51.089872"><ele>45.2</ele><time>2022-05-15T09:15:58.000Z</time></trkpt><trkpt lon="5.707285" lat="51.089937"><ele>45.4</ele><time>2022-05-15T09:15:59.000Z</time></trkpt><trkpt lon="5.707282" lat="51.090002"><ele>45.4</ele><time>2022-05-15T09:16:00.000Z</time></trkpt><trkpt lon="5.707288" lat="51.090062"><ele>45.2</ele><time>2022-05-15T09:16:01.000Z</time></trkpt><trkpt lon="5.707317" lat="51.09012"><ele>45</ele><time>2022-05-15T09:16:02.000Z</time></trkpt><trkpt lon="5.70738" lat="51.090159"><ele>44.8</ele><time>2022-05-15T09:16:03.000Z</time></trkpt><trkpt lon="5.707469" lat="51.090175"><ele>44.8</ele><time>2022-05-15T09:16:04.000Z</time></trkpt><trkpt lon="5.707574" lat="51.090179"><ele>45</ele><time>2022-05-15T09:16:05.000Z</time></trkpt><trkpt lon="5.707683" lat="51.090183"><ele>45</ele><time>2022-05-15T09:16:06.000Z</time></trkpt><trkpt lon="5.707798" lat="51.090187"><ele>45</ele><time>2022-05-15T09:16:07.000Z</time></trkpt><trkpt lon="5.707913" lat="51.090191"><ele>45</ele><time>2022-05-15T09:16:08.000Z</time></trkpt><trkpt lon="5.708026" lat="51.090195"><ele>44.8</ele><time>2022-05-15T09:16:09.000Z</time></trkpt><trkpt lon="5.708141" lat="51.090202"><ele>44.8</ele><time>2022-05-15T09:16:10.000Z</time></trkpt><trkpt lon="5.708248" lat="51.09021"><ele>44.8</ele><time>2022-05-15T09:16:11.000Z</time></trkpt><trkpt lon="5.708354" lat="51.090214"><ele>44.6</ele><time>2022-05-15T09:16:12.000Z</time></trkpt><trkpt lon="5.708462" lat="51.090221"><ele>44.6</ele><time>2022-05-15T09:16:13.000Z</time></trkpt><trkpt lon="5.70857" lat="51.090232"><ele>44.6</ele><time>2022-05-15T09:16:14.000Z</time></trkpt><trkpt lon="5.708677" lat="51.090247"><ele>44.4</ele><time>2022-05-15T09:16:15.000Z</time></trkpt><trkpt lon="5.708786" lat="51.090267"><ele>44.4</ele><time>2022-05-15T09:16:16.000Z</time></trkpt><trkpt lon="5.70889" lat="51.090289"><ele>44.2</ele><time>2022-05-15T09:16:17.000Z</time></trkpt><trkpt lon="5.708991" lat="51.090316"><ele>44</ele><time>2022-05-15T09:16:18.000Z</time></trkpt><trkpt lon="5.709089" lat="51.090346"><ele>44</ele><time>2022-05-15T09:16:19.000Z</time></trkpt><trkpt lon="5.70919" lat="51.090377"><ele>43.8</ele><time>2022-05-15T09:16:20.000Z</time></trkpt><trkpt lon="5.709288" lat="51.09041"><ele>43.8</ele><time>2022-05-15T09:16:21.000Z</time></trkpt><trkpt lon="5.709388" lat="51.090441"><ele>44</ele><time>2022-05-15T09:16:22.000Z</time></trkpt><trkpt lon="5.709488" lat="51.090475"><ele>44</ele><time>2022-05-15T09:16:23.000Z</time></trkpt><trkpt lon="5.709588" lat="51.090509"><ele>44.2</ele><time>2022-05-15T09:16:24.000Z</time></trkpt><trkpt lon="5.70969" lat="51.090548"><ele>44.2</ele><time>2022-05-15T09:16:25.000Z</time></trkpt><trkpt lon="5.709789" lat="51.090582"><ele>44.2</ele><time>2022-05-15T09:16:26.000Z</time></trkpt><trkpt lon="5.709886" lat="51.090617"><ele>44</ele><time>2022-05-15T09:16:27.000Z</time></trkpt><trkpt lon="5.709985" lat="51.090648"><ele>44</ele><time>2022-05-15T09:16:28.000Z</time></trkpt><trkpt lon="5.710082" lat="51.090678"><ele>44.2</ele><time>2022-05-15T09:16:29.000Z</time></trkpt><trkpt lon="5.710178" lat="51.090712"><ele>44.6</ele><time>2022-05-15T09:16:30.000Z</time></trkpt><trkpt lon="5.710274" lat="51.090751"><ele>45</ele><time>2022-05-15T09:16:31.000Z</time></trkpt><trkpt lon="5.71037" lat="51.090781"><ele>44.8</ele><time>2022-05-15T09:16:32.000Z</time></trkpt><trkpt lon="5.710468" lat="51.090815"><ele>44.6</ele><time>2022-05-15T09:16:33.000Z</time></trkpt><trkpt lon="5.710566" lat="51.090849"><ele>44.4</ele><time>2022-05-15T09:16:34.000Z</time></trkpt><trkpt lon="5.710662" lat="51.09088"><ele>44.4</ele><time>2022-05-15T09:16:35.000Z</time></trkpt><trkpt lon="5.710752" lat="51.09091"><ele>44.4</ele><time>2022-05-15T09:16:36.000Z</time></trkpt><trkpt lon="5.710839" lat="51.090945"><ele>44.6</ele><time>2022-05-15T09:16:37.000Z</time></trkpt><trkpt lon="5.710912" lat="51.090979"><ele>44.8</ele><time>2022-05-15T09:16:38.000Z</time></trkpt><trkpt lon="5.710968" lat="51.091018"><ele>45</ele><time>2022-05-15T09:16:39.000Z</time></trkpt><trkpt lon="5.710996" lat="51.091066"><ele>45</ele><time>2022-05-15T09:16:40.000Z</time></trkpt><trkpt lon="5.710982" lat="51.091123"><ele>45</ele><time>2022-05-15T09:16:41.000Z</time></trkpt><trkpt lon="5.710944" lat="51.091184"><ele>45</ele><time>2022-05-15T09:16:42.000Z</time></trkpt><trkpt lon="5.710897" lat="51.091245"><ele>45</ele><time>2022-05-15T09:16:43.000Z</time></trkpt><trkpt lon="5.710849" lat="51.09131"><ele>45</ele><time>2022-05-15T09:16:44.000Z</time></trkpt><trkpt lon="5.710802" lat="51.091371"><ele>44.8</ele><time>2022-05-15T09:16:45.000Z</time></trkpt><trkpt lon="5.710755" lat="51.091429"><ele>45</ele><time>2022-05-15T09:16:46.000Z</time></trkpt><trkpt lon="5.710715" lat="51.091482"><ele>45</ele><time>2022-05-15T09:16:47.000Z</time></trkpt><trkpt lon="5.710689" lat="51.091543"><ele>44.8</ele><time>2022-05-15T09:16:48.000Z</time></trkpt><trkpt lon="5.710693" lat="51.091597"><ele>44.6</ele><time>2022-05-15T09:16:49.000Z</time></trkpt><trkpt lon="5.710735" lat="51.091643"><ele>44.4</ele><time>2022-05-15T09:16:50.000Z</time></trkpt><trkpt lon="5.710803" lat="51.091677"><ele>44.2</ele><time>2022-05-15T09:16:51.000Z</time></trkpt><trkpt lon="5.710884" lat="51.091704"><ele>44</ele><time>2022-05-15T09:16:52.000Z</time></trkpt><trkpt lon="5.710966" lat="51.091734"><ele>44</ele><time>2022-05-15T09:16:53.000Z</time></trkpt><trkpt lon="5.71106" lat="51.091758"><ele>44</ele><time>2022-05-15T09:16:54.000Z</time></trkpt><trkpt lon="5.711152" lat="51.091784"><ele>44.2</ele><time>2022-05-15T09:16:55.000Z</time></trkpt><trkpt lon="5.711243" lat="51.091815"><ele>44.2</ele><time>2022-05-15T09:16:56.000Z</time></trkpt><trkpt lon="5.711333" lat="51.091842"><ele>44.4</ele><time>2022-05-15T09:16:57.000Z</time></trkpt><trkpt lon="5.711418" lat="51.091872"><ele>44.4</ele><time>2022-05-15T09:16:58.000Z</time></trkpt><trkpt lon="5.711495" lat="51.091899"><ele>44.4</ele><time>2022-05-15T09:16:59.000Z</time></trkpt><trkpt lon="5.711553" lat="51.091936"><ele>44.4</ele><time>2022-05-15T09:17:00.000Z</time></trkpt><trkpt lon="5.711587" lat="51.091978"><ele>44.4</ele><time>2022-05-15T09:17:01.000Z</time></trkpt><trkpt lon="5.711585" lat="51.092031"><ele>44.6</ele><time>2022-05-15T09:17:02.000Z</time></trkpt><trkpt lon="5.711553" lat="51.092088"><ele>44.6</ele><time>2022-05-15T09:17:03.000Z</time></trkpt><trkpt lon="5.711507" lat="51.092149"><ele>44.4</ele><time>2022-05-15T09:17:04.000Z</time></trkpt><trkpt lon="5.711457" lat="51.092214"><ele>44.4</ele><time>2022-05-15T09:17:05.000Z</time></trkpt><trkpt lon="5.711407" lat="51.092279"><ele>44.4</ele><time>2022-05-15T09:17:06.000Z</time></trkpt><trkpt lon="5.711358" lat="51.092344"><ele>44.6</ele><time>2022-05-15T09:17:07.000Z</time></trkpt><trkpt lon="5.711312" lat="51.092409"><ele>44.6</ele><time>2022-05-15T09:17:08.000Z</time></trkpt><trkpt lon="5.711265" lat="51.09247"><ele>44.4</ele><time>2022-05-15T09:17:09.000Z</time></trkpt><trkpt lon="5.711218" lat="51.092534"><ele>44.4</ele><time>2022-05-15T09:17:10.000Z</time></trkpt><trkpt lon="5.711175" lat="51.092599"><ele>44.2</ele><time>2022-05-15T09:17:11.000Z</time></trkpt><trkpt lon="5.711138" lat="51.092672"><ele>44.2</ele><time>2022-05-15T09:17:12.000Z</time></trkpt><trkpt lon="5.711109" lat="51.092744"><ele>44.4</ele><time>2022-05-15T09:17:13.000Z</time></trkpt><trkpt lon="5.711088" lat="51.092813"><ele>44.4</ele><time>2022-05-15T09:17:14.000Z</time></trkpt><trkpt lon="5.711077" lat="51.092886"><ele>44.6</ele><time>2022-05-15T09:17:15.000Z</time></trkpt><trkpt lon="5.711072" lat="51.092964"><ele>44.6</ele><time>2022-05-15T09:17:16.000Z</time></trkpt><trkpt lon="5.711068" lat="51.093038"><ele>44.6</ele><time>2022-05-15T09:17:17.000Z</time></trkpt><trkpt lon="5.711062" lat="51.09311"><ele>44.8</ele><time>2022-05-15T09:17:18.000Z</time></trkpt><trkpt lon="5.711055" lat="51.093182"><ele>44.6</ele><time>2022-05-15T09:17:19.000Z</time></trkpt><trkpt lon="5.711048" lat="51.093255"><ele>44.6</ele><time>2022-05-15T09:17:20.000Z</time></trkpt><trkpt lon="5.71104" lat="51.093332"><ele>44.4</ele><time>2022-05-15T09:17:21.000Z</time></trkpt><trkpt lon="5.711029" lat="51.093404"><ele>44.4</ele><time>2022-05-15T09:17:22.000Z</time></trkpt><trkpt lon="5.711013" lat="51.093476"><ele>44.2</ele><time>2022-05-15T09:17:23.000Z</time></trkpt><trkpt lon="5.710989" lat="51.093549"><ele>43.8</ele><time>2022-05-15T09:17:24.000Z</time></trkpt><trkpt lon="5.71096" lat="51.093617"><ele>43.8</ele><time>2022-05-15T09:17:25.000Z</time></trkpt><trkpt lon="5.710924" lat="51.093684"><ele>44</ele><time>2022-05-15T09:17:26.000Z</time></trkpt><trkpt lon="5.710878" lat="51.093751"><ele>44</ele><time>2022-05-15T09:17:27.000Z</time></trkpt><trkpt lon="5.710833" lat="51.093816"><ele>43.8</ele><time>2022-05-15T09:17:28.000Z</time></trkpt><trkpt lon="5.71079" lat="51.093881"><ele>43.6</ele><time>2022-05-15T09:17:29.000Z</time></trkpt><trkpt lon="5.710745" lat="51.093946"><ele>43.6</ele><time>2022-05-15T09:17:30.000Z</time></trkpt><trkpt lon="5.7107" lat="51.09401"><ele>43.8</ele><time>2022-05-15T09:17:31.000Z</time></trkpt><trkpt lon="5.710655" lat="51.094072"><ele>43.8</ele><time>2022-05-15T09:17:32.000Z</time></trkpt><trkpt lon="5.71061" lat="51.094136"><ele>43.8</ele><time>2022-05-15T09:17:33.000Z</time></trkpt><trkpt lon="5.710567" lat="51.094198"><ele>44</ele><time>2022-05-15T09:17:34.000Z</time></trkpt><trkpt lon="5.710524" lat="51.094257"><ele>44</ele><time>2022-05-15T09:17:35.000Z</time></trkpt><trkpt lon="5.710482" lat="51.094316"><ele>44</ele><time>2022-05-15T09:17:36.000Z</time></trkpt><trkpt lon="5.710443" lat="51.094369"><ele>44</ele><time>2022-05-15T09:17:37.000Z</time></trkpt><trkpt lon="5.710413" lat="51.094423"><ele>44</ele><time>2022-05-15T09:17:38.000Z</time></trkpt><trkpt lon="5.710394" lat="51.094466"><ele>44.2</ele><time>2022-05-15T09:17:39.000Z</time></trkpt><trkpt lon="5.7104" lat="51.094497"><ele>44.2</ele><time>2022-05-15T09:17:40.000Z</time></trkpt><trkpt lon="5.710429" lat="51.09452"><ele>44.2</ele><time>2022-05-15T09:17:41.000Z</time></trkpt><trkpt lon="5.710476" lat="51.094542"><ele>44.4</ele><time>2022-05-15T09:17:42.000Z</time></trkpt><trkpt lon="5.710537" lat="51.094562"><ele>44.4</ele><time>2022-05-15T09:17:43.000Z</time></trkpt><trkpt lon="5.710609" lat="51.094581"><ele>44.4</ele><time>2022-05-15T09:17:44.000Z</time></trkpt><trkpt lon="5.710687" lat="51.094604"><ele>44.6</ele><time>2022-05-15T09:17:45.000Z</time></trkpt><trkpt lon="5.710771" lat="51.09463"><ele>44.2</ele><time>2022-05-15T09:17:46.000Z</time></trkpt><trkpt lon="5.710858" lat="51.094653"><ele>44.2</ele><time>2022-05-15T09:17:47.000Z</time></trkpt><trkpt lon="5.710955" lat="51.09468"><ele>44.2</ele><time>2022-05-15T09:17:48.000Z</time></trkpt><trkpt lon="5.711054" lat="51.094706"><ele>44</ele><time>2022-05-15T09:17:49.000Z</time></trkpt><trkpt lon="5.711156" lat="51.094733"><ele>44</ele><time>2022-05-15T09:17:50.000Z</time></trkpt><trkpt lon="5.711255" lat="51.09476"><ele>44</ele><time>2022-05-15T09:17:51.000Z</time></trkpt><trkpt lon="5.711353" lat="51.09479"><ele>43.8</ele><time>2022-05-15T09:17:52.000Z</time></trkpt><trkpt lon="5.711448" lat="51.094817"><ele>43.8</ele><time>2022-05-15T09:17:53.000Z</time></trkpt><trkpt lon="5.71154" lat="51.094844"><ele>43.8</ele><time>2022-05-15T09:17:54.000Z</time></trkpt><trkpt lon="5.71163" lat="51.09487"><ele>43.8</ele><time>2022-05-15T09:17:55.000Z</time></trkpt><trkpt lon="5.711722" lat="51.094894"><ele>43.8</ele><time>2022-05-15T09:17:56.000Z</time></trkpt><trkpt lon="5.711811" lat="51.09492"><ele>43.8</ele><time>2022-05-15T09:17:57.000Z</time></trkpt><trkpt lon="5.711905" lat="51.094947"><ele>43.8</ele><time>2022-05-15T09:17:58.000Z</time></trkpt><trkpt lon="5.711998" lat="51.094973"><ele>43.8</ele><time>2022-05-15T09:17:59.000Z</time></trkpt><trkpt lon="5.712091" lat="51.095"><ele>43.8</ele><time>2022-05-15T09:18:00.000Z</time></trkpt><trkpt lon="5.71218" lat="51.095026"><ele>43.8</ele><time>2022-05-15T09:18:01.000Z</time></trkpt><trkpt lon="5.712272" lat="51.095053"><ele>43.8</ele><time>2022-05-15T09:18:02.000Z</time></trkpt><trkpt lon="5.712362" lat="51.09508"><ele>43.8</ele><time>2022-05-15T09:18:03.000Z</time></trkpt><trkpt lon="5.712453" lat="51.095107"><ele>43.6</ele><time>2022-05-15T09:18:04.000Z</time></trkpt><trkpt lon="5.712543" lat="51.095134"><ele>43.4</ele><time>2022-05-15T09:18:05.000Z</time></trkpt><trkpt lon="5.712636" lat="51.095161"><ele>43.4</ele><time>2022-05-15T09:18:06.000Z</time></trkpt><trkpt lon="5.712729" lat="51.095187"><ele>43.4</ele><time>2022-05-15T09:18:07.000Z</time></trkpt><trkpt lon="5.712822" lat="51.095214"><ele>43.4</ele><time>2022-05-15T09:18:08.000Z</time></trkpt><trkpt lon="5.71292" lat="51.095237"><ele>43.2</ele><time>2022-05-15T09:18:09.000Z</time></trkpt><trkpt lon="5.713013" lat="51.095267"><ele>43.4</ele><time>2022-05-15T09:18:10.000Z</time></trkpt><trkpt lon="5.71311" lat="51.095294"><ele>43.4</ele><time>2022-05-15T09:18:11.000Z</time></trkpt><trkpt lon="5.713203" lat="51.095321"><ele>43.4</ele><time>2022-05-15T09:18:12.000Z</time></trkpt><trkpt lon="5.7133" lat="51.095347"><ele>43.4</ele><time>2022-05-15T09:18:13.000Z</time></trkpt><trkpt lon="5.713395" lat="51.095374"><ele>43.4</ele><time>2022-05-15T09:18:14.000Z</time></trkpt><trkpt lon="5.713493" lat="51.095401"><ele>43.4</ele><time>2022-05-15T09:18:15.000Z</time></trkpt><trkpt lon="5.713587" lat="51.095427"><ele>43.6</ele><time>2022-05-15T09:18:16.000Z</time></trkpt><trkpt lon="5.713683" lat="51.095454"><ele>43.6</ele><time>2022-05-15T09:18:17.000Z</time></trkpt><trkpt lon="5.713775" lat="51.095484"><ele>43.6</ele><time>2022-05-15T09:18:18.000Z</time></trkpt><trkpt lon="5.713866" lat="51.095511"><ele>43.6</ele><time>2022-05-15T09:18:19.000Z</time></trkpt><trkpt lon="5.713956" lat="51.095537"><ele>43.6</ele><time>2022-05-15T09:18:20.000Z</time></trkpt><trkpt lon="5.714055" lat="51.095565"><ele>43.6</ele><time>2022-05-15T09:18:21.000Z</time></trkpt><trkpt lon="5.71415" lat="51.095591"><ele>43.4</ele><time>2022-05-15T09:18:22.000Z</time></trkpt><trkpt lon="5.714241" lat="51.095618"><ele>43.4</ele><time>2022-05-15T09:18:23.000Z</time></trkpt><trkpt lon="5.714336" lat="51.095645"><ele>43.2</ele><time>2022-05-15T09:18:24.000Z</time></trkpt><trkpt lon="5.714431" lat="51.095672"><ele>43.2</ele><time>2022-05-15T09:18:25.000Z</time></trkpt><trkpt lon="5.714522" lat="51.095701"><ele>43.2</ele><time>2022-05-15T09:18:26.000Z</time></trkpt><trkpt lon="5.714623" lat="51.095729"><ele>43.2</ele><time>2022-05-15T09:18:27.000Z</time></trkpt><trkpt lon="5.714717" lat="51.095755"><ele>43.2</ele><time>2022-05-15T09:18:28.000Z</time></trkpt><trkpt lon="5.714809" lat="51.095781"><ele>43</ele><time>2022-05-15T09:18:29.000Z</time></trkpt><trkpt lon="5.714906" lat="51.095809"><ele>43.2</ele><time>2022-05-15T09:18:30.000Z</time></trkpt><trkpt lon="5.715" lat="51.095835"><ele>43.4</ele><time>2022-05-15T09:18:31.000Z</time></trkpt><trkpt lon="5.715094" lat="51.095858"><ele>43.4</ele><time>2022-05-15T09:18:32.000Z</time></trkpt><trkpt lon="5.715189" lat="51.095885"><ele>43.6</ele><time>2022-05-15T09:18:33.000Z</time></trkpt><trkpt lon="5.715284" lat="51.095908"><ele>43.6</ele><time>2022-05-15T09:18:34.000Z</time></trkpt><trkpt lon="5.71538" lat="51.095931"><ele>43.6</ele><time>2022-05-15T09:18:35.000Z</time></trkpt><trkpt lon="5.715475" lat="51.095954"><ele>43.4</ele><time>2022-05-15T09:18:36.000Z</time></trkpt><trkpt lon="5.715567" lat="51.095973"><ele>43.2</ele><time>2022-05-15T09:18:37.000Z</time></trkpt><trkpt lon="5.715661" lat="51.095996"><ele>43</ele><time>2022-05-15T09:18:38.000Z</time></trkpt><trkpt lon="5.715753" lat="51.096015"><ele>43</ele><time>2022-05-15T09:18:39.000Z</time></trkpt><trkpt lon="5.715847" lat="51.096034"><ele>43</ele><time>2022-05-15T09:18:40.000Z</time></trkpt><trkpt lon="5.715941" lat="51.096057"><ele>43.2</ele><time>2022-05-15T09:18:41.000Z</time></trkpt><trkpt lon="5.716032" lat="51.09608"><ele>43.2</ele><time>2022-05-15T09:18:42.000Z</time></trkpt><trkpt lon="5.716122" lat="51.096099"><ele>43.2</ele><time>2022-05-15T09:18:43.000Z</time></trkpt><trkpt lon="5.71621" lat="51.096122"><ele>43.2</ele><time>2022-05-15T09:18:44.000Z</time></trkpt><trkpt lon="5.7163" lat="51.096137"><ele>43.4</ele><time>2022-05-15T09:18:45.000Z</time></trkpt><trkpt lon="5.716387" lat="51.096153"><ele>43.2</ele><time>2022-05-15T09:18:46.000Z</time></trkpt><trkpt lon="5.716472" lat="51.096168"><ele>43.2</ele><time>2022-05-15T09:18:47.000Z</time></trkpt><trkpt lon="5.71655" lat="51.096183"><ele>43.4</ele><time>2022-05-15T09:18:48.000Z</time></trkpt><trkpt lon="5.716632" lat="51.096195"><ele>43.4</ele><time>2022-05-15T09:18:49.000Z</time></trkpt><trkpt lon="5.716704" lat="51.096206"><ele>43.4</ele><time>2022-05-15T09:18:50.000Z</time></trkpt><trkpt lon="5.716773" lat="51.096221"><ele>43.4</ele><time>2022-05-15T09:18:51.000Z</time></trkpt><trkpt lon="5.716833" lat="51.096236"><ele>43.4</ele><time>2022-05-15T09:18:52.000Z</time></trkpt><trkpt lon="5.71689" lat="51.096248"><ele>43.2</ele><time>2022-05-15T09:18:53.000Z</time></trkpt><trkpt lon="5.716942" lat="51.09626"><ele>43.4</ele><time>2022-05-15T09:18:54.000Z</time></trkpt><trkpt lon="5.716988" lat="51.096271"><ele>43.4</ele><time>2022-05-15T09:18:55.000Z</time></trkpt><trkpt lon="5.717028" lat="51.096282"><ele>43.4</ele><time>2022-05-15T09:18:56.000Z</time></trkpt><trkpt lon="5.717062" lat="51.096298"><ele>43.4</ele><time>2022-05-15T09:18:57.000Z</time></trkpt><trkpt lon="5.717083" lat="51.09632"><ele>43.6</ele><time>2022-05-15T09:18:58.000Z</time></trkpt><trkpt lon="5.71708" lat="51.096347"><ele>43.6</ele><time>2022-05-15T09:18:59.000Z</time></trkpt><trkpt lon="5.717058" lat="51.096381"><ele>43.8</ele><time>2022-05-15T09:19:00.000Z</time></trkpt><trkpt lon="5.717039" lat="51.096426"><ele>43.8</ele><time>2022-05-15T09:19:01.000Z</time></trkpt><trkpt lon="5.717035" lat="51.096476"><ele>43.8</ele><time>2022-05-15T09:19:02.000Z</time></trkpt><trkpt lon="5.717041" lat="51.096528"><ele>43.6</ele><time>2022-05-15T09:19:03.000Z</time></trkpt><trkpt lon="5.71705" lat="51.096589"><ele>43.6</ele><time>2022-05-15T09:19:04.000Z</time></trkpt><trkpt lon="5.717056" lat="51.096657"><ele>43.4</ele><time>2022-05-15T09:19:05.000Z</time></trkpt><trkpt lon="5.717063" lat="51.096726"><ele>43.4</ele><time>2022-05-15T09:19:06.000Z</time></trkpt><trkpt lon="5.71707" lat="51.096791"><ele>43.4</ele><time>2022-05-15T09:19:07.000Z</time></trkpt><trkpt lon="5.717078" lat="51.096861"><ele>43.2</ele><time>2022-05-15T09:19:08.000Z</time></trkpt><trkpt lon="5.717085" lat="51.096926"><ele>43</ele><time>2022-05-15T09:19:09.000Z</time></trkpt><trkpt lon="5.717095" lat="51.096997"><ele>42.8</ele><time>2022-05-15T09:19:10.000Z</time></trkpt><trkpt lon="5.717103" lat="51.097062"><ele>42.8</ele><time>2022-05-15T09:19:11.000Z</time></trkpt><trkpt lon="5.717108" lat="51.097131"><ele>42.8</ele><time>2022-05-15T09:19:12.000Z</time></trkpt><trkpt lon="5.717115" lat="51.097195"><ele>42.8</ele><time>2022-05-15T09:19:13.000Z</time></trkpt><trkpt lon="5.717123" lat="51.097261"><ele>43</ele><time>2022-05-15T09:19:14.000Z</time></trkpt><trkpt lon="5.717127" lat="51.097322"><ele>43</ele><time>2022-05-15T09:19:15.000Z</time></trkpt><trkpt lon="5.717131" lat="51.097387"><ele>42.8</ele><time>2022-05-15T09:19:16.000Z</time></trkpt><trkpt lon="5.717137" lat="51.097455"><ele>42.8</ele><time>2022-05-15T09:19:17.000Z</time></trkpt><trkpt lon="5.717143" lat="51.09752"><ele>42.8</ele><time>2022-05-15T09:19:18.000Z</time></trkpt><trkpt lon="5.71715" lat="51.097582"><ele>43</ele><time>2022-05-15T09:19:19.000Z</time></trkpt><trkpt lon="5.717153" lat="51.097643"><ele>43</ele><time>2022-05-15T09:19:20.000Z</time></trkpt><trkpt lon="5.717157" lat="51.097704"><ele>43</ele><time>2022-05-15T09:19:21.000Z</time></trkpt><trkpt lon="5.717165" lat="51.097768"><ele>42.8</ele><time>2022-05-15T09:19:22.000Z</time></trkpt><trkpt lon="5.717178" lat="51.097837"><ele>42.6</ele><time>2022-05-15T09:19:23.000Z</time></trkpt><trkpt lon="5.717188" lat="51.097906"><ele>42.4</ele><time>2022-05-15T09:19:24.000Z</time></trkpt><trkpt lon="5.717195" lat="51.097972"><ele>42.2</ele><time>2022-05-15T09:19:25.000Z</time></trkpt><trkpt lon="5.717205" lat="51.098043"><ele>42.2</ele><time>2022-05-15T09:19:26.000Z</time></trkpt><trkpt lon="5.717211" lat="51.098115"><ele>42</ele><time>2022-05-15T09:19:27.000Z</time></trkpt><trkpt lon="5.71722" lat="51.098184"><ele>42</ele><time>2022-05-15T09:19:28.000Z</time></trkpt><trkpt lon="5.717223" lat="51.098256"><ele>42</ele><time>2022-05-15T09:19:29.000Z</time></trkpt><trkpt lon="5.717228" lat="51.098329"><ele>42</ele><time>2022-05-15T09:19:30.000Z</time></trkpt><trkpt lon="5.717235" lat="51.098401"><ele>42.2</ele><time>2022-05-15T09:19:31.000Z</time></trkpt><trkpt lon="5.717241" lat="51.098477"><ele>42.2</ele><time>2022-05-15T09:19:32.000Z</time></trkpt><trkpt lon="5.717248" lat="51.098549"><ele>42.2</ele><time>2022-05-15T09:19:33.000Z</time></trkpt><trkpt lon="5.717259" lat="51.09863"><ele>42.4</ele><time>2022-05-15T09:19:34.000Z</time></trkpt><trkpt lon="5.717271" lat="51.09871"><ele>42.6</ele><time>2022-05-15T09:19:35.000Z</time></trkpt><trkpt lon="5.717278" lat="51.09879"><ele>42.6</ele><time>2022-05-15T09:19:36.000Z</time></trkpt><trkpt lon="5.717289" lat="51.098868"><ele>42.6</ele><time>2022-05-15T09:19:37.000Z</time></trkpt><trkpt lon="5.717296" lat="51.098949"><ele>42.6</ele><time>2022-05-15T09:19:38.000Z</time></trkpt><trkpt lon="5.7173" lat="51.099029"><ele>42.6</ele><time>2022-05-15T09:19:39.000Z</time></trkpt><trkpt lon="5.717311" lat="51.099117"><ele>42.4</ele><time>2022-05-15T09:19:40.000Z</time></trkpt><trkpt lon="5.717323" lat="51.099202"><ele>42.4</ele><time>2022-05-15T09:19:41.000Z</time></trkpt><trkpt lon="5.717333" lat="51.099278"><ele>42.4</ele><time>2022-05-15T09:19:42.000Z</time></trkpt><trkpt lon="5.717343" lat="51.099358"><ele>42.4</ele><time>2022-05-15T09:19:43.000Z</time></trkpt><trkpt lon="5.717354" lat="51.099434"><ele>42.4</ele><time>2022-05-15T09:19:44.000Z</time></trkpt><trkpt lon="5.717363" lat="51.099511"><ele>42.2</ele><time>2022-05-15T09:19:45.000Z</time></trkpt><trkpt lon="5.717373" lat="51.099591"><ele>42</ele><time>2022-05-15T09:19:46.000Z</time></trkpt><trkpt lon="5.717388" lat="51.099671"><ele>41.8</ele><time>2022-05-15T09:19:47.000Z</time></trkpt><trkpt lon="5.7174" lat="51.099748"><ele>41.6</ele><time>2022-05-15T09:19:48.000Z</time></trkpt><trkpt lon="5.717413" lat="51.099824"><ele>41.6</ele><time>2022-05-15T09:19:49.000Z</time></trkpt><trkpt lon="5.717426" lat="51.099901"><ele>41.6</ele><time>2022-05-15T09:19:50.000Z</time></trkpt><trkpt lon="5.71744" lat="51.099981"><ele>41.6</ele><time>2022-05-15T09:19:51.000Z</time></trkpt><trkpt lon="5.717451" lat="51.100049"><ele>41.6</ele><time>2022-05-15T09:19:52.000Z</time></trkpt><trkpt lon="5.717466" lat="51.100129"><ele>41.6</ele><time>2022-05-15T09:19:53.000Z</time></trkpt><trkpt lon="5.717477" lat="51.100203"><ele>41.6</ele><time>2022-05-15T09:19:54.000Z</time></trkpt><trkpt lon="5.717488" lat="51.100289"><ele>41.6</ele><time>2022-05-15T09:19:55.000Z</time></trkpt><trkpt lon="5.717501" lat="51.100377"><ele>41.4</ele><time>2022-05-15T09:19:56.000Z</time></trkpt><trkpt lon="5.717513" lat="51.100453"><ele>41.4</ele><time>2022-05-15T09:19:57.000Z</time></trkpt><trkpt lon="5.717523" lat="51.100528"><ele>41.4</ele><time>2022-05-15T09:19:58.000Z</time></trkpt><trkpt lon="5.717535" lat="51.100602"><ele>41.4</ele><time>2022-05-15T09:19:59.000Z</time></trkpt><trkpt lon="5.717545" lat="51.100667"><ele>41.2</ele><time>2022-05-15T09:20:00.000Z</time></trkpt><trkpt lon="5.717556" lat="51.100739"><ele>41.2</ele><time>2022-05-15T09:20:01.000Z</time></trkpt><trkpt lon="5.717566" lat="51.10081"><ele>41.2</ele><time>2022-05-15T09:20:02.000Z</time></trkpt><trkpt lon="5.717577" lat="51.10088"><ele>41</ele><time>2022-05-15T09:20:03.000Z</time></trkpt><trkpt lon="5.717589" lat="51.10096"><ele>41</ele><time>2022-05-15T09:20:04.000Z</time></trkpt><trkpt lon="5.717598" lat="51.101033"><ele>41</ele><time>2022-05-15T09:20:05.000Z</time></trkpt><trkpt lon="5.717606" lat="51.101105"><ele>41.2</ele><time>2022-05-15T09:20:06.000Z</time></trkpt><trkpt lon="5.717615" lat="51.101182"><ele>41.2</ele><time>2022-05-15T09:20:07.000Z</time></trkpt><trkpt lon="5.717625" lat="51.101255"><ele>41.2</ele><time>2022-05-15T09:20:08.000Z</time></trkpt><trkpt lon="5.717636" lat="51.101327"><ele>41.2</ele><time>2022-05-15T09:20:09.000Z</time></trkpt><trkpt lon="5.717643" lat="51.101392"><ele>41.2</ele><time>2022-05-15T09:20:10.000Z</time></trkpt><trkpt lon="5.71765" lat="51.101454"><ele>41.4</ele><time>2022-05-15T09:20:11.000Z</time></trkpt><trkpt lon="5.71766" lat="51.101514"><ele>41.6</ele><time>2022-05-15T09:20:12.000Z</time></trkpt><trkpt lon="5.717668" lat="51.101583"><ele>41.8</ele><time>2022-05-15T09:20:13.000Z</time></trkpt><trkpt lon="5.717676" lat="51.101655"><ele>41.6</ele><time>2022-05-15T09:20:14.000Z</time></trkpt><trkpt lon="5.717686" lat="51.101735"><ele>41.6</ele><time>2022-05-15T09:20:15.000Z</time></trkpt><trkpt lon="5.717698" lat="51.101815"><ele>41.6</ele><time>2022-05-15T09:20:16.000Z</time></trkpt><trkpt lon="5.717708" lat="51.101895"><ele>41.4</ele><time>2022-05-15T09:20:17.000Z</time></trkpt><trkpt lon="5.717721" lat="51.101972"><ele>41.4</ele><time>2022-05-15T09:20:18.000Z</time></trkpt><trkpt lon="5.717731" lat="51.102051"><ele>41.2</ele><time>2022-05-15T09:20:19.000Z</time></trkpt><trkpt lon="5.717736" lat="51.102134"><ele>41.2</ele><time>2022-05-15T09:20:20.000Z</time></trkpt><trkpt lon="5.71775" lat="51.102209"><ele>41</ele><time>2022-05-15T09:20:21.000Z</time></trkpt><trkpt lon="5.717766" lat="51.102292"><ele>41.2</ele><time>2022-05-15T09:20:22.000Z</time></trkpt><trkpt lon="5.717775" lat="51.102371"><ele>41.2</ele><time>2022-05-15T09:20:23.000Z</time></trkpt><trkpt lon="5.717783" lat="51.102448"><ele>41.2</ele><time>2022-05-15T09:20:24.000Z</time></trkpt><trkpt lon="5.717793" lat="51.102528"><ele>41.2</ele><time>2022-05-15T09:20:25.000Z</time></trkpt><trkpt lon="5.717803" lat="51.102605"><ele>41.2</ele><time>2022-05-15T09:20:26.000Z</time></trkpt><trkpt lon="5.717811" lat="51.102685"><ele>41.4</ele><time>2022-05-15T09:20:27.000Z</time></trkpt><trkpt lon="5.71782" lat="51.102765"><ele>41.6</ele><time>2022-05-15T09:20:28.000Z</time></trkpt><trkpt lon="5.717827" lat="51.102845"><ele>41.6</ele><time>2022-05-15T09:20:29.000Z</time></trkpt><trkpt lon="5.717838" lat="51.102923"><ele>41.8</ele><time>2022-05-15T09:20:30.000Z</time></trkpt><trkpt lon="5.717847" lat="51.103001"><ele>41.8</ele><time>2022-05-15T09:20:31.000Z</time></trkpt><trkpt lon="5.717856" lat="51.103073"><ele>41.8</ele><time>2022-05-15T09:20:32.000Z</time></trkpt><trkpt lon="5.717868" lat="51.103154"><ele>42</ele><time>2022-05-15T09:20:33.000Z</time></trkpt><trkpt lon="5.717876" lat="51.10323"><ele>42</ele><time>2022-05-15T09:20:34.000Z</time></trkpt><trkpt lon="5.717885" lat="51.103303"><ele>41.8</ele><time>2022-05-15T09:20:35.000Z</time></trkpt><trkpt lon="5.717893" lat="51.103379"><ele>41.6</ele><time>2022-05-15T09:20:36.000Z</time></trkpt><trkpt lon="5.717903" lat="51.103448"><ele>41.4</ele><time>2022-05-15T09:20:37.000Z</time></trkpt><trkpt lon="5.717913" lat="51.103517"><ele>41.4</ele><time>2022-05-15T09:20:38.000Z</time></trkpt><trkpt lon="5.717921" lat="51.103588"><ele>41.4</ele><time>2022-05-15T09:20:39.000Z</time></trkpt><trkpt lon="5.717929" lat="51.103663"><ele>41.4</ele><time>2022-05-15T09:20:40.000Z</time></trkpt><trkpt lon="5.71794" lat="51.103746"><ele>41.6</ele><time>2022-05-15T09:20:41.000Z</time></trkpt><trkpt lon="5.717949" lat="51.103825"><ele>41.8</ele><time>2022-05-15T09:20:42.000Z</time></trkpt><trkpt lon="5.717959" lat="51.103901"><ele>41.8</ele><time>2022-05-15T09:20:43.000Z</time></trkpt><trkpt lon="5.717968" lat="51.103982"><ele>41.6</ele><time>2022-05-15T09:20:44.000Z</time></trkpt><trkpt lon="5.717979" lat="51.104061"><ele>41.6</ele><time>2022-05-15T09:20:45.000Z</time></trkpt><trkpt lon="5.71799" lat="51.104142"><ele>41.6</ele><time>2022-05-15T09:20:46.000Z</time></trkpt><trkpt lon="5.717995" lat="51.104222"><ele>41.8</ele><time>2022-05-15T09:20:47.000Z</time></trkpt><trkpt lon="5.718003" lat="51.104298"><ele>41.8</ele><time>2022-05-15T09:20:48.000Z</time></trkpt><trkpt lon="5.718011" lat="51.104374"><ele>41.6</ele><time>2022-05-15T09:20:49.000Z</time></trkpt><trkpt lon="5.718022" lat="51.104451"><ele>41.6</ele><time>2022-05-15T09:20:50.000Z</time></trkpt><trkpt lon="5.718033" lat="51.104516"><ele>41.6</ele><time>2022-05-15T09:20:51.000Z</time></trkpt><trkpt lon="5.718043" lat="51.104588"><ele>41.4</ele><time>2022-05-15T09:20:52.000Z</time></trkpt><trkpt lon="5.71805" lat="51.104657"><ele>41.4</ele><time>2022-05-15T09:20:53.000Z</time></trkpt><trkpt lon="5.718058" lat="51.104736"><ele>41.4</ele><time>2022-05-15T09:20:54.000Z</time></trkpt><trkpt lon="5.718068" lat="51.10481"><ele>41.2</ele><time>2022-05-15T09:20:55.000Z</time></trkpt><trkpt lon="5.718074" lat="51.104885"><ele>41.2</ele><time>2022-05-15T09:20:56.000Z</time></trkpt><trkpt lon="5.718084" lat="51.104962"><ele>41</ele><time>2022-05-15T09:20:57.000Z</time></trkpt><trkpt lon="5.718091" lat="51.105038"><ele>41</ele><time>2022-05-15T09:20:58.000Z</time></trkpt><trkpt lon="5.718103" lat="51.105111"><ele>41</ele><time>2022-05-15T09:20:59.000Z</time></trkpt><trkpt lon="5.718113" lat="51.10518"><ele>41</ele><time>2022-05-15T09:21:00.000Z</time></trkpt><trkpt lon="5.718124" lat="51.105249"><ele>41</ele><time>2022-05-15T09:21:01.000Z</time></trkpt><trkpt lon="5.718135" lat="51.105318"><ele>41</ele><time>2022-05-15T09:21:02.000Z</time></trkpt><trkpt lon="5.71815" lat="51.105397"><ele>41</ele><time>2022-05-15T09:21:03.000Z</time></trkpt><trkpt lon="5.718164" lat="51.105473"><ele>41</ele><time>2022-05-15T09:21:04.000Z</time></trkpt><trkpt lon="5.718183" lat="51.105546"><ele>41</ele><time>2022-05-15T09:21:05.000Z</time></trkpt><trkpt lon="5.718198" lat="51.105622"><ele>41</ele><time>2022-05-15T09:21:06.000Z</time></trkpt><trkpt lon="5.718208" lat="51.105698"><ele>41</ele><time>2022-05-15T09:21:07.000Z</time></trkpt><trkpt lon="5.71822" lat="51.105775"><ele>41</ele><time>2022-05-15T09:21:08.000Z</time></trkpt><trkpt lon="5.718228" lat="51.105855"><ele>40.8</ele><time>2022-05-15T09:21:09.000Z</time></trkpt><trkpt lon="5.718236" lat="51.105931"><ele>41</ele><time>2022-05-15T09:21:10.000Z</time></trkpt><trkpt lon="5.718246" lat="51.106004"><ele>40.8</ele><time>2022-05-15T09:21:11.000Z</time></trkpt><trkpt lon="5.718258" lat="51.106079"><ele>40.8</ele><time>2022-05-15T09:21:12.000Z</time></trkpt><trkpt lon="5.718266" lat="51.106153"><ele>40.8</ele><time>2022-05-15T09:21:13.000Z</time></trkpt><trkpt lon="5.718275" lat="51.106221"><ele>40.8</ele><time>2022-05-15T09:21:14.000Z</time></trkpt><trkpt lon="5.718285" lat="51.106293"><ele>40.8</ele><time>2022-05-15T09:21:15.000Z</time></trkpt><trkpt lon="5.718291" lat="51.106366"><ele>40.8</ele><time>2022-05-15T09:21:16.000Z</time></trkpt><trkpt lon="5.718303" lat="51.106443"><ele>41.2</ele><time>2022-05-15T09:21:17.000Z</time></trkpt><trkpt lon="5.71831" lat="51.106518"><ele>41.4</ele><time>2022-05-15T09:21:18.000Z</time></trkpt><trkpt lon="5.718315" lat="51.106592"><ele>41.6</ele><time>2022-05-15T09:21:19.000Z</time></trkpt><trkpt lon="5.718323" lat="51.106664"><ele>41.8</ele><time>2022-05-15T09:21:20.000Z</time></trkpt><trkpt lon="5.718333" lat="51.10674"><ele>41.8</ele><time>2022-05-15T09:21:21.000Z</time></trkpt><trkpt lon="5.718345" lat="51.106816"><ele>41.8</ele><time>2022-05-15T09:21:22.000Z</time></trkpt><trkpt lon="5.718355" lat="51.106895"><ele>41.6</ele><time>2022-05-15T09:21:23.000Z</time></trkpt><trkpt lon="5.718366" lat="51.106973"><ele>41.4</ele><time>2022-05-15T09:21:24.000Z</time></trkpt><trkpt lon="5.718373" lat="51.107049"><ele>41.4</ele><time>2022-05-15T09:21:25.000Z</time></trkpt><trkpt lon="5.718382" lat="51.107125"><ele>41.4</ele><time>2022-05-15T09:21:26.000Z</time></trkpt><trkpt lon="5.71839" lat="51.107205"><ele>41.6</ele><time>2022-05-15T09:21:27.000Z</time></trkpt><trkpt lon="5.718396" lat="51.107282"><ele>41.8</ele><time>2022-05-15T09:21:28.000Z</time></trkpt><trkpt lon="5.71841" lat="51.107354"><ele>42</ele><time>2022-05-15T09:21:29.000Z</time></trkpt><trkpt lon="5.718427" lat="51.107434"><ele>42</ele><time>2022-05-15T09:21:30.000Z</time></trkpt><trkpt lon="5.718438" lat="51.107507"><ele>42</ele><time>2022-05-15T09:21:31.000Z</time></trkpt><trkpt lon="5.718448" lat="51.107578"><ele>42.2</ele><time>2022-05-15T09:21:32.000Z</time></trkpt><trkpt lon="5.71846" lat="51.107656"><ele>42.2</ele><time>2022-05-15T09:21:33.000Z</time></trkpt><trkpt lon="5.71847" lat="51.107724"><ele>42.2</ele><time>2022-05-15T09:21:34.000Z</time></trkpt><trkpt lon="5.71848" lat="51.107797"><ele>42.4</ele><time>2022-05-15T09:21:35.000Z</time></trkpt><trkpt lon="5.71849" lat="51.107865"><ele>42.4</ele><time>2022-05-15T09:21:36.000Z</time></trkpt><trkpt lon="5.7185" lat="51.107931"><ele>42.4</ele><time>2022-05-15T09:21:37.000Z</time></trkpt><trkpt lon="5.718507" lat="51.107998"><ele>42.4</ele><time>2022-05-15T09:21:38.000Z</time></trkpt><trkpt lon="5.718511" lat="51.108064"><ele>42.4</ele><time>2022-05-15T09:21:39.000Z</time></trkpt><trkpt lon="5.718513" lat="51.108132"><ele>42.6</ele><time>2022-05-15T09:21:40.000Z</time></trkpt><trkpt lon="5.718515" lat="51.108198"><ele>42.6</ele><time>2022-05-15T09:21:41.000Z</time></trkpt><trkpt lon="5.718523" lat="51.10827"><ele>42.6</ele><time>2022-05-15T09:21:42.000Z</time></trkpt><trkpt lon="5.718533" lat="51.108342"><ele>42.6</ele><time>2022-05-15T09:21:43.000Z</time></trkpt><trkpt lon="5.71855" lat="51.108422"><ele>42.4</ele><time>2022-05-15T09:21:44.000Z</time></trkpt><trkpt lon="5.718564" lat="51.108491"><ele>42.4</ele><time>2022-05-15T09:21:45.000Z</time></trkpt><trkpt lon="5.718575" lat="51.108564"><ele>42.4</ele><time>2022-05-15T09:21:46.000Z</time></trkpt><trkpt lon="5.718581" lat="51.108629"><ele>42.4</ele><time>2022-05-15T09:21:47.000Z</time></trkpt><trkpt lon="5.718588" lat="51.1087"><ele>42.4</ele><time>2022-05-15T09:21:48.000Z</time></trkpt><trkpt lon="5.718595" lat="51.108768"><ele>42</ele><time>2022-05-15T09:21:49.000Z</time></trkpt><trkpt lon="5.718598" lat="51.108839"><ele>42</ele><time>2022-05-15T09:21:50.000Z</time></trkpt><trkpt lon="5.7186" lat="51.108903"><ele>42</ele><time>2022-05-15T09:21:51.000Z</time></trkpt><trkpt lon="5.718611" lat="51.108976"><ele>41.8</ele><time>2022-05-15T09:21:52.000Z</time></trkpt><trkpt lon="5.718625" lat="51.109052"><ele>41.6</ele><time>2022-05-15T09:21:53.000Z</time></trkpt><trkpt lon="5.718634" lat="51.109125"><ele>41.4</ele><time>2022-05-15T09:21:54.000Z</time></trkpt><trkpt lon="5.718646" lat="51.109204"><ele>41.2</ele><time>2022-05-15T09:21:55.000Z</time></trkpt><trkpt lon="5.718656" lat="51.109281"><ele>41.2</ele><time>2022-05-15T09:21:56.000Z</time></trkpt><trkpt lon="5.718666" lat="51.109357"><ele>41.2</ele><time>2022-05-15T09:21:57.000Z</time></trkpt><trkpt lon="5.718675" lat="51.109429"><ele>41.4</ele><time>2022-05-15T09:21:58.000Z</time></trkpt><trkpt lon="5.718683" lat="51.109506"><ele>41.4</ele><time>2022-05-15T09:21:59.000Z</time></trkpt><trkpt lon="5.718691" lat="51.109578"><ele>41.4</ele><time>2022-05-15T09:22:00.000Z</time></trkpt><trkpt lon="5.718696" lat="51.109651"><ele>41.2</ele><time>2022-05-15T09:22:01.000Z</time></trkpt><trkpt lon="5.718703" lat="51.109725"><ele>41</ele><time>2022-05-15T09:22:02.000Z</time></trkpt><trkpt lon="5.718712" lat="51.109799"><ele>41</ele><time>2022-05-15T09:22:03.000Z</time></trkpt><trkpt lon="5.718728" lat="51.109876"><ele>40.8</ele><time>2022-05-15T09:22:04.000Z</time></trkpt><trkpt lon="5.718746" lat="51.109945"><ele>41</ele><time>2022-05-15T09:22:05.000Z</time></trkpt><trkpt lon="5.718763" lat="51.110013"><ele>41.2</ele><time>2022-05-15T09:22:06.000Z</time></trkpt><trkpt lon="5.718774" lat="51.110082"><ele>41.4</ele><time>2022-05-15T09:22:07.000Z</time></trkpt><trkpt lon="5.718786" lat="51.110154"><ele>41.2</ele><time>2022-05-15T09:22:08.000Z</time></trkpt><trkpt lon="5.718796" lat="51.110227"><ele>41</ele><time>2022-05-15T09:22:09.000Z</time></trkpt><trkpt lon="5.718805" lat="51.110303"><ele>41.2</ele><time>2022-05-15T09:22:10.000Z</time></trkpt><trkpt lon="5.718813" lat="51.110379"><ele>41</ele><time>2022-05-15T09:22:11.000Z</time></trkpt><trkpt lon="5.71882" lat="51.110451"><ele>41</ele><time>2022-05-15T09:22:12.000Z</time></trkpt><trkpt lon="5.718828" lat="51.110528"><ele>41.2</ele><time>2022-05-15T09:22:13.000Z</time></trkpt><trkpt lon="5.71884" lat="51.110603"><ele>41.2</ele><time>2022-05-15T09:22:14.000Z</time></trkpt><trkpt lon="5.718848" lat="51.110677"><ele>41.2</ele><time>2022-05-15T09:22:15.000Z</time></trkpt><trkpt lon="5.718858" lat="51.110745"><ele>41</ele><time>2022-05-15T09:22:16.000Z</time></trkpt><trkpt lon="5.718865" lat="51.110811"><ele>40.6</ele><time>2022-05-15T09:22:17.000Z</time></trkpt><trkpt lon="5.718876" lat="51.110898"><ele>40.4</ele><time>2022-05-15T09:22:18.000Z</time></trkpt><trkpt lon="5.718885" lat="51.110971"><ele>40.2</ele><time>2022-05-15T09:22:19.000Z</time></trkpt><trkpt lon="5.71889" lat="51.111047"><ele>40.2</ele><time>2022-05-15T09:22:20.000Z</time></trkpt><trkpt lon="5.7189" lat="51.111118"><ele>40.2</ele><time>2022-05-15T09:22:21.000Z</time></trkpt><trkpt lon="5.718905" lat="51.111191"><ele>40.4</ele><time>2022-05-15T09:22:22.000Z</time></trkpt><trkpt lon="5.71891" lat="51.111265"><ele>40.4</ele><time>2022-05-15T09:22:23.000Z</time></trkpt><trkpt lon="5.718918" lat="51.111338"><ele>40.4</ele><time>2022-05-15T09:22:24.000Z</time></trkpt><trkpt lon="5.718936" lat="51.111421"><ele>40.4</ele><time>2022-05-15T09:22:25.000Z</time></trkpt><trkpt lon="5.718943" lat="51.111493"><ele>40.4</ele><time>2022-05-15T09:22:26.000Z</time></trkpt><trkpt lon="5.71895" lat="51.111569"><ele>40.2</ele><time>2022-05-15T09:22:27.000Z</time></trkpt><trkpt lon="5.718962" lat="51.111645"><ele>40.2</ele><time>2022-05-15T09:22:28.000Z</time></trkpt><trkpt lon="5.718973" lat="51.111722"><ele>40.4</ele><time>2022-05-15T09:22:29.000Z</time></trkpt><trkpt lon="5.718981" lat="51.111798"><ele>40.4</ele><time>2022-05-15T09:22:30.000Z</time></trkpt><trkpt lon="5.718988" lat="51.111871"><ele>40.4</ele><time>2022-05-15T09:22:31.000Z</time></trkpt><trkpt lon="5.718996" lat="51.111943"><ele>40.4</ele><time>2022-05-15T09:22:32.000Z</time></trkpt><trkpt lon="5.719006" lat="51.112016"><ele>40.2</ele><time>2022-05-15T09:22:33.000Z</time></trkpt><trkpt lon="5.719021" lat="51.112096"><ele>40.2</ele><time>2022-05-15T09:22:34.000Z</time></trkpt><trkpt lon="5.719038" lat="51.11218"><ele>40.2</ele><time>2022-05-15T09:22:35.000Z</time></trkpt><trkpt lon="5.719049" lat="51.112256"><ele>40.2</ele><time>2022-05-15T09:22:36.000Z</time></trkpt><trkpt lon="5.719065" lat="51.112336"><ele>40.4</ele><time>2022-05-15T09:22:37.000Z</time></trkpt><trkpt lon="5.719075" lat="51.112408"><ele>40.4</ele><time>2022-05-15T09:22:38.000Z</time></trkpt><trkpt lon="5.719088" lat="51.112489"><ele>40.4</ele><time>2022-05-15T09:22:39.000Z</time></trkpt><trkpt lon="5.7191" lat="51.112569"><ele>40.6</ele><time>2022-05-15T09:22:40.000Z</time></trkpt><trkpt lon="5.719106" lat="51.112649"><ele>40.6</ele><time>2022-05-15T09:22:41.000Z</time></trkpt><trkpt lon="5.71912" lat="51.112726"><ele>40.6</ele><time>2022-05-15T09:22:42.000Z</time></trkpt><trkpt lon="5.719133" lat="51.112809"><ele>40.6</ele><time>2022-05-15T09:22:43.000Z</time></trkpt><trkpt lon="5.719148" lat="51.112889"><ele>40.6</ele><time>2022-05-15T09:22:44.000Z</time></trkpt><trkpt lon="5.719164" lat="51.112965"><ele>40.6</ele><time>2022-05-15T09:22:45.000Z</time></trkpt><trkpt lon="5.71918" lat="51.113046"><ele>40.6</ele><time>2022-05-15T09:22:46.000Z</time></trkpt><trkpt lon="5.719193" lat="51.113122"><ele>40.2</ele><time>2022-05-15T09:22:47.000Z</time></trkpt><trkpt lon="5.719201" lat="51.1132"><ele>40.2</ele><time>2022-05-15T09:22:48.000Z</time></trkpt><trkpt lon="5.71921" lat="51.113276"><ele>40.2</ele><time>2022-05-15T09:22:49.000Z</time></trkpt><trkpt lon="5.719218" lat="51.113359"><ele>40.2</ele><time>2022-05-15T09:22:50.000Z</time></trkpt><trkpt lon="5.719228" lat="51.113435"><ele>40</ele><time>2022-05-15T09:22:51.000Z</time></trkpt><trkpt lon="5.71924" lat="51.113507"><ele>40</ele><time>2022-05-15T09:22:52.000Z</time></trkpt><trkpt lon="5.71925" lat="51.113583"><ele>40</ele><time>2022-05-15T09:22:53.000Z</time></trkpt><trkpt lon="5.71926" lat="51.113656"><ele>40.2</ele><time>2022-05-15T09:22:54.000Z</time></trkpt><trkpt lon="5.719271" lat="51.113729"><ele>40.2</ele><time>2022-05-15T09:22:55.000Z</time></trkpt><trkpt lon="5.719283" lat="51.113797"><ele>40.4</ele><time>2022-05-15T09:22:56.000Z</time></trkpt><trkpt lon="5.719293" lat="51.113863"><ele>40.4</ele><time>2022-05-15T09:22:57.000Z</time></trkpt><trkpt lon="5.719303" lat="51.113937"><ele>40.4</ele><time>2022-05-15T09:22:58.000Z</time></trkpt><trkpt lon="5.719315" lat="51.114015"><ele>40.4</ele><time>2022-05-15T09:22:59.000Z</time></trkpt><trkpt lon="5.719326" lat="51.114094"><ele>40.2</ele><time>2022-05-15T09:23:00.000Z</time></trkpt><trkpt lon="5.719336" lat="51.114171"><ele>40.2</ele><time>2022-05-15T09:23:01.000Z</time></trkpt><trkpt lon="5.719346" lat="51.11425"><ele>40.2</ele><time>2022-05-15T09:23:02.000Z</time></trkpt><trkpt lon="5.719358" lat="51.114335"><ele>40.2</ele><time>2022-05-15T09:23:03.000Z</time></trkpt><trkpt lon="5.719369" lat="51.114415"><ele>40.2</ele><time>2022-05-15T09:23:04.000Z</time></trkpt><trkpt lon="5.719376" lat="51.114488"><ele>40.2</ele><time>2022-05-15T09:23:05.000Z</time></trkpt><trkpt lon="5.719382" lat="51.114564"><ele>40.4</ele><time>2022-05-15T09:23:06.000Z</time></trkpt><trkpt lon="5.719388" lat="51.11464"><ele>40.4</ele><time>2022-05-15T09:23:07.000Z</time></trkpt><trkpt lon="5.719393" lat="51.114719"><ele>40.6</ele><time>2022-05-15T09:23:08.000Z</time></trkpt><trkpt lon="5.719403" lat="51.1148"><ele>40.6</ele><time>2022-05-15T09:23:09.000Z</time></trkpt><trkpt lon="5.719415" lat="51.11488"><ele>40.6</ele><time>2022-05-15T09:23:10.000Z</time></trkpt><trkpt lon="5.719423" lat="51.11496"><ele>40.6</ele><time>2022-05-15T09:23:11.000Z</time></trkpt><trkpt lon="5.71943" lat="51.115037"><ele>40.6</ele><time>2022-05-15T09:23:12.000Z</time></trkpt><trkpt lon="5.719438" lat="51.115117"><ele>40.6</ele><time>2022-05-15T09:23:13.000Z</time></trkpt><trkpt lon="5.719446" lat="51.115197"><ele>40.6</ele><time>2022-05-15T09:23:14.000Z</time></trkpt><trkpt lon="5.719454" lat="51.115272"><ele>40.6</ele><time>2022-05-15T09:23:15.000Z</time></trkpt><trkpt lon="5.719463" lat="51.115354"><ele>40.4</ele><time>2022-05-15T09:23:16.000Z</time></trkpt><trkpt lon="5.719471" lat="51.11543"><ele>40.4</ele><time>2022-05-15T09:23:17.000Z</time></trkpt><trkpt lon="5.719478" lat="51.115514"><ele>40.4</ele><time>2022-05-15T09:23:18.000Z</time></trkpt><trkpt lon="5.719485" lat="51.115589"><ele>40.4</ele><time>2022-05-15T09:23:19.000Z</time></trkpt><trkpt lon="5.719496" lat="51.115671"><ele>40.2</ele><time>2022-05-15T09:23:20.000Z</time></trkpt><trkpt lon="5.719508" lat="51.115746"><ele>40.2</ele><time>2022-05-15T09:23:21.000Z</time></trkpt><trkpt lon="5.719519" lat="51.115818"><ele>40.2</ele><time>2022-05-15T09:23:22.000Z</time></trkpt><trkpt lon="5.719534" lat="51.115899"><ele>40.2</ele><time>2022-05-15T09:23:23.000Z</time></trkpt><trkpt lon="5.719546" lat="51.115974"><ele>40.2</ele><time>2022-05-15T09:23:24.000Z</time></trkpt><trkpt lon="5.719558" lat="51.116052"><ele>40.4</ele><time>2022-05-15T09:23:25.000Z</time></trkpt><trkpt lon="5.719566" lat="51.116128"><ele>40.6</ele><time>2022-05-15T09:23:26.000Z</time></trkpt><trkpt lon="5.719575" lat="51.116204"><ele>40.8</ele><time>2022-05-15T09:23:27.000Z</time></trkpt><trkpt lon="5.719581" lat="51.11628"><ele>40.8</ele><time>2022-05-15T09:23:28.000Z</time></trkpt><trkpt lon="5.719591" lat="51.116357"><ele>40.8</ele><time>2022-05-15T09:23:29.000Z</time></trkpt><trkpt lon="5.719601" lat="51.116433"><ele>40.8</ele><time>2022-05-15T09:23:30.000Z</time></trkpt><trkpt lon="5.719611" lat="51.116509"><ele>40.8</ele><time>2022-05-15T09:23:31.000Z</time></trkpt><trkpt lon="5.719621" lat="51.116582"><ele>41</ele><time>2022-05-15T09:23:32.000Z</time></trkpt><trkpt lon="5.71963" lat="51.116658"><ele>41</ele><time>2022-05-15T09:23:33.000Z</time></trkpt><trkpt lon="5.719641" lat="51.116731"><ele>41.2</ele><time>2022-05-15T09:23:34.000Z</time></trkpt><trkpt lon="5.719653" lat="51.116807"><ele>41.4</ele><time>2022-05-15T09:23:35.000Z</time></trkpt><trkpt lon="5.719665" lat="51.116883"><ele>41.4</ele><time>2022-05-15T09:23:36.000Z</time></trkpt><trkpt lon="5.719676" lat="51.116962"><ele>41.6</ele><time>2022-05-15T09:23:37.000Z</time></trkpt><trkpt lon="5.719688" lat="51.117036"><ele>41.8</ele><time>2022-05-15T09:23:38.000Z</time></trkpt><trkpt lon="5.719696" lat="51.117112"><ele>41.8</ele><time>2022-05-15T09:23:39.000Z</time></trkpt><trkpt lon="5.719705" lat="51.117185"><ele>42</ele><time>2022-05-15T09:23:40.000Z</time></trkpt><trkpt lon="5.719715" lat="51.117257"><ele>42.2</ele><time>2022-05-15T09:23:41.000Z</time></trkpt><trkpt lon="5.719725" lat="51.117325"><ele>42.2</ele><time>2022-05-15T09:23:42.000Z</time></trkpt><trkpt lon="5.719738" lat="51.117393"><ele>42.4</ele><time>2022-05-15T09:23:43.000Z</time></trkpt><trkpt lon="5.719751" lat="51.117458"><ele>42.4</ele><time>2022-05-15T09:23:44.000Z</time></trkpt><trkpt lon="5.71976" lat="51.117524"><ele>42.4</ele><time>2022-05-15T09:23:45.000Z</time></trkpt><trkpt lon="5.719773" lat="51.117589"><ele>42.4</ele><time>2022-05-15T09:23:46.000Z</time></trkpt><trkpt lon="5.719783" lat="51.11765"><ele>42.4</ele><time>2022-05-15T09:23:47.000Z</time></trkpt><trkpt lon="5.719796" lat="51.117715"><ele>42.6</ele><time>2022-05-15T09:23:48.000Z</time></trkpt><trkpt lon="5.719806" lat="51.117775"><ele>42.6</ele><time>2022-05-15T09:23:49.000Z</time></trkpt><trkpt lon="5.719814" lat="51.117834"><ele>42.6</ele><time>2022-05-15T09:23:50.000Z</time></trkpt><trkpt lon="5.71982" lat="51.117891"><ele>42.6</ele><time>2022-05-15T09:23:51.000Z</time></trkpt><trkpt lon="5.719828" lat="51.117941"><ele>42.6</ele><time>2022-05-15T09:23:52.000Z</time></trkpt><trkpt lon="5.719838" lat="51.117994"><ele>42.8</ele><time>2022-05-15T09:23:53.000Z</time></trkpt><trkpt lon="5.719857" lat="51.118051"><ele>42.8</ele><time>2022-05-15T09:23:54.000Z</time></trkpt><trkpt lon="5.719893" lat="51.118112"><ele>42.8</ele><time>2022-05-15T09:23:55.000Z</time></trkpt><trkpt lon="5.719937" lat="51.118169"><ele>42.8</ele><time>2022-05-15T09:23:56.000Z</time></trkpt><trkpt lon="5.719993" lat="51.11823"><ele>42.8</ele><time>2022-05-15T09:23:57.000Z</time></trkpt><trkpt lon="5.720053" lat="51.118287"><ele>43</ele><time>2022-05-15T09:23:58.000Z</time></trkpt><trkpt lon="5.720123" lat="51.118341"><ele>43</ele><time>2022-05-15T09:23:59.000Z</time></trkpt><trkpt lon="5.720191" lat="51.118399"><ele>42.8</ele><time>2022-05-15T09:24:00.000Z</time></trkpt><trkpt lon="5.720258" lat="51.118459"><ele>42.8</ele><time>2022-05-15T09:24:01.000Z</time></trkpt><trkpt lon="5.720323" lat="51.118517"><ele>43</ele><time>2022-05-15T09:24:02.000Z</time></trkpt><trkpt lon="5.720389" lat="51.118578"><ele>43</ele><time>2022-05-15T09:24:03.000Z</time></trkpt><trkpt lon="5.720454" lat="51.118639"><ele>43</ele><time>2022-05-15T09:24:04.000Z</time></trkpt><trkpt lon="5.720521" lat="51.118696"><ele>43</ele><time>2022-05-15T09:24:05.000Z</time></trkpt><trkpt lon="5.720585" lat="51.118753"><ele>43</ele><time>2022-05-15T09:24:06.000Z</time></trkpt><trkpt lon="5.720641" lat="51.118806"><ele>43</ele><time>2022-05-15T09:24:07.000Z</time></trkpt><trkpt lon="5.720705" lat="51.118867"><ele>42.8</ele><time>2022-05-15T09:24:08.000Z</time></trkpt><trkpt lon="5.720763" lat="51.118923"><ele>42.8</ele><time>2022-05-15T09:24:09.000Z</time></trkpt><trkpt lon="5.720824" lat="51.118985"><ele>42.6</ele><time>2022-05-15T09:24:10.000Z</time></trkpt><trkpt lon="5.720883" lat="51.119049"><ele>42.6</ele><time>2022-05-15T09:24:11.000Z</time></trkpt><trkpt lon="5.720955" lat="51.119107"><ele>42.4</ele><time>2022-05-15T09:24:12.000Z</time></trkpt><trkpt lon="5.721026" lat="51.119173"><ele>42.4</ele><time>2022-05-15T09:24:13.000Z</time></trkpt><trkpt lon="5.721094" lat="51.119237"><ele>42.2</ele><time>2022-05-15T09:24:14.000Z</time></trkpt><trkpt lon="5.721159" lat="51.119302"><ele>42</ele><time>2022-05-15T09:24:15.000Z</time></trkpt><trkpt lon="5.721223" lat="51.119359"><ele>42</ele><time>2022-05-15T09:24:16.000Z</time></trkpt><trkpt lon="5.721292" lat="51.119424"><ele>42</ele><time>2022-05-15T09:24:17.000Z</time></trkpt><trkpt lon="5.721356" lat="51.119478"><ele>42.2</ele><time>2022-05-15T09:24:18.000Z</time></trkpt><trkpt lon="5.721414" lat="51.119533"><ele>42</ele><time>2022-05-15T09:24:19.000Z</time></trkpt><trkpt lon="5.721486" lat="51.1196"><ele>42</ele><time>2022-05-15T09:24:20.000Z</time></trkpt><trkpt lon="5.721556" lat="51.119661"><ele>42</ele><time>2022-05-15T09:24:21.000Z</time></trkpt><trkpt lon="5.721621" lat="51.119718"><ele>42.2</ele><time>2022-05-15T09:24:22.000Z</time></trkpt><trkpt lon="5.721689" lat="51.119775"><ele>42.2</ele><time>2022-05-15T09:24:23.000Z</time></trkpt><trkpt lon="5.721749" lat="51.119832"><ele>42.2</ele><time>2022-05-15T09:24:24.000Z</time></trkpt><trkpt lon="5.721809" lat="51.11989"><ele>42.4</ele><time>2022-05-15T09:24:25.000Z</time></trkpt><trkpt lon="5.721874" lat="51.119951"><ele>42.4</ele><time>2022-05-15T09:24:26.000Z</time></trkpt><trkpt lon="5.721936" lat="51.120016"><ele>42.4</ele><time>2022-05-15T09:24:27.000Z</time></trkpt><trkpt lon="5.721994" lat="51.120072"><ele>42.4</ele><time>2022-05-15T09:24:28.000Z</time></trkpt><trkpt lon="5.722061" lat="51.120138"><ele>42.2</ele><time>2022-05-15T09:24:29.000Z</time></trkpt><trkpt lon="5.722127" lat="51.120198"><ele>42.4</ele><time>2022-05-15T09:24:30.000Z</time></trkpt><trkpt lon="5.722197" lat="51.120263"><ele>42.4</ele><time>2022-05-15T09:24:31.000Z</time></trkpt><trkpt lon="5.722267" lat="51.120324"><ele>42.4</ele><time>2022-05-15T09:24:32.000Z</time></trkpt><trkpt lon="5.722339" lat="51.120386"><ele>42.4</ele><time>2022-05-15T09:24:33.000Z</time></trkpt><trkpt lon="5.722405" lat="51.120446"><ele>42.6</ele><time>2022-05-15T09:24:34.000Z</time></trkpt><trkpt lon="5.722474" lat="51.120508"><ele>42.6</ele><time>2022-05-15T09:24:35.000Z</time></trkpt><trkpt lon="5.72254" lat="51.120568"><ele>42.6</ele><time>2022-05-15T09:24:36.000Z</time></trkpt><trkpt lon="5.72261" lat="51.12063"><ele>42.6</ele><time>2022-05-15T09:24:37.000Z</time></trkpt><trkpt lon="5.722674" lat="51.120685"><ele>42.6</ele><time>2022-05-15T09:24:38.000Z</time></trkpt><trkpt lon="5.722741" lat="51.120743"><ele>42.4</ele><time>2022-05-15T09:24:39.000Z</time></trkpt><trkpt lon="5.722804" lat="51.120805"><ele>42.4</ele><time>2022-05-15T09:24:40.000Z</time></trkpt><trkpt lon="5.722871" lat="51.120859"><ele>42.4</ele><time>2022-05-15T09:24:41.000Z</time></trkpt><trkpt lon="5.722931" lat="51.120915"><ele>42.4</ele><time>2022-05-15T09:24:42.000Z</time></trkpt><trkpt lon="5.722999" lat="51.120969"><ele>42.4</ele><time>2022-05-15T09:24:43.000Z</time></trkpt><trkpt lon="5.723069" lat="51.121027"><ele>42.6</ele><time>2022-05-15T09:24:44.000Z</time></trkpt><trkpt lon="5.72314" lat="51.121087"><ele>42.6</ele><time>2022-05-15T09:24:45.000Z</time></trkpt><trkpt lon="5.723212" lat="51.121144"><ele>42.6</ele><time>2022-05-15T09:24:46.000Z</time></trkpt><trkpt lon="5.72328" lat="51.121202"><ele>42.6</ele><time>2022-05-15T09:24:47.000Z</time></trkpt><trkpt lon="5.723347" lat="51.121259"><ele>42.4</ele><time>2022-05-15T09:24:48.000Z</time></trkpt><trkpt lon="5.723414" lat="51.12131"><ele>42.4</ele><time>2022-05-15T09:24:49.000Z</time></trkpt><trkpt lon="5.72349" lat="51.121374"><ele>42.4</ele><time>2022-05-15T09:24:50.000Z</time></trkpt><trkpt lon="5.723556" lat="51.121431"><ele>42.4</ele><time>2022-05-15T09:24:51.000Z</time></trkpt><trkpt lon="5.72362" lat="51.121488"><ele>42.2</ele><time>2022-05-15T09:24:52.000Z</time></trkpt><trkpt lon="5.723686" lat="51.121549"><ele>42.2</ele><time>2022-05-15T09:24:53.000Z</time></trkpt><trkpt lon="5.723757" lat="51.121614"><ele>42.2</ele><time>2022-05-15T09:24:54.000Z</time></trkpt><trkpt lon="5.723829" lat="51.121668"><ele>42.2</ele><time>2022-05-15T09:24:55.000Z</time></trkpt><trkpt lon="5.723902" lat="51.121725"><ele>42.2</ele><time>2022-05-15T09:24:56.000Z</time></trkpt><trkpt lon="5.723971" lat="51.121782"><ele>42.4</ele><time>2022-05-15T09:24:57.000Z</time></trkpt><trkpt lon="5.724038" lat="51.121838"><ele>42.4</ele><time>2022-05-15T09:24:58.000Z</time></trkpt><trkpt lon="5.724106" lat="51.1219"><ele>42.4</ele><time>2022-05-15T09:24:59.000Z</time></trkpt><trkpt lon="5.724176" lat="51.121961"><ele>42.6</ele><time>2022-05-15T09:25:00.000Z</time></trkpt><trkpt lon="5.724244" lat="51.122022"><ele>42.6</ele><time>2022-05-15T09:25:01.000Z</time></trkpt><trkpt lon="5.724317" lat="51.12208"><ele>42.6</ele><time>2022-05-15T09:25:02.000Z</time></trkpt><trkpt lon="5.724392" lat="51.122144"><ele>42.6</ele><time>2022-05-15T09:25:03.000Z</time></trkpt><trkpt lon="5.724469" lat="51.122206"><ele>42.6</ele><time>2022-05-15T09:25:04.000Z</time></trkpt><trkpt lon="5.724543" lat="51.12227"><ele>42.6</ele><time>2022-05-15T09:25:05.000Z</time></trkpt><trkpt lon="5.72462" lat="51.122335"><ele>42.8</ele><time>2022-05-15T09:25:06.000Z</time></trkpt><trkpt lon="5.724691" lat="51.122396"><ele>42.8</ele><time>2022-05-15T09:25:07.000Z</time></trkpt><trkpt lon="5.724763" lat="51.122456"><ele>42.8</ele><time>2022-05-15T09:25:08.000Z</time></trkpt><trkpt lon="5.724834" lat="51.122518"><ele>42.8</ele><time>2022-05-15T09:25:09.000Z</time></trkpt><trkpt lon="5.724901" lat="51.122579"><ele>42.8</ele><time>2022-05-15T09:25:10.000Z</time></trkpt><trkpt lon="5.724964" lat="51.122633"><ele>42.6</ele><time>2022-05-15T09:25:11.000Z</time></trkpt><trkpt lon="5.725028" lat="51.12269"><ele>42.6</ele><time>2022-05-15T09:25:12.000Z</time></trkpt><trkpt lon="5.725094" lat="51.122747"><ele>42.6</ele><time>2022-05-15T09:25:13.000Z</time></trkpt><trkpt lon="5.725158" lat="51.122804"><ele>42.4</ele><time>2022-05-15T09:25:14.000Z</time></trkpt><trkpt lon="5.72522" lat="51.12286"><ele>42.4</ele><time>2022-05-15T09:25:15.000Z</time></trkpt><trkpt lon="5.72529" lat="51.122922"><ele>42.2</ele><time>2022-05-15T09:25:16.000Z</time></trkpt><trkpt lon="5.72536" lat="51.122983"><ele>42</ele><time>2022-05-15T09:25:17.000Z</time></trkpt><trkpt lon="5.725429" lat="51.123044"><ele>42</ele><time>2022-05-15T09:25:18.000Z</time></trkpt><trkpt lon="5.725486" lat="51.123095"><ele>41.8</ele><time>2022-05-15T09:25:19.000Z</time></trkpt><trkpt lon="5.72556" lat="51.123159"><ele>41.8</ele><time>2022-05-15T09:25:20.000Z</time></trkpt><trkpt lon="5.72564" lat="51.123227"><ele>41.8</ele><time>2022-05-15T09:25:21.000Z</time></trkpt><trkpt lon="5.725707" lat="51.123289"><ele>41.8</ele><time>2022-05-15T09:25:22.000Z</time></trkpt><trkpt lon="5.725773" lat="51.123349"><ele>42</ele><time>2022-05-15T09:25:23.000Z</time></trkpt><trkpt lon="5.725841" lat="51.123411"><ele>42</ele><time>2022-05-15T09:25:24.000Z</time></trkpt><trkpt lon="5.725914" lat="51.123472"><ele>42</ele><time>2022-05-15T09:25:25.000Z</time></trkpt><trkpt lon="5.725982" lat="51.123528"><ele>42</ele><time>2022-05-15T09:25:26.000Z</time></trkpt><trkpt lon="5.72605" lat="51.123586"><ele>42</ele><time>2022-05-15T09:25:27.000Z</time></trkpt><trkpt lon="5.726113" lat="51.123644"><ele>42.2</ele><time>2022-05-15T09:25:28.000Z</time></trkpt><trkpt lon="5.726182" lat="51.123704"><ele>42.2</ele><time>2022-05-15T09:25:29.000Z</time></trkpt><trkpt lon="5.726254" lat="51.123766"><ele>42.2</ele><time>2022-05-15T09:25:30.000Z</time></trkpt><trkpt lon="5.726325" lat="51.123834"><ele>42.2</ele><time>2022-05-15T09:25:31.000Z</time></trkpt><trkpt lon="5.726396" lat="51.123895"><ele>42.2</ele><time>2022-05-15T09:25:32.000Z</time></trkpt><trkpt lon="5.726472" lat="51.12396"><ele>42.2</ele><time>2022-05-15T09:25:33.000Z</time></trkpt><trkpt lon="5.726547" lat="51.124025"><ele>42.2</ele><time>2022-05-15T09:25:34.000Z</time></trkpt><trkpt lon="5.726622" lat="51.124086"><ele>42</ele><time>2022-05-15T09:25:35.000Z</time></trkpt><trkpt lon="5.726693" lat="51.124153"><ele>42</ele><time>2022-05-15T09:25:36.000Z</time></trkpt><trkpt lon="5.726764" lat="51.124218"><ele>41.8</ele><time>2022-05-15T09:25:37.000Z</time></trkpt><trkpt lon="5.726835" lat="51.12428"><ele>41.8</ele><time>2022-05-15T09:25:38.000Z</time></trkpt><trkpt lon="5.726911" lat="51.124344"><ele>41.8</ele><time>2022-05-15T09:25:39.000Z</time></trkpt><trkpt lon="5.726988" lat="51.124407"><ele>41.8</ele><time>2022-05-15T09:25:40.000Z</time></trkpt><trkpt lon="5.727063" lat="51.12447"><ele>41.8</ele><time>2022-05-15T09:25:41.000Z</time></trkpt><trkpt lon="5.727136" lat="51.124532"><ele>41.8</ele><time>2022-05-15T09:25:42.000Z</time></trkpt><trkpt lon="5.727204" lat="51.124593"><ele>41.6</ele><time>2022-05-15T09:25:43.000Z</time></trkpt><trkpt lon="5.727274" lat="51.124654"><ele>41.6</ele><time>2022-05-15T09:25:44.000Z</time></trkpt><trkpt lon="5.727336" lat="51.124717"><ele>41.6</ele><time>2022-05-15T09:25:45.000Z</time></trkpt><trkpt lon="5.727402" lat="51.12478"><ele>41.8</ele><time>2022-05-15T09:25:46.000Z</time></trkpt><trkpt lon="5.727469" lat="51.124841"><ele>41.8</ele><time>2022-05-15T09:25:47.000Z</time></trkpt><trkpt lon="5.727536" lat="51.124899"><ele>42</ele><time>2022-05-15T09:25:48.000Z</time></trkpt><trkpt lon="5.72759" lat="51.124948"><ele>42</ele><time>2022-05-15T09:25:49.000Z</time></trkpt><trkpt lon="5.727657" lat="51.125008"><ele>42</ele><time>2022-05-15T09:25:50.000Z</time></trkpt><trkpt lon="5.727727" lat="51.12507"><ele>42</ele><time>2022-05-15T09:25:51.000Z</time></trkpt><trkpt lon="5.727795" lat="51.125131"><ele>42</ele><time>2022-05-15T09:25:52.000Z</time></trkpt><trkpt lon="5.727863" lat="51.125189"><ele>42</ele><time>2022-05-15T09:25:53.000Z</time></trkpt><trkpt lon="5.727924" lat="51.12525"><ele>42</ele><time>2022-05-15T09:25:54.000Z</time></trkpt><trkpt lon="5.727986" lat="51.12531"><ele>42.2</ele><time>2022-05-15T09:25:55.000Z</time></trkpt><trkpt lon="5.728052" lat="51.125368"><ele>42.2</ele><time>2022-05-15T09:25:56.000Z</time></trkpt><trkpt lon="5.728118" lat="51.125428"><ele>42.2</ele><time>2022-05-15T09:25:57.000Z</time></trkpt><trkpt lon="5.728187" lat="51.125493"><ele>42.2</ele><time>2022-05-15T09:25:58.000Z</time></trkpt><trkpt lon="5.728256" lat="51.125557"><ele>42.2</ele><time>2022-05-15T09:25:59.000Z</time></trkpt><trkpt lon="5.728326" lat="51.12562"><ele>42.2</ele><time>2022-05-15T09:26:00.000Z</time></trkpt><trkpt lon="5.728394" lat="51.12568"><ele>42.2</ele><time>2022-05-15T09:26:01.000Z</time></trkpt><trkpt lon="5.728461" lat="51.12574"><ele>42.2</ele><time>2022-05-15T09:26:02.000Z</time></trkpt><trkpt lon="5.72853" lat="51.125802"><ele>42</ele><time>2022-05-15T09:26:03.000Z</time></trkpt><trkpt lon="5.728597" lat="51.125859"><ele>42</ele><time>2022-05-15T09:26:04.000Z</time></trkpt><trkpt lon="5.728668" lat="51.125921"><ele>42</ele><time>2022-05-15T09:26:05.000Z</time></trkpt><trkpt lon="5.728735" lat="51.125989"><ele>41.8</ele><time>2022-05-15T09:26:06.000Z</time></trkpt><trkpt lon="5.728806" lat="51.126054"><ele>41.6</ele><time>2022-05-15T09:26:07.000Z</time></trkpt><trkpt lon="5.728884" lat="51.126119"><ele>41.6</ele><time>2022-05-15T09:26:08.000Z</time></trkpt><trkpt lon="5.728958" lat="51.126187"><ele>41.6</ele><time>2022-05-15T09:26:09.000Z</time></trkpt><trkpt lon="5.729034" lat="51.126253"><ele>41.6</ele><time>2022-05-15T09:26:10.000Z</time></trkpt><trkpt lon="5.72911" lat="51.126318"><ele>41.6</ele><time>2022-05-15T09:26:11.000Z</time></trkpt><trkpt lon="5.729185" lat="51.126378"><ele>41.6</ele><time>2022-05-15T09:26:12.000Z</time></trkpt><trkpt lon="5.729257" lat="51.12644"><ele>41.6</ele><time>2022-05-15T09:26:13.000Z</time></trkpt><trkpt lon="5.729324" lat="51.126501"><ele>41.8</ele><time>2022-05-15T09:26:14.000Z</time></trkpt><trkpt lon="5.729392" lat="51.126562"><ele>41.8</ele><time>2022-05-15T09:26:15.000Z</time></trkpt><trkpt lon="5.72946" lat="51.126621"><ele>41.8</ele><time>2022-05-15T09:26:16.000Z</time></trkpt><trkpt lon="5.729529" lat="51.126683"><ele>42</ele><time>2022-05-15T09:26:17.000Z</time></trkpt><trkpt lon="5.729597" lat="51.126749"><ele>42</ele><time>2022-05-15T09:26:18.000Z</time></trkpt><trkpt lon="5.729666" lat="51.126809"><ele>41.8</ele><time>2022-05-15T09:26:19.000Z</time></trkpt><trkpt lon="5.729739" lat="51.126874"><ele>41.8</ele><time>2022-05-15T09:26:20.000Z</time></trkpt><trkpt lon="5.729813" lat="51.12694"><ele>41.6</ele><time>2022-05-15T09:26:21.000Z</time></trkpt><trkpt lon="5.729886" lat="51.127004"><ele>41.4</ele><time>2022-05-15T09:26:22.000Z</time></trkpt><trkpt lon="5.729958" lat="51.127064"><ele>41.6</ele><time>2022-05-15T09:26:23.000Z</time></trkpt><trkpt lon="5.730028" lat="51.127129"><ele>41.8</ele><time>2022-05-15T09:26:24.000Z</time></trkpt><trkpt lon="5.730098" lat="51.127191"><ele>41.8</ele><time>2022-05-15T09:26:25.000Z</time></trkpt><trkpt lon="5.730162" lat="51.12725"><ele>41.8</ele><time>2022-05-15T09:26:26.000Z</time></trkpt><trkpt lon="5.730231" lat="51.127309"><ele>42</ele><time>2022-05-15T09:26:27.000Z</time></trkpt><trkpt lon="5.730297" lat="51.12737"><ele>42</ele><time>2022-05-15T09:26:28.000Z</time></trkpt><trkpt lon="5.730365" lat="51.127427"><ele>42</ele><time>2022-05-15T09:26:29.000Z</time></trkpt><trkpt lon="5.730433" lat="51.127488"><ele>42.2</ele><time>2022-05-15T09:26:30.000Z</time></trkpt><trkpt lon="5.730499" lat="51.127549"><ele>42.2</ele><time>2022-05-15T09:26:31.000Z</time></trkpt><trkpt lon="5.730565" lat="51.12761"><ele>42</ele><time>2022-05-15T09:26:32.000Z</time></trkpt><trkpt lon="5.730629" lat="51.127664"><ele>41.8</ele><time>2022-05-15T09:26:33.000Z</time></trkpt><trkpt lon="5.730688" lat="51.127718"><ele>41.4</ele><time>2022-05-15T09:26:34.000Z</time></trkpt><trkpt lon="5.730742" lat="51.127771"><ele>41.4</ele><time>2022-05-15T09:26:35.000Z</time></trkpt><trkpt lon="5.730799" lat="51.127825"><ele>41.4</ele><time>2022-05-15T09:26:36.000Z</time></trkpt><trkpt lon="5.730855" lat="51.127878"><ele>41.6</ele><time>2022-05-15T09:26:37.000Z</time></trkpt><trkpt lon="5.730908" lat="51.127928"><ele>41.6</ele><time>2022-05-15T09:26:38.000Z</time></trkpt><trkpt lon="5.730966" lat="51.127978"><ele>41.6</ele><time>2022-05-15T09:26:39.000Z</time></trkpt><trkpt lon="5.731021" lat="51.128031"><ele>41.6</ele><time>2022-05-15T09:26:40.000Z</time></trkpt><trkpt lon="5.731081" lat="51.128084"><ele>41.8</ele><time>2022-05-15T09:26:41.000Z</time></trkpt><trkpt lon="5.731144" lat="51.128141"><ele>41.6</ele><time>2022-05-15T09:26:42.000Z</time></trkpt><trkpt lon="5.731214" lat="51.128194"><ele>41.6</ele><time>2022-05-15T09:26:43.000Z</time></trkpt><trkpt lon="5.731278" lat="51.128247"><ele>41.6</ele><time>2022-05-15T09:26:44.000Z</time></trkpt><trkpt lon="5.731341" lat="51.128301"><ele>41.6</ele><time>2022-05-15T09:26:45.000Z</time></trkpt><trkpt lon="5.731411" lat="51.128361"><ele>41.6</ele><time>2022-05-15T09:26:46.000Z</time></trkpt><trkpt lon="5.731482" lat="51.12842"><ele>41.6</ele><time>2022-05-15T09:26:47.000Z</time></trkpt><trkpt lon="5.731552" lat="51.128484"><ele>41.6</ele><time>2022-05-15T09:26:48.000Z</time></trkpt><trkpt lon="5.731622" lat="51.128545"><ele>41.6</ele><time>2022-05-15T09:26:49.000Z</time></trkpt><trkpt lon="5.731697" lat="51.128611"><ele>41.6</ele><time>2022-05-15T09:26:50.000Z</time></trkpt><trkpt lon="5.731766" lat="51.128677"><ele>41.6</ele><time>2022-05-15T09:26:51.000Z</time></trkpt><trkpt lon="5.731841" lat="51.128747"><ele>41.6</ele><time>2022-05-15T09:26:52.000Z</time></trkpt><trkpt lon="5.731912" lat="51.128812"><ele>41.6</ele><time>2022-05-15T09:26:53.000Z</time></trkpt><trkpt lon="5.731989" lat="51.128877"><ele>41.6</ele><time>2022-05-15T09:26:54.000Z</time></trkpt><trkpt lon="5.732072" lat="51.128946"><ele>41.4</ele><time>2022-05-15T09:26:55.000Z</time></trkpt><trkpt lon="5.732143" lat="51.129005"><ele>41.6</ele><time>2022-05-15T09:26:56.000Z</time></trkpt><trkpt lon="5.732217" lat="51.129068"><ele>41.8</ele><time>2022-05-15T09:26:57.000Z</time></trkpt><trkpt lon="5.732285" lat="51.129123"><ele>42</ele><time>2022-05-15T09:26:58.000Z</time></trkpt><trkpt lon="5.73235" lat="51.129186"><ele>42</ele><time>2022-05-15T09:26:59.000Z</time></trkpt><trkpt lon="5.732419" lat="51.129247"><ele>42</ele><time>2022-05-15T09:27:00.000Z</time></trkpt><trkpt lon="5.732492" lat="51.129312"><ele>42</ele><time>2022-05-15T09:27:01.000Z</time></trkpt><trkpt lon="5.732561" lat="51.129377"><ele>41.8</ele><time>2022-05-15T09:27:02.000Z</time></trkpt><trkpt lon="5.732629" lat="51.129442"><ele>41.8</ele><time>2022-05-15T09:27:03.000Z</time></trkpt><trkpt lon="5.732697" lat="51.129507"><ele>41.6</ele><time>2022-05-15T09:27:04.000Z</time></trkpt><trkpt lon="5.73276" lat="51.129568"><ele>41.6</ele><time>2022-05-15T09:27:05.000Z</time></trkpt><trkpt lon="5.732822" lat="51.129632"><ele>41.6</ele><time>2022-05-15T09:27:06.000Z</time></trkpt><trkpt lon="5.732881" lat="51.129697"><ele>41.4</ele><time>2022-05-15T09:27:07.000Z</time></trkpt><trkpt lon="5.732936" lat="51.129762"><ele>41.4</ele><time>2022-05-15T09:27:08.000Z</time></trkpt><trkpt lon="5.732987" lat="51.129827"><ele>41.4</ele><time>2022-05-15T09:27:09.000Z</time></trkpt><trkpt lon="5.73304" lat="51.129888"><ele>41.4</ele><time>2022-05-15T09:27:10.000Z</time></trkpt><trkpt lon="5.73309" lat="51.129949"><ele>41.4</ele><time>2022-05-15T09:27:11.000Z</time></trkpt><trkpt lon="5.73314" lat="51.13001"><ele>41.2</ele><time>2022-05-15T09:27:12.000Z</time></trkpt><trkpt lon="5.733188" lat="51.130072"><ele>41.2</ele><time>2022-05-15T09:27:13.000Z</time></trkpt><trkpt lon="5.733238" lat="51.130139"><ele>41.2</ele><time>2022-05-15T09:27:14.000Z</time></trkpt><trkpt lon="5.733288" lat="51.130205"><ele>41.2</ele><time>2022-05-15T09:27:15.000Z</time></trkpt><trkpt lon="5.733335" lat="51.130268"><ele>41.4</ele><time>2022-05-15T09:27:16.000Z</time></trkpt><trkpt lon="5.733385" lat="51.130334"><ele>41.4</ele><time>2022-05-15T09:27:17.000Z</time></trkpt><trkpt lon="5.733433" lat="51.130399"><ele>41.4</ele><time>2022-05-15T09:27:18.000Z</time></trkpt><trkpt lon="5.733478" lat="51.130456"><ele>41.4</ele><time>2022-05-15T09:27:19.000Z</time></trkpt><trkpt lon="5.733528" lat="51.130525"><ele>41.4</ele><time>2022-05-15T09:27:20.000Z</time></trkpt><trkpt lon="5.733579" lat="51.13059"><ele>41.4</ele><time>2022-05-15T09:27:21.000Z</time></trkpt><trkpt lon="5.73363" lat="51.130655"><ele>41.6</ele><time>2022-05-15T09:27:22.000Z</time></trkpt><trkpt lon="5.733681" lat="51.13072"><ele>41.6</ele><time>2022-05-15T09:27:23.000Z</time></trkpt><trkpt lon="5.73373" lat="51.130784"><ele>41.6</ele><time>2022-05-15T09:27:24.000Z</time></trkpt><trkpt lon="5.733777" lat="51.130853"><ele>41.8</ele><time>2022-05-15T09:27:25.000Z</time></trkpt><trkpt lon="5.733822" lat="51.130914"><ele>41.8</ele><time>2022-05-15T09:27:26.000Z</time></trkpt><trkpt lon="5.733872" lat="51.130981"><ele>41.8</ele><time>2022-05-15T09:27:27.000Z</time></trkpt><trkpt lon="5.733922" lat="51.131042"><ele>42</ele><time>2022-05-15T09:27:28.000Z</time></trkpt><trkpt lon="5.733972" lat="51.131109"><ele>42</ele><time>2022-05-15T09:27:29.000Z</time></trkpt><trkpt lon="5.734018" lat="51.131173"><ele>41.8</ele><time>2022-05-15T09:27:30.000Z</time></trkpt><trkpt lon="5.734066" lat="51.131241"><ele>41.6</ele><time>2022-05-15T09:27:31.000Z</time></trkpt><trkpt lon="5.734112" lat="51.131307"><ele>41.6</ele><time>2022-05-15T09:27:32.000Z</time></trkpt><trkpt lon="5.734158" lat="51.131372"><ele>41.8</ele><time>2022-05-15T09:27:33.000Z</time></trkpt><trkpt lon="5.734203" lat="51.131433"><ele>41.8</ele><time>2022-05-15T09:27:34.000Z</time></trkpt><trkpt lon="5.73425" lat="51.131498"><ele>42</ele><time>2022-05-15T09:27:35.000Z</time></trkpt><trkpt lon="5.734297" lat="51.131561"><ele>42.2</ele><time>2022-05-15T09:27:36.000Z</time></trkpt><trkpt lon="5.734345" lat="51.131628"><ele>42.2</ele><time>2022-05-15T09:27:37.000Z</time></trkpt><trkpt lon="5.734391" lat="51.131692"><ele>42</ele><time>2022-05-15T09:27:38.000Z</time></trkpt><trkpt lon="5.734438" lat="51.131761"><ele>42</ele><time>2022-05-15T09:27:39.000Z</time></trkpt><trkpt lon="5.734483" lat="51.13183"><ele>41.8</ele><time>2022-05-15T09:27:40.000Z</time></trkpt><trkpt lon="5.73453" lat="51.131898"><ele>41.6</ele><time>2022-05-15T09:27:41.000Z</time></trkpt><trkpt lon="5.734577" lat="51.131965"><ele>41.6</ele><time>2022-05-15T09:27:42.000Z</time></trkpt><trkpt lon="5.734628" lat="51.132028"><ele>41.6</ele><time>2022-05-15T09:27:43.000Z</time></trkpt><trkpt lon="5.734675" lat="51.132093"><ele>41.6</ele><time>2022-05-15T09:27:44.000Z</time></trkpt><trkpt lon="5.734722" lat="51.132158"><ele>41.6</ele><time>2022-05-15T09:27:45.000Z</time></trkpt><trkpt lon="5.734769" lat="51.132222"><ele>41.8</ele><time>2022-05-15T09:27:46.000Z</time></trkpt><trkpt lon="5.734818" lat="51.132284"><ele>42</ele><time>2022-05-15T09:27:47.000Z</time></trkpt><trkpt lon="5.734865" lat="51.132349"><ele>42</ele><time>2022-05-15T09:27:48.000Z</time></trkpt><trkpt lon="5.734911" lat="51.132413"><ele>42</ele><time>2022-05-15T09:27:49.000Z</time></trkpt><trkpt lon="5.734957" lat="51.132479"><ele>41.8</ele><time>2022-05-15T09:27:50.000Z</time></trkpt><trkpt lon="5.735001" lat="51.132541"><ele>41.8</ele><time>2022-05-15T09:27:51.000Z</time></trkpt><trkpt lon="5.735048" lat="51.132608"><ele>41.8</ele><time>2022-05-15T09:27:52.000Z</time></trkpt><trkpt lon="5.735091" lat="51.132672"><ele>41.8</ele><time>2022-05-15T09:27:53.000Z</time></trkpt><trkpt lon="5.735136" lat="51.132733"><ele>41.8</ele><time>2022-05-15T09:27:54.000Z</time></trkpt><trkpt lon="5.735183" lat="51.132798"><ele>42</ele><time>2022-05-15T09:27:55.000Z</time></trkpt><trkpt lon="5.735228" lat="51.132859"><ele>42</ele><time>2022-05-15T09:27:56.000Z</time></trkpt><trkpt lon="5.735275" lat="51.132924"><ele>42</ele><time>2022-05-15T09:27:57.000Z</time></trkpt><trkpt lon="5.73532" lat="51.132989"><ele>42.2</ele><time>2022-05-15T09:27:58.000Z</time></trkpt><trkpt lon="5.735367" lat="51.133058"><ele>42.2</ele><time>2022-05-15T09:27:59.000Z</time></trkpt><trkpt lon="5.735416" lat="51.13313"><ele>41.8</ele><time>2022-05-15T09:28:00.000Z</time></trkpt><trkpt lon="5.735468" lat="51.133199"><ele>41.2</ele><time>2022-05-15T09:28:01.000Z</time></trkpt><trkpt lon="5.73552" lat="51.133268"><ele>41</ele><time>2022-05-15T09:28:02.000Z</time></trkpt><trkpt lon="5.73557" lat="51.133333"><ele>41</ele><time>2022-05-15T09:28:03.000Z</time></trkpt><trkpt lon="5.735617" lat="51.133399"><ele>41</ele><time>2022-05-15T09:28:04.000Z</time></trkpt><trkpt lon="5.735663" lat="51.133466"><ele>41</ele><time>2022-05-15T09:28:05.000Z</time></trkpt><trkpt lon="5.735707" lat="51.133529"><ele>40.8</ele><time>2022-05-15T09:28:06.000Z</time></trkpt><trkpt lon="5.735755" lat="51.133595"><ele>41</ele><time>2022-05-15T09:28:07.000Z</time></trkpt><trkpt lon="5.735801" lat="51.13366"><ele>41</ele><time>2022-05-15T09:28:08.000Z</time></trkpt><trkpt lon="5.735848" lat="51.133725"><ele>41</ele><time>2022-05-15T09:28:09.000Z</time></trkpt><trkpt lon="5.735895" lat="51.13379"><ele>40.8</ele><time>2022-05-15T09:28:10.000Z</time></trkpt><trkpt lon="5.735943" lat="51.133854"><ele>40.8</ele><time>2022-05-15T09:28:11.000Z</time></trkpt><trkpt lon="5.735993" lat="51.133916"><ele>41</ele><time>2022-05-15T09:28:12.000Z</time></trkpt><trkpt lon="5.73604" lat="51.133981"><ele>41</ele><time>2022-05-15T09:28:13.000Z</time></trkpt><trkpt lon="5.736085" lat="51.134049"><ele>41</ele><time>2022-05-15T09:28:14.000Z</time></trkpt><trkpt lon="5.736131" lat="51.134114"><ele>40.8</ele><time>2022-05-15T09:28:15.000Z</time></trkpt><trkpt lon="5.736177" lat="51.134179"><ele>40.8</ele><time>2022-05-15T09:28:16.000Z</time></trkpt><trkpt lon="5.736226" lat="51.134243"><ele>41.2</ele><time>2022-05-15T09:28:17.000Z</time></trkpt><trkpt lon="5.736271" lat="51.134313"><ele>41.4</ele><time>2022-05-15T09:28:18.000Z</time></trkpt><trkpt lon="5.736318" lat="51.134377"><ele>41.2</ele><time>2022-05-15T09:28:19.000Z</time></trkpt><trkpt lon="5.736361" lat="51.134441"><ele>41.2</ele><time>2022-05-15T09:28:20.000Z</time></trkpt><trkpt lon="5.736408" lat="51.134508"><ele>41</ele><time>2022-05-15T09:28:21.000Z</time></trkpt><trkpt lon="5.736455" lat="51.134576"><ele>40.6</ele><time>2022-05-15T09:28:22.000Z</time></trkpt><trkpt lon="5.736504" lat="51.134644"><ele>40.4</ele><time>2022-05-15T09:28:23.000Z</time></trkpt><trkpt lon="5.736551" lat="51.13471"><ele>40</ele><time>2022-05-15T09:28:24.000Z</time></trkpt><trkpt lon="5.7366" lat="51.134778"><ele>39.8</ele><time>2022-05-15T09:28:25.000Z</time></trkpt><trkpt lon="5.736647" lat="51.134842"><ele>39.6</ele><time>2022-05-15T09:28:26.000Z</time></trkpt><trkpt lon="5.736698" lat="51.134908"><ele>39.6</ele><time>2022-05-15T09:28:27.000Z</time></trkpt><trkpt lon="5.736745" lat="51.134973"><ele>39.4</ele><time>2022-05-15T09:28:28.000Z</time></trkpt><trkpt lon="5.736791" lat="51.135037"><ele>39.4</ele><time>2022-05-15T09:28:29.000Z</time></trkpt><trkpt lon="5.736838" lat="51.135103"><ele>39.4</ele><time>2022-05-15T09:28:30.000Z</time></trkpt><trkpt lon="5.736887" lat="51.135171"><ele>39.4</ele><time>2022-05-15T09:28:31.000Z</time></trkpt><trkpt lon="5.736934" lat="51.135236"><ele>39.2</ele><time>2022-05-15T09:28:32.000Z</time></trkpt><trkpt lon="5.73698" lat="51.135301"><ele>39</ele><time>2022-05-15T09:28:33.000Z</time></trkpt><trkpt lon="5.737029" lat="51.135365"><ele>39</ele><time>2022-05-15T09:28:34.000Z</time></trkpt><trkpt lon="5.737077" lat="51.135431"><ele>39</ele><time>2022-05-15T09:28:35.000Z</time></trkpt><trkpt lon="5.737125" lat="51.135492"><ele>39.2</ele><time>2022-05-15T09:28:36.000Z</time></trkpt><trkpt lon="5.737173" lat="51.135556"><ele>39.2</ele><time>2022-05-15T09:28:37.000Z</time></trkpt><trkpt lon="5.73722" lat="51.135625"><ele>39.2</ele><time>2022-05-15T09:28:38.000Z</time></trkpt><trkpt lon="5.737267" lat="51.13569"><ele>39.4</ele><time>2022-05-15T09:28:39.000Z</time></trkpt><trkpt lon="5.737315" lat="51.135759"><ele>39.4</ele><time>2022-05-15T09:28:40.000Z</time></trkpt><trkpt lon="5.737363" lat="51.135827"><ele>39.6</ele><time>2022-05-15T09:28:41.000Z</time></trkpt><trkpt lon="5.737411" lat="51.135892"><ele>39.8</ele><time>2022-05-15T09:28:42.000Z</time></trkpt><trkpt lon="5.737461" lat="51.135961"><ele>39.8</ele><time>2022-05-15T09:28:43.000Z</time></trkpt><trkpt lon="5.737512" lat="51.136026"><ele>39.8</ele><time>2022-05-15T09:28:44.000Z</time></trkpt><trkpt lon="5.73756" lat="51.136094"><ele>39.6</ele><time>2022-05-15T09:28:45.000Z</time></trkpt><trkpt lon="5.737607" lat="51.13616"><ele>39.6</ele><time>2022-05-15T09:28:46.000Z</time></trkpt><trkpt lon="5.737658" lat="51.136228"><ele>39.6</ele><time>2022-05-15T09:28:47.000Z</time></trkpt><trkpt lon="5.737708" lat="51.136296"><ele>39.6</ele><time>2022-05-15T09:28:48.000Z</time></trkpt><trkpt lon="5.737756" lat="51.13636"><ele>39.6</ele><time>2022-05-15T09:28:49.000Z</time></trkpt><trkpt lon="5.737803" lat="51.136431"><ele>39.4</ele><time>2022-05-15T09:28:50.000Z</time></trkpt><trkpt lon="5.737852" lat="51.136495"><ele>39.2</ele><time>2022-05-15T09:28:51.000Z</time></trkpt><trkpt lon="5.7379" lat="51.13656"><ele>39.4</ele><time>2022-05-15T09:28:52.000Z</time></trkpt><trkpt lon="5.737947" lat="51.136624"><ele>39.4</ele><time>2022-05-15T09:28:53.000Z</time></trkpt><trkpt lon="5.737996" lat="51.136689"><ele>39.6</ele><time>2022-05-15T09:28:54.000Z</time></trkpt><trkpt lon="5.738046" lat="51.136753"><ele>39.8</ele><time>2022-05-15T09:28:55.000Z</time></trkpt><trkpt lon="5.738092" lat="51.136816"><ele>39.8</ele><time>2022-05-15T09:28:56.000Z</time></trkpt><trkpt lon="5.738142" lat="51.136888"><ele>40</ele><time>2022-05-15T09:28:57.000Z</time></trkpt><trkpt lon="5.738187" lat="51.136957"><ele>40</ele><time>2022-05-15T09:28:58.000Z</time></trkpt><trkpt lon="5.738235" lat="51.137021"><ele>40.2</ele><time>2022-05-15T09:28:59.000Z</time></trkpt><trkpt lon="5.738283" lat="51.13709"><ele>40.2</ele><time>2022-05-15T09:29:00.000Z</time></trkpt><trkpt lon="5.738333" lat="51.137155"><ele>40.2</ele><time>2022-05-15T09:29:01.000Z</time></trkpt><trkpt lon="5.738381" lat="51.137219"><ele>40.2</ele><time>2022-05-15T09:29:02.000Z</time></trkpt><trkpt lon="5.738432" lat="51.137289"><ele>40.2</ele><time>2022-05-15T09:29:03.000Z</time></trkpt><trkpt lon="5.738479" lat="51.137353"><ele>40.2</ele><time>2022-05-15T09:29:04.000Z</time></trkpt><trkpt lon="5.738528" lat="51.137422"><ele>40</ele><time>2022-05-15T09:29:05.000Z</time></trkpt><trkpt lon="5.738573" lat="51.137487"><ele>40</ele><time>2022-05-15T09:29:06.000Z</time></trkpt><trkpt lon="5.73862" lat="51.137559"><ele>40</ele><time>2022-05-15T09:29:07.000Z</time></trkpt><trkpt lon="5.738667" lat="51.137628"><ele>40</ele><time>2022-05-15T09:29:08.000Z</time></trkpt><trkpt lon="5.738714" lat="51.137699"><ele>40</ele><time>2022-05-15T09:29:09.000Z</time></trkpt><trkpt lon="5.738762" lat="51.137768"><ele>40</ele><time>2022-05-15T09:29:10.000Z</time></trkpt><trkpt lon="5.738813" lat="51.137834"><ele>40</ele><time>2022-05-15T09:29:11.000Z</time></trkpt><trkpt lon="5.738865" lat="51.137902"><ele>40.2</ele><time>2022-05-15T09:29:12.000Z</time></trkpt><trkpt lon="5.738912" lat="51.137969"><ele>40.4</ele><time>2022-05-15T09:29:13.000Z</time></trkpt><trkpt lon="5.73896" lat="51.13804"><ele>40.4</ele><time>2022-05-15T09:29:14.000Z</time></trkpt><trkpt lon="5.739007" lat="51.138109"><ele>40.6</ele><time>2022-05-15T09:29:15.000Z</time></trkpt><trkpt lon="5.739052" lat="51.138172"><ele>40.6</ele><time>2022-05-15T09:29:16.000Z</time></trkpt><trkpt lon="5.739098" lat="51.138235"><ele>40.6</ele><time>2022-05-15T09:29:17.000Z</time></trkpt><trkpt lon="5.739148" lat="51.138296"><ele>40.6</ele><time>2022-05-15T09:29:18.000Z</time></trkpt><trkpt lon="5.739205" lat="51.138349"><ele>40.6</ele><time>2022-05-15T09:29:19.000Z</time></trkpt><trkpt lon="5.739266" lat="51.13841"><ele>40.6</ele><time>2022-05-15T09:29:20.000Z</time></trkpt><trkpt lon="5.739315" lat="51.138475"><ele>40.6</ele><time>2022-05-15T09:29:21.000Z</time></trkpt><trkpt lon="5.739357" lat="51.13854"><ele>40.6</ele><time>2022-05-15T09:29:22.000Z</time></trkpt><trkpt lon="5.739396" lat="51.1386"><ele>40.6</ele><time>2022-05-15T09:29:23.000Z</time></trkpt><trkpt lon="5.739433" lat="51.138664"><ele>40.6</ele><time>2022-05-15T09:29:24.000Z</time></trkpt><trkpt lon="5.739461" lat="51.138734"><ele>40.8</ele><time>2022-05-15T09:29:25.000Z</time></trkpt><trkpt lon="5.739475" lat="51.138799"><ele>40.8</ele><time>2022-05-15T09:29:26.000Z</time></trkpt><trkpt lon="5.739496" lat="51.138875"><ele>40.6</ele><time>2022-05-15T09:29:27.000Z</time></trkpt><trkpt lon="5.73953" lat="51.138944"><ele>40.4</ele><time>2022-05-15T09:29:28.000Z</time></trkpt><trkpt lon="5.73957" lat="51.139016"><ele>40.4</ele><time>2022-05-15T09:29:29.000Z</time></trkpt><trkpt lon="5.739612" lat="51.139085"><ele>40.4</ele><time>2022-05-15T09:29:30.000Z</time></trkpt><trkpt lon="5.739651" lat="51.139157"><ele>40.6</ele><time>2022-05-15T09:29:31.000Z</time></trkpt><trkpt lon="5.739694" lat="51.139224"><ele>40.6</ele><time>2022-05-15T09:29:32.000Z</time></trkpt><trkpt lon="5.739737" lat="51.139298"><ele>40.6</ele><time>2022-05-15T09:29:33.000Z</time></trkpt><trkpt lon="5.739778" lat="51.139367"><ele>40.4</ele><time>2022-05-15T09:29:34.000Z</time></trkpt><trkpt lon="5.739822" lat="51.13944"><ele>40.4</ele><time>2022-05-15T09:29:35.000Z</time></trkpt><trkpt lon="5.739863" lat="51.139512"><ele>40</ele><time>2022-05-15T09:29:36.000Z</time></trkpt><trkpt lon="5.739905" lat="51.139581"><ele>40</ele><time>2022-05-15T09:29:37.000Z</time></trkpt><trkpt lon="5.739948" lat="51.139649"><ele>39.8</ele><time>2022-05-15T09:29:38.000Z</time></trkpt><trkpt lon="5.739988" lat="51.139721"><ele>39.8</ele><time>2022-05-15T09:29:39.000Z</time></trkpt><trkpt lon="5.74003" lat="51.139791"><ele>40</ele><time>2022-05-15T09:29:40.000Z</time></trkpt><trkpt lon="5.740073" lat="51.139859"><ele>40</ele><time>2022-05-15T09:29:41.000Z</time></trkpt><trkpt lon="5.740115" lat="51.139931"><ele>40</ele><time>2022-05-15T09:29:42.000Z</time></trkpt><trkpt lon="5.740157" lat="51.14"><ele>40</ele><time>2022-05-15T09:29:43.000Z</time></trkpt><trkpt lon="5.740197" lat="51.140074"><ele>40</ele><time>2022-05-15T09:29:44.000Z</time></trkpt><trkpt lon="5.740238" lat="51.140143"><ele>39.8</ele><time>2022-05-15T09:29:45.000Z</time></trkpt><trkpt lon="5.740283" lat="51.140218"><ele>39.8</ele><time>2022-05-15T09:29:46.000Z</time></trkpt><trkpt lon="5.740328" lat="51.14029"><ele>39.6</ele><time>2022-05-15T09:29:47.000Z</time></trkpt><trkpt lon="5.740371" lat="51.140361"><ele>39.8</ele><time>2022-05-15T09:29:48.000Z</time></trkpt><trkpt lon="5.740417" lat="51.140435"><ele>39.8</ele><time>2022-05-15T09:29:49.000Z</time></trkpt><trkpt lon="5.740458" lat="51.140508"><ele>39.8</ele><time>2022-05-15T09:29:50.000Z</time></trkpt><trkpt lon="5.740503" lat="51.14058"><ele>39.8</ele><time>2022-05-15T09:29:51.000Z</time></trkpt><trkpt lon="5.740545" lat="51.140649"><ele>39.8</ele><time>2022-05-15T09:29:52.000Z</time></trkpt><trkpt lon="5.740588" lat="51.140721"><ele>39.8</ele><time>2022-05-15T09:29:53.000Z</time></trkpt><trkpt lon="5.740632" lat="51.140794"><ele>39.8</ele><time>2022-05-15T09:29:54.000Z</time></trkpt><trkpt lon="5.740677" lat="51.140863"><ele>39.8</ele><time>2022-05-15T09:29:55.000Z</time></trkpt><trkpt lon="5.740719" lat="51.140933"><ele>40</ele><time>2022-05-15T09:29:56.000Z</time></trkpt><trkpt lon="5.740762" lat="51.141004"><ele>40.4</ele><time>2022-05-15T09:29:57.000Z</time></trkpt><trkpt lon="5.740803" lat="51.141076"><ele>40.4</ele><time>2022-05-15T09:29:58.000Z</time></trkpt><trkpt lon="5.740845" lat="51.141145"><ele>40</ele><time>2022-05-15T09:29:59.000Z</time></trkpt><trkpt lon="5.740886" lat="51.141216"><ele>40</ele><time>2022-05-15T09:30:00.000Z</time></trkpt><trkpt lon="5.740929" lat="51.141285"><ele>39.8</ele><time>2022-05-15T09:30:01.000Z</time></trkpt><trkpt lon="5.740972" lat="51.141359"><ele>40</ele><time>2022-05-15T09:30:02.000Z</time></trkpt><trkpt lon="5.741015" lat="51.141427"><ele>40.2</ele><time>2022-05-15T09:30:03.000Z</time></trkpt><trkpt lon="5.741056" lat="51.141494"><ele>40.2</ele><time>2022-05-15T09:30:04.000Z</time></trkpt><trkpt lon="5.741098" lat="51.141564"><ele>40.2</ele><time>2022-05-15T09:30:05.000Z</time></trkpt><trkpt lon="5.741137" lat="51.141628"><ele>40.4</ele><time>2022-05-15T09:30:06.000Z</time></trkpt><trkpt lon="5.741182" lat="51.141705"><ele>40.4</ele><time>2022-05-15T09:30:07.000Z</time></trkpt><trkpt lon="5.741221" lat="51.141773"><ele>40.2</ele><time>2022-05-15T09:30:08.000Z</time></trkpt><trkpt lon="5.741262" lat="51.141843"><ele>40.2</ele><time>2022-05-15T09:30:09.000Z</time></trkpt><trkpt lon="5.741303" lat="51.141911"><ele>40.2</ele><time>2022-05-15T09:30:10.000Z</time></trkpt><trkpt lon="5.741346" lat="51.141976"><ele>40.2</ele><time>2022-05-15T09:30:11.000Z</time></trkpt><trkpt lon="5.741387" lat="51.142045"><ele>40.4</ele><time>2022-05-15T09:30:12.000Z</time></trkpt><trkpt lon="5.741427" lat="51.142114"><ele>40.4</ele><time>2022-05-15T09:30:13.000Z</time></trkpt><trkpt lon="5.741465" lat="51.142179"><ele>40.4</ele><time>2022-05-15T09:30:14.000Z</time></trkpt><trkpt lon="5.741505" lat="51.142247"><ele>40.2</ele><time>2022-05-15T09:30:15.000Z</time></trkpt><trkpt lon="5.741539" lat="51.142311"><ele>40.2</ele><time>2022-05-15T09:30:16.000Z</time></trkpt><trkpt lon="5.741576" lat="51.142381"><ele>40.2</ele><time>2022-05-15T09:30:17.000Z</time></trkpt><trkpt lon="5.741609" lat="51.14245"><ele>40.4</ele><time>2022-05-15T09:30:18.000Z</time></trkpt><trkpt lon="5.74164" lat="51.142514"><ele>40.4</ele><time>2022-05-15T09:30:19.000Z</time></trkpt><trkpt lon="5.74167" lat="51.142578"><ele>40.6</ele><time>2022-05-15T09:30:20.000Z</time></trkpt><trkpt lon="5.741697" lat="51.142648"><ele>40.6</ele><time>2022-05-15T09:30:21.000Z</time></trkpt><trkpt lon="5.741723" lat="51.142713"><ele>40.6</ele><time>2022-05-15T09:30:22.000Z</time></trkpt><trkpt lon="5.741747" lat="51.142782"><ele>40.6</ele><time>2022-05-15T09:30:23.000Z</time></trkpt><trkpt lon="5.741769" lat="51.142846"><ele>40.6</ele><time>2022-05-15T09:30:24.000Z</time></trkpt><trkpt lon="5.741789" lat="51.142911"><ele>40.6</ele><time>2022-05-15T09:30:25.000Z</time></trkpt><trkpt lon="5.741807" lat="51.142975"><ele>40.6</ele><time>2022-05-15T09:30:26.000Z</time></trkpt><trkpt lon="5.741824" lat="51.143041"><ele>40.4</ele><time>2022-05-15T09:30:27.000Z</time></trkpt><trkpt lon="5.741841" lat="51.143106"><ele>40.4</ele><time>2022-05-15T09:30:28.000Z</time></trkpt><trkpt lon="5.741858" lat="51.143171"><ele>40.4</ele><time>2022-05-15T09:30:29.000Z</time></trkpt><trkpt lon="5.741869" lat="51.143235"><ele>40.4</ele><time>2022-05-15T09:30:30.000Z</time></trkpt><trkpt lon="5.74188" lat="51.143297"><ele>40.6</ele><time>2022-05-15T09:30:31.000Z</time></trkpt><trkpt lon="5.741888" lat="51.143361"><ele>40.6</ele><time>2022-05-15T09:30:32.000Z</time></trkpt><trkpt lon="5.741896" lat="51.143423"><ele>40.6</ele><time>2022-05-15T09:30:33.000Z</time></trkpt><trkpt lon="5.741905" lat="51.143483"><ele>40.8</ele><time>2022-05-15T09:30:34.000Z</time></trkpt><trkpt lon="5.741912" lat="51.143541"><ele>40.8</ele><time>2022-05-15T09:30:35.000Z</time></trkpt><trkpt lon="5.741916" lat="51.143597"><ele>41</ele><time>2022-05-15T09:30:36.000Z</time></trkpt><trkpt lon="5.741918" lat="51.143654"><ele>41.2</ele><time>2022-05-15T09:30:37.000Z</time></trkpt><trkpt lon="5.74192" lat="51.143707"><ele>41.2</ele><time>2022-05-15T09:30:38.000Z</time></trkpt><trkpt lon="5.741919" lat="51.143762"><ele>41.4</ele><time>2022-05-15T09:30:39.000Z</time></trkpt><trkpt lon="5.741919" lat="51.143816"><ele>41.6</ele><time>2022-05-15T09:30:40.000Z</time></trkpt><trkpt lon="5.741915" lat="51.143861"><ele>41.8</ele><time>2022-05-15T09:30:41.000Z</time></trkpt><trkpt lon="5.741915" lat="51.143904"><ele>41.8</ele><time>2022-05-15T09:30:42.000Z</time></trkpt><trkpt lon="5.741917" lat="51.143949"><ele>42</ele><time>2022-05-15T09:30:43.000Z</time></trkpt><trkpt lon="5.741912" lat="51.143995"><ele>42</ele><time>2022-05-15T09:30:44.000Z</time></trkpt><trkpt lon="5.741901" lat="51.144044"><ele>42</ele><time>2022-05-15T09:30:45.000Z</time></trkpt><trkpt lon="5.741889" lat="51.144094"><ele>41.8</ele><time>2022-05-15T09:30:46.000Z</time></trkpt><trkpt lon="5.741877" lat="51.14414"><ele>41.8</ele><time>2022-05-15T09:30:47.000Z</time></trkpt><trkpt lon="5.741869" lat="51.144194"><ele>41.8</ele><time>2022-05-15T09:30:48.000Z</time></trkpt><trkpt lon="5.741864" lat="51.14425"><ele>41.8</ele><time>2022-05-15T09:30:49.000Z</time></trkpt><trkpt lon="5.741863" lat="51.144308"><ele>41.6</ele><time>2022-05-15T09:30:50.000Z</time></trkpt><trkpt lon="5.741863" lat="51.144366"><ele>41.6</ele><time>2022-05-15T09:30:51.000Z</time></trkpt><trkpt lon="5.74186" lat="51.144426"><ele>41.4</ele><time>2022-05-15T09:30:52.000Z</time></trkpt><trkpt lon="5.741859" lat="51.144487"><ele>41.4</ele><time>2022-05-15T09:30:53.000Z</time></trkpt><trkpt lon="5.741857" lat="51.144548"><ele>41.4</ele><time>2022-05-15T09:30:54.000Z</time></trkpt><trkpt lon="5.741857" lat="51.144612"><ele>41.4</ele><time>2022-05-15T09:30:55.000Z</time></trkpt><trkpt lon="5.741857" lat="51.144673"><ele>41.4</ele><time>2022-05-15T09:30:56.000Z</time></trkpt><trkpt lon="5.741857" lat="51.144734"><ele>41.6</ele><time>2022-05-15T09:30:57.000Z</time></trkpt><trkpt lon="5.741857" lat="51.144796"><ele>41.4</ele><time>2022-05-15T09:30:58.000Z</time></trkpt><trkpt lon="5.741857" lat="51.144857"><ele>41.2</ele><time>2022-05-15T09:30:59.000Z</time></trkpt><trkpt lon="5.741862" lat="51.144914"><ele>41</ele><time>2022-05-15T09:31:00.000Z</time></trkpt><trkpt lon="5.741868" lat="51.144971"><ele>41</ele><time>2022-05-15T09:31:01.000Z</time></trkpt><trkpt lon="5.741873" lat="51.145025"><ele>41.2</ele><time>2022-05-15T09:31:02.000Z</time></trkpt><trkpt lon="5.741875" lat="51.145079"><ele>41.4</ele><time>2022-05-15T09:31:03.000Z</time></trkpt><trkpt lon="5.741867" lat="51.145128"><ele>41.6</ele><time>2022-05-15T09:31:04.000Z</time></trkpt><trkpt lon="5.741852" lat="51.145178"><ele>41.6</ele><time>2022-05-15T09:31:05.000Z</time></trkpt><trkpt lon="5.741833" lat="51.145227"><ele>41.8</ele><time>2022-05-15T09:31:06.000Z</time></trkpt><trkpt lon="5.741816" lat="51.145272"><ele>41.8</ele><time>2022-05-15T09:31:07.000Z</time></trkpt><trkpt lon="5.741804" lat="51.145308"><ele>41.8</ele><time>2022-05-15T09:31:08.000Z</time></trkpt><trkpt lon="5.741805" lat="51.145342"><ele>42</ele><time>2022-05-15T09:31:09.000Z</time></trkpt><trkpt lon="5.741821" lat="51.14537"><ele>42</ele><time>2022-05-15T09:31:10.000Z</time></trkpt><trkpt lon="5.741846" lat="51.145385"><ele>42.2</ele><time>2022-05-15T09:31:11.000Z</time></trkpt><trkpt lon="5.741867" lat="51.145393"><ele>42.2</ele><time>2022-05-15T09:31:12.000Z</time></trkpt><trkpt lon="5.741936" lat="51.145419"><ele>42.4</ele><time>2022-05-15T09:31:17.000Z</time></trkpt><trkpt lon="5.741965" lat="51.145434"><ele>42.4</ele><time>2022-05-15T09:31:18.000Z</time></trkpt><trkpt lon="5.741999" lat="51.145458"><ele>42.4</ele><time>2022-05-15T09:31:19.000Z</time></trkpt><trkpt lon="5.74203" lat="51.145484"><ele>42.4</ele><time>2022-05-15T09:31:20.000Z</time></trkpt><trkpt lon="5.742065" lat="51.145514"><ele>42.2</ele><time>2022-05-15T09:31:21.000Z</time></trkpt><trkpt lon="5.74211" lat="51.145541"><ele>42</ele><time>2022-05-15T09:31:22.000Z</time></trkpt><trkpt lon="5.742167" lat="51.145564"><ele>42</ele><time>2022-05-15T09:31:23.000Z</time></trkpt><trkpt lon="5.742237" lat="51.145587"><ele>42</ele><time>2022-05-15T09:31:24.000Z</time></trkpt><trkpt lon="5.74231" lat="51.145606"><ele>42</ele><time>2022-05-15T09:31:25.000Z</time></trkpt><trkpt lon="5.742386" lat="51.145632"><ele>42</ele><time>2022-05-15T09:31:26.000Z</time></trkpt><trkpt lon="5.742467" lat="51.145655"><ele>42</ele><time>2022-05-15T09:31:27.000Z</time></trkpt><trkpt lon="5.742549" lat="51.145682"><ele>42</ele><time>2022-05-15T09:31:28.000Z</time></trkpt><trkpt lon="5.742622" lat="51.145709"><ele>42</ele><time>2022-05-15T09:31:29.000Z</time></trkpt><trkpt lon="5.742697" lat="51.145725"><ele>42</ele><time>2022-05-15T09:31:30.000Z</time></trkpt><trkpt lon="5.742778" lat="51.145736"><ele>42</ele><time>2022-05-15T09:31:31.000Z</time></trkpt><trkpt lon="5.742861" lat="51.145748"><ele>42.2</ele><time>2022-05-15T09:31:32.000Z</time></trkpt><trkpt lon="5.742938" lat="51.145755"><ele>42.4</ele><time>2022-05-15T09:31:33.000Z</time></trkpt></trkseg></trk></gpx>